<?xml version="1.0" encoding="UTF-8" standalone="no" ?>
<gpx xmlns="http://www.topografix.com/GPX/1/1" xmlns:xsi="http://www.w3.org/2001/XMLSchema-instance" xsi:schemaLocation="http://www.topografix.com/GPX/1/1 http://www.topografix.com/GPX/1/1/gpx.xsd" version="1.1" creator="VisuGPX - https://www.visugpx.com">
  <metadata>
    <name>Vaudois en sens horaire</name>
    <desc><![CDATA[Vaudois en sens horaire]]></desc>
  </metadata>
  <wpt lat="47.4959" lon="6.75728">
    <ele>332</ele>
    <name><![CDATA[Point de cheminement 1]]></name>
    <desc><![CDATA[]]></desc>
  </wpt>
  <wpt lat="47.50067" lon="6.75977">
    <ele>379</ele>
    <name><![CDATA[Point de cheminement 2]]></name>
    <desc><![CDATA[]]></desc>
  </wpt>
  <wpt lat="47.53186" lon="6.77557">
    <ele>397</ele>
    <name><![CDATA[Point de cheminement 3]]></name>
    <desc><![CDATA[]]></desc>
  </wpt>
  <wpt lat="47.5432" lon="6.75366">
    <ele>463</ele>
    <name><![CDATA[Point de cheminement 4]]></name>
    <desc><![CDATA[]]></desc>
  </wpt>
  <wpt lat="47.57084" lon="6.73535">
    <ele>341</ele>
    <name><![CDATA[Point de cheminement 5]]></name>
    <desc><![CDATA[]]></desc>
  </wpt>
  <wpt lat="47.58017" lon="6.71859">
    <ele>487</ele>
    <name><![CDATA[Point de cheminement 6]]></name>
    <desc><![CDATA[]]></desc>
  </wpt>
  <wpt lat="47.58457" lon="6.74085">
    <ele>338</ele>
    <name><![CDATA[Point de cheminement 7]]></name>
    <desc><![CDATA[]]></desc>
  </wpt>
  <wpt lat="47.58748" lon="6.74871">
    <ele>405</ele>
    <name><![CDATA[Point de cheminement 8]]></name>
    <desc><![CDATA[]]></desc>
  </wpt>
  <wpt lat="47.59308" lon="6.7539">
    <ele>509</ele>
    <name><![CDATA[Point de cheminement 9]]></name>
    <desc><![CDATA[]]></desc>
  </wpt>
  <wpt lat="47.596" lon="6.7712">
    <ele>477</ele>
    <name><![CDATA[Point de cheminement 10]]></name>
    <desc><![CDATA[]]></desc>
  </wpt>
  <wpt lat="47.59569" lon="6.78617">
    <ele>385</ele>
    <name><![CDATA[Point de cheminement 11]]></name>
    <desc><![CDATA[]]></desc>
  </wpt>
  <wpt lat="47.57627" lon="6.79404">
    <ele>397</ele>
    <name><![CDATA[Point de cheminement 12]]></name>
    <desc><![CDATA[]]></desc>
  </wpt>
  <wpt lat="47.54812" lon="6.79452">
    <ele>357</ele>
    <name><![CDATA[Point de cheminement 13]]></name>
    <desc><![CDATA[]]></desc>
  </wpt>
  <wpt lat="47.53533" lon="6.78578">
    <ele>331</ele>
    <name><![CDATA[Point de cheminement 14]]></name>
    <desc><![CDATA[]]></desc>
  </wpt>
  <wpt lat="47.51818" lon="6.77491">
    <ele>387</ele>
    <name><![CDATA[Point de cheminement 15]]></name>
    <desc><![CDATA[]]></desc>
  </wpt>
  <trk>
    <name><![CDATA[Rue Antoine Coysevox]]></name>
    <desc><![CDATA[]]></desc>
    <trkseg>
      <trkpt lat="47.51798" lon="6.77491">
        <ele>388</ele>
        <time>2016-08-15T06:14:37.000Z</time>
      </trkpt>
      <trkpt lat="47.51798" lon="6.77487">
        <ele>388</ele>
        <time>2016-08-15T06:14:38.000Z</time>
      </trkpt>
      <trkpt lat="47.51797" lon="6.77482">
        <ele>388</ele>
        <time>2016-08-15T06:14:39.000Z</time>
      </trkpt>
      <trkpt lat="47.51799" lon="6.77482">
        <ele>388</ele>
        <time>2016-08-15T06:14:48.000Z</time>
      </trkpt>
      <trkpt lat="47.51803" lon="6.77481">
        <ele>388</ele>
        <time>2016-08-15T06:14:49.000Z</time>
      </trkpt>
      <trkpt lat="47.51803" lon="6.77483">
        <ele>388</ele>
        <time>2016-08-15T06:15:42.000Z</time>
      </trkpt>
      <trkpt lat="47.51801" lon="6.77463">
        <ele>388</ele>
        <time>2016-08-15T06:15:43.000Z</time>
      </trkpt>
      <trkpt lat="47.518" lon="6.7747">
        <ele>388</ele>
        <time>2016-08-15T06:16:35.000Z</time>
      </trkpt>
      <trkpt lat="47.518" lon="6.7747">
        <ele>388</ele>
        <time>2016-08-15T06:16:36.000Z</time>
      </trkpt>
      <trkpt lat="47.51798" lon="6.77475">
        <ele>388</ele>
        <time>2016-08-15T06:16:48.000Z</time>
      </trkpt>
      <trkpt lat="47.51799" lon="6.77476">
        <ele>388</ele>
        <time>2016-08-15T06:16:49.000Z</time>
      </trkpt>
      <trkpt lat="47.51802" lon="6.77481">
        <ele>388</ele>
        <time>2016-08-15T06:16:51.000Z</time>
      </trkpt>
      <trkpt lat="47.51802" lon="6.77484">
        <ele>388</ele>
        <time>2016-08-15T06:16:52.000Z</time>
      </trkpt>
      <trkpt lat="47.518" lon="6.7749">
        <ele>388</ele>
        <time>2016-08-15T06:16:55.000Z</time>
      </trkpt>
      <trkpt lat="47.51797" lon="6.7749">
        <ele>388</ele>
        <time>2016-08-15T06:16:56.000Z</time>
      </trkpt>
      <trkpt lat="47.51794" lon="6.7749">
        <ele>388</ele>
        <time>2016-08-15T06:16:57.000Z</time>
      </trkpt>
      <trkpt lat="47.5179" lon="6.77489">
        <ele>388</ele>
        <time>2016-08-15T06:16:58.000Z</time>
      </trkpt>
      <trkpt lat="47.51787" lon="6.77487">
        <ele>388</ele>
        <time>2016-08-15T06:16:59.000Z</time>
      </trkpt>
      <trkpt lat="47.51783" lon="6.77485">
        <ele>388</ele>
        <time>2016-08-15T06:17:00.000Z</time>
      </trkpt>
      <trkpt lat="47.5178" lon="6.77484">
        <ele>388</ele>
        <time>2016-08-15T06:17:01.000Z</time>
      </trkpt>
      <trkpt lat="47.51777" lon="6.77482">
        <ele>388</ele>
        <time>2016-08-15T06:17:02.000Z</time>
      </trkpt>
      <trkpt lat="47.51774" lon="6.7748">
        <ele>388</ele>
        <time>2016-08-15T06:17:03.000Z</time>
      </trkpt>
      <trkpt lat="47.51771" lon="6.7748">
        <ele>388</ele>
        <time>2016-08-15T06:17:04.000Z</time>
      </trkpt>
      <trkpt lat="47.51767" lon="6.77479">
        <ele>388</ele>
        <time>2016-08-15T06:17:05.000Z</time>
      </trkpt>
      <trkpt lat="47.51764" lon="6.77479">
        <ele>389</ele>
        <time>2016-08-15T06:17:06.000Z</time>
      </trkpt>
      <trkpt lat="47.5176" lon="6.77478">
        <ele>389</ele>
        <time>2016-08-15T06:17:07.000Z</time>
      </trkpt>
      <trkpt lat="47.51757" lon="6.77478">
        <ele>389</ele>
        <time>2016-08-15T06:17:08.000Z</time>
      </trkpt>
      <trkpt lat="47.51753" lon="6.77477">
        <ele>389</ele>
        <time>2016-08-15T06:17:09.000Z</time>
      </trkpt>
      <trkpt lat="47.51748" lon="6.77478">
        <ele>389</ele>
        <time>2016-08-15T06:17:10.000Z</time>
      </trkpt>
      <trkpt lat="47.51744" lon="6.77476">
        <ele>389</ele>
        <time>2016-08-15T06:17:11.000Z</time>
      </trkpt>
      <trkpt lat="47.51739" lon="6.77475">
        <ele>389</ele>
        <time>2016-08-15T06:17:12.000Z</time>
      </trkpt>
      <trkpt lat="47.51735" lon="6.77475">
        <ele>389</ele>
        <time>2016-08-15T06:17:13.000Z</time>
      </trkpt>
      <trkpt lat="47.5173" lon="6.77475">
        <ele>389</ele>
        <time>2016-08-15T06:17:14.000Z</time>
      </trkpt>
      <trkpt lat="47.51726" lon="6.77477">
        <ele>389</ele>
        <time>2016-08-15T06:17:15.000Z</time>
      </trkpt>
      <trkpt lat="47.51723" lon="6.77488">
        <ele>389</ele>
        <time>2016-08-15T06:17:16.000Z</time>
      </trkpt>
      <trkpt lat="47.51721" lon="6.77494">
        <ele>389</ele>
        <time>2016-08-15T06:17:17.000Z</time>
      </trkpt>
      <trkpt lat="47.5172" lon="6.77499">
        <ele>389</ele>
        <time>2016-08-15T06:17:18.000Z</time>
      </trkpt>
      <trkpt lat="47.5172" lon="6.77504">
        <ele>390</ele>
        <time>2016-08-15T06:17:19.000Z</time>
      </trkpt>
      <trkpt lat="47.51719" lon="6.77509">
        <ele>390</ele>
        <time>2016-08-15T06:17:20.000Z</time>
      </trkpt>
      <trkpt lat="47.51719" lon="6.77518">
        <ele>390</ele>
        <time>2016-08-15T06:17:21.000Z</time>
      </trkpt>
      <trkpt lat="47.51717" lon="6.77525">
        <ele>390</ele>
        <time>2016-08-15T06:17:22.000Z</time>
      </trkpt>
      <trkpt lat="47.51716" lon="6.77535">
        <ele>390</ele>
        <time>2016-08-15T06:17:23.000Z</time>
      </trkpt>
      <trkpt lat="47.51715" lon="6.77541">
        <ele>390</ele>
        <time>2016-08-15T06:17:24.000Z</time>
      </trkpt>
      <trkpt lat="47.51714" lon="6.77547">
        <ele>390</ele>
        <time>2016-08-15T06:17:25.000Z</time>
      </trkpt>
      <trkpt lat="47.51707" lon="6.77545">
        <ele>390</ele>
        <time>2016-08-15T06:17:26.000Z</time>
      </trkpt>
      <trkpt lat="47.51702" lon="6.77545">
        <ele>390</ele>
        <time>2016-08-15T06:17:27.000Z</time>
      </trkpt>
      <trkpt lat="47.51698" lon="6.77544">
        <ele>390</ele>
        <time>2016-08-15T06:17:28.000Z</time>
      </trkpt>
      <trkpt lat="47.51694" lon="6.77543">
        <ele>390</ele>
        <time>2016-08-15T06:17:29.000Z</time>
      </trkpt>
      <trkpt lat="47.5169" lon="6.77538">
        <ele>390</ele>
        <time>2016-08-15T06:17:30.000Z</time>
      </trkpt>
      <trkpt lat="47.51686" lon="6.77531">
        <ele>390</ele>
        <time>2016-08-15T06:17:31.000Z</time>
      </trkpt>
      <trkpt lat="47.51682" lon="6.77526">
        <ele>390</ele>
        <time>2016-08-15T06:17:32.000Z</time>
      </trkpt>
      <trkpt lat="47.51677" lon="6.77521">
        <ele>390</ele>
        <time>2016-08-15T06:17:33.000Z</time>
      </trkpt>
      <trkpt lat="47.51674" lon="6.77515">
        <ele>389</ele>
        <time>2016-08-15T06:17:34.000Z</time>
      </trkpt>
      <trkpt lat="47.51669" lon="6.77508">
        <ele>389</ele>
        <time>2016-08-15T06:17:35.000Z</time>
      </trkpt>
      <trkpt lat="47.51662" lon="6.77501">
        <ele>389</ele>
        <time>2016-08-15T06:17:36.000Z</time>
      </trkpt>
      <trkpt lat="47.51658" lon="6.77494">
        <ele>388</ele>
        <time>2016-08-15T06:17:37.000Z</time>
      </trkpt>
      <trkpt lat="47.51654" lon="6.77487">
        <ele>387</ele>
        <time>2016-08-15T06:17:38.000Z</time>
      </trkpt>
      <trkpt lat="47.51649" lon="6.7748">
        <ele>387</ele>
        <time>2016-08-15T06:17:39.000Z</time>
      </trkpt>
      <trkpt lat="47.51644" lon="6.77474">
        <ele>386</ele>
        <time>2016-08-15T06:17:40.000Z</time>
      </trkpt>
      <trkpt lat="47.51638" lon="6.77467">
        <ele>386</ele>
        <time>2016-08-15T06:17:41.000Z</time>
      </trkpt>
      <trkpt lat="47.51632" lon="6.7746">
        <ele>386</ele>
        <time>2016-08-15T06:17:42.000Z</time>
      </trkpt>
      <trkpt lat="47.51626" lon="6.77453">
        <ele>386</ele>
        <time>2016-08-15T06:17:43.000Z</time>
      </trkpt>
      <trkpt lat="47.5162" lon="6.77446">
        <ele>385</ele>
        <time>2016-08-15T06:17:44.000Z</time>
      </trkpt>
      <trkpt lat="47.51614" lon="6.77438">
        <ele>385</ele>
        <time>2016-08-15T06:17:45.000Z</time>
      </trkpt>
      <trkpt lat="47.51607" lon="6.77431">
        <ele>385</ele>
        <time>2016-08-15T06:17:46.000Z</time>
      </trkpt>
      <trkpt lat="47.51601" lon="6.77424">
        <ele>384</ele>
        <time>2016-08-15T06:17:47.000Z</time>
      </trkpt>
      <trkpt lat="47.51594" lon="6.77416">
        <ele>383</ele>
        <time>2016-08-15T06:17:48.000Z</time>
      </trkpt>
      <trkpt lat="47.51588" lon="6.77409">
        <ele>383</ele>
        <time>2016-08-15T06:17:49.000Z</time>
      </trkpt>
      <trkpt lat="47.51581" lon="6.77401">
        <ele>382</ele>
        <time>2016-08-15T06:17:50.000Z</time>
      </trkpt>
      <trkpt lat="47.51574" lon="6.77393">
        <ele>381</ele>
        <time>2016-08-15T06:17:51.000Z</time>
      </trkpt>
      <trkpt lat="47.51568" lon="6.77385">
        <ele>381</ele>
        <time>2016-08-15T06:17:52.000Z</time>
      </trkpt>
      <trkpt lat="47.51561" lon="6.77377">
        <ele>381</ele>
        <time>2016-08-15T06:17:53.000Z</time>
      </trkpt>
      <trkpt lat="47.51554" lon="6.7737">
        <ele>381</ele>
        <time>2016-08-15T06:17:54.000Z</time>
      </trkpt>
      <trkpt lat="47.51547" lon="6.77361">
        <ele>380</ele>
        <time>2016-08-15T06:17:55.000Z</time>
      </trkpt>
      <trkpt lat="47.5154" lon="6.77353">
        <ele>380</ele>
        <time>2016-08-15T06:17:56.000Z</time>
      </trkpt>
      <trkpt lat="47.51532" lon="6.77345">
        <ele>380</ele>
        <time>2016-08-15T06:17:57.000Z</time>
      </trkpt>
      <trkpt lat="47.51525" lon="6.77336">
        <ele>380</ele>
        <time>2016-08-15T06:17:58.000Z</time>
      </trkpt>
      <trkpt lat="47.51517" lon="6.77327">
        <ele>378</ele>
        <time>2016-08-15T06:17:59.000Z</time>
      </trkpt>
      <trkpt lat="47.51509" lon="6.77317">
        <ele>378</ele>
        <time>2016-08-15T06:18:00.000Z</time>
      </trkpt>
      <trkpt lat="47.51502" lon="6.77305">
        <ele>378</ele>
        <time>2016-08-15T06:18:01.000Z</time>
      </trkpt>
      <trkpt lat="47.51497" lon="6.77292">
        <ele>377</ele>
        <time>2016-08-15T06:18:02.000Z</time>
      </trkpt>
      <trkpt lat="47.51494" lon="6.77279">
        <ele>377</ele>
        <time>2016-08-15T06:18:03.000Z</time>
      </trkpt>
      <trkpt lat="47.51494" lon="6.77264">
        <ele>376</ele>
        <time>2016-08-15T06:18:04.000Z</time>
      </trkpt>
      <trkpt lat="47.51494" lon="6.77249">
        <ele>376</ele>
        <time>2016-08-15T06:18:05.000Z</time>
      </trkpt>
      <trkpt lat="47.51493" lon="6.77236">
        <ele>376</ele>
        <time>2016-08-15T06:18:06.000Z</time>
      </trkpt>
      <trkpt lat="47.51492" lon="6.77223">
        <ele>375</ele>
        <time>2016-08-15T06:18:07.000Z</time>
      </trkpt>
      <trkpt lat="47.5149" lon="6.77211">
        <ele>375</ele>
        <time>2016-08-15T06:18:08.000Z</time>
      </trkpt>
      <trkpt lat="47.51483" lon="6.77203">
        <ele>375</ele>
        <time>2016-08-15T06:18:09.000Z</time>
      </trkpt>
      <trkpt lat="47.51476" lon="6.77201">
        <ele>375</ele>
        <time>2016-08-15T06:18:10.000Z</time>
      </trkpt>
      <trkpt lat="47.51469" lon="6.77202">
        <ele>375</ele>
        <time>2016-08-15T06:18:11.000Z</time>
      </trkpt>
      <trkpt lat="47.5146" lon="6.77205">
        <ele>375</ele>
        <time>2016-08-15T06:18:12.000Z</time>
      </trkpt>
      <trkpt lat="47.51451" lon="6.77209">
        <ele>375</ele>
        <time>2016-08-15T06:18:13.000Z</time>
      </trkpt>
      <trkpt lat="47.51442" lon="6.77213">
        <ele>375</ele>
        <time>2016-08-15T06:18:14.000Z</time>
      </trkpt>
      <trkpt lat="47.51433" lon="6.77216">
        <ele>375</ele>
        <time>2016-08-15T06:18:15.000Z</time>
      </trkpt>
      <trkpt lat="47.51426" lon="6.77221">
        <ele>375</ele>
        <time>2016-08-15T06:18:15.999Z</time>
      </trkpt>
      <trkpt lat="47.51419" lon="6.77224">
        <ele>375</ele>
        <time>2016-08-15T06:18:17.000Z</time>
      </trkpt>
      <trkpt lat="47.51411" lon="6.77228">
        <ele>376</ele>
        <time>2016-08-15T06:18:18.000Z</time>
      </trkpt>
      <trkpt lat="47.51403" lon="6.77231">
        <ele>376</ele>
        <time>2016-08-15T06:18:19.000Z</time>
      </trkpt>
      <trkpt lat="47.51395" lon="6.77234">
        <ele>376</ele>
        <time>2016-08-15T06:18:20.000Z</time>
      </trkpt>
      <trkpt lat="47.51389" lon="6.77232">
        <ele>376</ele>
        <time>2016-08-15T06:18:21.000Z</time>
      </trkpt>
      <trkpt lat="47.51382" lon="6.77231">
        <ele>376</ele>
        <time>2016-08-15T06:18:21.999Z</time>
      </trkpt>
      <trkpt lat="47.51378" lon="6.77238">
        <ele>376</ele>
        <time>2016-08-15T06:18:23.000Z</time>
      </trkpt>
      <trkpt lat="47.51372" lon="6.77243">
        <ele>376</ele>
        <time>2016-08-15T06:18:24.000Z</time>
      </trkpt>
      <trkpt lat="47.51368" lon="6.77247">
        <ele>376</ele>
        <time>2016-08-15T06:18:24.999Z</time>
      </trkpt>
      <trkpt lat="47.51364" lon="6.77252">
        <ele>378</ele>
        <time>2016-08-15T06:18:26.000Z</time>
      </trkpt>
      <trkpt lat="47.51361" lon="6.77254">
        <ele>378</ele>
        <time>2016-08-15T06:18:27.000Z</time>
      </trkpt>
      <trkpt lat="47.51356" lon="6.77259">
        <ele>378</ele>
        <time>2016-08-15T06:18:28.001Z</time>
      </trkpt>
      <trkpt lat="47.51352" lon="6.77261">
        <ele>378</ele>
        <time>2016-08-15T06:18:29.000Z</time>
      </trkpt>
      <trkpt lat="47.51348" lon="6.77264">
        <ele>378</ele>
        <time>2016-08-15T06:18:30.000Z</time>
      </trkpt>
      <trkpt lat="47.51346" lon="6.77269">
        <ele>378</ele>
        <time>2016-08-15T06:18:31.000Z</time>
      </trkpt>
      <trkpt lat="47.51343" lon="6.77271">
        <ele>378</ele>
        <time>2016-08-15T06:18:32.000Z</time>
      </trkpt>
      <trkpt lat="47.51341" lon="6.77273">
        <ele>378</ele>
        <time>2016-08-15T06:18:33.000Z</time>
      </trkpt>
      <trkpt lat="47.51338" lon="6.77276">
        <ele>378</ele>
        <time>2016-08-15T06:18:34.001Z</time>
      </trkpt>
      <trkpt lat="47.51335" lon="6.77279">
        <ele>378</ele>
        <time>2016-08-15T06:18:36.000Z</time>
      </trkpt>
      <trkpt lat="47.51331" lon="6.77277">
        <ele>377</ele>
        <time>2016-08-15T06:18:37.000Z</time>
      </trkpt>
      <trkpt lat="47.51328" lon="6.77277">
        <ele>377</ele>
        <time>2016-08-15T06:18:38.000Z</time>
      </trkpt>
      <trkpt lat="47.51324" lon="6.77277">
        <ele>377</ele>
        <time>2016-08-15T06:18:39.000Z</time>
      </trkpt>
      <trkpt lat="47.51321" lon="6.77276">
        <ele>377</ele>
        <time>2016-08-15T06:18:40.000Z</time>
      </trkpt>
      <trkpt lat="47.51317" lon="6.77275">
        <ele>377</ele>
        <time>2016-08-15T06:18:41.000Z</time>
      </trkpt>
      <trkpt lat="47.51314" lon="6.77275">
        <ele>377</ele>
        <time>2016-08-15T06:18:42.000Z</time>
      </trkpt>
      <trkpt lat="47.5131" lon="6.77274">
        <ele>377</ele>
        <time>2016-08-15T06:18:43.000Z</time>
      </trkpt>
      <trkpt lat="47.51307" lon="6.77273">
        <ele>377</ele>
        <time>2016-08-15T06:18:44.000Z</time>
      </trkpt>
      <trkpt lat="47.51304" lon="6.77271">
        <ele>377</ele>
        <time>2016-08-15T06:18:45.000Z</time>
      </trkpt>
      <trkpt lat="47.513" lon="6.7727">
        <ele>377</ele>
        <time>2016-08-15T06:18:46.000Z</time>
      </trkpt>
      <trkpt lat="47.51296" lon="6.77268">
        <ele>377</ele>
        <time>2016-08-15T06:18:47.000Z</time>
      </trkpt>
      <trkpt lat="47.51293" lon="6.77262">
        <ele>377</ele>
        <time>2016-08-15T06:18:48.000Z</time>
      </trkpt>
      <trkpt lat="47.51289" lon="6.7726">
        <ele>377</ele>
        <time>2016-08-15T06:18:49.000Z</time>
      </trkpt>
      <trkpt lat="47.51286" lon="6.77257">
        <ele>377</ele>
        <time>2016-08-15T06:18:50.000Z</time>
      </trkpt>
      <trkpt lat="47.51282" lon="6.77251">
        <ele>377</ele>
        <time>2016-08-15T06:18:51.000Z</time>
      </trkpt>
      <trkpt lat="47.51278" lon="6.77246">
        <ele>378</ele>
        <time>2016-08-15T06:18:52.000Z</time>
      </trkpt>
      <trkpt lat="47.51276" lon="6.77247">
        <ele>378</ele>
        <time>2016-08-15T06:18:53.000Z</time>
      </trkpt>
      <trkpt lat="47.51272" lon="6.77245">
        <ele>378</ele>
        <time>2016-08-15T06:18:54.000Z</time>
      </trkpt>
      <trkpt lat="47.51267" lon="6.77243">
        <ele>378</ele>
        <time>2016-08-15T06:18:55.000Z</time>
      </trkpt>
      <trkpt lat="47.51264" lon="6.77239">
        <ele>378</ele>
        <time>2016-08-15T06:18:56.000Z</time>
      </trkpt>
      <trkpt lat="47.51259" lon="6.77234">
        <ele>378</ele>
        <time>2016-08-15T06:18:57.000Z</time>
      </trkpt>
      <trkpt lat="47.51255" lon="6.77228">
        <ele>378</ele>
        <time>2016-08-15T06:18:58.001Z</time>
      </trkpt>
      <trkpt lat="47.51253" lon="6.77229">
        <ele>378</ele>
        <time>2016-08-15T06:18:59.000Z</time>
      </trkpt>
      <trkpt lat="47.5125" lon="6.77225">
        <ele>377</ele>
        <time>2016-08-15T06:18:59.999Z</time>
      </trkpt>
      <trkpt lat="47.51247" lon="6.77217">
        <ele>376</ele>
        <time>2016-08-15T06:19:01.000Z</time>
      </trkpt>
      <trkpt lat="47.51244" lon="6.7721">
        <ele>376</ele>
        <time>2016-08-15T06:19:02.000Z</time>
      </trkpt>
      <trkpt lat="47.51241" lon="6.77204">
        <ele>376</ele>
        <time>2016-08-15T06:19:03.000Z</time>
      </trkpt>
      <trkpt lat="47.51238" lon="6.77197">
        <ele>376</ele>
        <time>2016-08-15T06:19:04.000Z</time>
      </trkpt>
      <trkpt lat="47.51235" lon="6.77192">
        <ele>376</ele>
        <time>2016-08-15T06:19:05.000Z</time>
      </trkpt>
      <trkpt lat="47.51231" lon="6.77186">
        <ele>377</ele>
        <time>2016-08-15T06:19:06.000Z</time>
      </trkpt>
      <trkpt lat="47.51228" lon="6.77176">
        <ele>377</ele>
        <time>2016-08-15T06:19:07.000Z</time>
      </trkpt>
      <trkpt lat="47.51225" lon="6.77168">
        <ele>377</ele>
        <time>2016-08-15T06:19:08.000Z</time>
      </trkpt>
      <trkpt lat="47.51221" lon="6.77161">
        <ele>378</ele>
        <time>2016-08-15T06:19:09.000Z</time>
      </trkpt>
      <trkpt lat="47.51217" lon="6.77155">
        <ele>378</ele>
        <time>2016-08-15T06:19:10.000Z</time>
      </trkpt>
      <trkpt lat="47.51214" lon="6.77148">
        <ele>378</ele>
        <time>2016-08-15T06:19:11.000Z</time>
      </trkpt>
      <trkpt lat="47.5121" lon="6.7714">
        <ele>378</ele>
        <time>2016-08-15T06:19:12.000Z</time>
      </trkpt>
      <trkpt lat="47.51206" lon="6.77132">
        <ele>378</ele>
        <time>2016-08-15T06:19:13.000Z</time>
      </trkpt>
      <trkpt lat="47.51201" lon="6.77123">
        <ele>378</ele>
        <time>2016-08-15T06:19:14.000Z</time>
      </trkpt>
      <trkpt lat="47.51196" lon="6.77115">
        <ele>378</ele>
        <time>2016-08-15T06:19:15.000Z</time>
      </trkpt>
      <trkpt lat="47.51192" lon="6.77106">
        <ele>378</ele>
        <time>2016-08-15T06:19:16.000Z</time>
      </trkpt>
      <trkpt lat="47.51187" lon="6.77097">
        <ele>378</ele>
        <time>2016-08-15T06:19:17.000Z</time>
      </trkpt>
      <trkpt lat="47.51182" lon="6.77089">
        <ele>378</ele>
        <time>2016-08-15T06:19:18.000Z</time>
      </trkpt>
      <trkpt lat="47.51177" lon="6.77079">
        <ele>377</ele>
        <time>2016-08-15T06:19:19.000Z</time>
      </trkpt>
      <trkpt lat="47.51172" lon="6.77069">
        <ele>377</ele>
        <time>2016-08-15T06:19:20.000Z</time>
      </trkpt>
      <trkpt lat="47.5116" lon="6.77053">
        <ele>376</ele>
        <time>2016-08-15T06:19:22.000Z</time>
      </trkpt>
      <trkpt lat="47.51154" lon="6.77046">
        <ele>376</ele>
        <time>2016-08-15T06:19:23.000Z</time>
      </trkpt>
      <trkpt lat="47.51148" lon="6.7704">
        <ele>376</ele>
        <time>2016-08-15T06:19:24.000Z</time>
      </trkpt>
      <trkpt lat="47.51141" lon="6.77034">
        <ele>375</ele>
        <time>2016-08-15T06:19:25.000Z</time>
      </trkpt>
      <trkpt lat="47.51134" lon="6.77028">
        <ele>375</ele>
        <time>2016-08-15T06:19:26.000Z</time>
      </trkpt>
      <trkpt lat="47.51127" lon="6.77023">
        <ele>375</ele>
        <time>2016-08-15T06:19:27.000Z</time>
      </trkpt>
      <trkpt lat="47.51122" lon="6.77015">
        <ele>375</ele>
        <time>2016-08-15T06:19:28.000Z</time>
      </trkpt>
      <trkpt lat="47.51115" lon="6.77009">
        <ele>375</ele>
        <time>2016-08-15T06:19:29.000Z</time>
      </trkpt>
      <trkpt lat="47.51109" lon="6.77003">
        <ele>375</ele>
        <time>2016-08-15T06:19:30.000Z</time>
      </trkpt>
      <trkpt lat="47.51101" lon="6.76998">
        <ele>375</ele>
        <time>2016-08-15T06:19:31.000Z</time>
      </trkpt>
      <trkpt lat="47.51095" lon="6.76992">
        <ele>375</ele>
        <time>2016-08-15T06:19:32.000Z</time>
      </trkpt>
      <trkpt lat="47.51089" lon="6.76987">
        <ele>375</ele>
        <time>2016-08-15T06:19:33.000Z</time>
      </trkpt>
      <trkpt lat="47.51082" lon="6.76981">
        <ele>375</ele>
        <time>2016-08-15T06:19:34.000Z</time>
      </trkpt>
      <trkpt lat="47.51075" lon="6.76976">
        <ele>375</ele>
        <time>2016-08-15T06:19:35.000Z</time>
      </trkpt>
      <trkpt lat="47.51068" lon="6.7697">
        <ele>375</ele>
        <time>2016-08-15T06:19:36.000Z</time>
      </trkpt>
      <trkpt lat="47.51061" lon="6.76963">
        <ele>375</ele>
        <time>2016-08-15T06:19:37.000Z</time>
      </trkpt>
      <trkpt lat="47.51054" lon="6.76958">
        <ele>375</ele>
        <time>2016-08-15T06:19:38.000Z</time>
      </trkpt>
      <trkpt lat="47.51048" lon="6.76953">
        <ele>375</ele>
        <time>2016-08-15T06:19:39.000Z</time>
      </trkpt>
      <trkpt lat="47.51044" lon="6.76949">
        <ele>375</ele>
        <time>2016-08-15T06:19:40.000Z</time>
      </trkpt>
      <trkpt lat="47.51038" lon="6.76944">
        <ele>375</ele>
        <time>2016-08-15T06:19:41.000Z</time>
      </trkpt>
      <trkpt lat="47.51033" lon="6.76938">
        <ele>375</ele>
        <time>2016-08-15T06:19:42.000Z</time>
      </trkpt>
      <trkpt lat="47.51027" lon="6.76934">
        <ele>375</ele>
        <time>2016-08-15T06:19:43.000Z</time>
      </trkpt>
      <trkpt lat="47.51021" lon="6.7693">
        <ele>375</ele>
        <time>2016-08-15T06:19:44.000Z</time>
      </trkpt>
      <trkpt lat="47.51016" lon="6.76925">
        <ele>375</ele>
        <time>2016-08-15T06:19:45.000Z</time>
      </trkpt>
      <trkpt lat="47.51012" lon="6.76919">
        <ele>376</ele>
        <time>2016-08-15T06:19:46.000Z</time>
      </trkpt>
      <trkpt lat="47.51009" lon="6.76916">
        <ele>376</ele>
        <time>2016-08-15T06:19:47.000Z</time>
      </trkpt>
      <trkpt lat="47.51005" lon="6.76913">
        <ele>376</ele>
        <time>2016-08-15T06:19:48.000Z</time>
      </trkpt>
      <trkpt lat="47.51001" lon="6.76907">
        <ele>376</ele>
        <time>2016-08-15T06:19:49.000Z</time>
      </trkpt>
      <trkpt lat="47.50999" lon="6.769">
        <ele>377</ele>
        <time>2016-08-15T06:19:50.000Z</time>
      </trkpt>
      <trkpt lat="47.50996" lon="6.76896">
        <ele>377</ele>
        <time>2016-08-15T06:19:51.000Z</time>
      </trkpt>
      <trkpt lat="47.50989" lon="6.76894">
        <ele>377</ele>
        <time>2016-08-15T06:19:52.000Z</time>
      </trkpt>
      <trkpt lat="47.50984" lon="6.76895">
        <ele>377</ele>
        <time>2016-08-15T06:19:53.001Z</time>
      </trkpt>
      <trkpt lat="47.50979" lon="6.76894">
        <ele>377</ele>
        <time>2016-08-15T06:19:54.000Z</time>
      </trkpt>
      <trkpt lat="47.50976" lon="6.76892">
        <ele>377</ele>
        <time>2016-08-15T06:19:55.000Z</time>
      </trkpt>
      <trkpt lat="47.50971" lon="6.76891">
        <ele>377</ele>
        <time>2016-08-15T06:19:56.000Z</time>
      </trkpt>
      <trkpt lat="47.50968" lon="6.76885">
        <ele>377</ele>
        <time>2016-08-15T06:19:57.000Z</time>
      </trkpt>
      <trkpt lat="47.50964" lon="6.7688">
        <ele>377</ele>
        <time>2016-08-15T06:19:58.001Z</time>
      </trkpt>
      <trkpt lat="47.50959" lon="6.76877">
        <ele>377</ele>
        <time>2016-08-15T06:19:59.000Z</time>
      </trkpt>
      <trkpt lat="47.50955" lon="6.76873">
        <ele>378</ele>
        <time>2016-08-15T06:20:00.000Z</time>
      </trkpt>
      <trkpt lat="47.50948" lon="6.76869">
        <ele>378</ele>
        <time>2016-08-15T06:20:01.000Z</time>
      </trkpt>
      <trkpt lat="47.50941" lon="6.76865">
        <ele>378</ele>
        <time>2016-08-15T06:20:02.000Z</time>
      </trkpt>
      <trkpt lat="47.50937" lon="6.7686">
        <ele>378</ele>
        <time>2016-08-15T06:20:03.000Z</time>
      </trkpt>
      <trkpt lat="47.50932" lon="6.76855">
        <ele>378</ele>
        <time>2016-08-15T06:20:04.000Z</time>
      </trkpt>
      <trkpt lat="47.50928" lon="6.7685">
        <ele>379</ele>
        <time>2016-08-15T06:20:05.000Z</time>
      </trkpt>
      <trkpt lat="47.50923" lon="6.76844">
        <ele>379</ele>
        <time>2016-08-15T06:20:06.000Z</time>
      </trkpt>
      <trkpt lat="47.5092" lon="6.76838">
        <ele>379</ele>
        <time>2016-08-15T06:20:06.999Z</time>
      </trkpt>
      <trkpt lat="47.50917" lon="6.76831">
        <ele>380</ele>
        <time>2016-08-15T06:20:08.000Z</time>
      </trkpt>
      <trkpt lat="47.50915" lon="6.76825">
        <ele>380</ele>
        <time>2016-08-15T06:20:08.999Z</time>
      </trkpt>
      <trkpt lat="47.50912" lon="6.76819">
        <ele>381</ele>
        <time>2016-08-15T06:20:10.000Z</time>
      </trkpt>
      <trkpt lat="47.50909" lon="6.76813">
        <ele>381</ele>
        <time>2016-08-15T06:20:11.000Z</time>
      </trkpt>
      <trkpt lat="47.50909" lon="6.76805">
        <ele>381</ele>
        <time>2016-08-15T06:20:12.000Z</time>
      </trkpt>
      <trkpt lat="47.50907" lon="6.76799">
        <ele>381</ele>
        <time>2016-08-15T06:20:13.000Z</time>
      </trkpt>
      <trkpt lat="47.50903" lon="6.76794">
        <ele>381</ele>
        <time>2016-08-15T06:20:14.000Z</time>
      </trkpt>
      <trkpt lat="47.509" lon="6.76789">
        <ele>381</ele>
        <time>2016-08-15T06:20:15.000Z</time>
      </trkpt>
      <trkpt lat="47.50897" lon="6.76784">
        <ele>381</ele>
        <time>2016-08-15T06:20:16.000Z</time>
      </trkpt>
      <trkpt lat="47.50894" lon="6.76778">
        <ele>381</ele>
        <time>2016-08-15T06:20:17.000Z</time>
      </trkpt>
      <trkpt lat="47.50892" lon="6.7677">
        <ele>381</ele>
        <time>2016-08-15T06:20:18.000Z</time>
      </trkpt>
      <trkpt lat="47.5089" lon="6.76763">
        <ele>381</ele>
        <time>2016-08-15T06:20:18.999Z</time>
      </trkpt>
      <trkpt lat="47.50887" lon="6.76759">
        <ele>381</ele>
        <time>2016-08-15T06:20:20.000Z</time>
      </trkpt>
      <trkpt lat="47.50886" lon="6.76754">
        <ele>381</ele>
        <time>2016-08-15T06:20:21.000Z</time>
      </trkpt>
      <trkpt lat="47.50883" lon="6.7675">
        <ele>381</ele>
        <time>2016-08-15T06:20:22.000Z</time>
      </trkpt>
      <trkpt lat="47.50881" lon="6.76744">
        <ele>382</ele>
        <time>2016-08-15T06:20:23.000Z</time>
      </trkpt>
      <trkpt lat="47.50879" lon="6.76738">
        <ele>383</ele>
        <time>2016-08-15T06:20:24.000Z</time>
      </trkpt>
      <trkpt lat="47.50878" lon="6.76731">
        <ele>383</ele>
        <time>2016-08-15T06:20:25.000Z</time>
      </trkpt>
      <trkpt lat="47.50877" lon="6.76724">
        <ele>383</ele>
        <time>2016-08-15T06:20:26.000Z</time>
      </trkpt>
      <trkpt lat="47.50875" lon="6.76718">
        <ele>383</ele>
        <time>2016-08-15T06:20:27.000Z</time>
      </trkpt>
      <trkpt lat="47.50874" lon="6.76712">
        <ele>383</ele>
        <time>2016-08-15T06:20:28.000Z</time>
      </trkpt>
      <trkpt lat="47.50873" lon="6.76706">
        <ele>383</ele>
        <time>2016-08-15T06:20:29.000Z</time>
      </trkpt>
      <trkpt lat="47.50871" lon="6.76701">
        <ele>384</ele>
        <time>2016-08-15T06:20:30.000Z</time>
      </trkpt>
      <trkpt lat="47.50868" lon="6.76697">
        <ele>384</ele>
        <time>2016-08-15T06:20:31.000Z</time>
      </trkpt>
      <trkpt lat="47.50865" lon="6.76691">
        <ele>384</ele>
        <time>2016-08-15T06:20:32.000Z</time>
      </trkpt>
      <trkpt lat="47.50863" lon="6.76686">
        <ele>384</ele>
        <time>2016-08-15T06:20:33.000Z</time>
      </trkpt>
      <trkpt lat="47.5086" lon="6.76681">
        <ele>385</ele>
        <time>2016-08-15T06:20:34.000Z</time>
      </trkpt>
      <trkpt lat="47.50857" lon="6.76676">
        <ele>385</ele>
        <time>2016-08-15T06:20:35.000Z</time>
      </trkpt>
      <trkpt lat="47.50855" lon="6.76671">
        <ele>386</ele>
        <time>2016-08-15T06:20:36.000Z</time>
      </trkpt>
      <trkpt lat="47.50851" lon="6.76665">
        <ele>387</ele>
        <time>2016-08-15T06:20:37.000Z</time>
      </trkpt>
      <trkpt lat="47.50848" lon="6.7666">
        <ele>387</ele>
        <time>2016-08-15T06:20:38.000Z</time>
      </trkpt>
      <trkpt lat="47.50845" lon="6.76655">
        <ele>387</ele>
        <time>2016-08-15T06:20:39.000Z</time>
      </trkpt>
      <trkpt lat="47.50844" lon="6.76651">
        <ele>387</ele>
        <time>2016-08-15T06:20:40.000Z</time>
      </trkpt>
      <trkpt lat="47.50842" lon="6.76647">
        <ele>387</ele>
        <time>2016-08-15T06:20:41.000Z</time>
      </trkpt>
      <trkpt lat="47.5084" lon="6.76642">
        <ele>387</ele>
        <time>2016-08-15T06:20:42.000Z</time>
      </trkpt>
      <trkpt lat="47.5084" lon="6.76639">
        <ele>387</ele>
        <time>2016-08-15T06:20:43.000Z</time>
      </trkpt>
      <trkpt lat="47.50837" lon="6.76636">
        <ele>387</ele>
        <time>2016-08-15T06:20:44.000Z</time>
      </trkpt>
      <trkpt lat="47.50836" lon="6.76633">
        <ele>387</ele>
        <time>2016-08-15T06:20:45.000Z</time>
      </trkpt>
      <trkpt lat="47.50834" lon="6.76628">
        <ele>387</ele>
        <time>2016-08-15T06:20:46.000Z</time>
      </trkpt>
      <trkpt lat="47.50832" lon="6.76623">
        <ele>390</ele>
        <time>2016-08-15T06:20:47.000Z</time>
      </trkpt>
      <trkpt lat="47.5083" lon="6.76619">
        <ele>390</ele>
        <time>2016-08-15T06:20:48.000Z</time>
      </trkpt>
      <trkpt lat="47.50828" lon="6.76615">
        <ele>390</ele>
        <time>2016-08-15T06:20:49.000Z</time>
      </trkpt>
      <trkpt lat="47.50827" lon="6.76611">
        <ele>390</ele>
        <time>2016-08-15T06:20:50.000Z</time>
      </trkpt>
      <trkpt lat="47.50826" lon="6.76607">
        <ele>390</ele>
        <time>2016-08-15T06:20:51.000Z</time>
      </trkpt>
      <trkpt lat="47.50825" lon="6.76603">
        <ele>390</ele>
        <time>2016-08-15T06:20:52.000Z</time>
      </trkpt>
      <trkpt lat="47.50825" lon="6.766">
        <ele>390</ele>
        <time>2016-08-15T06:20:53.000Z</time>
      </trkpt>
      <trkpt lat="47.50824" lon="6.76596">
        <ele>390</ele>
        <time>2016-08-15T06:20:54.001Z</time>
      </trkpt>
      <trkpt lat="47.50822" lon="6.76592">
        <ele>390</ele>
        <time>2016-08-15T06:20:55.000Z</time>
      </trkpt>
      <trkpt lat="47.5082" lon="6.76589">
        <ele>390</ele>
        <time>2016-08-15T06:20:56.000Z</time>
      </trkpt>
      <trkpt lat="47.50816" lon="6.76585">
        <ele>390</ele>
        <time>2016-08-15T06:20:58.000Z</time>
      </trkpt>
      <trkpt lat="47.5081" lon="6.76595">
        <ele>390</ele>
        <time>2016-08-15T06:20:59.000Z</time>
      </trkpt>
      <trkpt lat="47.50806" lon="6.76593">
        <ele>390</ele>
        <time>2016-08-15T06:20:59.999Z</time>
      </trkpt>
      <trkpt lat="47.50805" lon="6.76588">
        <ele>390</ele>
        <time>2016-08-15T06:21:01.000Z</time>
      </trkpt>
      <trkpt lat="47.50804" lon="6.76585">
        <ele>391</ele>
        <time>2016-08-15T06:21:02.000Z</time>
      </trkpt>
      <trkpt lat="47.50802" lon="6.76584">
        <ele>391</ele>
        <time>2016-08-15T06:21:03.000Z</time>
      </trkpt>
      <trkpt lat="47.50798" lon="6.76586">
        <ele>391</ele>
        <time>2016-08-15T06:21:05.000Z</time>
      </trkpt>
      <trkpt lat="47.50795" lon="6.76587">
        <ele>391</ele>
        <time>2016-08-15T06:21:06.000Z</time>
      </trkpt>
      <trkpt lat="47.50791" lon="6.76588">
        <ele>391</ele>
        <time>2016-08-15T06:21:09.000Z</time>
      </trkpt>
      <trkpt lat="47.5079" lon="6.76589">
        <ele>391</ele>
        <time>2016-08-15T06:21:10.000Z</time>
      </trkpt>
      <trkpt lat="47.50788" lon="6.76592">
        <ele>391</ele>
        <time>2016-08-15T06:21:21.000Z</time>
      </trkpt>
      <trkpt lat="47.50786" lon="6.76592">
        <ele>391</ele>
        <time>2016-08-15T06:21:22.000Z</time>
      </trkpt>
      <trkpt lat="47.50783" lon="6.76592">
        <ele>391</ele>
        <time>2016-08-15T06:21:23.000Z</time>
      </trkpt>
      <trkpt lat="47.5078" lon="6.76593">
        <ele>392</ele>
        <time>2016-08-15T06:21:24.000Z</time>
      </trkpt>
      <trkpt lat="47.50776" lon="6.76593">
        <ele>392</ele>
        <time>2016-08-15T06:21:25.000Z</time>
      </trkpt>
      <trkpt lat="47.50773" lon="6.76593">
        <ele>392</ele>
        <time>2016-08-15T06:21:26.000Z</time>
      </trkpt>
      <trkpt lat="47.5077" lon="6.76593">
        <ele>392</ele>
        <time>2016-08-15T06:21:27.000Z</time>
      </trkpt>
      <trkpt lat="47.50766" lon="6.76593">
        <ele>392</ele>
        <time>2016-08-15T06:21:28.000Z</time>
      </trkpt>
      <trkpt lat="47.50763" lon="6.76594">
        <ele>392</ele>
        <time>2016-08-15T06:21:29.000Z</time>
      </trkpt>
      <trkpt lat="47.5076" lon="6.76594">
        <ele>393</ele>
        <time>2016-08-15T06:21:30.000Z</time>
      </trkpt>
      <trkpt lat="47.50756" lon="6.76594">
        <ele>393</ele>
        <time>2016-08-15T06:21:31.000Z</time>
      </trkpt>
      <trkpt lat="47.50752" lon="6.76594">
        <ele>393</ele>
        <time>2016-08-15T06:21:32.000Z</time>
      </trkpt>
      <trkpt lat="47.50749" lon="6.76593">
        <ele>394</ele>
        <time>2016-08-15T06:21:33.000Z</time>
      </trkpt>
      <trkpt lat="47.50745" lon="6.76594">
        <ele>394</ele>
        <time>2016-08-15T06:21:34.000Z</time>
      </trkpt>
      <trkpt lat="47.50741" lon="6.76594">
        <ele>394</ele>
        <time>2016-08-15T06:21:35.000Z</time>
      </trkpt>
      <trkpt lat="47.50737" lon="6.76594">
        <ele>394</ele>
        <time>2016-08-15T06:21:36.000Z</time>
      </trkpt>
      <trkpt lat="47.50733" lon="6.76593">
        <ele>394</ele>
        <time>2016-08-15T06:21:37.000Z</time>
      </trkpt>
      <trkpt lat="47.50729" lon="6.76592">
        <ele>394</ele>
        <time>2016-08-15T06:21:38.000Z</time>
      </trkpt>
      <trkpt lat="47.50725" lon="6.76592">
        <ele>394</ele>
        <time>2016-08-15T06:21:39.000Z</time>
      </trkpt>
      <trkpt lat="47.50721" lon="6.76591">
        <ele>394</ele>
        <time>2016-08-15T06:21:40.000Z</time>
      </trkpt>
      <trkpt lat="47.50717" lon="6.7659">
        <ele>394</ele>
        <time>2016-08-15T06:21:41.000Z</time>
      </trkpt>
      <trkpt lat="47.50712" lon="6.7659">
        <ele>395</ele>
        <time>2016-08-15T06:21:42.000Z</time>
      </trkpt>
      <trkpt lat="47.50708" lon="6.7659">
        <ele>395</ele>
        <time>2016-08-15T06:21:43.000Z</time>
      </trkpt>
      <trkpt lat="47.50704" lon="6.7659">
        <ele>395</ele>
        <time>2016-08-15T06:21:44.000Z</time>
      </trkpt>
      <trkpt lat="47.507" lon="6.7659">
        <ele>395</ele>
        <time>2016-08-15T06:21:45.000Z</time>
      </trkpt>
      <trkpt lat="47.50697" lon="6.76589">
        <ele>395</ele>
        <time>2016-08-15T06:21:46.000Z</time>
      </trkpt>
      <trkpt lat="47.50693" lon="6.76589">
        <ele>395</ele>
        <time>2016-08-15T06:21:47.000Z</time>
      </trkpt>
      <trkpt lat="47.50689" lon="6.76588">
        <ele>395</ele>
        <time>2016-08-15T06:21:48.000Z</time>
      </trkpt>
      <trkpt lat="47.50685" lon="6.76589">
        <ele>396</ele>
        <time>2016-08-15T06:21:49.000Z</time>
      </trkpt>
      <trkpt lat="47.50682" lon="6.76589">
        <ele>396</ele>
        <time>2016-08-15T06:21:50.000Z</time>
      </trkpt>
      <trkpt lat="47.50678" lon="6.76589">
        <ele>396</ele>
        <time>2016-08-15T06:21:51.000Z</time>
      </trkpt>
      <trkpt lat="47.50674" lon="6.76589">
        <ele>396</ele>
        <time>2016-08-15T06:21:52.000Z</time>
      </trkpt>
      <trkpt lat="47.50671" lon="6.7659">
        <ele>396</ele>
        <time>2016-08-15T06:21:53.000Z</time>
      </trkpt>
      <trkpt lat="47.50667" lon="6.76591">
        <ele>396</ele>
        <time>2016-08-15T06:21:54.000Z</time>
      </trkpt>
      <trkpt lat="47.50664" lon="6.76592">
        <ele>397</ele>
        <time>2016-08-15T06:21:55.000Z</time>
      </trkpt>
      <trkpt lat="47.5066" lon="6.76593">
        <ele>397</ele>
        <time>2016-08-15T06:21:56.000Z</time>
      </trkpt>
      <trkpt lat="47.50656" lon="6.76594">
        <ele>397</ele>
        <time>2016-08-15T06:21:57.000Z</time>
      </trkpt>
      <trkpt lat="47.50653" lon="6.76595">
        <ele>397</ele>
        <time>2016-08-15T06:21:58.000Z</time>
      </trkpt>
      <trkpt lat="47.50649" lon="6.76595">
        <ele>397</ele>
        <time>2016-08-15T06:21:59.000Z</time>
      </trkpt>
      <trkpt lat="47.50645" lon="6.76596">
        <ele>397</ele>
        <time>2016-08-15T06:22:00.000Z</time>
      </trkpt>
      <trkpt lat="47.50642" lon="6.76598">
        <ele>397</ele>
        <time>2016-08-15T06:22:01.000Z</time>
      </trkpt>
      <trkpt lat="47.50638" lon="6.76599">
        <ele>397</ele>
        <time>2016-08-15T06:22:02.000Z</time>
      </trkpt>
      <trkpt lat="47.50634" lon="6.76601">
        <ele>397</ele>
        <time>2016-08-15T06:22:03.000Z</time>
      </trkpt>
      <trkpt lat="47.50631" lon="6.76602">
        <ele>397</ele>
        <time>2016-08-15T06:22:04.000Z</time>
      </trkpt>
      <trkpt lat="47.50627" lon="6.76604">
        <ele>397</ele>
        <time>2016-08-15T06:22:05.000Z</time>
      </trkpt>
      <trkpt lat="47.50624" lon="6.76605">
        <ele>397</ele>
        <time>2016-08-15T06:22:06.000Z</time>
      </trkpt>
      <trkpt lat="47.5062" lon="6.76607">
        <ele>397</ele>
        <time>2016-08-15T06:22:07.000Z</time>
      </trkpt>
      <trkpt lat="47.50617" lon="6.76608">
        <ele>398</ele>
        <time>2016-08-15T06:22:08.000Z</time>
      </trkpt>
      <trkpt lat="47.50614" lon="6.7661">
        <ele>398</ele>
        <time>2016-08-15T06:22:09.000Z</time>
      </trkpt>
      <trkpt lat="47.5061" lon="6.76612">
        <ele>398</ele>
        <time>2016-08-15T06:22:10.000Z</time>
      </trkpt>
      <trkpt lat="47.50607" lon="6.76615">
        <ele>398</ele>
        <time>2016-08-15T06:22:11.000Z</time>
      </trkpt>
      <trkpt lat="47.50604" lon="6.76616">
        <ele>398</ele>
        <time>2016-08-15T06:22:12.000Z</time>
      </trkpt>
      <trkpt lat="47.506" lon="6.76617">
        <ele>398</ele>
        <time>2016-08-15T06:22:13.000Z</time>
      </trkpt>
      <trkpt lat="47.50597" lon="6.76618">
        <ele>398</ele>
        <time>2016-08-15T06:22:14.000Z</time>
      </trkpt>
      <trkpt lat="47.50593" lon="6.76618">
        <ele>398</ele>
        <time>2016-08-15T06:22:15.000Z</time>
      </trkpt>
      <trkpt lat="47.50589" lon="6.76618">
        <ele>398</ele>
        <time>2016-08-15T06:22:16.000Z</time>
      </trkpt>
      <trkpt lat="47.50585" lon="6.76618">
        <ele>398</ele>
        <time>2016-08-15T06:22:17.000Z</time>
      </trkpt>
      <trkpt lat="47.50581" lon="6.76618">
        <ele>399</ele>
        <time>2016-08-15T06:22:18.000Z</time>
      </trkpt>
      <trkpt lat="47.50577" lon="6.76618">
        <ele>399</ele>
        <time>2016-08-15T06:22:19.000Z</time>
      </trkpt>
      <trkpt lat="47.50574" lon="6.76618">
        <ele>399</ele>
        <time>2016-08-15T06:22:20.000Z</time>
      </trkpt>
      <trkpt lat="47.5057" lon="6.76618">
        <ele>399</ele>
        <time>2016-08-15T06:22:21.000Z</time>
      </trkpt>
      <trkpt lat="47.50566" lon="6.76618">
        <ele>399</ele>
        <time>2016-08-15T06:22:22.000Z</time>
      </trkpt>
      <trkpt lat="47.50563" lon="6.76619">
        <ele>399</ele>
        <time>2016-08-15T06:22:23.000Z</time>
      </trkpt>
      <trkpt lat="47.5056" lon="6.76621">
        <ele>399</ele>
        <time>2016-08-15T06:22:24.000Z</time>
      </trkpt>
      <trkpt lat="47.50556" lon="6.76623">
        <ele>399</ele>
        <time>2016-08-15T06:22:25.000Z</time>
      </trkpt>
      <trkpt lat="47.50553" lon="6.76624">
        <ele>399</ele>
        <time>2016-08-15T06:22:26.000Z</time>
      </trkpt>
      <trkpt lat="47.50549" lon="6.76625">
        <ele>399</ele>
        <time>2016-08-15T06:22:27.000Z</time>
      </trkpt>
      <trkpt lat="47.50545" lon="6.76626">
        <ele>399</ele>
        <time>2016-08-15T06:22:28.000Z</time>
      </trkpt>
      <trkpt lat="47.50541" lon="6.76626">
        <ele>399</ele>
        <time>2016-08-15T06:22:29.000Z</time>
      </trkpt>
      <trkpt lat="47.50537" lon="6.76627">
        <ele>399</ele>
        <time>2016-08-15T06:22:30.000Z</time>
      </trkpt>
      <trkpt lat="47.50533" lon="6.76627">
        <ele>399</ele>
        <time>2016-08-15T06:22:31.000Z</time>
      </trkpt>
      <trkpt lat="47.50529" lon="6.76628">
        <ele>399</ele>
        <time>2016-08-15T06:22:32.000Z</time>
      </trkpt>
      <trkpt lat="47.50523" lon="6.76628">
        <ele>399</ele>
        <time>2016-08-15T06:22:33.000Z</time>
      </trkpt>
      <trkpt lat="47.50519" lon="6.76629">
        <ele>399</ele>
        <time>2016-08-15T06:22:34.000Z</time>
      </trkpt>
      <trkpt lat="47.50513" lon="6.7663">
        <ele>399</ele>
        <time>2016-08-15T06:22:35.000Z</time>
      </trkpt>
      <trkpt lat="47.50508" lon="6.76632">
        <ele>399</ele>
        <time>2016-08-15T06:22:36.000Z</time>
      </trkpt>
      <trkpt lat="47.50503" lon="6.76634">
        <ele>399</ele>
        <time>2016-08-15T06:22:37.000Z</time>
      </trkpt>
      <trkpt lat="47.50498" lon="6.76635">
        <ele>399</ele>
        <time>2016-08-15T06:22:38.000Z</time>
      </trkpt>
      <trkpt lat="47.50493" lon="6.76637">
        <ele>399</ele>
        <time>2016-08-15T06:22:39.000Z</time>
      </trkpt>
      <trkpt lat="47.50488" lon="6.76639">
        <ele>399</ele>
        <time>2016-08-15T06:22:40.000Z</time>
      </trkpt>
      <trkpt lat="47.50482" lon="6.7664">
        <ele>399</ele>
        <time>2016-08-15T06:22:41.000Z</time>
      </trkpt>
      <trkpt lat="47.50477" lon="6.76643">
        <ele>398</ele>
        <time>2016-08-15T06:22:42.000Z</time>
      </trkpt>
      <trkpt lat="47.50471" lon="6.76646">
        <ele>398</ele>
        <time>2016-08-15T06:22:43.000Z</time>
      </trkpt>
      <trkpt lat="47.50465" lon="6.76648">
        <ele>398</ele>
        <time>2016-08-15T06:22:44.000Z</time>
      </trkpt>
      <trkpt lat="47.50459" lon="6.7665">
        <ele>398</ele>
        <time>2016-08-15T06:22:45.000Z</time>
      </trkpt>
      <trkpt lat="47.50454" lon="6.76653">
        <ele>398</ele>
        <time>2016-08-15T06:22:46.000Z</time>
      </trkpt>
      <trkpt lat="47.50447" lon="6.76661">
        <ele>398</ele>
        <time>2016-08-15T06:22:47.000Z</time>
      </trkpt>
      <trkpt lat="47.50442" lon="6.76663">
        <ele>398</ele>
        <time>2016-08-15T06:22:48.000Z</time>
      </trkpt>
      <trkpt lat="47.50437" lon="6.76665">
        <ele>398</ele>
        <time>2016-08-15T06:22:49.000Z</time>
      </trkpt>
      <trkpt lat="47.50431" lon="6.7667">
        <ele>397</ele>
        <time>2016-08-15T06:22:50.000Z</time>
      </trkpt>
      <trkpt lat="47.50426" lon="6.76674">
        <ele>397</ele>
        <time>2016-08-15T06:22:51.000Z</time>
      </trkpt>
      <trkpt lat="47.50421" lon="6.76678">
        <ele>397</ele>
        <time>2016-08-15T06:22:52.000Z</time>
      </trkpt>
      <trkpt lat="47.50416" lon="6.76678">
        <ele>397</ele>
        <time>2016-08-15T06:22:53.000Z</time>
      </trkpt>
      <trkpt lat="47.5041" lon="6.76682">
        <ele>397</ele>
        <time>2016-08-15T06:22:54.000Z</time>
      </trkpt>
      <trkpt lat="47.50405" lon="6.76683">
        <ele>397</ele>
        <time>2016-08-15T06:22:55.000Z</time>
      </trkpt>
      <trkpt lat="47.50398" lon="6.76688">
        <ele>397</ele>
        <time>2016-08-15T06:22:56.000Z</time>
      </trkpt>
      <trkpt lat="47.50393" lon="6.76694">
        <ele>397</ele>
        <time>2016-08-15T06:22:57.000Z</time>
      </trkpt>
      <trkpt lat="47.50387" lon="6.76695">
        <ele>397</ele>
        <time>2016-08-15T06:22:58.000Z</time>
      </trkpt>
      <trkpt lat="47.50383" lon="6.76696">
        <ele>397</ele>
        <time>2016-08-15T06:22:59.000Z</time>
      </trkpt>
      <trkpt lat="47.50378" lon="6.76698">
        <ele>397</ele>
        <time>2016-08-15T06:23:00.000Z</time>
      </trkpt>
      <trkpt lat="47.50373" lon="6.767">
        <ele>397</ele>
        <time>2016-08-15T06:23:01.000Z</time>
      </trkpt>
      <trkpt lat="47.50368" lon="6.76702">
        <ele>397</ele>
        <time>2016-08-15T06:23:02.000Z</time>
      </trkpt>
      <trkpt lat="47.50363" lon="6.76704">
        <ele>397</ele>
        <time>2016-08-15T06:23:03.000Z</time>
      </trkpt>
      <trkpt lat="47.50358" lon="6.76705">
        <ele>397</ele>
        <time>2016-08-15T06:23:04.000Z</time>
      </trkpt>
      <trkpt lat="47.50353" lon="6.76708">
        <ele>397</ele>
        <time>2016-08-15T06:23:05.000Z</time>
      </trkpt>
      <trkpt lat="47.50349" lon="6.76712">
        <ele>398</ele>
        <time>2016-08-15T06:23:06.000Z</time>
      </trkpt>
      <trkpt lat="47.50343" lon="6.76716">
        <ele>398</ele>
        <time>2016-08-15T06:23:07.000Z</time>
      </trkpt>
      <trkpt lat="47.50339" lon="6.76714">
        <ele>398</ele>
        <time>2016-08-15T06:23:08.000Z</time>
      </trkpt>
      <trkpt lat="47.50334" lon="6.76717">
        <ele>398</ele>
        <time>2016-08-15T06:23:09.000Z</time>
      </trkpt>
      <trkpt lat="47.5033" lon="6.76718">
        <ele>398</ele>
        <time>2016-08-15T06:23:10.000Z</time>
      </trkpt>
      <trkpt lat="47.50325" lon="6.76721">
        <ele>398</ele>
        <time>2016-08-15T06:23:11.000Z</time>
      </trkpt>
      <trkpt lat="47.50321" lon="6.76722">
        <ele>398</ele>
        <time>2016-08-15T06:23:12.000Z</time>
      </trkpt>
      <trkpt lat="47.50315" lon="6.76725">
        <ele>398</ele>
        <time>2016-08-15T06:23:13.000Z</time>
      </trkpt>
      <trkpt lat="47.50312" lon="6.76727">
        <ele>398</ele>
        <time>2016-08-15T06:23:14.000Z</time>
      </trkpt>
      <trkpt lat="47.50307" lon="6.7673">
        <ele>398</ele>
        <time>2016-08-15T06:23:15.000Z</time>
      </trkpt>
      <trkpt lat="47.50302" lon="6.76732">
        <ele>398</ele>
        <time>2016-08-15T06:23:16.000Z</time>
      </trkpt>
      <trkpt lat="47.50297" lon="6.76731">
        <ele>399</ele>
        <time>2016-08-15T06:23:17.000Z</time>
      </trkpt>
      <trkpt lat="47.50294" lon="6.7673">
        <ele>399</ele>
        <time>2016-08-15T06:23:18.000Z</time>
      </trkpt>
      <trkpt lat="47.5029" lon="6.76731">
        <ele>399</ele>
        <time>2016-08-15T06:23:19.000Z</time>
      </trkpt>
      <trkpt lat="47.50286" lon="6.7673">
        <ele>399</ele>
        <time>2016-08-15T06:23:20.000Z</time>
      </trkpt>
      <trkpt lat="47.5028" lon="6.7673">
        <ele>399</ele>
        <time>2016-08-15T06:23:21.000Z</time>
      </trkpt>
      <trkpt lat="47.50275" lon="6.76733">
        <ele>399</ele>
        <time>2016-08-15T06:23:22.000Z</time>
      </trkpt>
      <trkpt lat="47.50269" lon="6.76735">
        <ele>399</ele>
        <time>2016-08-15T06:23:23.000Z</time>
      </trkpt>
      <trkpt lat="47.50265" lon="6.76737">
        <ele>399</ele>
        <time>2016-08-15T06:23:24.000Z</time>
      </trkpt>
      <trkpt lat="47.50261" lon="6.76737">
        <ele>399</ele>
        <time>2016-08-15T06:23:25.000Z</time>
      </trkpt>
      <trkpt lat="47.50256" lon="6.76739">
        <ele>399</ele>
        <time>2016-08-15T06:23:26.000Z</time>
      </trkpt>
      <trkpt lat="47.50253" lon="6.76741">
        <ele>400</ele>
        <time>2016-08-15T06:23:27.000Z</time>
      </trkpt>
      <trkpt lat="47.5025" lon="6.76741">
        <ele>401</ele>
        <time>2016-08-15T06:23:28.000Z</time>
      </trkpt>
      <trkpt lat="47.50246" lon="6.76741">
        <ele>401</ele>
        <time>2016-08-15T06:23:28.999Z</time>
      </trkpt>
      <trkpt lat="47.50242" lon="6.76742">
        <ele>401</ele>
        <time>2016-08-15T06:23:29.999Z</time>
      </trkpt>
      <trkpt lat="47.50241" lon="6.76737">
        <ele>401</ele>
        <time>2016-08-15T06:23:31.000Z</time>
      </trkpt>
      <trkpt lat="47.5024" lon="6.76733">
        <ele>401</ele>
        <time>2016-08-15T06:23:32.000Z</time>
      </trkpt>
      <trkpt lat="47.50238" lon="6.76729">
        <ele>401</ele>
        <time>2016-08-15T06:23:33.000Z</time>
      </trkpt>
      <trkpt lat="47.50236" lon="6.76725">
        <ele>401</ele>
        <time>2016-08-15T06:23:34.000Z</time>
      </trkpt>
      <trkpt lat="47.50234" lon="6.76721">
        <ele>402</ele>
        <time>2016-08-15T06:23:34.998Z</time>
      </trkpt>
      <trkpt lat="47.50232" lon="6.76716">
        <ele>402</ele>
        <time>2016-08-15T06:23:36.000Z</time>
      </trkpt>
      <trkpt lat="47.5023" lon="6.76711">
        <ele>402</ele>
        <time>2016-08-15T06:23:37.000Z</time>
      </trkpt>
      <trkpt lat="47.50228" lon="6.76707">
        <ele>402</ele>
        <time>2016-08-15T06:23:38.000Z</time>
      </trkpt>
      <trkpt lat="47.50226" lon="6.76702">
        <ele>402</ele>
        <time>2016-08-15T06:23:39.000Z</time>
      </trkpt>
      <trkpt lat="47.50224" lon="6.76698">
        <ele>402</ele>
        <time>2016-08-15T06:23:39.999Z</time>
      </trkpt>
      <trkpt lat="47.50222" lon="6.76692">
        <ele>402</ele>
        <time>2016-08-15T06:23:41.000Z</time>
      </trkpt>
      <trkpt lat="47.5022" lon="6.76683">
        <ele>402</ele>
        <time>2016-08-15T06:23:42.000Z</time>
      </trkpt>
      <trkpt lat="47.50218" lon="6.76677">
        <ele>402</ele>
        <time>2016-08-15T06:23:42.999Z</time>
      </trkpt>
      <trkpt lat="47.50214" lon="6.76671">
        <ele>402</ele>
        <time>2016-08-15T06:23:44.000Z</time>
      </trkpt>
      <trkpt lat="47.50211" lon="6.76665">
        <ele>402</ele>
        <time>2016-08-15T06:23:45.000Z</time>
      </trkpt>
      <trkpt lat="47.50208" lon="6.7666">
        <ele>402</ele>
        <time>2016-08-15T06:23:46.000Z</time>
      </trkpt>
      <trkpt lat="47.50205" lon="6.76655">
        <ele>402</ele>
        <time>2016-08-15T06:23:46.999Z</time>
      </trkpt>
      <trkpt lat="47.50205" lon="6.76648">
        <ele>402</ele>
        <time>2016-08-15T06:23:48.000Z</time>
      </trkpt>
      <trkpt lat="47.50202" lon="6.76641">
        <ele>402</ele>
        <time>2016-08-15T06:23:49.000Z</time>
      </trkpt>
      <trkpt lat="47.502" lon="6.76635">
        <ele>402</ele>
        <time>2016-08-15T06:23:50.000Z</time>
      </trkpt>
      <trkpt lat="47.50199" lon="6.7663">
        <ele>402</ele>
        <time>2016-08-15T06:23:51.000Z</time>
      </trkpt>
      <trkpt lat="47.50197" lon="6.76624">
        <ele>402</ele>
        <time>2016-08-15T06:23:52.000Z</time>
      </trkpt>
      <trkpt lat="47.50194" lon="6.76618">
        <ele>403</ele>
        <time>2016-08-15T06:23:53.000Z</time>
      </trkpt>
      <trkpt lat="47.50192" lon="6.76613">
        <ele>403</ele>
        <time>2016-08-15T06:23:53.999Z</time>
      </trkpt>
      <trkpt lat="47.50191" lon="6.76608">
        <ele>403</ele>
        <time>2016-08-15T06:23:55.000Z</time>
      </trkpt>
      <trkpt lat="47.50189" lon="6.76604">
        <ele>403</ele>
        <time>2016-08-15T06:23:55.999Z</time>
      </trkpt>
      <trkpt lat="47.50188" lon="6.76601">
        <ele>404</ele>
        <time>2016-08-15T06:23:57.000Z</time>
      </trkpt>
      <trkpt lat="47.50186" lon="6.76598">
        <ele>404</ele>
        <time>2016-08-15T06:23:58.000Z</time>
      </trkpt>
      <trkpt lat="47.50185" lon="6.76594">
        <ele>404</ele>
        <time>2016-08-15T06:23:59.000Z</time>
      </trkpt>
      <trkpt lat="47.50185" lon="6.7659">
        <ele>404</ele>
        <time>2016-08-15T06:24:00.000Z</time>
      </trkpt>
      <trkpt lat="47.50187" lon="6.76585">
        <ele>404</ele>
        <time>2016-08-15T06:24:02.000Z</time>
      </trkpt>
      <trkpt lat="47.50186" lon="6.76582">
        <ele>404</ele>
        <time>2016-08-15T06:24:03.000Z</time>
      </trkpt>
      <trkpt lat="47.50188" lon="6.76576">
        <ele>403</ele>
        <time>2016-08-15T06:24:05.000Z</time>
      </trkpt>
      <trkpt lat="47.50188" lon="6.76572">
        <ele>403</ele>
        <time>2016-08-15T06:24:06.000Z</time>
      </trkpt>
      <trkpt lat="47.50192" lon="6.7657">
        <ele>403</ele>
        <time>2016-08-15T06:24:07.000Z</time>
      </trkpt>
      <trkpt lat="47.50196" lon="6.76569">
        <ele>402</ele>
        <time>2016-08-15T06:24:08.000Z</time>
      </trkpt>
      <trkpt lat="47.50201" lon="6.76569">
        <ele>402</ele>
        <time>2016-08-15T06:24:09.000Z</time>
      </trkpt>
      <trkpt lat="47.50207" lon="6.76569">
        <ele>401</ele>
        <time>2016-08-15T06:24:10.000Z</time>
      </trkpt>
      <trkpt lat="47.50211" lon="6.7657">
        <ele>401</ele>
        <time>2016-08-15T06:24:11.000Z</time>
      </trkpt>
      <trkpt lat="47.50216" lon="6.7657">
        <ele>401</ele>
        <time>2016-08-15T06:24:12.000Z</time>
      </trkpt>
      <trkpt lat="47.5022" lon="6.7657">
        <ele>400</ele>
        <time>2016-08-15T06:24:13.000Z</time>
      </trkpt>
      <trkpt lat="47.50223" lon="6.76568">
        <ele>400</ele>
        <time>2016-08-15T06:24:14.000Z</time>
      </trkpt>
      <trkpt lat="47.50225" lon="6.76565">
        <ele>400</ele>
        <time>2016-08-15T06:24:15.000Z</time>
      </trkpt>
      <trkpt lat="47.50225" lon="6.76559">
        <ele>400</ele>
        <time>2016-08-15T06:24:16.000Z</time>
      </trkpt>
      <trkpt lat="47.50224" lon="6.76553">
        <ele>400</ele>
        <time>2016-08-15T06:24:17.000Z</time>
      </trkpt>
      <trkpt lat="47.50224" lon="6.76545">
        <ele>400</ele>
        <time>2016-08-15T06:24:18.000Z</time>
      </trkpt>
      <trkpt lat="47.50223" lon="6.76538">
        <ele>400</ele>
        <time>2016-08-15T06:24:19.000Z</time>
      </trkpt>
      <trkpt lat="47.50221" lon="6.76529">
        <ele>399</ele>
        <time>2016-08-15T06:24:20.000Z</time>
      </trkpt>
      <trkpt lat="47.5022" lon="6.76521">
        <ele>399</ele>
        <time>2016-08-15T06:24:21.000Z</time>
      </trkpt>
      <trkpt lat="47.50215" lon="6.76499">
        <ele>396</ele>
        <time>2016-08-15T06:24:22.000Z</time>
      </trkpt>
      <trkpt lat="47.50211" lon="6.76488">
        <ele>396</ele>
        <time>2016-08-15T06:24:23.000Z</time>
      </trkpt>
      <trkpt lat="47.50208" lon="6.76476">
        <ele>396</ele>
        <time>2016-08-15T06:24:24.000Z</time>
      </trkpt>
      <trkpt lat="47.50205" lon="6.76463">
        <ele>396</ele>
        <time>2016-08-15T06:24:25.000Z</time>
      </trkpt>
      <trkpt lat="47.50203" lon="6.76448">
        <ele>395</ele>
        <time>2016-08-15T06:24:26.000Z</time>
      </trkpt>
      <trkpt lat="47.50197" lon="6.76435">
        <ele>395</ele>
        <time>2016-08-15T06:24:27.000Z</time>
      </trkpt>
      <trkpt lat="47.50194" lon="6.76424">
        <ele>396</ele>
        <time>2016-08-15T06:24:28.000Z</time>
      </trkpt>
      <trkpt lat="47.50192" lon="6.76413">
        <ele>392</ele>
        <time>2016-08-15T06:24:29.000Z</time>
      </trkpt>
      <trkpt lat="47.5019" lon="6.76402">
        <ele>392</ele>
        <time>2016-08-15T06:24:30.000Z</time>
      </trkpt>
      <trkpt lat="47.50186" lon="6.7639">
        <ele>392</ele>
        <time>2016-08-15T06:24:31.000Z</time>
      </trkpt>
      <trkpt lat="47.50183" lon="6.76379">
        <ele>391</ele>
        <time>2016-08-15T06:24:32.000Z</time>
      </trkpt>
      <trkpt lat="47.5018" lon="6.76366">
        <ele>390</ele>
        <time>2016-08-15T06:24:33.000Z</time>
      </trkpt>
      <trkpt lat="47.50176" lon="6.76355">
        <ele>390</ele>
        <time>2016-08-15T06:24:34.000Z</time>
      </trkpt>
      <trkpt lat="47.50173" lon="6.76342">
        <ele>390</ele>
        <time>2016-08-15T06:24:35.000Z</time>
      </trkpt>
      <trkpt lat="47.50168" lon="6.76332">
        <ele>390</ele>
        <time>2016-08-15T06:24:36.000Z</time>
      </trkpt>
      <trkpt lat="47.50164" lon="6.76319">
        <ele>394</ele>
        <time>2016-08-15T06:24:37.000Z</time>
      </trkpt>
      <trkpt lat="47.50161" lon="6.76305">
        <ele>394</ele>
        <time>2016-08-15T06:24:38.000Z</time>
      </trkpt>
      <trkpt lat="47.50159" lon="6.76293">
        <ele>394</ele>
        <time>2016-08-15T06:24:39.000Z</time>
      </trkpt>
      <trkpt lat="47.50157" lon="6.7628">
        <ele>394</ele>
        <time>2016-08-15T06:24:40.000Z</time>
      </trkpt>
      <trkpt lat="47.50155" lon="6.76267">
        <ele>392</ele>
        <time>2016-08-15T06:24:41.000Z</time>
      </trkpt>
      <trkpt lat="47.50151" lon="6.76252">
        <ele>391</ele>
        <time>2016-08-15T06:24:42.000Z</time>
      </trkpt>
      <trkpt lat="47.50148" lon="6.76239">
        <ele>389</ele>
        <time>2016-08-15T06:24:43.000Z</time>
      </trkpt>
      <trkpt lat="47.50146" lon="6.76226">
        <ele>389</ele>
        <time>2016-08-15T06:24:44.000Z</time>
      </trkpt>
      <trkpt lat="47.50146" lon="6.76213">
        <ele>389</ele>
        <time>2016-08-15T06:24:45.000Z</time>
      </trkpt>
      <trkpt lat="47.50146" lon="6.76203">
        <ele>388</ele>
        <time>2016-08-15T06:24:46.000Z</time>
      </trkpt>
      <trkpt lat="47.50143" lon="6.76189">
        <ele>387</ele>
        <time>2016-08-15T06:24:47.000Z</time>
      </trkpt>
      <trkpt lat="47.50142" lon="6.76175">
        <ele>386</ele>
        <time>2016-08-15T06:24:48.000Z</time>
      </trkpt>
      <trkpt lat="47.50141" lon="6.76162">
        <ele>382</ele>
        <time>2016-08-15T06:24:49.000Z</time>
      </trkpt>
      <trkpt lat="47.50139" lon="6.76148">
        <ele>383</ele>
        <time>2016-08-15T06:24:50.000Z</time>
      </trkpt>
      <trkpt lat="47.50137" lon="6.76135">
        <ele>383</ele>
        <time>2016-08-15T06:24:51.000Z</time>
      </trkpt>
      <trkpt lat="47.50134" lon="6.76122">
        <ele>383</ele>
        <time>2016-08-15T06:24:52.000Z</time>
      </trkpt>
      <trkpt lat="47.50132" lon="6.7611">
        <ele>383</ele>
        <time>2016-08-15T06:24:53.000Z</time>
      </trkpt>
      <trkpt lat="47.5013" lon="6.76098">
        <ele>383</ele>
        <time>2016-08-15T06:24:54.000Z</time>
      </trkpt>
      <trkpt lat="47.50127" lon="6.76085">
        <ele>383</ele>
        <time>2016-08-15T06:24:55.000Z</time>
      </trkpt>
      <trkpt lat="47.50125" lon="6.76073">
        <ele>380</ele>
        <time>2016-08-15T06:24:56.000Z</time>
      </trkpt>
      <trkpt lat="47.50123" lon="6.76064">
        <ele>379</ele>
        <time>2016-08-15T06:24:57.000Z</time>
      </trkpt>
      <trkpt lat="47.50124" lon="6.76053">
        <ele>379</ele>
        <time>2016-08-15T06:24:58.000Z</time>
      </trkpt>
      <trkpt lat="47.50123" lon="6.76043">
        <ele>379</ele>
        <time>2016-08-15T06:24:59.000Z</time>
      </trkpt>
      <trkpt lat="47.50121" lon="6.76033">
        <ele>378</ele>
        <time>2016-08-15T06:25:00.000Z</time>
      </trkpt>
      <trkpt lat="47.50118" lon="6.76023">
        <ele>378</ele>
        <time>2016-08-15T06:25:01.000Z</time>
      </trkpt>
      <trkpt lat="47.50116" lon="6.76013">
        <ele>378</ele>
        <time>2016-08-15T06:25:02.000Z</time>
      </trkpt>
      <trkpt lat="47.50113" lon="6.76004">
        <ele>378</ele>
        <time>2016-08-15T06:25:03.000Z</time>
      </trkpt>
      <trkpt lat="47.50107" lon="6.75993">
        <ele>375</ele>
        <time>2016-08-15T06:25:04.000Z</time>
      </trkpt>
      <trkpt lat="47.50105" lon="6.75983">
        <ele>375</ele>
        <time>2016-08-15T06:25:05.000Z</time>
      </trkpt>
      <trkpt lat="47.50103" lon="6.75973">
        <ele>374</ele>
        <time>2016-08-15T06:25:06.000Z</time>
      </trkpt>
      <trkpt lat="47.50096" lon="6.75963">
        <ele>374</ele>
        <time>2016-08-15T06:25:07.000Z</time>
      </trkpt>
      <trkpt lat="47.5009" lon="6.75952">
        <ele>373</ele>
        <time>2016-08-15T06:25:08.000Z</time>
      </trkpt>
      <trkpt lat="47.50083" lon="6.75942">
        <ele>377</ele>
        <time>2016-08-15T06:25:09.000Z</time>
      </trkpt>
      <trkpt lat="47.50078" lon="6.7593">
        <ele>376</ele>
        <time>2016-08-15T06:25:10.000Z</time>
      </trkpt>
      <trkpt lat="47.50073" lon="6.75918">
        <ele>376</ele>
        <time>2016-08-15T06:25:11.000Z</time>
      </trkpt>
      <trkpt lat="47.50067" lon="6.75907">
        <ele>375</ele>
        <time>2016-08-15T06:25:12.000Z</time>
      </trkpt>
      <trkpt lat="47.5006" lon="6.75894">
        <ele>375</ele>
        <time>2016-08-15T06:25:13.000Z</time>
      </trkpt>
      <trkpt lat="47.50053" lon="6.75881">
        <ele>376</ele>
        <time>2016-08-15T06:25:14.000Z</time>
      </trkpt>
      <trkpt lat="47.50045" lon="6.75869">
        <ele>376</ele>
        <time>2016-08-15T06:25:15.000Z</time>
      </trkpt>
      <trkpt lat="47.50037" lon="6.75857">
        <ele>376</ele>
        <time>2016-08-15T06:25:16.000Z</time>
      </trkpt>
      <trkpt lat="47.50032" lon="6.75846">
        <ele>376</ele>
        <time>2016-08-15T06:25:17.000Z</time>
      </trkpt>
      <trkpt lat="47.50027" lon="6.75834">
        <ele>377</ele>
        <time>2016-08-15T06:25:18.000Z</time>
      </trkpt>
      <trkpt lat="47.50021" lon="6.75822">
        <ele>376</ele>
        <time>2016-08-15T06:25:19.000Z</time>
      </trkpt>
      <trkpt lat="47.50014" lon="6.75811">
        <ele>376</ele>
        <time>2016-08-15T06:25:20.000Z</time>
      </trkpt>
      <trkpt lat="47.5001" lon="6.75802">
        <ele>376</ele>
        <time>2016-08-15T06:25:21.000Z</time>
      </trkpt>
      <trkpt lat="47.50002" lon="6.75788">
        <ele>375</ele>
        <time>2016-08-15T06:25:22.000Z</time>
      </trkpt>
      <trkpt lat="47.49994" lon="6.75774">
        <ele>375</ele>
        <time>2016-08-15T06:25:23.000Z</time>
      </trkpt>
      <trkpt lat="47.49986" lon="6.75766">
        <ele>375</ele>
        <time>2016-08-15T06:25:24.000Z</time>
      </trkpt>
      <trkpt lat="47.49982" lon="6.75755">
        <ele>375</ele>
        <time>2016-08-15T06:25:25.000Z</time>
      </trkpt>
      <trkpt lat="47.49976" lon="6.75746">
        <ele>373</ele>
        <time>2016-08-15T06:25:26.000Z</time>
      </trkpt>
      <trkpt lat="47.4997" lon="6.75738">
        <ele>372</ele>
        <time>2016-08-15T06:25:27.000Z</time>
      </trkpt>
      <trkpt lat="47.49962" lon="6.75728">
        <ele>371</ele>
        <time>2016-08-15T06:25:28.000Z</time>
      </trkpt>
      <trkpt lat="47.49955" lon="6.75713">
        <ele>370</ele>
        <time>2016-08-15T06:25:29.000Z</time>
      </trkpt>
      <trkpt lat="47.49948" lon="6.75702">
        <ele>370</ele>
        <time>2016-08-15T06:25:30.000Z</time>
      </trkpt>
      <trkpt lat="47.49939" lon="6.75696">
        <ele>370</ele>
        <time>2016-08-15T06:25:31.000Z</time>
      </trkpt>
      <trkpt lat="47.4993" lon="6.75691">
        <ele>369</ele>
        <time>2016-08-15T06:25:32.000Z</time>
      </trkpt>
      <trkpt lat="47.4992" lon="6.75688">
        <ele>369</ele>
        <time>2016-08-15T06:25:33.000Z</time>
      </trkpt>
      <trkpt lat="47.49909" lon="6.75689">
        <ele>365</ele>
        <time>2016-08-15T06:25:34.000Z</time>
      </trkpt>
      <trkpt lat="47.49901" lon="6.75688">
        <ele>364</ele>
        <time>2016-08-15T06:25:35.000Z</time>
      </trkpt>
      <trkpt lat="47.4989" lon="6.75694">
        <ele>364</ele>
        <time>2016-08-15T06:25:36.000Z</time>
      </trkpt>
      <trkpt lat="47.49879" lon="6.75694">
        <ele>363</ele>
        <time>2016-08-15T06:25:37.000Z</time>
      </trkpt>
      <trkpt lat="47.4987" lon="6.75695">
        <ele>362</ele>
        <time>2016-08-15T06:25:38.000Z</time>
      </trkpt>
      <trkpt lat="47.49861" lon="6.75696">
        <ele>361</ele>
        <time>2016-08-15T06:25:39.000Z</time>
      </trkpt>
      <trkpt lat="47.49849" lon="6.75701">
        <ele>360</ele>
        <time>2016-08-15T06:25:40.000Z</time>
      </trkpt>
      <trkpt lat="47.4983" lon="6.75711">
        <ele>353</ele>
        <time>2016-08-15T06:25:41.000Z</time>
      </trkpt>
      <trkpt lat="47.49821" lon="6.75712">
        <ele>353</ele>
        <time>2016-08-15T06:25:42.000Z</time>
      </trkpt>
      <trkpt lat="47.49806" lon="6.75718">
        <ele>352</ele>
        <time>2016-08-15T06:25:43.000Z</time>
      </trkpt>
      <trkpt lat="47.49793" lon="6.75723">
        <ele>351</ele>
        <time>2016-08-15T06:25:44.000Z</time>
      </trkpt>
      <trkpt lat="47.49782" lon="6.75728">
        <ele>351</ele>
        <time>2016-08-15T06:25:45.000Z</time>
      </trkpt>
      <trkpt lat="47.49771" lon="6.75734">
        <ele>351</ele>
        <time>2016-08-15T06:25:46.000Z</time>
      </trkpt>
      <trkpt lat="47.49762" lon="6.75735">
        <ele>350</ele>
        <time>2016-08-15T06:25:47.000Z</time>
      </trkpt>
      <trkpt lat="47.49753" lon="6.75742">
        <ele>351</ele>
        <time>2016-08-15T06:25:48.000Z</time>
      </trkpt>
      <trkpt lat="47.49744" lon="6.75745">
        <ele>348</ele>
        <time>2016-08-15T06:25:49.000Z</time>
      </trkpt>
      <trkpt lat="47.49735" lon="6.75747">
        <ele>346</ele>
        <time>2016-08-15T06:25:50.000Z</time>
      </trkpt>
      <trkpt lat="47.49725" lon="6.75749">
        <ele>344</ele>
        <time>2016-08-15T06:25:51.000Z</time>
      </trkpt>
      <trkpt lat="47.49716" lon="6.75752">
        <ele>352</ele>
        <time>2016-08-15T06:25:52.000Z</time>
      </trkpt>
      <trkpt lat="47.49709" lon="6.75758">
        <ele>352</ele>
        <time>2016-08-15T06:25:53.000Z</time>
      </trkpt>
      <trkpt lat="47.49701" lon="6.75764">
        <ele>352</ele>
        <time>2016-08-15T06:25:54.000Z</time>
      </trkpt>
      <trkpt lat="47.49693" lon="6.75765">
        <ele>351</ele>
        <time>2016-08-15T06:25:55.000Z</time>
      </trkpt>
      <trkpt lat="47.49684" lon="6.75766">
        <ele>351</ele>
        <time>2016-08-15T06:25:56.000Z</time>
      </trkpt>
      <trkpt lat="47.49679" lon="6.75762">
        <ele>349</ele>
        <time>2016-08-15T06:25:57.000Z</time>
      </trkpt>
      <trkpt lat="47.49672" lon="6.75763">
        <ele>348</ele>
        <time>2016-08-15T06:25:58.000Z</time>
      </trkpt>
      <trkpt lat="47.49663" lon="6.7576">
        <ele>345</ele>
        <time>2016-08-15T06:25:59.000Z</time>
      </trkpt>
      <trkpt lat="47.49654" lon="6.75759">
        <ele>345</ele>
        <time>2016-08-15T06:26:00.000Z</time>
      </trkpt>
      <trkpt lat="47.49649" lon="6.75756">
        <ele>345</ele>
        <time>2016-08-15T06:26:01.000Z</time>
      </trkpt>
      <trkpt lat="47.49642" lon="6.75753">
        <ele>345</ele>
        <time>2016-08-15T06:26:02.000Z</time>
      </trkpt>
      <trkpt lat="47.49635" lon="6.75753">
        <ele>344</ele>
        <time>2016-08-15T06:26:03.000Z</time>
      </trkpt>
      <trkpt lat="47.49628" lon="6.75753">
        <ele>344</ele>
        <time>2016-08-15T06:26:04.000Z</time>
      </trkpt>
      <trkpt lat="47.49616" lon="6.75756">
        <ele>343</ele>
        <time>2016-08-15T06:26:05.000Z</time>
      </trkpt>
      <trkpt lat="47.49612" lon="6.75754">
        <ele>342</ele>
        <time>2016-08-15T06:26:06.000Z</time>
      </trkpt>
      <trkpt lat="47.49606" lon="6.75752">
        <ele>341</ele>
        <time>2016-08-15T06:26:07.000Z</time>
      </trkpt>
      <trkpt lat="47.49601" lon="6.75751">
        <ele>340</ele>
        <time>2016-08-15T06:26:08.000Z</time>
      </trkpt>
      <trkpt lat="47.49595" lon="6.75751">
        <ele>338</ele>
        <time>2016-08-15T06:26:09.000Z</time>
      </trkpt>
      <trkpt lat="47.49591" lon="6.7575">
        <ele>333</ele>
        <time>2016-08-15T06:26:10.000Z</time>
      </trkpt>
      <trkpt lat="47.49587" lon="6.75749">
        <ele>334</ele>
        <time>2016-08-15T06:26:11.000Z</time>
      </trkpt>
      <trkpt lat="47.49584" lon="6.75748">
        <ele>334</ele>
        <time>2016-08-15T06:26:12.000Z</time>
      </trkpt>
      <trkpt lat="47.49581" lon="6.75744">
        <ele>332</ele>
        <time>2016-08-15T06:26:13.000Z</time>
      </trkpt>
      <trkpt lat="47.49578" lon="6.75741">
        <ele>331</ele>
        <time>2016-08-15T06:26:14.000Z</time>
      </trkpt>
      <trkpt lat="47.49575" lon="6.75741">
        <ele>330</ele>
        <time>2016-08-15T06:26:15.000Z</time>
      </trkpt>
      <trkpt lat="47.49578" lon="6.75739">
        <ele>330</ele>
        <time>2016-08-15T06:26:18.000Z</time>
      </trkpt>
      <trkpt lat="47.4958" lon="6.7574">
        <ele>331</ele>
        <time>2016-08-15T06:26:19.000Z</time>
      </trkpt>
      <trkpt lat="47.49583" lon="6.75736">
        <ele>330</ele>
        <time>2016-08-15T06:26:20.000Z</time>
      </trkpt>
      <trkpt lat="47.49586" lon="6.75735">
        <ele>333</ele>
        <time>2016-08-15T06:26:21.000Z</time>
      </trkpt>
      <trkpt lat="47.4959" lon="6.75728">
        <ele>332</ele>
        <time>2016-08-15T06:26:22.000Z</time>
      </trkpt>
      <trkpt lat="47.49594" lon="6.75722">
        <ele>332</ele>
        <time>2016-08-15T06:26:23.000Z</time>
      </trkpt>
      <trkpt lat="47.49598" lon="6.75715">
        <ele>331</ele>
        <time>2016-08-15T06:26:24.000Z</time>
      </trkpt>
      <trkpt lat="47.49601" lon="6.75707">
        <ele>330</ele>
        <time>2016-08-15T06:26:25.000Z</time>
      </trkpt>
      <trkpt lat="47.49599" lon="6.75695">
        <ele>329</ele>
        <time>2016-08-15T06:26:26.000Z</time>
      </trkpt>
      <trkpt lat="47.49598" lon="6.75688">
        <ele>328</ele>
        <time>2016-08-15T06:26:28.000Z</time>
      </trkpt>
      <trkpt lat="47.49594" lon="6.75683">
        <ele>327</ele>
        <time>2016-08-15T06:26:29.000Z</time>
      </trkpt>
      <trkpt lat="47.49589" lon="6.75678">
        <ele>325</ele>
        <time>2016-08-15T06:26:30.000Z</time>
      </trkpt>
      <trkpt lat="47.49582" lon="6.75677">
        <ele>323</ele>
        <time>2016-08-15T06:26:31.000Z</time>
      </trkpt>
      <trkpt lat="47.49574" lon="6.75681">
        <ele>323</ele>
        <time>2016-08-15T06:26:32.000Z</time>
      </trkpt>
      <trkpt lat="47.4957" lon="6.75689">
        <ele>324</ele>
        <time>2016-08-15T06:26:33.000Z</time>
      </trkpt>
      <trkpt lat="47.49565" lon="6.75697">
        <ele>325</ele>
        <time>2016-08-15T06:26:34.000Z</time>
      </trkpt>
      <trkpt lat="47.4956" lon="6.75703">
        <ele>325</ele>
        <time>2016-08-15T06:26:35.000Z</time>
      </trkpt>
      <trkpt lat="47.49555" lon="6.7571">
        <ele>326</ele>
        <time>2016-08-15T06:26:36.000Z</time>
      </trkpt>
      <trkpt lat="47.4955" lon="6.75716">
        <ele>326</ele>
        <time>2016-08-15T06:26:37.000Z</time>
      </trkpt>
      <trkpt lat="47.49545" lon="6.75721">
        <ele>326</ele>
        <time>2016-08-15T06:26:38.000Z</time>
      </trkpt>
      <trkpt lat="47.4954" lon="6.75723">
        <ele>326</ele>
        <time>2016-08-15T06:26:39.000Z</time>
      </trkpt>
      <trkpt lat="47.49535" lon="6.75726">
        <ele>325</ele>
        <time>2016-08-15T06:26:40.000Z</time>
      </trkpt>
      <trkpt lat="47.49528" lon="6.75729">
        <ele>325</ele>
        <time>2016-08-15T06:26:41.000Z</time>
      </trkpt>
      <trkpt lat="47.49523" lon="6.75733">
        <ele>325</ele>
        <time>2016-08-15T06:26:42.000Z</time>
      </trkpt>
      <trkpt lat="47.49517" lon="6.75738">
        <ele>325</ele>
        <time>2016-08-15T06:26:43.000Z</time>
      </trkpt>
      <trkpt lat="47.49511" lon="6.75739">
        <ele>325</ele>
        <time>2016-08-15T06:26:44.000Z</time>
      </trkpt>
      <trkpt lat="47.49506" lon="6.75743">
        <ele>324</ele>
        <time>2016-08-15T06:26:45.000Z</time>
      </trkpt>
      <trkpt lat="47.49499" lon="6.75745">
        <ele>323</ele>
        <time>2016-08-15T06:26:46.000Z</time>
      </trkpt>
      <trkpt lat="47.49493" lon="6.75747">
        <ele>323</ele>
        <time>2016-08-15T06:26:47.000Z</time>
      </trkpt>
      <trkpt lat="47.49488" lon="6.75745">
        <ele>323</ele>
        <time>2016-08-15T06:26:48.000Z</time>
      </trkpt>
      <trkpt lat="47.49486" lon="6.75736">
        <ele>322</ele>
        <time>2016-08-15T06:26:49.000Z</time>
      </trkpt>
      <trkpt lat="47.49484" lon="6.75727">
        <ele>322</ele>
        <time>2016-08-15T06:26:50.000Z</time>
      </trkpt>
      <trkpt lat="47.4948" lon="6.75719">
        <ele>322</ele>
        <time>2016-08-15T06:26:51.000Z</time>
      </trkpt>
      <trkpt lat="47.49478" lon="6.75711">
        <ele>321</ele>
        <time>2016-08-15T06:26:52.000Z</time>
      </trkpt>
      <trkpt lat="47.49475" lon="6.75704">
        <ele>321</ele>
        <time>2016-08-15T06:26:53.000Z</time>
      </trkpt>
      <trkpt lat="47.49469" lon="6.757">
        <ele>321</ele>
        <time>2016-08-15T06:26:54.000Z</time>
      </trkpt>
      <trkpt lat="47.49464" lon="6.75701">
        <ele>321</ele>
        <time>2016-08-15T06:26:55.000Z</time>
      </trkpt>
      <trkpt lat="47.49458" lon="6.75704">
        <ele>321</ele>
        <time>2016-08-15T06:26:56.000Z</time>
      </trkpt>
      <trkpt lat="47.49453" lon="6.75706">
        <ele>321</ele>
        <time>2016-08-15T06:26:57.000Z</time>
      </trkpt>
      <trkpt lat="47.49451" lon="6.75704">
        <ele>321</ele>
        <time>2016-08-15T06:26:58.000Z</time>
      </trkpt>
      <trkpt lat="47.49449" lon="6.757">
        <ele>321</ele>
        <time>2016-08-15T06:26:59.000Z</time>
      </trkpt>
      <trkpt lat="47.49448" lon="6.75692">
        <ele>321</ele>
        <time>2016-08-15T06:27:00.000Z</time>
      </trkpt>
      <trkpt lat="47.49447" lon="6.75686">
        <ele>321</ele>
        <time>2016-08-15T06:27:01.000Z</time>
      </trkpt>
      <trkpt lat="47.49447" lon="6.75682">
        <ele>320</ele>
        <time>2016-08-15T06:27:02.000Z</time>
      </trkpt>
      <trkpt lat="47.49446" lon="6.75678">
        <ele>320</ele>
        <time>2016-08-15T06:27:03.000Z</time>
      </trkpt>
      <trkpt lat="47.49439" lon="6.75679">
        <ele>320</ele>
        <time>2016-08-15T06:27:04.000Z</time>
      </trkpt>
      <trkpt lat="47.49436" lon="6.75679">
        <ele>320</ele>
        <time>2016-08-15T06:27:05.000Z</time>
      </trkpt>
      <trkpt lat="47.49431" lon="6.75679">
        <ele>320</ele>
        <time>2016-08-15T06:27:06.000Z</time>
      </trkpt>
      <trkpt lat="47.49427" lon="6.75681">
        <ele>320</ele>
        <time>2016-08-15T06:27:07.000Z</time>
      </trkpt>
      <trkpt lat="47.49419" lon="6.75683">
        <ele>320</ele>
        <time>2016-08-15T06:27:08.000Z</time>
      </trkpt>
      <trkpt lat="47.49412" lon="6.75685">
        <ele>319</ele>
        <time>2016-08-15T06:27:09.000Z</time>
      </trkpt>
      <trkpt lat="47.49407" lon="6.75689">
        <ele>319</ele>
        <time>2016-08-15T06:27:10.000Z</time>
      </trkpt>
      <trkpt lat="47.49402" lon="6.75696">
        <ele>319</ele>
        <time>2016-08-15T06:27:11.000Z</time>
      </trkpt>
      <trkpt lat="47.49396" lon="6.75703">
        <ele>319</ele>
        <time>2016-08-15T06:27:12.000Z</time>
      </trkpt>
      <trkpt lat="47.49389" lon="6.75708">
        <ele>319</ele>
        <time>2016-08-15T06:27:13.000Z</time>
      </trkpt>
      <trkpt lat="47.49385" lon="6.75709">
        <ele>319</ele>
        <time>2016-08-15T06:27:14.000Z</time>
      </trkpt>
      <trkpt lat="47.49381" lon="6.7571">
        <ele>319</ele>
        <time>2016-08-15T06:27:15.000Z</time>
      </trkpt>
      <trkpt lat="47.49379" lon="6.75711">
        <ele>319</ele>
        <time>2016-08-15T06:27:16.000Z</time>
      </trkpt>
      <trkpt lat="47.49375" lon="6.75709">
        <ele>319</ele>
        <time>2016-08-15T06:27:17.000Z</time>
      </trkpt>
      <trkpt lat="47.4937" lon="6.75709">
        <ele>319</ele>
        <time>2016-08-15T06:27:18.000Z</time>
      </trkpt>
      <trkpt lat="47.4937" lon="6.7571">
        <ele>319</ele>
        <time>2016-08-15T06:27:19.000Z</time>
      </trkpt>
      <trkpt lat="47.49367" lon="6.7571">
        <ele>319</ele>
        <time>2016-08-15T06:27:20.000Z</time>
      </trkpt>
      <trkpt lat="47.49365" lon="6.75713">
        <ele>319</ele>
        <time>2016-08-15T06:27:21.000Z</time>
      </trkpt>
      <trkpt lat="47.49362" lon="6.75715">
        <ele>319</ele>
        <time>2016-08-15T06:27:22.000Z</time>
      </trkpt>
      <trkpt lat="47.49358" lon="6.75718">
        <ele>319</ele>
        <time>2016-08-15T06:27:23.000Z</time>
      </trkpt>
      <trkpt lat="47.49353" lon="6.75719">
        <ele>319</ele>
        <time>2016-08-15T06:27:24.000Z</time>
      </trkpt>
      <trkpt lat="47.49349" lon="6.75721">
        <ele>319</ele>
        <time>2016-08-15T06:27:25.000Z</time>
      </trkpt>
      <trkpt lat="47.49345" lon="6.75724">
        <ele>318</ele>
        <time>2016-08-15T06:27:26.000Z</time>
      </trkpt>
      <trkpt lat="47.4934" lon="6.75727">
        <ele>318</ele>
        <time>2016-08-15T06:27:27.000Z</time>
      </trkpt>
      <trkpt lat="47.49334" lon="6.75731">
        <ele>318</ele>
        <time>2016-08-15T06:27:28.000Z</time>
      </trkpt>
      <trkpt lat="47.49326" lon="6.75735">
        <ele>319</ele>
        <time>2016-08-15T06:27:29.000Z</time>
      </trkpt>
      <trkpt lat="47.49316" lon="6.75739">
        <ele>319</ele>
        <time>2016-08-15T06:27:30.000Z</time>
      </trkpt>
      <trkpt lat="47.49308" lon="6.75743">
        <ele>319</ele>
        <time>2016-08-15T06:27:31.000Z</time>
      </trkpt>
      <trkpt lat="47.49304" lon="6.75748">
        <ele>319</ele>
        <time>2016-08-15T06:27:32.000Z</time>
      </trkpt>
      <trkpt lat="47.49301" lon="6.75755">
        <ele>318</ele>
        <time>2016-08-15T06:27:33.000Z</time>
      </trkpt>
      <trkpt lat="47.49296" lon="6.7576">
        <ele>318</ele>
        <time>2016-08-15T06:27:34.000Z</time>
      </trkpt>
      <trkpt lat="47.49294" lon="6.75767">
        <ele>318</ele>
        <time>2016-08-15T06:27:35.000Z</time>
      </trkpt>
      <trkpt lat="47.4929" lon="6.75773">
        <ele>318</ele>
        <time>2016-08-15T06:27:36.000Z</time>
      </trkpt>
      <trkpt lat="47.49286" lon="6.7578">
        <ele>318</ele>
        <time>2016-08-15T06:27:37.000Z</time>
      </trkpt>
      <trkpt lat="47.49283" lon="6.75788">
        <ele>318</ele>
        <time>2016-08-15T06:27:38.000Z</time>
      </trkpt>
      <trkpt lat="47.49278" lon="6.75796">
        <ele>318</ele>
        <time>2016-08-15T06:27:39.000Z</time>
      </trkpt>
      <trkpt lat="47.49273" lon="6.75804">
        <ele>317</ele>
        <time>2016-08-15T06:27:40.000Z</time>
      </trkpt>
      <trkpt lat="47.49266" lon="6.75812">
        <ele>317</ele>
        <time>2016-08-15T06:27:41.000Z</time>
      </trkpt>
      <trkpt lat="47.49261" lon="6.7582">
        <ele>316</ele>
        <time>2016-08-15T06:27:42.000Z</time>
      </trkpt>
      <trkpt lat="47.49257" lon="6.75827">
        <ele>315</ele>
        <time>2016-08-15T06:27:43.000Z</time>
      </trkpt>
      <trkpt lat="47.49252" lon="6.75834">
        <ele>314</ele>
        <time>2016-08-15T06:27:44.000Z</time>
      </trkpt>
      <trkpt lat="47.49247" lon="6.75843">
        <ele>315</ele>
        <time>2016-08-15T06:27:45.000Z</time>
      </trkpt>
      <trkpt lat="47.49242" lon="6.75853">
        <ele>317</ele>
        <time>2016-08-15T06:27:46.000Z</time>
      </trkpt>
      <trkpt lat="47.49238" lon="6.75861">
        <ele>317</ele>
        <time>2016-08-15T06:27:47.000Z</time>
      </trkpt>
      <trkpt lat="47.49233" lon="6.75869">
        <ele>318</ele>
        <time>2016-08-15T06:27:48.000Z</time>
      </trkpt>
      <trkpt lat="47.49227" lon="6.75875">
        <ele>318</ele>
        <time>2016-08-15T06:27:49.000Z</time>
      </trkpt>
      <trkpt lat="47.49221" lon="6.7588">
        <ele>319</ele>
        <time>2016-08-15T06:27:50.000Z</time>
      </trkpt>
      <trkpt lat="47.49216" lon="6.75887">
        <ele>319</ele>
        <time>2016-08-15T06:27:51.000Z</time>
      </trkpt>
      <trkpt lat="47.49213" lon="6.75892">
        <ele>319</ele>
        <time>2016-08-15T06:27:52.000Z</time>
      </trkpt>
      <trkpt lat="47.49209" lon="6.75899">
        <ele>319</ele>
        <time>2016-08-15T06:27:53.000Z</time>
      </trkpt>
      <trkpt lat="47.49208" lon="6.75904">
        <ele>320</ele>
        <time>2016-08-15T06:27:54.000Z</time>
      </trkpt>
      <trkpt lat="47.49207" lon="6.75914">
        <ele>320</ele>
        <time>2016-08-15T06:27:55.000Z</time>
      </trkpt>
      <trkpt lat="47.49206" lon="6.75919">
        <ele>320</ele>
        <time>2016-08-15T06:27:56.000Z</time>
      </trkpt>
      <trkpt lat="47.49204" lon="6.75924">
        <ele>320</ele>
        <time>2016-08-15T06:27:57.000Z</time>
      </trkpt>
      <trkpt lat="47.49199" lon="6.75927">
        <ele>320</ele>
        <time>2016-08-15T06:27:58.000Z</time>
      </trkpt>
      <trkpt lat="47.49194" lon="6.75935">
        <ele>321</ele>
        <time>2016-08-15T06:27:59.000Z</time>
      </trkpt>
      <trkpt lat="47.49193" lon="6.75947">
        <ele>321</ele>
        <time>2016-08-15T06:28:00.000Z</time>
      </trkpt>
      <trkpt lat="47.49191" lon="6.75959">
        <ele>320</ele>
        <time>2016-08-15T06:28:01.000Z</time>
      </trkpt>
      <trkpt lat="47.4919" lon="6.75972">
        <ele>320</ele>
        <time>2016-08-15T06:28:02.000Z</time>
      </trkpt>
      <trkpt lat="47.49186" lon="6.75981">
        <ele>320</ele>
        <time>2016-08-15T06:28:03.000Z</time>
      </trkpt>
      <trkpt lat="47.4918" lon="6.75989">
        <ele>320</ele>
        <time>2016-08-15T06:28:04.000Z</time>
      </trkpt>
      <trkpt lat="47.49173" lon="6.75996">
        <ele>319</ele>
        <time>2016-08-15T06:28:05.000Z</time>
      </trkpt>
      <trkpt lat="47.49168" lon="6.76003">
        <ele>319</ele>
        <time>2016-08-15T06:28:06.000Z</time>
      </trkpt>
      <trkpt lat="47.49162" lon="6.7601">
        <ele>321</ele>
        <time>2016-08-15T06:28:07.000Z</time>
      </trkpt>
      <trkpt lat="47.49158" lon="6.76016">
        <ele>322</ele>
        <time>2016-08-15T06:28:08.000Z</time>
      </trkpt>
      <trkpt lat="47.49158" lon="6.76024">
        <ele>322</ele>
        <time>2016-08-15T06:28:09.000Z</time>
      </trkpt>
      <trkpt lat="47.49153" lon="6.76034">
        <ele>323</ele>
        <time>2016-08-15T06:28:10.000Z</time>
      </trkpt>
      <trkpt lat="47.4915" lon="6.76041">
        <ele>323</ele>
        <time>2016-08-15T06:28:11.000Z</time>
      </trkpt>
      <trkpt lat="47.49146" lon="6.7605">
        <ele>323</ele>
        <time>2016-08-15T06:28:12.000Z</time>
      </trkpt>
      <trkpt lat="47.49143" lon="6.76058">
        <ele>323</ele>
        <time>2016-08-15T06:28:13.000Z</time>
      </trkpt>
      <trkpt lat="47.49136" lon="6.76067">
        <ele>323</ele>
        <time>2016-08-15T06:28:14.000Z</time>
      </trkpt>
      <trkpt lat="47.49131" lon="6.76073">
        <ele>323</ele>
        <time>2016-08-15T06:28:15.000Z</time>
      </trkpt>
      <trkpt lat="47.49128" lon="6.7608">
        <ele>324</ele>
        <time>2016-08-15T06:28:16.000Z</time>
      </trkpt>
      <trkpt lat="47.49123" lon="6.76087">
        <ele>323</ele>
        <time>2016-08-15T06:28:17.000Z</time>
      </trkpt>
      <trkpt lat="47.49116" lon="6.76093">
        <ele>323</ele>
        <time>2016-08-15T06:28:18.000Z</time>
      </trkpt>
      <trkpt lat="47.49113" lon="6.761">
        <ele>323</ele>
        <time>2016-08-15T06:28:19.000Z</time>
      </trkpt>
      <trkpt lat="47.49109" lon="6.76104">
        <ele>323</ele>
        <time>2016-08-15T06:28:20.000Z</time>
      </trkpt>
      <trkpt lat="47.49107" lon="6.76111">
        <ele>323</ele>
        <time>2016-08-15T06:28:21.000Z</time>
      </trkpt>
      <trkpt lat="47.49111" lon="6.76117">
        <ele>323</ele>
        <time>2016-08-15T06:28:22.000Z</time>
      </trkpt>
      <trkpt lat="47.49112" lon="6.76126">
        <ele>323</ele>
        <time>2016-08-15T06:28:23.000Z</time>
      </trkpt>
      <trkpt lat="47.49111" lon="6.76134">
        <ele>323</ele>
        <time>2016-08-15T06:28:24.000Z</time>
      </trkpt>
      <trkpt lat="47.49116" lon="6.76147">
        <ele>322</ele>
        <time>2016-08-15T06:28:25.000Z</time>
      </trkpt>
      <trkpt lat="47.49121" lon="6.76163">
        <ele>322</ele>
        <time>2016-08-15T06:28:26.000Z</time>
      </trkpt>
      <trkpt lat="47.49121" lon="6.7617">
        <ele>321</ele>
        <time>2016-08-15T06:28:27.000Z</time>
      </trkpt>
      <trkpt lat="47.49122" lon="6.76176">
        <ele>321</ele>
        <time>2016-08-15T06:28:28.000Z</time>
      </trkpt>
      <trkpt lat="47.49125" lon="6.7618">
        <ele>321</ele>
        <time>2016-08-15T06:28:29.000Z</time>
      </trkpt>
      <trkpt lat="47.49132" lon="6.76191">
        <ele>321</ele>
        <time>2016-08-15T06:28:30.000Z</time>
      </trkpt>
      <trkpt lat="47.49134" lon="6.76194">
        <ele>321</ele>
        <time>2016-08-15T06:28:31.000Z</time>
      </trkpt>
      <trkpt lat="47.49135" lon="6.76195">
        <ele>321</ele>
        <time>2016-08-15T06:28:32.000Z</time>
      </trkpt>
      <trkpt lat="47.4914" lon="6.76194">
        <ele>321</ele>
        <time>2016-08-15T06:28:37.000Z</time>
      </trkpt>
      <trkpt lat="47.49141" lon="6.76195">
        <ele>320</ele>
        <time>2016-08-15T06:28:38.000Z</time>
      </trkpt>
      <trkpt lat="47.49143" lon="6.76201">
        <ele>320</ele>
        <time>2016-08-15T06:31:01.000Z</time>
      </trkpt>
      <trkpt lat="47.49143" lon="6.76201">
        <ele>320</ele>
        <time>2016-08-15T06:31:02.000Z</time>
      </trkpt>
      <trkpt lat="47.49147" lon="6.76204">
        <ele>320</ele>
        <time>2016-08-15T06:31:41.000Z</time>
      </trkpt>
      <trkpt lat="47.49147" lon="6.76204">
        <ele>320</ele>
        <time>2016-08-15T06:31:42.000Z</time>
      </trkpt>
      <trkpt lat="47.49144" lon="6.76208">
        <ele>320</ele>
        <time>2016-08-15T06:33:28.000Z</time>
      </trkpt>
      <trkpt lat="47.49144" lon="6.76209">
        <ele>320</ele>
        <time>2016-08-15T06:33:29.000Z</time>
      </trkpt>
      <trkpt lat="47.49144" lon="6.76214">
        <ele>320</ele>
        <time>2016-08-15T06:33:31.000Z</time>
      </trkpt>
      <trkpt lat="47.49145" lon="6.76216">
        <ele>320</ele>
        <time>2016-08-15T06:33:32.000Z</time>
      </trkpt>
      <trkpt lat="47.49148" lon="6.76221">
        <ele>320</ele>
        <time>2016-08-15T06:33:34.000Z</time>
      </trkpt>
      <trkpt lat="47.4915" lon="6.76222">
        <ele>320</ele>
        <time>2016-08-15T06:33:35.000Z</time>
      </trkpt>
      <trkpt lat="47.49152" lon="6.76223">
        <ele>320</ele>
        <time>2016-08-15T06:33:36.000Z</time>
      </trkpt>
      <trkpt lat="47.49154" lon="6.76223">
        <ele>319</ele>
        <time>2016-08-15T06:33:37.000Z</time>
      </trkpt>
      <trkpt lat="47.49157" lon="6.76223">
        <ele>319</ele>
        <time>2016-08-15T06:33:38.000Z</time>
      </trkpt>
      <trkpt lat="47.4916" lon="6.76222">
        <ele>319</ele>
        <time>2016-08-15T06:33:39.000Z</time>
      </trkpt>
      <trkpt lat="47.49164" lon="6.76222">
        <ele>319</ele>
        <time>2016-08-15T06:33:40.000Z</time>
      </trkpt>
      <trkpt lat="47.49166" lon="6.76222">
        <ele>319</ele>
        <time>2016-08-15T06:33:41.000Z</time>
      </trkpt>
      <trkpt lat="47.49169" lon="6.76222">
        <ele>319</ele>
        <time>2016-08-15T06:33:42.000Z</time>
      </trkpt>
      <trkpt lat="47.49172" lon="6.76222">
        <ele>319</ele>
        <time>2016-08-15T06:33:43.000Z</time>
      </trkpt>
      <trkpt lat="47.49175" lon="6.76222">
        <ele>319</ele>
        <time>2016-08-15T06:33:44.000Z</time>
      </trkpt>
      <trkpt lat="47.49178" lon="6.76222">
        <ele>319</ele>
        <time>2016-08-15T06:33:45.000Z</time>
      </trkpt>
      <trkpt lat="47.49182" lon="6.76221">
        <ele>320</ele>
        <time>2016-08-15T06:33:46.000Z</time>
      </trkpt>
      <trkpt lat="47.49185" lon="6.76221">
        <ele>320</ele>
        <time>2016-08-15T06:33:47.000Z</time>
      </trkpt>
      <trkpt lat="47.49189" lon="6.76221">
        <ele>320</ele>
        <time>2016-08-15T06:33:48.000Z</time>
      </trkpt>
      <trkpt lat="47.49192" lon="6.76221">
        <ele>320</ele>
        <time>2016-08-15T06:33:49.000Z</time>
      </trkpt>
      <trkpt lat="47.49196" lon="6.76221">
        <ele>320</ele>
        <time>2016-08-15T06:33:50.000Z</time>
      </trkpt>
      <trkpt lat="47.49199" lon="6.76221">
        <ele>320</ele>
        <time>2016-08-15T06:33:51.000Z</time>
      </trkpt>
      <trkpt lat="47.49202" lon="6.76221">
        <ele>321</ele>
        <time>2016-08-15T06:33:52.000Z</time>
      </trkpt>
      <trkpt lat="47.49205" lon="6.7622">
        <ele>321</ele>
        <time>2016-08-15T06:33:52.999Z</time>
      </trkpt>
      <trkpt lat="47.49207" lon="6.7622">
        <ele>321</ele>
        <time>2016-08-15T06:33:54.000Z</time>
      </trkpt>
      <trkpt lat="47.49209" lon="6.76221">
        <ele>321</ele>
        <time>2016-08-15T06:33:55.000Z</time>
      </trkpt>
      <trkpt lat="47.49213" lon="6.76222">
        <ele>321</ele>
        <time>2016-08-15T06:33:57.000Z</time>
      </trkpt>
      <trkpt lat="47.49215" lon="6.76223">
        <ele>321</ele>
        <time>2016-08-15T06:33:58.000Z</time>
      </trkpt>
      <trkpt lat="47.49217" lon="6.76224">
        <ele>321</ele>
        <time>2016-08-15T06:33:59.001Z</time>
      </trkpt>
      <trkpt lat="47.49219" lon="6.76224">
        <ele>321</ele>
        <time>2016-08-15T06:34:00.000Z</time>
      </trkpt>
      <trkpt lat="47.49222" lon="6.76223">
        <ele>321</ele>
        <time>2016-08-15T06:34:01.000Z</time>
      </trkpt>
      <trkpt lat="47.49224" lon="6.7622">
        <ele>322</ele>
        <time>2016-08-15T06:34:02.000Z</time>
      </trkpt>
      <trkpt lat="47.49226" lon="6.76218">
        <ele>322</ele>
        <time>2016-08-15T06:34:03.000Z</time>
      </trkpt>
      <trkpt lat="47.49228" lon="6.7621">
        <ele>322</ele>
        <time>2016-08-15T06:34:04.000Z</time>
      </trkpt>
      <trkpt lat="47.4923" lon="6.76204">
        <ele>322</ele>
        <time>2016-08-15T06:34:05.000Z</time>
      </trkpt>
      <trkpt lat="47.49232" lon="6.76197">
        <ele>322</ele>
        <time>2016-08-15T06:34:06.000Z</time>
      </trkpt>
      <trkpt lat="47.49234" lon="6.76191">
        <ele>322</ele>
        <time>2016-08-15T06:34:07.000Z</time>
      </trkpt>
      <trkpt lat="47.49235" lon="6.76186">
        <ele>323</ele>
        <time>2016-08-15T06:34:08.000Z</time>
      </trkpt>
      <trkpt lat="47.49236" lon="6.76181">
        <ele>323</ele>
        <time>2016-08-15T06:34:09.000Z</time>
      </trkpt>
      <trkpt lat="47.49237" lon="6.76175">
        <ele>323</ele>
        <time>2016-08-15T06:34:10.000Z</time>
      </trkpt>
      <trkpt lat="47.49237" lon="6.7617">
        <ele>323</ele>
        <time>2016-08-15T06:34:11.000Z</time>
      </trkpt>
      <trkpt lat="47.49238" lon="6.76165">
        <ele>324</ele>
        <time>2016-08-15T06:34:12.000Z</time>
      </trkpt>
      <trkpt lat="47.49237" lon="6.76159">
        <ele>324</ele>
        <time>2016-08-15T06:34:13.000Z</time>
      </trkpt>
      <trkpt lat="47.49237" lon="6.76153">
        <ele>323</ele>
        <time>2016-08-15T06:34:14.000Z</time>
      </trkpt>
      <trkpt lat="47.49237" lon="6.76147">
        <ele>323</ele>
        <time>2016-08-15T06:34:15.000Z</time>
      </trkpt>
      <trkpt lat="47.49238" lon="6.76134">
        <ele>323</ele>
        <time>2016-08-15T06:34:16.000Z</time>
      </trkpt>
      <trkpt lat="47.49239" lon="6.76127">
        <ele>323</ele>
        <time>2016-08-15T06:34:17.000Z</time>
      </trkpt>
      <trkpt lat="47.4924" lon="6.7612">
        <ele>323</ele>
        <time>2016-08-15T06:34:18.000Z</time>
      </trkpt>
      <trkpt lat="47.49241" lon="6.76112">
        <ele>323</ele>
        <time>2016-08-15T06:34:19.000Z</time>
      </trkpt>
      <trkpt lat="47.49242" lon="6.76105">
        <ele>324</ele>
        <time>2016-08-15T06:34:20.000Z</time>
      </trkpt>
      <trkpt lat="47.49243" lon="6.76098">
        <ele>324</ele>
        <time>2016-08-15T06:34:21.000Z</time>
      </trkpt>
      <trkpt lat="47.49242" lon="6.76092">
        <ele>324</ele>
        <time>2016-08-15T06:34:22.000Z</time>
      </trkpt>
      <trkpt lat="47.49242" lon="6.76086">
        <ele>325</ele>
        <time>2016-08-15T06:34:23.000Z</time>
      </trkpt>
      <trkpt lat="47.49244" lon="6.76078">
        <ele>325</ele>
        <time>2016-08-15T06:34:24.000Z</time>
      </trkpt>
      <trkpt lat="47.49245" lon="6.76072">
        <ele>324</ele>
        <time>2016-08-15T06:34:25.000Z</time>
      </trkpt>
      <trkpt lat="47.49245" lon="6.76068">
        <ele>324</ele>
        <time>2016-08-15T06:34:26.000Z</time>
      </trkpt>
      <trkpt lat="47.49247" lon="6.76058">
        <ele>323</ele>
        <time>2016-08-15T06:34:27.000Z</time>
      </trkpt>
      <trkpt lat="47.4925" lon="6.76052">
        <ele>323</ele>
        <time>2016-08-15T06:34:28.000Z</time>
      </trkpt>
      <trkpt lat="47.49251" lon="6.76045">
        <ele>329</ele>
        <time>2016-08-15T06:34:29.000Z</time>
      </trkpt>
      <trkpt lat="47.49253" lon="6.76039">
        <ele>329</ele>
        <time>2016-08-15T06:34:30.000Z</time>
      </trkpt>
      <trkpt lat="47.49254" lon="6.76033">
        <ele>329</ele>
        <time>2016-08-15T06:34:31.000Z</time>
      </trkpt>
      <trkpt lat="47.49256" lon="6.76027">
        <ele>328</ele>
        <time>2016-08-15T06:34:32.000Z</time>
      </trkpt>
      <trkpt lat="47.49258" lon="6.7602">
        <ele>328</ele>
        <time>2016-08-15T06:34:33.000Z</time>
      </trkpt>
      <trkpt lat="47.49259" lon="6.76014">
        <ele>327</ele>
        <time>2016-08-15T06:34:34.000Z</time>
      </trkpt>
      <trkpt lat="47.49261" lon="6.76007">
        <ele>327</ele>
        <time>2016-08-15T06:34:35.000Z</time>
      </trkpt>
      <trkpt lat="47.49263" lon="6.76002">
        <ele>327</ele>
        <time>2016-08-15T06:34:36.000Z</time>
      </trkpt>
      <trkpt lat="47.49265" lon="6.75996">
        <ele>325</ele>
        <time>2016-08-15T06:34:37.000Z</time>
      </trkpt>
      <trkpt lat="47.49266" lon="6.75991">
        <ele>325</ele>
        <time>2016-08-15T06:34:38.000Z</time>
      </trkpt>
      <trkpt lat="47.49268" lon="6.75986">
        <ele>326</ele>
        <time>2016-08-15T06:34:39.000Z</time>
      </trkpt>
      <trkpt lat="47.4927" lon="6.75981">
        <ele>326</ele>
        <time>2016-08-15T06:34:40.000Z</time>
      </trkpt>
      <trkpt lat="47.49272" lon="6.75975">
        <ele>326</ele>
        <time>2016-08-15T06:34:41.000Z</time>
      </trkpt>
      <trkpt lat="47.49277" lon="6.75968">
        <ele>326</ele>
        <time>2016-08-15T06:34:42.000Z</time>
      </trkpt>
      <trkpt lat="47.4928" lon="6.75962">
        <ele>326</ele>
        <time>2016-08-15T06:34:43.000Z</time>
      </trkpt>
      <trkpt lat="47.49283" lon="6.75958">
        <ele>326</ele>
        <time>2016-08-15T06:34:44.000Z</time>
      </trkpt>
      <trkpt lat="47.49286" lon="6.75954">
        <ele>326</ele>
        <time>2016-08-15T06:34:45.000Z</time>
      </trkpt>
      <trkpt lat="47.49289" lon="6.75949">
        <ele>327</ele>
        <time>2016-08-15T06:34:46.000Z</time>
      </trkpt>
      <trkpt lat="47.49291" lon="6.75945">
        <ele>327</ele>
        <time>2016-08-15T06:34:47.000Z</time>
      </trkpt>
      <trkpt lat="47.49294" lon="6.7594">
        <ele>327</ele>
        <time>2016-08-15T06:34:48.000Z</time>
      </trkpt>
      <trkpt lat="47.49297" lon="6.75935">
        <ele>327</ele>
        <time>2016-08-15T06:34:49.000Z</time>
      </trkpt>
      <trkpt lat="47.49299" lon="6.7593">
        <ele>327</ele>
        <time>2016-08-15T06:34:50.000Z</time>
      </trkpt>
      <trkpt lat="47.49302" lon="6.75926">
        <ele>327</ele>
        <time>2016-08-15T06:34:51.000Z</time>
      </trkpt>
      <trkpt lat="47.49304" lon="6.75922">
        <ele>327</ele>
        <time>2016-08-15T06:34:52.000Z</time>
      </trkpt>
      <trkpt lat="47.49306" lon="6.75919">
        <ele>328</ele>
        <time>2016-08-15T06:34:53.000Z</time>
      </trkpt>
      <trkpt lat="47.49308" lon="6.75915">
        <ele>324</ele>
        <time>2016-08-15T06:34:54.000Z</time>
      </trkpt>
      <trkpt lat="47.49311" lon="6.75912">
        <ele>325</ele>
        <time>2016-08-15T06:34:55.000Z</time>
      </trkpt>
      <trkpt lat="47.49314" lon="6.75908">
        <ele>325</ele>
        <time>2016-08-15T06:34:56.000Z</time>
      </trkpt>
      <trkpt lat="47.49317" lon="6.75905">
        <ele>325</ele>
        <time>2016-08-15T06:34:57.000Z</time>
      </trkpt>
      <trkpt lat="47.4932" lon="6.75901">
        <ele>325</ele>
        <time>2016-08-15T06:34:58.000Z</time>
      </trkpt>
      <trkpt lat="47.49323" lon="6.75898">
        <ele>325</ele>
        <time>2016-08-15T06:34:59.000Z</time>
      </trkpt>
      <trkpt lat="47.49326" lon="6.75895">
        <ele>325</ele>
        <time>2016-08-15T06:35:00.000Z</time>
      </trkpt>
      <trkpt lat="47.4933" lon="6.75891">
        <ele>324</ele>
        <time>2016-08-15T06:35:01.000Z</time>
      </trkpt>
      <trkpt lat="47.49333" lon="6.75888">
        <ele>324</ele>
        <time>2016-08-15T06:35:02.000Z</time>
      </trkpt>
      <trkpt lat="47.49336" lon="6.75884">
        <ele>331</ele>
        <time>2016-08-15T06:35:03.000Z</time>
      </trkpt>
      <trkpt lat="47.49339" lon="6.7588">
        <ele>331</ele>
        <time>2016-08-15T06:35:04.000Z</time>
      </trkpt>
      <trkpt lat="47.49341" lon="6.75876">
        <ele>331</ele>
        <time>2016-08-15T06:35:05.000Z</time>
      </trkpt>
      <trkpt lat="47.49344" lon="6.75872">
        <ele>330</ele>
        <time>2016-08-15T06:35:06.000Z</time>
      </trkpt>
      <trkpt lat="47.49347" lon="6.75868">
        <ele>330</ele>
        <time>2016-08-15T06:35:07.000Z</time>
      </trkpt>
      <trkpt lat="47.49349" lon="6.75864">
        <ele>330</ele>
        <time>2016-08-15T06:35:08.000Z</time>
      </trkpt>
      <trkpt lat="47.49352" lon="6.75861">
        <ele>330</ele>
        <time>2016-08-15T06:35:09.000Z</time>
      </trkpt>
      <trkpt lat="47.49355" lon="6.75858">
        <ele>330</ele>
        <time>2016-08-15T06:35:10.000Z</time>
      </trkpt>
      <trkpt lat="47.49358" lon="6.75856">
        <ele>330</ele>
        <time>2016-08-15T06:35:11.000Z</time>
      </trkpt>
      <trkpt lat="47.49361" lon="6.75853">
        <ele>330</ele>
        <time>2016-08-15T06:35:12.000Z</time>
      </trkpt>
      <trkpt lat="47.49364" lon="6.75851">
        <ele>330</ele>
        <time>2016-08-15T06:35:13.000Z</time>
      </trkpt>
      <trkpt lat="47.49366" lon="6.75849">
        <ele>330</ele>
        <time>2016-08-15T06:35:14.000Z</time>
      </trkpt>
      <trkpt lat="47.49369" lon="6.75847">
        <ele>330</ele>
        <time>2016-08-15T06:35:15.000Z</time>
      </trkpt>
      <trkpt lat="47.49372" lon="6.75846">
        <ele>331</ele>
        <time>2016-08-15T06:35:16.000Z</time>
      </trkpt>
      <trkpt lat="47.49376" lon="6.75846">
        <ele>331</ele>
        <time>2016-08-15T06:35:17.000Z</time>
      </trkpt>
      <trkpt lat="47.4938" lon="6.75845">
        <ele>331</ele>
        <time>2016-08-15T06:35:18.000Z</time>
      </trkpt>
      <trkpt lat="47.49383" lon="6.75845">
        <ele>332</ele>
        <time>2016-08-15T06:35:19.000Z</time>
      </trkpt>
      <trkpt lat="47.49387" lon="6.75845">
        <ele>332</ele>
        <time>2016-08-15T06:35:20.000Z</time>
      </trkpt>
      <trkpt lat="47.4939" lon="6.75844">
        <ele>332</ele>
        <time>2016-08-15T06:35:21.000Z</time>
      </trkpt>
      <trkpt lat="47.49393" lon="6.75842">
        <ele>332</ele>
        <time>2016-08-15T06:35:22.000Z</time>
      </trkpt>
      <trkpt lat="47.49397" lon="6.75841">
        <ele>332</ele>
        <time>2016-08-15T06:35:23.000Z</time>
      </trkpt>
      <trkpt lat="47.49401" lon="6.7584">
        <ele>332</ele>
        <time>2016-08-15T06:35:24.000Z</time>
      </trkpt>
      <trkpt lat="47.49406" lon="6.75839">
        <ele>332</ele>
        <time>2016-08-15T06:35:25.000Z</time>
      </trkpt>
      <trkpt lat="47.4941" lon="6.75839">
        <ele>332</ele>
        <time>2016-08-15T06:35:26.000Z</time>
      </trkpt>
      <trkpt lat="47.49415" lon="6.75838">
        <ele>332</ele>
        <time>2016-08-15T06:35:27.000Z</time>
      </trkpt>
      <trkpt lat="47.49419" lon="6.75836">
        <ele>333</ele>
        <time>2016-08-15T06:35:28.000Z</time>
      </trkpt>
      <trkpt lat="47.49424" lon="6.75835">
        <ele>334</ele>
        <time>2016-08-15T06:35:29.000Z</time>
      </trkpt>
      <trkpt lat="47.49428" lon="6.75833">
        <ele>331</ele>
        <time>2016-08-15T06:35:30.000Z</time>
      </trkpt>
      <trkpt lat="47.49432" lon="6.75832">
        <ele>331</ele>
        <time>2016-08-15T06:35:31.000Z</time>
      </trkpt>
      <trkpt lat="47.49436" lon="6.75831">
        <ele>331</ele>
        <time>2016-08-15T06:35:32.000Z</time>
      </trkpt>
      <trkpt lat="47.49441" lon="6.7583">
        <ele>330</ele>
        <time>2016-08-15T06:35:33.000Z</time>
      </trkpt>
      <trkpt lat="47.49445" lon="6.75828">
        <ele>330</ele>
        <time>2016-08-15T06:35:34.000Z</time>
      </trkpt>
      <trkpt lat="47.49449" lon="6.75827">
        <ele>330</ele>
        <time>2016-08-15T06:35:35.000Z</time>
      </trkpt>
      <trkpt lat="47.49453" lon="6.75826">
        <ele>330</ele>
        <time>2016-08-15T06:35:36.000Z</time>
      </trkpt>
      <trkpt lat="47.49457" lon="6.75824">
        <ele>331</ele>
        <time>2016-08-15T06:35:37.000Z</time>
      </trkpt>
      <trkpt lat="47.49461" lon="6.75823">
        <ele>331</ele>
        <time>2016-08-15T06:35:38.000Z</time>
      </trkpt>
      <trkpt lat="47.49465" lon="6.75821">
        <ele>331</ele>
        <time>2016-08-15T06:35:39.000Z</time>
      </trkpt>
      <trkpt lat="47.49469" lon="6.75819">
        <ele>331</ele>
        <time>2016-08-15T06:35:40.000Z</time>
      </trkpt>
      <trkpt lat="47.49473" lon="6.75817">
        <ele>331</ele>
        <time>2016-08-15T06:35:41.000Z</time>
      </trkpt>
      <trkpt lat="47.49476" lon="6.75815">
        <ele>331</ele>
        <time>2016-08-15T06:35:42.000Z</time>
      </trkpt>
      <trkpt lat="47.4948" lon="6.75814">
        <ele>331</ele>
        <time>2016-08-15T06:35:43.000Z</time>
      </trkpt>
      <trkpt lat="47.49484" lon="6.75812">
        <ele>332</ele>
        <time>2016-08-15T06:35:44.000Z</time>
      </trkpt>
      <trkpt lat="47.49487" lon="6.7581">
        <ele>332</ele>
        <time>2016-08-15T06:35:45.000Z</time>
      </trkpt>
      <trkpt lat="47.49491" lon="6.75808">
        <ele>331</ele>
        <time>2016-08-15T06:35:46.000Z</time>
      </trkpt>
      <trkpt lat="47.49494" lon="6.75805">
        <ele>331</ele>
        <time>2016-08-15T06:35:47.000Z</time>
      </trkpt>
      <trkpt lat="47.49497" lon="6.75803">
        <ele>331</ele>
        <time>2016-08-15T06:35:48.000Z</time>
      </trkpt>
      <trkpt lat="47.495" lon="6.758">
        <ele>335</ele>
        <time>2016-08-15T06:35:49.000Z</time>
      </trkpt>
      <trkpt lat="47.49504" lon="6.75796">
        <ele>335</ele>
        <time>2016-08-15T06:35:50.000Z</time>
      </trkpt>
      <trkpt lat="47.49507" lon="6.75794">
        <ele>335</ele>
        <time>2016-08-15T06:35:51.000Z</time>
      </trkpt>
      <trkpt lat="47.49511" lon="6.75792">
        <ele>335</ele>
        <time>2016-08-15T06:35:52.000Z</time>
      </trkpt>
      <trkpt lat="47.49515" lon="6.7579">
        <ele>334</ele>
        <time>2016-08-15T06:35:53.000Z</time>
      </trkpt>
      <trkpt lat="47.49519" lon="6.75787">
        <ele>334</ele>
        <time>2016-08-15T06:35:54.000Z</time>
      </trkpt>
      <trkpt lat="47.49523" lon="6.75785">
        <ele>334</ele>
        <time>2016-08-15T06:35:55.000Z</time>
      </trkpt>
      <trkpt lat="47.49527" lon="6.75782">
        <ele>334</ele>
        <time>2016-08-15T06:35:56.000Z</time>
      </trkpt>
      <trkpt lat="47.49531" lon="6.7578">
        <ele>334</ele>
        <time>2016-08-15T06:35:57.000Z</time>
      </trkpt>
      <trkpt lat="47.49535" lon="6.75779">
        <ele>335</ele>
        <time>2016-08-15T06:35:58.000Z</time>
      </trkpt>
      <trkpt lat="47.49538" lon="6.75778">
        <ele>335</ele>
        <time>2016-08-15T06:35:59.000Z</time>
      </trkpt>
      <trkpt lat="47.49542" lon="6.75776">
        <ele>335</ele>
        <time>2016-08-15T06:36:00.000Z</time>
      </trkpt>
      <trkpt lat="47.49545" lon="6.75775">
        <ele>335</ele>
        <time>2016-08-15T06:36:01.000Z</time>
      </trkpt>
      <trkpt lat="47.49548" lon="6.75774">
        <ele>335</ele>
        <time>2016-08-15T06:36:02.000Z</time>
      </trkpt>
      <trkpt lat="47.49551" lon="6.75775">
        <ele>335</ele>
        <time>2016-08-15T06:36:03.000Z</time>
      </trkpt>
      <trkpt lat="47.49554" lon="6.75777">
        <ele>336</ele>
        <time>2016-08-15T06:36:05.000Z</time>
      </trkpt>
      <trkpt lat="47.49555" lon="6.7578">
        <ele>336</ele>
        <time>2016-08-15T06:36:06.000Z</time>
      </trkpt>
      <trkpt lat="47.49557" lon="6.75785">
        <ele>337</ele>
        <time>2016-08-15T06:36:09.000Z</time>
      </trkpt>
      <trkpt lat="47.49558" lon="6.75786">
        <ele>337</ele>
        <time>2016-08-15T06:36:10.000Z</time>
      </trkpt>
      <trkpt lat="47.49561" lon="6.75791">
        <ele>337</ele>
        <time>2016-08-15T06:36:14.000Z</time>
      </trkpt>
      <trkpt lat="47.49562" lon="6.75791">
        <ele>337</ele>
        <time>2016-08-15T06:36:15.000Z</time>
      </trkpt>
      <trkpt lat="47.49565" lon="6.75792">
        <ele>338</ele>
        <time>2016-08-15T06:36:20.000Z</time>
      </trkpt>
      <trkpt lat="47.49567" lon="6.75792">
        <ele>338</ele>
        <time>2016-08-15T06:36:21.000Z</time>
      </trkpt>
      <trkpt lat="47.49571" lon="6.75792">
        <ele>338</ele>
        <time>2016-08-15T06:36:26.000Z</time>
      </trkpt>
      <trkpt lat="47.49572" lon="6.75792">
        <ele>338</ele>
        <time>2016-08-15T06:36:27.000Z</time>
      </trkpt>
      <trkpt lat="47.49575" lon="6.75793">
        <ele>338</ele>
        <time>2016-08-15T06:36:29.000Z</time>
      </trkpt>
      <trkpt lat="47.49576" lon="6.75793">
        <ele>338</ele>
        <time>2016-08-15T06:36:30.000Z</time>
      </trkpt>
      <trkpt lat="47.49581" lon="6.75794">
        <ele>338</ele>
        <time>2016-08-15T06:36:34.000Z</time>
      </trkpt>
      <trkpt lat="47.49582" lon="6.75794">
        <ele>339</ele>
        <time>2016-08-15T06:36:35.000Z</time>
      </trkpt>
      <trkpt lat="47.49586" lon="6.75795">
        <ele>345</ele>
        <time>2016-08-15T06:36:39.000Z</time>
      </trkpt>
      <trkpt lat="47.49587" lon="6.75794">
        <ele>345</ele>
        <time>2016-08-15T06:36:40.000Z</time>
      </trkpt>
      <trkpt lat="47.49591" lon="6.75793">
        <ele>345</ele>
        <time>2016-08-15T06:36:43.000Z</time>
      </trkpt>
      <trkpt lat="47.49592" lon="6.75793">
        <ele>345</ele>
        <time>2016-08-15T06:36:44.000Z</time>
      </trkpt>
      <trkpt lat="47.49596" lon="6.75792">
        <ele>345</ele>
        <time>2016-08-15T06:36:47.000Z</time>
      </trkpt>
      <trkpt lat="47.49597" lon="6.75792">
        <ele>345</ele>
        <time>2016-08-15T06:36:48.000Z</time>
      </trkpt>
      <trkpt lat="47.49602" lon="6.75792">
        <ele>345</ele>
        <time>2016-08-15T06:36:51.000Z</time>
      </trkpt>
      <trkpt lat="47.49603" lon="6.75792">
        <ele>345</ele>
        <time>2016-08-15T06:36:52.000Z</time>
      </trkpt>
      <trkpt lat="47.49607" lon="6.75793">
        <ele>345</ele>
        <time>2016-08-15T06:36:54.000Z</time>
      </trkpt>
      <trkpt lat="47.49608" lon="6.75793">
        <ele>345</ele>
        <time>2016-08-15T06:36:55.000Z</time>
      </trkpt>
      <trkpt lat="47.49612" lon="6.75793">
        <ele>346</ele>
        <time>2016-08-15T06:36:57.000Z</time>
      </trkpt>
      <trkpt lat="47.49613" lon="6.75793">
        <ele>346</ele>
        <time>2016-08-15T06:36:58.000Z</time>
      </trkpt>
      <trkpt lat="47.49616" lon="6.75792">
        <ele>346</ele>
        <time>2016-08-15T06:37:00.000Z</time>
      </trkpt>
      <trkpt lat="47.49618" lon="6.75792">
        <ele>346</ele>
        <time>2016-08-15T06:37:01.000Z</time>
      </trkpt>
      <trkpt lat="47.49621" lon="6.75791">
        <ele>346</ele>
        <time>2016-08-15T06:37:03.000Z</time>
      </trkpt>
      <trkpt lat="47.49623" lon="6.7579">
        <ele>346</ele>
        <time>2016-08-15T06:37:04.000Z</time>
      </trkpt>
      <trkpt lat="47.49625" lon="6.75789">
        <ele>346</ele>
        <time>2016-08-15T06:37:06.000Z</time>
      </trkpt>
      <trkpt lat="47.49627" lon="6.7579">
        <ele>346</ele>
        <time>2016-08-15T06:37:07.000Z</time>
      </trkpt>
      <trkpt lat="47.4963" lon="6.75791">
        <ele>346</ele>
        <time>2016-08-15T06:37:08.000Z</time>
      </trkpt>
      <trkpt lat="47.49633" lon="6.75792">
        <ele>347</ele>
        <time>2016-08-15T06:37:09.000Z</time>
      </trkpt>
      <trkpt lat="47.49635" lon="6.75793">
        <ele>347</ele>
        <time>2016-08-15T06:37:10.000Z</time>
      </trkpt>
      <trkpt lat="47.49638" lon="6.75793">
        <ele>347</ele>
        <time>2016-08-15T06:37:11.000Z</time>
      </trkpt>
      <trkpt lat="47.49642" lon="6.75794">
        <ele>347</ele>
        <time>2016-08-15T06:37:13.000Z</time>
      </trkpt>
      <trkpt lat="47.49645" lon="6.75795">
        <ele>348</ele>
        <time>2016-08-15T06:37:14.000Z</time>
      </trkpt>
      <trkpt lat="47.49647" lon="6.75794">
        <ele>348</ele>
        <time>2016-08-15T06:37:15.000Z</time>
      </trkpt>
      <trkpt lat="47.4965" lon="6.75794">
        <ele>348</ele>
        <time>2016-08-15T06:37:16.000Z</time>
      </trkpt>
      <trkpt lat="47.49654" lon="6.75794">
        <ele>348</ele>
        <time>2016-08-15T06:37:18.000Z</time>
      </trkpt>
      <trkpt lat="47.49656" lon="6.75794">
        <ele>348</ele>
        <time>2016-08-15T06:37:19.000Z</time>
      </trkpt>
      <trkpt lat="47.49658" lon="6.75793">
        <ele>348</ele>
        <time>2016-08-15T06:37:20.000Z</time>
      </trkpt>
      <trkpt lat="47.49661" lon="6.75791">
        <ele>348</ele>
        <time>2016-08-15T06:37:22.000Z</time>
      </trkpt>
      <trkpt lat="47.49665" lon="6.75791">
        <ele>348</ele>
        <time>2016-08-15T06:37:24.000Z</time>
      </trkpt>
      <trkpt lat="47.49666" lon="6.75791">
        <ele>348</ele>
        <time>2016-08-15T06:37:25.000Z</time>
      </trkpt>
      <trkpt lat="47.49669" lon="6.75791">
        <ele>353</ele>
        <time>2016-08-15T06:37:27.000Z</time>
      </trkpt>
      <trkpt lat="47.49671" lon="6.75791">
        <ele>353</ele>
        <time>2016-08-15T06:37:28.000Z</time>
      </trkpt>
      <trkpt lat="47.49674" lon="6.7579">
        <ele>353</ele>
        <time>2016-08-15T06:37:31.000Z</time>
      </trkpt>
      <trkpt lat="47.49676" lon="6.75789">
        <ele>353</ele>
        <time>2016-08-15T06:37:32.000Z</time>
      </trkpt>
      <trkpt lat="47.4968" lon="6.75788">
        <ele>353</ele>
        <time>2016-08-15T06:37:34.000Z</time>
      </trkpt>
      <trkpt lat="47.49682" lon="6.75787">
        <ele>353</ele>
        <time>2016-08-15T06:37:35.000Z</time>
      </trkpt>
      <trkpt lat="47.49685" lon="6.75786">
        <ele>353</ele>
        <time>2016-08-15T06:37:37.000Z</time>
      </trkpt>
      <trkpt lat="47.49687" lon="6.75785">
        <ele>353</ele>
        <time>2016-08-15T06:37:38.000Z</time>
      </trkpt>
      <trkpt lat="47.49689" lon="6.75785">
        <ele>353</ele>
        <time>2016-08-15T06:37:39.000Z</time>
      </trkpt>
      <trkpt lat="47.49692" lon="6.75783">
        <ele>353</ele>
        <time>2016-08-15T06:37:40.000Z</time>
      </trkpt>
      <trkpt lat="47.49694" lon="6.75782">
        <ele>353</ele>
        <time>2016-08-15T06:37:41.000Z</time>
      </trkpt>
      <trkpt lat="47.49697" lon="6.75781">
        <ele>353</ele>
        <time>2016-08-15T06:37:42.000Z</time>
      </trkpt>
      <trkpt lat="47.49699" lon="6.7578">
        <ele>353</ele>
        <time>2016-08-15T06:37:43.000Z</time>
      </trkpt>
      <trkpt lat="47.49701" lon="6.7578">
        <ele>353</ele>
        <time>2016-08-15T06:37:44.000Z</time>
      </trkpt>
      <trkpt lat="47.49705" lon="6.75779">
        <ele>354</ele>
        <time>2016-08-15T06:37:46.000Z</time>
      </trkpt>
      <trkpt lat="47.49707" lon="6.75779">
        <ele>354</ele>
        <time>2016-08-15T06:37:47.000Z</time>
      </trkpt>
      <trkpt lat="47.49711" lon="6.75778">
        <ele>354</ele>
        <time>2016-08-15T06:37:49.000Z</time>
      </trkpt>
      <trkpt lat="47.49713" lon="6.75778">
        <ele>354</ele>
        <time>2016-08-15T06:37:50.000Z</time>
      </trkpt>
      <trkpt lat="47.49717" lon="6.75778">
        <ele>354</ele>
        <time>2016-08-15T06:37:52.000Z</time>
      </trkpt>
      <trkpt lat="47.49719" lon="6.75777">
        <ele>354</ele>
        <time>2016-08-15T06:37:53.000Z</time>
      </trkpt>
      <trkpt lat="47.49723" lon="6.75776">
        <ele>354</ele>
        <time>2016-08-15T06:37:55.000Z</time>
      </trkpt>
      <trkpt lat="47.49725" lon="6.75775">
        <ele>354</ele>
        <time>2016-08-15T06:37:56.000Z</time>
      </trkpt>
      <trkpt lat="47.49729" lon="6.75773">
        <ele>354</ele>
        <time>2016-08-15T06:37:58.000Z</time>
      </trkpt>
      <trkpt lat="47.49731" lon="6.75772">
        <ele>354</ele>
        <time>2016-08-15T06:37:59.000Z</time>
      </trkpt>
      <trkpt lat="47.49734" lon="6.75772">
        <ele>354</ele>
        <time>2016-08-15T06:38:00.000Z</time>
      </trkpt>
      <trkpt lat="47.49737" lon="6.75771">
        <ele>354</ele>
        <time>2016-08-15T06:38:01.000Z</time>
      </trkpt>
      <trkpt lat="47.4974" lon="6.75769">
        <ele>353</ele>
        <time>2016-08-15T06:38:02.000Z</time>
      </trkpt>
      <trkpt lat="47.49743" lon="6.75768">
        <ele>353</ele>
        <time>2016-08-15T06:38:03.000Z</time>
      </trkpt>
      <trkpt lat="47.49746" lon="6.75766">
        <ele>353</ele>
        <time>2016-08-15T06:38:04.000Z</time>
      </trkpt>
      <trkpt lat="47.49748" lon="6.75765">
        <ele>353</ele>
        <time>2016-08-15T06:38:05.000Z</time>
      </trkpt>
      <trkpt lat="47.49752" lon="6.75764">
        <ele>355</ele>
        <time>2016-08-15T06:38:07.000Z</time>
      </trkpt>
      <trkpt lat="47.49754" lon="6.75764">
        <ele>356</ele>
        <time>2016-08-15T06:38:08.000Z</time>
      </trkpt>
      <trkpt lat="47.49758" lon="6.75764">
        <ele>356</ele>
        <time>2016-08-15T06:38:10.000Z</time>
      </trkpt>
      <trkpt lat="47.4976" lon="6.75763">
        <ele>356</ele>
        <time>2016-08-15T06:38:11.000Z</time>
      </trkpt>
      <trkpt lat="47.49763" lon="6.75762">
        <ele>356</ele>
        <time>2016-08-15T06:38:12.000Z</time>
      </trkpt>
      <trkpt lat="47.49765" lon="6.7576">
        <ele>356</ele>
        <time>2016-08-15T06:38:13.000Z</time>
      </trkpt>
      <trkpt lat="47.49769" lon="6.75758">
        <ele>357</ele>
        <time>2016-08-15T06:38:15.000Z</time>
      </trkpt>
      <trkpt lat="47.49771" lon="6.75757">
        <ele>357</ele>
        <time>2016-08-15T06:38:16.000Z</time>
      </trkpt>
      <trkpt lat="47.49774" lon="6.75757">
        <ele>357</ele>
        <time>2016-08-15T06:38:18.000Z</time>
      </trkpt>
      <trkpt lat="47.49776" lon="6.75757">
        <ele>357</ele>
        <time>2016-08-15T06:38:19.000Z</time>
      </trkpt>
      <trkpt lat="47.49778" lon="6.75756">
        <ele>358</ele>
        <time>2016-08-15T06:38:21.000Z</time>
      </trkpt>
      <trkpt lat="47.4978" lon="6.75756">
        <ele>358</ele>
        <time>2016-08-15T06:38:22.000Z</time>
      </trkpt>
      <trkpt lat="47.49784" lon="6.75755">
        <ele>358</ele>
        <time>2016-08-15T06:38:24.000Z</time>
      </trkpt>
      <trkpt lat="47.49785" lon="6.75755">
        <ele>358</ele>
        <time>2016-08-15T06:38:25.000Z</time>
      </trkpt>
      <trkpt lat="47.49789" lon="6.75754">
        <ele>359</ele>
        <time>2016-08-15T06:38:27.000Z</time>
      </trkpt>
      <trkpt lat="47.4979" lon="6.75753">
        <ele>359</ele>
        <time>2016-08-15T06:38:28.000Z</time>
      </trkpt>
      <trkpt lat="47.49794" lon="6.75751">
        <ele>359</ele>
        <time>2016-08-15T06:38:30.000Z</time>
      </trkpt>
      <trkpt lat="47.49795" lon="6.7575">
        <ele>359</ele>
        <time>2016-08-15T06:38:31.000Z</time>
      </trkpt>
      <trkpt lat="47.498" lon="6.75749">
        <ele>353</ele>
        <time>2016-08-15T06:38:33.000Z</time>
      </trkpt>
      <trkpt lat="47.49801" lon="6.75747">
        <ele>353</ele>
        <time>2016-08-15T06:38:34.000Z</time>
      </trkpt>
      <trkpt lat="47.49804" lon="6.75743">
        <ele>353</ele>
        <time>2016-08-15T06:38:36.000Z</time>
      </trkpt>
      <trkpt lat="47.49806" lon="6.75742">
        <ele>353</ele>
        <time>2016-08-15T06:38:37.000Z</time>
      </trkpt>
      <trkpt lat="47.49809" lon="6.7574">
        <ele>354</ele>
        <time>2016-08-15T06:38:39.000Z</time>
      </trkpt>
      <trkpt lat="47.4981" lon="6.7574">
        <ele>354</ele>
        <time>2016-08-15T06:38:40.000Z</time>
      </trkpt>
      <trkpt lat="47.49814" lon="6.75739">
        <ele>354</ele>
        <time>2016-08-15T06:38:44.000Z</time>
      </trkpt>
      <trkpt lat="47.49815" lon="6.75739">
        <ele>354</ele>
        <time>2016-08-15T06:38:45.000Z</time>
      </trkpt>
      <trkpt lat="47.49819" lon="6.75738">
        <ele>355</ele>
        <time>2016-08-15T06:38:48.000Z</time>
      </trkpt>
      <trkpt lat="47.4982" lon="6.75738">
        <ele>355</ele>
        <time>2016-08-15T06:38:49.000Z</time>
      </trkpt>
      <trkpt lat="47.49824" lon="6.75736">
        <ele>355</ele>
        <time>2016-08-15T06:38:52.000Z</time>
      </trkpt>
      <trkpt lat="47.49826" lon="6.75736">
        <ele>355</ele>
        <time>2016-08-15T06:38:53.000Z</time>
      </trkpt>
      <trkpt lat="47.49829" lon="6.75735">
        <ele>355</ele>
        <time>2016-08-15T06:38:55.000Z</time>
      </trkpt>
      <trkpt lat="47.4983" lon="6.75734">
        <ele>355</ele>
        <time>2016-08-15T06:38:56.000Z</time>
      </trkpt>
      <trkpt lat="47.49835" lon="6.75733">
        <ele>360</ele>
        <time>2016-08-15T06:38:58.000Z</time>
      </trkpt>
      <trkpt lat="47.49837" lon="6.75732">
        <ele>360</ele>
        <time>2016-08-15T06:38:59.000Z</time>
      </trkpt>
      <trkpt lat="47.49841" lon="6.75731">
        <ele>361</ele>
        <time>2016-08-15T06:39:01.000Z</time>
      </trkpt>
      <trkpt lat="47.49843" lon="6.75732">
        <ele>361</ele>
        <time>2016-08-15T06:39:02.000Z</time>
      </trkpt>
      <trkpt lat="47.49846" lon="6.75731">
        <ele>361</ele>
        <time>2016-08-15T06:39:04.000Z</time>
      </trkpt>
      <trkpt lat="47.49848" lon="6.75731">
        <ele>361</ele>
        <time>2016-08-15T06:39:05.000Z</time>
      </trkpt>
      <trkpt lat="47.49852" lon="6.75731">
        <ele>361</ele>
        <time>2016-08-15T06:39:07.000Z</time>
      </trkpt>
      <trkpt lat="47.49854" lon="6.75731">
        <ele>361</ele>
        <time>2016-08-15T06:39:08.000Z</time>
      </trkpt>
      <trkpt lat="47.49857" lon="6.75732">
        <ele>362</ele>
        <time>2016-08-15T06:39:10.000Z</time>
      </trkpt>
      <trkpt lat="47.4986" lon="6.75732">
        <ele>362</ele>
        <time>2016-08-15T06:39:11.000Z</time>
      </trkpt>
      <trkpt lat="47.49864" lon="6.75731">
        <ele>362</ele>
        <time>2016-08-15T06:39:13.000Z</time>
      </trkpt>
      <trkpt lat="47.49866" lon="6.7573">
        <ele>362</ele>
        <time>2016-08-15T06:39:14.000Z</time>
      </trkpt>
      <trkpt lat="47.49869" lon="6.7573">
        <ele>362</ele>
        <time>2016-08-15T06:39:15.000Z</time>
      </trkpt>
      <trkpt lat="47.49871" lon="6.75729">
        <ele>363</ele>
        <time>2016-08-15T06:39:16.000Z</time>
      </trkpt>
      <trkpt lat="47.49875" lon="6.75728">
        <ele>363</ele>
        <time>2016-08-15T06:39:18.000Z</time>
      </trkpt>
      <trkpt lat="47.49876" lon="6.75727">
        <ele>363</ele>
        <time>2016-08-15T06:39:19.000Z</time>
      </trkpt>
      <trkpt lat="47.49879" lon="6.75727">
        <ele>363</ele>
        <time>2016-08-15T06:39:21.000Z</time>
      </trkpt>
      <trkpt lat="47.49881" lon="6.75728">
        <ele>363</ele>
        <time>2016-08-15T06:39:22.000Z</time>
      </trkpt>
      <trkpt lat="47.49884" lon="6.75728">
        <ele>364</ele>
        <time>2016-08-15T06:39:24.000Z</time>
      </trkpt>
      <trkpt lat="47.49885" lon="6.75728">
        <ele>364</ele>
        <time>2016-08-15T06:39:25.000Z</time>
      </trkpt>
      <trkpt lat="47.49888" lon="6.75728">
        <ele>364</ele>
        <time>2016-08-15T06:39:27.000Z</time>
      </trkpt>
      <trkpt lat="47.4989" lon="6.75728">
        <ele>364</ele>
        <time>2016-08-15T06:39:28.000Z</time>
      </trkpt>
      <trkpt lat="47.49893" lon="6.75728">
        <ele>364</ele>
        <time>2016-08-15T06:39:31.000Z</time>
      </trkpt>
      <trkpt lat="47.49894" lon="6.75728">
        <ele>364</ele>
        <time>2016-08-15T06:39:32.000Z</time>
      </trkpt>
      <trkpt lat="47.49897" lon="6.75729">
        <ele>365</ele>
        <time>2016-08-15T06:39:34.000Z</time>
      </trkpt>
      <trkpt lat="47.49899" lon="6.75729">
        <ele>365</ele>
        <time>2016-08-15T06:39:35.000Z</time>
      </trkpt>
      <trkpt lat="47.49903" lon="6.7573">
        <ele>365</ele>
        <time>2016-08-15T06:39:37.000Z</time>
      </trkpt>
      <trkpt lat="47.49905" lon="6.75732">
        <ele>365</ele>
        <time>2016-08-15T06:39:38.000Z</time>
      </trkpt>
      <trkpt lat="47.49909" lon="6.75733">
        <ele>366</ele>
        <time>2016-08-15T06:39:41.000Z</time>
      </trkpt>
      <trkpt lat="47.4991" lon="6.75734">
        <ele>366</ele>
        <time>2016-08-15T06:39:42.000Z</time>
      </trkpt>
      <trkpt lat="47.49913" lon="6.75736">
        <ele>366</ele>
        <time>2016-08-15T06:39:44.000Z</time>
      </trkpt>
      <trkpt lat="47.49915" lon="6.75738">
        <ele>367</ele>
        <time>2016-08-15T06:39:45.000Z</time>
      </trkpt>
      <trkpt lat="47.49918" lon="6.7574">
        <ele>369</ele>
        <time>2016-08-15T06:39:47.000Z</time>
      </trkpt>
      <trkpt lat="47.49919" lon="6.75741">
        <ele>369</ele>
        <time>2016-08-15T06:39:48.000Z</time>
      </trkpt>
      <trkpt lat="47.49922" lon="6.75744">
        <ele>369</ele>
        <time>2016-08-15T06:39:50.000Z</time>
      </trkpt>
      <trkpt lat="47.49923" lon="6.75746">
        <ele>369</ele>
        <time>2016-08-15T06:39:51.000Z</time>
      </trkpt>
      <trkpt lat="47.49927" lon="6.75748">
        <ele>370</ele>
        <time>2016-08-15T06:39:53.000Z</time>
      </trkpt>
      <trkpt lat="47.49928" lon="6.7575">
        <ele>370</ele>
        <time>2016-08-15T06:39:54.000Z</time>
      </trkpt>
      <trkpt lat="47.49932" lon="6.75752">
        <ele>371</ele>
        <time>2016-08-15T06:39:56.000Z</time>
      </trkpt>
      <trkpt lat="47.49933" lon="6.75754">
        <ele>371</ele>
        <time>2016-08-15T06:39:57.000Z</time>
      </trkpt>
      <trkpt lat="47.49937" lon="6.75756">
        <ele>372</ele>
        <time>2016-08-15T06:39:59.000Z</time>
      </trkpt>
      <trkpt lat="47.49938" lon="6.75756">
        <ele>372</ele>
        <time>2016-08-15T06:40:00.000Z</time>
      </trkpt>
      <trkpt lat="47.49941" lon="6.75759">
        <ele>372</ele>
        <time>2016-08-15T06:40:02.000Z</time>
      </trkpt>
      <trkpt lat="47.49942" lon="6.75761">
        <ele>372</ele>
        <time>2016-08-15T06:40:03.000Z</time>
      </trkpt>
      <trkpt lat="47.49945" lon="6.75765">
        <ele>373</ele>
        <time>2016-08-15T06:40:05.000Z</time>
      </trkpt>
      <trkpt lat="47.49946" lon="6.75767">
        <ele>373</ele>
        <time>2016-08-15T06:40:06.000Z</time>
      </trkpt>
      <trkpt lat="47.49947" lon="6.7577">
        <ele>373</ele>
        <time>2016-08-15T06:40:07.000Z</time>
      </trkpt>
      <trkpt lat="47.49949" lon="6.75773">
        <ele>373</ele>
        <time>2016-08-15T06:40:08.000Z</time>
      </trkpt>
      <trkpt lat="47.4995" lon="6.75776">
        <ele>373</ele>
        <time>2016-08-15T06:40:09.000Z</time>
      </trkpt>
      <trkpt lat="47.49951" lon="6.75779">
        <ele>373</ele>
        <time>2016-08-15T06:40:10.000Z</time>
      </trkpt>
      <trkpt lat="47.49953" lon="6.75782">
        <ele>373</ele>
        <time>2016-08-15T06:40:11.000Z</time>
      </trkpt>
      <trkpt lat="47.49954" lon="6.75785">
        <ele>373</ele>
        <time>2016-08-15T06:40:12.000Z</time>
      </trkpt>
      <trkpt lat="47.49956" lon="6.75789">
        <ele>374</ele>
        <time>2016-08-15T06:40:13.000Z</time>
      </trkpt>
      <trkpt lat="47.49958" lon="6.75792">
        <ele>374</ele>
        <time>2016-08-15T06:40:14.000Z</time>
      </trkpt>
      <trkpt lat="47.4996" lon="6.75795">
        <ele>374</ele>
        <time>2016-08-15T06:40:15.000Z</time>
      </trkpt>
      <trkpt lat="47.49963" lon="6.75798">
        <ele>374</ele>
        <time>2016-08-15T06:40:16.000Z</time>
      </trkpt>
      <trkpt lat="47.49966" lon="6.75801">
        <ele>374</ele>
        <time>2016-08-15T06:40:17.000Z</time>
      </trkpt>
      <trkpt lat="47.49968" lon="6.75805">
        <ele>374</ele>
        <time>2016-08-15T06:40:18.000Z</time>
      </trkpt>
      <trkpt lat="47.49971" lon="6.75808">
        <ele>375</ele>
        <time>2016-08-15T06:40:19.000Z</time>
      </trkpt>
      <trkpt lat="47.49974" lon="6.75811">
        <ele>375</ele>
        <time>2016-08-15T06:40:20.000Z</time>
      </trkpt>
      <trkpt lat="47.49976" lon="6.75814">
        <ele>375</ele>
        <time>2016-08-15T06:40:21.000Z</time>
      </trkpt>
      <trkpt lat="47.49978" lon="6.75816">
        <ele>375</ele>
        <time>2016-08-15T06:40:22.000Z</time>
      </trkpt>
      <trkpt lat="47.4998" lon="6.75819">
        <ele>376</ele>
        <time>2016-08-15T06:40:23.000Z</time>
      </trkpt>
      <trkpt lat="47.49982" lon="6.75821">
        <ele>376</ele>
        <time>2016-08-15T06:40:24.000Z</time>
      </trkpt>
      <trkpt lat="47.49983" lon="6.75823">
        <ele>376</ele>
        <time>2016-08-15T06:40:25.000Z</time>
      </trkpt>
      <trkpt lat="47.49985" lon="6.75826">
        <ele>376</ele>
        <time>2016-08-15T06:40:26.000Z</time>
      </trkpt>
      <trkpt lat="47.49987" lon="6.75829">
        <ele>377</ele>
        <time>2016-08-15T06:40:27.000Z</time>
      </trkpt>
      <trkpt lat="47.49988" lon="6.75831">
        <ele>377</ele>
        <time>2016-08-15T06:40:28.000Z</time>
      </trkpt>
      <trkpt lat="47.4999" lon="6.75834">
        <ele>378</ele>
        <time>2016-08-15T06:40:29.000Z</time>
      </trkpt>
      <trkpt lat="47.49991" lon="6.75837">
        <ele>378</ele>
        <time>2016-08-15T06:40:30.000Z</time>
      </trkpt>
      <trkpt lat="47.49993" lon="6.75841">
        <ele>378</ele>
        <time>2016-08-15T06:40:32.000Z</time>
      </trkpt>
      <trkpt lat="47.49994" lon="6.75843">
        <ele>378</ele>
        <time>2016-08-15T06:40:33.000Z</time>
      </trkpt>
      <trkpt lat="47.49997" lon="6.75848">
        <ele>378</ele>
        <time>2016-08-15T06:40:35.000Z</time>
      </trkpt>
      <trkpt lat="47.49998" lon="6.7585">
        <ele>378</ele>
        <time>2016-08-15T06:40:36.000Z</time>
      </trkpt>
      <trkpt lat="47.5" lon="6.75853">
        <ele>378</ele>
        <time>2016-08-15T06:40:37.000Z</time>
      </trkpt>
      <trkpt lat="47.50001" lon="6.75856">
        <ele>377</ele>
        <time>2016-08-15T06:40:38.000Z</time>
      </trkpt>
      <trkpt lat="47.50003" lon="6.75858">
        <ele>377</ele>
        <time>2016-08-15T06:40:39.000Z</time>
      </trkpt>
      <trkpt lat="47.50005" lon="6.75861">
        <ele>377</ele>
        <time>2016-08-15T06:40:40.000Z</time>
      </trkpt>
      <trkpt lat="47.50008" lon="6.75865">
        <ele>377</ele>
        <time>2016-08-15T06:40:42.000Z</time>
      </trkpt>
      <trkpt lat="47.50009" lon="6.75868">
        <ele>377</ele>
        <time>2016-08-15T06:40:43.000Z</time>
      </trkpt>
      <trkpt lat="47.50011" lon="6.7587">
        <ele>377</ele>
        <time>2016-08-15T06:40:44.000Z</time>
      </trkpt>
      <trkpt lat="47.50012" lon="6.75873">
        <ele>377</ele>
        <time>2016-08-15T06:40:45.000Z</time>
      </trkpt>
      <trkpt lat="47.50013" lon="6.75876">
        <ele>377</ele>
        <time>2016-08-15T06:40:46.000Z</time>
      </trkpt>
      <trkpt lat="47.50014" lon="6.75879">
        <ele>377</ele>
        <time>2016-08-15T06:40:47.000Z</time>
      </trkpt>
      <trkpt lat="47.50017" lon="6.75884">
        <ele>377</ele>
        <time>2016-08-15T06:40:49.000Z</time>
      </trkpt>
      <trkpt lat="47.50018" lon="6.75886">
        <ele>377</ele>
        <time>2016-08-15T06:40:50.000Z</time>
      </trkpt>
      <trkpt lat="47.5002" lon="6.7589">
        <ele>377</ele>
        <time>2016-08-15T06:40:52.000Z</time>
      </trkpt>
      <trkpt lat="47.50021" lon="6.75892">
        <ele>377</ele>
        <time>2016-08-15T06:40:53.000Z</time>
      </trkpt>
      <trkpt lat="47.50023" lon="6.75897">
        <ele>377</ele>
        <time>2016-08-15T06:40:55.000Z</time>
      </trkpt>
      <trkpt lat="47.50024" lon="6.759">
        <ele>377</ele>
        <time>2016-08-15T06:40:56.000Z</time>
      </trkpt>
      <trkpt lat="47.50026" lon="6.75903">
        <ele>377</ele>
        <time>2016-08-15T06:40:57.000Z</time>
      </trkpt>
      <trkpt lat="47.50027" lon="6.75906">
        <ele>377</ele>
        <time>2016-08-15T06:40:58.000Z</time>
      </trkpt>
      <trkpt lat="47.50029" lon="6.75908">
        <ele>376</ele>
        <time>2016-08-15T06:40:59.000Z</time>
      </trkpt>
      <trkpt lat="47.5003" lon="6.75911">
        <ele>376</ele>
        <time>2016-08-15T06:41:00.000Z</time>
      </trkpt>
      <trkpt lat="47.50033" lon="6.75915">
        <ele>376</ele>
        <time>2016-08-15T06:41:02.000Z</time>
      </trkpt>
      <trkpt lat="47.50034" lon="6.75917">
        <ele>378</ele>
        <time>2016-08-15T06:41:03.000Z</time>
      </trkpt>
      <trkpt lat="47.50036" lon="6.7592">
        <ele>378</ele>
        <time>2016-08-15T06:41:04.000Z</time>
      </trkpt>
      <trkpt lat="47.50038" lon="6.75922">
        <ele>378</ele>
        <time>2016-08-15T06:41:05.000Z</time>
      </trkpt>
      <trkpt lat="47.50039" lon="6.75924">
        <ele>378</ele>
        <time>2016-08-15T06:41:06.000Z</time>
      </trkpt>
      <trkpt lat="47.50041" lon="6.75926">
        <ele>378</ele>
        <time>2016-08-15T06:41:07.000Z</time>
      </trkpt>
      <trkpt lat="47.50043" lon="6.75929">
        <ele>378</ele>
        <time>2016-08-15T06:41:08.000Z</time>
      </trkpt>
      <trkpt lat="47.50044" lon="6.75932">
        <ele>378</ele>
        <time>2016-08-15T06:41:09.000Z</time>
      </trkpt>
      <trkpt lat="47.50046" lon="6.75935">
        <ele>378</ele>
        <time>2016-08-15T06:41:10.000Z</time>
      </trkpt>
      <trkpt lat="47.50048" lon="6.7594">
        <ele>378</ele>
        <time>2016-08-15T06:41:11.000Z</time>
      </trkpt>
      <trkpt lat="47.5005" lon="6.75944">
        <ele>378</ele>
        <time>2016-08-15T06:41:12.000Z</time>
      </trkpt>
      <trkpt lat="47.50052" lon="6.75949">
        <ele>378</ele>
        <time>2016-08-15T06:41:13.000Z</time>
      </trkpt>
      <trkpt lat="47.50054" lon="6.75953">
        <ele>378</ele>
        <time>2016-08-15T06:41:14.000Z</time>
      </trkpt>
      <trkpt lat="47.50057" lon="6.75957">
        <ele>378</ele>
        <time>2016-08-15T06:41:15.000Z</time>
      </trkpt>
      <trkpt lat="47.50059" lon="6.75961">
        <ele>379</ele>
        <time>2016-08-15T06:41:16.000Z</time>
      </trkpt>
      <trkpt lat="47.50061" lon="6.75965">
        <ele>379</ele>
        <time>2016-08-15T06:41:17.000Z</time>
      </trkpt>
      <trkpt lat="47.50063" lon="6.75968">
        <ele>379</ele>
        <time>2016-08-15T06:41:18.000Z</time>
      </trkpt>
      <trkpt lat="47.50064" lon="6.75971">
        <ele>379</ele>
        <time>2016-08-15T06:41:19.000Z</time>
      </trkpt>
      <trkpt lat="47.50066" lon="6.75974">
        <ele>379</ele>
        <time>2016-08-15T06:41:20.000Z</time>
      </trkpt>
      <trkpt lat="47.50067" lon="6.75977">
        <ele>379</ele>
        <time>2016-08-15T06:41:21.000Z</time>
      </trkpt>
      <trkpt lat="47.50068" lon="6.75982">
        <ele>379</ele>
        <time>2016-08-15T06:41:23.000Z</time>
      </trkpt>
      <trkpt lat="47.50069" lon="6.75985">
        <ele>379</ele>
        <time>2016-08-15T06:41:24.000Z</time>
      </trkpt>
      <trkpt lat="47.5007" lon="6.7599">
        <ele>379</ele>
        <time>2016-08-15T06:41:26.000Z</time>
      </trkpt>
      <trkpt lat="47.50071" lon="6.75993">
        <ele>380</ele>
        <time>2016-08-15T06:41:27.000Z</time>
      </trkpt>
      <trkpt lat="47.50072" lon="6.75996">
        <ele>380</ele>
        <time>2016-08-15T06:41:28.000Z</time>
      </trkpt>
      <trkpt lat="47.50074" lon="6.76">
        <ele>382</ele>
        <time>2016-08-15T06:41:29.000Z</time>
      </trkpt>
      <trkpt lat="47.50075" lon="6.76004">
        <ele>382</ele>
        <time>2016-08-15T06:41:30.000Z</time>
      </trkpt>
      <trkpt lat="47.50076" lon="6.76009">
        <ele>382</ele>
        <time>2016-08-15T06:41:31.000Z</time>
      </trkpt>
      <trkpt lat="47.50078" lon="6.76014">
        <ele>383</ele>
        <time>2016-08-15T06:41:32.000Z</time>
      </trkpt>
      <trkpt lat="47.50079" lon="6.76018">
        <ele>384</ele>
        <time>2016-08-15T06:41:33.000Z</time>
      </trkpt>
      <trkpt lat="47.50081" lon="6.76023">
        <ele>384</ele>
        <time>2016-08-15T06:41:34.000Z</time>
      </trkpt>
      <trkpt lat="47.50081" lon="6.76027">
        <ele>385</ele>
        <time>2016-08-15T06:41:35.000Z</time>
      </trkpt>
      <trkpt lat="47.50082" lon="6.76031">
        <ele>385</ele>
        <time>2016-08-15T06:41:36.000Z</time>
      </trkpt>
      <trkpt lat="47.50083" lon="6.76034">
        <ele>385</ele>
        <time>2016-08-15T06:41:37.000Z</time>
      </trkpt>
      <trkpt lat="47.50085" lon="6.7604">
        <ele>381</ele>
        <time>2016-08-15T06:41:39.000Z</time>
      </trkpt>
      <trkpt lat="47.50085" lon="6.76042">
        <ele>381</ele>
        <time>2016-08-15T06:41:40.000Z</time>
      </trkpt>
      <trkpt lat="47.50087" lon="6.76049">
        <ele>381</ele>
        <time>2016-08-15T06:41:42.000Z</time>
      </trkpt>
      <trkpt lat="47.50088" lon="6.76052">
        <ele>382</ele>
        <time>2016-08-15T06:41:43.000Z</time>
      </trkpt>
      <trkpt lat="47.50088" lon="6.76055">
        <ele>382</ele>
        <time>2016-08-15T06:41:44.000Z</time>
      </trkpt>
      <trkpt lat="47.50089" lon="6.76058">
        <ele>382</ele>
        <time>2016-08-15T06:41:45.000Z</time>
      </trkpt>
      <trkpt lat="47.50089" lon="6.76062">
        <ele>383</ele>
        <time>2016-08-15T06:41:46.000Z</time>
      </trkpt>
      <trkpt lat="47.50089" lon="6.76066">
        <ele>383</ele>
        <time>2016-08-15T06:41:47.000Z</time>
      </trkpt>
      <trkpt lat="47.5009" lon="6.76069">
        <ele>384</ele>
        <time>2016-08-15T06:41:48.000Z</time>
      </trkpt>
      <trkpt lat="47.5009" lon="6.76073">
        <ele>385</ele>
        <time>2016-08-15T06:41:49.000Z</time>
      </trkpt>
      <trkpt lat="47.50091" lon="6.76077">
        <ele>385</ele>
        <time>2016-08-15T06:41:50.000Z</time>
      </trkpt>
      <trkpt lat="47.50092" lon="6.76081">
        <ele>386</ele>
        <time>2016-08-15T06:41:51.000Z</time>
      </trkpt>
      <trkpt lat="47.50092" lon="6.76084">
        <ele>387</ele>
        <time>2016-08-15T06:41:52.000Z</time>
      </trkpt>
      <trkpt lat="47.50092" lon="6.76088">
        <ele>387</ele>
        <time>2016-08-15T06:41:53.000Z</time>
      </trkpt>
      <trkpt lat="47.50093" lon="6.76092">
        <ele>387</ele>
        <time>2016-08-15T06:41:54.000Z</time>
      </trkpt>
      <trkpt lat="47.50093" lon="6.76097">
        <ele>387</ele>
        <time>2016-08-15T06:41:55.000Z</time>
      </trkpt>
      <trkpt lat="47.50093" lon="6.76101">
        <ele>387</ele>
        <time>2016-08-15T06:41:56.000Z</time>
      </trkpt>
      <trkpt lat="47.50093" lon="6.76105">
        <ele>386</ele>
        <time>2016-08-15T06:41:57.000Z</time>
      </trkpt>
      <trkpt lat="47.50093" lon="6.76109">
        <ele>386</ele>
        <time>2016-08-15T06:41:58.000Z</time>
      </trkpt>
      <trkpt lat="47.50094" lon="6.76113">
        <ele>386</ele>
        <time>2016-08-15T06:41:59.000Z</time>
      </trkpt>
      <trkpt lat="47.50094" lon="6.76118">
        <ele>386</ele>
        <time>2016-08-15T06:42:00.000Z</time>
      </trkpt>
      <trkpt lat="47.50095" lon="6.76122">
        <ele>387</ele>
        <time>2016-08-15T06:42:01.000Z</time>
      </trkpt>
      <trkpt lat="47.50096" lon="6.76127">
        <ele>387</ele>
        <time>2016-08-15T06:42:02.000Z</time>
      </trkpt>
      <trkpt lat="47.50097" lon="6.7613">
        <ele>387</ele>
        <time>2016-08-15T06:42:03.000Z</time>
      </trkpt>
      <trkpt lat="47.50097" lon="6.76133">
        <ele>387</ele>
        <time>2016-08-15T06:42:04.000Z</time>
      </trkpt>
      <trkpt lat="47.50098" lon="6.76136">
        <ele>387</ele>
        <time>2016-08-15T06:42:05.000Z</time>
      </trkpt>
      <trkpt lat="47.501" lon="6.76142">
        <ele>388</ele>
        <time>2016-08-15T06:42:07.000Z</time>
      </trkpt>
      <trkpt lat="47.50101" lon="6.76145">
        <ele>388</ele>
        <time>2016-08-15T06:42:08.000Z</time>
      </trkpt>
      <trkpt lat="47.50101" lon="6.76148">
        <ele>388</ele>
        <time>2016-08-15T06:42:09.000Z</time>
      </trkpt>
      <trkpt lat="47.50102" lon="6.76152">
        <ele>388</ele>
        <time>2016-08-15T06:42:10.000Z</time>
      </trkpt>
      <trkpt lat="47.50103" lon="6.76155">
        <ele>389</ele>
        <time>2016-08-15T06:42:11.000Z</time>
      </trkpt>
      <trkpt lat="47.50103" lon="6.76159">
        <ele>389</ele>
        <time>2016-08-15T06:42:12.000Z</time>
      </trkpt>
      <trkpt lat="47.50105" lon="6.76165">
        <ele>389</ele>
        <time>2016-08-15T06:42:14.000Z</time>
      </trkpt>
      <trkpt lat="47.50105" lon="6.76168">
        <ele>392</ele>
        <time>2016-08-15T06:42:15.000Z</time>
      </trkpt>
      <trkpt lat="47.50106" lon="6.76172">
        <ele>392</ele>
        <time>2016-08-15T06:42:16.000Z</time>
      </trkpt>
      <trkpt lat="47.50106" lon="6.76176">
        <ele>392</ele>
        <time>2016-08-15T06:42:17.000Z</time>
      </trkpt>
      <trkpt lat="47.50107" lon="6.76181">
        <ele>392</ele>
        <time>2016-08-15T06:42:18.000Z</time>
      </trkpt>
      <trkpt lat="47.50109" lon="6.76185">
        <ele>392</ele>
        <time>2016-08-15T06:42:19.000Z</time>
      </trkpt>
      <trkpt lat="47.5011" lon="6.7619">
        <ele>391</ele>
        <time>2016-08-15T06:42:20.000Z</time>
      </trkpt>
      <trkpt lat="47.50112" lon="6.76195">
        <ele>391</ele>
        <time>2016-08-15T06:42:21.000Z</time>
      </trkpt>
      <trkpt lat="47.50113" lon="6.762">
        <ele>391</ele>
        <time>2016-08-15T06:42:22.000Z</time>
      </trkpt>
      <trkpt lat="47.50114" lon="6.76205">
        <ele>392</ele>
        <time>2016-08-15T06:42:23.000Z</time>
      </trkpt>
      <trkpt lat="47.50114" lon="6.7621">
        <ele>392</ele>
        <time>2016-08-15T06:42:24.000Z</time>
      </trkpt>
      <trkpt lat="47.50115" lon="6.76216">
        <ele>392</ele>
        <time>2016-08-15T06:42:25.000Z</time>
      </trkpt>
      <trkpt lat="47.50116" lon="6.76221">
        <ele>392</ele>
        <time>2016-08-15T06:42:26.000Z</time>
      </trkpt>
      <trkpt lat="47.50117" lon="6.76226">
        <ele>392</ele>
        <time>2016-08-15T06:42:27.000Z</time>
      </trkpt>
      <trkpt lat="47.50117" lon="6.7623">
        <ele>393</ele>
        <time>2016-08-15T06:42:28.000Z</time>
      </trkpt>
      <trkpt lat="47.50118" lon="6.76235">
        <ele>393</ele>
        <time>2016-08-15T06:42:29.000Z</time>
      </trkpt>
      <trkpt lat="47.50119" lon="6.76239">
        <ele>393</ele>
        <time>2016-08-15T06:42:30.000Z</time>
      </trkpt>
      <trkpt lat="47.50119" lon="6.76243">
        <ele>393</ele>
        <time>2016-08-15T06:42:31.000Z</time>
      </trkpt>
      <trkpt lat="47.5012" lon="6.76247">
        <ele>393</ele>
        <time>2016-08-15T06:42:32.000Z</time>
      </trkpt>
      <trkpt lat="47.5012" lon="6.76252">
        <ele>397</ele>
        <time>2016-08-15T06:42:33.000Z</time>
      </trkpt>
      <trkpt lat="47.5012" lon="6.76257">
        <ele>397</ele>
        <time>2016-08-15T06:42:34.000Z</time>
      </trkpt>
      <trkpt lat="47.50121" lon="6.76262">
        <ele>397</ele>
        <time>2016-08-15T06:42:35.000Z</time>
      </trkpt>
      <trkpt lat="47.50121" lon="6.76266">
        <ele>397</ele>
        <time>2016-08-15T06:42:36.000Z</time>
      </trkpt>
      <trkpt lat="47.50122" lon="6.7627">
        <ele>397</ele>
        <time>2016-08-15T06:42:37.000Z</time>
      </trkpt>
      <trkpt lat="47.50123" lon="6.76274">
        <ele>397</ele>
        <time>2016-08-15T06:42:38.000Z</time>
      </trkpt>
      <trkpt lat="47.50124" lon="6.7628">
        <ele>397</ele>
        <time>2016-08-15T06:42:39.000Z</time>
      </trkpt>
      <trkpt lat="47.50126" lon="6.76285">
        <ele>397</ele>
        <time>2016-08-15T06:42:40.000Z</time>
      </trkpt>
      <trkpt lat="47.50127" lon="6.7629">
        <ele>397</ele>
        <time>2016-08-15T06:42:41.000Z</time>
      </trkpt>
      <trkpt lat="47.50128" lon="6.76295">
        <ele>397</ele>
        <time>2016-08-15T06:42:42.000Z</time>
      </trkpt>
      <trkpt lat="47.50129" lon="6.763">
        <ele>397</ele>
        <time>2016-08-15T06:42:43.000Z</time>
      </trkpt>
      <trkpt lat="47.5013" lon="6.76305">
        <ele>397</ele>
        <time>2016-08-15T06:42:44.000Z</time>
      </trkpt>
      <trkpt lat="47.50132" lon="6.76309">
        <ele>397</ele>
        <time>2016-08-15T06:42:45.000Z</time>
      </trkpt>
      <trkpt lat="47.50133" lon="6.76313">
        <ele>397</ele>
        <time>2016-08-15T06:42:46.000Z</time>
      </trkpt>
      <trkpt lat="47.50134" lon="6.76317">
        <ele>397</ele>
        <time>2016-08-15T06:42:47.000Z</time>
      </trkpt>
      <trkpt lat="47.50135" lon="6.76321">
        <ele>397</ele>
        <time>2016-08-15T06:42:48.000Z</time>
      </trkpt>
      <trkpt lat="47.50137" lon="6.76325">
        <ele>396</ele>
        <time>2016-08-15T06:42:49.000Z</time>
      </trkpt>
      <trkpt lat="47.50138" lon="6.7633">
        <ele>396</ele>
        <time>2016-08-15T06:42:50.000Z</time>
      </trkpt>
      <trkpt lat="47.5014" lon="6.76335">
        <ele>399</ele>
        <time>2016-08-15T06:42:51.000Z</time>
      </trkpt>
      <trkpt lat="47.50141" lon="6.7634">
        <ele>399</ele>
        <time>2016-08-15T06:42:52.000Z</time>
      </trkpt>
      <trkpt lat="47.50142" lon="6.76345">
        <ele>399</ele>
        <time>2016-08-15T06:42:53.000Z</time>
      </trkpt>
      <trkpt lat="47.50143" lon="6.76349">
        <ele>399</ele>
        <time>2016-08-15T06:42:54.000Z</time>
      </trkpt>
      <trkpt lat="47.50144" lon="6.76354">
        <ele>400</ele>
        <time>2016-08-15T06:42:55.000Z</time>
      </trkpt>
      <trkpt lat="47.50145" lon="6.76359">
        <ele>400</ele>
        <time>2016-08-15T06:42:56.000Z</time>
      </trkpt>
      <trkpt lat="47.50146" lon="6.76364">
        <ele>400</ele>
        <time>2016-08-15T06:42:57.000Z</time>
      </trkpt>
      <trkpt lat="47.50147" lon="6.7637">
        <ele>401</ele>
        <time>2016-08-15T06:42:58.000Z</time>
      </trkpt>
      <trkpt lat="47.50148" lon="6.76376">
        <ele>401</ele>
        <time>2016-08-15T06:42:59.000Z</time>
      </trkpt>
      <trkpt lat="47.5015" lon="6.76381">
        <ele>401</ele>
        <time>2016-08-15T06:43:00.000Z</time>
      </trkpt>
      <trkpt lat="47.50151" lon="6.76386">
        <ele>401</ele>
        <time>2016-08-15T06:43:01.000Z</time>
      </trkpt>
      <trkpt lat="47.50152" lon="6.7639">
        <ele>401</ele>
        <time>2016-08-15T06:43:02.000Z</time>
      </trkpt>
      <trkpt lat="47.50153" lon="6.76394">
        <ele>401</ele>
        <time>2016-08-15T06:43:03.000Z</time>
      </trkpt>
      <trkpt lat="47.50154" lon="6.76398">
        <ele>401</ele>
        <time>2016-08-15T06:43:04.000Z</time>
      </trkpt>
      <trkpt lat="47.50155" lon="6.76402">
        <ele>401</ele>
        <time>2016-08-15T06:43:05.000Z</time>
      </trkpt>
      <trkpt lat="47.50156" lon="6.76406">
        <ele>401</ele>
        <time>2016-08-15T06:43:06.000Z</time>
      </trkpt>
      <trkpt lat="47.50157" lon="6.76411">
        <ele>400</ele>
        <time>2016-08-15T06:43:07.000Z</time>
      </trkpt>
      <trkpt lat="47.50158" lon="6.76416">
        <ele>400</ele>
        <time>2016-08-15T06:43:08.000Z</time>
      </trkpt>
      <trkpt lat="47.50159" lon="6.76421">
        <ele>401</ele>
        <time>2016-08-15T06:43:09.000Z</time>
      </trkpt>
      <trkpt lat="47.50161" lon="6.76426">
        <ele>402</ele>
        <time>2016-08-15T06:43:10.000Z</time>
      </trkpt>
      <trkpt lat="47.50162" lon="6.76431">
        <ele>403</ele>
        <time>2016-08-15T06:43:11.000Z</time>
      </trkpt>
      <trkpt lat="47.50163" lon="6.76436">
        <ele>403</ele>
        <time>2016-08-15T06:43:12.000Z</time>
      </trkpt>
      <trkpt lat="47.50165" lon="6.7644">
        <ele>404</ele>
        <time>2016-08-15T06:43:13.000Z</time>
      </trkpt>
      <trkpt lat="47.50167" lon="6.76445">
        <ele>397</ele>
        <time>2016-08-15T06:43:14.000Z</time>
      </trkpt>
      <trkpt lat="47.5017" lon="6.76449">
        <ele>397</ele>
        <time>2016-08-15T06:43:15.000Z</time>
      </trkpt>
      <trkpt lat="47.50172" lon="6.76453">
        <ele>398</ele>
        <time>2016-08-15T06:43:16.000Z</time>
      </trkpt>
      <trkpt lat="47.50175" lon="6.76457">
        <ele>398</ele>
        <time>2016-08-15T06:43:17.000Z</time>
      </trkpt>
      <trkpt lat="47.50177" lon="6.76461">
        <ele>398</ele>
        <time>2016-08-15T06:43:18.000Z</time>
      </trkpt>
      <trkpt lat="47.50179" lon="6.76466">
        <ele>398</ele>
        <time>2016-08-15T06:43:19.000Z</time>
      </trkpt>
      <trkpt lat="47.5018" lon="6.7647">
        <ele>398</ele>
        <time>2016-08-15T06:43:20.000Z</time>
      </trkpt>
      <trkpt lat="47.50182" lon="6.76474">
        <ele>399</ele>
        <time>2016-08-15T06:43:21.000Z</time>
      </trkpt>
      <trkpt lat="47.50183" lon="6.76478">
        <ele>399</ele>
        <time>2016-08-15T06:43:22.000Z</time>
      </trkpt>
      <trkpt lat="47.50184" lon="6.76482">
        <ele>399</ele>
        <time>2016-08-15T06:43:23.000Z</time>
      </trkpt>
      <trkpt lat="47.50185" lon="6.76486">
        <ele>399</ele>
        <time>2016-08-15T06:43:24.000Z</time>
      </trkpt>
      <trkpt lat="47.50186" lon="6.76491">
        <ele>400</ele>
        <time>2016-08-15T06:43:25.000Z</time>
      </trkpt>
      <trkpt lat="47.50187" lon="6.76496">
        <ele>400</ele>
        <time>2016-08-15T06:43:26.000Z</time>
      </trkpt>
      <trkpt lat="47.50189" lon="6.76502">
        <ele>402</ele>
        <time>2016-08-15T06:43:27.000Z</time>
      </trkpt>
      <trkpt lat="47.5019" lon="6.76508">
        <ele>402</ele>
        <time>2016-08-15T06:43:28.000Z</time>
      </trkpt>
      <trkpt lat="47.50192" lon="6.76513">
        <ele>402</ele>
        <time>2016-08-15T06:43:29.000Z</time>
      </trkpt>
      <trkpt lat="47.50194" lon="6.76518">
        <ele>402</ele>
        <time>2016-08-15T06:43:30.000Z</time>
      </trkpt>
      <trkpt lat="47.50196" lon="6.76522">
        <ele>401</ele>
        <time>2016-08-15T06:43:31.000Z</time>
      </trkpt>
      <trkpt lat="47.50199" lon="6.76525">
        <ele>401</ele>
        <time>2016-08-15T06:43:32.000Z</time>
      </trkpt>
      <trkpt lat="47.502" lon="6.76529">
        <ele>401</ele>
        <time>2016-08-15T06:43:33.000Z</time>
      </trkpt>
      <trkpt lat="47.50202" lon="6.76532">
        <ele>401</ele>
        <time>2016-08-15T06:43:34.000Z</time>
      </trkpt>
      <trkpt lat="47.50203" lon="6.76536">
        <ele>401</ele>
        <time>2016-08-15T06:43:35.000Z</time>
      </trkpt>
      <trkpt lat="47.50204" lon="6.76543">
        <ele>401</ele>
        <time>2016-08-15T06:43:38.000Z</time>
      </trkpt>
      <trkpt lat="47.50203" lon="6.76543">
        <ele>401</ele>
        <time>2016-08-15T06:43:39.000Z</time>
      </trkpt>
      <trkpt lat="47.502" lon="6.76545">
        <ele>401</ele>
        <time>2016-08-15T06:43:41.000Z</time>
      </trkpt>
      <trkpt lat="47.50198" lon="6.76546">
        <ele>402</ele>
        <time>2016-08-15T06:43:42.000Z</time>
      </trkpt>
      <trkpt lat="47.50195" lon="6.76548">
        <ele>402</ele>
        <time>2016-08-15T06:43:43.000Z</time>
      </trkpt>
      <trkpt lat="47.50193" lon="6.76549">
        <ele>402</ele>
        <time>2016-08-15T06:43:44.000Z</time>
      </trkpt>
      <trkpt lat="47.5019" lon="6.76551">
        <ele>402</ele>
        <time>2016-08-15T06:43:46.000Z</time>
      </trkpt>
      <trkpt lat="47.50189" lon="6.76554">
        <ele>402</ele>
        <time>2016-08-15T06:43:47.000Z</time>
      </trkpt>
      <trkpt lat="47.50188" lon="6.7656">
        <ele>403</ele>
        <time>2016-08-15T06:43:49.000Z</time>
      </trkpt>
      <trkpt lat="47.50188" lon="6.76562">
        <ele>403</ele>
        <time>2016-08-15T06:43:50.000Z</time>
      </trkpt>
      <trkpt lat="47.50188" lon="6.76567">
        <ele>403</ele>
        <time>2016-08-15T06:43:54.000Z</time>
      </trkpt>
      <trkpt lat="47.50188" lon="6.76569">
        <ele>403</ele>
        <time>2016-08-15T06:43:55.000Z</time>
      </trkpt>
      <trkpt lat="47.50188" lon="6.76573">
        <ele>403</ele>
        <time>2016-08-15T06:43:57.000Z</time>
      </trkpt>
      <trkpt lat="47.50187" lon="6.76576">
        <ele>403</ele>
        <time>2016-08-15T06:43:58.000Z</time>
      </trkpt>
      <trkpt lat="47.50187" lon="6.76579">
        <ele>403</ele>
        <time>2016-08-15T06:43:59.000Z</time>
      </trkpt>
      <trkpt lat="47.50187" lon="6.76583">
        <ele>404</ele>
        <time>2016-08-15T06:44:00.000Z</time>
      </trkpt>
      <trkpt lat="47.50187" lon="6.76587">
        <ele>404</ele>
        <time>2016-08-15T06:44:01.000Z</time>
      </trkpt>
      <trkpt lat="47.50188" lon="6.76592">
        <ele>404</ele>
        <time>2016-08-15T06:44:02.000Z</time>
      </trkpt>
      <trkpt lat="47.50189" lon="6.76596">
        <ele>404</ele>
        <time>2016-08-15T06:44:03.000Z</time>
      </trkpt>
      <trkpt lat="47.5019" lon="6.76601">
        <ele>403</ele>
        <time>2016-08-15T06:44:04.000Z</time>
      </trkpt>
      <trkpt lat="47.50192" lon="6.76605">
        <ele>403</ele>
        <time>2016-08-15T06:44:05.000Z</time>
      </trkpt>
      <trkpt lat="47.50193" lon="6.7661">
        <ele>403</ele>
        <time>2016-08-15T06:44:06.000Z</time>
      </trkpt>
      <trkpt lat="47.50194" lon="6.76614">
        <ele>403</ele>
        <time>2016-08-15T06:44:07.000Z</time>
      </trkpt>
      <trkpt lat="47.50196" lon="6.76618">
        <ele>403</ele>
        <time>2016-08-15T06:44:08.000Z</time>
      </trkpt>
      <trkpt lat="47.50197" lon="6.76623">
        <ele>403</ele>
        <time>2016-08-15T06:44:09.000Z</time>
      </trkpt>
      <trkpt lat="47.50198" lon="6.76628">
        <ele>402</ele>
        <time>2016-08-15T06:44:10.000Z</time>
      </trkpt>
      <trkpt lat="47.50199" lon="6.76633">
        <ele>402</ele>
        <time>2016-08-15T06:44:11.000Z</time>
      </trkpt>
      <trkpt lat="47.502" lon="6.76638">
        <ele>402</ele>
        <time>2016-08-15T06:44:12.000Z</time>
      </trkpt>
      <trkpt lat="47.50201" lon="6.76642">
        <ele>402</ele>
        <time>2016-08-15T06:44:13.000Z</time>
      </trkpt>
      <trkpt lat="47.50202" lon="6.76647">
        <ele>402</ele>
        <time>2016-08-15T06:44:14.000Z</time>
      </trkpt>
      <trkpt lat="47.50204" lon="6.76651">
        <ele>402</ele>
        <time>2016-08-15T06:44:15.000Z</time>
      </trkpt>
      <trkpt lat="47.50205" lon="6.76656">
        <ele>402</ele>
        <time>2016-08-15T06:44:16.000Z</time>
      </trkpt>
      <trkpt lat="47.50207" lon="6.76661">
        <ele>402</ele>
        <time>2016-08-15T06:44:17.000Z</time>
      </trkpt>
      <trkpt lat="47.50208" lon="6.76665">
        <ele>402</ele>
        <time>2016-08-15T06:44:18.000Z</time>
      </trkpt>
      <trkpt lat="47.5021" lon="6.76669">
        <ele>402</ele>
        <time>2016-08-15T06:44:19.000Z</time>
      </trkpt>
      <trkpt lat="47.50212" lon="6.76673">
        <ele>402</ele>
        <time>2016-08-15T06:44:20.000Z</time>
      </trkpt>
      <trkpt lat="47.50216" lon="6.76682">
        <ele>402</ele>
        <time>2016-08-15T06:44:22.000Z</time>
      </trkpt>
      <trkpt lat="47.50217" lon="6.76686">
        <ele>402</ele>
        <time>2016-08-15T06:44:23.000Z</time>
      </trkpt>
      <trkpt lat="47.50218" lon="6.76691">
        <ele>402</ele>
        <time>2016-08-15T06:44:24.000Z</time>
      </trkpt>
      <trkpt lat="47.50219" lon="6.76696">
        <ele>402</ele>
        <time>2016-08-15T06:44:25.000Z</time>
      </trkpt>
      <trkpt lat="47.50221" lon="6.767">
        <ele>402</ele>
        <time>2016-08-15T06:44:26.000Z</time>
      </trkpt>
      <trkpt lat="47.50223" lon="6.76705">
        <ele>402</ele>
        <time>2016-08-15T06:44:27.000Z</time>
      </trkpt>
      <trkpt lat="47.50225" lon="6.76709">
        <ele>402</ele>
        <time>2016-08-15T06:44:28.000Z</time>
      </trkpt>
      <trkpt lat="47.50226" lon="6.76713">
        <ele>402</ele>
        <time>2016-08-15T06:44:29.000Z</time>
      </trkpt>
      <trkpt lat="47.50228" lon="6.76717">
        <ele>402</ele>
        <time>2016-08-15T06:44:30.000Z</time>
      </trkpt>
      <trkpt lat="47.5023" lon="6.76721">
        <ele>402</ele>
        <time>2016-08-15T06:44:31.000Z</time>
      </trkpt>
      <trkpt lat="47.50236" lon="6.76731">
        <ele>401</ele>
        <time>2016-08-15T06:44:32.000Z</time>
      </trkpt>
      <trkpt lat="47.50239" lon="6.76735">
        <ele>401</ele>
        <time>2016-08-15T06:44:33.000Z</time>
      </trkpt>
      <trkpt lat="47.50241" lon="6.76737">
        <ele>401</ele>
        <time>2016-08-15T06:44:34.000Z</time>
      </trkpt>
      <trkpt lat="47.50243" lon="6.76741">
        <ele>401</ele>
        <time>2016-08-15T06:44:35.000Z</time>
      </trkpt>
      <trkpt lat="47.50246" lon="6.76745">
        <ele>401</ele>
        <time>2016-08-15T06:44:36.000Z</time>
      </trkpt>
      <trkpt lat="47.5025" lon="6.76746">
        <ele>400</ele>
        <time>2016-08-15T06:44:37.000Z</time>
      </trkpt>
      <trkpt lat="47.50254" lon="6.76747">
        <ele>400</ele>
        <time>2016-08-15T06:44:38.000Z</time>
      </trkpt>
      <trkpt lat="47.50258" lon="6.76746">
        <ele>400</ele>
        <time>2016-08-15T06:44:39.000Z</time>
      </trkpt>
      <trkpt lat="47.50262" lon="6.76746">
        <ele>399</ele>
        <time>2016-08-15T06:44:40.000Z</time>
      </trkpt>
      <trkpt lat="47.50267" lon="6.76745">
        <ele>399</ele>
        <time>2016-08-15T06:44:41.000Z</time>
      </trkpt>
      <trkpt lat="47.50271" lon="6.76744">
        <ele>399</ele>
        <time>2016-08-15T06:44:42.000Z</time>
      </trkpt>
      <trkpt lat="47.50276" lon="6.76742">
        <ele>399</ele>
        <time>2016-08-15T06:44:43.000Z</time>
      </trkpt>
      <trkpt lat="47.50281" lon="6.76741">
        <ele>399</ele>
        <time>2016-08-15T06:44:44.000Z</time>
      </trkpt>
      <trkpt lat="47.50285" lon="6.7674">
        <ele>399</ele>
        <time>2016-08-15T06:44:45.000Z</time>
      </trkpt>
      <trkpt lat="47.5029" lon="6.76738">
        <ele>399</ele>
        <time>2016-08-15T06:44:46.000Z</time>
      </trkpt>
      <trkpt lat="47.50295" lon="6.76738">
        <ele>399</ele>
        <time>2016-08-15T06:44:47.000Z</time>
      </trkpt>
      <trkpt lat="47.503" lon="6.76737">
        <ele>399</ele>
        <time>2016-08-15T06:44:48.000Z</time>
      </trkpt>
      <trkpt lat="47.50304" lon="6.76736">
        <ele>398</ele>
        <time>2016-08-15T06:44:49.000Z</time>
      </trkpt>
      <trkpt lat="47.50309" lon="6.76735">
        <ele>398</ele>
        <time>2016-08-15T06:44:50.000Z</time>
      </trkpt>
      <trkpt lat="47.50314" lon="6.76733">
        <ele>398</ele>
        <time>2016-08-15T06:44:51.000Z</time>
      </trkpt>
      <trkpt lat="47.50318" lon="6.76731">
        <ele>398</ele>
        <time>2016-08-15T06:44:52.000Z</time>
      </trkpt>
      <trkpt lat="47.50323" lon="6.76729">
        <ele>398</ele>
        <time>2016-08-15T06:44:53.000Z</time>
      </trkpt>
      <trkpt lat="47.50327" lon="6.76727">
        <ele>398</ele>
        <time>2016-08-15T06:44:54.000Z</time>
      </trkpt>
      <trkpt lat="47.50332" lon="6.76726">
        <ele>398</ele>
        <time>2016-08-15T06:44:55.000Z</time>
      </trkpt>
      <trkpt lat="47.50336" lon="6.76725">
        <ele>398</ele>
        <time>2016-08-15T06:44:56.000Z</time>
      </trkpt>
      <trkpt lat="47.50341" lon="6.76723">
        <ele>398</ele>
        <time>2016-08-15T06:44:57.000Z</time>
      </trkpt>
      <trkpt lat="47.50345" lon="6.76721">
        <ele>398</ele>
        <time>2016-08-15T06:44:58.000Z</time>
      </trkpt>
      <trkpt lat="47.50349" lon="6.76719">
        <ele>398</ele>
        <time>2016-08-15T06:44:59.000Z</time>
      </trkpt>
      <trkpt lat="47.50354" lon="6.76717">
        <ele>398</ele>
        <time>2016-08-15T06:45:00.000Z</time>
      </trkpt>
      <trkpt lat="47.50358" lon="6.76716">
        <ele>398</ele>
        <time>2016-08-15T06:45:01.000Z</time>
      </trkpt>
      <trkpt lat="47.50363" lon="6.76714">
        <ele>398</ele>
        <time>2016-08-15T06:45:02.000Z</time>
      </trkpt>
      <trkpt lat="47.50367" lon="6.76713">
        <ele>398</ele>
        <time>2016-08-15T06:45:03.000Z</time>
      </trkpt>
      <trkpt lat="47.50372" lon="6.76709">
        <ele>398</ele>
        <time>2016-08-15T06:45:04.000Z</time>
      </trkpt>
      <trkpt lat="47.50376" lon="6.76707">
        <ele>397</ele>
        <time>2016-08-15T06:45:05.000Z</time>
      </trkpt>
      <trkpt lat="47.50381" lon="6.76705">
        <ele>397</ele>
        <time>2016-08-15T06:45:06.001Z</time>
      </trkpt>
      <trkpt lat="47.50386" lon="6.76702">
        <ele>397</ele>
        <time>2016-08-15T06:45:07.000Z</time>
      </trkpt>
      <trkpt lat="47.50389" lon="6.767">
        <ele>397</ele>
        <time>2016-08-15T06:45:08.000Z</time>
      </trkpt>
      <trkpt lat="47.50393" lon="6.76698">
        <ele>397</ele>
        <time>2016-08-15T06:45:09.000Z</time>
      </trkpt>
      <trkpt lat="47.50398" lon="6.76697">
        <ele>397</ele>
        <time>2016-08-15T06:45:10.000Z</time>
      </trkpt>
      <trkpt lat="47.50402" lon="6.76697">
        <ele>397</ele>
        <time>2016-08-15T06:45:11.000Z</time>
      </trkpt>
      <trkpt lat="47.50405" lon="6.76696">
        <ele>397</ele>
        <time>2016-08-15T06:45:12.000Z</time>
      </trkpt>
      <trkpt lat="47.50409" lon="6.76694">
        <ele>397</ele>
        <time>2016-08-15T06:45:13.001Z</time>
      </trkpt>
      <trkpt lat="47.50413" lon="6.76691">
        <ele>397</ele>
        <time>2016-08-15T06:45:14.000Z</time>
      </trkpt>
      <trkpt lat="47.50418" lon="6.76688">
        <ele>397</ele>
        <time>2016-08-15T06:45:15.000Z</time>
      </trkpt>
      <trkpt lat="47.50422" lon="6.76686">
        <ele>397</ele>
        <time>2016-08-15T06:45:16.000Z</time>
      </trkpt>
      <trkpt lat="47.50426" lon="6.76684">
        <ele>397</ele>
        <time>2016-08-15T06:45:17.000Z</time>
      </trkpt>
      <trkpt lat="47.50431" lon="6.76683">
        <ele>397</ele>
        <time>2016-08-15T06:45:18.000Z</time>
      </trkpt>
      <trkpt lat="47.50435" lon="6.76682">
        <ele>397</ele>
        <time>2016-08-15T06:45:19.000Z</time>
      </trkpt>
      <trkpt lat="47.50441" lon="6.76679">
        <ele>397</ele>
        <time>2016-08-15T06:45:20.000Z</time>
      </trkpt>
      <trkpt lat="47.50444" lon="6.76677">
        <ele>397</ele>
        <time>2016-08-15T06:45:21.000Z</time>
      </trkpt>
      <trkpt lat="47.50449" lon="6.76675">
        <ele>397</ele>
        <time>2016-08-15T06:45:22.000Z</time>
      </trkpt>
      <trkpt lat="47.50453" lon="6.76673">
        <ele>397</ele>
        <time>2016-08-15T06:45:23.000Z</time>
      </trkpt>
      <trkpt lat="47.50458" lon="6.76672">
        <ele>397</ele>
        <time>2016-08-15T06:45:24.000Z</time>
      </trkpt>
      <trkpt lat="47.50462" lon="6.76671">
        <ele>397</ele>
        <time>2016-08-15T06:45:25.000Z</time>
      </trkpt>
      <trkpt lat="47.50467" lon="6.76668">
        <ele>397</ele>
        <time>2016-08-15T06:45:26.000Z</time>
      </trkpt>
      <trkpt lat="47.50471" lon="6.76667">
        <ele>398</ele>
        <time>2016-08-15T06:45:27.000Z</time>
      </trkpt>
      <trkpt lat="47.50476" lon="6.76664">
        <ele>398</ele>
        <time>2016-08-15T06:45:27.999Z</time>
      </trkpt>
      <trkpt lat="47.50479" lon="6.76664">
        <ele>399</ele>
        <time>2016-08-15T06:45:29.000Z</time>
      </trkpt>
      <trkpt lat="47.50485" lon="6.76663">
        <ele>399</ele>
        <time>2016-08-15T06:45:30.000Z</time>
      </trkpt>
      <trkpt lat="47.50489" lon="6.76662">
        <ele>399</ele>
        <time>2016-08-15T06:45:31.000Z</time>
      </trkpt>
      <trkpt lat="47.50495" lon="6.76657">
        <ele>399</ele>
        <time>2016-08-15T06:45:32.000Z</time>
      </trkpt>
      <trkpt lat="47.50498" lon="6.76655">
        <ele>399</ele>
        <time>2016-08-15T06:45:33.000Z</time>
      </trkpt>
      <trkpt lat="47.50502" lon="6.76653">
        <ele>399</ele>
        <time>2016-08-15T06:45:34.001Z</time>
      </trkpt>
      <trkpt lat="47.50507" lon="6.76652">
        <ele>399</ele>
        <time>2016-08-15T06:45:35.000Z</time>
      </trkpt>
      <trkpt lat="47.50511" lon="6.76652">
        <ele>399</ele>
        <time>2016-08-15T06:45:36.000Z</time>
      </trkpt>
      <trkpt lat="47.50515" lon="6.76651">
        <ele>399</ele>
        <time>2016-08-15T06:45:36.999Z</time>
      </trkpt>
      <trkpt lat="47.50513" lon="6.76656">
        <ele>399</ele>
        <time>2016-08-15T06:45:39.000Z</time>
      </trkpt>
      <trkpt lat="47.50514" lon="6.7666">
        <ele>399</ele>
        <time>2016-08-15T06:45:39.999Z</time>
      </trkpt>
      <trkpt lat="47.50515" lon="6.76664">
        <ele>399</ele>
        <time>2016-08-15T06:45:41.000Z</time>
      </trkpt>
      <trkpt lat="47.50516" lon="6.76668">
        <ele>397</ele>
        <time>2016-08-15T06:45:42.001Z</time>
      </trkpt>
      <trkpt lat="47.50516" lon="6.76673">
        <ele>397</ele>
        <time>2016-08-15T06:45:43.000Z</time>
      </trkpt>
      <trkpt lat="47.50518" lon="6.76683">
        <ele>397</ele>
        <time>2016-08-15T06:45:44.000Z</time>
      </trkpt>
      <trkpt lat="47.50521" lon="6.76688">
        <ele>396</ele>
        <time>2016-08-15T06:45:45.000Z</time>
      </trkpt>
      <trkpt lat="47.50526" lon="6.76691">
        <ele>396</ele>
        <time>2016-08-15T06:45:46.000Z</time>
      </trkpt>
      <trkpt lat="47.50532" lon="6.76691">
        <ele>396</ele>
        <time>2016-08-15T06:45:47.000Z</time>
      </trkpt>
      <trkpt lat="47.50536" lon="6.7669">
        <ele>396</ele>
        <time>2016-08-15T06:45:48.000Z</time>
      </trkpt>
      <trkpt lat="47.50541" lon="6.7669">
        <ele>396</ele>
        <time>2016-08-15T06:45:49.000Z</time>
      </trkpt>
      <trkpt lat="47.50546" lon="6.7669">
        <ele>396</ele>
        <time>2016-08-15T06:45:50.001Z</time>
      </trkpt>
      <trkpt lat="47.50551" lon="6.7669">
        <ele>396</ele>
        <time>2016-08-15T06:45:51.000Z</time>
      </trkpt>
      <trkpt lat="47.50553" lon="6.76688">
        <ele>396</ele>
        <time>2016-08-15T06:45:52.000Z</time>
      </trkpt>
      <trkpt lat="47.50557" lon="6.76686">
        <ele>396</ele>
        <time>2016-08-15T06:45:53.000Z</time>
      </trkpt>
      <trkpt lat="47.50562" lon="6.76685">
        <ele>396</ele>
        <time>2016-08-15T06:45:54.000Z</time>
      </trkpt>
      <trkpt lat="47.50564" lon="6.76683">
        <ele>396</ele>
        <time>2016-08-15T06:45:55.000Z</time>
      </trkpt>
      <trkpt lat="47.50569" lon="6.76681">
        <ele>397</ele>
        <time>2016-08-15T06:45:56.000Z</time>
      </trkpt>
      <trkpt lat="47.50574" lon="6.76679">
        <ele>397</ele>
        <time>2016-08-15T06:45:57.000Z</time>
      </trkpt>
      <trkpt lat="47.50578" lon="6.76678">
        <ele>397</ele>
        <time>2016-08-15T06:45:58.000Z</time>
      </trkpt>
      <trkpt lat="47.50583" lon="6.76676">
        <ele>397</ele>
        <time>2016-08-15T06:45:59.000Z</time>
      </trkpt>
      <trkpt lat="47.50587" lon="6.76674">
        <ele>397</ele>
        <time>2016-08-15T06:46:00.000Z</time>
      </trkpt>
      <trkpt lat="47.50592" lon="6.76673">
        <ele>396</ele>
        <time>2016-08-15T06:46:01.000Z</time>
      </trkpt>
      <trkpt lat="47.50598" lon="6.76671">
        <ele>396</ele>
        <time>2016-08-15T06:46:02.000Z</time>
      </trkpt>
      <trkpt lat="47.50603" lon="6.76669">
        <ele>395</ele>
        <time>2016-08-15T06:46:03.000Z</time>
      </trkpt>
      <trkpt lat="47.50609" lon="6.76667">
        <ele>395</ele>
        <time>2016-08-15T06:46:04.000Z</time>
      </trkpt>
      <trkpt lat="47.50615" lon="6.76665">
        <ele>397</ele>
        <time>2016-08-15T06:46:05.000Z</time>
      </trkpt>
      <trkpt lat="47.50622" lon="6.76662">
        <ele>397</ele>
        <time>2016-08-15T06:46:06.000Z</time>
      </trkpt>
      <trkpt lat="47.50628" lon="6.7666">
        <ele>397</ele>
        <time>2016-08-15T06:46:07.000Z</time>
      </trkpt>
      <trkpt lat="47.50634" lon="6.76659">
        <ele>397</ele>
        <time>2016-08-15T06:46:08.000Z</time>
      </trkpt>
      <trkpt lat="47.5064" lon="6.76657">
        <ele>397</ele>
        <time>2016-08-15T06:46:09.000Z</time>
      </trkpt>
      <trkpt lat="47.50647" lon="6.76654">
        <ele>396</ele>
        <time>2016-08-15T06:46:10.000Z</time>
      </trkpt>
      <trkpt lat="47.50653" lon="6.76651">
        <ele>396</ele>
        <time>2016-08-15T06:46:11.000Z</time>
      </trkpt>
      <trkpt lat="47.50659" lon="6.76648">
        <ele>396</ele>
        <time>2016-08-15T06:46:12.000Z</time>
      </trkpt>
      <trkpt lat="47.50666" lon="6.76644">
        <ele>396</ele>
        <time>2016-08-15T06:46:13.000Z</time>
      </trkpt>
      <trkpt lat="47.50673" lon="6.7664">
        <ele>395</ele>
        <time>2016-08-15T06:46:14.000Z</time>
      </trkpt>
      <trkpt lat="47.50678" lon="6.76637">
        <ele>395</ele>
        <time>2016-08-15T06:46:15.000Z</time>
      </trkpt>
      <trkpt lat="47.50684" lon="6.76635">
        <ele>395</ele>
        <time>2016-08-15T06:46:16.000Z</time>
      </trkpt>
      <trkpt lat="47.50691" lon="6.76633">
        <ele>394</ele>
        <time>2016-08-15T06:46:17.000Z</time>
      </trkpt>
      <trkpt lat="47.50698" lon="6.76632">
        <ele>394</ele>
        <time>2016-08-15T06:46:18.000Z</time>
      </trkpt>
      <trkpt lat="47.50704" lon="6.76632">
        <ele>394</ele>
        <time>2016-08-15T06:46:19.000Z</time>
      </trkpt>
      <trkpt lat="47.50711" lon="6.76632">
        <ele>394</ele>
        <time>2016-08-15T06:46:20.000Z</time>
      </trkpt>
      <trkpt lat="47.50718" lon="6.76632">
        <ele>394</ele>
        <time>2016-08-15T06:46:21.000Z</time>
      </trkpt>
      <trkpt lat="47.50724" lon="6.76634">
        <ele>394</ele>
        <time>2016-08-15T06:46:22.000Z</time>
      </trkpt>
      <trkpt lat="47.50729" lon="6.76637">
        <ele>394</ele>
        <time>2016-08-15T06:46:23.000Z</time>
      </trkpt>
      <trkpt lat="47.50734" lon="6.76639">
        <ele>393</ele>
        <time>2016-08-15T06:46:24.000Z</time>
      </trkpt>
      <trkpt lat="47.50739" lon="6.76642">
        <ele>393</ele>
        <time>2016-08-15T06:46:25.000Z</time>
      </trkpt>
      <trkpt lat="47.50743" lon="6.76648">
        <ele>393</ele>
        <time>2016-08-15T06:46:26.000Z</time>
      </trkpt>
      <trkpt lat="47.50748" lon="6.76653">
        <ele>392</ele>
        <time>2016-08-15T06:46:27.000Z</time>
      </trkpt>
      <trkpt lat="47.50753" lon="6.76658">
        <ele>391</ele>
        <time>2016-08-15T06:46:28.000Z</time>
      </trkpt>
      <trkpt lat="47.50757" lon="6.76663">
        <ele>391</ele>
        <time>2016-08-15T06:46:29.000Z</time>
      </trkpt>
      <trkpt lat="47.50759" lon="6.76671">
        <ele>390</ele>
        <time>2016-08-15T06:46:30.000Z</time>
      </trkpt>
      <trkpt lat="47.50762" lon="6.76678">
        <ele>390</ele>
        <time>2016-08-15T06:46:31.000Z</time>
      </trkpt>
      <trkpt lat="47.50766" lon="6.76684">
        <ele>389</ele>
        <time>2016-08-15T06:46:32.000Z</time>
      </trkpt>
      <trkpt lat="47.5077" lon="6.76692">
        <ele>389</ele>
        <time>2016-08-15T06:46:33.000Z</time>
      </trkpt>
      <trkpt lat="47.50773" lon="6.76701">
        <ele>388</ele>
        <time>2016-08-15T06:46:34.000Z</time>
      </trkpt>
      <trkpt lat="47.50776" lon="6.76706">
        <ele>388</ele>
        <time>2016-08-15T06:46:35.000Z</time>
      </trkpt>
      <trkpt lat="47.50779" lon="6.76712">
        <ele>388</ele>
        <time>2016-08-15T06:46:36.000Z</time>
      </trkpt>
      <trkpt lat="47.50782" lon="6.76718">
        <ele>388</ele>
        <time>2016-08-15T06:46:37.000Z</time>
      </trkpt>
      <trkpt lat="47.50785" lon="6.76724">
        <ele>388</ele>
        <time>2016-08-15T06:46:38.000Z</time>
      </trkpt>
      <trkpt lat="47.50783" lon="6.76732">
        <ele>387</ele>
        <time>2016-08-15T06:46:39.000Z</time>
      </trkpt>
      <trkpt lat="47.50783" lon="6.76742">
        <ele>387</ele>
        <time>2016-08-15T06:46:40.000Z</time>
      </trkpt>
      <trkpt lat="47.50783" lon="6.76748">
        <ele>387</ele>
        <time>2016-08-15T06:46:41.000Z</time>
      </trkpt>
      <trkpt lat="47.50784" lon="6.76757">
        <ele>384</ele>
        <time>2016-08-15T06:46:42.000Z</time>
      </trkpt>
      <trkpt lat="47.50789" lon="6.76765">
        <ele>384</ele>
        <time>2016-08-15T06:46:43.000Z</time>
      </trkpt>
      <trkpt lat="47.50791" lon="6.76772">
        <ele>384</ele>
        <time>2016-08-15T06:46:44.000Z</time>
      </trkpt>
      <trkpt lat="47.50796" lon="6.76779">
        <ele>384</ele>
        <time>2016-08-15T06:46:45.000Z</time>
      </trkpt>
      <trkpt lat="47.50801" lon="6.76786">
        <ele>384</ele>
        <time>2016-08-15T06:46:46.000Z</time>
      </trkpt>
      <trkpt lat="47.50806" lon="6.76794">
        <ele>383</ele>
        <time>2016-08-15T06:46:47.000Z</time>
      </trkpt>
      <trkpt lat="47.50812" lon="6.76802">
        <ele>383</ele>
        <time>2016-08-15T06:46:48.000Z</time>
      </trkpt>
      <trkpt lat="47.50816" lon="6.76812">
        <ele>383</ele>
        <time>2016-08-15T06:46:49.000Z</time>
      </trkpt>
      <trkpt lat="47.5082" lon="6.76822">
        <ele>383</ele>
        <time>2016-08-15T06:46:50.000Z</time>
      </trkpt>
      <trkpt lat="47.50825" lon="6.76831">
        <ele>383</ele>
        <time>2016-08-15T06:46:51.000Z</time>
      </trkpt>
      <trkpt lat="47.5083" lon="6.7684">
        <ele>381</ele>
        <time>2016-08-15T06:46:52.000Z</time>
      </trkpt>
      <trkpt lat="47.50836" lon="6.76849">
        <ele>381</ele>
        <time>2016-08-15T06:46:53.000Z</time>
      </trkpt>
      <trkpt lat="47.5084" lon="6.76858">
        <ele>380</ele>
        <time>2016-08-15T06:46:54.000Z</time>
      </trkpt>
      <trkpt lat="47.50847" lon="6.76866">
        <ele>380</ele>
        <time>2016-08-15T06:46:55.000Z</time>
      </trkpt>
      <trkpt lat="47.50852" lon="6.76874">
        <ele>379</ele>
        <time>2016-08-15T06:46:56.000Z</time>
      </trkpt>
      <trkpt lat="47.50859" lon="6.76882">
        <ele>379</ele>
        <time>2016-08-15T06:46:57.000Z</time>
      </trkpt>
      <trkpt lat="47.50866" lon="6.76889">
        <ele>379</ele>
        <time>2016-08-15T06:46:58.000Z</time>
      </trkpt>
      <trkpt lat="47.50872" lon="6.76897">
        <ele>379</ele>
        <time>2016-08-15T06:46:59.000Z</time>
      </trkpt>
      <trkpt lat="47.50878" lon="6.76903">
        <ele>379</ele>
        <time>2016-08-15T06:47:00.000Z</time>
      </trkpt>
      <trkpt lat="47.50884" lon="6.7691">
        <ele>379</ele>
        <time>2016-08-15T06:47:01.000Z</time>
      </trkpt>
      <trkpt lat="47.50891" lon="6.76916">
        <ele>378</ele>
        <time>2016-08-15T06:47:02.000Z</time>
      </trkpt>
      <trkpt lat="47.50898" lon="6.76921">
        <ele>372</ele>
        <time>2016-08-15T06:47:03.000Z</time>
      </trkpt>
      <trkpt lat="47.50904" lon="6.76927">
        <ele>373</ele>
        <time>2016-08-15T06:47:04.000Z</time>
      </trkpt>
      <trkpt lat="47.5091" lon="6.76932">
        <ele>373</ele>
        <time>2016-08-15T06:47:05.000Z</time>
      </trkpt>
      <trkpt lat="47.50917" lon="6.76934">
        <ele>375</ele>
        <time>2016-08-15T06:47:06.000Z</time>
      </trkpt>
      <trkpt lat="47.50924" lon="6.76939">
        <ele>374</ele>
        <time>2016-08-15T06:47:07.000Z</time>
      </trkpt>
      <trkpt lat="47.5093" lon="6.76941">
        <ele>374</ele>
        <time>2016-08-15T06:47:08.000Z</time>
      </trkpt>
      <trkpt lat="47.50937" lon="6.76943">
        <ele>374</ele>
        <time>2016-08-15T06:47:09.000Z</time>
      </trkpt>
      <trkpt lat="47.50945" lon="6.76944">
        <ele>373</ele>
        <time>2016-08-15T06:47:10.000Z</time>
      </trkpt>
      <trkpt lat="47.50953" lon="6.76944">
        <ele>373</ele>
        <time>2016-08-15T06:47:11.000Z</time>
      </trkpt>
      <trkpt lat="47.50961" lon="6.76944">
        <ele>373</ele>
        <time>2016-08-15T06:47:12.000Z</time>
      </trkpt>
      <trkpt lat="47.50968" lon="6.76945">
        <ele>374</ele>
        <time>2016-08-15T06:47:13.000Z</time>
      </trkpt>
      <trkpt lat="47.50975" lon="6.76945">
        <ele>374</ele>
        <time>2016-08-15T06:47:14.000Z</time>
      </trkpt>
      <trkpt lat="47.50983" lon="6.76944">
        <ele>374</ele>
        <time>2016-08-15T06:47:15.000Z</time>
      </trkpt>
      <trkpt lat="47.5099" lon="6.76943">
        <ele>374</ele>
        <time>2016-08-15T06:47:16.000Z</time>
      </trkpt>
      <trkpt lat="47.50997" lon="6.76942">
        <ele>374</ele>
        <time>2016-08-15T06:47:17.000Z</time>
      </trkpt>
      <trkpt lat="47.51005" lon="6.76942">
        <ele>375</ele>
        <time>2016-08-15T06:47:18.000Z</time>
      </trkpt>
      <trkpt lat="47.51012" lon="6.76944">
        <ele>375</ele>
        <time>2016-08-15T06:47:19.000Z</time>
      </trkpt>
      <trkpt lat="47.51019" lon="6.76946">
        <ele>375</ele>
        <time>2016-08-15T06:47:20.000Z</time>
      </trkpt>
      <trkpt lat="47.51024" lon="6.76952">
        <ele>375</ele>
        <time>2016-08-15T06:47:21.000Z</time>
      </trkpt>
      <trkpt lat="47.5103" lon="6.76957">
        <ele>375</ele>
        <time>2016-08-15T06:47:22.000Z</time>
      </trkpt>
      <trkpt lat="47.51036" lon="6.76962">
        <ele>375</ele>
        <time>2016-08-15T06:47:23.000Z</time>
      </trkpt>
      <trkpt lat="47.51042" lon="6.76965">
        <ele>375</ele>
        <time>2016-08-15T06:47:24.000Z</time>
      </trkpt>
      <trkpt lat="47.51048" lon="6.76971">
        <ele>375</ele>
        <time>2016-08-15T06:47:25.000Z</time>
      </trkpt>
      <trkpt lat="47.51053" lon="6.76976">
        <ele>375</ele>
        <time>2016-08-15T06:47:26.000Z</time>
      </trkpt>
      <trkpt lat="47.51058" lon="6.76982">
        <ele>375</ele>
        <time>2016-08-15T06:47:27.000Z</time>
      </trkpt>
      <trkpt lat="47.51063" lon="6.7699">
        <ele>375</ele>
        <time>2016-08-15T06:47:28.000Z</time>
      </trkpt>
      <trkpt lat="47.51069" lon="6.76994">
        <ele>375</ele>
        <time>2016-08-15T06:47:29.000Z</time>
      </trkpt>
      <trkpt lat="47.51074" lon="6.77">
        <ele>375</ele>
        <time>2016-08-15T06:47:30.000Z</time>
      </trkpt>
      <trkpt lat="47.5108" lon="6.77005">
        <ele>374</ele>
        <time>2016-08-15T06:47:31.000Z</time>
      </trkpt>
      <trkpt lat="47.51085" lon="6.77011">
        <ele>375</ele>
        <time>2016-08-15T06:47:32.000Z</time>
      </trkpt>
      <trkpt lat="47.51091" lon="6.77017">
        <ele>375</ele>
        <time>2016-08-15T06:47:33.000Z</time>
      </trkpt>
      <trkpt lat="47.51096" lon="6.77024">
        <ele>375</ele>
        <time>2016-08-15T06:47:34.000Z</time>
      </trkpt>
      <trkpt lat="47.51101" lon="6.77028">
        <ele>375</ele>
        <time>2016-08-15T06:47:35.000Z</time>
      </trkpt>
      <trkpt lat="47.51105" lon="6.7703">
        <ele>375</ele>
        <time>2016-08-15T06:47:36.000Z</time>
      </trkpt>
      <trkpt lat="47.51111" lon="6.77032">
        <ele>375</ele>
        <time>2016-08-15T06:47:37.000Z</time>
      </trkpt>
      <trkpt lat="47.51117" lon="6.77036">
        <ele>375</ele>
        <time>2016-08-15T06:47:38.000Z</time>
      </trkpt>
      <trkpt lat="47.51122" lon="6.7704">
        <ele>375</ele>
        <time>2016-08-15T06:47:39.000Z</time>
      </trkpt>
      <trkpt lat="47.51129" lon="6.77044">
        <ele>375</ele>
        <time>2016-08-15T06:47:40.000Z</time>
      </trkpt>
      <trkpt lat="47.51135" lon="6.77049">
        <ele>375</ele>
        <time>2016-08-15T06:47:41.001Z</time>
      </trkpt>
      <trkpt lat="47.51141" lon="6.77056">
        <ele>376</ele>
        <time>2016-08-15T06:47:42.000Z</time>
      </trkpt>
      <trkpt lat="47.51147" lon="6.77062">
        <ele>376</ele>
        <time>2016-08-15T06:47:43.000Z</time>
      </trkpt>
      <trkpt lat="47.51152" lon="6.77067">
        <ele>376</ele>
        <time>2016-08-15T06:47:44.000Z</time>
      </trkpt>
      <trkpt lat="47.51157" lon="6.77072">
        <ele>377</ele>
        <time>2016-08-15T06:47:45.000Z</time>
      </trkpt>
      <trkpt lat="47.51162" lon="6.77078">
        <ele>377</ele>
        <time>2016-08-15T06:47:46.000Z</time>
      </trkpt>
      <trkpt lat="47.51166" lon="6.77084">
        <ele>378</ele>
        <time>2016-08-15T06:47:47.000Z</time>
      </trkpt>
      <trkpt lat="47.5117" lon="6.7709">
        <ele>378</ele>
        <time>2016-08-15T06:47:48.000Z</time>
      </trkpt>
      <trkpt lat="47.51173" lon="6.77098">
        <ele>378</ele>
        <time>2016-08-15T06:47:49.000Z</time>
      </trkpt>
      <trkpt lat="47.51175" lon="6.77102">
        <ele>378</ele>
        <time>2016-08-15T06:47:50.000Z</time>
      </trkpt>
      <trkpt lat="47.51178" lon="6.77109">
        <ele>378</ele>
        <time>2016-08-15T06:47:51.000Z</time>
      </trkpt>
      <trkpt lat="47.51181" lon="6.77114">
        <ele>378</ele>
        <time>2016-08-15T06:47:52.000Z</time>
      </trkpt>
      <trkpt lat="47.51185" lon="6.77121">
        <ele>378</ele>
        <time>2016-08-15T06:47:52.999Z</time>
      </trkpt>
      <trkpt lat="47.51188" lon="6.77125">
        <ele>378</ele>
        <time>2016-08-15T06:47:54.000Z</time>
      </trkpt>
      <trkpt lat="47.51192" lon="6.7713">
        <ele>378</ele>
        <time>2016-08-15T06:47:55.000Z</time>
      </trkpt>
      <trkpt lat="47.51194" lon="6.77136">
        <ele>378</ele>
        <time>2016-08-15T06:47:56.000Z</time>
      </trkpt>
      <trkpt lat="47.51198" lon="6.77141">
        <ele>378</ele>
        <time>2016-08-15T06:47:57.000Z</time>
      </trkpt>
      <trkpt lat="47.51202" lon="6.77146">
        <ele>378</ele>
        <time>2016-08-15T06:47:58.000Z</time>
      </trkpt>
      <trkpt lat="47.51204" lon="6.77151">
        <ele>378</ele>
        <time>2016-08-15T06:47:59.000Z</time>
      </trkpt>
      <trkpt lat="47.51206" lon="6.77157">
        <ele>378</ele>
        <time>2016-08-15T06:48:00.000Z</time>
      </trkpt>
      <trkpt lat="47.51209" lon="6.77161">
        <ele>378</ele>
        <time>2016-08-15T06:48:01.000Z</time>
      </trkpt>
      <trkpt lat="47.51212" lon="6.77168">
        <ele>376</ele>
        <time>2016-08-15T06:48:02.000Z</time>
      </trkpt>
      <trkpt lat="47.51216" lon="6.77173">
        <ele>376</ele>
        <time>2016-08-15T06:48:03.000Z</time>
      </trkpt>
      <trkpt lat="47.51219" lon="6.77179">
        <ele>376</ele>
        <time>2016-08-15T06:48:04.000Z</time>
      </trkpt>
      <trkpt lat="47.51221" lon="6.77184">
        <ele>376</ele>
        <time>2016-08-15T06:48:05.000Z</time>
      </trkpt>
      <trkpt lat="47.51225" lon="6.77189">
        <ele>376</ele>
        <time>2016-08-15T06:48:06.000Z</time>
      </trkpt>
      <trkpt lat="47.51227" lon="6.77195">
        <ele>376</ele>
        <time>2016-08-15T06:48:07.000Z</time>
      </trkpt>
      <trkpt lat="47.51229" lon="6.77202">
        <ele>376</ele>
        <time>2016-08-15T06:48:08.000Z</time>
      </trkpt>
      <trkpt lat="47.51232" lon="6.77208">
        <ele>376</ele>
        <time>2016-08-15T06:48:09.000Z</time>
      </trkpt>
      <trkpt lat="47.51235" lon="6.7721">
        <ele>376</ele>
        <time>2016-08-15T06:48:10.000Z</time>
      </trkpt>
      <trkpt lat="47.51237" lon="6.77214">
        <ele>376</ele>
        <time>2016-08-15T06:48:11.000Z</time>
      </trkpt>
      <trkpt lat="47.5124" lon="6.77218">
        <ele>376</ele>
        <time>2016-08-15T06:48:12.000Z</time>
      </trkpt>
      <trkpt lat="47.51242" lon="6.77225">
        <ele>376</ele>
        <time>2016-08-15T06:48:13.000Z</time>
      </trkpt>
      <trkpt lat="47.51245" lon="6.77231">
        <ele>377</ele>
        <time>2016-08-15T06:48:14.000Z</time>
      </trkpt>
      <trkpt lat="47.51247" lon="6.77236">
        <ele>377</ele>
        <time>2016-08-15T06:48:15.000Z</time>
      </trkpt>
      <trkpt lat="47.5125" lon="6.77242">
        <ele>379</ele>
        <time>2016-08-15T06:48:16.000Z</time>
      </trkpt>
      <trkpt lat="47.51254" lon="6.77248">
        <ele>379</ele>
        <time>2016-08-15T06:48:17.000Z</time>
      </trkpt>
      <trkpt lat="47.51257" lon="6.77254">
        <ele>378</ele>
        <time>2016-08-15T06:48:18.001Z</time>
      </trkpt>
      <trkpt lat="47.5126" lon="6.77257">
        <ele>378</ele>
        <time>2016-08-15T06:48:19.001Z</time>
      </trkpt>
      <trkpt lat="47.51264" lon="6.7726">
        <ele>378</ele>
        <time>2016-08-15T06:48:20.000Z</time>
      </trkpt>
      <trkpt lat="47.51269" lon="6.77263">
        <ele>377</ele>
        <time>2016-08-15T06:48:21.000Z</time>
      </trkpt>
      <trkpt lat="47.51273" lon="6.77266">
        <ele>377</ele>
        <time>2016-08-15T06:48:22.000Z</time>
      </trkpt>
      <trkpt lat="47.51279" lon="6.77268">
        <ele>377</ele>
        <time>2016-08-15T06:48:23.000Z</time>
      </trkpt>
      <trkpt lat="47.51284" lon="6.77271">
        <ele>377</ele>
        <time>2016-08-15T06:48:24.000Z</time>
      </trkpt>
      <trkpt lat="47.51289" lon="6.77273">
        <ele>377</ele>
        <time>2016-08-15T06:48:25.000Z</time>
      </trkpt>
      <trkpt lat="47.51294" lon="6.77276">
        <ele>377</ele>
        <time>2016-08-15T06:48:26.000Z</time>
      </trkpt>
      <trkpt lat="47.513" lon="6.7728">
        <ele>377</ele>
        <time>2016-08-15T06:48:27.000Z</time>
      </trkpt>
      <trkpt lat="47.51307" lon="6.77283">
        <ele>377</ele>
        <time>2016-08-15T06:48:28.000Z</time>
      </trkpt>
      <trkpt lat="47.51313" lon="6.77286">
        <ele>377</ele>
        <time>2016-08-15T06:48:29.000Z</time>
      </trkpt>
      <trkpt lat="47.51319" lon="6.77288">
        <ele>377</ele>
        <time>2016-08-15T06:48:30.000Z</time>
      </trkpt>
      <trkpt lat="47.51325" lon="6.77288">
        <ele>378</ele>
        <time>2016-08-15T06:48:31.000Z</time>
      </trkpt>
      <trkpt lat="47.51332" lon="6.77287">
        <ele>378</ele>
        <time>2016-08-15T06:48:32.001Z</time>
      </trkpt>
      <trkpt lat="47.51339" lon="6.77284">
        <ele>378</ele>
        <time>2016-08-15T06:48:33.000Z</time>
      </trkpt>
      <trkpt lat="47.51345" lon="6.77279">
        <ele>378</ele>
        <time>2016-08-15T06:48:34.000Z</time>
      </trkpt>
      <trkpt lat="47.51353" lon="6.77274">
        <ele>378</ele>
        <time>2016-08-15T06:48:35.000Z</time>
      </trkpt>
      <trkpt lat="47.51361" lon="6.77268">
        <ele>378</ele>
        <time>2016-08-15T06:48:36.000Z</time>
      </trkpt>
      <trkpt lat="47.51369" lon="6.77262">
        <ele>378</ele>
        <time>2016-08-15T06:48:37.000Z</time>
      </trkpt>
      <trkpt lat="47.51377" lon="6.77257">
        <ele>377</ele>
        <time>2016-08-15T06:48:38.000Z</time>
      </trkpt>
      <trkpt lat="47.51386" lon="6.77251">
        <ele>377</ele>
        <time>2016-08-15T06:48:39.000Z</time>
      </trkpt>
      <trkpt lat="47.51395" lon="6.77245">
        <ele>376</ele>
        <time>2016-08-15T06:48:39.999Z</time>
      </trkpt>
      <trkpt lat="47.51403" lon="6.77241">
        <ele>376</ele>
        <time>2016-08-15T06:48:41.000Z</time>
      </trkpt>
      <trkpt lat="47.51412" lon="6.77237">
        <ele>376</ele>
        <time>2016-08-15T06:48:42.000Z</time>
      </trkpt>
      <trkpt lat="47.51421" lon="6.77233">
        <ele>375</ele>
        <time>2016-08-15T06:48:42.999Z</time>
      </trkpt>
      <trkpt lat="47.5143" lon="6.77229">
        <ele>375</ele>
        <time>2016-08-15T06:48:44.000Z</time>
      </trkpt>
      <trkpt lat="47.51439" lon="6.77225">
        <ele>375</ele>
        <time>2016-08-15T06:48:45.000Z</time>
      </trkpt>
      <trkpt lat="47.51447" lon="6.77221">
        <ele>375</ele>
        <time>2016-08-15T06:48:45.999Z</time>
      </trkpt>
      <trkpt lat="47.51454" lon="6.77218">
        <ele>375</ele>
        <time>2016-08-15T06:48:47.000Z</time>
      </trkpt>
      <trkpt lat="47.51461" lon="6.77214">
        <ele>375</ele>
        <time>2016-08-15T06:48:48.000Z</time>
      </trkpt>
      <trkpt lat="47.51469" lon="6.7721">
        <ele>375</ele>
        <time>2016-08-15T06:48:48.999Z</time>
      </trkpt>
      <trkpt lat="47.51476" lon="6.77208">
        <ele>375</ele>
        <time>2016-08-15T06:48:50.000Z</time>
      </trkpt>
      <trkpt lat="47.51481" lon="6.77206">
        <ele>375</ele>
        <time>2016-08-15T06:48:51.000Z</time>
      </trkpt>
      <trkpt lat="47.51481" lon="6.77216">
        <ele>375</ele>
        <time>2016-08-15T06:48:52.000Z</time>
      </trkpt>
      <trkpt lat="47.51482" lon="6.77225">
        <ele>375</ele>
        <time>2016-08-15T06:48:53.000Z</time>
      </trkpt>
      <trkpt lat="47.51482" lon="6.77233">
        <ele>375</ele>
        <time>2016-08-15T06:48:54.000Z</time>
      </trkpt>
      <trkpt lat="47.51482" lon="6.77242">
        <ele>375</ele>
        <time>2016-08-15T06:48:55.000Z</time>
      </trkpt>
      <trkpt lat="47.51483" lon="6.77249">
        <ele>376</ele>
        <time>2016-08-15T06:48:56.000Z</time>
      </trkpt>
      <trkpt lat="47.51483" lon="6.77257">
        <ele>376</ele>
        <time>2016-08-15T06:48:57.002Z</time>
      </trkpt>
      <trkpt lat="47.51485" lon="6.77263">
        <ele>376</ele>
        <time>2016-08-15T06:48:58.000Z</time>
      </trkpt>
      <trkpt lat="47.51486" lon="6.77269">
        <ele>377</ele>
        <time>2016-08-15T06:48:59.000Z</time>
      </trkpt>
      <trkpt lat="47.51492" lon="6.77268">
        <ele>376</ele>
        <time>2016-08-15T06:49:00.000Z</time>
      </trkpt>
      <trkpt lat="47.51498" lon="6.77267">
        <ele>376</ele>
        <time>2016-08-15T06:49:01.000Z</time>
      </trkpt>
      <trkpt lat="47.51504" lon="6.77264">
        <ele>377</ele>
        <time>2016-08-15T06:49:02.000Z</time>
      </trkpt>
      <trkpt lat="47.51509" lon="6.77263">
        <ele>377</ele>
        <time>2016-08-15T06:49:03.000Z</time>
      </trkpt>
      <trkpt lat="47.51514" lon="6.77258">
        <ele>377</ele>
        <time>2016-08-15T06:49:04.000Z</time>
      </trkpt>
      <trkpt lat="47.51519" lon="6.77256">
        <ele>377</ele>
        <time>2016-08-15T06:49:05.000Z</time>
      </trkpt>
      <trkpt lat="47.51524" lon="6.77253">
        <ele>378</ele>
        <time>2016-08-15T06:49:06.000Z</time>
      </trkpt>
      <trkpt lat="47.51527" lon="6.77251">
        <ele>378</ele>
        <time>2016-08-15T06:49:07.002Z</time>
      </trkpt>
      <trkpt lat="47.51531" lon="6.77246">
        <ele>377</ele>
        <time>2016-08-15T06:49:08.000Z</time>
      </trkpt>
      <trkpt lat="47.51535" lon="6.77242">
        <ele>377</ele>
        <time>2016-08-15T06:49:09.001Z</time>
      </trkpt>
      <trkpt lat="47.51539" lon="6.77241">
        <ele>377</ele>
        <time>2016-08-15T06:49:10.000Z</time>
      </trkpt>
      <trkpt lat="47.51543" lon="6.77238">
        <ele>377</ele>
        <time>2016-08-15T06:49:11.000Z</time>
      </trkpt>
      <trkpt lat="47.51547" lon="6.77234">
        <ele>377</ele>
        <time>2016-08-15T06:49:12.000Z</time>
      </trkpt>
      <trkpt lat="47.51552" lon="6.77233">
        <ele>377</ele>
        <time>2016-08-15T06:49:13.000Z</time>
      </trkpt>
      <trkpt lat="47.51558" lon="6.77231">
        <ele>377</ele>
        <time>2016-08-15T06:49:14.000Z</time>
      </trkpt>
      <trkpt lat="47.51563" lon="6.7723">
        <ele>377</ele>
        <time>2016-08-15T06:49:14.999Z</time>
      </trkpt>
      <trkpt lat="47.51567" lon="6.77228">
        <ele>377</ele>
        <time>2016-08-15T06:49:16.000Z</time>
      </trkpt>
      <trkpt lat="47.5157" lon="6.77226">
        <ele>377</ele>
        <time>2016-08-15T06:49:17.000Z</time>
      </trkpt>
      <trkpt lat="47.51573" lon="6.77222">
        <ele>377</ele>
        <time>2016-08-15T06:49:18.000Z</time>
      </trkpt>
      <trkpt lat="47.51576" lon="6.77218">
        <ele>377</ele>
        <time>2016-08-15T06:49:18.999Z</time>
      </trkpt>
      <trkpt lat="47.5158" lon="6.77214">
        <ele>377</ele>
        <time>2016-08-15T06:49:20.000Z</time>
      </trkpt>
      <trkpt lat="47.51582" lon="6.77211">
        <ele>377</ele>
        <time>2016-08-15T06:49:21.000Z</time>
      </trkpt>
      <trkpt lat="47.51586" lon="6.77208">
        <ele>379</ele>
        <time>2016-08-15T06:49:22.000Z</time>
      </trkpt>
      <trkpt lat="47.5159" lon="6.77204">
        <ele>379</ele>
        <time>2016-08-15T06:49:23.001Z</time>
      </trkpt>
      <trkpt lat="47.51593" lon="6.77199">
        <ele>379</ele>
        <time>2016-08-15T06:49:24.000Z</time>
      </trkpt>
      <trkpt lat="47.51598" lon="6.77196">
        <ele>379</ele>
        <time>2016-08-15T06:49:25.000Z</time>
      </trkpt>
      <trkpt lat="47.51602" lon="6.77193">
        <ele>379</ele>
        <time>2016-08-15T06:49:26.000Z</time>
      </trkpt>
      <trkpt lat="47.51607" lon="6.77191">
        <ele>379</ele>
        <time>2016-08-15T06:49:27.000Z</time>
      </trkpt>
      <trkpt lat="47.51612" lon="6.77189">
        <ele>379</ele>
        <time>2016-08-15T06:49:28.000Z</time>
      </trkpt>
      <trkpt lat="47.51615" lon="6.77186">
        <ele>379</ele>
        <time>2016-08-15T06:49:29.000Z</time>
      </trkpt>
      <trkpt lat="47.51619" lon="6.77183">
        <ele>380</ele>
        <time>2016-08-15T06:49:30.000Z</time>
      </trkpt>
      <trkpt lat="47.51624" lon="6.77182">
        <ele>380</ele>
        <time>2016-08-15T06:49:31.000Z</time>
      </trkpt>
      <trkpt lat="47.51628" lon="6.77181">
        <ele>380</ele>
        <time>2016-08-15T06:49:32.000Z</time>
      </trkpt>
      <trkpt lat="47.51631" lon="6.7718">
        <ele>380</ele>
        <time>2016-08-15T06:49:33.000Z</time>
      </trkpt>
      <trkpt lat="47.51635" lon="6.77179">
        <ele>380</ele>
        <time>2016-08-15T06:49:34.000Z</time>
      </trkpt>
      <trkpt lat="47.51639" lon="6.77177">
        <ele>380</ele>
        <time>2016-08-15T06:49:35.000Z</time>
      </trkpt>
      <trkpt lat="47.51642" lon="6.77175">
        <ele>380</ele>
        <time>2016-08-15T06:49:36.000Z</time>
      </trkpt>
      <trkpt lat="47.51646" lon="6.77174">
        <ele>380</ele>
        <time>2016-08-15T06:49:37.000Z</time>
      </trkpt>
      <trkpt lat="47.51649" lon="6.77172">
        <ele>380</ele>
        <time>2016-08-15T06:49:38.000Z</time>
      </trkpt>
      <trkpt lat="47.51652" lon="6.77171">
        <ele>380</ele>
        <time>2016-08-15T06:49:39.000Z</time>
      </trkpt>
      <trkpt lat="47.51655" lon="6.77169">
        <ele>381</ele>
        <time>2016-08-15T06:49:40.000Z</time>
      </trkpt>
      <trkpt lat="47.51658" lon="6.77168">
        <ele>381</ele>
        <time>2016-08-15T06:49:41.000Z</time>
      </trkpt>
      <trkpt lat="47.51661" lon="6.77168">
        <ele>381</ele>
        <time>2016-08-15T06:49:42.000Z</time>
      </trkpt>
      <trkpt lat="47.51664" lon="6.77167">
        <ele>381</ele>
        <time>2016-08-15T06:49:43.000Z</time>
      </trkpt>
      <trkpt lat="47.51668" lon="6.77166">
        <ele>381</ele>
        <time>2016-08-15T06:49:44.000Z</time>
      </trkpt>
      <trkpt lat="47.51671" lon="6.77165">
        <ele>381</ele>
        <time>2016-08-15T06:49:45.000Z</time>
      </trkpt>
      <trkpt lat="47.51676" lon="6.77164">
        <ele>380</ele>
        <time>2016-08-15T06:49:46.000Z</time>
      </trkpt>
      <trkpt lat="47.5168" lon="6.77162">
        <ele>380</ele>
        <time>2016-08-15T06:49:47.000Z</time>
      </trkpt>
      <trkpt lat="47.51684" lon="6.77161">
        <ele>380</ele>
        <time>2016-08-15T06:49:48.000Z</time>
      </trkpt>
      <trkpt lat="47.51688" lon="6.77159">
        <ele>380</ele>
        <time>2016-08-15T06:49:49.000Z</time>
      </trkpt>
      <trkpt lat="47.51692" lon="6.77158">
        <ele>379</ele>
        <time>2016-08-15T06:49:50.000Z</time>
      </trkpt>
      <trkpt lat="47.51696" lon="6.77158">
        <ele>379</ele>
        <time>2016-08-15T06:49:51.000Z</time>
      </trkpt>
      <trkpt lat="47.51701" lon="6.77159">
        <ele>379</ele>
        <time>2016-08-15T06:49:52.000Z</time>
      </trkpt>
      <trkpt lat="47.51706" lon="6.77161">
        <ele>379</ele>
        <time>2016-08-15T06:49:53.000Z</time>
      </trkpt>
      <trkpt lat="47.51711" lon="6.77161">
        <ele>379</ele>
        <time>2016-08-15T06:49:54.000Z</time>
      </trkpt>
      <trkpt lat="47.51718" lon="6.77159">
        <ele>379</ele>
        <time>2016-08-15T06:49:55.000Z</time>
      </trkpt>
      <trkpt lat="47.51723" lon="6.77158">
        <ele>379</ele>
        <time>2016-08-15T06:49:56.000Z</time>
      </trkpt>
      <trkpt lat="47.51729" lon="6.77158">
        <ele>379</ele>
        <time>2016-08-15T06:49:57.000Z</time>
      </trkpt>
      <trkpt lat="47.51735" lon="6.77158">
        <ele>379</ele>
        <time>2016-08-15T06:49:58.000Z</time>
      </trkpt>
      <trkpt lat="47.51741" lon="6.77158">
        <ele>379</ele>
        <time>2016-08-15T06:49:59.000Z</time>
      </trkpt>
      <trkpt lat="47.51747" lon="6.77159">
        <ele>379</ele>
        <time>2016-08-15T06:50:00.000Z</time>
      </trkpt>
      <trkpt lat="47.51753" lon="6.77159">
        <ele>378</ele>
        <time>2016-08-15T06:50:01.000Z</time>
      </trkpt>
      <trkpt lat="47.51759" lon="6.77159">
        <ele>378</ele>
        <time>2016-08-15T06:50:02.000Z</time>
      </trkpt>
      <trkpt lat="47.51766" lon="6.7716">
        <ele>378</ele>
        <time>2016-08-15T06:50:03.000Z</time>
      </trkpt>
      <trkpt lat="47.51771" lon="6.77161">
        <ele>378</ele>
        <time>2016-08-15T06:50:04.000Z</time>
      </trkpt>
      <trkpt lat="47.51777" lon="6.77163">
        <ele>377</ele>
        <time>2016-08-15T06:50:05.000Z</time>
      </trkpt>
      <trkpt lat="47.51783" lon="6.77165">
        <ele>377</ele>
        <time>2016-08-15T06:50:06.000Z</time>
      </trkpt>
      <trkpt lat="47.51788" lon="6.77167">
        <ele>380</ele>
        <time>2016-08-15T06:50:07.000Z</time>
      </trkpt>
      <trkpt lat="47.51794" lon="6.77169">
        <ele>380</ele>
        <time>2016-08-15T06:50:08.000Z</time>
      </trkpt>
      <trkpt lat="47.518" lon="6.77172">
        <ele>380</ele>
        <time>2016-08-15T06:50:09.000Z</time>
      </trkpt>
      <trkpt lat="47.51805" lon="6.77175">
        <ele>380</ele>
        <time>2016-08-15T06:50:10.000Z</time>
      </trkpt>
      <trkpt lat="47.51811" lon="6.7718">
        <ele>380</ele>
        <time>2016-08-15T06:50:11.000Z</time>
      </trkpt>
      <trkpt lat="47.51816" lon="6.77185">
        <ele>380</ele>
        <time>2016-08-15T06:50:12.000Z</time>
      </trkpt>
      <trkpt lat="47.51821" lon="6.77189">
        <ele>380</ele>
        <time>2016-08-15T06:50:13.000Z</time>
      </trkpt>
      <trkpt lat="47.51825" lon="6.77194">
        <ele>380</ele>
        <time>2016-08-15T06:50:14.000Z</time>
      </trkpt>
      <trkpt lat="47.51829" lon="6.77198">
        <ele>380</ele>
        <time>2016-08-15T06:50:15.000Z</time>
      </trkpt>
      <trkpt lat="47.51832" lon="6.77202">
        <ele>380</ele>
        <time>2016-08-15T06:50:16.000Z</time>
      </trkpt>
      <trkpt lat="47.51834" lon="6.77206">
        <ele>379</ele>
        <time>2016-08-15T06:50:17.000Z</time>
      </trkpt>
      <trkpt lat="47.51837" lon="6.7721">
        <ele>380</ele>
        <time>2016-08-15T06:50:18.000Z</time>
      </trkpt>
      <trkpt lat="47.5184" lon="6.77212">
        <ele>380</ele>
        <time>2016-08-15T06:50:19.000Z</time>
      </trkpt>
      <trkpt lat="47.51843" lon="6.77216">
        <ele>380</ele>
        <time>2016-08-15T06:50:20.000Z</time>
      </trkpt>
      <trkpt lat="47.51846" lon="6.77219">
        <ele>380</ele>
        <time>2016-08-15T06:50:21.000Z</time>
      </trkpt>
      <trkpt lat="47.51849" lon="6.77223">
        <ele>380</ele>
        <time>2016-08-15T06:50:22.000Z</time>
      </trkpt>
      <trkpt lat="47.51852" lon="6.77226">
        <ele>380</ele>
        <time>2016-08-15T06:50:23.000Z</time>
      </trkpt>
      <trkpt lat="47.51854" lon="6.77229">
        <ele>380</ele>
        <time>2016-08-15T06:50:24.000Z</time>
      </trkpt>
      <trkpt lat="47.51858" lon="6.77231">
        <ele>380</ele>
        <time>2016-08-15T06:50:25.000Z</time>
      </trkpt>
      <trkpt lat="47.51861" lon="6.77234">
        <ele>380</ele>
        <time>2016-08-15T06:50:25.999Z</time>
      </trkpt>
      <trkpt lat="47.51865" lon="6.77238">
        <ele>380</ele>
        <time>2016-08-15T06:50:27.000Z</time>
      </trkpt>
      <trkpt lat="47.51868" lon="6.77241">
        <ele>380</ele>
        <time>2016-08-15T06:50:28.001Z</time>
      </trkpt>
      <trkpt lat="47.51872" lon="6.77246">
        <ele>380</ele>
        <time>2016-08-15T06:50:29.000Z</time>
      </trkpt>
      <trkpt lat="47.51877" lon="6.77249">
        <ele>380</ele>
        <time>2016-08-15T06:50:30.000Z</time>
      </trkpt>
      <trkpt lat="47.51882" lon="6.7725">
        <ele>380</ele>
        <time>2016-08-15T06:50:31.000Z</time>
      </trkpt>
      <trkpt lat="47.51887" lon="6.77253">
        <ele>382</ele>
        <time>2016-08-15T06:50:31.999Z</time>
      </trkpt>
      <trkpt lat="47.51892" lon="6.77255">
        <ele>382</ele>
        <time>2016-08-15T06:50:33.000Z</time>
      </trkpt>
      <trkpt lat="47.51896" lon="6.77259">
        <ele>382</ele>
        <time>2016-08-15T06:50:34.000Z</time>
      </trkpt>
      <trkpt lat="47.51901" lon="6.77261">
        <ele>382</ele>
        <time>2016-08-15T06:50:35.000Z</time>
      </trkpt>
      <trkpt lat="47.51908" lon="6.77265">
        <ele>382</ele>
        <time>2016-08-15T06:50:36.000Z</time>
      </trkpt>
      <trkpt lat="47.51913" lon="6.77267">
        <ele>382</ele>
        <time>2016-08-15T06:50:37.000Z</time>
      </trkpt>
      <trkpt lat="47.51919" lon="6.77271">
        <ele>382</ele>
        <time>2016-08-15T06:50:38.000Z</time>
      </trkpt>
      <trkpt lat="47.51925" lon="6.77273">
        <ele>382</ele>
        <time>2016-08-15T06:50:39.000Z</time>
      </trkpt>
      <trkpt lat="47.51932" lon="6.77275">
        <ele>382</ele>
        <time>2016-08-15T06:50:40.000Z</time>
      </trkpt>
      <trkpt lat="47.51937" lon="6.77277">
        <ele>382</ele>
        <time>2016-08-15T06:50:41.000Z</time>
      </trkpt>
      <trkpt lat="47.51943" lon="6.77279">
        <ele>382</ele>
        <time>2016-08-15T06:50:42.000Z</time>
      </trkpt>
      <trkpt lat="47.51948" lon="6.7728">
        <ele>382</ele>
        <time>2016-08-15T06:50:43.000Z</time>
      </trkpt>
      <trkpt lat="47.51953" lon="6.77282">
        <ele>382</ele>
        <time>2016-08-15T06:50:44.000Z</time>
      </trkpt>
      <trkpt lat="47.51957" lon="6.77283">
        <ele>382</ele>
        <time>2016-08-15T06:50:45.000Z</time>
      </trkpt>
      <trkpt lat="47.51962" lon="6.77283">
        <ele>382</ele>
        <time>2016-08-15T06:50:46.000Z</time>
      </trkpt>
      <trkpt lat="47.51966" lon="6.77284">
        <ele>382</ele>
        <time>2016-08-15T06:50:46.999Z</time>
      </trkpt>
      <trkpt lat="47.51971" lon="6.77286">
        <ele>382</ele>
        <time>2016-08-15T06:50:48.000Z</time>
      </trkpt>
      <trkpt lat="47.51976" lon="6.77286">
        <ele>382</ele>
        <time>2016-08-15T06:50:49.000Z</time>
      </trkpt>
      <trkpt lat="47.51981" lon="6.77288">
        <ele>382</ele>
        <time>2016-08-15T06:50:50.000Z</time>
      </trkpt>
      <trkpt lat="47.51985" lon="6.77289">
        <ele>382</ele>
        <time>2016-08-15T06:50:51.000Z</time>
      </trkpt>
      <trkpt lat="47.51989" lon="6.77291">
        <ele>382</ele>
        <time>2016-08-15T06:50:52.000Z</time>
      </trkpt>
      <trkpt lat="47.51993" lon="6.77292">
        <ele>382</ele>
        <time>2016-08-15T06:50:53.000Z</time>
      </trkpt>
      <trkpt lat="47.51996" lon="6.77294">
        <ele>382</ele>
        <time>2016-08-15T06:50:54.000Z</time>
      </trkpt>
      <trkpt lat="47.52" lon="6.77296">
        <ele>382</ele>
        <time>2016-08-15T06:50:55.000Z</time>
      </trkpt>
      <trkpt lat="47.52004" lon="6.77297">
        <ele>382</ele>
        <time>2016-08-15T06:50:56.000Z</time>
      </trkpt>
      <trkpt lat="47.52008" lon="6.77299">
        <ele>382</ele>
        <time>2016-08-15T06:50:57.000Z</time>
      </trkpt>
      <trkpt lat="47.52013" lon="6.77301">
        <ele>382</ele>
        <time>2016-08-15T06:50:58.000Z</time>
      </trkpt>
      <trkpt lat="47.52018" lon="6.77303">
        <ele>382</ele>
        <time>2016-08-15T06:50:59.000Z</time>
      </trkpt>
      <trkpt lat="47.52021" lon="6.77305">
        <ele>382</ele>
        <time>2016-08-15T06:51:00.000Z</time>
      </trkpt>
      <trkpt lat="47.52026" lon="6.77307">
        <ele>382</ele>
        <time>2016-08-15T06:51:01.000Z</time>
      </trkpt>
      <trkpt lat="47.5203" lon="6.77311">
        <ele>383</ele>
        <time>2016-08-15T06:51:02.000Z</time>
      </trkpt>
      <trkpt lat="47.52034" lon="6.77313">
        <ele>383</ele>
        <time>2016-08-15T06:51:03.000Z</time>
      </trkpt>
      <trkpt lat="47.52039" lon="6.77316">
        <ele>383</ele>
        <time>2016-08-15T06:51:04.000Z</time>
      </trkpt>
      <trkpt lat="47.52041" lon="6.77318">
        <ele>383</ele>
        <time>2016-08-15T06:51:05.000Z</time>
      </trkpt>
      <trkpt lat="47.52044" lon="6.7732">
        <ele>383</ele>
        <time>2016-08-15T06:51:06.000Z</time>
      </trkpt>
      <trkpt lat="47.5205" lon="6.77323">
        <ele>383</ele>
        <time>2016-08-15T06:51:07.000Z</time>
      </trkpt>
      <trkpt lat="47.52054" lon="6.77326">
        <ele>383</ele>
        <time>2016-08-15T06:51:08.000Z</time>
      </trkpt>
      <trkpt lat="47.52055" lon="6.77331">
        <ele>383</ele>
        <time>2016-08-15T06:51:09.000Z</time>
      </trkpt>
      <trkpt lat="47.52054" lon="6.77338">
        <ele>385</ele>
        <time>2016-08-15T06:51:10.000Z</time>
      </trkpt>
      <trkpt lat="47.52054" lon="6.77343">
        <ele>385</ele>
        <time>2016-08-15T06:51:11.001Z</time>
      </trkpt>
      <trkpt lat="47.5205" lon="6.77348">
        <ele>385</ele>
        <time>2016-08-15T06:51:12.000Z</time>
      </trkpt>
      <trkpt lat="47.52047" lon="6.77356">
        <ele>385</ele>
        <time>2016-08-15T06:51:13.000Z</time>
      </trkpt>
      <trkpt lat="47.52045" lon="6.7736">
        <ele>385</ele>
        <time>2016-08-15T06:51:14.000Z</time>
      </trkpt>
      <trkpt lat="47.52041" lon="6.77362">
        <ele>385</ele>
        <time>2016-08-15T06:51:15.000Z</time>
      </trkpt>
      <trkpt lat="47.52037" lon="6.77365">
        <ele>385</ele>
        <time>2016-08-15T06:51:16.000Z</time>
      </trkpt>
      <trkpt lat="47.52035" lon="6.77371">
        <ele>385</ele>
        <time>2016-08-15T06:51:17.000Z</time>
      </trkpt>
      <trkpt lat="47.52033" lon="6.77376">
        <ele>385</ele>
        <time>2016-08-15T06:51:18.000Z</time>
      </trkpt>
      <trkpt lat="47.52032" lon="6.77381">
        <ele>386</ele>
        <time>2016-08-15T06:51:19.000Z</time>
      </trkpt>
      <trkpt lat="47.5203" lon="6.77387">
        <ele>386</ele>
        <time>2016-08-15T06:51:20.000Z</time>
      </trkpt>
      <trkpt lat="47.5203" lon="6.77392">
        <ele>386</ele>
        <time>2016-08-15T06:51:21.000Z</time>
      </trkpt>
      <trkpt lat="47.52028" lon="6.774">
        <ele>386</ele>
        <time>2016-08-15T06:51:22.000Z</time>
      </trkpt>
      <trkpt lat="47.52026" lon="6.77406">
        <ele>386</ele>
        <time>2016-08-15T06:51:23.000Z</time>
      </trkpt>
      <trkpt lat="47.52023" lon="6.77412">
        <ele>386</ele>
        <time>2016-08-15T06:51:24.000Z</time>
      </trkpt>
      <trkpt lat="47.52021" lon="6.77418">
        <ele>387</ele>
        <time>2016-08-15T06:51:25.000Z</time>
      </trkpt>
      <trkpt lat="47.52017" lon="6.77424">
        <ele>387</ele>
        <time>2016-08-15T06:51:26.000Z</time>
      </trkpt>
      <trkpt lat="47.52016" lon="6.7743">
        <ele>387</ele>
        <time>2016-08-15T06:51:27.000Z</time>
      </trkpt>
      <trkpt lat="47.52013" lon="6.77437">
        <ele>387</ele>
        <time>2016-08-15T06:51:27.999Z</time>
      </trkpt>
      <trkpt lat="47.52013" lon="6.77445">
        <ele>387</ele>
        <time>2016-08-15T06:51:29.000Z</time>
      </trkpt>
      <trkpt lat="47.52011" lon="6.77454">
        <ele>388</ele>
        <time>2016-08-15T06:51:30.000Z</time>
      </trkpt>
      <trkpt lat="47.52009" lon="6.77459">
        <ele>388</ele>
        <time>2016-08-15T06:51:31.000Z</time>
      </trkpt>
      <trkpt lat="47.52007" lon="6.77464">
        <ele>388</ele>
        <time>2016-08-15T06:51:32.000Z</time>
      </trkpt>
      <trkpt lat="47.52005" lon="6.77469">
        <ele>388</ele>
        <time>2016-08-15T06:51:33.000Z</time>
      </trkpt>
      <trkpt lat="47.52002" lon="6.77473">
        <ele>388</ele>
        <time>2016-08-15T06:51:34.000Z</time>
      </trkpt>
      <trkpt lat="47.51999" lon="6.77478">
        <ele>388</ele>
        <time>2016-08-15T06:51:34.999Z</time>
      </trkpt>
      <trkpt lat="47.51997" lon="6.77483">
        <ele>388</ele>
        <time>2016-08-15T06:51:36.002Z</time>
      </trkpt>
      <trkpt lat="47.51995" lon="6.77488">
        <ele>388</ele>
        <time>2016-08-15T06:51:37.000Z</time>
      </trkpt>
      <trkpt lat="47.51992" lon="6.77492">
        <ele>388</ele>
        <time>2016-08-15T06:51:38.000Z</time>
      </trkpt>
      <trkpt lat="47.5199" lon="6.77497">
        <ele>388</ele>
        <time>2016-08-15T06:51:39.000Z</time>
      </trkpt>
      <trkpt lat="47.51988" lon="6.77502">
        <ele>389</ele>
        <time>2016-08-15T06:51:40.000Z</time>
      </trkpt>
      <trkpt lat="47.51986" lon="6.77506">
        <ele>389</ele>
        <time>2016-08-15T06:51:41.000Z</time>
      </trkpt>
      <trkpt lat="47.51985" lon="6.77513">
        <ele>390</ele>
        <time>2016-08-15T06:51:42.000Z</time>
      </trkpt>
      <trkpt lat="47.51984" lon="6.77519">
        <ele>390</ele>
        <time>2016-08-15T06:51:43.000Z</time>
      </trkpt>
      <trkpt lat="47.51986" lon="6.77524">
        <ele>390</ele>
        <time>2016-08-15T06:51:44.000Z</time>
      </trkpt>
      <trkpt lat="47.51988" lon="6.77529">
        <ele>390</ele>
        <time>2016-08-15T06:51:45.000Z</time>
      </trkpt>
      <trkpt lat="47.51991" lon="6.77532">
        <ele>390</ele>
        <time>2016-08-15T06:51:46.000Z</time>
      </trkpt>
      <trkpt lat="47.51996" lon="6.77534">
        <ele>390</ele>
        <time>2016-08-15T06:51:47.000Z</time>
      </trkpt>
      <trkpt lat="47.52001" lon="6.77536">
        <ele>390</ele>
        <time>2016-08-15T06:51:48.000Z</time>
      </trkpt>
      <trkpt lat="47.52006" lon="6.77536">
        <ele>390</ele>
        <time>2016-08-15T06:51:49.000Z</time>
      </trkpt>
      <trkpt lat="47.52015" lon="6.77533">
        <ele>390</ele>
        <time>2016-08-15T06:51:50.000Z</time>
      </trkpt>
      <trkpt lat="47.52019" lon="6.77534">
        <ele>390</ele>
        <time>2016-08-15T06:51:51.000Z</time>
      </trkpt>
      <trkpt lat="47.52023" lon="6.77535">
        <ele>390</ele>
        <time>2016-08-15T06:51:52.000Z</time>
      </trkpt>
      <trkpt lat="47.52027" lon="6.77536">
        <ele>390</ele>
        <time>2016-08-15T06:51:53.000Z</time>
      </trkpt>
      <trkpt lat="47.5203" lon="6.77537">
        <ele>390</ele>
        <time>2016-08-15T06:51:54.000Z</time>
      </trkpt>
      <trkpt lat="47.52034" lon="6.77538">
        <ele>390</ele>
        <time>2016-08-15T06:51:55.000Z</time>
      </trkpt>
      <trkpt lat="47.52038" lon="6.77538">
        <ele>390</ele>
        <time>2016-08-15T06:51:56.000Z</time>
      </trkpt>
      <trkpt lat="47.52043" lon="6.77538">
        <ele>390</ele>
        <time>2016-08-15T06:51:57.000Z</time>
      </trkpt>
      <trkpt lat="47.52048" lon="6.7754">
        <ele>390</ele>
        <time>2016-08-15T06:51:58.000Z</time>
      </trkpt>
      <trkpt lat="47.52052" lon="6.77541">
        <ele>390</ele>
        <time>2016-08-15T06:51:59.000Z</time>
      </trkpt>
      <trkpt lat="47.52056" lon="6.77542">
        <ele>391</ele>
        <time>2016-08-15T06:52:00.000Z</time>
      </trkpt>
      <trkpt lat="47.5206" lon="6.77544">
        <ele>391</ele>
        <time>2016-08-15T06:52:01.000Z</time>
      </trkpt>
      <trkpt lat="47.52064" lon="6.77546">
        <ele>391</ele>
        <time>2016-08-15T06:52:02.000Z</time>
      </trkpt>
      <trkpt lat="47.52067" lon="6.77546">
        <ele>391</ele>
        <time>2016-08-15T06:52:03.000Z</time>
      </trkpt>
      <trkpt lat="47.52072" lon="6.77548">
        <ele>391</ele>
        <time>2016-08-15T06:52:04.000Z</time>
      </trkpt>
      <trkpt lat="47.52077" lon="6.77549">
        <ele>391</ele>
        <time>2016-08-15T06:52:05.000Z</time>
      </trkpt>
      <trkpt lat="47.5208" lon="6.77551">
        <ele>391</ele>
        <time>2016-08-15T06:52:06.000Z</time>
      </trkpt>
      <trkpt lat="47.52084" lon="6.77553">
        <ele>390</ele>
        <time>2016-08-15T06:52:07.000Z</time>
      </trkpt>
      <trkpt lat="47.52088" lon="6.77555">
        <ele>390</ele>
        <time>2016-08-15T06:52:08.000Z</time>
      </trkpt>
      <trkpt lat="47.52091" lon="6.77559">
        <ele>390</ele>
        <time>2016-08-15T06:52:09.000Z</time>
      </trkpt>
      <trkpt lat="47.52092" lon="6.7757">
        <ele>391</ele>
        <time>2016-08-15T06:52:10.000Z</time>
      </trkpt>
      <trkpt lat="47.52088" lon="6.77571">
        <ele>391</ele>
        <time>2016-08-15T06:52:11.000Z</time>
      </trkpt>
      <trkpt lat="47.52088" lon="6.77574">
        <ele>391</ele>
        <time>2016-08-15T06:52:12.000Z</time>
      </trkpt>
      <trkpt lat="47.52088" lon="6.77586">
        <ele>392</ele>
        <time>2016-08-15T06:52:13.000Z</time>
      </trkpt>
      <trkpt lat="47.52088" lon="6.77594">
        <ele>391</ele>
        <time>2016-08-15T06:52:14.000Z</time>
      </trkpt>
      <trkpt lat="47.52088" lon="6.77603">
        <ele>391</ele>
        <time>2016-08-15T06:52:15.000Z</time>
      </trkpt>
      <trkpt lat="47.52088" lon="6.7761">
        <ele>391</ele>
        <time>2016-08-15T06:52:16.000Z</time>
      </trkpt>
      <trkpt lat="47.52088" lon="6.77618">
        <ele>391</ele>
        <time>2016-08-15T06:52:17.000Z</time>
      </trkpt>
      <trkpt lat="47.52088" lon="6.77626">
        <ele>391</ele>
        <time>2016-08-15T06:52:18.000Z</time>
      </trkpt>
      <trkpt lat="47.52088" lon="6.77633">
        <ele>391</ele>
        <time>2016-08-15T06:52:19.000Z</time>
      </trkpt>
      <trkpt lat="47.52088" lon="6.77639">
        <ele>391</ele>
        <time>2016-08-15T06:52:20.000Z</time>
      </trkpt>
      <trkpt lat="47.52088" lon="6.77645">
        <ele>392</ele>
        <time>2016-08-15T06:52:21.000Z</time>
      </trkpt>
      <trkpt lat="47.52089" lon="6.7765">
        <ele>392</ele>
        <time>2016-08-15T06:52:22.000Z</time>
      </trkpt>
      <trkpt lat="47.52089" lon="6.77655">
        <ele>392</ele>
        <time>2016-08-15T06:52:23.000Z</time>
      </trkpt>
      <trkpt lat="47.5209" lon="6.7766">
        <ele>392</ele>
        <time>2016-08-15T06:52:24.000Z</time>
      </trkpt>
      <trkpt lat="47.52093" lon="6.77665">
        <ele>392</ele>
        <time>2016-08-15T06:52:25.000Z</time>
      </trkpt>
      <trkpt lat="47.52097" lon="6.77668">
        <ele>392</ele>
        <time>2016-08-15T06:52:26.000Z</time>
      </trkpt>
      <trkpt lat="47.52102" lon="6.77667">
        <ele>392</ele>
        <time>2016-08-15T06:52:27.000Z</time>
      </trkpt>
      <trkpt lat="47.52107" lon="6.77665">
        <ele>391</ele>
        <time>2016-08-15T06:52:28.000Z</time>
      </trkpt>
      <trkpt lat="47.52112" lon="6.77662">
        <ele>391</ele>
        <time>2016-08-15T06:52:29.000Z</time>
      </trkpt>
      <trkpt lat="47.52117" lon="6.77661">
        <ele>391</ele>
        <time>2016-08-15T06:52:30.000Z</time>
      </trkpt>
      <trkpt lat="47.52122" lon="6.7766">
        <ele>391</ele>
        <time>2016-08-15T06:52:31.000Z</time>
      </trkpt>
      <trkpt lat="47.52128" lon="6.77657">
        <ele>391</ele>
        <time>2016-08-15T06:52:32.000Z</time>
      </trkpt>
      <trkpt lat="47.52133" lon="6.77655">
        <ele>390</ele>
        <time>2016-08-15T06:52:33.000Z</time>
      </trkpt>
      <trkpt lat="47.52139" lon="6.77653">
        <ele>390</ele>
        <time>2016-08-15T06:52:34.000Z</time>
      </trkpt>
      <trkpt lat="47.52146" lon="6.77647">
        <ele>390</ele>
        <time>2016-08-15T06:52:35.000Z</time>
      </trkpt>
      <trkpt lat="47.52153" lon="6.77644">
        <ele>390</ele>
        <time>2016-08-15T06:52:36.000Z</time>
      </trkpt>
      <trkpt lat="47.5216" lon="6.77639">
        <ele>390</ele>
        <time>2016-08-15T06:52:37.000Z</time>
      </trkpt>
      <trkpt lat="47.52166" lon="6.77634">
        <ele>390</ele>
        <time>2016-08-15T06:52:38.000Z</time>
      </trkpt>
      <trkpt lat="47.52173" lon="6.77631">
        <ele>387</ele>
        <time>2016-08-15T06:52:39.000Z</time>
      </trkpt>
      <trkpt lat="47.5218" lon="6.77626">
        <ele>387</ele>
        <time>2016-08-15T06:52:40.000Z</time>
      </trkpt>
      <trkpt lat="47.52187" lon="6.77621">
        <ele>387</ele>
        <time>2016-08-15T06:52:41.000Z</time>
      </trkpt>
      <trkpt lat="47.52193" lon="6.77617">
        <ele>387</ele>
        <time>2016-08-15T06:52:42.000Z</time>
      </trkpt>
      <trkpt lat="47.52199" lon="6.77611">
        <ele>387</ele>
        <time>2016-08-15T06:52:43.000Z</time>
      </trkpt>
      <trkpt lat="47.52205" lon="6.77608">
        <ele>387</ele>
        <time>2016-08-15T06:52:44.000Z</time>
      </trkpt>
      <trkpt lat="47.52211" lon="6.77603">
        <ele>387</ele>
        <time>2016-08-15T06:52:45.000Z</time>
      </trkpt>
      <trkpt lat="47.52216" lon="6.77599">
        <ele>386</ele>
        <time>2016-08-15T06:52:46.000Z</time>
      </trkpt>
      <trkpt lat="47.52222" lon="6.77595">
        <ele>386</ele>
        <time>2016-08-15T06:52:47.000Z</time>
      </trkpt>
      <trkpt lat="47.52228" lon="6.77591">
        <ele>386</ele>
        <time>2016-08-15T06:52:48.000Z</time>
      </trkpt>
      <trkpt lat="47.52233" lon="6.77588">
        <ele>386</ele>
        <time>2016-08-15T06:52:49.000Z</time>
      </trkpt>
      <trkpt lat="47.52239" lon="6.77584">
        <ele>386</ele>
        <time>2016-08-15T06:52:50.000Z</time>
      </trkpt>
      <trkpt lat="47.52245" lon="6.7758">
        <ele>386</ele>
        <time>2016-08-15T06:52:51.000Z</time>
      </trkpt>
      <trkpt lat="47.5225" lon="6.77576">
        <ele>386</ele>
        <time>2016-08-15T06:52:52.000Z</time>
      </trkpt>
      <trkpt lat="47.52256" lon="6.77572">
        <ele>386</ele>
        <time>2016-08-15T06:52:53.000Z</time>
      </trkpt>
      <trkpt lat="47.52261" lon="6.77569">
        <ele>387</ele>
        <time>2016-08-15T06:52:54.000Z</time>
      </trkpt>
      <trkpt lat="47.52267" lon="6.77565">
        <ele>387</ele>
        <time>2016-08-15T06:52:55.000Z</time>
      </trkpt>
      <trkpt lat="47.52272" lon="6.77561">
        <ele>387</ele>
        <time>2016-08-15T06:52:56.000Z</time>
      </trkpt>
      <trkpt lat="47.52275" lon="6.77558">
        <ele>387</ele>
        <time>2016-08-15T06:52:57.000Z</time>
      </trkpt>
      <trkpt lat="47.52281" lon="6.77555">
        <ele>387</ele>
        <time>2016-08-15T06:52:58.000Z</time>
      </trkpt>
      <trkpt lat="47.52286" lon="6.77551">
        <ele>387</ele>
        <time>2016-08-15T06:52:59.000Z</time>
      </trkpt>
      <trkpt lat="47.52291" lon="6.77547">
        <ele>387</ele>
        <time>2016-08-15T06:53:00.000Z</time>
      </trkpt>
      <trkpt lat="47.52294" lon="6.77544">
        <ele>387</ele>
        <time>2016-08-15T06:53:01.000Z</time>
      </trkpt>
      <trkpt lat="47.52299" lon="6.77542">
        <ele>387</ele>
        <time>2016-08-15T06:53:02.000Z</time>
      </trkpt>
      <trkpt lat="47.52304" lon="6.77539">
        <ele>387</ele>
        <time>2016-08-15T06:53:03.000Z</time>
      </trkpt>
      <trkpt lat="47.52309" lon="6.77536">
        <ele>387</ele>
        <time>2016-08-15T06:53:04.000Z</time>
      </trkpt>
      <trkpt lat="47.52317" lon="6.77533">
        <ele>388</ele>
        <time>2016-08-15T06:53:05.000Z</time>
      </trkpt>
      <trkpt lat="47.52322" lon="6.77528">
        <ele>388</ele>
        <time>2016-08-15T06:53:05.999Z</time>
      </trkpt>
      <trkpt lat="47.52328" lon="6.77525">
        <ele>388</ele>
        <time>2016-08-15T06:53:07.000Z</time>
      </trkpt>
      <trkpt lat="47.52334" lon="6.77522">
        <ele>389</ele>
        <time>2016-08-15T06:53:08.000Z</time>
      </trkpt>
      <trkpt lat="47.52338" lon="6.77518">
        <ele>389</ele>
        <time>2016-08-15T06:53:09.000Z</time>
      </trkpt>
      <trkpt lat="47.52343" lon="6.77516">
        <ele>389</ele>
        <time>2016-08-15T06:53:09.999Z</time>
      </trkpt>
      <trkpt lat="47.52348" lon="6.77511">
        <ele>389</ele>
        <time>2016-08-15T06:53:11.000Z</time>
      </trkpt>
      <trkpt lat="47.52353" lon="6.77508">
        <ele>389</ele>
        <time>2016-08-15T06:53:12.000Z</time>
      </trkpt>
      <trkpt lat="47.52359" lon="6.77504">
        <ele>389</ele>
        <time>2016-08-15T06:53:13.000Z</time>
      </trkpt>
      <trkpt lat="47.52362" lon="6.77502">
        <ele>389</ele>
        <time>2016-08-15T06:53:14.000Z</time>
      </trkpt>
      <trkpt lat="47.52366" lon="6.775">
        <ele>389</ele>
        <time>2016-08-15T06:53:15.000Z</time>
      </trkpt>
      <trkpt lat="47.52372" lon="6.77497">
        <ele>391</ele>
        <time>2016-08-15T06:53:16.000Z</time>
      </trkpt>
      <trkpt lat="47.52376" lon="6.77494">
        <ele>391</ele>
        <time>2016-08-15T06:53:17.000Z</time>
      </trkpt>
      <trkpt lat="47.5238" lon="6.77492">
        <ele>391</ele>
        <time>2016-08-15T06:53:18.000Z</time>
      </trkpt>
      <trkpt lat="47.52384" lon="6.77488">
        <ele>391</ele>
        <time>2016-08-15T06:53:19.000Z</time>
      </trkpt>
      <trkpt lat="47.52388" lon="6.77485">
        <ele>391</ele>
        <time>2016-08-15T06:53:20.000Z</time>
      </trkpt>
      <trkpt lat="47.52392" lon="6.77482">
        <ele>391</ele>
        <time>2016-08-15T06:53:21.000Z</time>
      </trkpt>
      <trkpt lat="47.52397" lon="6.77479">
        <ele>391</ele>
        <time>2016-08-15T06:53:21.999Z</time>
      </trkpt>
      <trkpt lat="47.52401" lon="6.77474">
        <ele>391</ele>
        <time>2016-08-15T06:53:23.000Z</time>
      </trkpt>
      <trkpt lat="47.52405" lon="6.7747">
        <ele>391</ele>
        <time>2016-08-15T06:53:24.001Z</time>
      </trkpt>
      <trkpt lat="47.52409" lon="6.77467">
        <ele>391</ele>
        <time>2016-08-15T06:53:25.000Z</time>
      </trkpt>
      <trkpt lat="47.52412" lon="6.77464">
        <ele>391</ele>
        <time>2016-08-15T06:53:26.000Z</time>
      </trkpt>
      <trkpt lat="47.52416" lon="6.77466">
        <ele>391</ele>
        <time>2016-08-15T06:53:27.000Z</time>
      </trkpt>
      <trkpt lat="47.52419" lon="6.77467">
        <ele>392</ele>
        <time>2016-08-15T06:53:28.000Z</time>
      </trkpt>
      <trkpt lat="47.52424" lon="6.77467">
        <ele>392</ele>
        <time>2016-08-15T06:53:29.000Z</time>
      </trkpt>
      <trkpt lat="47.52429" lon="6.77469">
        <ele>392</ele>
        <time>2016-08-15T06:53:30.000Z</time>
      </trkpt>
      <trkpt lat="47.52434" lon="6.7747">
        <ele>392</ele>
        <time>2016-08-15T06:53:31.000Z</time>
      </trkpt>
      <trkpt lat="47.5244" lon="6.77472">
        <ele>392</ele>
        <time>2016-08-15T06:53:32.000Z</time>
      </trkpt>
      <trkpt lat="47.52443" lon="6.77474">
        <ele>393</ele>
        <time>2016-08-15T06:53:33.000Z</time>
      </trkpt>
      <trkpt lat="47.52447" lon="6.77477">
        <ele>393</ele>
        <time>2016-08-15T06:53:34.000Z</time>
      </trkpt>
      <trkpt lat="47.5245" lon="6.77478">
        <ele>393</ele>
        <time>2016-08-15T06:53:35.000Z</time>
      </trkpt>
      <trkpt lat="47.52455" lon="6.77481">
        <ele>393</ele>
        <time>2016-08-15T06:53:36.000Z</time>
      </trkpt>
      <trkpt lat="47.52461" lon="6.77481">
        <ele>393</ele>
        <time>2016-08-15T06:53:37.000Z</time>
      </trkpt>
      <trkpt lat="47.52466" lon="6.77482">
        <ele>393</ele>
        <time>2016-08-15T06:53:38.000Z</time>
      </trkpt>
      <trkpt lat="47.5247" lon="6.77483">
        <ele>393</ele>
        <time>2016-08-15T06:53:39.000Z</time>
      </trkpt>
      <trkpt lat="47.52475" lon="6.77484">
        <ele>393</ele>
        <time>2016-08-15T06:53:40.000Z</time>
      </trkpt>
      <trkpt lat="47.52479" lon="6.77486">
        <ele>393</ele>
        <time>2016-08-15T06:53:41.000Z</time>
      </trkpt>
      <trkpt lat="47.52483" lon="6.77486">
        <ele>394</ele>
        <time>2016-08-15T06:53:42.000Z</time>
      </trkpt>
      <trkpt lat="47.52488" lon="6.77487">
        <ele>394</ele>
        <time>2016-08-15T06:53:43.000Z</time>
      </trkpt>
      <trkpt lat="47.52495" lon="6.77488">
        <ele>394</ele>
        <time>2016-08-15T06:53:44.000Z</time>
      </trkpt>
      <trkpt lat="47.52499" lon="6.77487">
        <ele>394</ele>
        <time>2016-08-15T06:53:45.000Z</time>
      </trkpt>
      <trkpt lat="47.52503" lon="6.77486">
        <ele>394</ele>
        <time>2016-08-15T06:53:46.000Z</time>
      </trkpt>
      <trkpt lat="47.52508" lon="6.77487">
        <ele>394</ele>
        <time>2016-08-15T06:53:47.000Z</time>
      </trkpt>
      <trkpt lat="47.52513" lon="6.77486">
        <ele>394</ele>
        <time>2016-08-15T06:53:48.000Z</time>
      </trkpt>
      <trkpt lat="47.52518" lon="6.77485">
        <ele>394</ele>
        <time>2016-08-15T06:53:49.000Z</time>
      </trkpt>
      <trkpt lat="47.52524" lon="6.77484">
        <ele>394</ele>
        <time>2016-08-15T06:53:50.000Z</time>
      </trkpt>
      <trkpt lat="47.52529" lon="6.77483">
        <ele>394</ele>
        <time>2016-08-15T06:53:51.000Z</time>
      </trkpt>
      <trkpt lat="47.52533" lon="6.77482">
        <ele>394</ele>
        <time>2016-08-15T06:53:52.000Z</time>
      </trkpt>
      <trkpt lat="47.52537" lon="6.77482">
        <ele>394</ele>
        <time>2016-08-15T06:53:53.000Z</time>
      </trkpt>
      <trkpt lat="47.52541" lon="6.77482">
        <ele>394</ele>
        <time>2016-08-15T06:53:54.000Z</time>
      </trkpt>
      <trkpt lat="47.52544" lon="6.77483">
        <ele>394</ele>
        <time>2016-08-15T06:53:55.000Z</time>
      </trkpt>
      <trkpt lat="47.52548" lon="6.77485">
        <ele>394</ele>
        <time>2016-08-15T06:53:56.000Z</time>
      </trkpt>
      <trkpt lat="47.52553" lon="6.77486">
        <ele>395</ele>
        <time>2016-08-15T06:53:57.000Z</time>
      </trkpt>
      <trkpt lat="47.52556" lon="6.77488">
        <ele>395</ele>
        <time>2016-08-15T06:53:58.000Z</time>
      </trkpt>
      <trkpt lat="47.52561" lon="6.77491">
        <ele>395</ele>
        <time>2016-08-15T06:53:59.000Z</time>
      </trkpt>
      <trkpt lat="47.52565" lon="6.77493">
        <ele>395</ele>
        <time>2016-08-15T06:54:00.000Z</time>
      </trkpt>
      <trkpt lat="47.52569" lon="6.77495">
        <ele>396</ele>
        <time>2016-08-15T06:54:01.000Z</time>
      </trkpt>
      <trkpt lat="47.52574" lon="6.77496">
        <ele>396</ele>
        <time>2016-08-15T06:54:02.000Z</time>
      </trkpt>
      <trkpt lat="47.52578" lon="6.77498">
        <ele>396</ele>
        <time>2016-08-15T06:54:03.000Z</time>
      </trkpt>
      <trkpt lat="47.52581" lon="6.775">
        <ele>397</ele>
        <time>2016-08-15T06:54:04.000Z</time>
      </trkpt>
      <trkpt lat="47.52585" lon="6.77503">
        <ele>397</ele>
        <time>2016-08-15T06:54:05.000Z</time>
      </trkpt>
      <trkpt lat="47.5259" lon="6.77505">
        <ele>397</ele>
        <time>2016-08-15T06:54:06.000Z</time>
      </trkpt>
      <trkpt lat="47.52595" lon="6.77507">
        <ele>397</ele>
        <time>2016-08-15T06:54:07.000Z</time>
      </trkpt>
      <trkpt lat="47.52599" lon="6.77507">
        <ele>397</ele>
        <time>2016-08-15T06:54:08.000Z</time>
      </trkpt>
      <trkpt lat="47.52604" lon="6.77506">
        <ele>397</ele>
        <time>2016-08-15T06:54:09.000Z</time>
      </trkpt>
      <trkpt lat="47.52608" lon="6.77504">
        <ele>397</ele>
        <time>2016-08-15T06:54:10.000Z</time>
      </trkpt>
      <trkpt lat="47.52612" lon="6.77501">
        <ele>397</ele>
        <time>2016-08-15T06:54:11.000Z</time>
      </trkpt>
      <trkpt lat="47.52615" lon="6.77496">
        <ele>397</ele>
        <time>2016-08-15T06:54:12.000Z</time>
      </trkpt>
      <trkpt lat="47.52619" lon="6.7749">
        <ele>397</ele>
        <time>2016-08-15T06:54:13.000Z</time>
      </trkpt>
      <trkpt lat="47.52622" lon="6.77483">
        <ele>397</ele>
        <time>2016-08-15T06:54:14.000Z</time>
      </trkpt>
      <trkpt lat="47.52633" lon="6.77475">
        <ele>398</ele>
        <time>2016-08-15T06:54:15.000Z</time>
      </trkpt>
      <trkpt lat="47.52639" lon="6.77472">
        <ele>398</ele>
        <time>2016-08-15T06:54:16.000Z</time>
      </trkpt>
      <trkpt lat="47.52645" lon="6.77469">
        <ele>398</ele>
        <time>2016-08-15T06:54:17.000Z</time>
      </trkpt>
      <trkpt lat="47.52648" lon="6.77471">
        <ele>398</ele>
        <time>2016-08-15T06:54:19.000Z</time>
      </trkpt>
      <trkpt lat="47.5265" lon="6.7747">
        <ele>398</ele>
        <time>2016-08-15T06:54:20.000Z</time>
      </trkpt>
      <trkpt lat="47.52653" lon="6.77469">
        <ele>398</ele>
        <time>2016-08-15T06:54:21.000Z</time>
      </trkpt>
      <trkpt lat="47.52655" lon="6.77467">
        <ele>398</ele>
        <time>2016-08-15T06:54:22.000Z</time>
      </trkpt>
      <trkpt lat="47.52657" lon="6.77466">
        <ele>398</ele>
        <time>2016-08-15T06:54:23.000Z</time>
      </trkpt>
      <trkpt lat="47.52662" lon="6.77467">
        <ele>398</ele>
        <time>2016-08-15T06:54:24.000Z</time>
      </trkpt>
      <trkpt lat="47.52666" lon="6.77465">
        <ele>398</ele>
        <time>2016-08-15T06:54:25.000Z</time>
      </trkpt>
      <trkpt lat="47.5267" lon="6.77464">
        <ele>400</ele>
        <time>2016-08-15T06:54:26.000Z</time>
      </trkpt>
      <trkpt lat="47.52672" lon="6.77465">
        <ele>400</ele>
        <time>2016-08-15T06:54:27.000Z</time>
      </trkpt>
      <trkpt lat="47.52675" lon="6.77465">
        <ele>400</ele>
        <time>2016-08-15T06:54:28.000Z</time>
      </trkpt>
      <trkpt lat="47.52679" lon="6.77468">
        <ele>400</ele>
        <time>2016-08-15T06:54:30.000Z</time>
      </trkpt>
      <trkpt lat="47.5268" lon="6.7747">
        <ele>400</ele>
        <time>2016-08-15T06:54:31.000Z</time>
      </trkpt>
      <trkpt lat="47.52682" lon="6.77472">
        <ele>400</ele>
        <time>2016-08-15T06:54:32.000Z</time>
      </trkpt>
      <trkpt lat="47.52684" lon="6.77475">
        <ele>400</ele>
        <time>2016-08-15T06:54:33.000Z</time>
      </trkpt>
      <trkpt lat="47.52686" lon="6.77477">
        <ele>400</ele>
        <time>2016-08-15T06:54:34.000Z</time>
      </trkpt>
      <trkpt lat="47.52688" lon="6.77479">
        <ele>400</ele>
        <time>2016-08-15T06:54:35.000Z</time>
      </trkpt>
      <trkpt lat="47.52691" lon="6.77481">
        <ele>400</ele>
        <time>2016-08-15T06:54:36.000Z</time>
      </trkpt>
      <trkpt lat="47.52694" lon="6.77483">
        <ele>400</ele>
        <time>2016-08-15T06:54:37.000Z</time>
      </trkpt>
      <trkpt lat="47.52696" lon="6.77485">
        <ele>400</ele>
        <time>2016-08-15T06:54:38.000Z</time>
      </trkpt>
      <trkpt lat="47.52698" lon="6.77487">
        <ele>400</ele>
        <time>2016-08-15T06:54:39.000Z</time>
      </trkpt>
      <trkpt lat="47.527" lon="6.77489">
        <ele>400</ele>
        <time>2016-08-15T06:54:40.000Z</time>
      </trkpt>
      <trkpt lat="47.52703" lon="6.77491">
        <ele>400</ele>
        <time>2016-08-15T06:54:41.000Z</time>
      </trkpt>
      <trkpt lat="47.52706" lon="6.77492">
        <ele>400</ele>
        <time>2016-08-15T06:54:42.000Z</time>
      </trkpt>
      <trkpt lat="47.52709" lon="6.77493">
        <ele>400</ele>
        <time>2016-08-15T06:54:43.000Z</time>
      </trkpt>
      <trkpt lat="47.52712" lon="6.77495">
        <ele>400</ele>
        <time>2016-08-15T06:54:44.000Z</time>
      </trkpt>
      <trkpt lat="47.52715" lon="6.77497">
        <ele>400</ele>
        <time>2016-08-15T06:54:45.000Z</time>
      </trkpt>
      <trkpt lat="47.52719" lon="6.775">
        <ele>400</ele>
        <time>2016-08-15T06:54:46.000Z</time>
      </trkpt>
      <trkpt lat="47.52722" lon="6.77502">
        <ele>399</ele>
        <time>2016-08-15T06:54:47.000Z</time>
      </trkpt>
      <trkpt lat="47.52725" lon="6.77505">
        <ele>399</ele>
        <time>2016-08-15T06:54:48.000Z</time>
      </trkpt>
      <trkpt lat="47.52727" lon="6.77507">
        <ele>399</ele>
        <time>2016-08-15T06:54:49.000Z</time>
      </trkpt>
      <trkpt lat="47.5273" lon="6.7751">
        <ele>399</ele>
        <time>2016-08-15T06:54:50.000Z</time>
      </trkpt>
      <trkpt lat="47.52733" lon="6.77513">
        <ele>399</ele>
        <time>2016-08-15T06:54:51.000Z</time>
      </trkpt>
      <trkpt lat="47.52736" lon="6.77516">
        <ele>399</ele>
        <time>2016-08-15T06:54:52.000Z</time>
      </trkpt>
      <trkpt lat="47.5274" lon="6.77519">
        <ele>399</ele>
        <time>2016-08-15T06:54:53.000Z</time>
      </trkpt>
      <trkpt lat="47.52744" lon="6.77522">
        <ele>399</ele>
        <time>2016-08-15T06:54:54.000Z</time>
      </trkpt>
      <trkpt lat="47.52747" lon="6.77526">
        <ele>399</ele>
        <time>2016-08-15T06:54:55.000Z</time>
      </trkpt>
      <trkpt lat="47.52751" lon="6.77529">
        <ele>400</ele>
        <time>2016-08-15T06:54:56.000Z</time>
      </trkpt>
      <trkpt lat="47.52755" lon="6.77532">
        <ele>400</ele>
        <time>2016-08-15T06:54:57.000Z</time>
      </trkpt>
      <trkpt lat="47.52759" lon="6.77534">
        <ele>400</ele>
        <time>2016-08-15T06:54:58.000Z</time>
      </trkpt>
      <trkpt lat="47.52763" lon="6.77537">
        <ele>400</ele>
        <time>2016-08-15T06:54:59.000Z</time>
      </trkpt>
      <trkpt lat="47.52767" lon="6.77539">
        <ele>400</ele>
        <time>2016-08-15T06:55:00.000Z</time>
      </trkpt>
      <trkpt lat="47.52772" lon="6.77542">
        <ele>400</ele>
        <time>2016-08-15T06:55:01.000Z</time>
      </trkpt>
      <trkpt lat="47.52776" lon="6.77544">
        <ele>400</ele>
        <time>2016-08-15T06:55:02.000Z</time>
      </trkpt>
      <trkpt lat="47.52781" lon="6.77547">
        <ele>400</ele>
        <time>2016-08-15T06:55:03.000Z</time>
      </trkpt>
      <trkpt lat="47.52785" lon="6.7755">
        <ele>400</ele>
        <time>2016-08-15T06:55:04.000Z</time>
      </trkpt>
      <trkpt lat="47.52789" lon="6.77553">
        <ele>400</ele>
        <time>2016-08-15T06:55:05.000Z</time>
      </trkpt>
      <trkpt lat="47.52793" lon="6.77555">
        <ele>400</ele>
        <time>2016-08-15T06:55:06.000Z</time>
      </trkpt>
      <trkpt lat="47.52797" lon="6.77556">
        <ele>400</ele>
        <time>2016-08-15T06:55:07.000Z</time>
      </trkpt>
      <trkpt lat="47.528" lon="6.77558">
        <ele>400</ele>
        <time>2016-08-15T06:55:08.000Z</time>
      </trkpt>
      <trkpt lat="47.52803" lon="6.77559">
        <ele>400</ele>
        <time>2016-08-15T06:55:09.000Z</time>
      </trkpt>
      <trkpt lat="47.52806" lon="6.77561">
        <ele>400</ele>
        <time>2016-08-15T06:55:10.000Z</time>
      </trkpt>
      <trkpt lat="47.52809" lon="6.77563">
        <ele>400</ele>
        <time>2016-08-15T06:55:11.000Z</time>
      </trkpt>
      <trkpt lat="47.52811" lon="6.77565">
        <ele>400</ele>
        <time>2016-08-15T06:55:12.000Z</time>
      </trkpt>
      <trkpt lat="47.52813" lon="6.77566">
        <ele>400</ele>
        <time>2016-08-15T06:55:13.000Z</time>
      </trkpt>
      <trkpt lat="47.52816" lon="6.77567">
        <ele>400</ele>
        <time>2016-08-15T06:55:14.000Z</time>
      </trkpt>
      <trkpt lat="47.52819" lon="6.77568">
        <ele>400</ele>
        <time>2016-08-15T06:55:15.000Z</time>
      </trkpt>
      <trkpt lat="47.52823" lon="6.77569">
        <ele>400</ele>
        <time>2016-08-15T06:55:16.000Z</time>
      </trkpt>
      <trkpt lat="47.52827" lon="6.77571">
        <ele>401</ele>
        <time>2016-08-15T06:55:17.000Z</time>
      </trkpt>
      <trkpt lat="47.52832" lon="6.77572">
        <ele>401</ele>
        <time>2016-08-15T06:55:18.000Z</time>
      </trkpt>
      <trkpt lat="47.52837" lon="6.77573">
        <ele>401</ele>
        <time>2016-08-15T06:55:19.000Z</time>
      </trkpt>
      <trkpt lat="47.52841" lon="6.77573">
        <ele>401</ele>
        <time>2016-08-15T06:55:20.000Z</time>
      </trkpt>
      <trkpt lat="47.52845" lon="6.77574">
        <ele>401</ele>
        <time>2016-08-15T06:55:21.000Z</time>
      </trkpt>
      <trkpt lat="47.52849" lon="6.77575">
        <ele>401</ele>
        <time>2016-08-15T06:55:22.000Z</time>
      </trkpt>
      <trkpt lat="47.52854" lon="6.77577">
        <ele>401</ele>
        <time>2016-08-15T06:55:23.000Z</time>
      </trkpt>
      <trkpt lat="47.52858" lon="6.77579">
        <ele>401</ele>
        <time>2016-08-15T06:55:24.000Z</time>
      </trkpt>
      <trkpt lat="47.52863" lon="6.77581">
        <ele>401</ele>
        <time>2016-08-15T06:55:25.000Z</time>
      </trkpt>
      <trkpt lat="47.52867" lon="6.77582">
        <ele>401</ele>
        <time>2016-08-15T06:55:26.000Z</time>
      </trkpt>
      <trkpt lat="47.52872" lon="6.77583">
        <ele>401</ele>
        <time>2016-08-15T06:55:27.000Z</time>
      </trkpt>
      <trkpt lat="47.52876" lon="6.77584">
        <ele>400</ele>
        <time>2016-08-15T06:55:28.000Z</time>
      </trkpt>
      <trkpt lat="47.52881" lon="6.77585">
        <ele>400</ele>
        <time>2016-08-15T06:55:29.000Z</time>
      </trkpt>
      <trkpt lat="47.52886" lon="6.77585">
        <ele>401</ele>
        <time>2016-08-15T06:55:30.000Z</time>
      </trkpt>
      <trkpt lat="47.52891" lon="6.77586">
        <ele>401</ele>
        <time>2016-08-15T06:55:31.000Z</time>
      </trkpt>
      <trkpt lat="47.52896" lon="6.77586">
        <ele>401</ele>
        <time>2016-08-15T06:55:32.000Z</time>
      </trkpt>
      <trkpt lat="47.52901" lon="6.77585">
        <ele>401</ele>
        <time>2016-08-15T06:55:33.000Z</time>
      </trkpt>
      <trkpt lat="47.52906" lon="6.77586">
        <ele>401</ele>
        <time>2016-08-15T06:55:34.000Z</time>
      </trkpt>
      <trkpt lat="47.52911" lon="6.77586">
        <ele>401</ele>
        <time>2016-08-15T06:55:35.000Z</time>
      </trkpt>
      <trkpt lat="47.52915" lon="6.77587">
        <ele>402</ele>
        <time>2016-08-15T06:55:36.000Z</time>
      </trkpt>
      <trkpt lat="47.5292" lon="6.77588">
        <ele>402</ele>
        <time>2016-08-15T06:55:37.000Z</time>
      </trkpt>
      <trkpt lat="47.52925" lon="6.77589">
        <ele>402</ele>
        <time>2016-08-15T06:55:38.000Z</time>
      </trkpt>
      <trkpt lat="47.5293" lon="6.7759">
        <ele>402</ele>
        <time>2016-08-15T06:55:39.000Z</time>
      </trkpt>
      <trkpt lat="47.52935" lon="6.77591">
        <ele>402</ele>
        <time>2016-08-15T06:55:40.000Z</time>
      </trkpt>
      <trkpt lat="47.52939" lon="6.77592">
        <ele>402</ele>
        <time>2016-08-15T06:55:41.000Z</time>
      </trkpt>
      <trkpt lat="47.52944" lon="6.77594">
        <ele>402</ele>
        <time>2016-08-15T06:55:42.000Z</time>
      </trkpt>
      <trkpt lat="47.52948" lon="6.77595">
        <ele>402</ele>
        <time>2016-08-15T06:55:43.000Z</time>
      </trkpt>
      <trkpt lat="47.52952" lon="6.77596">
        <ele>402</ele>
        <time>2016-08-15T06:55:44.000Z</time>
      </trkpt>
      <trkpt lat="47.52956" lon="6.77597">
        <ele>402</ele>
        <time>2016-08-15T06:55:45.000Z</time>
      </trkpt>
      <trkpt lat="47.5296" lon="6.77598">
        <ele>402</ele>
        <time>2016-08-15T06:55:46.000Z</time>
      </trkpt>
      <trkpt lat="47.52965" lon="6.776">
        <ele>402</ele>
        <time>2016-08-15T06:55:47.000Z</time>
      </trkpt>
      <trkpt lat="47.5297" lon="6.77603">
        <ele>402</ele>
        <time>2016-08-15T06:55:48.000Z</time>
      </trkpt>
      <trkpt lat="47.52975" lon="6.77605">
        <ele>402</ele>
        <time>2016-08-15T06:55:49.000Z</time>
      </trkpt>
      <trkpt lat="47.5298" lon="6.77607">
        <ele>402</ele>
        <time>2016-08-15T06:55:50.000Z</time>
      </trkpt>
      <trkpt lat="47.52985" lon="6.77609">
        <ele>402</ele>
        <time>2016-08-15T06:55:51.000Z</time>
      </trkpt>
      <trkpt lat="47.5299" lon="6.77611">
        <ele>402</ele>
        <time>2016-08-15T06:55:52.000Z</time>
      </trkpt>
      <trkpt lat="47.52995" lon="6.77613">
        <ele>402</ele>
        <time>2016-08-15T06:55:53.000Z</time>
      </trkpt>
      <trkpt lat="47.53001" lon="6.77615">
        <ele>404</ele>
        <time>2016-08-15T06:55:54.000Z</time>
      </trkpt>
      <trkpt lat="47.53006" lon="6.77618">
        <ele>403</ele>
        <time>2016-08-15T06:55:55.000Z</time>
      </trkpt>
      <trkpt lat="47.53022" lon="6.77621">
        <ele>403</ele>
        <time>2016-08-15T06:55:56.000Z</time>
      </trkpt>
      <trkpt lat="47.53028" lon="6.77624">
        <ele>403</ele>
        <time>2016-08-15T06:55:57.000Z</time>
      </trkpt>
      <trkpt lat="47.53033" lon="6.77626">
        <ele>403</ele>
        <time>2016-08-15T06:55:58.000Z</time>
      </trkpt>
      <trkpt lat="47.53039" lon="6.77627">
        <ele>403</ele>
        <time>2016-08-15T06:55:59.000Z</time>
      </trkpt>
      <trkpt lat="47.53044" lon="6.77627">
        <ele>403</ele>
        <time>2016-08-15T06:56:00.000Z</time>
      </trkpt>
      <trkpt lat="47.53049" lon="6.77626">
        <ele>404</ele>
        <time>2016-08-15T06:56:01.000Z</time>
      </trkpt>
      <trkpt lat="47.53053" lon="6.77625">
        <ele>404</ele>
        <time>2016-08-15T06:56:02.000Z</time>
      </trkpt>
      <trkpt lat="47.5306" lon="6.77624">
        <ele>404</ele>
        <time>2016-08-15T06:56:03.000Z</time>
      </trkpt>
      <trkpt lat="47.53066" lon="6.77619">
        <ele>404</ele>
        <time>2016-08-15T06:56:04.000Z</time>
      </trkpt>
      <trkpt lat="47.53077" lon="6.77615">
        <ele>404</ele>
        <time>2016-08-15T06:56:05.000Z</time>
      </trkpt>
      <trkpt lat="47.53084" lon="6.77617">
        <ele>405</ele>
        <time>2016-08-15T06:56:06.000Z</time>
      </trkpt>
      <trkpt lat="47.5309" lon="6.77619">
        <ele>405</ele>
        <time>2016-08-15T06:56:07.000Z</time>
      </trkpt>
      <trkpt lat="47.53104" lon="6.77624">
        <ele>405</ele>
        <time>2016-08-15T06:56:08.000Z</time>
      </trkpt>
      <trkpt lat="47.53111" lon="6.77622">
        <ele>405</ele>
        <time>2016-08-15T06:56:09.000Z</time>
      </trkpt>
      <trkpt lat="47.53117" lon="6.77616">
        <ele>405</ele>
        <time>2016-08-15T06:56:10.000Z</time>
      </trkpt>
      <trkpt lat="47.53122" lon="6.77609">
        <ele>405</ele>
        <time>2016-08-15T06:56:11.000Z</time>
      </trkpt>
      <trkpt lat="47.53129" lon="6.77604">
        <ele>405</ele>
        <time>2016-08-15T06:56:12.000Z</time>
      </trkpt>
      <trkpt lat="47.5313" lon="6.77602">
        <ele>405</ele>
        <time>2016-08-15T06:56:13.000Z</time>
      </trkpt>
      <trkpt lat="47.53134" lon="6.77598">
        <ele>405</ele>
        <time>2016-08-15T06:56:14.000Z</time>
      </trkpt>
      <trkpt lat="47.53137" lon="6.77597">
        <ele>404</ele>
        <time>2016-08-15T06:56:15.000Z</time>
      </trkpt>
      <trkpt lat="47.53142" lon="6.77593">
        <ele>404</ele>
        <time>2016-08-15T06:56:16.000Z</time>
      </trkpt>
      <trkpt lat="47.53147" lon="6.77591">
        <ele>404</ele>
        <time>2016-08-15T06:56:17.000Z</time>
      </trkpt>
      <trkpt lat="47.53153" lon="6.77586">
        <ele>404</ele>
        <time>2016-08-15T06:56:18.000Z</time>
      </trkpt>
      <trkpt lat="47.53162" lon="6.77583">
        <ele>403</ele>
        <time>2016-08-15T06:56:19.000Z</time>
      </trkpt>
      <trkpt lat="47.5317" lon="6.77581">
        <ele>402</ele>
        <time>2016-08-15T06:56:20.000Z</time>
      </trkpt>
      <trkpt lat="47.53178" lon="6.77568">
        <ele>399</ele>
        <time>2016-08-15T06:56:21.000Z</time>
      </trkpt>
      <trkpt lat="47.53186" lon="6.77557">
        <ele>397</ele>
        <time>2016-08-15T06:56:22.000Z</time>
      </trkpt>
      <trkpt lat="47.53193" lon="6.77545">
        <ele>396</ele>
        <time>2016-08-15T06:56:23.000Z</time>
      </trkpt>
      <trkpt lat="47.53199" lon="6.77539">
        <ele>396</ele>
        <time>2016-08-15T06:56:24.000Z</time>
      </trkpt>
      <trkpt lat="47.532" lon="6.77539">
        <ele>396</ele>
        <time>2016-08-15T06:56:25.000Z</time>
      </trkpt>
      <trkpt lat="47.53204" lon="6.77533">
        <ele>395</ele>
        <time>2016-08-15T06:56:26.000Z</time>
      </trkpt>
      <trkpt lat="47.53208" lon="6.77524">
        <ele>395</ele>
        <time>2016-08-15T06:56:27.000Z</time>
      </trkpt>
      <trkpt lat="47.53211" lon="6.77516">
        <ele>395</ele>
        <time>2016-08-15T06:56:28.000Z</time>
      </trkpt>
      <trkpt lat="47.53216" lon="6.77502">
        <ele>394</ele>
        <time>2016-08-15T06:56:29.000Z</time>
      </trkpt>
      <trkpt lat="47.53221" lon="6.77493">
        <ele>390</ele>
        <time>2016-08-15T06:56:30.000Z</time>
      </trkpt>
      <trkpt lat="47.53228" lon="6.77478">
        <ele>389</ele>
        <time>2016-08-15T06:56:31.000Z</time>
      </trkpt>
      <trkpt lat="47.53235" lon="6.7746">
        <ele>389</ele>
        <time>2016-08-15T06:56:32.000Z</time>
      </trkpt>
      <trkpt lat="47.5324" lon="6.77448">
        <ele>388</ele>
        <time>2016-08-15T06:56:33.000Z</time>
      </trkpt>
      <trkpt lat="47.53247" lon="6.77438">
        <ele>388</ele>
        <time>2016-08-15T06:56:34.000Z</time>
      </trkpt>
      <trkpt lat="47.53256" lon="6.77429">
        <ele>387</ele>
        <time>2016-08-15T06:56:35.000Z</time>
      </trkpt>
      <trkpt lat="47.53263" lon="6.77428">
        <ele>387</ele>
        <time>2016-08-15T06:56:36.000Z</time>
      </trkpt>
      <trkpt lat="47.53268" lon="6.77423">
        <ele>387</ele>
        <time>2016-08-15T06:56:37.000Z</time>
      </trkpt>
      <trkpt lat="47.53273" lon="6.77419">
        <ele>387</ele>
        <time>2016-08-15T06:56:38.000Z</time>
      </trkpt>
      <trkpt lat="47.53276" lon="6.77412">
        <ele>382</ele>
        <time>2016-08-15T06:56:39.000Z</time>
      </trkpt>
      <trkpt lat="47.5328" lon="6.77403">
        <ele>382</ele>
        <time>2016-08-15T06:56:40.000Z</time>
      </trkpt>
      <trkpt lat="47.53284" lon="6.77397">
        <ele>381</ele>
        <time>2016-08-15T06:56:41.000Z</time>
      </trkpt>
      <trkpt lat="47.5329" lon="6.77389">
        <ele>380</ele>
        <time>2016-08-15T06:56:42.000Z</time>
      </trkpt>
      <trkpt lat="47.53296" lon="6.77381">
        <ele>380</ele>
        <time>2016-08-15T06:56:43.000Z</time>
      </trkpt>
      <trkpt lat="47.53303" lon="6.77372">
        <ele>379</ele>
        <time>2016-08-15T06:56:44.000Z</time>
      </trkpt>
      <trkpt lat="47.5331" lon="6.77365">
        <ele>378</ele>
        <time>2016-08-15T06:56:45.000Z</time>
      </trkpt>
      <trkpt lat="47.53315" lon="6.7736">
        <ele>377</ele>
        <time>2016-08-15T06:56:46.000Z</time>
      </trkpt>
      <trkpt lat="47.53319" lon="6.7736">
        <ele>377</ele>
        <time>2016-08-15T06:56:47.000Z</time>
      </trkpt>
      <trkpt lat="47.53322" lon="6.77355">
        <ele>376</ele>
        <time>2016-08-15T06:56:48.000Z</time>
      </trkpt>
      <trkpt lat="47.53324" lon="6.77354">
        <ele>376</ele>
        <time>2016-08-15T06:56:49.000Z</time>
      </trkpt>
      <trkpt lat="47.53327" lon="6.77349">
        <ele>375</ele>
        <time>2016-08-15T06:56:50.000Z</time>
      </trkpt>
      <trkpt lat="47.53331" lon="6.77343">
        <ele>374</ele>
        <time>2016-08-15T06:56:51.000Z</time>
      </trkpt>
      <trkpt lat="47.53334" lon="6.77337">
        <ele>371</ele>
        <time>2016-08-15T06:56:52.000Z</time>
      </trkpt>
      <trkpt lat="47.53336" lon="6.77331">
        <ele>370</ele>
        <time>2016-08-15T06:56:53.000Z</time>
      </trkpt>
      <trkpt lat="47.53339" lon="6.77321">
        <ele>369</ele>
        <time>2016-08-15T06:56:54.000Z</time>
      </trkpt>
      <trkpt lat="47.53342" lon="6.77316">
        <ele>369</ele>
        <time>2016-08-15T06:56:55.000Z</time>
      </trkpt>
      <trkpt lat="47.53344" lon="6.77312">
        <ele>368</ele>
        <time>2016-08-15T06:56:56.000Z</time>
      </trkpt>
      <trkpt lat="47.53348" lon="6.77308">
        <ele>368</ele>
        <time>2016-08-15T06:56:57.000Z</time>
      </trkpt>
      <trkpt lat="47.53352" lon="6.77304">
        <ele>368</ele>
        <time>2016-08-15T06:56:58.000Z</time>
      </trkpt>
      <trkpt lat="47.53355" lon="6.773">
        <ele>367</ele>
        <time>2016-08-15T06:56:59.000Z</time>
      </trkpt>
      <trkpt lat="47.53358" lon="6.77295">
        <ele>367</ele>
        <time>2016-08-15T06:57:00.000Z</time>
      </trkpt>
      <trkpt lat="47.5336" lon="6.7729">
        <ele>367</ele>
        <time>2016-08-15T06:57:01.000Z</time>
      </trkpt>
      <trkpt lat="47.53362" lon="6.77284">
        <ele>367</ele>
        <time>2016-08-15T06:57:02.000Z</time>
      </trkpt>
      <trkpt lat="47.53366" lon="6.7728">
        <ele>366</ele>
        <time>2016-08-15T06:57:03.000Z</time>
      </trkpt>
      <trkpt lat="47.5337" lon="6.77277">
        <ele>366</ele>
        <time>2016-08-15T06:57:04.000Z</time>
      </trkpt>
      <trkpt lat="47.53374" lon="6.77274">
        <ele>366</ele>
        <time>2016-08-15T06:57:05.000Z</time>
      </trkpt>
      <trkpt lat="47.53377" lon="6.77273">
        <ele>366</ele>
        <time>2016-08-15T06:57:06.000Z</time>
      </trkpt>
      <trkpt lat="47.5338" lon="6.77269">
        <ele>366</ele>
        <time>2016-08-15T06:57:08.000Z</time>
      </trkpt>
      <trkpt lat="47.53381" lon="6.77267">
        <ele>366</ele>
        <time>2016-08-15T06:57:09.000Z</time>
      </trkpt>
      <trkpt lat="47.53383" lon="6.77262">
        <ele>366</ele>
        <time>2016-08-15T06:57:12.000Z</time>
      </trkpt>
      <trkpt lat="47.53385" lon="6.77261">
        <ele>366</ele>
        <time>2016-08-15T06:57:13.000Z</time>
      </trkpt>
      <trkpt lat="47.53388" lon="6.77258">
        <ele>366</ele>
        <time>2016-08-15T06:57:16.000Z</time>
      </trkpt>
      <trkpt lat="47.53389" lon="6.77257">
        <ele>366</ele>
        <time>2016-08-15T06:57:17.000Z</time>
      </trkpt>
      <trkpt lat="47.53392" lon="6.77256">
        <ele>366</ele>
        <time>2016-08-15T06:57:20.000Z</time>
      </trkpt>
      <trkpt lat="47.53393" lon="6.77256">
        <ele>366</ele>
        <time>2016-08-15T06:57:21.000Z</time>
      </trkpt>
      <trkpt lat="47.53397" lon="6.77255">
        <ele>366</ele>
        <time>2016-08-15T06:57:23.000Z</time>
      </trkpt>
      <trkpt lat="47.53399" lon="6.77255">
        <ele>366</ele>
        <time>2016-08-15T06:57:24.000Z</time>
      </trkpt>
      <trkpt lat="47.53403" lon="6.77254">
        <ele>366</ele>
        <time>2016-08-15T06:57:26.000Z</time>
      </trkpt>
      <trkpt lat="47.53404" lon="6.77253">
        <ele>366</ele>
        <time>2016-08-15T06:57:27.000Z</time>
      </trkpt>
      <trkpt lat="47.53407" lon="6.7725">
        <ele>365</ele>
        <time>2016-08-15T06:57:31.000Z</time>
      </trkpt>
      <trkpt lat="47.53409" lon="6.77249">
        <ele>365</ele>
        <time>2016-08-15T06:57:32.000Z</time>
      </trkpt>
      <trkpt lat="47.53412" lon="6.77248">
        <ele>365</ele>
        <time>2016-08-15T06:57:36.000Z</time>
      </trkpt>
      <trkpt lat="47.53413" lon="6.77247">
        <ele>365</ele>
        <time>2016-08-15T06:57:37.000Z</time>
      </trkpt>
      <trkpt lat="47.53416" lon="6.77246">
        <ele>365</ele>
        <time>2016-08-15T06:57:40.000Z</time>
      </trkpt>
      <trkpt lat="47.53418" lon="6.77246">
        <ele>365</ele>
        <time>2016-08-15T06:57:41.000Z</time>
      </trkpt>
      <trkpt lat="47.53422" lon="6.77247">
        <ele>366</ele>
        <time>2016-08-15T06:57:45.000Z</time>
      </trkpt>
      <trkpt lat="47.53423" lon="6.77247">
        <ele>366</ele>
        <time>2016-08-15T06:57:46.000Z</time>
      </trkpt>
      <trkpt lat="47.53427" lon="6.77247">
        <ele>366</ele>
        <time>2016-08-15T06:57:49.000Z</time>
      </trkpt>
      <trkpt lat="47.53429" lon="6.77247">
        <ele>366</ele>
        <time>2016-08-15T06:57:50.000Z</time>
      </trkpt>
      <trkpt lat="47.53432" lon="6.77248">
        <ele>367</ele>
        <time>2016-08-15T06:57:52.000Z</time>
      </trkpt>
      <trkpt lat="47.53434" lon="6.77249">
        <ele>367</ele>
        <time>2016-08-15T06:57:53.000Z</time>
      </trkpt>
      <trkpt lat="47.53437" lon="6.7725">
        <ele>367</ele>
        <time>2016-08-15T06:57:55.000Z</time>
      </trkpt>
      <trkpt lat="47.53439" lon="6.7725">
        <ele>367</ele>
        <time>2016-08-15T06:57:56.000Z</time>
      </trkpt>
      <trkpt lat="47.53442" lon="6.77251">
        <ele>367</ele>
        <time>2016-08-15T06:57:58.000Z</time>
      </trkpt>
      <trkpt lat="47.53444" lon="6.77252">
        <ele>367</ele>
        <time>2016-08-15T06:57:59.000Z</time>
      </trkpt>
      <trkpt lat="47.53447" lon="6.77253">
        <ele>368</ele>
        <time>2016-08-15T06:58:01.000Z</time>
      </trkpt>
      <trkpt lat="47.53448" lon="6.77254">
        <ele>368</ele>
        <time>2016-08-15T06:58:02.000Z</time>
      </trkpt>
      <trkpt lat="47.53451" lon="6.77256">
        <ele>368</ele>
        <time>2016-08-15T06:58:05.000Z</time>
      </trkpt>
      <trkpt lat="47.53452" lon="6.77257">
        <ele>368</ele>
        <time>2016-08-15T06:58:06.000Z</time>
      </trkpt>
      <trkpt lat="47.53456" lon="6.77258">
        <ele>368</ele>
        <time>2016-08-15T06:58:09.000Z</time>
      </trkpt>
      <trkpt lat="47.53457" lon="6.77259">
        <ele>368</ele>
        <time>2016-08-15T06:58:10.000Z</time>
      </trkpt>
      <trkpt lat="47.53461" lon="6.77261">
        <ele>368</ele>
        <time>2016-08-15T06:58:13.000Z</time>
      </trkpt>
      <trkpt lat="47.53462" lon="6.77261">
        <ele>369</ele>
        <time>2016-08-15T06:58:14.000Z</time>
      </trkpt>
      <trkpt lat="47.53466" lon="6.77263">
        <ele>369</ele>
        <time>2016-08-15T06:58:17.000Z</time>
      </trkpt>
      <trkpt lat="47.53467" lon="6.77264">
        <ele>369</ele>
        <time>2016-08-15T06:58:18.000Z</time>
      </trkpt>
      <trkpt lat="47.5347" lon="6.77267">
        <ele>369</ele>
        <time>2016-08-15T06:58:20.000Z</time>
      </trkpt>
      <trkpt lat="47.53471" lon="6.77268">
        <ele>369</ele>
        <time>2016-08-15T06:58:21.000Z</time>
      </trkpt>
      <trkpt lat="47.53475" lon="6.77269">
        <ele>369</ele>
        <time>2016-08-15T06:58:24.000Z</time>
      </trkpt>
      <trkpt lat="47.53476" lon="6.77269">
        <ele>369</ele>
        <time>2016-08-15T06:58:25.000Z</time>
      </trkpt>
      <trkpt lat="47.5348" lon="6.77268">
        <ele>369</ele>
        <time>2016-08-15T06:58:29.000Z</time>
      </trkpt>
      <trkpt lat="47.53482" lon="6.77268">
        <ele>369</ele>
        <time>2016-08-15T06:58:30.000Z</time>
      </trkpt>
      <trkpt lat="47.53486" lon="6.77268">
        <ele>370</ele>
        <time>2016-08-15T06:58:33.000Z</time>
      </trkpt>
      <trkpt lat="47.53487" lon="6.77268">
        <ele>370</ele>
        <time>2016-08-15T06:58:34.000Z</time>
      </trkpt>
      <trkpt lat="47.53491" lon="6.77268">
        <ele>370</ele>
        <time>2016-08-15T06:58:37.000Z</time>
      </trkpt>
      <trkpt lat="47.53493" lon="6.77269">
        <ele>370</ele>
        <time>2016-08-15T06:58:38.000Z</time>
      </trkpt>
      <trkpt lat="47.53496" lon="6.7727">
        <ele>370</ele>
        <time>2016-08-15T06:58:40.000Z</time>
      </trkpt>
      <trkpt lat="47.53497" lon="6.77271">
        <ele>370</ele>
        <time>2016-08-15T06:58:41.000Z</time>
      </trkpt>
      <trkpt lat="47.53501" lon="6.77273">
        <ele>374</ele>
        <time>2016-08-15T06:58:43.000Z</time>
      </trkpt>
      <trkpt lat="47.53503" lon="6.77274">
        <ele>375</ele>
        <time>2016-08-15T06:58:44.000Z</time>
      </trkpt>
      <trkpt lat="47.53506" lon="6.77275">
        <ele>375</ele>
        <time>2016-08-15T06:58:45.000Z</time>
      </trkpt>
      <trkpt lat="47.53508" lon="6.77276">
        <ele>375</ele>
        <time>2016-08-15T06:58:46.000Z</time>
      </trkpt>
      <trkpt lat="47.53511" lon="6.77277">
        <ele>375</ele>
        <time>2016-08-15T06:58:48.000Z</time>
      </trkpt>
      <trkpt lat="47.53513" lon="6.77278">
        <ele>375</ele>
        <time>2016-08-15T06:58:49.000Z</time>
      </trkpt>
      <trkpt lat="47.53516" lon="6.77279">
        <ele>375</ele>
        <time>2016-08-15T06:58:51.000Z</time>
      </trkpt>
      <trkpt lat="47.53518" lon="6.77279">
        <ele>375</ele>
        <time>2016-08-15T06:58:52.000Z</time>
      </trkpt>
      <trkpt lat="47.53523" lon="6.7728">
        <ele>376</ele>
        <time>2016-08-15T06:58:54.000Z</time>
      </trkpt>
      <trkpt lat="47.53524" lon="6.7728">
        <ele>376</ele>
        <time>2016-08-15T06:58:55.000Z</time>
      </trkpt>
      <trkpt lat="47.53527" lon="6.77282">
        <ele>376</ele>
        <time>2016-08-15T06:58:57.000Z</time>
      </trkpt>
      <trkpt lat="47.53529" lon="6.77283">
        <ele>376</ele>
        <time>2016-08-15T06:58:58.000Z</time>
      </trkpt>
      <trkpt lat="47.53532" lon="6.77284">
        <ele>376</ele>
        <time>2016-08-15T06:59:01.000Z</time>
      </trkpt>
      <trkpt lat="47.53534" lon="6.77284">
        <ele>377</ele>
        <time>2016-08-15T06:59:02.000Z</time>
      </trkpt>
      <trkpt lat="47.53537" lon="6.77285">
        <ele>377</ele>
        <time>2016-08-15T06:59:04.000Z</time>
      </trkpt>
      <trkpt lat="47.53539" lon="6.77286">
        <ele>377</ele>
        <time>2016-08-15T06:59:05.000Z</time>
      </trkpt>
      <trkpt lat="47.53543" lon="6.77287">
        <ele>377</ele>
        <time>2016-08-15T06:59:07.000Z</time>
      </trkpt>
      <trkpt lat="47.53545" lon="6.77287">
        <ele>377</ele>
        <time>2016-08-15T06:59:08.000Z</time>
      </trkpt>
      <trkpt lat="47.53547" lon="6.77288">
        <ele>378</ele>
        <time>2016-08-15T06:59:09.000Z</time>
      </trkpt>
      <trkpt lat="47.53549" lon="6.77288">
        <ele>378</ele>
        <time>2016-08-15T06:59:10.000Z</time>
      </trkpt>
      <trkpt lat="47.53552" lon="6.77289">
        <ele>378</ele>
        <time>2016-08-15T06:59:11.000Z</time>
      </trkpt>
      <trkpt lat="47.53555" lon="6.77289">
        <ele>378</ele>
        <time>2016-08-15T06:59:12.000Z</time>
      </trkpt>
      <trkpt lat="47.53558" lon="6.77289">
        <ele>378</ele>
        <time>2016-08-15T06:59:13.000Z</time>
      </trkpt>
      <trkpt lat="47.5356" lon="6.7729">
        <ele>378</ele>
        <time>2016-08-15T06:59:14.000Z</time>
      </trkpt>
      <trkpt lat="47.53562" lon="6.77291">
        <ele>379</ele>
        <time>2016-08-15T06:59:15.000Z</time>
      </trkpt>
      <trkpt lat="47.53565" lon="6.77292">
        <ele>379</ele>
        <time>2016-08-15T06:59:16.000Z</time>
      </trkpt>
      <trkpt lat="47.53567" lon="6.77292">
        <ele>379</ele>
        <time>2016-08-15T06:59:17.000Z</time>
      </trkpt>
      <trkpt lat="47.5357" lon="6.77292">
        <ele>379</ele>
        <time>2016-08-15T06:59:18.000Z</time>
      </trkpt>
      <trkpt lat="47.53575" lon="6.77292">
        <ele>379</ele>
        <time>2016-08-15T06:59:20.000Z</time>
      </trkpt>
      <trkpt lat="47.53576" lon="6.77292">
        <ele>379</ele>
        <time>2016-08-15T06:59:21.000Z</time>
      </trkpt>
      <trkpt lat="47.5358" lon="6.77293">
        <ele>379</ele>
        <time>2016-08-15T06:59:23.000Z</time>
      </trkpt>
      <trkpt lat="47.53581" lon="6.77294">
        <ele>379</ele>
        <time>2016-08-15T06:59:24.000Z</time>
      </trkpt>
      <trkpt lat="47.53585" lon="6.77294">
        <ele>386</ele>
        <time>2016-08-15T06:59:26.000Z</time>
      </trkpt>
      <trkpt lat="47.53586" lon="6.77294">
        <ele>387</ele>
        <time>2016-08-15T06:59:27.000Z</time>
      </trkpt>
      <trkpt lat="47.5359" lon="6.77294">
        <ele>387</ele>
        <time>2016-08-15T06:59:29.000Z</time>
      </trkpt>
      <trkpt lat="47.53592" lon="6.77294">
        <ele>387</ele>
        <time>2016-08-15T06:59:30.000Z</time>
      </trkpt>
      <trkpt lat="47.53594" lon="6.77294">
        <ele>387</ele>
        <time>2016-08-15T06:59:31.000Z</time>
      </trkpt>
      <trkpt lat="47.53597" lon="6.77295">
        <ele>387</ele>
        <time>2016-08-15T06:59:32.000Z</time>
      </trkpt>
      <trkpt lat="47.53599" lon="6.77295">
        <ele>387</ele>
        <time>2016-08-15T06:59:33.000Z</time>
      </trkpt>
      <trkpt lat="47.53601" lon="6.77296">
        <ele>387</ele>
        <time>2016-08-15T06:59:34.000Z</time>
      </trkpt>
      <trkpt lat="47.53604" lon="6.77297">
        <ele>387</ele>
        <time>2016-08-15T06:59:35.000Z</time>
      </trkpt>
      <trkpt lat="47.53606" lon="6.77298">
        <ele>387</ele>
        <time>2016-08-15T06:59:36.000Z</time>
      </trkpt>
      <trkpt lat="47.53609" lon="6.773">
        <ele>387</ele>
        <time>2016-08-15T06:59:37.000Z</time>
      </trkpt>
      <trkpt lat="47.53612" lon="6.77302">
        <ele>387</ele>
        <time>2016-08-15T06:59:38.000Z</time>
      </trkpt>
      <trkpt lat="47.53615" lon="6.77303">
        <ele>387</ele>
        <time>2016-08-15T06:59:39.000Z</time>
      </trkpt>
      <trkpt lat="47.53617" lon="6.77304">
        <ele>388</ele>
        <time>2016-08-15T06:59:40.000Z</time>
      </trkpt>
      <trkpt lat="47.53619" lon="6.77306">
        <ele>388</ele>
        <time>2016-08-15T06:59:41.000Z</time>
      </trkpt>
      <trkpt lat="47.53621" lon="6.77307">
        <ele>388</ele>
        <time>2016-08-15T06:59:42.000Z</time>
      </trkpt>
      <trkpt lat="47.53623" lon="6.77309">
        <ele>388</ele>
        <time>2016-08-15T06:59:43.000Z</time>
      </trkpt>
      <trkpt lat="47.53625" lon="6.7731">
        <ele>388</ele>
        <time>2016-08-15T06:59:44.000Z</time>
      </trkpt>
      <trkpt lat="47.53627" lon="6.77312">
        <ele>388</ele>
        <time>2016-08-15T06:59:45.000Z</time>
      </trkpt>
      <trkpt lat="47.5363" lon="6.77313">
        <ele>388</ele>
        <time>2016-08-15T06:59:46.000Z</time>
      </trkpt>
      <trkpt lat="47.53633" lon="6.77315">
        <ele>388</ele>
        <time>2016-08-15T06:59:47.000Z</time>
      </trkpt>
      <trkpt lat="47.53636" lon="6.77318">
        <ele>388</ele>
        <time>2016-08-15T06:59:48.000Z</time>
      </trkpt>
      <trkpt lat="47.53638" lon="6.7732">
        <ele>388</ele>
        <time>2016-08-15T06:59:49.000Z</time>
      </trkpt>
      <trkpt lat="47.53641" lon="6.77323">
        <ele>389</ele>
        <time>2016-08-15T06:59:50.000Z</time>
      </trkpt>
      <trkpt lat="47.53644" lon="6.77326">
        <ele>389</ele>
        <time>2016-08-15T06:59:52.000Z</time>
      </trkpt>
      <trkpt lat="47.53645" lon="6.77328">
        <ele>389</ele>
        <time>2016-08-15T06:59:53.000Z</time>
      </trkpt>
      <trkpt lat="47.53648" lon="6.77331">
        <ele>389</ele>
        <time>2016-08-15T06:59:55.000Z</time>
      </trkpt>
      <trkpt lat="47.5365" lon="6.77333">
        <ele>389</ele>
        <time>2016-08-15T06:59:56.000Z</time>
      </trkpt>
      <trkpt lat="47.53654" lon="6.77336">
        <ele>387</ele>
        <time>2016-08-15T06:59:58.000Z</time>
      </trkpt>
      <trkpt lat="47.53656" lon="6.77338">
        <ele>387</ele>
        <time>2016-08-15T06:59:59.000Z</time>
      </trkpt>
      <trkpt lat="47.53658" lon="6.7734">
        <ele>387</ele>
        <time>2016-08-15T07:00:00.000Z</time>
      </trkpt>
      <trkpt lat="47.53661" lon="6.77342">
        <ele>387</ele>
        <time>2016-08-15T07:00:01.000Z</time>
      </trkpt>
      <trkpt lat="47.53664" lon="6.77344">
        <ele>387</ele>
        <time>2016-08-15T07:00:02.000Z</time>
      </trkpt>
      <trkpt lat="47.53666" lon="6.77346">
        <ele>387</ele>
        <time>2016-08-15T07:00:03.000Z</time>
      </trkpt>
      <trkpt lat="47.53669" lon="6.77347">
        <ele>390</ele>
        <time>2016-08-15T07:00:04.000Z</time>
      </trkpt>
      <trkpt lat="47.53671" lon="6.77347">
        <ele>390</ele>
        <time>2016-08-15T07:00:05.000Z</time>
      </trkpt>
      <trkpt lat="47.53674" lon="6.77347">
        <ele>390</ele>
        <time>2016-08-15T07:00:06.000Z</time>
      </trkpt>
      <trkpt lat="47.53676" lon="6.77348">
        <ele>390</ele>
        <time>2016-08-15T07:00:07.000Z</time>
      </trkpt>
      <trkpt lat="47.53679" lon="6.77348">
        <ele>390</ele>
        <time>2016-08-15T07:00:08.000Z</time>
      </trkpt>
      <trkpt lat="47.53682" lon="6.77348">
        <ele>390</ele>
        <time>2016-08-15T07:00:09.000Z</time>
      </trkpt>
      <trkpt lat="47.53685" lon="6.77348">
        <ele>390</ele>
        <time>2016-08-15T07:00:10.000Z</time>
      </trkpt>
      <trkpt lat="47.53687" lon="6.77348">
        <ele>390</ele>
        <time>2016-08-15T07:00:11.000Z</time>
      </trkpt>
      <trkpt lat="47.5369" lon="6.77349">
        <ele>390</ele>
        <time>2016-08-15T07:00:12.000Z</time>
      </trkpt>
      <trkpt lat="47.53692" lon="6.77349">
        <ele>390</ele>
        <time>2016-08-15T07:00:13.000Z</time>
      </trkpt>
      <trkpt lat="47.53694" lon="6.77348">
        <ele>390</ele>
        <time>2016-08-15T07:00:14.000Z</time>
      </trkpt>
      <trkpt lat="47.53697" lon="6.77348">
        <ele>391</ele>
        <time>2016-08-15T07:00:15.000Z</time>
      </trkpt>
      <trkpt lat="47.53699" lon="6.77348">
        <ele>391</ele>
        <time>2016-08-15T07:00:16.000Z</time>
      </trkpt>
      <trkpt lat="47.53702" lon="6.77347">
        <ele>391</ele>
        <time>2016-08-15T07:00:17.000Z</time>
      </trkpt>
      <trkpt lat="47.53704" lon="6.77346">
        <ele>391</ele>
        <time>2016-08-15T07:00:18.000Z</time>
      </trkpt>
      <trkpt lat="47.53707" lon="6.77345">
        <ele>391</ele>
        <time>2016-08-15T07:00:19.000Z</time>
      </trkpt>
      <trkpt lat="47.53709" lon="6.77344">
        <ele>391</ele>
        <time>2016-08-15T07:00:20.000Z</time>
      </trkpt>
      <trkpt lat="47.53712" lon="6.77343">
        <ele>391</ele>
        <time>2016-08-15T07:00:21.000Z</time>
      </trkpt>
      <trkpt lat="47.53714" lon="6.77342">
        <ele>392</ele>
        <time>2016-08-15T07:00:22.000Z</time>
      </trkpt>
      <trkpt lat="47.53716" lon="6.7734">
        <ele>392</ele>
        <time>2016-08-15T07:00:23.000Z</time>
      </trkpt>
      <trkpt lat="47.53718" lon="6.77338">
        <ele>392</ele>
        <time>2016-08-15T07:00:24.000Z</time>
      </trkpt>
      <trkpt lat="47.53721" lon="6.77337">
        <ele>392</ele>
        <time>2016-08-15T07:00:25.000Z</time>
      </trkpt>
      <trkpt lat="47.53723" lon="6.77335">
        <ele>392</ele>
        <time>2016-08-15T07:00:26.000Z</time>
      </trkpt>
      <trkpt lat="47.53726" lon="6.77333">
        <ele>396</ele>
        <time>2016-08-15T07:00:27.000Z</time>
      </trkpt>
      <trkpt lat="47.53729" lon="6.77329">
        <ele>396</ele>
        <time>2016-08-15T07:00:29.000Z</time>
      </trkpt>
      <trkpt lat="47.53731" lon="6.77327">
        <ele>396</ele>
        <time>2016-08-15T07:00:30.000Z</time>
      </trkpt>
      <trkpt lat="47.53733" lon="6.77325">
        <ele>396</ele>
        <time>2016-08-15T07:00:31.000Z</time>
      </trkpt>
      <trkpt lat="47.53735" lon="6.77324">
        <ele>396</ele>
        <time>2016-08-15T07:00:32.000Z</time>
      </trkpt>
      <trkpt lat="47.53737" lon="6.77322">
        <ele>396</ele>
        <time>2016-08-15T07:00:33.000Z</time>
      </trkpt>
      <trkpt lat="47.53739" lon="6.77321">
        <ele>396</ele>
        <time>2016-08-15T07:00:34.000Z</time>
      </trkpt>
      <trkpt lat="47.53741" lon="6.77318">
        <ele>396</ele>
        <time>2016-08-15T07:00:35.000Z</time>
      </trkpt>
      <trkpt lat="47.53742" lon="6.77316">
        <ele>396</ele>
        <time>2016-08-15T07:00:36.000Z</time>
      </trkpt>
      <trkpt lat="47.53745" lon="6.77311">
        <ele>396</ele>
        <time>2016-08-15T07:00:38.000Z</time>
      </trkpt>
      <trkpt lat="47.53746" lon="6.77309">
        <ele>396</ele>
        <time>2016-08-15T07:00:39.000Z</time>
      </trkpt>
      <trkpt lat="47.53749" lon="6.77304">
        <ele>396</ele>
        <time>2016-08-15T07:00:41.000Z</time>
      </trkpt>
      <trkpt lat="47.5375" lon="6.77301">
        <ele>397</ele>
        <time>2016-08-15T07:00:42.000Z</time>
      </trkpt>
      <trkpt lat="47.53752" lon="6.77296">
        <ele>401</ele>
        <time>2016-08-15T07:00:44.000Z</time>
      </trkpt>
      <trkpt lat="47.53753" lon="6.77292">
        <ele>401</ele>
        <time>2016-08-15T07:00:45.000Z</time>
      </trkpt>
      <trkpt lat="47.53754" lon="6.77289">
        <ele>401</ele>
        <time>2016-08-15T07:00:46.000Z</time>
      </trkpt>
      <trkpt lat="47.53754" lon="6.77285">
        <ele>401</ele>
        <time>2016-08-15T07:00:47.000Z</time>
      </trkpt>
      <trkpt lat="47.53755" lon="6.77282">
        <ele>402</ele>
        <time>2016-08-15T07:00:48.000Z</time>
      </trkpt>
      <trkpt lat="47.53755" lon="6.77279">
        <ele>402</ele>
        <time>2016-08-15T07:00:49.000Z</time>
      </trkpt>
      <trkpt lat="47.53756" lon="6.77272">
        <ele>402</ele>
        <time>2016-08-15T07:00:51.000Z</time>
      </trkpt>
      <trkpt lat="47.53756" lon="6.77269">
        <ele>402</ele>
        <time>2016-08-15T07:00:52.000Z</time>
      </trkpt>
      <trkpt lat="47.53757" lon="6.77265">
        <ele>402</ele>
        <time>2016-08-15T07:00:53.000Z</time>
      </trkpt>
      <trkpt lat="47.53758" lon="6.77261">
        <ele>402</ele>
        <time>2016-08-15T07:00:54.000Z</time>
      </trkpt>
      <trkpt lat="47.53759" lon="6.77258">
        <ele>402</ele>
        <time>2016-08-15T07:00:55.000Z</time>
      </trkpt>
      <trkpt lat="47.5376" lon="6.77255">
        <ele>402</ele>
        <time>2016-08-15T07:00:56.000Z</time>
      </trkpt>
      <trkpt lat="47.53761" lon="6.77251">
        <ele>402</ele>
        <time>2016-08-15T07:00:57.000Z</time>
      </trkpt>
      <trkpt lat="47.53762" lon="6.77248">
        <ele>404</ele>
        <time>2016-08-15T07:00:58.000Z</time>
      </trkpt>
      <trkpt lat="47.53762" lon="6.77245">
        <ele>405</ele>
        <time>2016-08-15T07:00:59.000Z</time>
      </trkpt>
      <trkpt lat="47.53763" lon="6.77241">
        <ele>405</ele>
        <time>2016-08-15T07:01:00.000Z</time>
      </trkpt>
      <trkpt lat="47.53765" lon="6.77235">
        <ele>406</ele>
        <time>2016-08-15T07:01:02.000Z</time>
      </trkpt>
      <trkpt lat="47.53766" lon="6.77233">
        <ele>406</ele>
        <time>2016-08-15T07:01:03.000Z</time>
      </trkpt>
      <trkpt lat="47.53768" lon="6.77227">
        <ele>407</ele>
        <time>2016-08-15T07:01:05.000Z</time>
      </trkpt>
      <trkpt lat="47.53768" lon="6.77224">
        <ele>407</ele>
        <time>2016-08-15T07:01:06.000Z</time>
      </trkpt>
      <trkpt lat="47.5377" lon="6.77218">
        <ele>408</ele>
        <time>2016-08-15T07:01:08.000Z</time>
      </trkpt>
      <trkpt lat="47.53771" lon="6.77216">
        <ele>408</ele>
        <time>2016-08-15T07:01:09.000Z</time>
      </trkpt>
      <trkpt lat="47.53771" lon="6.77211">
        <ele>408</ele>
        <time>2016-08-15T07:01:11.000Z</time>
      </trkpt>
      <trkpt lat="47.53771" lon="6.77208">
        <ele>408</ele>
        <time>2016-08-15T07:01:12.000Z</time>
      </trkpt>
      <trkpt lat="47.53773" lon="6.77202">
        <ele>409</ele>
        <time>2016-08-15T07:01:14.000Z</time>
      </trkpt>
      <trkpt lat="47.53773" lon="6.77199">
        <ele>409</ele>
        <time>2016-08-15T07:01:15.000Z</time>
      </trkpt>
      <trkpt lat="47.53773" lon="6.77193">
        <ele>409</ele>
        <time>2016-08-15T07:01:17.000Z</time>
      </trkpt>
      <trkpt lat="47.53774" lon="6.7719">
        <ele>409</ele>
        <time>2016-08-15T07:01:18.000Z</time>
      </trkpt>
      <trkpt lat="47.53775" lon="6.77184">
        <ele>410</ele>
        <time>2016-08-15T07:01:20.000Z</time>
      </trkpt>
      <trkpt lat="47.53775" lon="6.77181">
        <ele>410</ele>
        <time>2016-08-15T07:01:21.000Z</time>
      </trkpt>
      <trkpt lat="47.53776" lon="6.77176">
        <ele>410</ele>
        <time>2016-08-15T07:01:23.000Z</time>
      </trkpt>
      <trkpt lat="47.53777" lon="6.77174">
        <ele>410</ele>
        <time>2016-08-15T07:01:24.000Z</time>
      </trkpt>
      <trkpt lat="47.53778" lon="6.7717">
        <ele>410</ele>
        <time>2016-08-15T07:01:26.000Z</time>
      </trkpt>
      <trkpt lat="47.53778" lon="6.77168">
        <ele>410</ele>
        <time>2016-08-15T07:01:27.000Z</time>
      </trkpt>
      <trkpt lat="47.53779" lon="6.77162">
        <ele>413</ele>
        <time>2016-08-15T07:01:29.000Z</time>
      </trkpt>
      <trkpt lat="47.53779" lon="6.77159">
        <ele>413</ele>
        <time>2016-08-15T07:01:30.000Z</time>
      </trkpt>
      <trkpt lat="47.53781" lon="6.77154">
        <ele>414</ele>
        <time>2016-08-15T07:01:32.000Z</time>
      </trkpt>
      <trkpt lat="47.53781" lon="6.77152">
        <ele>414</ele>
        <time>2016-08-15T07:01:33.000Z</time>
      </trkpt>
      <trkpt lat="47.5378" lon="6.77146">
        <ele>414</ele>
        <time>2016-08-15T07:01:37.000Z</time>
      </trkpt>
      <trkpt lat="47.5378" lon="6.77145">
        <ele>414</ele>
        <time>2016-08-15T07:01:38.000Z</time>
      </trkpt>
      <trkpt lat="47.53779" lon="6.77139">
        <ele>414</ele>
        <time>2016-08-15T07:01:41.000Z</time>
      </trkpt>
      <trkpt lat="47.5378" lon="6.77137">
        <ele>414</ele>
        <time>2016-08-15T07:01:42.000Z</time>
      </trkpt>
      <trkpt lat="47.53781" lon="6.77132">
        <ele>414</ele>
        <time>2016-08-15T07:01:44.000Z</time>
      </trkpt>
      <trkpt lat="47.53781" lon="6.77129">
        <ele>414</ele>
        <time>2016-08-15T07:01:45.000Z</time>
      </trkpt>
      <trkpt lat="47.53781" lon="6.77123">
        <ele>415</ele>
        <time>2016-08-15T07:01:47.000Z</time>
      </trkpt>
      <trkpt lat="47.5378" lon="6.77121">
        <ele>415</ele>
        <time>2016-08-15T07:01:48.000Z</time>
      </trkpt>
      <trkpt lat="47.53781" lon="6.77116">
        <ele>415</ele>
        <time>2016-08-15T07:01:51.000Z</time>
      </trkpt>
      <trkpt lat="47.53782" lon="6.77114">
        <ele>415</ele>
        <time>2016-08-15T07:01:52.000Z</time>
      </trkpt>
      <trkpt lat="47.53783" lon="6.7711">
        <ele>415</ele>
        <time>2016-08-15T07:01:54.000Z</time>
      </trkpt>
      <trkpt lat="47.53783" lon="6.77107">
        <ele>415</ele>
        <time>2016-08-15T07:01:55.000Z</time>
      </trkpt>
      <trkpt lat="47.53782" lon="6.77102">
        <ele>415</ele>
        <time>2016-08-15T07:01:57.000Z</time>
      </trkpt>
      <trkpt lat="47.53782" lon="6.77099">
        <ele>415</ele>
        <time>2016-08-15T07:01:58.000Z</time>
      </trkpt>
      <trkpt lat="47.5378" lon="6.77093">
        <ele>415</ele>
        <time>2016-08-15T07:02:00.000Z</time>
      </trkpt>
      <trkpt lat="47.5378" lon="6.77091">
        <ele>415</ele>
        <time>2016-08-15T07:02:01.000Z</time>
      </trkpt>
      <trkpt lat="47.5378" lon="6.77086">
        <ele>415</ele>
        <time>2016-08-15T07:02:03.000Z</time>
      </trkpt>
      <trkpt lat="47.53781" lon="6.77084">
        <ele>415</ele>
        <time>2016-08-15T07:02:04.000Z</time>
      </trkpt>
      <trkpt lat="47.53781" lon="6.77078">
        <ele>418</ele>
        <time>2016-08-15T07:02:06.000Z</time>
      </trkpt>
      <trkpt lat="47.53781" lon="6.77074">
        <ele>418</ele>
        <time>2016-08-15T07:02:07.000Z</time>
      </trkpt>
      <trkpt lat="47.53781" lon="6.77071">
        <ele>418</ele>
        <time>2016-08-15T07:02:08.000Z</time>
      </trkpt>
      <trkpt lat="47.53781" lon="6.77067">
        <ele>418</ele>
        <time>2016-08-15T07:02:09.000Z</time>
      </trkpt>
      <trkpt lat="47.5378" lon="6.77063">
        <ele>418</ele>
        <time>2016-08-15T07:02:10.000Z</time>
      </trkpt>
      <trkpt lat="47.5378" lon="6.77059">
        <ele>418</ele>
        <time>2016-08-15T07:02:11.000Z</time>
      </trkpt>
      <trkpt lat="47.5378" lon="6.77055">
        <ele>418</ele>
        <time>2016-08-15T07:02:12.000Z</time>
      </trkpt>
      <trkpt lat="47.5378" lon="6.7705">
        <ele>418</ele>
        <time>2016-08-15T07:02:13.000Z</time>
      </trkpt>
      <trkpt lat="47.5378" lon="6.77045">
        <ele>418</ele>
        <time>2016-08-15T07:02:14.000Z</time>
      </trkpt>
      <trkpt lat="47.5378" lon="6.77041">
        <ele>419</ele>
        <time>2016-08-15T07:02:15.000Z</time>
      </trkpt>
      <trkpt lat="47.53781" lon="6.77037">
        <ele>419</ele>
        <time>2016-08-15T07:02:16.000Z</time>
      </trkpt>
      <trkpt lat="47.53782" lon="6.77033">
        <ele>419</ele>
        <time>2016-08-15T07:02:17.000Z</time>
      </trkpt>
      <trkpt lat="47.53783" lon="6.7703">
        <ele>419</ele>
        <time>2016-08-15T07:02:18.000Z</time>
      </trkpt>
      <trkpt lat="47.53784" lon="6.77026">
        <ele>419</ele>
        <time>2016-08-15T07:02:19.000Z</time>
      </trkpt>
      <trkpt lat="47.53784" lon="6.77023">
        <ele>419</ele>
        <time>2016-08-15T07:02:20.000Z</time>
      </trkpt>
      <trkpt lat="47.53785" lon="6.77019">
        <ele>419</ele>
        <time>2016-08-15T07:02:21.000Z</time>
      </trkpt>
      <trkpt lat="47.53785" lon="6.77015">
        <ele>419</ele>
        <time>2016-08-15T07:02:22.000Z</time>
      </trkpt>
      <trkpt lat="47.53785" lon="6.77011">
        <ele>419</ele>
        <time>2016-08-15T07:02:23.000Z</time>
      </trkpt>
      <trkpt lat="47.53785" lon="6.77007">
        <ele>419</ele>
        <time>2016-08-15T07:02:24.000Z</time>
      </trkpt>
      <trkpt lat="47.53786" lon="6.77002">
        <ele>419</ele>
        <time>2016-08-15T07:02:25.000Z</time>
      </trkpt>
      <trkpt lat="47.53786" lon="6.76997">
        <ele>421</ele>
        <time>2016-08-15T07:02:26.000Z</time>
      </trkpt>
      <trkpt lat="47.53786" lon="6.76992">
        <ele>421</ele>
        <time>2016-08-15T07:02:27.000Z</time>
      </trkpt>
      <trkpt lat="47.53787" lon="6.76987">
        <ele>421</ele>
        <time>2016-08-15T07:02:28.000Z</time>
      </trkpt>
      <trkpt lat="47.53788" lon="6.76982">
        <ele>422</ele>
        <time>2016-08-15T07:02:29.000Z</time>
      </trkpt>
      <trkpt lat="47.53789" lon="6.76977">
        <ele>422</ele>
        <time>2016-08-15T07:02:30.000Z</time>
      </trkpt>
      <trkpt lat="47.53789" lon="6.76972">
        <ele>422</ele>
        <time>2016-08-15T07:02:31.000Z</time>
      </trkpt>
      <trkpt lat="47.5379" lon="6.76966">
        <ele>422</ele>
        <time>2016-08-15T07:02:32.000Z</time>
      </trkpt>
      <trkpt lat="47.53791" lon="6.76961">
        <ele>422</ele>
        <time>2016-08-15T07:02:33.000Z</time>
      </trkpt>
      <trkpt lat="47.53792" lon="6.76956">
        <ele>422</ele>
        <time>2016-08-15T07:02:34.000Z</time>
      </trkpt>
      <trkpt lat="47.53793" lon="6.76951">
        <ele>422</ele>
        <time>2016-08-15T07:02:35.000Z</time>
      </trkpt>
      <trkpt lat="47.53793" lon="6.76946">
        <ele>422</ele>
        <time>2016-08-15T07:02:36.000Z</time>
      </trkpt>
      <trkpt lat="47.53793" lon="6.76942">
        <ele>422</ele>
        <time>2016-08-15T07:02:37.000Z</time>
      </trkpt>
      <trkpt lat="47.53792" lon="6.76938">
        <ele>422</ele>
        <time>2016-08-15T07:02:38.000Z</time>
      </trkpt>
      <trkpt lat="47.53791" lon="6.76934">
        <ele>422</ele>
        <time>2016-08-15T07:02:39.000Z</time>
      </trkpt>
      <trkpt lat="47.5379" lon="6.76928">
        <ele>422</ele>
        <time>2016-08-15T07:02:41.000Z</time>
      </trkpt>
      <trkpt lat="47.53789" lon="6.76925">
        <ele>422</ele>
        <time>2016-08-15T07:02:42.000Z</time>
      </trkpt>
      <trkpt lat="47.53787" lon="6.76918">
        <ele>422</ele>
        <time>2016-08-15T07:02:44.000Z</time>
      </trkpt>
      <trkpt lat="47.53787" lon="6.76915">
        <ele>423</ele>
        <time>2016-08-15T07:02:45.000Z</time>
      </trkpt>
      <trkpt lat="47.53787" lon="6.76912">
        <ele>423</ele>
        <time>2016-08-15T07:02:46.000Z</time>
      </trkpt>
      <trkpt lat="47.53787" lon="6.76909">
        <ele>423</ele>
        <time>2016-08-15T07:02:47.000Z</time>
      </trkpt>
      <trkpt lat="47.53787" lon="6.76905">
        <ele>423</ele>
        <time>2016-08-15T07:02:48.000Z</time>
      </trkpt>
      <trkpt lat="47.53787" lon="6.76902">
        <ele>423</ele>
        <time>2016-08-15T07:02:49.000Z</time>
      </trkpt>
      <trkpt lat="47.53788" lon="6.76896">
        <ele>424</ele>
        <time>2016-08-15T07:02:51.000Z</time>
      </trkpt>
      <trkpt lat="47.53789" lon="6.76893">
        <ele>424</ele>
        <time>2016-08-15T07:02:52.000Z</time>
      </trkpt>
      <trkpt lat="47.53788" lon="6.76888">
        <ele>424</ele>
        <time>2016-08-15T07:02:54.000Z</time>
      </trkpt>
      <trkpt lat="47.53788" lon="6.76885">
        <ele>424</ele>
        <time>2016-08-15T07:02:55.000Z</time>
      </trkpt>
      <trkpt lat="47.5379" lon="6.76879">
        <ele>424</ele>
        <time>2016-08-15T07:02:57.000Z</time>
      </trkpt>
      <trkpt lat="47.53791" lon="6.76876">
        <ele>424</ele>
        <time>2016-08-15T07:02:58.000Z</time>
      </trkpt>
      <trkpt lat="47.53794" lon="6.76871">
        <ele>424</ele>
        <time>2016-08-15T07:03:00.000Z</time>
      </trkpt>
      <trkpt lat="47.53794" lon="6.76869">
        <ele>424</ele>
        <time>2016-08-15T07:03:01.000Z</time>
      </trkpt>
      <trkpt lat="47.53795" lon="6.76863">
        <ele>424</ele>
        <time>2016-08-15T07:03:04.000Z</time>
      </trkpt>
      <trkpt lat="47.53795" lon="6.76861">
        <ele>424</ele>
        <time>2016-08-15T07:03:05.000Z</time>
      </trkpt>
      <trkpt lat="47.53794" lon="6.76856">
        <ele>424</ele>
        <time>2016-08-15T07:03:07.000Z</time>
      </trkpt>
      <trkpt lat="47.53794" lon="6.76852">
        <ele>424</ele>
        <time>2016-08-15T07:03:08.000Z</time>
      </trkpt>
      <trkpt lat="47.53795" lon="6.76849">
        <ele>424</ele>
        <time>2016-08-15T07:03:09.000Z</time>
      </trkpt>
      <trkpt lat="47.53795" lon="6.76845">
        <ele>425</ele>
        <time>2016-08-15T07:03:10.000Z</time>
      </trkpt>
      <trkpt lat="47.53795" lon="6.76842">
        <ele>425</ele>
        <time>2016-08-15T07:03:11.000Z</time>
      </trkpt>
      <trkpt lat="47.53795" lon="6.76839">
        <ele>425</ele>
        <time>2016-08-15T07:03:12.000Z</time>
      </trkpt>
      <trkpt lat="47.53795" lon="6.76833">
        <ele>427</ele>
        <time>2016-08-15T07:03:14.000Z</time>
      </trkpt>
      <trkpt lat="47.53796" lon="6.76829">
        <ele>427</ele>
        <time>2016-08-15T07:03:15.000Z</time>
      </trkpt>
      <trkpt lat="47.53796" lon="6.76826">
        <ele>427</ele>
        <time>2016-08-15T07:03:16.000Z</time>
      </trkpt>
      <trkpt lat="47.53796" lon="6.76822">
        <ele>427</ele>
        <time>2016-08-15T07:03:17.000Z</time>
      </trkpt>
      <trkpt lat="47.53797" lon="6.76818">
        <ele>427</ele>
        <time>2016-08-15T07:03:18.000Z</time>
      </trkpt>
      <trkpt lat="47.53797" lon="6.76815">
        <ele>427</ele>
        <time>2016-08-15T07:03:19.000Z</time>
      </trkpt>
      <trkpt lat="47.53798" lon="6.76811">
        <ele>427</ele>
        <time>2016-08-15T07:03:20.000Z</time>
      </trkpt>
      <trkpt lat="47.53799" lon="6.76808">
        <ele>427</ele>
        <time>2016-08-15T07:03:21.000Z</time>
      </trkpt>
      <trkpt lat="47.538" lon="6.76803">
        <ele>427</ele>
        <time>2016-08-15T07:03:23.000Z</time>
      </trkpt>
      <trkpt lat="47.538" lon="6.76801">
        <ele>427</ele>
        <time>2016-08-15T07:03:24.000Z</time>
      </trkpt>
      <trkpt lat="47.53801" lon="6.76797">
        <ele>427</ele>
        <time>2016-08-15T07:03:26.000Z</time>
      </trkpt>
      <trkpt lat="47.53802" lon="6.76794">
        <ele>428</ele>
        <time>2016-08-15T07:03:27.000Z</time>
      </trkpt>
      <trkpt lat="47.53803" lon="6.7679">
        <ele>428</ele>
        <time>2016-08-15T07:03:29.000Z</time>
      </trkpt>
      <trkpt lat="47.53804" lon="6.76788">
        <ele>428</ele>
        <time>2016-08-15T07:03:30.000Z</time>
      </trkpt>
      <trkpt lat="47.53805" lon="6.76783">
        <ele>428</ele>
        <time>2016-08-15T07:03:33.000Z</time>
      </trkpt>
      <trkpt lat="47.53806" lon="6.76781">
        <ele>428</ele>
        <time>2016-08-15T07:03:34.000Z</time>
      </trkpt>
      <trkpt lat="47.53806" lon="6.76776">
        <ele>428</ele>
        <time>2016-08-15T07:03:36.000Z</time>
      </trkpt>
      <trkpt lat="47.53806" lon="6.76774">
        <ele>428</ele>
        <time>2016-08-15T07:03:37.000Z</time>
      </trkpt>
      <trkpt lat="47.53807" lon="6.76768">
        <ele>429</ele>
        <time>2016-08-15T07:03:39.000Z</time>
      </trkpt>
      <trkpt lat="47.53808" lon="6.76765">
        <ele>429</ele>
        <time>2016-08-15T07:03:40.000Z</time>
      </trkpt>
      <trkpt lat="47.53809" lon="6.76759">
        <ele>429</ele>
        <time>2016-08-15T07:03:42.000Z</time>
      </trkpt>
      <trkpt lat="47.5381" lon="6.76757">
        <ele>429</ele>
        <time>2016-08-15T07:03:43.000Z</time>
      </trkpt>
      <trkpt lat="47.53811" lon="6.76751">
        <ele>429</ele>
        <time>2016-08-15T07:03:45.000Z</time>
      </trkpt>
      <trkpt lat="47.53812" lon="6.76748">
        <ele>431</ele>
        <time>2016-08-15T07:03:46.000Z</time>
      </trkpt>
      <trkpt lat="47.53812" lon="6.76745">
        <ele>431</ele>
        <time>2016-08-15T07:03:47.000Z</time>
      </trkpt>
      <trkpt lat="47.53813" lon="6.76742">
        <ele>431</ele>
        <time>2016-08-15T07:03:48.000Z</time>
      </trkpt>
      <trkpt lat="47.53814" lon="6.76738">
        <ele>431</ele>
        <time>2016-08-15T07:03:49.000Z</time>
      </trkpt>
      <trkpt lat="47.53815" lon="6.76734">
        <ele>431</ele>
        <time>2016-08-15T07:03:50.000Z</time>
      </trkpt>
      <trkpt lat="47.53816" lon="6.76731">
        <ele>431</ele>
        <time>2016-08-15T07:03:51.000Z</time>
      </trkpt>
      <trkpt lat="47.53817" lon="6.76728">
        <ele>431</ele>
        <time>2016-08-15T07:03:52.000Z</time>
      </trkpt>
      <trkpt lat="47.53819" lon="6.76723">
        <ele>432</ele>
        <time>2016-08-15T07:03:54.000Z</time>
      </trkpt>
      <trkpt lat="47.5382" lon="6.76721">
        <ele>432</ele>
        <time>2016-08-15T07:03:55.000Z</time>
      </trkpt>
      <trkpt lat="47.53822" lon="6.76718">
        <ele>432</ele>
        <time>2016-08-15T07:03:56.000Z</time>
      </trkpt>
      <trkpt lat="47.53823" lon="6.76715">
        <ele>432</ele>
        <time>2016-08-15T07:03:57.000Z</time>
      </trkpt>
      <trkpt lat="47.53826" lon="6.76711">
        <ele>432</ele>
        <time>2016-08-15T07:03:59.000Z</time>
      </trkpt>
      <trkpt lat="47.53828" lon="6.76709">
        <ele>432</ele>
        <time>2016-08-15T07:04:00.000Z</time>
      </trkpt>
      <trkpt lat="47.53829" lon="6.76706">
        <ele>432</ele>
        <time>2016-08-15T07:04:01.000Z</time>
      </trkpt>
      <trkpt lat="47.53831" lon="6.76704">
        <ele>432</ele>
        <time>2016-08-15T07:04:02.000Z</time>
      </trkpt>
      <trkpt lat="47.53833" lon="6.76702">
        <ele>432</ele>
        <time>2016-08-15T07:04:03.000Z</time>
      </trkpt>
      <trkpt lat="47.53835" lon="6.767">
        <ele>433</ele>
        <time>2016-08-15T07:04:04.000Z</time>
      </trkpt>
      <trkpt lat="47.53837" lon="6.76697">
        <ele>433</ele>
        <time>2016-08-15T07:04:05.000Z</time>
      </trkpt>
      <trkpt lat="47.5384" lon="6.76695">
        <ele>434</ele>
        <time>2016-08-15T07:04:06.000Z</time>
      </trkpt>
      <trkpt lat="47.53842" lon="6.76692">
        <ele>434</ele>
        <time>2016-08-15T07:04:07.000Z</time>
      </trkpt>
      <trkpt lat="47.53844" lon="6.76689">
        <ele>434</ele>
        <time>2016-08-15T07:04:08.000Z</time>
      </trkpt>
      <trkpt lat="47.53845" lon="6.76687">
        <ele>434</ele>
        <time>2016-08-15T07:04:09.000Z</time>
      </trkpt>
      <trkpt lat="47.53847" lon="6.76684">
        <ele>434</ele>
        <time>2016-08-15T07:04:10.000Z</time>
      </trkpt>
      <trkpt lat="47.53849" lon="6.76682">
        <ele>434</ele>
        <time>2016-08-15T07:04:11.000Z</time>
      </trkpt>
      <trkpt lat="47.53852" lon="6.76679">
        <ele>434</ele>
        <time>2016-08-15T07:04:12.000Z</time>
      </trkpt>
      <trkpt lat="47.53854" lon="6.76676">
        <ele>434</ele>
        <time>2016-08-15T07:04:13.000Z</time>
      </trkpt>
      <trkpt lat="47.53856" lon="6.76673">
        <ele>434</ele>
        <time>2016-08-15T07:04:14.000Z</time>
      </trkpt>
      <trkpt lat="47.53858" lon="6.7667">
        <ele>434</ele>
        <time>2016-08-15T07:04:15.000Z</time>
      </trkpt>
      <trkpt lat="47.53859" lon="6.76668">
        <ele>434</ele>
        <time>2016-08-15T07:04:16.000Z</time>
      </trkpt>
      <trkpt lat="47.53861" lon="6.76664">
        <ele>435</ele>
        <time>2016-08-15T07:04:18.000Z</time>
      </trkpt>
      <trkpt lat="47.53862" lon="6.76662">
        <ele>435</ele>
        <time>2016-08-15T07:04:19.000Z</time>
      </trkpt>
      <trkpt lat="47.53864" lon="6.76657">
        <ele>435</ele>
        <time>2016-08-15T07:04:22.000Z</time>
      </trkpt>
      <trkpt lat="47.53865" lon="6.76656">
        <ele>435</ele>
        <time>2016-08-15T07:04:23.000Z</time>
      </trkpt>
      <trkpt lat="47.53866" lon="6.7665">
        <ele>435</ele>
        <time>2016-08-15T07:04:28.000Z</time>
      </trkpt>
      <trkpt lat="47.53866" lon="6.7665">
        <ele>435</ele>
        <time>2016-08-15T07:04:29.000Z</time>
      </trkpt>
      <trkpt lat="47.53868" lon="6.76644">
        <ele>435</ele>
        <time>2016-08-15T07:06:10.000Z</time>
      </trkpt>
      <trkpt lat="47.53869" lon="6.76643">
        <ele>435</ele>
        <time>2016-08-15T07:06:11.000Z</time>
      </trkpt>
      <trkpt lat="47.53871" lon="6.76639">
        <ele>435</ele>
        <time>2016-08-15T07:06:13.000Z</time>
      </trkpt>
      <trkpt lat="47.53873" lon="6.76636">
        <ele>435</ele>
        <time>2016-08-15T07:06:14.000Z</time>
      </trkpt>
      <trkpt lat="47.53875" lon="6.76632">
        <ele>435</ele>
        <time>2016-08-15T07:06:15.000Z</time>
      </trkpt>
      <trkpt lat="47.53877" lon="6.76628">
        <ele>435</ele>
        <time>2016-08-15T07:06:16.000Z</time>
      </trkpt>
      <trkpt lat="47.53879" lon="6.76624">
        <ele>436</ele>
        <time>2016-08-15T07:06:17.000Z</time>
      </trkpt>
      <trkpt lat="47.53881" lon="6.76619">
        <ele>436</ele>
        <time>2016-08-15T07:06:18.000Z</time>
      </trkpt>
      <trkpt lat="47.53882" lon="6.76615">
        <ele>436</ele>
        <time>2016-08-15T07:06:19.000Z</time>
      </trkpt>
      <trkpt lat="47.53883" lon="6.7661">
        <ele>436</ele>
        <time>2016-08-15T07:06:20.000Z</time>
      </trkpt>
      <trkpt lat="47.53885" lon="6.76606">
        <ele>436</ele>
        <time>2016-08-15T07:06:21.000Z</time>
      </trkpt>
      <trkpt lat="47.53887" lon="6.76604">
        <ele>436</ele>
        <time>2016-08-15T07:06:22.000Z</time>
      </trkpt>
      <trkpt lat="47.5389" lon="6.76602">
        <ele>436</ele>
        <time>2016-08-15T07:06:23.000Z</time>
      </trkpt>
      <trkpt lat="47.53893" lon="6.76602">
        <ele>436</ele>
        <time>2016-08-15T07:06:24.000Z</time>
      </trkpt>
      <trkpt lat="47.53896" lon="6.76601">
        <ele>436</ele>
        <time>2016-08-15T07:06:25.000Z</time>
      </trkpt>
      <trkpt lat="47.53899" lon="6.76599">
        <ele>436</ele>
        <time>2016-08-15T07:06:26.000Z</time>
      </trkpt>
      <trkpt lat="47.53901" lon="6.76597">
        <ele>436</ele>
        <time>2016-08-15T07:06:27.000Z</time>
      </trkpt>
      <trkpt lat="47.53903" lon="6.76594">
        <ele>436</ele>
        <time>2016-08-15T07:06:28.000Z</time>
      </trkpt>
      <trkpt lat="47.53905" lon="6.7659">
        <ele>436</ele>
        <time>2016-08-15T07:06:29.000Z</time>
      </trkpt>
      <trkpt lat="47.53906" lon="6.76585">
        <ele>437</ele>
        <time>2016-08-15T07:06:30.000Z</time>
      </trkpt>
      <trkpt lat="47.53908" lon="6.76581">
        <ele>437</ele>
        <time>2016-08-15T07:06:31.000Z</time>
      </trkpt>
      <trkpt lat="47.53911" lon="6.76576">
        <ele>437</ele>
        <time>2016-08-15T07:06:32.000Z</time>
      </trkpt>
      <trkpt lat="47.53913" lon="6.76571">
        <ele>437</ele>
        <time>2016-08-15T07:06:33.000Z</time>
      </trkpt>
      <trkpt lat="47.53916" lon="6.76567">
        <ele>437</ele>
        <time>2016-08-15T07:06:34.000Z</time>
      </trkpt>
      <trkpt lat="47.53919" lon="6.76563">
        <ele>436</ele>
        <time>2016-08-15T07:06:35.000Z</time>
      </trkpt>
      <trkpt lat="47.53922" lon="6.76559">
        <ele>435</ele>
        <time>2016-08-15T07:06:36.000Z</time>
      </trkpt>
      <trkpt lat="47.53926" lon="6.76556">
        <ele>435</ele>
        <time>2016-08-15T07:06:37.000Z</time>
      </trkpt>
      <trkpt lat="47.53929" lon="6.76553">
        <ele>435</ele>
        <time>2016-08-15T07:06:38.000Z</time>
      </trkpt>
      <trkpt lat="47.53933" lon="6.7655">
        <ele>435</ele>
        <time>2016-08-15T07:06:39.000Z</time>
      </trkpt>
      <trkpt lat="47.53936" lon="6.76546">
        <ele>435</ele>
        <time>2016-08-15T07:06:40.000Z</time>
      </trkpt>
      <trkpt lat="47.53939" lon="6.76542">
        <ele>435</ele>
        <time>2016-08-15T07:06:41.000Z</time>
      </trkpt>
      <trkpt lat="47.53942" lon="6.76537">
        <ele>435</ele>
        <time>2016-08-15T07:06:42.000Z</time>
      </trkpt>
      <trkpt lat="47.53945" lon="6.76531">
        <ele>435</ele>
        <time>2016-08-15T07:06:43.000Z</time>
      </trkpt>
      <trkpt lat="47.53949" lon="6.76524">
        <ele>435</ele>
        <time>2016-08-15T07:06:44.000Z</time>
      </trkpt>
      <trkpt lat="47.53954" lon="6.76506">
        <ele>434</ele>
        <time>2016-08-15T07:06:45.000Z</time>
      </trkpt>
      <trkpt lat="47.53957" lon="6.76501">
        <ele>434</ele>
        <time>2016-08-15T07:06:46.000Z</time>
      </trkpt>
      <trkpt lat="47.5396" lon="6.76497">
        <ele>435</ele>
        <time>2016-08-15T07:06:47.000Z</time>
      </trkpt>
      <trkpt lat="47.53962" lon="6.76492">
        <ele>435</ele>
        <time>2016-08-15T07:06:48.000Z</time>
      </trkpt>
      <trkpt lat="47.53964" lon="6.76487">
        <ele>435</ele>
        <time>2016-08-15T07:06:49.000Z</time>
      </trkpt>
      <trkpt lat="47.53966" lon="6.76483">
        <ele>435</ele>
        <time>2016-08-15T07:06:50.000Z</time>
      </trkpt>
      <trkpt lat="47.53969" lon="6.76475">
        <ele>435</ele>
        <time>2016-08-15T07:06:51.000Z</time>
      </trkpt>
      <trkpt lat="47.53972" lon="6.7647">
        <ele>435</ele>
        <time>2016-08-15T07:06:52.000Z</time>
      </trkpt>
      <trkpt lat="47.53974" lon="6.76466">
        <ele>435</ele>
        <time>2016-08-15T07:06:53.000Z</time>
      </trkpt>
      <trkpt lat="47.53977" lon="6.76461">
        <ele>435</ele>
        <time>2016-08-15T07:06:54.000Z</time>
      </trkpt>
      <trkpt lat="47.53979" lon="6.76456">
        <ele>435</ele>
        <time>2016-08-15T07:06:55.000Z</time>
      </trkpt>
      <trkpt lat="47.53981" lon="6.76452">
        <ele>435</ele>
        <time>2016-08-15T07:06:56.000Z</time>
      </trkpt>
      <trkpt lat="47.53984" lon="6.76447">
        <ele>435</ele>
        <time>2016-08-15T07:06:57.000Z</time>
      </trkpt>
      <trkpt lat="47.53987" lon="6.76443">
        <ele>435</ele>
        <time>2016-08-15T07:06:58.000Z</time>
      </trkpt>
      <trkpt lat="47.5399" lon="6.76439">
        <ele>436</ele>
        <time>2016-08-15T07:06:59.000Z</time>
      </trkpt>
      <trkpt lat="47.53993" lon="6.76435">
        <ele>436</ele>
        <time>2016-08-15T07:07:00.000Z</time>
      </trkpt>
      <trkpt lat="47.53995" lon="6.76431">
        <ele>436</ele>
        <time>2016-08-15T07:07:01.000Z</time>
      </trkpt>
      <trkpt lat="47.53998" lon="6.76427">
        <ele>436</ele>
        <time>2016-08-15T07:07:02.000Z</time>
      </trkpt>
      <trkpt lat="47.54" lon="6.76424">
        <ele>436</ele>
        <time>2016-08-15T07:07:03.000Z</time>
      </trkpt>
      <trkpt lat="47.54003" lon="6.7642">
        <ele>437</ele>
        <time>2016-08-15T07:07:04.000Z</time>
      </trkpt>
      <trkpt lat="47.54005" lon="6.76415">
        <ele>437</ele>
        <time>2016-08-15T07:07:05.000Z</time>
      </trkpt>
      <trkpt lat="47.54007" lon="6.7641">
        <ele>437</ele>
        <time>2016-08-15T07:07:06.000Z</time>
      </trkpt>
      <trkpt lat="47.54009" lon="6.76405">
        <ele>437</ele>
        <time>2016-08-15T07:07:07.000Z</time>
      </trkpt>
      <trkpt lat="47.54012" lon="6.76401">
        <ele>436</ele>
        <time>2016-08-15T07:07:08.000Z</time>
      </trkpt>
      <trkpt lat="47.54014" lon="6.76397">
        <ele>436</ele>
        <time>2016-08-15T07:07:09.000Z</time>
      </trkpt>
      <trkpt lat="47.54017" lon="6.76393">
        <ele>436</ele>
        <time>2016-08-15T07:07:10.000Z</time>
      </trkpt>
      <trkpt lat="47.54019" lon="6.76388">
        <ele>436</ele>
        <time>2016-08-15T07:07:11.000Z</time>
      </trkpt>
      <trkpt lat="47.54022" lon="6.76383">
        <ele>436</ele>
        <time>2016-08-15T07:07:12.000Z</time>
      </trkpt>
      <trkpt lat="47.54024" lon="6.76378">
        <ele>436</ele>
        <time>2016-08-15T07:07:13.000Z</time>
      </trkpt>
      <trkpt lat="47.54026" lon="6.76372">
        <ele>436</ele>
        <time>2016-08-15T07:07:14.000Z</time>
      </trkpt>
      <trkpt lat="47.54028" lon="6.76366">
        <ele>436</ele>
        <time>2016-08-15T07:07:15.000Z</time>
      </trkpt>
      <trkpt lat="47.5403" lon="6.7636">
        <ele>436</ele>
        <time>2016-08-15T07:07:16.000Z</time>
      </trkpt>
      <trkpt lat="47.54032" lon="6.76355">
        <ele>436</ele>
        <time>2016-08-15T07:07:17.000Z</time>
      </trkpt>
      <trkpt lat="47.54035" lon="6.7635">
        <ele>436</ele>
        <time>2016-08-15T07:07:18.000Z</time>
      </trkpt>
      <trkpt lat="47.54037" lon="6.76345">
        <ele>436</ele>
        <time>2016-08-15T07:07:19.000Z</time>
      </trkpt>
      <trkpt lat="47.54039" lon="6.7634">
        <ele>436</ele>
        <time>2016-08-15T07:07:20.000Z</time>
      </trkpt>
      <trkpt lat="47.54041" lon="6.76335">
        <ele>436</ele>
        <time>2016-08-15T07:07:21.000Z</time>
      </trkpt>
      <trkpt lat="47.54048" lon="6.76316">
        <ele>436</ele>
        <time>2016-08-15T07:07:22.000Z</time>
      </trkpt>
      <trkpt lat="47.54051" lon="6.76309">
        <ele>436</ele>
        <time>2016-08-15T07:07:23.000Z</time>
      </trkpt>
      <trkpt lat="47.54052" lon="6.76303">
        <ele>436</ele>
        <time>2016-08-15T07:07:25.000Z</time>
      </trkpt>
      <trkpt lat="47.54053" lon="6.763">
        <ele>436</ele>
        <time>2016-08-15T07:07:26.000Z</time>
      </trkpt>
      <trkpt lat="47.54054" lon="6.76293">
        <ele>436</ele>
        <time>2016-08-15T07:07:27.000Z</time>
      </trkpt>
      <trkpt lat="47.54054" lon="6.76287">
        <ele>435</ele>
        <time>2016-08-15T07:07:28.000Z</time>
      </trkpt>
      <trkpt lat="47.54055" lon="6.76282">
        <ele>435</ele>
        <time>2016-08-15T07:07:29.000Z</time>
      </trkpt>
      <trkpt lat="47.54056" lon="6.76278">
        <ele>435</ele>
        <time>2016-08-15T07:07:30.000Z</time>
      </trkpt>
      <trkpt lat="47.54056" lon="6.76274">
        <ele>435</ele>
        <time>2016-08-15T07:07:31.000Z</time>
      </trkpt>
      <trkpt lat="47.54058" lon="6.7627">
        <ele>436</ele>
        <time>2016-08-15T07:07:32.000Z</time>
      </trkpt>
      <trkpt lat="47.54058" lon="6.76266">
        <ele>436</ele>
        <time>2016-08-15T07:07:33.000Z</time>
      </trkpt>
      <trkpt lat="47.5406" lon="6.76259">
        <ele>436</ele>
        <time>2016-08-15T07:07:35.000Z</time>
      </trkpt>
      <trkpt lat="47.5406" lon="6.76257">
        <ele>436</ele>
        <time>2016-08-15T07:07:36.000Z</time>
      </trkpt>
      <trkpt lat="47.54061" lon="6.76251">
        <ele>436</ele>
        <time>2016-08-15T07:07:38.000Z</time>
      </trkpt>
      <trkpt lat="47.54062" lon="6.76247">
        <ele>436</ele>
        <time>2016-08-15T07:07:39.000Z</time>
      </trkpt>
      <trkpt lat="47.54064" lon="6.76242">
        <ele>436</ele>
        <time>2016-08-15T07:07:40.000Z</time>
      </trkpt>
      <trkpt lat="47.54066" lon="6.76237">
        <ele>436</ele>
        <time>2016-08-15T07:07:41.000Z</time>
      </trkpt>
      <trkpt lat="47.54067" lon="6.76231">
        <ele>436</ele>
        <time>2016-08-15T07:07:42.000Z</time>
      </trkpt>
      <trkpt lat="47.54069" lon="6.76225">
        <ele>436</ele>
        <time>2016-08-15T07:07:43.000Z</time>
      </trkpt>
      <trkpt lat="47.54071" lon="6.76218">
        <ele>436</ele>
        <time>2016-08-15T07:07:44.000Z</time>
      </trkpt>
      <trkpt lat="47.54072" lon="6.76211">
        <ele>436</ele>
        <time>2016-08-15T07:07:45.000Z</time>
      </trkpt>
      <trkpt lat="47.54073" lon="6.76204">
        <ele>436</ele>
        <time>2016-08-15T07:07:46.000Z</time>
      </trkpt>
      <trkpt lat="47.54075" lon="6.76198">
        <ele>436</ele>
        <time>2016-08-15T07:07:47.000Z</time>
      </trkpt>
      <trkpt lat="47.54076" lon="6.76192">
        <ele>436</ele>
        <time>2016-08-15T07:07:48.000Z</time>
      </trkpt>
      <trkpt lat="47.54077" lon="6.76187">
        <ele>437</ele>
        <time>2016-08-15T07:07:49.000Z</time>
      </trkpt>
      <trkpt lat="47.54079" lon="6.76182">
        <ele>437</ele>
        <time>2016-08-15T07:07:50.000Z</time>
      </trkpt>
      <trkpt lat="47.54079" lon="6.76176">
        <ele>437</ele>
        <time>2016-08-15T07:07:51.000Z</time>
      </trkpt>
      <trkpt lat="47.54081" lon="6.7617">
        <ele>438</ele>
        <time>2016-08-15T07:07:52.000Z</time>
      </trkpt>
      <trkpt lat="47.54082" lon="6.76162">
        <ele>438</ele>
        <time>2016-08-15T07:07:53.000Z</time>
      </trkpt>
      <trkpt lat="47.54083" lon="6.76154">
        <ele>437</ele>
        <time>2016-08-15T07:07:54.000Z</time>
      </trkpt>
      <trkpt lat="47.54084" lon="6.76144">
        <ele>437</ele>
        <time>2016-08-15T07:07:55.000Z</time>
      </trkpt>
      <trkpt lat="47.54086" lon="6.76136">
        <ele>437</ele>
        <time>2016-08-15T07:07:56.000Z</time>
      </trkpt>
      <trkpt lat="47.54088" lon="6.76128">
        <ele>437</ele>
        <time>2016-08-15T07:07:57.000Z</time>
      </trkpt>
      <trkpt lat="47.54091" lon="6.76122">
        <ele>437</ele>
        <time>2016-08-15T07:07:58.000Z</time>
      </trkpt>
      <trkpt lat="47.54094" lon="6.76115">
        <ele>437</ele>
        <time>2016-08-15T07:07:59.000Z</time>
      </trkpt>
      <trkpt lat="47.54097" lon="6.76108">
        <ele>437</ele>
        <time>2016-08-15T07:08:00.000Z</time>
      </trkpt>
      <trkpt lat="47.54099" lon="6.761">
        <ele>437</ele>
        <time>2016-08-15T07:08:01.000Z</time>
      </trkpt>
      <trkpt lat="47.54102" lon="6.76093">
        <ele>437</ele>
        <time>2016-08-15T07:08:02.000Z</time>
      </trkpt>
      <trkpt lat="47.54104" lon="6.76085">
        <ele>437</ele>
        <time>2016-08-15T07:08:03.000Z</time>
      </trkpt>
      <trkpt lat="47.54106" lon="6.76078">
        <ele>436</ele>
        <time>2016-08-15T07:08:04.000Z</time>
      </trkpt>
      <trkpt lat="47.54108" lon="6.76072">
        <ele>436</ele>
        <time>2016-08-15T07:08:05.000Z</time>
      </trkpt>
      <trkpt lat="47.5411" lon="6.76065">
        <ele>436</ele>
        <time>2016-08-15T07:08:06.000Z</time>
      </trkpt>
      <trkpt lat="47.54112" lon="6.76059">
        <ele>436</ele>
        <time>2016-08-15T07:08:07.000Z</time>
      </trkpt>
      <trkpt lat="47.54114" lon="6.76052">
        <ele>436</ele>
        <time>2016-08-15T07:08:08.000Z</time>
      </trkpt>
      <trkpt lat="47.54116" lon="6.76045">
        <ele>436</ele>
        <time>2016-08-15T07:08:09.000Z</time>
      </trkpt>
      <trkpt lat="47.54117" lon="6.76037">
        <ele>436</ele>
        <time>2016-08-15T07:08:10.000Z</time>
      </trkpt>
      <trkpt lat="47.54118" lon="6.76029">
        <ele>436</ele>
        <time>2016-08-15T07:08:11.000Z</time>
      </trkpt>
      <trkpt lat="47.54118" lon="6.76021">
        <ele>436</ele>
        <time>2016-08-15T07:08:12.000Z</time>
      </trkpt>
      <trkpt lat="47.54119" lon="6.76013">
        <ele>436</ele>
        <time>2016-08-15T07:08:13.000Z</time>
      </trkpt>
      <trkpt lat="47.5412" lon="6.76005">
        <ele>436</ele>
        <time>2016-08-15T07:08:14.000Z</time>
      </trkpt>
      <trkpt lat="47.54121" lon="6.75997">
        <ele>436</ele>
        <time>2016-08-15T07:08:15.000Z</time>
      </trkpt>
      <trkpt lat="47.54122" lon="6.7599">
        <ele>436</ele>
        <time>2016-08-15T07:08:16.000Z</time>
      </trkpt>
      <trkpt lat="47.54123" lon="6.75983">
        <ele>436</ele>
        <time>2016-08-15T07:08:17.000Z</time>
      </trkpt>
      <trkpt lat="47.54123" lon="6.75976">
        <ele>436</ele>
        <time>2016-08-15T07:08:18.000Z</time>
      </trkpt>
      <trkpt lat="47.54124" lon="6.7597">
        <ele>436</ele>
        <time>2016-08-15T07:08:19.000Z</time>
      </trkpt>
      <trkpt lat="47.54124" lon="6.75964">
        <ele>436</ele>
        <time>2016-08-15T07:08:20.000Z</time>
      </trkpt>
      <trkpt lat="47.54124" lon="6.75957">
        <ele>437</ele>
        <time>2016-08-15T07:08:21.000Z</time>
      </trkpt>
      <trkpt lat="47.54124" lon="6.75949">
        <ele>437</ele>
        <time>2016-08-15T07:08:22.000Z</time>
      </trkpt>
      <trkpt lat="47.54125" lon="6.7594">
        <ele>437</ele>
        <time>2016-08-15T07:08:23.000Z</time>
      </trkpt>
      <trkpt lat="47.54125" lon="6.75931">
        <ele>437</ele>
        <time>2016-08-15T07:08:24.000Z</time>
      </trkpt>
      <trkpt lat="47.54126" lon="6.75921">
        <ele>437</ele>
        <time>2016-08-15T07:08:25.000Z</time>
      </trkpt>
      <trkpt lat="47.54129" lon="6.75889">
        <ele>439</ele>
        <time>2016-08-15T07:08:26.000Z</time>
      </trkpt>
      <trkpt lat="47.54132" lon="6.75885">
        <ele>439</ele>
        <time>2016-08-15T07:08:27.000Z</time>
      </trkpt>
      <trkpt lat="47.54133" lon="6.7588">
        <ele>439</ele>
        <time>2016-08-15T07:08:28.000Z</time>
      </trkpt>
      <trkpt lat="47.54133" lon="6.75875">
        <ele>439</ele>
        <time>2016-08-15T07:08:29.000Z</time>
      </trkpt>
      <trkpt lat="47.54133" lon="6.7587">
        <ele>439</ele>
        <time>2016-08-15T07:08:30.000Z</time>
      </trkpt>
      <trkpt lat="47.54134" lon="6.75865">
        <ele>439</ele>
        <time>2016-08-15T07:08:31.000Z</time>
      </trkpt>
      <trkpt lat="47.54134" lon="6.7586">
        <ele>439</ele>
        <time>2016-08-15T07:08:32.000Z</time>
      </trkpt>
      <trkpt lat="47.54135" lon="6.75855">
        <ele>440</ele>
        <time>2016-08-15T07:08:33.000Z</time>
      </trkpt>
      <trkpt lat="47.54136" lon="6.7585">
        <ele>440</ele>
        <time>2016-08-15T07:08:34.000Z</time>
      </trkpt>
      <trkpt lat="47.54138" lon="6.75844">
        <ele>440</ele>
        <time>2016-08-15T07:08:35.000Z</time>
      </trkpt>
      <trkpt lat="47.5414" lon="6.75837">
        <ele>440</ele>
        <time>2016-08-15T07:08:36.000Z</time>
      </trkpt>
      <trkpt lat="47.54142" lon="6.75829">
        <ele>442</ele>
        <time>2016-08-15T07:08:37.000Z</time>
      </trkpt>
      <trkpt lat="47.54145" lon="6.75823">
        <ele>443</ele>
        <time>2016-08-15T07:08:38.000Z</time>
      </trkpt>
      <trkpt lat="47.54147" lon="6.75817">
        <ele>443</ele>
        <time>2016-08-15T07:08:39.000Z</time>
      </trkpt>
      <trkpt lat="47.54148" lon="6.75812">
        <ele>443</ele>
        <time>2016-08-15T07:08:40.000Z</time>
      </trkpt>
      <trkpt lat="47.54149" lon="6.75808">
        <ele>443</ele>
        <time>2016-08-15T07:08:41.000Z</time>
      </trkpt>
      <trkpt lat="47.54152" lon="6.75805">
        <ele>443</ele>
        <time>2016-08-15T07:08:42.000Z</time>
      </trkpt>
      <trkpt lat="47.54154" lon="6.75801">
        <ele>443</ele>
        <time>2016-08-15T07:08:43.000Z</time>
      </trkpt>
      <trkpt lat="47.54157" lon="6.75798">
        <ele>443</ele>
        <time>2016-08-15T07:08:44.000Z</time>
      </trkpt>
      <trkpt lat="47.5416" lon="6.75794">
        <ele>444</ele>
        <time>2016-08-15T07:08:45.000Z</time>
      </trkpt>
      <trkpt lat="47.54162" lon="6.7579">
        <ele>444</ele>
        <time>2016-08-15T07:08:46.000Z</time>
      </trkpt>
      <trkpt lat="47.54163" lon="6.75787">
        <ele>444</ele>
        <time>2016-08-15T07:08:47.000Z</time>
      </trkpt>
      <trkpt lat="47.54165" lon="6.75783">
        <ele>444</ele>
        <time>2016-08-15T07:08:48.000Z</time>
      </trkpt>
      <trkpt lat="47.54167" lon="6.75778">
        <ele>447</ele>
        <time>2016-08-15T07:08:50.000Z</time>
      </trkpt>
      <trkpt lat="47.54167" lon="6.75775">
        <ele>447</ele>
        <time>2016-08-15T07:08:51.000Z</time>
      </trkpt>
      <trkpt lat="47.54169" lon="6.7577">
        <ele>447</ele>
        <time>2016-08-15T07:08:53.000Z</time>
      </trkpt>
      <trkpt lat="47.54169" lon="6.75768">
        <ele>447</ele>
        <time>2016-08-15T07:08:54.000Z</time>
      </trkpt>
      <trkpt lat="47.5417" lon="6.75763">
        <ele>448</ele>
        <time>2016-08-15T07:08:56.000Z</time>
      </trkpt>
      <trkpt lat="47.54171" lon="6.75761">
        <ele>448</ele>
        <time>2016-08-15T07:08:57.000Z</time>
      </trkpt>
      <trkpt lat="47.54173" lon="6.75757">
        <ele>448</ele>
        <time>2016-08-15T07:08:59.000Z</time>
      </trkpt>
      <trkpt lat="47.54175" lon="6.75753">
        <ele>448</ele>
        <time>2016-08-15T07:09:00.000Z</time>
      </trkpt>
      <trkpt lat="47.54176" lon="6.75749">
        <ele>449</ele>
        <time>2016-08-15T07:09:01.000Z</time>
      </trkpt>
      <trkpt lat="47.54177" lon="6.75745">
        <ele>449</ele>
        <time>2016-08-15T07:09:02.000Z</time>
      </trkpt>
      <trkpt lat="47.54179" lon="6.7574">
        <ele>450</ele>
        <time>2016-08-15T07:09:03.000Z</time>
      </trkpt>
      <trkpt lat="47.5418" lon="6.75735">
        <ele>450</ele>
        <time>2016-08-15T07:09:04.000Z</time>
      </trkpt>
      <trkpt lat="47.54181" lon="6.75731">
        <ele>450</ele>
        <time>2016-08-15T07:09:05.000Z</time>
      </trkpt>
      <trkpt lat="47.54183" lon="6.75726">
        <ele>450</ele>
        <time>2016-08-15T07:09:06.000Z</time>
      </trkpt>
      <trkpt lat="47.54184" lon="6.7572">
        <ele>450</ele>
        <time>2016-08-15T07:09:07.000Z</time>
      </trkpt>
      <trkpt lat="47.54185" lon="6.75716">
        <ele>450</ele>
        <time>2016-08-15T07:09:08.000Z</time>
      </trkpt>
      <trkpt lat="47.54186" lon="6.75711">
        <ele>450</ele>
        <time>2016-08-15T07:09:09.000Z</time>
      </trkpt>
      <trkpt lat="47.54187" lon="6.75708">
        <ele>450</ele>
        <time>2016-08-15T07:09:10.000Z</time>
      </trkpt>
      <trkpt lat="47.54187" lon="6.75702">
        <ele>450</ele>
        <time>2016-08-15T07:09:12.000Z</time>
      </trkpt>
      <trkpt lat="47.54188" lon="6.75699">
        <ele>450</ele>
        <time>2016-08-15T07:09:13.000Z</time>
      </trkpt>
      <trkpt lat="47.54189" lon="6.75695">
        <ele>450</ele>
        <time>2016-08-15T07:09:15.000Z</time>
      </trkpt>
      <trkpt lat="47.5419" lon="6.75692">
        <ele>450</ele>
        <time>2016-08-15T07:09:16.000Z</time>
      </trkpt>
      <trkpt lat="47.54191" lon="6.75689">
        <ele>450</ele>
        <time>2016-08-15T07:09:17.000Z</time>
      </trkpt>
      <trkpt lat="47.54192" lon="6.75686">
        <ele>451</ele>
        <time>2016-08-15T07:09:18.000Z</time>
      </trkpt>
      <trkpt lat="47.54195" lon="6.75681">
        <ele>451</ele>
        <time>2016-08-15T07:09:20.000Z</time>
      </trkpt>
      <trkpt lat="47.54196" lon="6.7568">
        <ele>451</ele>
        <time>2016-08-15T07:09:21.000Z</time>
      </trkpt>
      <trkpt lat="47.54199" lon="6.75675">
        <ele>451</ele>
        <time>2016-08-15T07:09:26.000Z</time>
      </trkpt>
      <trkpt lat="47.54199" lon="6.75675">
        <ele>451</ele>
        <time>2016-08-15T07:09:27.000Z</time>
      </trkpt>
      <trkpt lat="47.54198" lon="6.75668">
        <ele>451</ele>
        <time>2016-08-15T07:09:36.000Z</time>
      </trkpt>
      <trkpt lat="47.54198" lon="6.75668">
        <ele>451</ele>
        <time>2016-08-15T07:09:37.000Z</time>
      </trkpt>
      <trkpt lat="47.54201" lon="6.75664">
        <ele>452</ele>
        <time>2016-08-15T07:09:41.000Z</time>
      </trkpt>
      <trkpt lat="47.54202" lon="6.75663">
        <ele>452</ele>
        <time>2016-08-15T07:09:42.000Z</time>
      </trkpt>
      <trkpt lat="47.54203" lon="6.75657">
        <ele>452</ele>
        <time>2016-08-15T07:09:45.000Z</time>
      </trkpt>
      <trkpt lat="47.54204" lon="6.75655">
        <ele>452</ele>
        <time>2016-08-15T07:09:46.000Z</time>
      </trkpt>
      <trkpt lat="47.54206" lon="6.75651">
        <ele>453</ele>
        <time>2016-08-15T07:09:48.000Z</time>
      </trkpt>
      <trkpt lat="47.54206" lon="6.75649">
        <ele>453</ele>
        <time>2016-08-15T07:09:49.000Z</time>
      </trkpt>
      <trkpt lat="47.54208" lon="6.75644">
        <ele>453</ele>
        <time>2016-08-15T07:09:51.000Z</time>
      </trkpt>
      <trkpt lat="47.54208" lon="6.75641">
        <ele>453</ele>
        <time>2016-08-15T07:09:52.000Z</time>
      </trkpt>
      <trkpt lat="47.5421" lon="6.75637">
        <ele>453</ele>
        <time>2016-08-15T07:09:54.000Z</time>
      </trkpt>
      <trkpt lat="47.5421" lon="6.75634">
        <ele>453</ele>
        <time>2016-08-15T07:09:55.000Z</time>
      </trkpt>
      <trkpt lat="47.54211" lon="6.75631">
        <ele>453</ele>
        <time>2016-08-15T07:09:56.000Z</time>
      </trkpt>
      <trkpt lat="47.54212" lon="6.75628">
        <ele>453</ele>
        <time>2016-08-15T07:09:57.000Z</time>
      </trkpt>
      <trkpt lat="47.54213" lon="6.75624">
        <ele>453</ele>
        <time>2016-08-15T07:09:58.000Z</time>
      </trkpt>
      <trkpt lat="47.54213" lon="6.7562">
        <ele>453</ele>
        <time>2016-08-15T07:09:59.000Z</time>
      </trkpt>
      <trkpt lat="47.54215" lon="6.75615">
        <ele>453</ele>
        <time>2016-08-15T07:10:01.000Z</time>
      </trkpt>
      <trkpt lat="47.54215" lon="6.75613">
        <ele>453</ele>
        <time>2016-08-15T07:10:02.000Z</time>
      </trkpt>
      <trkpt lat="47.54217" lon="6.75607">
        <ele>453</ele>
        <time>2016-08-15T07:10:05.000Z</time>
      </trkpt>
      <trkpt lat="47.54218" lon="6.75605">
        <ele>454</ele>
        <time>2016-08-15T07:10:06.000Z</time>
      </trkpt>
      <trkpt lat="47.54221" lon="6.75601">
        <ele>454</ele>
        <time>2016-08-15T07:10:08.000Z</time>
      </trkpt>
      <trkpt lat="47.54222" lon="6.75598">
        <ele>454</ele>
        <time>2016-08-15T07:10:09.000Z</time>
      </trkpt>
      <trkpt lat="47.54223" lon="6.75595">
        <ele>454</ele>
        <time>2016-08-15T07:10:10.000Z</time>
      </trkpt>
      <trkpt lat="47.54225" lon="6.75591">
        <ele>454</ele>
        <time>2016-08-15T07:10:11.000Z</time>
      </trkpt>
      <trkpt lat="47.54227" lon="6.75586">
        <ele>454</ele>
        <time>2016-08-15T07:10:13.000Z</time>
      </trkpt>
      <trkpt lat="47.54227" lon="6.75583">
        <ele>455</ele>
        <time>2016-08-15T07:10:14.000Z</time>
      </trkpt>
      <trkpt lat="47.54228" lon="6.75576">
        <ele>455</ele>
        <time>2016-08-15T07:10:16.000Z</time>
      </trkpt>
      <trkpt lat="47.54229" lon="6.75573">
        <ele>455</ele>
        <time>2016-08-15T07:10:17.000Z</time>
      </trkpt>
      <trkpt lat="47.54231" lon="6.75568">
        <ele>456</ele>
        <time>2016-08-15T07:10:19.000Z</time>
      </trkpt>
      <trkpt lat="47.54232" lon="6.75566">
        <ele>456</ele>
        <time>2016-08-15T07:10:20.000Z</time>
      </trkpt>
      <trkpt lat="47.54232" lon="6.75562">
        <ele>456</ele>
        <time>2016-08-15T07:10:21.000Z</time>
      </trkpt>
      <trkpt lat="47.54233" lon="6.75558">
        <ele>456</ele>
        <time>2016-08-15T07:10:22.000Z</time>
      </trkpt>
      <trkpt lat="47.54234" lon="6.75554">
        <ele>456</ele>
        <time>2016-08-15T07:10:23.000Z</time>
      </trkpt>
      <trkpt lat="47.54235" lon="6.75551">
        <ele>456</ele>
        <time>2016-08-15T07:10:24.000Z</time>
      </trkpt>
      <trkpt lat="47.54236" lon="6.75547">
        <ele>456</ele>
        <time>2016-08-15T07:10:25.000Z</time>
      </trkpt>
      <trkpt lat="47.54237" lon="6.75544">
        <ele>456</ele>
        <time>2016-08-15T07:10:26.000Z</time>
      </trkpt>
      <trkpt lat="47.54237" lon="6.75541">
        <ele>456</ele>
        <time>2016-08-15T07:10:27.000Z</time>
      </trkpt>
      <trkpt lat="47.54238" lon="6.75537">
        <ele>456</ele>
        <time>2016-08-15T07:10:28.000Z</time>
      </trkpt>
      <trkpt lat="47.54239" lon="6.75534">
        <ele>456</ele>
        <time>2016-08-15T07:10:29.000Z</time>
      </trkpt>
      <trkpt lat="47.54239" lon="6.7553">
        <ele>456</ele>
        <time>2016-08-15T07:10:30.000Z</time>
      </trkpt>
      <trkpt lat="47.54241" lon="6.75527">
        <ele>456</ele>
        <time>2016-08-15T07:10:31.000Z</time>
      </trkpt>
      <trkpt lat="47.54242" lon="6.75524">
        <ele>456</ele>
        <time>2016-08-15T07:10:32.000Z</time>
      </trkpt>
      <trkpt lat="47.54243" lon="6.7552">
        <ele>456</ele>
        <time>2016-08-15T07:10:33.000Z</time>
      </trkpt>
      <trkpt lat="47.54245" lon="6.75518">
        <ele>457</ele>
        <time>2016-08-15T07:10:34.000Z</time>
      </trkpt>
      <trkpt lat="47.54247" lon="6.75516">
        <ele>457</ele>
        <time>2016-08-15T07:10:35.000Z</time>
      </trkpt>
      <trkpt lat="47.54249" lon="6.75514">
        <ele>457</ele>
        <time>2016-08-15T07:10:36.000Z</time>
      </trkpt>
      <trkpt lat="47.54251" lon="6.75508">
        <ele>458</ele>
        <time>2016-08-15T07:10:38.000Z</time>
      </trkpt>
      <trkpt lat="47.54252" lon="6.75504">
        <ele>458</ele>
        <time>2016-08-15T07:10:39.000Z</time>
      </trkpt>
      <trkpt lat="47.54253" lon="6.75501">
        <ele>458</ele>
        <time>2016-08-15T07:10:40.000Z</time>
      </trkpt>
      <trkpt lat="47.54253" lon="6.75498">
        <ele>458</ele>
        <time>2016-08-15T07:10:41.000Z</time>
      </trkpt>
      <trkpt lat="47.54255" lon="6.75492">
        <ele>459</ele>
        <time>2016-08-15T07:10:43.000Z</time>
      </trkpt>
      <trkpt lat="47.54256" lon="6.75489">
        <ele>459</ele>
        <time>2016-08-15T07:10:44.000Z</time>
      </trkpt>
      <trkpt lat="47.54257" lon="6.75485">
        <ele>459</ele>
        <time>2016-08-15T07:10:45.000Z</time>
      </trkpt>
      <trkpt lat="47.54258" lon="6.75481">
        <ele>459</ele>
        <time>2016-08-15T07:10:46.000Z</time>
      </trkpt>
      <trkpt lat="47.54259" lon="6.75477">
        <ele>459</ele>
        <time>2016-08-15T07:10:47.000Z</time>
      </trkpt>
      <trkpt lat="47.5426" lon="6.75474">
        <ele>459</ele>
        <time>2016-08-15T07:10:48.000Z</time>
      </trkpt>
      <trkpt lat="47.54261" lon="6.7547">
        <ele>460</ele>
        <time>2016-08-15T07:10:49.000Z</time>
      </trkpt>
      <trkpt lat="47.54263" lon="6.75466">
        <ele>460</ele>
        <time>2016-08-15T07:10:50.000Z</time>
      </trkpt>
      <trkpt lat="47.54266" lon="6.75462">
        <ele>460</ele>
        <time>2016-08-15T07:10:51.000Z</time>
      </trkpt>
      <trkpt lat="47.54268" lon="6.75458">
        <ele>460</ele>
        <time>2016-08-15T07:10:52.000Z</time>
      </trkpt>
      <trkpt lat="47.5427" lon="6.75453">
        <ele>460</ele>
        <time>2016-08-15T07:10:53.000Z</time>
      </trkpt>
      <trkpt lat="47.54272" lon="6.75448">
        <ele>460</ele>
        <time>2016-08-15T07:10:54.000Z</time>
      </trkpt>
      <trkpt lat="47.54274" lon="6.75442">
        <ele>460</ele>
        <time>2016-08-15T07:10:55.000Z</time>
      </trkpt>
      <trkpt lat="47.54276" lon="6.75437">
        <ele>460</ele>
        <time>2016-08-15T07:10:56.000Z</time>
      </trkpt>
      <trkpt lat="47.54278" lon="6.75433">
        <ele>460</ele>
        <time>2016-08-15T07:10:57.000Z</time>
      </trkpt>
      <trkpt lat="47.5428" lon="6.75429">
        <ele>460</ele>
        <time>2016-08-15T07:10:58.000Z</time>
      </trkpt>
      <trkpt lat="47.54283" lon="6.75425">
        <ele>460</ele>
        <time>2016-08-15T07:10:59.000Z</time>
      </trkpt>
      <trkpt lat="47.54285" lon="6.7542">
        <ele>461</ele>
        <time>2016-08-15T07:11:00.000Z</time>
      </trkpt>
      <trkpt lat="47.54288" lon="6.75416">
        <ele>462</ele>
        <time>2016-08-15T07:11:01.000Z</time>
      </trkpt>
      <trkpt lat="47.5429" lon="6.75413">
        <ele>462</ele>
        <time>2016-08-15T07:11:02.000Z</time>
      </trkpt>
      <trkpt lat="47.54292" lon="6.7541">
        <ele>462</ele>
        <time>2016-08-15T07:11:03.000Z</time>
      </trkpt>
      <trkpt lat="47.54294" lon="6.75407">
        <ele>462</ele>
        <time>2016-08-15T07:11:04.000Z</time>
      </trkpt>
      <trkpt lat="47.54296" lon="6.75403">
        <ele>462</ele>
        <time>2016-08-15T07:11:06.000Z</time>
      </trkpt>
      <trkpt lat="47.54297" lon="6.75401">
        <ele>462</ele>
        <time>2016-08-15T07:11:07.000Z</time>
      </trkpt>
      <trkpt lat="47.54299" lon="6.75398">
        <ele>462</ele>
        <time>2016-08-15T07:11:09.000Z</time>
      </trkpt>
      <trkpt lat="47.543" lon="6.75395">
        <ele>462</ele>
        <time>2016-08-15T07:11:10.000Z</time>
      </trkpt>
      <trkpt lat="47.54301" lon="6.75393">
        <ele>463</ele>
        <time>2016-08-15T07:11:11.000Z</time>
      </trkpt>
      <trkpt lat="47.54303" lon="6.75389">
        <ele>463</ele>
        <time>2016-08-15T07:11:12.000Z</time>
      </trkpt>
      <trkpt lat="47.54305" lon="6.75384">
        <ele>463</ele>
        <time>2016-08-15T07:11:14.000Z</time>
      </trkpt>
      <trkpt lat="47.54307" lon="6.75382">
        <ele>463</ele>
        <time>2016-08-15T07:11:15.000Z</time>
      </trkpt>
      <trkpt lat="47.5431" lon="6.75379">
        <ele>463</ele>
        <time>2016-08-15T07:11:16.000Z</time>
      </trkpt>
      <trkpt lat="47.54312" lon="6.75377">
        <ele>463</ele>
        <time>2016-08-15T07:11:17.000Z</time>
      </trkpt>
      <trkpt lat="47.54314" lon="6.75374">
        <ele>463</ele>
        <time>2016-08-15T07:11:18.000Z</time>
      </trkpt>
      <trkpt lat="47.54316" lon="6.75372">
        <ele>463</ele>
        <time>2016-08-15T07:11:19.000Z</time>
      </trkpt>
      <trkpt lat="47.54318" lon="6.75369">
        <ele>463</ele>
        <time>2016-08-15T07:11:20.000Z</time>
      </trkpt>
      <trkpt lat="47.5432" lon="6.75366">
        <ele>463</ele>
        <time>2016-08-15T07:11:21.000Z</time>
      </trkpt>
      <trkpt lat="47.54321" lon="6.75363">
        <ele>463</ele>
        <time>2016-08-15T07:11:22.000Z</time>
      </trkpt>
      <trkpt lat="47.54322" lon="6.7536">
        <ele>464</ele>
        <time>2016-08-15T07:11:23.000Z</time>
      </trkpt>
      <trkpt lat="47.54324" lon="6.75358">
        <ele>464</ele>
        <time>2016-08-15T07:11:24.000Z</time>
      </trkpt>
      <trkpt lat="47.54326" lon="6.75355">
        <ele>464</ele>
        <time>2016-08-15T07:11:25.000Z</time>
      </trkpt>
      <trkpt lat="47.54328" lon="6.75352">
        <ele>464</ele>
        <time>2016-08-15T07:11:26.000Z</time>
      </trkpt>
      <trkpt lat="47.5433" lon="6.75349">
        <ele>464</ele>
        <time>2016-08-15T07:11:27.000Z</time>
      </trkpt>
      <trkpt lat="47.54332" lon="6.75346">
        <ele>465</ele>
        <time>2016-08-15T07:11:28.000Z</time>
      </trkpt>
      <trkpt lat="47.54335" lon="6.75343">
        <ele>466</ele>
        <time>2016-08-15T07:11:29.000Z</time>
      </trkpt>
      <trkpt lat="47.54337" lon="6.7534">
        <ele>466</ele>
        <time>2016-08-15T07:11:30.000Z</time>
      </trkpt>
      <trkpt lat="47.5434" lon="6.75337">
        <ele>466</ele>
        <time>2016-08-15T07:11:31.000Z</time>
      </trkpt>
      <trkpt lat="47.54342" lon="6.75334">
        <ele>466</ele>
        <time>2016-08-15T07:11:32.000Z</time>
      </trkpt>
      <trkpt lat="47.54345" lon="6.7533">
        <ele>467</ele>
        <time>2016-08-15T07:11:33.000Z</time>
      </trkpt>
      <trkpt lat="47.54347" lon="6.75327">
        <ele>467</ele>
        <time>2016-08-15T07:11:34.000Z</time>
      </trkpt>
      <trkpt lat="47.5435" lon="6.75323">
        <ele>467</ele>
        <time>2016-08-15T07:11:35.000Z</time>
      </trkpt>
      <trkpt lat="47.54353" lon="6.75319">
        <ele>467</ele>
        <time>2016-08-15T07:11:36.000Z</time>
      </trkpt>
      <trkpt lat="47.54356" lon="6.75314">
        <ele>467</ele>
        <time>2016-08-15T07:11:37.000Z</time>
      </trkpt>
      <trkpt lat="47.54359" lon="6.75309">
        <ele>468</ele>
        <time>2016-08-15T07:11:38.000Z</time>
      </trkpt>
      <trkpt lat="47.54362" lon="6.75304">
        <ele>468</ele>
        <time>2016-08-15T07:11:39.000Z</time>
      </trkpt>
      <trkpt lat="47.54365" lon="6.75298">
        <ele>468</ele>
        <time>2016-08-15T07:11:40.000Z</time>
      </trkpt>
      <trkpt lat="47.54367" lon="6.75293">
        <ele>468</ele>
        <time>2016-08-15T07:11:41.000Z</time>
      </trkpt>
      <trkpt lat="47.54369" lon="6.75288">
        <ele>468</ele>
        <time>2016-08-15T07:11:42.000Z</time>
      </trkpt>
      <trkpt lat="47.54371" lon="6.75283">
        <ele>468</ele>
        <time>2016-08-15T07:11:43.000Z</time>
      </trkpt>
      <trkpt lat="47.54374" lon="6.75279">
        <ele>468</ele>
        <time>2016-08-15T07:11:44.000Z</time>
      </trkpt>
      <trkpt lat="47.54377" lon="6.75276">
        <ele>468</ele>
        <time>2016-08-15T07:11:45.000Z</time>
      </trkpt>
      <trkpt lat="47.54381" lon="6.75272">
        <ele>468</ele>
        <time>2016-08-15T07:11:46.000Z</time>
      </trkpt>
      <trkpt lat="47.54384" lon="6.75269">
        <ele>468</ele>
        <time>2016-08-15T07:11:47.000Z</time>
      </trkpt>
      <trkpt lat="47.54387" lon="6.75265">
        <ele>468</ele>
        <time>2016-08-15T07:11:48.000Z</time>
      </trkpt>
      <trkpt lat="47.54389" lon="6.75261">
        <ele>469</ele>
        <time>2016-08-15T07:11:49.000Z</time>
      </trkpt>
      <trkpt lat="47.54391" lon="6.75257">
        <ele>469</ele>
        <time>2016-08-15T07:11:50.000Z</time>
      </trkpt>
      <trkpt lat="47.54392" lon="6.75254">
        <ele>469</ele>
        <time>2016-08-15T07:11:51.000Z</time>
      </trkpt>
      <trkpt lat="47.54394" lon="6.7525">
        <ele>469</ele>
        <time>2016-08-15T07:11:52.000Z</time>
      </trkpt>
      <trkpt lat="47.54395" lon="6.75247">
        <ele>469</ele>
        <time>2016-08-15T07:11:53.000Z</time>
      </trkpt>
      <trkpt lat="47.54397" lon="6.75244">
        <ele>469</ele>
        <time>2016-08-15T07:11:54.000Z</time>
      </trkpt>
      <trkpt lat="47.54399" lon="6.75241">
        <ele>469</ele>
        <time>2016-08-15T07:11:55.000Z</time>
      </trkpt>
      <trkpt lat="47.54402" lon="6.75237">
        <ele>469</ele>
        <time>2016-08-15T07:11:56.000Z</time>
      </trkpt>
      <trkpt lat="47.54404" lon="6.75234">
        <ele>469</ele>
        <time>2016-08-15T07:11:57.000Z</time>
      </trkpt>
      <trkpt lat="47.54406" lon="6.75231">
        <ele>469</ele>
        <time>2016-08-15T07:11:58.000Z</time>
      </trkpt>
      <trkpt lat="47.54408" lon="6.75229">
        <ele>469</ele>
        <time>2016-08-15T07:11:59.000Z</time>
      </trkpt>
      <trkpt lat="47.5441" lon="6.75227">
        <ele>469</ele>
        <time>2016-08-15T07:12:00.000Z</time>
      </trkpt>
      <trkpt lat="47.54413" lon="6.75223">
        <ele>469</ele>
        <time>2016-08-15T07:12:02.000Z</time>
      </trkpt>
      <trkpt lat="47.54416" lon="6.75221">
        <ele>469</ele>
        <time>2016-08-15T07:12:03.000Z</time>
      </trkpt>
      <trkpt lat="47.54418" lon="6.75219">
        <ele>470</ele>
        <time>2016-08-15T07:12:04.000Z</time>
      </trkpt>
      <trkpt lat="47.54421" lon="6.75216">
        <ele>470</ele>
        <time>2016-08-15T07:12:05.000Z</time>
      </trkpt>
      <trkpt lat="47.54424" lon="6.75213">
        <ele>470</ele>
        <time>2016-08-15T07:12:06.000Z</time>
      </trkpt>
      <trkpt lat="47.54428" lon="6.7521">
        <ele>470</ele>
        <time>2016-08-15T07:12:07.000Z</time>
      </trkpt>
      <trkpt lat="47.54432" lon="6.75206">
        <ele>471</ele>
        <time>2016-08-15T07:12:08.000Z</time>
      </trkpt>
      <trkpt lat="47.54436" lon="6.75202">
        <ele>471</ele>
        <time>2016-08-15T07:12:09.000Z</time>
      </trkpt>
      <trkpt lat="47.5444" lon="6.75198">
        <ele>471</ele>
        <time>2016-08-15T07:12:10.000Z</time>
      </trkpt>
      <trkpt lat="47.54444" lon="6.75194">
        <ele>471</ele>
        <time>2016-08-15T07:12:11.000Z</time>
      </trkpt>
      <trkpt lat="47.54447" lon="6.75191">
        <ele>471</ele>
        <time>2016-08-15T07:12:12.000Z</time>
      </trkpt>
      <trkpt lat="47.5445" lon="6.75188">
        <ele>471</ele>
        <time>2016-08-15T07:12:13.000Z</time>
      </trkpt>
      <trkpt lat="47.54454" lon="6.75186">
        <ele>471</ele>
        <time>2016-08-15T07:12:14.000Z</time>
      </trkpt>
      <trkpt lat="47.54458" lon="6.75184">
        <ele>471</ele>
        <time>2016-08-15T07:12:15.000Z</time>
      </trkpt>
      <trkpt lat="47.54462" lon="6.75182">
        <ele>470</ele>
        <time>2016-08-15T07:12:16.000Z</time>
      </trkpt>
      <trkpt lat="47.54466" lon="6.7518">
        <ele>470</ele>
        <time>2016-08-15T07:12:17.000Z</time>
      </trkpt>
      <trkpt lat="47.5447" lon="6.75178">
        <ele>470</ele>
        <time>2016-08-15T07:12:18.000Z</time>
      </trkpt>
      <trkpt lat="47.54474" lon="6.75175">
        <ele>470</ele>
        <time>2016-08-15T07:12:19.000Z</time>
      </trkpt>
      <trkpt lat="47.54479" lon="6.7517">
        <ele>470</ele>
        <time>2016-08-15T07:12:20.000Z</time>
      </trkpt>
      <trkpt lat="47.54484" lon="6.75165">
        <ele>470</ele>
        <time>2016-08-15T07:12:21.000Z</time>
      </trkpt>
      <trkpt lat="47.54489" lon="6.7516">
        <ele>470</ele>
        <time>2016-08-15T07:12:22.000Z</time>
      </trkpt>
      <trkpt lat="47.54491" lon="6.75157">
        <ele>470</ele>
        <time>2016-08-15T07:12:23.000Z</time>
      </trkpt>
      <trkpt lat="47.54499" lon="6.75154">
        <ele>470</ele>
        <time>2016-08-15T07:12:24.000Z</time>
      </trkpt>
      <trkpt lat="47.54504" lon="6.75151">
        <ele>469</ele>
        <time>2016-08-15T07:12:25.000Z</time>
      </trkpt>
      <trkpt lat="47.54508" lon="6.75149">
        <ele>469</ele>
        <time>2016-08-15T07:12:26.000Z</time>
      </trkpt>
      <trkpt lat="47.54513" lon="6.75146">
        <ele>469</ele>
        <time>2016-08-15T07:12:27.000Z</time>
      </trkpt>
      <trkpt lat="47.54517" lon="6.75143">
        <ele>468</ele>
        <time>2016-08-15T07:12:28.000Z</time>
      </trkpt>
      <trkpt lat="47.54521" lon="6.75139">
        <ele>468</ele>
        <time>2016-08-15T07:12:29.000Z</time>
      </trkpt>
      <trkpt lat="47.54525" lon="6.75136">
        <ele>468</ele>
        <time>2016-08-15T07:12:30.000Z</time>
      </trkpt>
      <trkpt lat="47.54537" lon="6.75125">
        <ele>468</ele>
        <time>2016-08-15T07:12:31.000Z</time>
      </trkpt>
      <trkpt lat="47.54542" lon="6.75118">
        <ele>467</ele>
        <time>2016-08-15T07:12:32.000Z</time>
      </trkpt>
      <trkpt lat="47.54547" lon="6.75114">
        <ele>467</ele>
        <time>2016-08-15T07:12:33.000Z</time>
      </trkpt>
      <trkpt lat="47.54551" lon="6.7511">
        <ele>467</ele>
        <time>2016-08-15T07:12:34.000Z</time>
      </trkpt>
      <trkpt lat="47.54557" lon="6.75106">
        <ele>467</ele>
        <time>2016-08-15T07:12:35.000Z</time>
      </trkpt>
      <trkpt lat="47.54561" lon="6.75103">
        <ele>466</ele>
        <time>2016-08-15T07:12:36.000Z</time>
      </trkpt>
      <trkpt lat="47.54566" lon="6.75099">
        <ele>466</ele>
        <time>2016-08-15T07:12:37.000Z</time>
      </trkpt>
      <trkpt lat="47.5457" lon="6.75094">
        <ele>465</ele>
        <time>2016-08-15T07:12:38.000Z</time>
      </trkpt>
      <trkpt lat="47.54574" lon="6.75086">
        <ele>465</ele>
        <time>2016-08-15T07:12:39.000Z</time>
      </trkpt>
      <trkpt lat="47.54579" lon="6.75082">
        <ele>464</ele>
        <time>2016-08-15T07:12:40.000Z</time>
      </trkpt>
      <trkpt lat="47.54586" lon="6.75074">
        <ele>462</ele>
        <time>2016-08-15T07:12:41.000Z</time>
      </trkpt>
      <trkpt lat="47.54594" lon="6.75071">
        <ele>461</ele>
        <time>2016-08-15T07:12:42.000Z</time>
      </trkpt>
      <trkpt lat="47.54599" lon="6.75068">
        <ele>461</ele>
        <time>2016-08-15T07:12:43.000Z</time>
      </trkpt>
      <trkpt lat="47.54605" lon="6.75065">
        <ele>461</ele>
        <time>2016-08-15T07:12:44.000Z</time>
      </trkpt>
      <trkpt lat="47.5461" lon="6.75065">
        <ele>460</ele>
        <time>2016-08-15T07:12:45.000Z</time>
      </trkpt>
      <trkpt lat="47.54614" lon="6.75065">
        <ele>460</ele>
        <time>2016-08-15T07:12:46.000Z</time>
      </trkpt>
      <trkpt lat="47.54622" lon="6.75058">
        <ele>460</ele>
        <time>2016-08-15T07:12:47.000Z</time>
      </trkpt>
      <trkpt lat="47.54627" lon="6.75056">
        <ele>459</ele>
        <time>2016-08-15T07:12:48.000Z</time>
      </trkpt>
      <trkpt lat="47.54633" lon="6.75053">
        <ele>459</ele>
        <time>2016-08-15T07:12:49.000Z</time>
      </trkpt>
      <trkpt lat="47.54639" lon="6.7505">
        <ele>459</ele>
        <time>2016-08-15T07:12:50.000Z</time>
      </trkpt>
      <trkpt lat="47.54646" lon="6.75046">
        <ele>458</ele>
        <time>2016-08-15T07:12:51.000Z</time>
      </trkpt>
      <trkpt lat="47.54652" lon="6.75044">
        <ele>458</ele>
        <time>2016-08-15T07:12:52.000Z</time>
      </trkpt>
      <trkpt lat="47.54658" lon="6.75042">
        <ele>458</ele>
        <time>2016-08-15T07:12:53.000Z</time>
      </trkpt>
      <trkpt lat="47.54664" lon="6.7504">
        <ele>458</ele>
        <time>2016-08-15T07:12:54.000Z</time>
      </trkpt>
      <trkpt lat="47.54671" lon="6.75037">
        <ele>453</ele>
        <time>2016-08-15T07:12:55.000Z</time>
      </trkpt>
      <trkpt lat="47.54679" lon="6.75034">
        <ele>453</ele>
        <time>2016-08-15T07:12:56.000Z</time>
      </trkpt>
      <trkpt lat="47.54687" lon="6.75032">
        <ele>453</ele>
        <time>2016-08-15T07:12:57.000Z</time>
      </trkpt>
      <trkpt lat="47.54692" lon="6.75029">
        <ele>453</ele>
        <time>2016-08-15T07:12:58.000Z</time>
      </trkpt>
      <trkpt lat="47.54696" lon="6.75026">
        <ele>452</ele>
        <time>2016-08-15T07:12:59.000Z</time>
      </trkpt>
      <trkpt lat="47.54699" lon="6.7502">
        <ele>452</ele>
        <time>2016-08-15T07:13:00.000Z</time>
      </trkpt>
      <trkpt lat="47.54704" lon="6.75015">
        <ele>452</ele>
        <time>2016-08-15T07:13:01.000Z</time>
      </trkpt>
      <trkpt lat="47.54709" lon="6.75011">
        <ele>452</ele>
        <time>2016-08-15T07:13:02.000Z</time>
      </trkpt>
      <trkpt lat="47.54714" lon="6.75008">
        <ele>452</ele>
        <time>2016-08-15T07:13:03.000Z</time>
      </trkpt>
      <trkpt lat="47.54719" lon="6.75006">
        <ele>451</ele>
        <time>2016-08-15T07:13:04.000Z</time>
      </trkpt>
      <trkpt lat="47.54722" lon="6.75006">
        <ele>451</ele>
        <time>2016-08-15T07:13:05.000Z</time>
      </trkpt>
      <trkpt lat="47.54727" lon="6.75005">
        <ele>451</ele>
        <time>2016-08-15T07:13:06.000Z</time>
      </trkpt>
      <trkpt lat="47.5473" lon="6.75006">
        <ele>451</ele>
        <time>2016-08-15T07:13:07.000Z</time>
      </trkpt>
      <trkpt lat="47.54734" lon="6.75007">
        <ele>451</ele>
        <time>2016-08-15T07:13:08.000Z</time>
      </trkpt>
      <trkpt lat="47.54736" lon="6.75006">
        <ele>450</ele>
        <time>2016-08-15T07:13:09.000Z</time>
      </trkpt>
      <trkpt lat="47.54739" lon="6.75006">
        <ele>450</ele>
        <time>2016-08-15T07:13:10.000Z</time>
      </trkpt>
      <trkpt lat="47.54743" lon="6.75005">
        <ele>450</ele>
        <time>2016-08-15T07:13:11.000Z</time>
      </trkpt>
      <trkpt lat="47.54747" lon="6.75005">
        <ele>450</ele>
        <time>2016-08-15T07:13:12.000Z</time>
      </trkpt>
      <trkpt lat="47.54752" lon="6.75003">
        <ele>448</ele>
        <time>2016-08-15T07:13:13.000Z</time>
      </trkpt>
      <trkpt lat="47.54755" lon="6.75003">
        <ele>448</ele>
        <time>2016-08-15T07:13:14.000Z</time>
      </trkpt>
      <trkpt lat="47.54758" lon="6.75003">
        <ele>447</ele>
        <time>2016-08-15T07:13:15.000Z</time>
      </trkpt>
      <trkpt lat="47.54762" lon="6.75002">
        <ele>447</ele>
        <time>2016-08-15T07:13:16.000Z</time>
      </trkpt>
      <trkpt lat="47.54772" lon="6.74994">
        <ele>446</ele>
        <time>2016-08-15T07:13:17.000Z</time>
      </trkpt>
      <trkpt lat="47.54778" lon="6.74991">
        <ele>446</ele>
        <time>2016-08-15T07:13:18.000Z</time>
      </trkpt>
      <trkpt lat="47.54782" lon="6.74989">
        <ele>445</ele>
        <time>2016-08-15T07:13:19.000Z</time>
      </trkpt>
      <trkpt lat="47.54786" lon="6.74987">
        <ele>445</ele>
        <time>2016-08-15T07:13:20.000Z</time>
      </trkpt>
      <trkpt lat="47.54792" lon="6.74984">
        <ele>445</ele>
        <time>2016-08-15T07:13:21.000Z</time>
      </trkpt>
      <trkpt lat="47.54796" lon="6.74981">
        <ele>444</ele>
        <time>2016-08-15T07:13:22.000Z</time>
      </trkpt>
      <trkpt lat="47.548" lon="6.74973">
        <ele>444</ele>
        <time>2016-08-15T07:13:23.000Z</time>
      </trkpt>
      <trkpt lat="47.54806" lon="6.74968">
        <ele>444</ele>
        <time>2016-08-15T07:13:24.000Z</time>
      </trkpt>
      <trkpt lat="47.5481" lon="6.74966">
        <ele>444</ele>
        <time>2016-08-15T07:13:25.000Z</time>
      </trkpt>
      <trkpt lat="47.54816" lon="6.74957">
        <ele>444</ele>
        <time>2016-08-15T07:13:26.000Z</time>
      </trkpt>
      <trkpt lat="47.5482" lon="6.74955">
        <ele>444</ele>
        <time>2016-08-15T07:13:27.000Z</time>
      </trkpt>
      <trkpt lat="47.54825" lon="6.74949">
        <ele>444</ele>
        <time>2016-08-15T07:13:28.000Z</time>
      </trkpt>
      <trkpt lat="47.54829" lon="6.74948">
        <ele>444</ele>
        <time>2016-08-15T07:13:29.000Z</time>
      </trkpt>
      <trkpt lat="47.54831" lon="6.74946">
        <ele>444</ele>
        <time>2016-08-15T07:13:30.000Z</time>
      </trkpt>
      <trkpt lat="47.54833" lon="6.74946">
        <ele>444</ele>
        <time>2016-08-15T07:13:31.000Z</time>
      </trkpt>
      <trkpt lat="47.54835" lon="6.74942">
        <ele>441</ele>
        <time>2016-08-15T07:13:32.000Z</time>
      </trkpt>
      <trkpt lat="47.54837" lon="6.7494">
        <ele>441</ele>
        <time>2016-08-15T07:13:33.000Z</time>
      </trkpt>
      <trkpt lat="47.54839" lon="6.74937">
        <ele>441</ele>
        <time>2016-08-15T07:13:34.000Z</time>
      </trkpt>
      <trkpt lat="47.5484" lon="6.74934">
        <ele>441</ele>
        <time>2016-08-15T07:13:35.000Z</time>
      </trkpt>
      <trkpt lat="47.54842" lon="6.74931">
        <ele>441</ele>
        <time>2016-08-15T07:13:36.000Z</time>
      </trkpt>
      <trkpt lat="47.54844" lon="6.74927">
        <ele>441</ele>
        <time>2016-08-15T07:13:37.000Z</time>
      </trkpt>
      <trkpt lat="47.54847" lon="6.74924">
        <ele>441</ele>
        <time>2016-08-15T07:13:38.000Z</time>
      </trkpt>
      <trkpt lat="47.54849" lon="6.7492">
        <ele>441</ele>
        <time>2016-08-15T07:13:39.000Z</time>
      </trkpt>
      <trkpt lat="47.54851" lon="6.74917">
        <ele>441</ele>
        <time>2016-08-15T07:13:40.000Z</time>
      </trkpt>
      <trkpt lat="47.54853" lon="6.74914">
        <ele>444</ele>
        <time>2016-08-15T07:13:41.000Z</time>
      </trkpt>
      <trkpt lat="47.54856" lon="6.7491">
        <ele>444</ele>
        <time>2016-08-15T07:13:42.000Z</time>
      </trkpt>
      <trkpt lat="47.54858" lon="6.74907">
        <ele>444</ele>
        <time>2016-08-15T07:13:43.000Z</time>
      </trkpt>
      <trkpt lat="47.54859" lon="6.74904">
        <ele>444</ele>
        <time>2016-08-15T07:13:44.000Z</time>
      </trkpt>
      <trkpt lat="47.54861" lon="6.74901">
        <ele>444</ele>
        <time>2016-08-15T07:13:45.000Z</time>
      </trkpt>
      <trkpt lat="47.54863" lon="6.74899">
        <ele>445</ele>
        <time>2016-08-15T07:13:46.000Z</time>
      </trkpt>
      <trkpt lat="47.54864" lon="6.74896">
        <ele>445</ele>
        <time>2016-08-15T07:13:47.000Z</time>
      </trkpt>
      <trkpt lat="47.54866" lon="6.74893">
        <ele>445</ele>
        <time>2016-08-15T07:13:48.000Z</time>
      </trkpt>
      <trkpt lat="47.54868" lon="6.74887">
        <ele>445</ele>
        <time>2016-08-15T07:13:49.000Z</time>
      </trkpt>
      <trkpt lat="47.5487" lon="6.74884">
        <ele>445</ele>
        <time>2016-08-15T07:13:50.000Z</time>
      </trkpt>
      <trkpt lat="47.54873" lon="6.7488">
        <ele>445</ele>
        <time>2016-08-15T07:13:52.000Z</time>
      </trkpt>
      <trkpt lat="47.54874" lon="6.74879">
        <ele>445</ele>
        <time>2016-08-15T07:13:53.000Z</time>
      </trkpt>
      <trkpt lat="47.54876" lon="6.74875">
        <ele>445</ele>
        <time>2016-08-15T07:13:55.000Z</time>
      </trkpt>
      <trkpt lat="47.54878" lon="6.74874">
        <ele>445</ele>
        <time>2016-08-15T07:13:56.000Z</time>
      </trkpt>
      <trkpt lat="47.5488" lon="6.74871">
        <ele>445</ele>
        <time>2016-08-15T07:13:58.000Z</time>
      </trkpt>
      <trkpt lat="47.54882" lon="6.74868">
        <ele>446</ele>
        <time>2016-08-15T07:13:59.000Z</time>
      </trkpt>
      <trkpt lat="47.54884" lon="6.74865">
        <ele>446</ele>
        <time>2016-08-15T07:14:00.000Z</time>
      </trkpt>
      <trkpt lat="47.54886" lon="6.74863">
        <ele>446</ele>
        <time>2016-08-15T07:14:01.000Z</time>
      </trkpt>
      <trkpt lat="47.54889" lon="6.7486">
        <ele>446</ele>
        <time>2016-08-15T07:14:02.000Z</time>
      </trkpt>
      <trkpt lat="47.5489" lon="6.74857">
        <ele>446</ele>
        <time>2016-08-15T07:14:03.000Z</time>
      </trkpt>
      <trkpt lat="47.54892" lon="6.74853">
        <ele>446</ele>
        <time>2016-08-15T07:14:04.000Z</time>
      </trkpt>
      <trkpt lat="47.54893" lon="6.7485">
        <ele>447</ele>
        <time>2016-08-15T07:14:05.000Z</time>
      </trkpt>
      <trkpt lat="47.54894" lon="6.74846">
        <ele>447</ele>
        <time>2016-08-15T07:14:06.000Z</time>
      </trkpt>
      <trkpt lat="47.54895" lon="6.74841">
        <ele>447</ele>
        <time>2016-08-15T07:14:07.000Z</time>
      </trkpt>
      <trkpt lat="47.54896" lon="6.74837">
        <ele>447</ele>
        <time>2016-08-15T07:14:08.000Z</time>
      </trkpt>
      <trkpt lat="47.54897" lon="6.74833">
        <ele>448</ele>
        <time>2016-08-15T07:14:09.000Z</time>
      </trkpt>
      <trkpt lat="47.54898" lon="6.74829">
        <ele>448</ele>
        <time>2016-08-15T07:14:10.000Z</time>
      </trkpt>
      <trkpt lat="47.549" lon="6.74826">
        <ele>448</ele>
        <time>2016-08-15T07:14:11.000Z</time>
      </trkpt>
      <trkpt lat="47.54901" lon="6.74822">
        <ele>448</ele>
        <time>2016-08-15T07:14:12.000Z</time>
      </trkpt>
      <trkpt lat="47.54902" lon="6.74819">
        <ele>448</ele>
        <time>2016-08-15T07:14:13.000Z</time>
      </trkpt>
      <trkpt lat="47.54902" lon="6.74815">
        <ele>448</ele>
        <time>2016-08-15T07:14:14.000Z</time>
      </trkpt>
      <trkpt lat="47.54903" lon="6.74811">
        <ele>448</ele>
        <time>2016-08-15T07:14:15.000Z</time>
      </trkpt>
      <trkpt lat="47.54904" lon="6.74806">
        <ele>448</ele>
        <time>2016-08-15T07:14:16.000Z</time>
      </trkpt>
      <trkpt lat="47.54906" lon="6.74801">
        <ele>448</ele>
        <time>2016-08-15T07:14:17.000Z</time>
      </trkpt>
      <trkpt lat="47.54907" lon="6.74797">
        <ele>448</ele>
        <time>2016-08-15T07:14:18.000Z</time>
      </trkpt>
      <trkpt lat="47.54909" lon="6.74793">
        <ele>448</ele>
        <time>2016-08-15T07:14:19.000Z</time>
      </trkpt>
      <trkpt lat="47.5491" lon="6.74789">
        <ele>448</ele>
        <time>2016-08-15T07:14:20.000Z</time>
      </trkpt>
      <trkpt lat="47.54911" lon="6.74786">
        <ele>447</ele>
        <time>2016-08-15T07:14:21.000Z</time>
      </trkpt>
      <trkpt lat="47.54912" lon="6.74782">
        <ele>447</ele>
        <time>2016-08-15T07:14:22.000Z</time>
      </trkpt>
      <trkpt lat="47.54914" lon="6.74777">
        <ele>447</ele>
        <time>2016-08-15T07:14:23.000Z</time>
      </trkpt>
      <trkpt lat="47.54915" lon="6.74771">
        <ele>448</ele>
        <time>2016-08-15T07:14:24.000Z</time>
      </trkpt>
      <trkpt lat="47.54916" lon="6.74764">
        <ele>448</ele>
        <time>2016-08-15T07:14:25.000Z</time>
      </trkpt>
      <trkpt lat="47.54918" lon="6.74757">
        <ele>449</ele>
        <time>2016-08-15T07:14:26.000Z</time>
      </trkpt>
      <trkpt lat="47.5492" lon="6.74751">
        <ele>448</ele>
        <time>2016-08-15T07:14:27.000Z</time>
      </trkpt>
      <trkpt lat="47.54922" lon="6.74744">
        <ele>448</ele>
        <time>2016-08-15T07:14:28.000Z</time>
      </trkpt>
      <trkpt lat="47.54925" lon="6.74736">
        <ele>449</ele>
        <time>2016-08-15T07:14:29.000Z</time>
      </trkpt>
      <trkpt lat="47.54927" lon="6.74728">
        <ele>449</ele>
        <time>2016-08-15T07:14:30.000Z</time>
      </trkpt>
      <trkpt lat="47.5493" lon="6.7472">
        <ele>449</ele>
        <time>2016-08-15T07:14:31.000Z</time>
      </trkpt>
      <trkpt lat="47.54941" lon="6.74687">
        <ele>448</ele>
        <time>2016-08-15T07:14:32.000Z</time>
      </trkpt>
      <trkpt lat="47.54942" lon="6.74683">
        <ele>448</ele>
        <time>2016-08-15T07:14:33.000Z</time>
      </trkpt>
      <trkpt lat="47.54944" lon="6.7468">
        <ele>448</ele>
        <time>2016-08-15T07:14:34.000Z</time>
      </trkpt>
      <trkpt lat="47.54946" lon="6.74676">
        <ele>448</ele>
        <time>2016-08-15T07:14:35.000Z</time>
      </trkpt>
      <trkpt lat="47.54949" lon="6.74672">
        <ele>448</ele>
        <time>2016-08-15T07:14:36.000Z</time>
      </trkpt>
      <trkpt lat="47.54952" lon="6.74668">
        <ele>448</ele>
        <time>2016-08-15T07:14:37.000Z</time>
      </trkpt>
      <trkpt lat="47.54955" lon="6.74664">
        <ele>447</ele>
        <time>2016-08-15T07:14:38.000Z</time>
      </trkpt>
      <trkpt lat="47.54959" lon="6.74662">
        <ele>447</ele>
        <time>2016-08-15T07:14:39.000Z</time>
      </trkpt>
      <trkpt lat="47.54962" lon="6.74659">
        <ele>447</ele>
        <time>2016-08-15T07:14:40.000Z</time>
      </trkpt>
      <trkpt lat="47.54967" lon="6.74656">
        <ele>447</ele>
        <time>2016-08-15T07:14:41.000Z</time>
      </trkpt>
      <trkpt lat="47.54971" lon="6.74654">
        <ele>448</ele>
        <time>2016-08-15T07:14:42.000Z</time>
      </trkpt>
      <trkpt lat="47.54976" lon="6.7465">
        <ele>448</ele>
        <time>2016-08-15T07:14:43.000Z</time>
      </trkpt>
      <trkpt lat="47.54982" lon="6.74647">
        <ele>448</ele>
        <time>2016-08-15T07:14:44.000Z</time>
      </trkpt>
      <trkpt lat="47.54987" lon="6.74643">
        <ele>448</ele>
        <time>2016-08-15T07:14:45.000Z</time>
      </trkpt>
      <trkpt lat="47.54994" lon="6.7464">
        <ele>448</ele>
        <time>2016-08-15T07:14:46.000Z</time>
      </trkpt>
      <trkpt lat="47.55" lon="6.74636">
        <ele>448</ele>
        <time>2016-08-15T07:14:47.000Z</time>
      </trkpt>
      <trkpt lat="47.55006" lon="6.74633">
        <ele>449</ele>
        <time>2016-08-15T07:14:48.000Z</time>
      </trkpt>
      <trkpt lat="47.55013" lon="6.74629">
        <ele>449</ele>
        <time>2016-08-15T07:14:49.000Z</time>
      </trkpt>
      <trkpt lat="47.5502" lon="6.74625">
        <ele>449</ele>
        <time>2016-08-15T07:14:50.000Z</time>
      </trkpt>
      <trkpt lat="47.55026" lon="6.74621">
        <ele>449</ele>
        <time>2016-08-15T07:14:51.000Z</time>
      </trkpt>
      <trkpt lat="47.55031" lon="6.74618">
        <ele>449</ele>
        <time>2016-08-15T07:14:52.000Z</time>
      </trkpt>
      <trkpt lat="47.55036" lon="6.74616">
        <ele>449</ele>
        <time>2016-08-15T07:14:53.000Z</time>
      </trkpt>
      <trkpt lat="47.55042" lon="6.74612">
        <ele>449</ele>
        <time>2016-08-15T07:14:54.000Z</time>
      </trkpt>
      <trkpt lat="47.55064" lon="6.74594">
        <ele>449</ele>
        <time>2016-08-15T07:14:55.000Z</time>
      </trkpt>
      <trkpt lat="47.55068" lon="6.74589">
        <ele>449</ele>
        <time>2016-08-15T07:14:56.000Z</time>
      </trkpt>
      <trkpt lat="47.55069" lon="6.74584">
        <ele>449</ele>
        <time>2016-08-15T07:14:57.000Z</time>
      </trkpt>
      <trkpt lat="47.55073" lon="6.74582">
        <ele>448</ele>
        <time>2016-08-15T07:14:58.000Z</time>
      </trkpt>
      <trkpt lat="47.55078" lon="6.74576">
        <ele>448</ele>
        <time>2016-08-15T07:14:59.000Z</time>
      </trkpt>
      <trkpt lat="47.55081" lon="6.74567">
        <ele>447</ele>
        <time>2016-08-15T07:15:00.000Z</time>
      </trkpt>
      <trkpt lat="47.55086" lon="6.74557">
        <ele>448</ele>
        <time>2016-08-15T07:15:01.000Z</time>
      </trkpt>
      <trkpt lat="47.55091" lon="6.74551">
        <ele>447</ele>
        <time>2016-08-15T07:15:02.000Z</time>
      </trkpt>
      <trkpt lat="47.55097" lon="6.7454">
        <ele>447</ele>
        <time>2016-08-15T07:15:03.000Z</time>
      </trkpt>
      <trkpt lat="47.55103" lon="6.74527">
        <ele>447</ele>
        <time>2016-08-15T07:15:04.000Z</time>
      </trkpt>
      <trkpt lat="47.55107" lon="6.7452">
        <ele>447</ele>
        <time>2016-08-15T07:15:05.000Z</time>
      </trkpt>
      <trkpt lat="47.55111" lon="6.74514">
        <ele>447</ele>
        <time>2016-08-15T07:15:06.000Z</time>
      </trkpt>
      <trkpt lat="47.55115" lon="6.74511">
        <ele>447</ele>
        <time>2016-08-15T07:15:07.000Z</time>
      </trkpt>
      <trkpt lat="47.55118" lon="6.74509">
        <ele>447</ele>
        <time>2016-08-15T07:15:08.000Z</time>
      </trkpt>
      <trkpt lat="47.55121" lon="6.74506">
        <ele>447</ele>
        <time>2016-08-15T07:15:09.000Z</time>
      </trkpt>
      <trkpt lat="47.55124" lon="6.74504">
        <ele>447</ele>
        <time>2016-08-15T07:15:10.000Z</time>
      </trkpt>
      <trkpt lat="47.55127" lon="6.74502">
        <ele>447</ele>
        <time>2016-08-15T07:15:11.000Z</time>
      </trkpt>
      <trkpt lat="47.5513" lon="6.745">
        <ele>447</ele>
        <time>2016-08-15T07:15:12.000Z</time>
      </trkpt>
      <trkpt lat="47.55132" lon="6.74499">
        <ele>446</ele>
        <time>2016-08-15T07:15:13.000Z</time>
      </trkpt>
      <trkpt lat="47.55136" lon="6.74497">
        <ele>447</ele>
        <time>2016-08-15T07:15:14.000Z</time>
      </trkpt>
      <trkpt lat="47.55139" lon="6.74494">
        <ele>447</ele>
        <time>2016-08-15T07:15:15.000Z</time>
      </trkpt>
      <trkpt lat="47.55143" lon="6.74492">
        <ele>447</ele>
        <time>2016-08-15T07:15:16.000Z</time>
      </trkpt>
      <trkpt lat="47.55146" lon="6.74489">
        <ele>447</ele>
        <time>2016-08-15T07:15:17.000Z</time>
      </trkpt>
      <trkpt lat="47.5515" lon="6.74486">
        <ele>447</ele>
        <time>2016-08-15T07:15:18.000Z</time>
      </trkpt>
      <trkpt lat="47.55153" lon="6.74484">
        <ele>447</ele>
        <time>2016-08-15T07:15:19.000Z</time>
      </trkpt>
      <trkpt lat="47.55157" lon="6.74481">
        <ele>447</ele>
        <time>2016-08-15T07:15:20.000Z</time>
      </trkpt>
      <trkpt lat="47.55161" lon="6.74479">
        <ele>447</ele>
        <time>2016-08-15T07:15:21.000Z</time>
      </trkpt>
      <trkpt lat="47.55165" lon="6.74476">
        <ele>447</ele>
        <time>2016-08-15T07:15:22.000Z</time>
      </trkpt>
      <trkpt lat="47.55169" lon="6.74474">
        <ele>448</ele>
        <time>2016-08-15T07:15:23.000Z</time>
      </trkpt>
      <trkpt lat="47.55173" lon="6.74471">
        <ele>448</ele>
        <time>2016-08-15T07:15:24.000Z</time>
      </trkpt>
      <trkpt lat="47.55176" lon="6.74468">
        <ele>448</ele>
        <time>2016-08-15T07:15:25.000Z</time>
      </trkpt>
      <trkpt lat="47.5518" lon="6.74464">
        <ele>448</ele>
        <time>2016-08-15T07:15:26.000Z</time>
      </trkpt>
      <trkpt lat="47.55183" lon="6.7446">
        <ele>448</ele>
        <time>2016-08-15T07:15:27.000Z</time>
      </trkpt>
      <trkpt lat="47.55187" lon="6.74456">
        <ele>448</ele>
        <time>2016-08-15T07:15:28.000Z</time>
      </trkpt>
      <trkpt lat="47.55192" lon="6.74452">
        <ele>448</ele>
        <time>2016-08-15T07:15:29.000Z</time>
      </trkpt>
      <trkpt lat="47.55196" lon="6.74449">
        <ele>448</ele>
        <time>2016-08-15T07:15:30.000Z</time>
      </trkpt>
      <trkpt lat="47.55201" lon="6.74446">
        <ele>448</ele>
        <time>2016-08-15T07:15:31.000Z</time>
      </trkpt>
      <trkpt lat="47.55206" lon="6.74443">
        <ele>448</ele>
        <time>2016-08-15T07:15:32.000Z</time>
      </trkpt>
      <trkpt lat="47.5521" lon="6.7444">
        <ele>448</ele>
        <time>2016-08-15T07:15:33.000Z</time>
      </trkpt>
      <trkpt lat="47.55214" lon="6.74436">
        <ele>448</ele>
        <time>2016-08-15T07:15:34.000Z</time>
      </trkpt>
      <trkpt lat="47.55219" lon="6.74432">
        <ele>447</ele>
        <time>2016-08-15T07:15:35.000Z</time>
      </trkpt>
      <trkpt lat="47.55224" lon="6.74428">
        <ele>447</ele>
        <time>2016-08-15T07:15:36.000Z</time>
      </trkpt>
      <trkpt lat="47.55228" lon="6.74423">
        <ele>447</ele>
        <time>2016-08-15T07:15:37.000Z</time>
      </trkpt>
      <trkpt lat="47.55233" lon="6.74419">
        <ele>447</ele>
        <time>2016-08-15T07:15:38.000Z</time>
      </trkpt>
      <trkpt lat="47.55237" lon="6.74415">
        <ele>447</ele>
        <time>2016-08-15T07:15:39.000Z</time>
      </trkpt>
      <trkpt lat="47.55241" lon="6.74409">
        <ele>447</ele>
        <time>2016-08-15T07:15:40.000Z</time>
      </trkpt>
      <trkpt lat="47.55245" lon="6.74404">
        <ele>447</ele>
        <time>2016-08-15T07:15:41.000Z</time>
      </trkpt>
      <trkpt lat="47.55249" lon="6.74399">
        <ele>447</ele>
        <time>2016-08-15T07:15:42.000Z</time>
      </trkpt>
      <trkpt lat="47.55253" lon="6.74396">
        <ele>443</ele>
        <time>2016-08-15T07:15:43.000Z</time>
      </trkpt>
      <trkpt lat="47.55257" lon="6.74393">
        <ele>443</ele>
        <time>2016-08-15T07:15:44.000Z</time>
      </trkpt>
      <trkpt lat="47.55263" lon="6.74391">
        <ele>442</ele>
        <time>2016-08-15T07:15:45.000Z</time>
      </trkpt>
      <trkpt lat="47.55268" lon="6.74389">
        <ele>442</ele>
        <time>2016-08-15T07:15:46.000Z</time>
      </trkpt>
      <trkpt lat="47.55284" lon="6.74381">
        <ele>441</ele>
        <time>2016-08-15T07:15:47.000Z</time>
      </trkpt>
      <trkpt lat="47.55291" lon="6.74376">
        <ele>440</ele>
        <time>2016-08-15T07:15:48.000Z</time>
      </trkpt>
      <trkpt lat="47.55297" lon="6.74377">
        <ele>440</ele>
        <time>2016-08-15T07:15:49.000Z</time>
      </trkpt>
      <trkpt lat="47.55316" lon="6.74369">
        <ele>438</ele>
        <time>2016-08-15T07:15:50.000Z</time>
      </trkpt>
      <trkpt lat="47.55327" lon="6.74366">
        <ele>438</ele>
        <time>2016-08-15T07:15:51.000Z</time>
      </trkpt>
      <trkpt lat="47.55338" lon="6.74359">
        <ele>430</ele>
        <time>2016-08-15T07:15:52.000Z</time>
      </trkpt>
      <trkpt lat="47.55347" lon="6.74355">
        <ele>430</ele>
        <time>2016-08-15T07:15:53.000Z</time>
      </trkpt>
      <trkpt lat="47.55354" lon="6.74351">
        <ele>430</ele>
        <time>2016-08-15T07:15:54.000Z</time>
      </trkpt>
      <trkpt lat="47.55357" lon="6.74348">
        <ele>430</ele>
        <time>2016-08-15T07:15:55.000Z</time>
      </trkpt>
      <trkpt lat="47.55359" lon="6.74346">
        <ele>429</ele>
        <time>2016-08-15T07:15:56.000Z</time>
      </trkpt>
      <trkpt lat="47.55362" lon="6.74342">
        <ele>429</ele>
        <time>2016-08-15T07:16:00.000Z</time>
      </trkpt>
      <trkpt lat="47.55363" lon="6.74341">
        <ele>429</ele>
        <time>2016-08-15T07:16:01.000Z</time>
      </trkpt>
      <trkpt lat="47.55365" lon="6.74335">
        <ele>429</ele>
        <time>2016-08-15T07:16:09.000Z</time>
      </trkpt>
      <trkpt lat="47.55365" lon="6.74335">
        <ele>429</ele>
        <time>2016-08-15T07:16:10.000Z</time>
      </trkpt>
      <trkpt lat="47.55367" lon="6.7433">
        <ele>430</ele>
        <time>2016-08-15T07:16:26.000Z</time>
      </trkpt>
      <trkpt lat="47.55368" lon="6.74328">
        <ele>430</ele>
        <time>2016-08-15T07:16:27.000Z</time>
      </trkpt>
      <trkpt lat="47.55373" lon="6.74302">
        <ele>430</ele>
        <time>2016-08-15T07:16:28.000Z</time>
      </trkpt>
      <trkpt lat="47.55376" lon="6.74302">
        <ele>430</ele>
        <time>2016-08-15T07:16:30.000Z</time>
      </trkpt>
      <trkpt lat="47.55378" lon="6.74298">
        <ele>430</ele>
        <time>2016-08-15T07:16:31.000Z</time>
      </trkpt>
      <trkpt lat="47.55382" lon="6.74298">
        <ele>430</ele>
        <time>2016-08-15T07:16:34.000Z</time>
      </trkpt>
      <trkpt lat="47.55383" lon="6.74299">
        <ele>430</ele>
        <time>2016-08-15T07:16:35.000Z</time>
      </trkpt>
      <trkpt lat="47.5538" lon="6.74295">
        <ele>430</ele>
        <time>2016-08-15T07:17:56.000Z</time>
      </trkpt>
      <trkpt lat="47.55379" lon="6.74292">
        <ele>430</ele>
        <time>2016-08-15T07:17:57.000Z</time>
      </trkpt>
      <trkpt lat="47.55379" lon="6.74289">
        <ele>430</ele>
        <time>2016-08-15T07:17:58.000Z</time>
      </trkpt>
      <trkpt lat="47.5538" lon="6.74285">
        <ele>430</ele>
        <time>2016-08-15T07:17:59.000Z</time>
      </trkpt>
      <trkpt lat="47.55381" lon="6.74282">
        <ele>430</ele>
        <time>2016-08-15T07:18:00.000Z</time>
      </trkpt>
      <trkpt lat="47.55382" lon="6.74279">
        <ele>430</ele>
        <time>2016-08-15T07:18:01.000Z</time>
      </trkpt>
      <trkpt lat="47.55385" lon="6.74275">
        <ele>430</ele>
        <time>2016-08-15T07:18:03.000Z</time>
      </trkpt>
      <trkpt lat="47.55387" lon="6.74275">
        <ele>430</ele>
        <time>2016-08-15T07:18:04.000Z</time>
      </trkpt>
      <trkpt lat="47.55391" lon="6.74273">
        <ele>429</ele>
        <time>2016-08-15T07:18:06.000Z</time>
      </trkpt>
      <trkpt lat="47.55393" lon="6.74272">
        <ele>429</ele>
        <time>2016-08-15T07:18:07.000Z</time>
      </trkpt>
      <trkpt lat="47.55397" lon="6.74271">
        <ele>429</ele>
        <time>2016-08-15T07:18:09.000Z</time>
      </trkpt>
      <trkpt lat="47.55399" lon="6.74271">
        <ele>429</ele>
        <time>2016-08-15T07:18:10.000Z</time>
      </trkpt>
      <trkpt lat="47.55402" lon="6.74271">
        <ele>429</ele>
        <time>2016-08-15T07:18:11.000Z</time>
      </trkpt>
      <trkpt lat="47.55404" lon="6.74271">
        <ele>429</ele>
        <time>2016-08-15T07:18:12.000Z</time>
      </trkpt>
      <trkpt lat="47.55407" lon="6.74271">
        <ele>428</ele>
        <time>2016-08-15T07:18:13.000Z</time>
      </trkpt>
      <trkpt lat="47.5541" lon="6.74272">
        <ele>428</ele>
        <time>2016-08-15T07:18:14.000Z</time>
      </trkpt>
      <trkpt lat="47.55413" lon="6.74272">
        <ele>428</ele>
        <time>2016-08-15T07:18:15.000Z</time>
      </trkpt>
      <trkpt lat="47.55415" lon="6.74272">
        <ele>428</ele>
        <time>2016-08-15T07:18:16.000Z</time>
      </trkpt>
      <trkpt lat="47.55418" lon="6.74273">
        <ele>425</ele>
        <time>2016-08-15T07:18:17.000Z</time>
      </trkpt>
      <trkpt lat="47.5542" lon="6.74274">
        <ele>425</ele>
        <time>2016-08-15T07:18:18.000Z</time>
      </trkpt>
      <trkpt lat="47.55423" lon="6.74275">
        <ele>424</ele>
        <time>2016-08-15T07:18:19.000Z</time>
      </trkpt>
      <trkpt lat="47.55425" lon="6.74275">
        <ele>424</ele>
        <time>2016-08-15T07:18:20.000Z</time>
      </trkpt>
      <trkpt lat="47.55429" lon="6.74275">
        <ele>424</ele>
        <time>2016-08-15T07:18:22.000Z</time>
      </trkpt>
      <trkpt lat="47.55431" lon="6.74276">
        <ele>424</ele>
        <time>2016-08-15T07:18:23.000Z</time>
      </trkpt>
      <trkpt lat="47.55434" lon="6.74277">
        <ele>424</ele>
        <time>2016-08-15T07:18:25.000Z</time>
      </trkpt>
      <trkpt lat="47.55436" lon="6.74277">
        <ele>424</ele>
        <time>2016-08-15T07:18:26.000Z</time>
      </trkpt>
      <trkpt lat="47.55438" lon="6.74277">
        <ele>424</ele>
        <time>2016-08-15T07:18:27.000Z</time>
      </trkpt>
      <trkpt lat="47.55441" lon="6.74278">
        <ele>424</ele>
        <time>2016-08-15T07:18:28.000Z</time>
      </trkpt>
      <trkpt lat="47.55444" lon="6.74278">
        <ele>424</ele>
        <time>2016-08-15T07:18:29.000Z</time>
      </trkpt>
      <trkpt lat="47.55447" lon="6.74277">
        <ele>424</ele>
        <time>2016-08-15T07:18:30.000Z</time>
      </trkpt>
      <trkpt lat="47.55451" lon="6.74276">
        <ele>424</ele>
        <time>2016-08-15T07:18:31.000Z</time>
      </trkpt>
      <trkpt lat="47.55454" lon="6.74275">
        <ele>424</ele>
        <time>2016-08-15T07:18:32.000Z</time>
      </trkpt>
      <trkpt lat="47.55458" lon="6.74273">
        <ele>424</ele>
        <time>2016-08-15T07:18:33.000Z</time>
      </trkpt>
      <trkpt lat="47.55461" lon="6.74272">
        <ele>424</ele>
        <time>2016-08-15T07:18:34.000Z</time>
      </trkpt>
      <trkpt lat="47.55465" lon="6.74271">
        <ele>424</ele>
        <time>2016-08-15T07:18:35.000Z</time>
      </trkpt>
      <trkpt lat="47.55468" lon="6.7427">
        <ele>424</ele>
        <time>2016-08-15T07:18:36.000Z</time>
      </trkpt>
      <trkpt lat="47.55471" lon="6.74269">
        <ele>424</ele>
        <time>2016-08-15T07:18:37.000Z</time>
      </trkpt>
      <trkpt lat="47.55475" lon="6.74267">
        <ele>424</ele>
        <time>2016-08-15T07:18:38.000Z</time>
      </trkpt>
      <trkpt lat="47.55479" lon="6.74265">
        <ele>424</ele>
        <time>2016-08-15T07:18:39.000Z</time>
      </trkpt>
      <trkpt lat="47.55482" lon="6.74263">
        <ele>424</ele>
        <time>2016-08-15T07:18:40.000Z</time>
      </trkpt>
      <trkpt lat="47.55486" lon="6.74261">
        <ele>424</ele>
        <time>2016-08-15T07:18:41.000Z</time>
      </trkpt>
      <trkpt lat="47.55489" lon="6.74258">
        <ele>424</ele>
        <time>2016-08-15T07:18:42.000Z</time>
      </trkpt>
      <trkpt lat="47.55501" lon="6.74249">
        <ele>424</ele>
        <time>2016-08-15T07:18:43.000Z</time>
      </trkpt>
      <trkpt lat="47.55506" lon="6.74247">
        <ele>423</ele>
        <time>2016-08-15T07:18:44.000Z</time>
      </trkpt>
      <trkpt lat="47.55512" lon="6.74245">
        <ele>423</ele>
        <time>2016-08-15T07:18:45.000Z</time>
      </trkpt>
      <trkpt lat="47.55518" lon="6.74242">
        <ele>422</ele>
        <time>2016-08-15T07:18:46.000Z</time>
      </trkpt>
      <trkpt lat="47.55523" lon="6.74241">
        <ele>422</ele>
        <time>2016-08-15T07:18:47.000Z</time>
      </trkpt>
      <trkpt lat="47.55528" lon="6.74235">
        <ele>422</ele>
        <time>2016-08-15T07:18:48.000Z</time>
      </trkpt>
      <trkpt lat="47.55534" lon="6.74234">
        <ele>422</ele>
        <time>2016-08-15T07:18:49.000Z</time>
      </trkpt>
      <trkpt lat="47.55537" lon="6.74232">
        <ele>422</ele>
        <time>2016-08-15T07:18:50.000Z</time>
      </trkpt>
      <trkpt lat="47.55542" lon="6.74231">
        <ele>421</ele>
        <time>2016-08-15T07:18:51.000Z</time>
      </trkpt>
      <trkpt lat="47.55548" lon="6.74227">
        <ele>421</ele>
        <time>2016-08-15T07:18:52.000Z</time>
      </trkpt>
      <trkpt lat="47.55556" lon="6.74222">
        <ele>421</ele>
        <time>2016-08-15T07:18:53.000Z</time>
      </trkpt>
      <trkpt lat="47.55563" lon="6.7422">
        <ele>421</ele>
        <time>2016-08-15T07:18:54.000Z</time>
      </trkpt>
      <trkpt lat="47.55569" lon="6.74219">
        <ele>421</ele>
        <time>2016-08-15T07:18:55.000Z</time>
      </trkpt>
      <trkpt lat="47.55577" lon="6.74208">
        <ele>421</ele>
        <time>2016-08-15T07:18:56.000Z</time>
      </trkpt>
      <trkpt lat="47.55588" lon="6.74203">
        <ele>420</ele>
        <time>2016-08-15T07:18:57.000Z</time>
      </trkpt>
      <trkpt lat="47.55597" lon="6.74196">
        <ele>420</ele>
        <time>2016-08-15T07:18:58.000Z</time>
      </trkpt>
      <trkpt lat="47.55605" lon="6.74191">
        <ele>420</ele>
        <time>2016-08-15T07:18:59.000Z</time>
      </trkpt>
      <trkpt lat="47.55611" lon="6.74186">
        <ele>420</ele>
        <time>2016-08-15T07:19:00.000Z</time>
      </trkpt>
      <trkpt lat="47.55611" lon="6.74185">
        <ele>420</ele>
        <time>2016-08-15T07:19:01.000Z</time>
      </trkpt>
      <trkpt lat="47.55616" lon="6.74187">
        <ele>420</ele>
        <time>2016-08-15T07:19:02.000Z</time>
      </trkpt>
      <trkpt lat="47.5562" lon="6.74183">
        <ele>420</ele>
        <time>2016-08-15T07:19:03.000Z</time>
      </trkpt>
      <trkpt lat="47.55629" lon="6.74169">
        <ele>421</ele>
        <time>2016-08-15T07:19:04.000Z</time>
      </trkpt>
      <trkpt lat="47.55634" lon="6.74161">
        <ele>420</ele>
        <time>2016-08-15T07:19:05.000Z</time>
      </trkpt>
      <trkpt lat="47.55639" lon="6.74155">
        <ele>420</ele>
        <time>2016-08-15T07:19:06.000Z</time>
      </trkpt>
      <trkpt lat="47.55643" lon="6.74148">
        <ele>420</ele>
        <time>2016-08-15T07:19:07.000Z</time>
      </trkpt>
      <trkpt lat="47.55648" lon="6.74141">
        <ele>419</ele>
        <time>2016-08-15T07:19:08.000Z</time>
      </trkpt>
      <trkpt lat="47.55651" lon="6.74135">
        <ele>419</ele>
        <time>2016-08-15T07:19:09.000Z</time>
      </trkpt>
      <trkpt lat="47.55655" lon="6.74128">
        <ele>419</ele>
        <time>2016-08-15T07:19:10.000Z</time>
      </trkpt>
      <trkpt lat="47.55659" lon="6.7412">
        <ele>419</ele>
        <time>2016-08-15T07:19:11.000Z</time>
      </trkpt>
      <trkpt lat="47.55662" lon="6.74113">
        <ele>419</ele>
        <time>2016-08-15T07:19:12.000Z</time>
      </trkpt>
      <trkpt lat="47.55666" lon="6.74105">
        <ele>418</ele>
        <time>2016-08-15T07:19:13.000Z</time>
      </trkpt>
      <trkpt lat="47.55669" lon="6.74097">
        <ele>418</ele>
        <time>2016-08-15T07:19:14.000Z</time>
      </trkpt>
      <trkpt lat="47.55674" lon="6.74091">
        <ele>418</ele>
        <time>2016-08-15T07:19:15.000Z</time>
      </trkpt>
      <trkpt lat="47.55678" lon="6.74083">
        <ele>416</ele>
        <time>2016-08-15T07:19:16.000Z</time>
      </trkpt>
      <trkpt lat="47.55679" lon="6.74075">
        <ele>416</ele>
        <time>2016-08-15T07:19:17.000Z</time>
      </trkpt>
      <trkpt lat="47.55681" lon="6.74065">
        <ele>416</ele>
        <time>2016-08-15T07:19:18.000Z</time>
      </trkpt>
      <trkpt lat="47.55682" lon="6.74058">
        <ele>416</ele>
        <time>2016-08-15T07:19:19.000Z</time>
      </trkpt>
      <trkpt lat="47.55684" lon="6.74051">
        <ele>416</ele>
        <time>2016-08-15T07:19:20.000Z</time>
      </trkpt>
      <trkpt lat="47.55686" lon="6.74045">
        <ele>415</ele>
        <time>2016-08-15T07:19:21.000Z</time>
      </trkpt>
      <trkpt lat="47.55689" lon="6.74038">
        <ele>415</ele>
        <time>2016-08-15T07:19:22.000Z</time>
      </trkpt>
      <trkpt lat="47.55692" lon="6.7403">
        <ele>415</ele>
        <time>2016-08-15T07:19:23.000Z</time>
      </trkpt>
      <trkpt lat="47.55695" lon="6.74022">
        <ele>415</ele>
        <time>2016-08-15T07:19:24.000Z</time>
      </trkpt>
      <trkpt lat="47.55698" lon="6.74014">
        <ele>415</ele>
        <time>2016-08-15T07:19:25.000Z</time>
      </trkpt>
      <trkpt lat="47.557" lon="6.74006">
        <ele>415</ele>
        <time>2016-08-15T07:19:26.000Z</time>
      </trkpt>
      <trkpt lat="47.55702" lon="6.73999">
        <ele>412</ele>
        <time>2016-08-15T07:19:27.000Z</time>
      </trkpt>
      <trkpt lat="47.55705" lon="6.73992">
        <ele>411</ele>
        <time>2016-08-15T07:19:28.000Z</time>
      </trkpt>
      <trkpt lat="47.55707" lon="6.73983">
        <ele>411</ele>
        <time>2016-08-15T07:19:29.000Z</time>
      </trkpt>
      <trkpt lat="47.5571" lon="6.73977">
        <ele>411</ele>
        <time>2016-08-15T07:19:30.000Z</time>
      </trkpt>
      <trkpt lat="47.55713" lon="6.73969">
        <ele>411</ele>
        <time>2016-08-15T07:19:31.000Z</time>
      </trkpt>
      <trkpt lat="47.55716" lon="6.73963">
        <ele>410</ele>
        <time>2016-08-15T07:19:32.000Z</time>
      </trkpt>
      <trkpt lat="47.55721" lon="6.7396">
        <ele>410</ele>
        <time>2016-08-15T07:19:33.000Z</time>
      </trkpt>
      <trkpt lat="47.55725" lon="6.73956">
        <ele>410</ele>
        <time>2016-08-15T07:19:34.000Z</time>
      </trkpt>
      <trkpt lat="47.5573" lon="6.73953">
        <ele>410</ele>
        <time>2016-08-15T07:19:35.000Z</time>
      </trkpt>
      <trkpt lat="47.55735" lon="6.73954">
        <ele>410</ele>
        <time>2016-08-15T07:19:36.000Z</time>
      </trkpt>
      <trkpt lat="47.55738" lon="6.73956">
        <ele>410</ele>
        <time>2016-08-15T07:19:37.000Z</time>
      </trkpt>
      <trkpt lat="47.5574" lon="6.73957">
        <ele>410</ele>
        <time>2016-08-15T07:19:38.000Z</time>
      </trkpt>
      <trkpt lat="47.55741" lon="6.73952">
        <ele>410</ele>
        <time>2016-08-15T07:19:41.000Z</time>
      </trkpt>
      <trkpt lat="47.55739" lon="6.7395">
        <ele>410</ele>
        <time>2016-08-15T07:19:42.000Z</time>
      </trkpt>
      <trkpt lat="47.55736" lon="6.73948">
        <ele>410</ele>
        <time>2016-08-15T07:19:44.000Z</time>
      </trkpt>
      <trkpt lat="47.55734" lon="6.73947">
        <ele>410</ele>
        <time>2016-08-15T07:19:45.000Z</time>
      </trkpt>
      <trkpt lat="47.55732" lon="6.73946">
        <ele>410</ele>
        <time>2016-08-15T07:19:46.001Z</time>
      </trkpt>
      <trkpt lat="47.55729" lon="6.73945">
        <ele>410</ele>
        <time>2016-08-15T07:19:47.000Z</time>
      </trkpt>
      <trkpt lat="47.55727" lon="6.73945">
        <ele>410</ele>
        <time>2016-08-15T07:19:48.000Z</time>
      </trkpt>
      <trkpt lat="47.55724" lon="6.73945">
        <ele>410</ele>
        <time>2016-08-15T07:19:49.000Z</time>
      </trkpt>
      <trkpt lat="47.55721" lon="6.73946">
        <ele>410</ele>
        <time>2016-08-15T07:19:50.000Z</time>
      </trkpt>
      <trkpt lat="47.55719" lon="6.73947">
        <ele>410</ele>
        <time>2016-08-15T07:19:51.000Z</time>
      </trkpt>
      <trkpt lat="47.55718" lon="6.73941">
        <ele>410</ele>
        <time>2016-08-15T07:19:54.000Z</time>
      </trkpt>
      <trkpt lat="47.55719" lon="6.73939">
        <ele>410</ele>
        <time>2016-08-15T07:19:55.000Z</time>
      </trkpt>
      <trkpt lat="47.55722" lon="6.73934">
        <ele>409</ele>
        <time>2016-08-15T07:19:56.000Z</time>
      </trkpt>
      <trkpt lat="47.55729" lon="6.73924">
        <ele>409</ele>
        <time>2016-08-15T07:19:57.000Z</time>
      </trkpt>
      <trkpt lat="47.55732" lon="6.7392">
        <ele>408</ele>
        <time>2016-08-15T07:19:58.000Z</time>
      </trkpt>
      <trkpt lat="47.55735" lon="6.73917">
        <ele>408</ele>
        <time>2016-08-15T07:19:59.000Z</time>
      </trkpt>
      <trkpt lat="47.55738" lon="6.73911">
        <ele>406</ele>
        <time>2016-08-15T07:20:00.000Z</time>
      </trkpt>
      <trkpt lat="47.55742" lon="6.73906">
        <ele>406</ele>
        <time>2016-08-15T07:20:01.000Z</time>
      </trkpt>
      <trkpt lat="47.55746" lon="6.739">
        <ele>406</ele>
        <time>2016-08-15T07:20:02.000Z</time>
      </trkpt>
      <trkpt lat="47.55751" lon="6.73895">
        <ele>404</ele>
        <time>2016-08-15T07:20:03.000Z</time>
      </trkpt>
      <trkpt lat="47.55756" lon="6.73891">
        <ele>403</ele>
        <time>2016-08-15T07:20:04.000Z</time>
      </trkpt>
      <trkpt lat="47.5576" lon="6.73884">
        <ele>403</ele>
        <time>2016-08-15T07:20:05.000Z</time>
      </trkpt>
      <trkpt lat="47.55764" lon="6.73879">
        <ele>403</ele>
        <time>2016-08-15T07:20:06.000Z</time>
      </trkpt>
      <trkpt lat="47.5577" lon="6.73876">
        <ele>402</ele>
        <time>2016-08-15T07:20:07.000Z</time>
      </trkpt>
      <trkpt lat="47.55776" lon="6.73871">
        <ele>402</ele>
        <time>2016-08-15T07:20:08.000Z</time>
      </trkpt>
      <trkpt lat="47.55782" lon="6.73871">
        <ele>402</ele>
        <time>2016-08-15T07:20:09.000Z</time>
      </trkpt>
      <trkpt lat="47.55787" lon="6.7387">
        <ele>402</ele>
        <time>2016-08-15T07:20:10.000Z</time>
      </trkpt>
      <trkpt lat="47.55794" lon="6.7387">
        <ele>402</ele>
        <time>2016-08-15T07:20:11.000Z</time>
      </trkpt>
      <trkpt lat="47.55798" lon="6.73869">
        <ele>402</ele>
        <time>2016-08-15T07:20:12.000Z</time>
      </trkpt>
      <trkpt lat="47.55803" lon="6.73869">
        <ele>402</ele>
        <time>2016-08-15T07:20:13.000Z</time>
      </trkpt>
      <trkpt lat="47.55808" lon="6.73868">
        <ele>401</ele>
        <time>2016-08-15T07:20:14.001Z</time>
      </trkpt>
      <trkpt lat="47.55813" lon="6.73869">
        <ele>401</ele>
        <time>2016-08-15T07:20:15.000Z</time>
      </trkpt>
      <trkpt lat="47.55819" lon="6.73868">
        <ele>401</ele>
        <time>2016-08-15T07:20:16.000Z</time>
      </trkpt>
      <trkpt lat="47.55824" lon="6.73867">
        <ele>401</ele>
        <time>2016-08-15T07:20:17.000Z</time>
      </trkpt>
      <trkpt lat="47.55828" lon="6.73866">
        <ele>401</ele>
        <time>2016-08-15T07:20:18.000Z</time>
      </trkpt>
      <trkpt lat="47.55832" lon="6.73865">
        <ele>401</ele>
        <time>2016-08-15T07:20:18.999Z</time>
      </trkpt>
      <trkpt lat="47.55834" lon="6.73866">
        <ele>400</ele>
        <time>2016-08-15T07:20:20.000Z</time>
      </trkpt>
      <trkpt lat="47.55836" lon="6.73869">
        <ele>400</ele>
        <time>2016-08-15T07:20:21.000Z</time>
      </trkpt>
      <trkpt lat="47.55838" lon="6.73872">
        <ele>401</ele>
        <time>2016-08-15T07:20:22.000Z</time>
      </trkpt>
      <trkpt lat="47.55839" lon="6.73874">
        <ele>401</ele>
        <time>2016-08-15T07:20:23.000Z</time>
      </trkpt>
      <trkpt lat="47.55842" lon="6.73878">
        <ele>401</ele>
        <time>2016-08-15T07:20:26.000Z</time>
      </trkpt>
      <trkpt lat="47.55842" lon="6.7388">
        <ele>401</ele>
        <time>2016-08-15T07:20:27.000Z</time>
      </trkpt>
      <trkpt lat="47.55843" lon="6.73884">
        <ele>401</ele>
        <time>2016-08-15T07:20:29.000Z</time>
      </trkpt>
      <trkpt lat="47.55843" lon="6.73886">
        <ele>401</ele>
        <time>2016-08-15T07:20:30.000Z</time>
      </trkpt>
      <trkpt lat="47.55844" lon="6.7389">
        <ele>401</ele>
        <time>2016-08-15T07:20:31.000Z</time>
      </trkpt>
      <trkpt lat="47.55844" lon="6.73893">
        <ele>401</ele>
        <time>2016-08-15T07:20:32.000Z</time>
      </trkpt>
      <trkpt lat="47.55845" lon="6.73898">
        <ele>402</ele>
        <time>2016-08-15T07:20:34.000Z</time>
      </trkpt>
      <trkpt lat="47.55846" lon="6.73901">
        <ele>402</ele>
        <time>2016-08-15T07:20:35.000Z</time>
      </trkpt>
      <trkpt lat="47.55846" lon="6.73905">
        <ele>402</ele>
        <time>2016-08-15T07:20:36.000Z</time>
      </trkpt>
      <trkpt lat="47.55847" lon="6.73908">
        <ele>402</ele>
        <time>2016-08-15T07:20:37.000Z</time>
      </trkpt>
      <trkpt lat="47.55847" lon="6.73912">
        <ele>402</ele>
        <time>2016-08-15T07:20:38.000Z</time>
      </trkpt>
      <trkpt lat="47.55847" lon="6.73916">
        <ele>402</ele>
        <time>2016-08-15T07:20:39.000Z</time>
      </trkpt>
      <trkpt lat="47.55848" lon="6.73919">
        <ele>404</ele>
        <time>2016-08-15T07:20:40.000Z</time>
      </trkpt>
      <trkpt lat="47.55849" lon="6.73922">
        <ele>404</ele>
        <time>2016-08-15T07:20:41.000Z</time>
      </trkpt>
      <trkpt lat="47.5585" lon="6.73925">
        <ele>404</ele>
        <time>2016-08-15T07:20:42.000Z</time>
      </trkpt>
      <trkpt lat="47.55852" lon="6.73929">
        <ele>404</ele>
        <time>2016-08-15T07:20:43.000Z</time>
      </trkpt>
      <trkpt lat="47.55853" lon="6.73932">
        <ele>404</ele>
        <time>2016-08-15T07:20:44.000Z</time>
      </trkpt>
      <trkpt lat="47.55854" lon="6.73936">
        <ele>405</ele>
        <time>2016-08-15T07:20:44.999Z</time>
      </trkpt>
      <trkpt lat="47.55855" lon="6.7394">
        <ele>405</ele>
        <time>2016-08-15T07:20:46.000Z</time>
      </trkpt>
      <trkpt lat="47.55856" lon="6.73942">
        <ele>405</ele>
        <time>2016-08-15T07:20:47.000Z</time>
      </trkpt>
      <trkpt lat="47.55857" lon="6.73948">
        <ele>405</ele>
        <time>2016-08-15T07:20:49.000Z</time>
      </trkpt>
      <trkpt lat="47.55857" lon="6.73951">
        <ele>405</ele>
        <time>2016-08-15T07:20:50.000Z</time>
      </trkpt>
      <trkpt lat="47.55858" lon="6.73957">
        <ele>405</ele>
        <time>2016-08-15T07:20:52.000Z</time>
      </trkpt>
      <trkpt lat="47.55858" lon="6.73959">
        <ele>405</ele>
        <time>2016-08-15T07:20:53.000Z</time>
      </trkpt>
      <trkpt lat="47.55858" lon="6.73964">
        <ele>405</ele>
        <time>2016-08-15T07:20:55.000Z</time>
      </trkpt>
      <trkpt lat="47.55858" lon="6.73967">
        <ele>406</ele>
        <time>2016-08-15T07:20:56.000Z</time>
      </trkpt>
      <trkpt lat="47.55857" lon="6.73972">
        <ele>406</ele>
        <time>2016-08-15T07:20:58.000Z</time>
      </trkpt>
      <trkpt lat="47.55857" lon="6.73975">
        <ele>406</ele>
        <time>2016-08-15T07:20:59.000Z</time>
      </trkpt>
      <trkpt lat="47.55856" lon="6.7398">
        <ele>406</ele>
        <time>2016-08-15T07:21:01.000Z</time>
      </trkpt>
      <trkpt lat="47.55857" lon="6.73983">
        <ele>406</ele>
        <time>2016-08-15T07:21:02.000Z</time>
      </trkpt>
      <trkpt lat="47.55857" lon="6.73987">
        <ele>406</ele>
        <time>2016-08-15T07:21:03.000Z</time>
      </trkpt>
      <trkpt lat="47.55858" lon="6.7399">
        <ele>406</ele>
        <time>2016-08-15T07:21:03.999Z</time>
      </trkpt>
      <trkpt lat="47.55859" lon="6.73993">
        <ele>406</ele>
        <time>2016-08-15T07:21:05.000Z</time>
      </trkpt>
      <trkpt lat="47.55859" lon="6.73997">
        <ele>406</ele>
        <time>2016-08-15T07:21:05.998Z</time>
      </trkpt>
      <trkpt lat="47.5586" lon="6.74001">
        <ele>409</ele>
        <time>2016-08-15T07:21:07.000Z</time>
      </trkpt>
      <trkpt lat="47.5586" lon="6.74004">
        <ele>409</ele>
        <time>2016-08-15T07:21:08.002Z</time>
      </trkpt>
      <trkpt lat="47.5586" lon="6.74009">
        <ele>409</ele>
        <time>2016-08-15T07:21:09.001Z</time>
      </trkpt>
      <trkpt lat="47.55861" lon="6.74013">
        <ele>409</ele>
        <time>2016-08-15T07:21:10.000Z</time>
      </trkpt>
      <trkpt lat="47.55861" lon="6.74017">
        <ele>409</ele>
        <time>2016-08-15T07:21:11.000Z</time>
      </trkpt>
      <trkpt lat="47.55861" lon="6.7402">
        <ele>409</ele>
        <time>2016-08-15T07:21:12.000Z</time>
      </trkpt>
      <trkpt lat="47.55862" lon="6.74025">
        <ele>409</ele>
        <time>2016-08-15T07:21:13.000Z</time>
      </trkpt>
      <trkpt lat="47.55863" lon="6.74028">
        <ele>409</ele>
        <time>2016-08-15T07:21:14.000Z</time>
      </trkpt>
      <trkpt lat="47.55864" lon="6.74033">
        <ele>409</ele>
        <time>2016-08-15T07:21:15.000Z</time>
      </trkpt>
      <trkpt lat="47.55864" lon="6.74037">
        <ele>409</ele>
        <time>2016-08-15T07:21:16.000Z</time>
      </trkpt>
      <trkpt lat="47.55865" lon="6.74041">
        <ele>409</ele>
        <time>2016-08-15T07:21:17.000Z</time>
      </trkpt>
      <trkpt lat="47.55866" lon="6.74045">
        <ele>409</ele>
        <time>2016-08-15T07:21:18.000Z</time>
      </trkpt>
      <trkpt lat="47.55867" lon="6.74049">
        <ele>409</ele>
        <time>2016-08-15T07:21:19.000Z</time>
      </trkpt>
      <trkpt lat="47.55867" lon="6.74053">
        <ele>410</ele>
        <time>2016-08-15T07:21:20.000Z</time>
      </trkpt>
      <trkpt lat="47.55868" lon="6.74056">
        <ele>410</ele>
        <time>2016-08-15T07:21:21.000Z</time>
      </trkpt>
      <trkpt lat="47.55869" lon="6.7406">
        <ele>410</ele>
        <time>2016-08-15T07:21:22.000Z</time>
      </trkpt>
      <trkpt lat="47.55869" lon="6.74063">
        <ele>410</ele>
        <time>2016-08-15T07:21:23.001Z</time>
      </trkpt>
      <trkpt lat="47.55869" lon="6.74067">
        <ele>410</ele>
        <time>2016-08-15T07:21:24.000Z</time>
      </trkpt>
      <trkpt lat="47.55869" lon="6.74071">
        <ele>410</ele>
        <time>2016-08-15T07:21:25.000Z</time>
      </trkpt>
      <trkpt lat="47.5587" lon="6.74074">
        <ele>410</ele>
        <time>2016-08-15T07:21:26.000Z</time>
      </trkpt>
      <trkpt lat="47.5587" lon="6.74078">
        <ele>410</ele>
        <time>2016-08-15T07:21:27.000Z</time>
      </trkpt>
      <trkpt lat="47.5587" lon="6.74081">
        <ele>410</ele>
        <time>2016-08-15T07:21:28.000Z</time>
      </trkpt>
      <trkpt lat="47.5587" lon="6.74085">
        <ele>412</ele>
        <time>2016-08-15T07:21:29.000Z</time>
      </trkpt>
      <trkpt lat="47.5587" lon="6.74088">
        <ele>412</ele>
        <time>2016-08-15T07:21:30.000Z</time>
      </trkpt>
      <trkpt lat="47.5587" lon="6.74092">
        <ele>412</ele>
        <time>2016-08-15T07:21:31.000Z</time>
      </trkpt>
      <trkpt lat="47.5587" lon="6.74096">
        <ele>412</ele>
        <time>2016-08-15T07:21:32.000Z</time>
      </trkpt>
      <trkpt lat="47.55871" lon="6.74099">
        <ele>412</ele>
        <time>2016-08-15T07:21:33.000Z</time>
      </trkpt>
      <trkpt lat="47.55871" lon="6.74103">
        <ele>412</ele>
        <time>2016-08-15T07:21:34.000Z</time>
      </trkpt>
      <trkpt lat="47.55872" lon="6.74106">
        <ele>412</ele>
        <time>2016-08-15T07:21:35.000Z</time>
      </trkpt>
      <trkpt lat="47.55872" lon="6.7411">
        <ele>412</ele>
        <time>2016-08-15T07:21:36.000Z</time>
      </trkpt>
      <trkpt lat="47.55873" lon="6.74114">
        <ele>412</ele>
        <time>2016-08-15T07:21:37.000Z</time>
      </trkpt>
      <trkpt lat="47.55873" lon="6.74118">
        <ele>412</ele>
        <time>2016-08-15T07:21:38.000Z</time>
      </trkpt>
      <trkpt lat="47.55874" lon="6.74122">
        <ele>412</ele>
        <time>2016-08-15T07:21:39.000Z</time>
      </trkpt>
      <trkpt lat="47.55874" lon="6.74127">
        <ele>413</ele>
        <time>2016-08-15T07:21:40.000Z</time>
      </trkpt>
      <trkpt lat="47.55875" lon="6.74131">
        <ele>413</ele>
        <time>2016-08-15T07:21:41.000Z</time>
      </trkpt>
      <trkpt lat="47.55875" lon="6.74134">
        <ele>413</ele>
        <time>2016-08-15T07:21:42.000Z</time>
      </trkpt>
      <trkpt lat="47.55876" lon="6.74138">
        <ele>413</ele>
        <time>2016-08-15T07:21:43.000Z</time>
      </trkpt>
      <trkpt lat="47.55876" lon="6.74141">
        <ele>413</ele>
        <time>2016-08-15T07:21:44.000Z</time>
      </trkpt>
      <trkpt lat="47.55877" lon="6.74145">
        <ele>413</ele>
        <time>2016-08-15T07:21:45.000Z</time>
      </trkpt>
      <trkpt lat="47.55877" lon="6.74148">
        <ele>413</ele>
        <time>2016-08-15T07:21:46.000Z</time>
      </trkpt>
      <trkpt lat="47.55878" lon="6.74152">
        <ele>413</ele>
        <time>2016-08-15T07:21:47.000Z</time>
      </trkpt>
      <trkpt lat="47.55878" lon="6.74156">
        <ele>413</ele>
        <time>2016-08-15T07:21:48.000Z</time>
      </trkpt>
      <trkpt lat="47.55878" lon="6.74159">
        <ele>413</ele>
        <time>2016-08-15T07:21:49.000Z</time>
      </trkpt>
      <trkpt lat="47.55878" lon="6.74163">
        <ele>413</ele>
        <time>2016-08-15T07:21:50.000Z</time>
      </trkpt>
      <trkpt lat="47.55878" lon="6.74166">
        <ele>413</ele>
        <time>2016-08-15T07:21:51.000Z</time>
      </trkpt>
      <trkpt lat="47.55879" lon="6.74169">
        <ele>415</ele>
        <time>2016-08-15T07:21:52.000Z</time>
      </trkpt>
      <trkpt lat="47.55879" lon="6.74173">
        <ele>415</ele>
        <time>2016-08-15T07:21:53.000Z</time>
      </trkpt>
      <trkpt lat="47.5588" lon="6.74177">
        <ele>416</ele>
        <time>2016-08-15T07:21:54.000Z</time>
      </trkpt>
      <trkpt lat="47.5588" lon="6.74181">
        <ele>416</ele>
        <time>2016-08-15T07:21:55.000Z</time>
      </trkpt>
      <trkpt lat="47.55881" lon="6.74185">
        <ele>416</ele>
        <time>2016-08-15T07:21:56.000Z</time>
      </trkpt>
      <trkpt lat="47.55881" lon="6.74189">
        <ele>416</ele>
        <time>2016-08-15T07:21:57.000Z</time>
      </trkpt>
      <trkpt lat="47.55882" lon="6.74194">
        <ele>416</ele>
        <time>2016-08-15T07:21:58.000Z</time>
      </trkpt>
      <trkpt lat="47.55882" lon="6.74198">
        <ele>416</ele>
        <time>2016-08-15T07:21:59.000Z</time>
      </trkpt>
      <trkpt lat="47.55883" lon="6.74203">
        <ele>416</ele>
        <time>2016-08-15T07:22:00.000Z</time>
      </trkpt>
      <trkpt lat="47.55884" lon="6.74207">
        <ele>416</ele>
        <time>2016-08-15T07:22:01.000Z</time>
      </trkpt>
      <trkpt lat="47.55885" lon="6.74211">
        <ele>416</ele>
        <time>2016-08-15T07:22:02.000Z</time>
      </trkpt>
      <trkpt lat="47.55885" lon="6.74215">
        <ele>416</ele>
        <time>2016-08-15T07:22:03.000Z</time>
      </trkpt>
      <trkpt lat="47.55885" lon="6.74218">
        <ele>417</ele>
        <time>2016-08-15T07:22:04.000Z</time>
      </trkpt>
      <trkpt lat="47.55886" lon="6.74222">
        <ele>417</ele>
        <time>2016-08-15T07:22:05.000Z</time>
      </trkpt>
      <trkpt lat="47.55887" lon="6.74226">
        <ele>417</ele>
        <time>2016-08-15T07:22:06.000Z</time>
      </trkpt>
      <trkpt lat="47.55887" lon="6.7423">
        <ele>417</ele>
        <time>2016-08-15T07:22:07.000Z</time>
      </trkpt>
      <trkpt lat="47.55888" lon="6.74234">
        <ele>417</ele>
        <time>2016-08-15T07:22:08.000Z</time>
      </trkpt>
      <trkpt lat="47.55889" lon="6.74239">
        <ele>417</ele>
        <time>2016-08-15T07:22:09.000Z</time>
      </trkpt>
      <trkpt lat="47.55889" lon="6.74243">
        <ele>417</ele>
        <time>2016-08-15T07:22:10.000Z</time>
      </trkpt>
      <trkpt lat="47.5589" lon="6.74247">
        <ele>417</ele>
        <time>2016-08-15T07:22:11.000Z</time>
      </trkpt>
      <trkpt lat="47.5589" lon="6.74251">
        <ele>419</ele>
        <time>2016-08-15T07:22:12.000Z</time>
      </trkpt>
      <trkpt lat="47.55891" lon="6.74255">
        <ele>419</ele>
        <time>2016-08-15T07:22:13.000Z</time>
      </trkpt>
      <trkpt lat="47.55891" lon="6.7426">
        <ele>419</ele>
        <time>2016-08-15T07:22:14.000Z</time>
      </trkpt>
      <trkpt lat="47.55893" lon="6.74264">
        <ele>419</ele>
        <time>2016-08-15T07:22:15.000Z</time>
      </trkpt>
      <trkpt lat="47.55895" lon="6.74266">
        <ele>419</ele>
        <time>2016-08-15T07:22:16.000Z</time>
      </trkpt>
      <trkpt lat="47.55898" lon="6.74267">
        <ele>419</ele>
        <time>2016-08-15T07:22:17.000Z</time>
      </trkpt>
      <trkpt lat="47.559" lon="6.74266">
        <ele>419</ele>
        <time>2016-08-15T07:22:18.000Z</time>
      </trkpt>
      <trkpt lat="47.55902" lon="6.74265">
        <ele>419</ele>
        <time>2016-08-15T07:22:19.000Z</time>
      </trkpt>
      <trkpt lat="47.55905" lon="6.74265">
        <ele>419</ele>
        <time>2016-08-15T07:22:20.000Z</time>
      </trkpt>
      <trkpt lat="47.55907" lon="6.74265">
        <ele>419</ele>
        <time>2016-08-15T07:22:21.000Z</time>
      </trkpt>
      <trkpt lat="47.5591" lon="6.74266">
        <ele>419</ele>
        <time>2016-08-15T07:22:22.000Z</time>
      </trkpt>
      <trkpt lat="47.55913" lon="6.74266">
        <ele>419</ele>
        <time>2016-08-15T07:22:23.000Z</time>
      </trkpt>
      <trkpt lat="47.55916" lon="6.74267">
        <ele>419</ele>
        <time>2016-08-15T07:22:24.000Z</time>
      </trkpt>
      <trkpt lat="47.55918" lon="6.74268">
        <ele>419</ele>
        <time>2016-08-15T07:22:25.000Z</time>
      </trkpt>
      <trkpt lat="47.5592" lon="6.74269">
        <ele>419</ele>
        <time>2016-08-15T07:22:26.000Z</time>
      </trkpt>
      <trkpt lat="47.55923" lon="6.7427">
        <ele>419</ele>
        <time>2016-08-15T07:22:27.000Z</time>
      </trkpt>
      <trkpt lat="47.55926" lon="6.7427">
        <ele>419</ele>
        <time>2016-08-15T07:22:28.000Z</time>
      </trkpt>
      <trkpt lat="47.55928" lon="6.7427">
        <ele>419</ele>
        <time>2016-08-15T07:22:29.000Z</time>
      </trkpt>
      <trkpt lat="47.55931" lon="6.7427">
        <ele>419</ele>
        <time>2016-08-15T07:22:30.000Z</time>
      </trkpt>
      <trkpt lat="47.55933" lon="6.74269">
        <ele>419</ele>
        <time>2016-08-15T07:22:31.000Z</time>
      </trkpt>
      <trkpt lat="47.55936" lon="6.74269">
        <ele>419</ele>
        <time>2016-08-15T07:22:32.000Z</time>
      </trkpt>
      <trkpt lat="47.55939" lon="6.7427">
        <ele>419</ele>
        <time>2016-08-15T07:22:33.000Z</time>
      </trkpt>
      <trkpt lat="47.55942" lon="6.7427">
        <ele>419</ele>
        <time>2016-08-15T07:22:34.000Z</time>
      </trkpt>
      <trkpt lat="47.55946" lon="6.74271">
        <ele>419</ele>
        <time>2016-08-15T07:22:35.000Z</time>
      </trkpt>
      <trkpt lat="47.55949" lon="6.74271">
        <ele>419</ele>
        <time>2016-08-15T07:22:36.000Z</time>
      </trkpt>
      <trkpt lat="47.55952" lon="6.74272">
        <ele>419</ele>
        <time>2016-08-15T07:22:37.000Z</time>
      </trkpt>
      <trkpt lat="47.55954" lon="6.74273">
        <ele>419</ele>
        <time>2016-08-15T07:22:38.000Z</time>
      </trkpt>
      <trkpt lat="47.55957" lon="6.74274">
        <ele>419</ele>
        <time>2016-08-15T07:22:39.000Z</time>
      </trkpt>
      <trkpt lat="47.5596" lon="6.74274">
        <ele>419</ele>
        <time>2016-08-15T07:22:40.000Z</time>
      </trkpt>
      <trkpt lat="47.55962" lon="6.74275">
        <ele>419</ele>
        <time>2016-08-15T07:22:41.000Z</time>
      </trkpt>
      <trkpt lat="47.55964" lon="6.74275">
        <ele>419</ele>
        <time>2016-08-15T07:22:42.000Z</time>
      </trkpt>
      <trkpt lat="47.55967" lon="6.74275">
        <ele>419</ele>
        <time>2016-08-15T07:22:43.000Z</time>
      </trkpt>
      <trkpt lat="47.5597" lon="6.74274">
        <ele>419</ele>
        <time>2016-08-15T07:22:44.000Z</time>
      </trkpt>
      <trkpt lat="47.55973" lon="6.74272">
        <ele>419</ele>
        <time>2016-08-15T07:22:45.000Z</time>
      </trkpt>
      <trkpt lat="47.55976" lon="6.7427">
        <ele>419</ele>
        <time>2016-08-15T07:22:46.000Z</time>
      </trkpt>
      <trkpt lat="47.55979" lon="6.74268">
        <ele>419</ele>
        <time>2016-08-15T07:22:47.000Z</time>
      </trkpt>
      <trkpt lat="47.55982" lon="6.74267">
        <ele>419</ele>
        <time>2016-08-15T07:22:48.000Z</time>
      </trkpt>
      <trkpt lat="47.55985" lon="6.74266">
        <ele>419</ele>
        <time>2016-08-15T07:22:49.000Z</time>
      </trkpt>
      <trkpt lat="47.55987" lon="6.74265">
        <ele>419</ele>
        <time>2016-08-15T07:22:50.000Z</time>
      </trkpt>
      <trkpt lat="47.5599" lon="6.74264">
        <ele>419</ele>
        <time>2016-08-15T07:22:51.000Z</time>
      </trkpt>
      <trkpt lat="47.55993" lon="6.74265">
        <ele>419</ele>
        <time>2016-08-15T07:22:52.000Z</time>
      </trkpt>
      <trkpt lat="47.55997" lon="6.74265">
        <ele>419</ele>
        <time>2016-08-15T07:22:53.000Z</time>
      </trkpt>
      <trkpt lat="47.56" lon="6.74265">
        <ele>419</ele>
        <time>2016-08-15T07:22:54.000Z</time>
      </trkpt>
      <trkpt lat="47.56004" lon="6.74266">
        <ele>419</ele>
        <time>2016-08-15T07:22:55.000Z</time>
      </trkpt>
      <trkpt lat="47.56007" lon="6.74266">
        <ele>419</ele>
        <time>2016-08-15T07:22:56.000Z</time>
      </trkpt>
      <trkpt lat="47.56011" lon="6.74266">
        <ele>419</ele>
        <time>2016-08-15T07:22:57.000Z</time>
      </trkpt>
      <trkpt lat="47.56014" lon="6.74266">
        <ele>419</ele>
        <time>2016-08-15T07:22:58.000Z</time>
      </trkpt>
      <trkpt lat="47.56018" lon="6.74266">
        <ele>419</ele>
        <time>2016-08-15T07:22:59.000Z</time>
      </trkpt>
      <trkpt lat="47.56022" lon="6.74267">
        <ele>420</ele>
        <time>2016-08-15T07:23:00.000Z</time>
      </trkpt>
      <trkpt lat="47.56026" lon="6.74267">
        <ele>420</ele>
        <time>2016-08-15T07:23:01.000Z</time>
      </trkpt>
      <trkpt lat="47.5603" lon="6.74267">
        <ele>420</ele>
        <time>2016-08-15T07:23:02.000Z</time>
      </trkpt>
      <trkpt lat="47.56034" lon="6.74268">
        <ele>420</ele>
        <time>2016-08-15T07:23:03.000Z</time>
      </trkpt>
      <trkpt lat="47.56039" lon="6.74268">
        <ele>420</ele>
        <time>2016-08-15T07:23:04.000Z</time>
      </trkpt>
      <trkpt lat="47.56043" lon="6.74267">
        <ele>420</ele>
        <time>2016-08-15T07:23:05.000Z</time>
      </trkpt>
      <trkpt lat="47.56048" lon="6.74266">
        <ele>420</ele>
        <time>2016-08-15T07:23:06.000Z</time>
      </trkpt>
      <trkpt lat="47.56054" lon="6.74263">
        <ele>420</ele>
        <time>2016-08-15T07:23:07.000Z</time>
      </trkpt>
      <trkpt lat="47.5606" lon="6.74262">
        <ele>420</ele>
        <time>2016-08-15T07:23:08.000Z</time>
      </trkpt>
      <trkpt lat="47.56066" lon="6.7426">
        <ele>420</ele>
        <time>2016-08-15T07:23:09.000Z</time>
      </trkpt>
      <trkpt lat="47.56084" lon="6.74241">
        <ele>420</ele>
        <time>2016-08-15T07:23:10.000Z</time>
      </trkpt>
      <trkpt lat="47.56091" lon="6.74237">
        <ele>419</ele>
        <time>2016-08-15T07:23:11.000Z</time>
      </trkpt>
      <trkpt lat="47.56098" lon="6.74234">
        <ele>419</ele>
        <time>2016-08-15T07:23:12.000Z</time>
      </trkpt>
      <trkpt lat="47.56106" lon="6.74224">
        <ele>419</ele>
        <time>2016-08-15T07:23:13.000Z</time>
      </trkpt>
      <trkpt lat="47.56114" lon="6.74217">
        <ele>419</ele>
        <time>2016-08-15T07:23:14.000Z</time>
      </trkpt>
      <trkpt lat="47.56126" lon="6.74212">
        <ele>419</ele>
        <time>2016-08-15T07:23:15.000Z</time>
      </trkpt>
      <trkpt lat="47.56133" lon="6.74208">
        <ele>419</ele>
        <time>2016-08-15T07:23:16.000Z</time>
      </trkpt>
      <trkpt lat="47.5614" lon="6.74211">
        <ele>419</ele>
        <time>2016-08-15T07:23:17.000Z</time>
      </trkpt>
      <trkpt lat="47.56148" lon="6.74207">
        <ele>419</ele>
        <time>2016-08-15T07:23:18.000Z</time>
      </trkpt>
      <trkpt lat="47.56156" lon="6.742">
        <ele>419</ele>
        <time>2016-08-15T07:23:19.000Z</time>
      </trkpt>
      <trkpt lat="47.56165" lon="6.74196">
        <ele>419</ele>
        <time>2016-08-15T07:23:20.000Z</time>
      </trkpt>
      <trkpt lat="47.56174" lon="6.7419">
        <ele>417</ele>
        <time>2016-08-15T07:23:21.000Z</time>
      </trkpt>
      <trkpt lat="47.56184" lon="6.74181">
        <ele>417</ele>
        <time>2016-08-15T07:23:22.000Z</time>
      </trkpt>
      <trkpt lat="47.56196" lon="6.74176">
        <ele>416</ele>
        <time>2016-08-15T07:23:23.000Z</time>
      </trkpt>
      <trkpt lat="47.56208" lon="6.74164">
        <ele>410</ele>
        <time>2016-08-15T07:23:24.000Z</time>
      </trkpt>
      <trkpt lat="47.56218" lon="6.74146">
        <ele>409</ele>
        <time>2016-08-15T07:23:25.000Z</time>
      </trkpt>
      <trkpt lat="47.56226" lon="6.74134">
        <ele>408</ele>
        <time>2016-08-15T07:23:26.000Z</time>
      </trkpt>
      <trkpt lat="47.56232" lon="6.7413">
        <ele>408</ele>
        <time>2016-08-15T07:23:27.000Z</time>
      </trkpt>
      <trkpt lat="47.56238" lon="6.74127">
        <ele>407</ele>
        <time>2016-08-15T07:23:28.000Z</time>
      </trkpt>
      <trkpt lat="47.56243" lon="6.74123">
        <ele>407</ele>
        <time>2016-08-15T07:23:29.000Z</time>
      </trkpt>
      <trkpt lat="47.56249" lon="6.74119">
        <ele>406</ele>
        <time>2016-08-15T07:23:30.000Z</time>
      </trkpt>
      <trkpt lat="47.56254" lon="6.74115">
        <ele>400</ele>
        <time>2016-08-15T07:23:31.000Z</time>
      </trkpt>
      <trkpt lat="47.56261" lon="6.7411">
        <ele>400</ele>
        <time>2016-08-15T07:23:32.000Z</time>
      </trkpt>
      <trkpt lat="47.56268" lon="6.74106">
        <ele>399</ele>
        <time>2016-08-15T07:23:33.000Z</time>
      </trkpt>
      <trkpt lat="47.56274" lon="6.74103">
        <ele>399</ele>
        <time>2016-08-15T07:23:34.000Z</time>
      </trkpt>
      <trkpt lat="47.5628" lon="6.74097">
        <ele>398</ele>
        <time>2016-08-15T07:23:35.000Z</time>
      </trkpt>
      <trkpt lat="47.56285" lon="6.74091">
        <ele>398</ele>
        <time>2016-08-15T07:23:36.000Z</time>
      </trkpt>
      <trkpt lat="47.56289" lon="6.7409">
        <ele>397</ele>
        <time>2016-08-15T07:23:37.000Z</time>
      </trkpt>
      <trkpt lat="47.56294" lon="6.74091">
        <ele>397</ele>
        <time>2016-08-15T07:23:38.000Z</time>
      </trkpt>
      <trkpt lat="47.563" lon="6.74092">
        <ele>396</ele>
        <time>2016-08-15T07:23:39.000Z</time>
      </trkpt>
      <trkpt lat="47.56304" lon="6.74092">
        <ele>396</ele>
        <time>2016-08-15T07:23:40.000Z</time>
      </trkpt>
      <trkpt lat="47.56307" lon="6.74089">
        <ele>395</ele>
        <time>2016-08-15T07:23:41.000Z</time>
      </trkpt>
      <trkpt lat="47.56311" lon="6.74085">
        <ele>394</ele>
        <time>2016-08-15T07:23:42.000Z</time>
      </trkpt>
      <trkpt lat="47.56314" lon="6.74084">
        <ele>393</ele>
        <time>2016-08-15T07:23:43.000Z</time>
      </trkpt>
      <trkpt lat="47.56318" lon="6.74081">
        <ele>390</ele>
        <time>2016-08-15T07:23:44.000Z</time>
      </trkpt>
      <trkpt lat="47.56322" lon="6.74074">
        <ele>389</ele>
        <time>2016-08-15T07:23:45.000Z</time>
      </trkpt>
      <trkpt lat="47.56326" lon="6.74068">
        <ele>389</ele>
        <time>2016-08-15T07:23:46.000Z</time>
      </trkpt>
      <trkpt lat="47.56331" lon="6.74067">
        <ele>389</ele>
        <time>2016-08-15T07:23:47.000Z</time>
      </trkpt>
      <trkpt lat="47.56335" lon="6.74064">
        <ele>383</ele>
        <time>2016-08-15T07:23:48.000Z</time>
      </trkpt>
      <trkpt lat="47.5634" lon="6.74059">
        <ele>382</ele>
        <time>2016-08-15T07:23:49.000Z</time>
      </trkpt>
      <trkpt lat="47.56342" lon="6.74055">
        <ele>382</ele>
        <time>2016-08-15T07:23:50.000Z</time>
      </trkpt>
      <trkpt lat="47.56343" lon="6.74051">
        <ele>381</ele>
        <time>2016-08-15T07:23:51.000Z</time>
      </trkpt>
      <trkpt lat="47.56347" lon="6.74043">
        <ele>381</ele>
        <time>2016-08-15T07:23:52.000Z</time>
      </trkpt>
      <trkpt lat="47.5635" lon="6.74039">
        <ele>380</ele>
        <time>2016-08-15T07:23:53.000Z</time>
      </trkpt>
      <trkpt lat="47.56353" lon="6.74036">
        <ele>380</ele>
        <time>2016-08-15T07:23:54.000Z</time>
      </trkpt>
      <trkpt lat="47.56356" lon="6.74035">
        <ele>380</ele>
        <time>2016-08-15T07:23:55.000Z</time>
      </trkpt>
      <trkpt lat="47.56359" lon="6.7403">
        <ele>380</ele>
        <time>2016-08-15T07:23:56.000Z</time>
      </trkpt>
      <trkpt lat="47.56363" lon="6.74026">
        <ele>379</ele>
        <time>2016-08-15T07:23:57.000Z</time>
      </trkpt>
      <trkpt lat="47.56367" lon="6.74023">
        <ele>379</ele>
        <time>2016-08-15T07:23:58.000Z</time>
      </trkpt>
      <trkpt lat="47.5637" lon="6.74019">
        <ele>379</ele>
        <time>2016-08-15T07:23:59.000Z</time>
      </trkpt>
      <trkpt lat="47.56375" lon="6.74016">
        <ele>378</ele>
        <time>2016-08-15T07:24:00.000Z</time>
      </trkpt>
      <trkpt lat="47.56379" lon="6.74016">
        <ele>378</ele>
        <time>2016-08-15T07:24:01.000Z</time>
      </trkpt>
      <trkpt lat="47.56383" lon="6.74013">
        <ele>377</ele>
        <time>2016-08-15T07:24:02.000Z</time>
      </trkpt>
      <trkpt lat="47.56386" lon="6.74011">
        <ele>377</ele>
        <time>2016-08-15T07:24:03.000Z</time>
      </trkpt>
      <trkpt lat="47.56389" lon="6.74008">
        <ele>376</ele>
        <time>2016-08-15T07:24:04.000Z</time>
      </trkpt>
      <trkpt lat="47.56396" lon="6.74001">
        <ele>375</ele>
        <time>2016-08-15T07:24:05.000Z</time>
      </trkpt>
      <trkpt lat="47.564" lon="6.73998">
        <ele>372</ele>
        <time>2016-08-15T07:24:06.000Z</time>
      </trkpt>
      <trkpt lat="47.56404" lon="6.73996">
        <ele>371</ele>
        <time>2016-08-15T07:24:07.000Z</time>
      </trkpt>
      <trkpt lat="47.56408" lon="6.73993">
        <ele>371</ele>
        <time>2016-08-15T07:24:08.000Z</time>
      </trkpt>
      <trkpt lat="47.56411" lon="6.7399">
        <ele>371</ele>
        <time>2016-08-15T07:24:09.000Z</time>
      </trkpt>
      <trkpt lat="47.56413" lon="6.73985">
        <ele>371</ele>
        <time>2016-08-15T07:24:10.000Z</time>
      </trkpt>
      <trkpt lat="47.56415" lon="6.73981">
        <ele>371</ele>
        <time>2016-08-15T07:24:11.000Z</time>
      </trkpt>
      <trkpt lat="47.56417" lon="6.73975">
        <ele>366</ele>
        <time>2016-08-15T07:24:12.000Z</time>
      </trkpt>
      <trkpt lat="47.5642" lon="6.73967">
        <ele>366</ele>
        <time>2016-08-15T07:24:13.000Z</time>
      </trkpt>
      <trkpt lat="47.56422" lon="6.73959">
        <ele>365</ele>
        <time>2016-08-15T07:24:14.000Z</time>
      </trkpt>
      <trkpt lat="47.56426" lon="6.73951">
        <ele>365</ele>
        <time>2016-08-15T07:24:15.000Z</time>
      </trkpt>
      <trkpt lat="47.56434" lon="6.73947">
        <ele>365</ele>
        <time>2016-08-15T07:24:16.000Z</time>
      </trkpt>
      <trkpt lat="47.56442" lon="6.73944">
        <ele>365</ele>
        <time>2016-08-15T07:24:17.000Z</time>
      </trkpt>
      <trkpt lat="47.5645" lon="6.73942">
        <ele>364</ele>
        <time>2016-08-15T07:24:18.000Z</time>
      </trkpt>
      <trkpt lat="47.56459" lon="6.73941">
        <ele>364</ele>
        <time>2016-08-15T07:24:19.000Z</time>
      </trkpt>
      <trkpt lat="47.56467" lon="6.73942">
        <ele>363</ele>
        <time>2016-08-15T07:24:20.000Z</time>
      </trkpt>
      <trkpt lat="47.56475" lon="6.73944">
        <ele>363</ele>
        <time>2016-08-15T07:24:21.000Z</time>
      </trkpt>
      <trkpt lat="47.56481" lon="6.73947">
        <ele>363</ele>
        <time>2016-08-15T07:24:22.000Z</time>
      </trkpt>
      <trkpt lat="47.56487" lon="6.73952">
        <ele>363</ele>
        <time>2016-08-15T07:24:23.000Z</time>
      </trkpt>
      <trkpt lat="47.56494" lon="6.73953">
        <ele>363</ele>
        <time>2016-08-15T07:24:24.000Z</time>
      </trkpt>
      <trkpt lat="47.56502" lon="6.73955">
        <ele>359</ele>
        <time>2016-08-15T07:24:25.000Z</time>
      </trkpt>
      <trkpt lat="47.56509" lon="6.73955">
        <ele>359</ele>
        <time>2016-08-15T07:24:26.000Z</time>
      </trkpt>
      <trkpt lat="47.56516" lon="6.73955">
        <ele>359</ele>
        <time>2016-08-15T07:24:27.000Z</time>
      </trkpt>
      <trkpt lat="47.56523" lon="6.73952">
        <ele>359</ele>
        <time>2016-08-15T07:24:28.000Z</time>
      </trkpt>
      <trkpt lat="47.5653" lon="6.7395">
        <ele>359</ele>
        <time>2016-08-15T07:24:29.000Z</time>
      </trkpt>
      <trkpt lat="47.56536" lon="6.73948">
        <ele>358</ele>
        <time>2016-08-15T07:24:30.000Z</time>
      </trkpt>
      <trkpt lat="47.56542" lon="6.73948">
        <ele>358</ele>
        <time>2016-08-15T07:24:31.000Z</time>
      </trkpt>
      <trkpt lat="47.5655" lon="6.73945">
        <ele>358</ele>
        <time>2016-08-15T07:24:32.000Z</time>
      </trkpt>
      <trkpt lat="47.56555" lon="6.73943">
        <ele>358</ele>
        <time>2016-08-15T07:24:33.000Z</time>
      </trkpt>
      <trkpt lat="47.56561" lon="6.73944">
        <ele>358</ele>
        <time>2016-08-15T07:24:34.000Z</time>
      </trkpt>
      <trkpt lat="47.56566" lon="6.73944">
        <ele>358</ele>
        <time>2016-08-15T07:24:35.000Z</time>
      </trkpt>
      <trkpt lat="47.56572" lon="6.73944">
        <ele>358</ele>
        <time>2016-08-15T07:24:36.000Z</time>
      </trkpt>
      <trkpt lat="47.56576" lon="6.73944">
        <ele>358</ele>
        <time>2016-08-15T07:24:37.000Z</time>
      </trkpt>
      <trkpt lat="47.56581" lon="6.73946">
        <ele>358</ele>
        <time>2016-08-15T07:24:38.000Z</time>
      </trkpt>
      <trkpt lat="47.56586" lon="6.73947">
        <ele>356</ele>
        <time>2016-08-15T07:24:39.000Z</time>
      </trkpt>
      <trkpt lat="47.56593" lon="6.73949">
        <ele>356</ele>
        <time>2016-08-15T07:24:40.000Z</time>
      </trkpt>
      <trkpt lat="47.566" lon="6.7395">
        <ele>356</ele>
        <time>2016-08-15T07:24:41.000Z</time>
      </trkpt>
      <trkpt lat="47.56608" lon="6.7395">
        <ele>356</ele>
        <time>2016-08-15T07:24:42.000Z</time>
      </trkpt>
      <trkpt lat="47.56614" lon="6.73951">
        <ele>356</ele>
        <time>2016-08-15T07:24:43.000Z</time>
      </trkpt>
      <trkpt lat="47.5662" lon="6.73951">
        <ele>356</ele>
        <time>2016-08-15T07:24:44.000Z</time>
      </trkpt>
      <trkpt lat="47.56626" lon="6.73951">
        <ele>356</ele>
        <time>2016-08-15T07:24:45.000Z</time>
      </trkpt>
      <trkpt lat="47.56632" lon="6.73949">
        <ele>356</ele>
        <time>2016-08-15T07:24:46.000Z</time>
      </trkpt>
      <trkpt lat="47.56637" lon="6.73948">
        <ele>356</ele>
        <time>2016-08-15T07:24:47.000Z</time>
      </trkpt>
      <trkpt lat="47.56641" lon="6.73947">
        <ele>356</ele>
        <time>2016-08-15T07:24:48.000Z</time>
      </trkpt>
      <trkpt lat="47.56646" lon="6.73946">
        <ele>356</ele>
        <time>2016-08-15T07:24:49.000Z</time>
      </trkpt>
      <trkpt lat="47.56651" lon="6.73945">
        <ele>356</ele>
        <time>2016-08-15T07:24:50.000Z</time>
      </trkpt>
      <trkpt lat="47.56657" lon="6.73942">
        <ele>356</ele>
        <time>2016-08-15T07:24:51.000Z</time>
      </trkpt>
      <trkpt lat="47.56663" lon="6.73939">
        <ele>357</ele>
        <time>2016-08-15T07:24:52.000Z</time>
      </trkpt>
      <trkpt lat="47.56669" lon="6.73937">
        <ele>355</ele>
        <time>2016-08-15T07:24:53.000Z</time>
      </trkpt>
      <trkpt lat="47.56674" lon="6.73934">
        <ele>355</ele>
        <time>2016-08-15T07:24:54.000Z</time>
      </trkpt>
      <trkpt lat="47.56678" lon="6.73932">
        <ele>355</ele>
        <time>2016-08-15T07:24:55.000Z</time>
      </trkpt>
      <trkpt lat="47.56682" lon="6.73929">
        <ele>355</ele>
        <time>2016-08-15T07:24:56.000Z</time>
      </trkpt>
      <trkpt lat="47.56686" lon="6.73927">
        <ele>355</ele>
        <time>2016-08-15T07:24:57.000Z</time>
      </trkpt>
      <trkpt lat="47.5669" lon="6.73927">
        <ele>355</ele>
        <time>2016-08-15T07:24:58.000Z</time>
      </trkpt>
      <trkpt lat="47.56694" lon="6.73926">
        <ele>355</ele>
        <time>2016-08-15T07:24:59.000Z</time>
      </trkpt>
      <trkpt lat="47.56697" lon="6.73926">
        <ele>354</ele>
        <time>2016-08-15T07:25:00.000Z</time>
      </trkpt>
      <trkpt lat="47.56701" lon="6.73924">
        <ele>354</ele>
        <time>2016-08-15T07:25:01.000Z</time>
      </trkpt>
      <trkpt lat="47.56705" lon="6.73923">
        <ele>354</ele>
        <time>2016-08-15T07:25:02.000Z</time>
      </trkpt>
      <trkpt lat="47.56708" lon="6.73922">
        <ele>354</ele>
        <time>2016-08-15T07:25:03.000Z</time>
      </trkpt>
      <trkpt lat="47.56712" lon="6.73921">
        <ele>354</ele>
        <time>2016-08-15T07:25:04.000Z</time>
      </trkpt>
      <trkpt lat="47.56716" lon="6.73921">
        <ele>354</ele>
        <time>2016-08-15T07:25:05.000Z</time>
      </trkpt>
      <trkpt lat="47.56719" lon="6.7392">
        <ele>354</ele>
        <time>2016-08-15T07:25:06.000Z</time>
      </trkpt>
      <trkpt lat="47.56723" lon="6.7392">
        <ele>354</ele>
        <time>2016-08-15T07:25:07.000Z</time>
      </trkpt>
      <trkpt lat="47.56727" lon="6.7392">
        <ele>354</ele>
        <time>2016-08-15T07:25:08.000Z</time>
      </trkpt>
      <trkpt lat="47.56732" lon="6.73922">
        <ele>354</ele>
        <time>2016-08-15T07:25:09.000Z</time>
      </trkpt>
      <trkpt lat="47.56736" lon="6.73926">
        <ele>354</ele>
        <time>2016-08-15T07:25:10.000Z</time>
      </trkpt>
      <trkpt lat="47.56744" lon="6.73918">
        <ele>354</ele>
        <time>2016-08-15T07:25:11.000Z</time>
      </trkpt>
      <trkpt lat="47.56751" lon="6.73917">
        <ele>355</ele>
        <time>2016-08-15T07:25:12.000Z</time>
      </trkpt>
      <trkpt lat="47.56757" lon="6.73916">
        <ele>355</ele>
        <time>2016-08-15T07:25:13.000Z</time>
      </trkpt>
      <trkpt lat="47.56763" lon="6.73914">
        <ele>356</ele>
        <time>2016-08-15T07:25:14.000Z</time>
      </trkpt>
      <trkpt lat="47.56769" lon="6.73911">
        <ele>356</ele>
        <time>2016-08-15T07:25:15.000Z</time>
      </trkpt>
      <trkpt lat="47.56775" lon="6.7391">
        <ele>355</ele>
        <time>2016-08-15T07:25:16.000Z</time>
      </trkpt>
      <trkpt lat="47.56781" lon="6.7391">
        <ele>355</ele>
        <time>2016-08-15T07:25:17.000Z</time>
      </trkpt>
      <trkpt lat="47.5679" lon="6.7391">
        <ele>354</ele>
        <time>2016-08-15T07:25:18.000Z</time>
      </trkpt>
      <trkpt lat="47.56798" lon="6.73908">
        <ele>353</ele>
        <time>2016-08-15T07:25:19.000Z</time>
      </trkpt>
      <trkpt lat="47.56804" lon="6.73903">
        <ele>353</ele>
        <time>2016-08-15T07:25:20.000Z</time>
      </trkpt>
      <trkpt lat="47.56811" lon="6.73894">
        <ele>353</ele>
        <time>2016-08-15T07:25:21.000Z</time>
      </trkpt>
      <trkpt lat="47.56817" lon="6.73887">
        <ele>353</ele>
        <time>2016-08-15T07:25:22.000Z</time>
      </trkpt>
      <trkpt lat="47.56822" lon="6.73879">
        <ele>354</ele>
        <time>2016-08-15T07:25:23.000Z</time>
      </trkpt>
      <trkpt lat="47.56828" lon="6.73873">
        <ele>354</ele>
        <time>2016-08-15T07:25:24.000Z</time>
      </trkpt>
      <trkpt lat="47.56833" lon="6.73865">
        <ele>355</ele>
        <time>2016-08-15T07:25:25.000Z</time>
      </trkpt>
      <trkpt lat="47.56838" lon="6.73858">
        <ele>349</ele>
        <time>2016-08-15T07:25:26.000Z</time>
      </trkpt>
      <trkpt lat="47.56843" lon="6.73851">
        <ele>350</ele>
        <time>2016-08-15T07:25:27.000Z</time>
      </trkpt>
      <trkpt lat="47.56846" lon="6.73842">
        <ele>350</ele>
        <time>2016-08-15T07:25:28.000Z</time>
      </trkpt>
      <trkpt lat="47.56852" lon="6.73834">
        <ele>350</ele>
        <time>2016-08-15T07:25:29.000Z</time>
      </trkpt>
      <trkpt lat="47.56855" lon="6.73824">
        <ele>353</ele>
        <time>2016-08-15T07:25:30.000Z</time>
      </trkpt>
      <trkpt lat="47.56859" lon="6.73814">
        <ele>353</ele>
        <time>2016-08-15T07:25:31.000Z</time>
      </trkpt>
      <trkpt lat="47.56864" lon="6.73808">
        <ele>353</ele>
        <time>2016-08-15T07:25:32.000Z</time>
      </trkpt>
      <trkpt lat="47.56867" lon="6.73799">
        <ele>353</ele>
        <time>2016-08-15T07:25:33.000Z</time>
      </trkpt>
      <trkpt lat="47.56872" lon="6.73791">
        <ele>353</ele>
        <time>2016-08-15T07:25:34.000Z</time>
      </trkpt>
      <trkpt lat="47.56876" lon="6.73783">
        <ele>352</ele>
        <time>2016-08-15T07:25:35.000Z</time>
      </trkpt>
      <trkpt lat="47.56881" lon="6.73775">
        <ele>352</ele>
        <time>2016-08-15T07:25:36.000Z</time>
      </trkpt>
      <trkpt lat="47.56884" lon="6.73766">
        <ele>352</ele>
        <time>2016-08-15T07:25:37.000Z</time>
      </trkpt>
      <trkpt lat="47.5689" lon="6.7376">
        <ele>351</ele>
        <time>2016-08-15T07:25:38.000Z</time>
      </trkpt>
      <trkpt lat="47.56895" lon="6.73753">
        <ele>350</ele>
        <time>2016-08-15T07:25:39.000Z</time>
      </trkpt>
      <trkpt lat="47.56899" lon="6.73747">
        <ele>352</ele>
        <time>2016-08-15T07:25:40.000Z</time>
      </trkpt>
      <trkpt lat="47.56907" lon="6.73746">
        <ele>350</ele>
        <time>2016-08-15T07:25:41.000Z</time>
      </trkpt>
      <trkpt lat="47.56912" lon="6.73742">
        <ele>350</ele>
        <time>2016-08-15T07:25:42.000Z</time>
      </trkpt>
      <trkpt lat="47.56916" lon="6.73733">
        <ele>352</ele>
        <time>2016-08-15T07:25:43.000Z</time>
      </trkpt>
      <trkpt lat="47.5692" lon="6.73726">
        <ele>345</ele>
        <time>2016-08-15T07:25:44.000Z</time>
      </trkpt>
      <trkpt lat="47.56921" lon="6.73713">
        <ele>345</ele>
        <time>2016-08-15T07:25:45.000Z</time>
      </trkpt>
      <trkpt lat="47.56922" lon="6.73704">
        <ele>345</ele>
        <time>2016-08-15T07:25:46.000Z</time>
      </trkpt>
      <trkpt lat="47.56923" lon="6.73693">
        <ele>346</ele>
        <time>2016-08-15T07:25:47.000Z</time>
      </trkpt>
      <trkpt lat="47.56924" lon="6.73684">
        <ele>347</ele>
        <time>2016-08-15T07:25:48.000Z</time>
      </trkpt>
      <trkpt lat="47.56924" lon="6.73676">
        <ele>348</ele>
        <time>2016-08-15T07:25:49.000Z</time>
      </trkpt>
      <trkpt lat="47.56924" lon="6.73667">
        <ele>348</ele>
        <time>2016-08-15T07:25:50.000Z</time>
      </trkpt>
      <trkpt lat="47.56925" lon="6.73658">
        <ele>349</ele>
        <time>2016-08-15T07:25:51.000Z</time>
      </trkpt>
      <trkpt lat="47.56926" lon="6.7365">
        <ele>348</ele>
        <time>2016-08-15T07:25:52.000Z</time>
      </trkpt>
      <trkpt lat="47.56928" lon="6.73641">
        <ele>348</ele>
        <time>2016-08-15T07:25:53.000Z</time>
      </trkpt>
      <trkpt lat="47.5693" lon="6.73631">
        <ele>348</ele>
        <time>2016-08-15T07:25:54.000Z</time>
      </trkpt>
      <trkpt lat="47.56931" lon="6.73623">
        <ele>348</ele>
        <time>2016-08-15T07:25:55.000Z</time>
      </trkpt>
      <trkpt lat="47.56933" lon="6.73616">
        <ele>348</ele>
        <time>2016-08-15T07:25:56.000Z</time>
      </trkpt>
      <trkpt lat="47.56935" lon="6.73608">
        <ele>348</ele>
        <time>2016-08-15T07:25:57.000Z</time>
      </trkpt>
      <trkpt lat="47.56939" lon="6.736">
        <ele>348</ele>
        <time>2016-08-15T07:25:58.000Z</time>
      </trkpt>
      <trkpt lat="47.56943" lon="6.73594">
        <ele>348</ele>
        <time>2016-08-15T07:25:59.000Z</time>
      </trkpt>
      <trkpt lat="47.56946" lon="6.73588">
        <ele>348</ele>
        <time>2016-08-15T07:26:00.000Z</time>
      </trkpt>
      <trkpt lat="47.5695" lon="6.73582">
        <ele>354</ele>
        <time>2016-08-15T07:26:01.000Z</time>
      </trkpt>
      <trkpt lat="47.56955" lon="6.73578">
        <ele>354</ele>
        <time>2016-08-15T07:26:02.000Z</time>
      </trkpt>
      <trkpt lat="47.5696" lon="6.73573">
        <ele>354</ele>
        <time>2016-08-15T07:26:03.000Z</time>
      </trkpt>
      <trkpt lat="47.56964" lon="6.7357">
        <ele>354</ele>
        <time>2016-08-15T07:26:04.000Z</time>
      </trkpt>
      <trkpt lat="47.5697" lon="6.73565">
        <ele>354</ele>
        <time>2016-08-15T07:26:05.000Z</time>
      </trkpt>
      <trkpt lat="47.56977" lon="6.73562">
        <ele>354</ele>
        <time>2016-08-15T07:26:06.000Z</time>
      </trkpt>
      <trkpt lat="47.56984" lon="6.73559">
        <ele>353</ele>
        <time>2016-08-15T07:26:07.000Z</time>
      </trkpt>
      <trkpt lat="47.5699" lon="6.73556">
        <ele>353</ele>
        <time>2016-08-15T07:26:08.000Z</time>
      </trkpt>
      <trkpt lat="47.56996" lon="6.73553">
        <ele>354</ele>
        <time>2016-08-15T07:26:09.000Z</time>
      </trkpt>
      <trkpt lat="47.57002" lon="6.73551">
        <ele>349</ele>
        <time>2016-08-15T07:26:10.000Z</time>
      </trkpt>
      <trkpt lat="47.57008" lon="6.73548">
        <ele>349</ele>
        <time>2016-08-15T07:26:11.000Z</time>
      </trkpt>
      <trkpt lat="47.57015" lon="6.73547">
        <ele>349</ele>
        <time>2016-08-15T07:26:12.000Z</time>
      </trkpt>
      <trkpt lat="47.57022" lon="6.73545">
        <ele>349</ele>
        <time>2016-08-15T07:26:13.000Z</time>
      </trkpt>
      <trkpt lat="47.57028" lon="6.73543">
        <ele>349</ele>
        <time>2016-08-15T07:26:14.000Z</time>
      </trkpt>
      <trkpt lat="47.57035" lon="6.73542">
        <ele>348</ele>
        <time>2016-08-15T07:26:15.000Z</time>
      </trkpt>
      <trkpt lat="47.57042" lon="6.73541">
        <ele>348</ele>
        <time>2016-08-15T07:26:16.000Z</time>
      </trkpt>
      <trkpt lat="47.57049" lon="6.73541">
        <ele>348</ele>
        <time>2016-08-15T07:26:17.000Z</time>
      </trkpt>
      <trkpt lat="47.57056" lon="6.7354">
        <ele>347</ele>
        <time>2016-08-15T07:26:18.000Z</time>
      </trkpt>
      <trkpt lat="47.57062" lon="6.73539">
        <ele>347</ele>
        <time>2016-08-15T07:26:19.000Z</time>
      </trkpt>
      <trkpt lat="47.57069" lon="6.73538">
        <ele>347</ele>
        <time>2016-08-15T07:26:20.000Z</time>
      </trkpt>
      <trkpt lat="47.57076" lon="6.73537">
        <ele>346</ele>
        <time>2016-08-15T07:26:21.000Z</time>
      </trkpt>
      <trkpt lat="47.57084" lon="6.73535">
        <ele>341</ele>
        <time>2016-08-15T07:26:22.000Z</time>
      </trkpt>
      <trkpt lat="47.57091" lon="6.73533">
        <ele>341</ele>
        <time>2016-08-15T07:26:23.000Z</time>
      </trkpt>
      <trkpt lat="47.57099" lon="6.73531">
        <ele>341</ele>
        <time>2016-08-15T07:26:24.000Z</time>
      </trkpt>
      <trkpt lat="47.57106" lon="6.73528">
        <ele>341</ele>
        <time>2016-08-15T07:26:25.000Z</time>
      </trkpt>
      <trkpt lat="47.57114" lon="6.73525">
        <ele>341</ele>
        <time>2016-08-15T07:26:26.000Z</time>
      </trkpt>
      <trkpt lat="47.57122" lon="6.73522">
        <ele>340</ele>
        <time>2016-08-15T07:26:27.000Z</time>
      </trkpt>
      <trkpt lat="47.57129" lon="6.73518">
        <ele>340</ele>
        <time>2016-08-15T07:26:28.000Z</time>
      </trkpt>
      <trkpt lat="47.57136" lon="6.73515">
        <ele>340</ele>
        <time>2016-08-15T07:26:29.000Z</time>
      </trkpt>
      <trkpt lat="47.57143" lon="6.73511">
        <ele>339</ele>
        <time>2016-08-15T07:26:30.000Z</time>
      </trkpt>
      <trkpt lat="47.5715" lon="6.73507">
        <ele>339</ele>
        <time>2016-08-15T07:26:31.000Z</time>
      </trkpt>
      <trkpt lat="47.57157" lon="6.73502">
        <ele>339</ele>
        <time>2016-08-15T07:26:32.000Z</time>
      </trkpt>
      <trkpt lat="47.57163" lon="6.73498">
        <ele>339</ele>
        <time>2016-08-15T07:26:33.000Z</time>
      </trkpt>
      <trkpt lat="47.57169" lon="6.73492">
        <ele>338</ele>
        <time>2016-08-15T07:26:34.000Z</time>
      </trkpt>
      <trkpt lat="47.57175" lon="6.73487">
        <ele>338</ele>
        <time>2016-08-15T07:26:35.000Z</time>
      </trkpt>
      <trkpt lat="47.57181" lon="6.73481">
        <ele>338</ele>
        <time>2016-08-15T07:26:36.000Z</time>
      </trkpt>
      <trkpt lat="47.57187" lon="6.73475">
        <ele>338</ele>
        <time>2016-08-15T07:26:37.000Z</time>
      </trkpt>
      <trkpt lat="47.57192" lon="6.73469">
        <ele>338</ele>
        <time>2016-08-15T07:26:38.000Z</time>
      </trkpt>
      <trkpt lat="47.57197" lon="6.73461">
        <ele>338</ele>
        <time>2016-08-15T07:26:39.000Z</time>
      </trkpt>
      <trkpt lat="47.57201" lon="6.73453">
        <ele>338</ele>
        <time>2016-08-15T07:26:40.000Z</time>
      </trkpt>
      <trkpt lat="47.57206" lon="6.73447">
        <ele>338</ele>
        <time>2016-08-15T07:26:41.000Z</time>
      </trkpt>
      <trkpt lat="47.5721" lon="6.73439">
        <ele>338</ele>
        <time>2016-08-15T07:26:42.000Z</time>
      </trkpt>
      <trkpt lat="47.57214" lon="6.73431">
        <ele>338</ele>
        <time>2016-08-15T07:26:43.000Z</time>
      </trkpt>
      <trkpt lat="47.57217" lon="6.73423">
        <ele>338</ele>
        <time>2016-08-15T07:26:44.000Z</time>
      </trkpt>
      <trkpt lat="47.57222" lon="6.73419">
        <ele>338</ele>
        <time>2016-08-15T07:26:45.000Z</time>
      </trkpt>
      <trkpt lat="47.57227" lon="6.73413">
        <ele>339</ele>
        <time>2016-08-15T07:26:46.000Z</time>
      </trkpt>
      <trkpt lat="47.57234" lon="6.73411">
        <ele>339</ele>
        <time>2016-08-15T07:26:47.000Z</time>
      </trkpt>
      <trkpt lat="47.5724" lon="6.73409">
        <ele>338</ele>
        <time>2016-08-15T07:26:48.000Z</time>
      </trkpt>
      <trkpt lat="47.57245" lon="6.73408">
        <ele>338</ele>
        <time>2016-08-15T07:26:49.000Z</time>
      </trkpt>
      <trkpt lat="47.5725" lon="6.73405">
        <ele>339</ele>
        <time>2016-08-15T07:26:50.000Z</time>
      </trkpt>
      <trkpt lat="47.57255" lon="6.73402">
        <ele>339</ele>
        <time>2016-08-15T07:26:51.000Z</time>
      </trkpt>
      <trkpt lat="47.5726" lon="6.73399">
        <ele>339</ele>
        <time>2016-08-15T07:26:52.000Z</time>
      </trkpt>
      <trkpt lat="47.57265" lon="6.73396">
        <ele>339</ele>
        <time>2016-08-15T07:26:53.000Z</time>
      </trkpt>
      <trkpt lat="47.57269" lon="6.73393">
        <ele>339</ele>
        <time>2016-08-15T07:26:54.000Z</time>
      </trkpt>
      <trkpt lat="47.57274" lon="6.73389">
        <ele>340</ele>
        <time>2016-08-15T07:26:55.000Z</time>
      </trkpt>
      <trkpt lat="47.57278" lon="6.73387">
        <ele>340</ele>
        <time>2016-08-15T07:26:56.000Z</time>
      </trkpt>
      <trkpt lat="47.57282" lon="6.73385">
        <ele>340</ele>
        <time>2016-08-15T07:26:57.000Z</time>
      </trkpt>
      <trkpt lat="47.57286" lon="6.73383">
        <ele>340</ele>
        <time>2016-08-15T07:26:58.000Z</time>
      </trkpt>
      <trkpt lat="47.57288" lon="6.73377">
        <ele>340</ele>
        <time>2016-08-15T07:26:59.000Z</time>
      </trkpt>
      <trkpt lat="47.5729" lon="6.73372">
        <ele>340</ele>
        <time>2016-08-15T07:27:00.000Z</time>
      </trkpt>
      <trkpt lat="47.5729" lon="6.73365">
        <ele>340</ele>
        <time>2016-08-15T07:27:01.000Z</time>
      </trkpt>
      <trkpt lat="47.5729" lon="6.7336">
        <ele>340</ele>
        <time>2016-08-15T07:27:02.000Z</time>
      </trkpt>
      <trkpt lat="47.5729" lon="6.73353">
        <ele>340</ele>
        <time>2016-08-15T07:27:03.000Z</time>
      </trkpt>
      <trkpt lat="47.57291" lon="6.73344">
        <ele>340</ele>
        <time>2016-08-15T07:27:04.000Z</time>
      </trkpt>
      <trkpt lat="47.57291" lon="6.73338">
        <ele>340</ele>
        <time>2016-08-15T07:27:05.000Z</time>
      </trkpt>
      <trkpt lat="47.57293" lon="6.73331">
        <ele>341</ele>
        <time>2016-08-15T07:27:06.000Z</time>
      </trkpt>
      <trkpt lat="47.57293" lon="6.73325">
        <ele>341</ele>
        <time>2016-08-15T07:27:07.000Z</time>
      </trkpt>
      <trkpt lat="47.57293" lon="6.73318">
        <ele>341</ele>
        <time>2016-08-15T07:27:08.000Z</time>
      </trkpt>
      <trkpt lat="47.57295" lon="6.73313">
        <ele>341</ele>
        <time>2016-08-15T07:27:09.000Z</time>
      </trkpt>
      <trkpt lat="47.57296" lon="6.73307">
        <ele>341</ele>
        <time>2016-08-15T07:27:10.000Z</time>
      </trkpt>
      <trkpt lat="47.57296" lon="6.73299">
        <ele>341</ele>
        <time>2016-08-15T07:27:11.000Z</time>
      </trkpt>
      <trkpt lat="47.57298" lon="6.73292">
        <ele>341</ele>
        <time>2016-08-15T07:27:12.000Z</time>
      </trkpt>
      <trkpt lat="47.57299" lon="6.73282">
        <ele>341</ele>
        <time>2016-08-15T07:27:13.000Z</time>
      </trkpt>
      <trkpt lat="47.573" lon="6.73274">
        <ele>341</ele>
        <time>2016-08-15T07:27:14.000Z</time>
      </trkpt>
      <trkpt lat="47.57301" lon="6.73266">
        <ele>341</ele>
        <time>2016-08-15T07:27:15.000Z</time>
      </trkpt>
      <trkpt lat="47.57302" lon="6.73259">
        <ele>341</ele>
        <time>2016-08-15T07:27:16.000Z</time>
      </trkpt>
      <trkpt lat="47.57303" lon="6.73252">
        <ele>341</ele>
        <time>2016-08-15T07:27:17.000Z</time>
      </trkpt>
      <trkpt lat="47.57303" lon="6.73246">
        <ele>341</ele>
        <time>2016-08-15T07:27:18.000Z</time>
      </trkpt>
      <trkpt lat="47.57304" lon="6.7324">
        <ele>341</ele>
        <time>2016-08-15T07:27:19.000Z</time>
      </trkpt>
      <trkpt lat="47.57304" lon="6.73233">
        <ele>341</ele>
        <time>2016-08-15T07:27:20.000Z</time>
      </trkpt>
      <trkpt lat="47.57303" lon="6.73227">
        <ele>341</ele>
        <time>2016-08-15T07:27:21.000Z</time>
      </trkpt>
      <trkpt lat="47.57303" lon="6.73221">
        <ele>341</ele>
        <time>2016-08-15T07:27:22.000Z</time>
      </trkpt>
      <trkpt lat="47.57302" lon="6.73215">
        <ele>341</ele>
        <time>2016-08-15T07:27:23.000Z</time>
      </trkpt>
      <trkpt lat="47.573" lon="6.73207">
        <ele>341</ele>
        <time>2016-08-15T07:27:24.000Z</time>
      </trkpt>
      <trkpt lat="47.57299" lon="6.73201">
        <ele>341</ele>
        <time>2016-08-15T07:27:25.000Z</time>
      </trkpt>
      <trkpt lat="47.57298" lon="6.73195">
        <ele>341</ele>
        <time>2016-08-15T07:27:26.000Z</time>
      </trkpt>
      <trkpt lat="47.57297" lon="6.73189">
        <ele>341</ele>
        <time>2016-08-15T07:27:27.000Z</time>
      </trkpt>
      <trkpt lat="47.57297" lon="6.73183">
        <ele>341</ele>
        <time>2016-08-15T07:27:28.000Z</time>
      </trkpt>
      <trkpt lat="47.57296" lon="6.73177">
        <ele>341</ele>
        <time>2016-08-15T07:27:29.000Z</time>
      </trkpt>
      <trkpt lat="47.57296" lon="6.73172">
        <ele>341</ele>
        <time>2016-08-15T07:27:30.000Z</time>
      </trkpt>
      <trkpt lat="47.57296" lon="6.73167">
        <ele>341</ele>
        <time>2016-08-15T07:27:31.000Z</time>
      </trkpt>
      <trkpt lat="47.57295" lon="6.73161">
        <ele>341</ele>
        <time>2016-08-15T07:27:32.000Z</time>
      </trkpt>
      <trkpt lat="47.57294" lon="6.73155">
        <ele>341</ele>
        <time>2016-08-15T07:27:33.000Z</time>
      </trkpt>
      <trkpt lat="47.57293" lon="6.73149">
        <ele>341</ele>
        <time>2016-08-15T07:27:34.000Z</time>
      </trkpt>
      <trkpt lat="47.57292" lon="6.73143">
        <ele>341</ele>
        <time>2016-08-15T07:27:35.000Z</time>
      </trkpt>
      <trkpt lat="47.57291" lon="6.73137">
        <ele>341</ele>
        <time>2016-08-15T07:27:36.000Z</time>
      </trkpt>
      <trkpt lat="47.5729" lon="6.73131">
        <ele>341</ele>
        <time>2016-08-15T07:27:37.000Z</time>
      </trkpt>
      <trkpt lat="47.57289" lon="6.73125">
        <ele>341</ele>
        <time>2016-08-15T07:27:38.000Z</time>
      </trkpt>
      <trkpt lat="47.57287" lon="6.73118">
        <ele>341</ele>
        <time>2016-08-15T07:27:39.000Z</time>
      </trkpt>
      <trkpt lat="47.57285" lon="6.73111">
        <ele>341</ele>
        <time>2016-08-15T07:27:40.000Z</time>
      </trkpt>
      <trkpt lat="47.57284" lon="6.73104">
        <ele>341</ele>
        <time>2016-08-15T07:27:41.000Z</time>
      </trkpt>
      <trkpt lat="47.57283" lon="6.73098">
        <ele>341</ele>
        <time>2016-08-15T07:27:42.000Z</time>
      </trkpt>
      <trkpt lat="47.57281" lon="6.73091">
        <ele>341</ele>
        <time>2016-08-15T07:27:43.000Z</time>
      </trkpt>
      <trkpt lat="47.57279" lon="6.73083">
        <ele>341</ele>
        <time>2016-08-15T07:27:44.000Z</time>
      </trkpt>
      <trkpt lat="47.57279" lon="6.73076">
        <ele>341</ele>
        <time>2016-08-15T07:27:45.000Z</time>
      </trkpt>
      <trkpt lat="47.57278" lon="6.73069">
        <ele>341</ele>
        <time>2016-08-15T07:27:46.000Z</time>
      </trkpt>
      <trkpt lat="47.57278" lon="6.73061">
        <ele>342</ele>
        <time>2016-08-15T07:27:47.000Z</time>
      </trkpt>
      <trkpt lat="47.57278" lon="6.73055">
        <ele>342</ele>
        <time>2016-08-15T07:27:48.000Z</time>
      </trkpt>
      <trkpt lat="47.57278" lon="6.73048">
        <ele>342</ele>
        <time>2016-08-15T07:27:49.000Z</time>
      </trkpt>
      <trkpt lat="47.57278" lon="6.73041">
        <ele>342</ele>
        <time>2016-08-15T07:27:50.000Z</time>
      </trkpt>
      <trkpt lat="47.57279" lon="6.73035">
        <ele>342</ele>
        <time>2016-08-15T07:27:51.000Z</time>
      </trkpt>
      <trkpt lat="47.57282" lon="6.73029">
        <ele>342</ele>
        <time>2016-08-15T07:27:52.000Z</time>
      </trkpt>
      <trkpt lat="47.57283" lon="6.73023">
        <ele>342</ele>
        <time>2016-08-15T07:27:53.000Z</time>
      </trkpt>
      <trkpt lat="47.57285" lon="6.73017">
        <ele>342</ele>
        <time>2016-08-15T07:27:54.000Z</time>
      </trkpt>
      <trkpt lat="47.57287" lon="6.73011">
        <ele>342</ele>
        <time>2016-08-15T07:27:55.000Z</time>
      </trkpt>
      <trkpt lat="47.57289" lon="6.73005">
        <ele>342</ele>
        <time>2016-08-15T07:27:56.000Z</time>
      </trkpt>
      <trkpt lat="47.5729" lon="6.72999">
        <ele>344</ele>
        <time>2016-08-15T07:27:57.000Z</time>
      </trkpt>
      <trkpt lat="47.57291" lon="6.72995">
        <ele>344</ele>
        <time>2016-08-15T07:27:58.000Z</time>
      </trkpt>
      <trkpt lat="47.57292" lon="6.72989">
        <ele>344</ele>
        <time>2016-08-15T07:27:59.000Z</time>
      </trkpt>
      <trkpt lat="47.57293" lon="6.72983">
        <ele>344</ele>
        <time>2016-08-15T07:28:00.000Z</time>
      </trkpt>
      <trkpt lat="47.57293" lon="6.72978">
        <ele>344</ele>
        <time>2016-08-15T07:28:01.000Z</time>
      </trkpt>
      <trkpt lat="47.57293" lon="6.72973">
        <ele>345</ele>
        <time>2016-08-15T07:28:02.000Z</time>
      </trkpt>
      <trkpt lat="47.57294" lon="6.72969">
        <ele>345</ele>
        <time>2016-08-15T07:28:03.000Z</time>
      </trkpt>
      <trkpt lat="47.57294" lon="6.72964">
        <ele>345</ele>
        <time>2016-08-15T07:28:04.000Z</time>
      </trkpt>
      <trkpt lat="47.57294" lon="6.72959">
        <ele>345</ele>
        <time>2016-08-15T07:28:05.000Z</time>
      </trkpt>
      <trkpt lat="47.57295" lon="6.72954">
        <ele>345</ele>
        <time>2016-08-15T07:28:06.000Z</time>
      </trkpt>
      <trkpt lat="47.57295" lon="6.7295">
        <ele>345</ele>
        <time>2016-08-15T07:28:07.000Z</time>
      </trkpt>
      <trkpt lat="47.57296" lon="6.72945">
        <ele>345</ele>
        <time>2016-08-15T07:28:08.000Z</time>
      </trkpt>
      <trkpt lat="47.57296" lon="6.72941">
        <ele>345</ele>
        <time>2016-08-15T07:28:09.000Z</time>
      </trkpt>
      <trkpt lat="47.57296" lon="6.72936">
        <ele>345</ele>
        <time>2016-08-15T07:28:10.000Z</time>
      </trkpt>
      <trkpt lat="47.57296" lon="6.72931">
        <ele>346</ele>
        <time>2016-08-15T07:28:11.000Z</time>
      </trkpt>
      <trkpt lat="47.57296" lon="6.72927">
        <ele>346</ele>
        <time>2016-08-15T07:28:11.999Z</time>
      </trkpt>
      <trkpt lat="47.57296" lon="6.72921">
        <ele>346</ele>
        <time>2016-08-15T07:28:13.000Z</time>
      </trkpt>
      <trkpt lat="47.57297" lon="6.72916">
        <ele>348</ele>
        <time>2016-08-15T07:28:14.002Z</time>
      </trkpt>
      <trkpt lat="47.57297" lon="6.7291">
        <ele>348</ele>
        <time>2016-08-15T07:28:15.000Z</time>
      </trkpt>
      <trkpt lat="47.57297" lon="6.72904">
        <ele>348</ele>
        <time>2016-08-15T07:28:16.000Z</time>
      </trkpt>
      <trkpt lat="47.57297" lon="6.72898">
        <ele>348</ele>
        <time>2016-08-15T07:28:17.000Z</time>
      </trkpt>
      <trkpt lat="47.57297" lon="6.72891">
        <ele>348</ele>
        <time>2016-08-15T07:28:18.000Z</time>
      </trkpt>
      <trkpt lat="47.57297" lon="6.72885">
        <ele>349</ele>
        <time>2016-08-15T07:28:19.000Z</time>
      </trkpt>
      <trkpt lat="47.57297" lon="6.72879">
        <ele>349</ele>
        <time>2016-08-15T07:28:20.001Z</time>
      </trkpt>
      <trkpt lat="47.57295" lon="6.72874">
        <ele>349</ele>
        <time>2016-08-15T07:28:21.000Z</time>
      </trkpt>
      <trkpt lat="47.57294" lon="6.72868">
        <ele>349</ele>
        <time>2016-08-15T07:28:22.000Z</time>
      </trkpt>
      <trkpt lat="47.57294" lon="6.72863">
        <ele>349</ele>
        <time>2016-08-15T07:28:23.000Z</time>
      </trkpt>
      <trkpt lat="47.57293" lon="6.72859">
        <ele>349</ele>
        <time>2016-08-15T07:28:24.000Z</time>
      </trkpt>
      <trkpt lat="47.57292" lon="6.72854">
        <ele>349</ele>
        <time>2016-08-15T07:28:25.000Z</time>
      </trkpt>
      <trkpt lat="47.57291" lon="6.72849">
        <ele>349</ele>
        <time>2016-08-15T07:28:26.000Z</time>
      </trkpt>
      <trkpt lat="47.5729" lon="6.72844">
        <ele>349</ele>
        <time>2016-08-15T07:28:27.000Z</time>
      </trkpt>
      <trkpt lat="47.57289" lon="6.72839">
        <ele>349</ele>
        <time>2016-08-15T07:28:28.000Z</time>
      </trkpt>
      <trkpt lat="47.57287" lon="6.72834">
        <ele>349</ele>
        <time>2016-08-15T07:28:29.000Z</time>
      </trkpt>
      <trkpt lat="47.57286" lon="6.72828">
        <ele>350</ele>
        <time>2016-08-15T07:28:30.000Z</time>
      </trkpt>
      <trkpt lat="47.57284" lon="6.72822">
        <ele>350</ele>
        <time>2016-08-15T07:28:31.000Z</time>
      </trkpt>
      <trkpt lat="47.57283" lon="6.72816">
        <ele>350</ele>
        <time>2016-08-15T07:28:32.000Z</time>
      </trkpt>
      <trkpt lat="47.57281" lon="6.72809">
        <ele>350</ele>
        <time>2016-08-15T07:28:33.000Z</time>
      </trkpt>
      <trkpt lat="47.5728" lon="6.72802">
        <ele>350</ele>
        <time>2016-08-15T07:28:34.000Z</time>
      </trkpt>
      <trkpt lat="47.57278" lon="6.72795">
        <ele>350</ele>
        <time>2016-08-15T07:28:35.000Z</time>
      </trkpt>
      <trkpt lat="47.57276" lon="6.72788">
        <ele>350</ele>
        <time>2016-08-15T07:28:36.000Z</time>
      </trkpt>
      <trkpt lat="47.57275" lon="6.72782">
        <ele>350</ele>
        <time>2016-08-15T07:28:37.000Z</time>
      </trkpt>
      <trkpt lat="47.57274" lon="6.72775">
        <ele>350</ele>
        <time>2016-08-15T07:28:38.000Z</time>
      </trkpt>
      <trkpt lat="47.57273" lon="6.72769">
        <ele>350</ele>
        <time>2016-08-15T07:28:39.000Z</time>
      </trkpt>
      <trkpt lat="47.57272" lon="6.72762">
        <ele>350</ele>
        <time>2016-08-15T07:28:40.000Z</time>
      </trkpt>
      <trkpt lat="47.57272" lon="6.72754">
        <ele>350</ele>
        <time>2016-08-15T07:28:41.000Z</time>
      </trkpt>
      <trkpt lat="47.57271" lon="6.72746">
        <ele>351</ele>
        <time>2016-08-15T07:28:42.000Z</time>
      </trkpt>
      <trkpt lat="47.57268" lon="6.72733">
        <ele>351</ele>
        <time>2016-08-15T07:28:43.000Z</time>
      </trkpt>
      <trkpt lat="47.57267" lon="6.72726">
        <ele>351</ele>
        <time>2016-08-15T07:28:44.000Z</time>
      </trkpt>
      <trkpt lat="47.57265" lon="6.72718">
        <ele>351</ele>
        <time>2016-08-15T07:28:45.000Z</time>
      </trkpt>
      <trkpt lat="47.57264" lon="6.72712">
        <ele>351</ele>
        <time>2016-08-15T07:28:46.000Z</time>
      </trkpt>
      <trkpt lat="47.57263" lon="6.72706">
        <ele>351</ele>
        <time>2016-08-15T07:28:47.000Z</time>
      </trkpt>
      <trkpt lat="47.57263" lon="6.72699">
        <ele>352</ele>
        <time>2016-08-15T07:28:48.000Z</time>
      </trkpt>
      <trkpt lat="47.57262" lon="6.72694">
        <ele>351</ele>
        <time>2016-08-15T07:28:49.000Z</time>
      </trkpt>
      <trkpt lat="47.57261" lon="6.72689">
        <ele>351</ele>
        <time>2016-08-15T07:28:50.000Z</time>
      </trkpt>
      <trkpt lat="47.5726" lon="6.72683">
        <ele>351</ele>
        <time>2016-08-15T07:28:51.000Z</time>
      </trkpt>
      <trkpt lat="47.57259" lon="6.72676">
        <ele>351</ele>
        <time>2016-08-15T07:28:52.000Z</time>
      </trkpt>
      <trkpt lat="47.57257" lon="6.72669">
        <ele>350</ele>
        <time>2016-08-15T07:28:53.000Z</time>
      </trkpt>
      <trkpt lat="47.57255" lon="6.72664">
        <ele>350</ele>
        <time>2016-08-15T07:28:54.000Z</time>
      </trkpt>
      <trkpt lat="47.57253" lon="6.72659">
        <ele>351</ele>
        <time>2016-08-15T07:28:55.000Z</time>
      </trkpt>
      <trkpt lat="47.57252" lon="6.72654">
        <ele>351</ele>
        <time>2016-08-15T07:28:56.000Z</time>
      </trkpt>
      <trkpt lat="47.57251" lon="6.72649">
        <ele>352</ele>
        <time>2016-08-15T07:28:57.000Z</time>
      </trkpt>
      <trkpt lat="47.5725" lon="6.72644">
        <ele>349</ele>
        <time>2016-08-15T07:28:58.000Z</time>
      </trkpt>
      <trkpt lat="47.57249" lon="6.72638">
        <ele>349</ele>
        <time>2016-08-15T07:28:59.000Z</time>
      </trkpt>
      <trkpt lat="47.57248" lon="6.72632">
        <ele>349</ele>
        <time>2016-08-15T07:29:00.000Z</time>
      </trkpt>
      <trkpt lat="47.57247" lon="6.72625">
        <ele>349</ele>
        <time>2016-08-15T07:29:01.000Z</time>
      </trkpt>
      <trkpt lat="47.57246" lon="6.72611">
        <ele>349</ele>
        <time>2016-08-15T07:29:02.000Z</time>
      </trkpt>
      <trkpt lat="47.57245" lon="6.72603">
        <ele>349</ele>
        <time>2016-08-15T07:29:03.000Z</time>
      </trkpt>
      <trkpt lat="47.57245" lon="6.72597">
        <ele>349</ele>
        <time>2016-08-15T07:29:04.000Z</time>
      </trkpt>
      <trkpt lat="47.57243" lon="6.72589">
        <ele>349</ele>
        <time>2016-08-15T07:29:05.000Z</time>
      </trkpt>
      <trkpt lat="47.57241" lon="6.72581">
        <ele>349</ele>
        <time>2016-08-15T07:29:06.000Z</time>
      </trkpt>
      <trkpt lat="47.5724" lon="6.72573">
        <ele>349</ele>
        <time>2016-08-15T07:29:07.000Z</time>
      </trkpt>
      <trkpt lat="47.57239" lon="6.72567">
        <ele>349</ele>
        <time>2016-08-15T07:29:08.000Z</time>
      </trkpt>
      <trkpt lat="47.57239" lon="6.7256">
        <ele>349</ele>
        <time>2016-08-15T07:29:09.000Z</time>
      </trkpt>
      <trkpt lat="47.57238" lon="6.72554">
        <ele>349</ele>
        <time>2016-08-15T07:29:10.000Z</time>
      </trkpt>
      <trkpt lat="47.57237" lon="6.72547">
        <ele>349</ele>
        <time>2016-08-15T07:29:11.000Z</time>
      </trkpt>
      <trkpt lat="47.57237" lon="6.7254">
        <ele>349</ele>
        <time>2016-08-15T07:29:12.000Z</time>
      </trkpt>
      <trkpt lat="47.57237" lon="6.72535">
        <ele>349</ele>
        <time>2016-08-15T07:29:13.000Z</time>
      </trkpt>
      <trkpt lat="47.57233" lon="6.72528">
        <ele>349</ele>
        <time>2016-08-15T07:29:14.000Z</time>
      </trkpt>
      <trkpt lat="47.5723" lon="6.72524">
        <ele>349</ele>
        <time>2016-08-15T07:29:15.000Z</time>
      </trkpt>
      <trkpt lat="47.57227" lon="6.72519">
        <ele>349</ele>
        <time>2016-08-15T07:29:16.000Z</time>
      </trkpt>
      <trkpt lat="47.57226" lon="6.72513">
        <ele>349</ele>
        <time>2016-08-15T07:29:17.000Z</time>
      </trkpt>
      <trkpt lat="47.57224" lon="6.72509">
        <ele>349</ele>
        <time>2016-08-15T07:29:18.000Z</time>
      </trkpt>
      <trkpt lat="47.57223" lon="6.72504">
        <ele>349</ele>
        <time>2016-08-15T07:29:19.000Z</time>
      </trkpt>
      <trkpt lat="47.57222" lon="6.72499">
        <ele>350</ele>
        <time>2016-08-15T07:29:20.000Z</time>
      </trkpt>
      <trkpt lat="47.57221" lon="6.72493">
        <ele>350</ele>
        <time>2016-08-15T07:29:21.000Z</time>
      </trkpt>
      <trkpt lat="47.5722" lon="6.72488">
        <ele>350</ele>
        <time>2016-08-15T07:29:22.000Z</time>
      </trkpt>
      <trkpt lat="47.57219" lon="6.72481">
        <ele>350</ele>
        <time>2016-08-15T07:29:23.000Z</time>
      </trkpt>
      <trkpt lat="47.57218" lon="6.72474">
        <ele>350</ele>
        <time>2016-08-15T07:29:24.000Z</time>
      </trkpt>
      <trkpt lat="47.57217" lon="6.72467">
        <ele>350</ele>
        <time>2016-08-15T07:29:25.000Z</time>
      </trkpt>
      <trkpt lat="47.57216" lon="6.7246">
        <ele>350</ele>
        <time>2016-08-15T07:29:26.000Z</time>
      </trkpt>
      <trkpt lat="47.57216" lon="6.72452">
        <ele>350</ele>
        <time>2016-08-15T07:29:27.000Z</time>
      </trkpt>
      <trkpt lat="47.57215" lon="6.72444">
        <ele>350</ele>
        <time>2016-08-15T07:29:28.000Z</time>
      </trkpt>
      <trkpt lat="47.57214" lon="6.72436">
        <ele>350</ele>
        <time>2016-08-15T07:29:29.000Z</time>
      </trkpt>
      <trkpt lat="47.57213" lon="6.72428">
        <ele>351</ele>
        <time>2016-08-15T07:29:30.000Z</time>
      </trkpt>
      <trkpt lat="47.57212" lon="6.72413">
        <ele>352</ele>
        <time>2016-08-15T07:29:31.000Z</time>
      </trkpt>
      <trkpt lat="47.5721" lon="6.72405">
        <ele>352</ele>
        <time>2016-08-15T07:29:32.000Z</time>
      </trkpt>
      <trkpt lat="47.57209" lon="6.72398">
        <ele>352</ele>
        <time>2016-08-15T07:29:33.000Z</time>
      </trkpt>
      <trkpt lat="47.57208" lon="6.7239">
        <ele>352</ele>
        <time>2016-08-15T07:29:34.000Z</time>
      </trkpt>
      <trkpt lat="47.57206" lon="6.72384">
        <ele>352</ele>
        <time>2016-08-15T07:29:35.000Z</time>
      </trkpt>
      <trkpt lat="47.57206" lon="6.72376">
        <ele>353</ele>
        <time>2016-08-15T07:29:36.000Z</time>
      </trkpt>
      <trkpt lat="47.57204" lon="6.72369">
        <ele>353</ele>
        <time>2016-08-15T07:29:37.000Z</time>
      </trkpt>
      <trkpt lat="47.57203" lon="6.72362">
        <ele>353</ele>
        <time>2016-08-15T07:29:38.000Z</time>
      </trkpt>
      <trkpt lat="47.57202" lon="6.72355">
        <ele>353</ele>
        <time>2016-08-15T07:29:39.000Z</time>
      </trkpt>
      <trkpt lat="47.57201" lon="6.72348">
        <ele>353</ele>
        <time>2016-08-15T07:29:40.000Z</time>
      </trkpt>
      <trkpt lat="47.572" lon="6.7234">
        <ele>352</ele>
        <time>2016-08-15T07:29:41.000Z</time>
      </trkpt>
      <trkpt lat="47.572" lon="6.72333">
        <ele>355</ele>
        <time>2016-08-15T07:29:42.000Z</time>
      </trkpt>
      <trkpt lat="47.57199" lon="6.72327">
        <ele>355</ele>
        <time>2016-08-15T07:29:43.000Z</time>
      </trkpt>
      <trkpt lat="47.57199" lon="6.72321">
        <ele>355</ele>
        <time>2016-08-15T07:29:44.000Z</time>
      </trkpt>
      <trkpt lat="47.57198" lon="6.72314">
        <ele>355</ele>
        <time>2016-08-15T07:29:45.000Z</time>
      </trkpt>
      <trkpt lat="47.57199" lon="6.72307">
        <ele>355</ele>
        <time>2016-08-15T07:29:46.000Z</time>
      </trkpt>
      <trkpt lat="47.57199" lon="6.72301">
        <ele>355</ele>
        <time>2016-08-15T07:29:47.000Z</time>
      </trkpt>
      <trkpt lat="47.57199" lon="6.72295">
        <ele>355</ele>
        <time>2016-08-15T07:29:48.000Z</time>
      </trkpt>
      <trkpt lat="47.57199" lon="6.72289">
        <ele>356</ele>
        <time>2016-08-15T07:29:49.000Z</time>
      </trkpt>
      <trkpt lat="47.57199" lon="6.72283">
        <ele>356</ele>
        <time>2016-08-15T07:29:50.000Z</time>
      </trkpt>
      <trkpt lat="47.57199" lon="6.72277">
        <ele>356</ele>
        <time>2016-08-15T07:29:51.000Z</time>
      </trkpt>
      <trkpt lat="47.57199" lon="6.72271">
        <ele>356</ele>
        <time>2016-08-15T07:29:52.000Z</time>
      </trkpt>
      <trkpt lat="47.57199" lon="6.72266">
        <ele>356</ele>
        <time>2016-08-15T07:29:53.000Z</time>
      </trkpt>
      <trkpt lat="47.57199" lon="6.7226">
        <ele>356</ele>
        <time>2016-08-15T07:29:54.000Z</time>
      </trkpt>
      <trkpt lat="47.57199" lon="6.72254">
        <ele>356</ele>
        <time>2016-08-15T07:29:55.000Z</time>
      </trkpt>
      <trkpt lat="47.57198" lon="6.72248">
        <ele>358</ele>
        <time>2016-08-15T07:29:56.000Z</time>
      </trkpt>
      <trkpt lat="47.57198" lon="6.72242">
        <ele>358</ele>
        <time>2016-08-15T07:29:57.000Z</time>
      </trkpt>
      <trkpt lat="47.57198" lon="6.72235">
        <ele>358</ele>
        <time>2016-08-15T07:29:58.000Z</time>
      </trkpt>
      <trkpt lat="47.57197" lon="6.72229">
        <ele>359</ele>
        <time>2016-08-15T07:29:58.999Z</time>
      </trkpt>
      <trkpt lat="47.57196" lon="6.72223">
        <ele>359</ele>
        <time>2016-08-15T07:30:00.000Z</time>
      </trkpt>
      <trkpt lat="47.57193" lon="6.72216">
        <ele>359</ele>
        <time>2016-08-15T07:30:01.000Z</time>
      </trkpt>
      <trkpt lat="47.5719" lon="6.72211">
        <ele>359</ele>
        <time>2016-08-15T07:30:01.998Z</time>
      </trkpt>
      <trkpt lat="47.57191" lon="6.72205">
        <ele>359</ele>
        <time>2016-08-15T07:30:03.000Z</time>
      </trkpt>
      <trkpt lat="47.5719" lon="6.72199">
        <ele>359</ele>
        <time>2016-08-15T07:30:03.999Z</time>
      </trkpt>
      <trkpt lat="47.5719" lon="6.72193">
        <ele>359</ele>
        <time>2016-08-15T07:30:05.000Z</time>
      </trkpt>
      <trkpt lat="47.57189" lon="6.72188">
        <ele>359</ele>
        <time>2016-08-15T07:30:06.000Z</time>
      </trkpt>
      <trkpt lat="47.57187" lon="6.72181">
        <ele>359</ele>
        <time>2016-08-15T07:30:07.000Z</time>
      </trkpt>
      <trkpt lat="47.57186" lon="6.72175">
        <ele>359</ele>
        <time>2016-08-15T07:30:08.000Z</time>
      </trkpt>
      <trkpt lat="47.57183" lon="6.72166">
        <ele>360</ele>
        <time>2016-08-15T07:30:09.000Z</time>
      </trkpt>
      <trkpt lat="47.57181" lon="6.72158">
        <ele>360</ele>
        <time>2016-08-15T07:30:10.000Z</time>
      </trkpt>
      <trkpt lat="47.5718" lon="6.72152">
        <ele>360</ele>
        <time>2016-08-15T07:30:11.000Z</time>
      </trkpt>
      <trkpt lat="47.57179" lon="6.72145">
        <ele>361</ele>
        <time>2016-08-15T07:30:12.000Z</time>
      </trkpt>
      <trkpt lat="47.57177" lon="6.72139">
        <ele>361</ele>
        <time>2016-08-15T07:30:13.001Z</time>
      </trkpt>
      <trkpt lat="47.57177" lon="6.72134">
        <ele>361</ele>
        <time>2016-08-15T07:30:14.000Z</time>
      </trkpt>
      <trkpt lat="47.57175" lon="6.72127">
        <ele>361</ele>
        <time>2016-08-15T07:30:15.000Z</time>
      </trkpt>
      <trkpt lat="47.57174" lon="6.72121">
        <ele>361</ele>
        <time>2016-08-15T07:30:16.000Z</time>
      </trkpt>
      <trkpt lat="47.57172" lon="6.72115">
        <ele>361</ele>
        <time>2016-08-15T07:30:17.000Z</time>
      </trkpt>
      <trkpt lat="47.57171" lon="6.72109">
        <ele>361</ele>
        <time>2016-08-15T07:30:18.000Z</time>
      </trkpt>
      <trkpt lat="47.57169" lon="6.72104">
        <ele>361</ele>
        <time>2016-08-15T07:30:19.000Z</time>
      </trkpt>
      <trkpt lat="47.57167" lon="6.72098">
        <ele>361</ele>
        <time>2016-08-15T07:30:20.000Z</time>
      </trkpt>
      <trkpt lat="47.57165" lon="6.72093">
        <ele>357</ele>
        <time>2016-08-15T07:30:21.000Z</time>
      </trkpt>
      <trkpt lat="47.57162" lon="6.72088">
        <ele>358</ele>
        <time>2016-08-15T07:30:22.000Z</time>
      </trkpt>
      <trkpt lat="47.5716" lon="6.72081">
        <ele>358</ele>
        <time>2016-08-15T07:30:23.000Z</time>
      </trkpt>
      <trkpt lat="47.57159" lon="6.72075">
        <ele>358</ele>
        <time>2016-08-15T07:30:24.000Z</time>
      </trkpt>
      <trkpt lat="47.57157" lon="6.72069">
        <ele>358</ele>
        <time>2016-08-15T07:30:25.000Z</time>
      </trkpt>
      <trkpt lat="47.57155" lon="6.72063">
        <ele>358</ele>
        <time>2016-08-15T07:30:26.000Z</time>
      </trkpt>
      <trkpt lat="47.57154" lon="6.72057">
        <ele>357</ele>
        <time>2016-08-15T07:30:27.000Z</time>
      </trkpt>
      <trkpt lat="47.57151" lon="6.72051">
        <ele>357</ele>
        <time>2016-08-15T07:30:28.000Z</time>
      </trkpt>
      <trkpt lat="47.57149" lon="6.72045">
        <ele>357</ele>
        <time>2016-08-15T07:30:29.000Z</time>
      </trkpt>
      <trkpt lat="47.57146" lon="6.72039">
        <ele>357</ele>
        <time>2016-08-15T07:30:30.000Z</time>
      </trkpt>
      <trkpt lat="47.57144" lon="6.72034">
        <ele>358</ele>
        <time>2016-08-15T07:30:31.000Z</time>
      </trkpt>
      <trkpt lat="47.57142" lon="6.72029">
        <ele>358</ele>
        <time>2016-08-15T07:30:32.000Z</time>
      </trkpt>
      <trkpt lat="47.5714" lon="6.72025">
        <ele>358</ele>
        <time>2016-08-15T07:30:33.000Z</time>
      </trkpt>
      <trkpt lat="47.57137" lon="6.7202">
        <ele>358</ele>
        <time>2016-08-15T07:30:34.000Z</time>
      </trkpt>
      <trkpt lat="47.57134" lon="6.72016">
        <ele>357</ele>
        <time>2016-08-15T07:30:35.000Z</time>
      </trkpt>
      <trkpt lat="47.57132" lon="6.72011">
        <ele>357</ele>
        <time>2016-08-15T07:30:36.000Z</time>
      </trkpt>
      <trkpt lat="47.57129" lon="6.72006">
        <ele>357</ele>
        <time>2016-08-15T07:30:37.000Z</time>
      </trkpt>
      <trkpt lat="47.57131" lon="6.72003">
        <ele>357</ele>
        <time>2016-08-15T07:30:38.000Z</time>
      </trkpt>
      <trkpt lat="47.57131" lon="6.71998">
        <ele>360</ele>
        <time>2016-08-15T07:30:40.000Z</time>
      </trkpt>
      <trkpt lat="47.57133" lon="6.71996">
        <ele>360</ele>
        <time>2016-08-15T07:30:41.000Z</time>
      </trkpt>
      <trkpt lat="47.57136" lon="6.71995">
        <ele>360</ele>
        <time>2016-08-15T07:30:43.000Z</time>
      </trkpt>
      <trkpt lat="47.57138" lon="6.71995">
        <ele>361</ele>
        <time>2016-08-15T07:30:44.000Z</time>
      </trkpt>
      <trkpt lat="47.57142" lon="6.71995">
        <ele>361</ele>
        <time>2016-08-15T07:30:46.000Z</time>
      </trkpt>
      <trkpt lat="47.57144" lon="6.71995">
        <ele>361</ele>
        <time>2016-08-15T07:30:47.000Z</time>
      </trkpt>
      <trkpt lat="47.57148" lon="6.71994">
        <ele>361</ele>
        <time>2016-08-15T07:30:50.000Z</time>
      </trkpt>
      <trkpt lat="47.57149" lon="6.71993">
        <ele>361</ele>
        <time>2016-08-15T07:30:51.000Z</time>
      </trkpt>
      <trkpt lat="47.57153" lon="6.7199">
        <ele>362</ele>
        <time>2016-08-15T07:30:54.000Z</time>
      </trkpt>
      <trkpt lat="47.57154" lon="6.71989">
        <ele>362</ele>
        <time>2016-08-15T07:30:55.000Z</time>
      </trkpt>
      <trkpt lat="47.57157" lon="6.71987">
        <ele>362</ele>
        <time>2016-08-15T07:30:57.000Z</time>
      </trkpt>
      <trkpt lat="47.57159" lon="6.71986">
        <ele>362</ele>
        <time>2016-08-15T07:30:58.000Z</time>
      </trkpt>
      <trkpt lat="47.57162" lon="6.71984">
        <ele>362</ele>
        <time>2016-08-15T07:31:00.001Z</time>
      </trkpt>
      <trkpt lat="47.57163" lon="6.71983">
        <ele>362</ele>
        <time>2016-08-15T07:31:01.000Z</time>
      </trkpt>
      <trkpt lat="47.57167" lon="6.71981">
        <ele>362</ele>
        <time>2016-08-15T07:31:04.000Z</time>
      </trkpt>
      <trkpt lat="47.57168" lon="6.71981">
        <ele>367</ele>
        <time>2016-08-15T07:31:05.000Z</time>
      </trkpt>
      <trkpt lat="47.57172" lon="6.7198">
        <ele>367</ele>
        <time>2016-08-15T07:31:07.000Z</time>
      </trkpt>
      <trkpt lat="47.57173" lon="6.71979">
        <ele>367</ele>
        <time>2016-08-15T07:31:08.000Z</time>
      </trkpt>
      <trkpt lat="47.57177" lon="6.71976">
        <ele>368</ele>
        <time>2016-08-15T07:31:11.000Z</time>
      </trkpt>
      <trkpt lat="47.57179" lon="6.71974">
        <ele>368</ele>
        <time>2016-08-15T07:31:12.000Z</time>
      </trkpt>
      <trkpt lat="47.57182" lon="6.71972">
        <ele>369</ele>
        <time>2016-08-15T07:31:14.000Z</time>
      </trkpt>
      <trkpt lat="47.57183" lon="6.71971">
        <ele>369</ele>
        <time>2016-08-15T07:31:15.000Z</time>
      </trkpt>
      <trkpt lat="47.57186" lon="6.7197">
        <ele>369</ele>
        <time>2016-08-15T07:31:17.000Z</time>
      </trkpt>
      <trkpt lat="47.57188" lon="6.71969">
        <ele>369</ele>
        <time>2016-08-15T07:31:18.000Z</time>
      </trkpt>
      <trkpt lat="47.57191" lon="6.71968">
        <ele>369</ele>
        <time>2016-08-15T07:31:20.000Z</time>
      </trkpt>
      <trkpt lat="47.57193" lon="6.71968">
        <ele>369</ele>
        <time>2016-08-15T07:31:21.000Z</time>
      </trkpt>
      <trkpt lat="47.57197" lon="6.71968">
        <ele>370</ele>
        <time>2016-08-15T07:31:23.000Z</time>
      </trkpt>
      <trkpt lat="47.572" lon="6.71969">
        <ele>370</ele>
        <time>2016-08-15T07:31:24.000Z</time>
      </trkpt>
      <trkpt lat="47.57204" lon="6.71969">
        <ele>370</ele>
        <time>2016-08-15T07:31:26.000Z</time>
      </trkpt>
      <trkpt lat="47.57206" lon="6.7197">
        <ele>370</ele>
        <time>2016-08-15T07:31:27.001Z</time>
      </trkpt>
      <trkpt lat="47.57209" lon="6.71971">
        <ele>370</ele>
        <time>2016-08-15T07:31:29.000Z</time>
      </trkpt>
      <trkpt lat="47.57211" lon="6.7197">
        <ele>371</ele>
        <time>2016-08-15T07:31:30.000Z</time>
      </trkpt>
      <trkpt lat="47.57214" lon="6.71969">
        <ele>371</ele>
        <time>2016-08-15T07:31:32.000Z</time>
      </trkpt>
      <trkpt lat="47.57215" lon="6.71968">
        <ele>371</ele>
        <time>2016-08-15T07:31:33.001Z</time>
      </trkpt>
      <trkpt lat="47.57219" lon="6.7197">
        <ele>371</ele>
        <time>2016-08-15T07:31:36.000Z</time>
      </trkpt>
      <trkpt lat="47.5722" lon="6.71971">
        <ele>371</ele>
        <time>2016-08-15T07:31:37.000Z</time>
      </trkpt>
      <trkpt lat="47.57224" lon="6.71973">
        <ele>371</ele>
        <time>2016-08-15T07:31:39.000Z</time>
      </trkpt>
      <trkpt lat="47.57226" lon="6.71973">
        <ele>372</ele>
        <time>2016-08-15T07:31:40.000Z</time>
      </trkpt>
      <trkpt lat="47.5723" lon="6.71976">
        <ele>372</ele>
        <time>2016-08-15T07:31:42.000Z</time>
      </trkpt>
      <trkpt lat="47.57232" lon="6.71977">
        <ele>372</ele>
        <time>2016-08-15T07:31:43.000Z</time>
      </trkpt>
      <trkpt lat="47.57234" lon="6.71979">
        <ele>372</ele>
        <time>2016-08-15T07:31:44.000Z</time>
      </trkpt>
      <trkpt lat="47.57236" lon="6.71981">
        <ele>372</ele>
        <time>2016-08-15T07:31:45.000Z</time>
      </trkpt>
      <trkpt lat="47.57238" lon="6.71984">
        <ele>372</ele>
        <time>2016-08-15T07:31:52.000Z</time>
      </trkpt>
      <trkpt lat="47.5724" lon="6.71986">
        <ele>372</ele>
        <time>2016-08-15T07:31:53.000Z</time>
      </trkpt>
      <trkpt lat="47.57244" lon="6.71989">
        <ele>373</ele>
        <time>2016-08-15T07:31:55.000Z</time>
      </trkpt>
      <trkpt lat="47.57246" lon="6.7199">
        <ele>373</ele>
        <time>2016-08-15T07:31:56.000Z</time>
      </trkpt>
      <trkpt lat="47.57247" lon="6.71992">
        <ele>373</ele>
        <time>2016-08-15T07:31:57.000Z</time>
      </trkpt>
      <trkpt lat="47.57249" lon="6.71994">
        <ele>373</ele>
        <time>2016-08-15T07:31:58.000Z</time>
      </trkpt>
      <trkpt lat="47.57253" lon="6.71998">
        <ele>375</ele>
        <time>2016-08-15T07:32:00.000Z</time>
      </trkpt>
      <trkpt lat="47.57254" lon="6.72">
        <ele>375</ele>
        <time>2016-08-15T07:32:01.000Z</time>
      </trkpt>
      <trkpt lat="47.57258" lon="6.72003">
        <ele>375</ele>
        <time>2016-08-15T07:32:03.001Z</time>
      </trkpt>
      <trkpt lat="47.5726" lon="6.72004">
        <ele>375</ele>
        <time>2016-08-15T07:32:03.999Z</time>
      </trkpt>
      <trkpt lat="47.57264" lon="6.72007">
        <ele>375</ele>
        <time>2016-08-15T07:32:06.000Z</time>
      </trkpt>
      <trkpt lat="47.57266" lon="6.72009">
        <ele>375</ele>
        <time>2016-08-15T07:32:07.000Z</time>
      </trkpt>
      <trkpt lat="47.57269" lon="6.72012">
        <ele>376</ele>
        <time>2016-08-15T07:32:09.000Z</time>
      </trkpt>
      <trkpt lat="47.57272" lon="6.72014">
        <ele>376</ele>
        <time>2016-08-15T07:32:10.000Z</time>
      </trkpt>
      <trkpt lat="47.57274" lon="6.72015">
        <ele>376</ele>
        <time>2016-08-15T07:32:11.000Z</time>
      </trkpt>
      <trkpt lat="47.57276" lon="6.72016">
        <ele>376</ele>
        <time>2016-08-15T07:32:12.000Z</time>
      </trkpt>
      <trkpt lat="47.57278" lon="6.72017">
        <ele>376</ele>
        <time>2016-08-15T07:32:12.999Z</time>
      </trkpt>
      <trkpt lat="47.57281" lon="6.72018">
        <ele>376</ele>
        <time>2016-08-15T07:32:14.000Z</time>
      </trkpt>
      <trkpt lat="47.57285" lon="6.72021">
        <ele>377</ele>
        <time>2016-08-15T07:32:16.000Z</time>
      </trkpt>
      <trkpt lat="47.57286" lon="6.72022">
        <ele>377</ele>
        <time>2016-08-15T07:32:16.999Z</time>
      </trkpt>
      <trkpt lat="47.5729" lon="6.72025">
        <ele>377</ele>
        <time>2016-08-15T07:32:19.000Z</time>
      </trkpt>
      <trkpt lat="47.57292" lon="6.72026">
        <ele>377</ele>
        <time>2016-08-15T07:32:20.000Z</time>
      </trkpt>
      <trkpt lat="47.57293" lon="6.72029">
        <ele>377</ele>
        <time>2016-08-15T07:32:21.000Z</time>
      </trkpt>
      <trkpt lat="47.57295" lon="6.72031">
        <ele>377</ele>
        <time>2016-08-15T07:32:22.000Z</time>
      </trkpt>
      <trkpt lat="47.57296" lon="6.72034">
        <ele>377</ele>
        <time>2016-08-15T07:32:23.000Z</time>
      </trkpt>
      <trkpt lat="47.57298" lon="6.72037">
        <ele>377</ele>
        <time>2016-08-15T07:32:24.000Z</time>
      </trkpt>
      <trkpt lat="47.57302" lon="6.7204">
        <ele>377</ele>
        <time>2016-08-15T07:32:26.000Z</time>
      </trkpt>
      <trkpt lat="47.57303" lon="6.7204">
        <ele>377</ele>
        <time>2016-08-15T07:32:27.000Z</time>
      </trkpt>
      <trkpt lat="47.57306" lon="6.72039">
        <ele>377</ele>
        <time>2016-08-15T07:32:29.000Z</time>
      </trkpt>
      <trkpt lat="47.57308" lon="6.72039">
        <ele>377</ele>
        <time>2016-08-15T07:32:29.999Z</time>
      </trkpt>
      <trkpt lat="47.57312" lon="6.72037">
        <ele>378</ele>
        <time>2016-08-15T07:32:32.000Z</time>
      </trkpt>
      <trkpt lat="47.57314" lon="6.72036">
        <ele>378</ele>
        <time>2016-08-15T07:32:33.000Z</time>
      </trkpt>
      <trkpt lat="47.57316" lon="6.72033">
        <ele>378</ele>
        <time>2016-08-15T07:32:34.000Z</time>
      </trkpt>
      <trkpt lat="47.57318" lon="6.72032">
        <ele>378</ele>
        <time>2016-08-15T07:32:35.000Z</time>
      </trkpt>
      <trkpt lat="47.5732" lon="6.72029">
        <ele>379</ele>
        <time>2016-08-15T07:32:36.000Z</time>
      </trkpt>
      <trkpt lat="47.57322" lon="6.72028">
        <ele>379</ele>
        <time>2016-08-15T07:32:37.000Z</time>
      </trkpt>
      <trkpt lat="47.57325" lon="6.72024">
        <ele>379</ele>
        <time>2016-08-15T07:32:39.000Z</time>
      </trkpt>
      <trkpt lat="47.57327" lon="6.72022">
        <ele>380</ele>
        <time>2016-08-15T07:32:40.000Z</time>
      </trkpt>
      <trkpt lat="47.5733" lon="6.72017">
        <ele>380</ele>
        <time>2016-08-15T07:32:42.000Z</time>
      </trkpt>
      <trkpt lat="47.57332" lon="6.72015">
        <ele>381</ele>
        <time>2016-08-15T07:32:43.000Z</time>
      </trkpt>
      <trkpt lat="47.57335" lon="6.72012">
        <ele>383</ele>
        <time>2016-08-15T07:32:45.001Z</time>
      </trkpt>
      <trkpt lat="47.57336" lon="6.72011">
        <ele>383</ele>
        <time>2016-08-15T07:32:46.000Z</time>
      </trkpt>
      <trkpt lat="47.57338" lon="6.7201">
        <ele>383</ele>
        <time>2016-08-15T07:32:49.000Z</time>
      </trkpt>
      <trkpt lat="47.5734" lon="6.72007">
        <ele>383</ele>
        <time>2016-08-15T07:32:50.000Z</time>
      </trkpt>
      <trkpt lat="47.57342" lon="6.72005">
        <ele>383</ele>
        <time>2016-08-15T07:32:50.999Z</time>
      </trkpt>
      <trkpt lat="47.57343" lon="6.72001">
        <ele>383</ele>
        <time>2016-08-15T07:32:52.000Z</time>
      </trkpt>
      <trkpt lat="47.57344" lon="6.71997">
        <ele>385</ele>
        <time>2016-08-15T07:32:53.000Z</time>
      </trkpt>
      <trkpt lat="47.57345" lon="6.71992">
        <ele>385</ele>
        <time>2016-08-15T07:32:54.000Z</time>
      </trkpt>
      <trkpt lat="47.57346" lon="6.7199">
        <ele>385</ele>
        <time>2016-08-15T07:32:54.999Z</time>
      </trkpt>
      <trkpt lat="47.57348" lon="6.71984">
        <ele>385</ele>
        <time>2016-08-15T07:32:56.000Z</time>
      </trkpt>
      <trkpt lat="47.5735" lon="6.71981">
        <ele>386</ele>
        <time>2016-08-15T07:32:57.000Z</time>
      </trkpt>
      <trkpt lat="47.57351" lon="6.71977">
        <ele>386</ele>
        <time>2016-08-15T07:32:58.000Z</time>
      </trkpt>
      <trkpt lat="47.57354" lon="6.71973">
        <ele>386</ele>
        <time>2016-08-15T07:32:59.000Z</time>
      </trkpt>
      <trkpt lat="47.57355" lon="6.7197">
        <ele>386</ele>
        <time>2016-08-15T07:33:00.001Z</time>
      </trkpt>
      <trkpt lat="47.57358" lon="6.71966">
        <ele>386</ele>
        <time>2016-08-15T07:33:01.000Z</time>
      </trkpt>
      <trkpt lat="47.5736" lon="6.71963">
        <ele>386</ele>
        <time>2016-08-15T07:33:02.000Z</time>
      </trkpt>
      <trkpt lat="47.57362" lon="6.7196">
        <ele>386</ele>
        <time>2016-08-15T07:33:02.999Z</time>
      </trkpt>
      <trkpt lat="47.57363" lon="6.71956">
        <ele>387</ele>
        <time>2016-08-15T07:33:04.000Z</time>
      </trkpt>
      <trkpt lat="47.57364" lon="6.71953">
        <ele>387</ele>
        <time>2016-08-15T07:33:05.000Z</time>
      </trkpt>
      <trkpt lat="47.57366" lon="6.7195">
        <ele>387</ele>
        <time>2016-08-15T07:33:06.000Z</time>
      </trkpt>
      <trkpt lat="47.57367" lon="6.71947">
        <ele>387</ele>
        <time>2016-08-15T07:33:07.000Z</time>
      </trkpt>
      <trkpt lat="47.57369" lon="6.71944">
        <ele>387</ele>
        <time>2016-08-15T07:33:08.000Z</time>
      </trkpt>
      <trkpt lat="47.57371" lon="6.71941">
        <ele>387</ele>
        <time>2016-08-15T07:33:08.998Z</time>
      </trkpt>
      <trkpt lat="47.57373" lon="6.71939">
        <ele>387</ele>
        <time>2016-08-15T07:33:10.000Z</time>
      </trkpt>
      <trkpt lat="47.57376" lon="6.71937">
        <ele>387</ele>
        <time>2016-08-15T07:33:11.000Z</time>
      </trkpt>
      <trkpt lat="47.57378" lon="6.71934">
        <ele>388</ele>
        <time>2016-08-15T07:33:12.000Z</time>
      </trkpt>
      <trkpt lat="47.57381" lon="6.71932">
        <ele>388</ele>
        <time>2016-08-15T07:33:13.000Z</time>
      </trkpt>
      <trkpt lat="47.57383" lon="6.7193">
        <ele>388</ele>
        <time>2016-08-15T07:33:13.999Z</time>
      </trkpt>
      <trkpt lat="47.57385" lon="6.71927">
        <ele>388</ele>
        <time>2016-08-15T07:33:15.000Z</time>
      </trkpt>
      <trkpt lat="47.57388" lon="6.71925">
        <ele>388</ele>
        <time>2016-08-15T07:33:16.000Z</time>
      </trkpt>
      <trkpt lat="47.5739" lon="6.71922">
        <ele>389</ele>
        <time>2016-08-15T07:33:17.001Z</time>
      </trkpt>
      <trkpt lat="47.57392" lon="6.7192">
        <ele>389</ele>
        <time>2016-08-15T07:33:18.000Z</time>
      </trkpt>
      <trkpt lat="47.57395" lon="6.71918">
        <ele>389</ele>
        <time>2016-08-15T07:33:19.000Z</time>
      </trkpt>
      <trkpt lat="47.57396" lon="6.71917">
        <ele>390</ele>
        <time>2016-08-15T07:33:20.000Z</time>
      </trkpt>
      <trkpt lat="47.57399" lon="6.71914">
        <ele>392</ele>
        <time>2016-08-15T07:33:22.000Z</time>
      </trkpt>
      <trkpt lat="47.574" lon="6.71913">
        <ele>392</ele>
        <time>2016-08-15T07:33:23.000Z</time>
      </trkpt>
      <trkpt lat="47.57404" lon="6.7191">
        <ele>392</ele>
        <time>2016-08-15T07:33:26.000Z</time>
      </trkpt>
      <trkpt lat="47.57405" lon="6.71908">
        <ele>392</ele>
        <time>2016-08-15T07:33:27.000Z</time>
      </trkpt>
      <trkpt lat="47.57408" lon="6.71907">
        <ele>392</ele>
        <time>2016-08-15T07:33:28.000Z</time>
      </trkpt>
      <trkpt lat="47.5741" lon="6.71905">
        <ele>392</ele>
        <time>2016-08-15T07:33:29.000Z</time>
      </trkpt>
      <trkpt lat="47.57412" lon="6.71903">
        <ele>392</ele>
        <time>2016-08-15T07:33:30.000Z</time>
      </trkpt>
      <trkpt lat="47.57415" lon="6.71901">
        <ele>392</ele>
        <time>2016-08-15T07:33:31.000Z</time>
      </trkpt>
      <trkpt lat="47.57418" lon="6.71898">
        <ele>396</ele>
        <time>2016-08-15T07:33:32.000Z</time>
      </trkpt>
      <trkpt lat="47.5742" lon="6.71896">
        <ele>396</ele>
        <time>2016-08-15T07:33:33.000Z</time>
      </trkpt>
      <trkpt lat="47.57422" lon="6.71893">
        <ele>396</ele>
        <time>2016-08-15T07:33:34.000Z</time>
      </trkpt>
      <trkpt lat="47.57424" lon="6.71891">
        <ele>397</ele>
        <time>2016-08-15T07:33:35.000Z</time>
      </trkpt>
      <trkpt lat="47.57426" lon="6.71886">
        <ele>397</ele>
        <time>2016-08-15T07:33:37.000Z</time>
      </trkpt>
      <trkpt lat="47.57427" lon="6.71884">
        <ele>397</ele>
        <time>2016-08-15T07:33:38.000Z</time>
      </trkpt>
      <trkpt lat="47.57429" lon="6.7188">
        <ele>397</ele>
        <time>2016-08-15T07:33:40.000Z</time>
      </trkpt>
      <trkpt lat="47.5743" lon="6.71878">
        <ele>398</ele>
        <time>2016-08-15T07:33:41.000Z</time>
      </trkpt>
      <trkpt lat="47.57434" lon="6.71875">
        <ele>398</ele>
        <time>2016-08-15T07:33:43.000Z</time>
      </trkpt>
      <trkpt lat="47.57436" lon="6.71874">
        <ele>398</ele>
        <time>2016-08-15T07:33:44.000Z</time>
      </trkpt>
      <trkpt lat="47.57439" lon="6.71873">
        <ele>398</ele>
        <time>2016-08-15T07:33:46.000Z</time>
      </trkpt>
      <trkpt lat="47.5744" lon="6.71872">
        <ele>398</ele>
        <time>2016-08-15T07:33:47.000Z</time>
      </trkpt>
      <trkpt lat="47.57442" lon="6.71866">
        <ele>398</ele>
        <time>2016-08-15T07:33:51.000Z</time>
      </trkpt>
      <trkpt lat="47.57443" lon="6.71864">
        <ele>398</ele>
        <time>2016-08-15T07:33:52.000Z</time>
      </trkpt>
      <trkpt lat="47.57445" lon="6.71858">
        <ele>399</ele>
        <time>2016-08-15T07:33:54.000Z</time>
      </trkpt>
      <trkpt lat="47.57446" lon="6.71855">
        <ele>399</ele>
        <time>2016-08-15T07:33:55.000Z</time>
      </trkpt>
      <trkpt lat="47.57447" lon="6.71849">
        <ele>399</ele>
        <time>2016-08-15T07:33:57.000Z</time>
      </trkpt>
      <trkpt lat="47.57448" lon="6.71845">
        <ele>399</ele>
        <time>2016-08-15T07:33:58.000Z</time>
      </trkpt>
      <trkpt lat="47.57449" lon="6.7184">
        <ele>399</ele>
        <time>2016-08-15T07:33:59.000Z</time>
      </trkpt>
      <trkpt lat="47.57449" lon="6.71835">
        <ele>399</ele>
        <time>2016-08-15T07:34:00.000Z</time>
      </trkpt>
      <trkpt lat="47.5745" lon="6.7183">
        <ele>402</ele>
        <time>2016-08-15T07:34:01.000Z</time>
      </trkpt>
      <trkpt lat="47.5745" lon="6.71826">
        <ele>402</ele>
        <time>2016-08-15T07:34:02.000Z</time>
      </trkpt>
      <trkpt lat="47.5745" lon="6.71822">
        <ele>402</ele>
        <time>2016-08-15T07:34:03.000Z</time>
      </trkpt>
      <trkpt lat="47.57451" lon="6.71818">
        <ele>402</ele>
        <time>2016-08-15T07:34:04.000Z</time>
      </trkpt>
      <trkpt lat="47.57451" lon="6.71814">
        <ele>402</ele>
        <time>2016-08-15T07:34:05.000Z</time>
      </trkpt>
      <trkpt lat="47.57452" lon="6.7181">
        <ele>402</ele>
        <time>2016-08-15T07:34:06.000Z</time>
      </trkpt>
      <trkpt lat="47.57452" lon="6.71805">
        <ele>403</ele>
        <time>2016-08-15T07:34:07.000Z</time>
      </trkpt>
      <trkpt lat="47.57452" lon="6.71801">
        <ele>403</ele>
        <time>2016-08-15T07:34:08.000Z</time>
      </trkpt>
      <trkpt lat="47.57453" lon="6.71797">
        <ele>403</ele>
        <time>2016-08-15T07:34:09.000Z</time>
      </trkpt>
      <trkpt lat="47.57453" lon="6.71793">
        <ele>403</ele>
        <time>2016-08-15T07:34:10.000Z</time>
      </trkpt>
      <trkpt lat="47.57454" lon="6.71789">
        <ele>403</ele>
        <time>2016-08-15T07:34:11.000Z</time>
      </trkpt>
      <trkpt lat="47.57455" lon="6.71785">
        <ele>403</ele>
        <time>2016-08-15T07:34:12.000Z</time>
      </trkpt>
      <trkpt lat="47.57456" lon="6.71781">
        <ele>404</ele>
        <time>2016-08-15T07:34:13.000Z</time>
      </trkpt>
      <trkpt lat="47.57456" lon="6.71778">
        <ele>404</ele>
        <time>2016-08-15T07:34:14.000Z</time>
      </trkpt>
      <trkpt lat="47.57457" lon="6.71774">
        <ele>404</ele>
        <time>2016-08-15T07:34:15.000Z</time>
      </trkpt>
      <trkpt lat="47.57458" lon="6.71771">
        <ele>404</ele>
        <time>2016-08-15T07:34:16.000Z</time>
      </trkpt>
      <trkpt lat="47.5746" lon="6.71767">
        <ele>404</ele>
        <time>2016-08-15T07:34:17.000Z</time>
      </trkpt>
      <trkpt lat="47.57461" lon="6.71763">
        <ele>405</ele>
        <time>2016-08-15T07:34:18.000Z</time>
      </trkpt>
      <trkpt lat="47.57463" lon="6.71759">
        <ele>405</ele>
        <time>2016-08-15T07:34:19.000Z</time>
      </trkpt>
      <trkpt lat="47.57464" lon="6.71756">
        <ele>405</ele>
        <time>2016-08-15T07:34:20.000Z</time>
      </trkpt>
      <trkpt lat="47.57465" lon="6.71752">
        <ele>405</ele>
        <time>2016-08-15T07:34:21.000Z</time>
      </trkpt>
      <trkpt lat="47.57467" lon="6.71748">
        <ele>409</ele>
        <time>2016-08-15T07:34:22.000Z</time>
      </trkpt>
      <trkpt lat="47.57468" lon="6.71745">
        <ele>409</ele>
        <time>2016-08-15T07:34:23.000Z</time>
      </trkpt>
      <trkpt lat="47.5747" lon="6.71742">
        <ele>409</ele>
        <time>2016-08-15T07:34:24.000Z</time>
      </trkpt>
      <trkpt lat="47.57472" lon="6.71739">
        <ele>409</ele>
        <time>2016-08-15T07:34:25.000Z</time>
      </trkpt>
      <trkpt lat="47.57473" lon="6.71736">
        <ele>409</ele>
        <time>2016-08-15T07:34:26.000Z</time>
      </trkpt>
      <trkpt lat="47.57476" lon="6.71731">
        <ele>410</ele>
        <time>2016-08-15T07:34:28.000Z</time>
      </trkpt>
      <trkpt lat="47.57477" lon="6.71729">
        <ele>410</ele>
        <time>2016-08-15T07:34:29.000Z</time>
      </trkpt>
      <trkpt lat="47.57479" lon="6.71726">
        <ele>410</ele>
        <time>2016-08-15T07:34:31.000Z</time>
      </trkpt>
      <trkpt lat="47.5748" lon="6.71724">
        <ele>410</ele>
        <time>2016-08-15T07:34:32.000Z</time>
      </trkpt>
      <trkpt lat="47.57483" lon="6.7172">
        <ele>410</ele>
        <time>2016-08-15T07:34:34.000Z</time>
      </trkpt>
      <trkpt lat="47.57484" lon="6.71717">
        <ele>410</ele>
        <time>2016-08-15T07:34:35.000Z</time>
      </trkpt>
      <trkpt lat="47.57486" lon="6.71714">
        <ele>411</ele>
        <time>2016-08-15T07:34:36.000Z</time>
      </trkpt>
      <trkpt lat="47.57487" lon="6.71712">
        <ele>411</ele>
        <time>2016-08-15T07:34:37.000Z</time>
      </trkpt>
      <trkpt lat="47.57489" lon="6.71706">
        <ele>411</ele>
        <time>2016-08-15T07:34:39.000Z</time>
      </trkpt>
      <trkpt lat="47.5749" lon="6.71703">
        <ele>411</ele>
        <time>2016-08-15T07:34:40.000Z</time>
      </trkpt>
      <trkpt lat="47.57492" lon="6.71697">
        <ele>412</ele>
        <time>2016-08-15T07:34:42.000Z</time>
      </trkpt>
      <trkpt lat="47.57492" lon="6.71694">
        <ele>412</ele>
        <time>2016-08-15T07:34:43.000Z</time>
      </trkpt>
      <trkpt lat="47.57494" lon="6.71691">
        <ele>412</ele>
        <time>2016-08-15T07:34:44.000Z</time>
      </trkpt>
      <trkpt lat="47.57494" lon="6.71688">
        <ele>413</ele>
        <time>2016-08-15T07:34:45.000Z</time>
      </trkpt>
      <trkpt lat="47.57497" lon="6.71682">
        <ele>414</ele>
        <time>2016-08-15T07:34:48.000Z</time>
      </trkpt>
      <trkpt lat="47.57497" lon="6.71681">
        <ele>414</ele>
        <time>2016-08-15T07:34:49.000Z</time>
      </trkpt>
      <trkpt lat="47.57498" lon="6.71678">
        <ele>415</ele>
        <time>2016-08-15T07:34:50.000Z</time>
      </trkpt>
      <trkpt lat="47.57499" lon="6.71674">
        <ele>416</ele>
        <time>2016-08-15T07:34:51.000Z</time>
      </trkpt>
      <trkpt lat="47.57501" lon="6.7167">
        <ele>418</ele>
        <time>2016-08-15T07:34:52.000Z</time>
      </trkpt>
      <trkpt lat="47.57501" lon="6.71666">
        <ele>418</ele>
        <time>2016-08-15T07:34:53.000Z</time>
      </trkpt>
      <trkpt lat="47.57502" lon="6.71662">
        <ele>419</ele>
        <time>2016-08-15T07:34:54.000Z</time>
      </trkpt>
      <trkpt lat="47.57504" lon="6.71658">
        <ele>420</ele>
        <time>2016-08-15T07:34:55.000Z</time>
      </trkpt>
      <trkpt lat="47.57504" lon="6.71655">
        <ele>420</ele>
        <time>2016-08-15T07:34:56.000Z</time>
      </trkpt>
      <trkpt lat="47.57505" lon="6.71652">
        <ele>421</ele>
        <time>2016-08-15T07:34:57.000Z</time>
      </trkpt>
      <trkpt lat="47.57506" lon="6.71646">
        <ele>421</ele>
        <time>2016-08-15T07:34:59.000Z</time>
      </trkpt>
      <trkpt lat="47.57506" lon="6.71643">
        <ele>422</ele>
        <time>2016-08-15T07:35:00.000Z</time>
      </trkpt>
      <trkpt lat="47.57507" lon="6.7164">
        <ele>422</ele>
        <time>2016-08-15T07:35:01.000Z</time>
      </trkpt>
      <trkpt lat="47.57507" lon="6.71636">
        <ele>422</ele>
        <time>2016-08-15T07:35:02.000Z</time>
      </trkpt>
      <trkpt lat="47.57509" lon="6.7163">
        <ele>422</ele>
        <time>2016-08-15T07:35:04.000Z</time>
      </trkpt>
      <trkpt lat="47.5751" lon="6.71627">
        <ele>423</ele>
        <time>2016-08-15T07:35:05.000Z</time>
      </trkpt>
      <trkpt lat="47.5751" lon="6.71624">
        <ele>423</ele>
        <time>2016-08-15T07:35:06.000Z</time>
      </trkpt>
      <trkpt lat="47.57511" lon="6.71621">
        <ele>423</ele>
        <time>2016-08-15T07:35:07.000Z</time>
      </trkpt>
      <trkpt lat="47.57512" lon="6.71615">
        <ele>423</ele>
        <time>2016-08-15T07:35:09.000Z</time>
      </trkpt>
      <trkpt lat="47.57513" lon="6.71612">
        <ele>423</ele>
        <time>2016-08-15T07:35:10.000Z</time>
      </trkpt>
      <trkpt lat="47.57514" lon="6.71607">
        <ele>423</ele>
        <time>2016-08-15T07:35:12.000Z</time>
      </trkpt>
      <trkpt lat="47.57514" lon="6.71605">
        <ele>423</ele>
        <time>2016-08-15T07:35:13.000Z</time>
      </trkpt>
      <trkpt lat="47.57516" lon="6.71601">
        <ele>423</ele>
        <time>2016-08-15T07:35:15.000Z</time>
      </trkpt>
      <trkpt lat="47.57517" lon="6.71598">
        <ele>423</ele>
        <time>2016-08-15T07:35:16.000Z</time>
      </trkpt>
      <trkpt lat="47.5752" lon="6.71594">
        <ele>423</ele>
        <time>2016-08-15T07:35:18.000Z</time>
      </trkpt>
      <trkpt lat="47.5752" lon="6.71592">
        <ele>423</ele>
        <time>2016-08-15T07:35:19.000Z</time>
      </trkpt>
      <trkpt lat="47.57521" lon="6.71587">
        <ele>423</ele>
        <time>2016-08-15T07:35:22.000Z</time>
      </trkpt>
      <trkpt lat="47.57521" lon="6.71585">
        <ele>423</ele>
        <time>2016-08-15T07:35:23.000Z</time>
      </trkpt>
      <trkpt lat="47.57522" lon="6.7158">
        <ele>425</ele>
        <time>2016-08-15T07:35:25.000Z</time>
      </trkpt>
      <trkpt lat="47.57523" lon="6.71577">
        <ele>425</ele>
        <time>2016-08-15T07:35:26.000Z</time>
      </trkpt>
      <trkpt lat="47.57524" lon="6.71572">
        <ele>426</ele>
        <time>2016-08-15T07:35:28.000Z</time>
      </trkpt>
      <trkpt lat="47.57525" lon="6.71569">
        <ele>426</ele>
        <time>2016-08-15T07:35:29.000Z</time>
      </trkpt>
      <trkpt lat="47.57526" lon="6.71565">
        <ele>426</ele>
        <time>2016-08-15T07:35:30.000Z</time>
      </trkpt>
      <trkpt lat="47.57528" lon="6.71562">
        <ele>426</ele>
        <time>2016-08-15T07:35:31.000Z</time>
      </trkpt>
      <trkpt lat="47.57529" lon="6.71559">
        <ele>426</ele>
        <time>2016-08-15T07:35:32.000Z</time>
      </trkpt>
      <trkpt lat="47.5753" lon="6.71556">
        <ele>426</ele>
        <time>2016-08-15T07:35:33.000Z</time>
      </trkpt>
      <trkpt lat="47.57531" lon="6.7155">
        <ele>427</ele>
        <time>2016-08-15T07:35:35.000Z</time>
      </trkpt>
      <trkpt lat="47.57532" lon="6.71548">
        <ele>427</ele>
        <time>2016-08-15T07:35:36.000Z</time>
      </trkpt>
      <trkpt lat="47.57532" lon="6.71543">
        <ele>427</ele>
        <time>2016-08-15T07:35:39.000Z</time>
      </trkpt>
      <trkpt lat="47.57533" lon="6.71542">
        <ele>427</ele>
        <time>2016-08-15T07:35:40.000Z</time>
      </trkpt>
      <trkpt lat="47.57535" lon="6.71538">
        <ele>427</ele>
        <time>2016-08-15T07:35:42.000Z</time>
      </trkpt>
      <trkpt lat="47.57537" lon="6.71537">
        <ele>427</ele>
        <time>2016-08-15T07:35:43.000Z</time>
      </trkpt>
      <trkpt lat="47.57541" lon="6.71534">
        <ele>427</ele>
        <time>2016-08-15T07:35:45.000Z</time>
      </trkpt>
      <trkpt lat="47.57543" lon="6.71532">
        <ele>427</ele>
        <time>2016-08-15T07:35:46.000Z</time>
      </trkpt>
      <trkpt lat="47.57546" lon="6.7153">
        <ele>428</ele>
        <time>2016-08-15T07:35:49.000Z</time>
      </trkpt>
      <trkpt lat="47.57547" lon="6.71529">
        <ele>428</ele>
        <time>2016-08-15T07:35:50.000Z</time>
      </trkpt>
      <trkpt lat="47.5755" lon="6.71526">
        <ele>428</ele>
        <time>2016-08-15T07:35:55.000Z</time>
      </trkpt>
      <trkpt lat="47.57551" lon="6.71526">
        <ele>428</ele>
        <time>2016-08-15T07:35:56.000Z</time>
      </trkpt>
      <trkpt lat="47.57554" lon="6.71523">
        <ele>428</ele>
        <time>2016-08-15T07:36:05.000Z</time>
      </trkpt>
      <trkpt lat="47.57555" lon="6.71522">
        <ele>428</ele>
        <time>2016-08-15T07:36:06.000Z</time>
      </trkpt>
      <trkpt lat="47.57558" lon="6.71519">
        <ele>428</ele>
        <time>2016-08-15T07:36:10.000Z</time>
      </trkpt>
      <trkpt lat="47.57559" lon="6.71519">
        <ele>428</ele>
        <time>2016-08-15T07:36:11.000Z</time>
      </trkpt>
      <trkpt lat="47.57563" lon="6.71517">
        <ele>429</ele>
        <time>2016-08-15T07:36:17.000Z</time>
      </trkpt>
      <trkpt lat="47.57564" lon="6.71517">
        <ele>429</ele>
        <time>2016-08-15T07:36:18.000Z</time>
      </trkpt>
      <trkpt lat="47.57568" lon="6.71517">
        <ele>429</ele>
        <time>2016-08-15T07:36:22.000Z</time>
      </trkpt>
      <trkpt lat="47.57569" lon="6.71518">
        <ele>429</ele>
        <time>2016-08-15T07:36:23.000Z</time>
      </trkpt>
      <trkpt lat="47.57573" lon="6.71518">
        <ele>429</ele>
        <time>2016-08-15T07:36:27.000Z</time>
      </trkpt>
      <trkpt lat="47.57575" lon="6.71519">
        <ele>429</ele>
        <time>2016-08-15T07:36:28.000Z</time>
      </trkpt>
      <trkpt lat="47.57578" lon="6.71519">
        <ele>429</ele>
        <time>2016-08-15T07:36:31.000Z</time>
      </trkpt>
      <trkpt lat="47.57579" lon="6.71518">
        <ele>429</ele>
        <time>2016-08-15T07:36:32.000Z</time>
      </trkpt>
      <trkpt lat="47.57583" lon="6.71519">
        <ele>429</ele>
        <time>2016-08-15T07:36:35.000Z</time>
      </trkpt>
      <trkpt lat="47.57585" lon="6.71519">
        <ele>432</ele>
        <time>2016-08-15T07:36:36.000Z</time>
      </trkpt>
      <trkpt lat="47.57589" lon="6.7152">
        <ele>432</ele>
        <time>2016-08-15T07:36:39.000Z</time>
      </trkpt>
      <trkpt lat="47.5759" lon="6.7152">
        <ele>432</ele>
        <time>2016-08-15T07:36:40.000Z</time>
      </trkpt>
      <trkpt lat="47.57594" lon="6.71521">
        <ele>433</ele>
        <time>2016-08-15T07:36:43.000Z</time>
      </trkpt>
      <trkpt lat="47.57595" lon="6.71521">
        <ele>433</ele>
        <time>2016-08-15T07:36:44.000Z</time>
      </trkpt>
      <trkpt lat="47.57598" lon="6.71525">
        <ele>433</ele>
        <time>2016-08-15T07:36:47.000Z</time>
      </trkpt>
      <trkpt lat="47.57598" lon="6.71526">
        <ele>433</ele>
        <time>2016-08-15T07:36:48.000Z</time>
      </trkpt>
      <trkpt lat="47.57601" lon="6.7153">
        <ele>433</ele>
        <time>2016-08-15T07:36:51.000Z</time>
      </trkpt>
      <trkpt lat="47.57602" lon="6.7153">
        <ele>433</ele>
        <time>2016-08-15T07:36:52.000Z</time>
      </trkpt>
      <trkpt lat="47.57605" lon="6.71532">
        <ele>433</ele>
        <time>2016-08-15T07:36:55.000Z</time>
      </trkpt>
      <trkpt lat="47.57607" lon="6.71533">
        <ele>433</ele>
        <time>2016-08-15T07:36:56.000Z</time>
      </trkpt>
      <trkpt lat="47.5761" lon="6.71534">
        <ele>433</ele>
        <time>2016-08-15T07:36:58.000Z</time>
      </trkpt>
      <trkpt lat="47.57612" lon="6.71535">
        <ele>433</ele>
        <time>2016-08-15T07:36:59.000Z</time>
      </trkpt>
      <trkpt lat="47.57615" lon="6.71536">
        <ele>433</ele>
        <time>2016-08-15T07:37:01.000Z</time>
      </trkpt>
      <trkpt lat="47.57617" lon="6.71537">
        <ele>433</ele>
        <time>2016-08-15T07:37:02.000Z</time>
      </trkpt>
      <trkpt lat="47.5762" lon="6.71538">
        <ele>434</ele>
        <time>2016-08-15T07:37:04.000Z</time>
      </trkpt>
      <trkpt lat="47.57622" lon="6.71539">
        <ele>434</ele>
        <time>2016-08-15T07:37:05.000Z</time>
      </trkpt>
      <trkpt lat="47.57625" lon="6.7154">
        <ele>434</ele>
        <time>2016-08-15T07:37:07.000Z</time>
      </trkpt>
      <trkpt lat="47.57627" lon="6.7154">
        <ele>434</ele>
        <time>2016-08-15T07:37:08.000Z</time>
      </trkpt>
      <trkpt lat="47.57631" lon="6.71541">
        <ele>434</ele>
        <time>2016-08-15T07:37:10.000Z</time>
      </trkpt>
      <trkpt lat="47.57634" lon="6.71541">
        <ele>434</ele>
        <time>2016-08-15T07:37:11.000Z</time>
      </trkpt>
      <trkpt lat="47.57637" lon="6.71541">
        <ele>434</ele>
        <time>2016-08-15T07:37:12.000Z</time>
      </trkpt>
      <trkpt lat="47.5764" lon="6.71541">
        <ele>434</ele>
        <time>2016-08-15T07:37:13.000Z</time>
      </trkpt>
      <trkpt lat="47.57642" lon="6.7154">
        <ele>434</ele>
        <time>2016-08-15T07:37:14.000Z</time>
      </trkpt>
      <trkpt lat="47.57645" lon="6.7154">
        <ele>434</ele>
        <time>2016-08-15T07:37:15.000Z</time>
      </trkpt>
      <trkpt lat="47.57649" lon="6.7154">
        <ele>434</ele>
        <time>2016-08-15T07:37:17.000Z</time>
      </trkpt>
      <trkpt lat="47.57651" lon="6.71541">
        <ele>435</ele>
        <time>2016-08-15T07:37:18.000Z</time>
      </trkpt>
      <trkpt lat="47.57654" lon="6.71542">
        <ele>435</ele>
        <time>2016-08-15T07:37:20.000Z</time>
      </trkpt>
      <trkpt lat="47.57656" lon="6.71543">
        <ele>435</ele>
        <time>2016-08-15T07:37:21.000Z</time>
      </trkpt>
      <trkpt lat="47.57659" lon="6.71547">
        <ele>435</ele>
        <time>2016-08-15T07:37:25.000Z</time>
      </trkpt>
      <trkpt lat="47.5766" lon="6.71548">
        <ele>435</ele>
        <time>2016-08-15T07:37:26.000Z</time>
      </trkpt>
      <trkpt lat="47.57663" lon="6.71551">
        <ele>435</ele>
        <time>2016-08-15T07:37:28.000Z</time>
      </trkpt>
      <trkpt lat="47.57664" lon="6.71552">
        <ele>435</ele>
        <time>2016-08-15T07:37:29.000Z</time>
      </trkpt>
      <trkpt lat="47.57667" lon="6.71555">
        <ele>438</ele>
        <time>2016-08-15T07:37:31.000Z</time>
      </trkpt>
      <trkpt lat="47.57669" lon="6.71557">
        <ele>438</ele>
        <time>2016-08-15T07:37:32.000Z</time>
      </trkpt>
      <trkpt lat="47.57671" lon="6.71559">
        <ele>438</ele>
        <time>2016-08-15T07:37:33.000Z</time>
      </trkpt>
      <trkpt lat="47.57673" lon="6.71562">
        <ele>438</ele>
        <time>2016-08-15T07:37:34.000Z</time>
      </trkpt>
      <trkpt lat="47.57675" lon="6.71564">
        <ele>438</ele>
        <time>2016-08-15T07:37:35.000Z</time>
      </trkpt>
      <trkpt lat="47.57677" lon="6.71567">
        <ele>438</ele>
        <time>2016-08-15T07:37:36.000Z</time>
      </trkpt>
      <trkpt lat="47.57679" lon="6.71569">
        <ele>438</ele>
        <time>2016-08-15T07:37:37.000Z</time>
      </trkpt>
      <trkpt lat="47.5768" lon="6.71571">
        <ele>438</ele>
        <time>2016-08-15T07:37:38.000Z</time>
      </trkpt>
      <trkpt lat="47.57682" lon="6.71574">
        <ele>438</ele>
        <time>2016-08-15T07:37:39.000Z</time>
      </trkpt>
      <trkpt lat="47.57684" lon="6.71576">
        <ele>438</ele>
        <time>2016-08-15T07:37:40.000Z</time>
      </trkpt>
      <trkpt lat="47.57686" lon="6.71579">
        <ele>438</ele>
        <time>2016-08-15T07:37:41.000Z</time>
      </trkpt>
      <trkpt lat="47.57689" lon="6.71582">
        <ele>438</ele>
        <time>2016-08-15T07:37:42.000Z</time>
      </trkpt>
      <trkpt lat="47.57692" lon="6.71584">
        <ele>439</ele>
        <time>2016-08-15T07:37:43.000Z</time>
      </trkpt>
      <trkpt lat="47.57694" lon="6.71586">
        <ele>439</ele>
        <time>2016-08-15T07:37:44.000Z</time>
      </trkpt>
      <trkpt lat="47.57696" lon="6.71588">
        <ele>440</ele>
        <time>2016-08-15T07:37:45.000Z</time>
      </trkpt>
      <trkpt lat="47.57697" lon="6.7159">
        <ele>440</ele>
        <time>2016-08-15T07:37:46.000Z</time>
      </trkpt>
      <trkpt lat="47.577" lon="6.71595">
        <ele>440</ele>
        <time>2016-08-15T07:37:48.000Z</time>
      </trkpt>
      <trkpt lat="47.57702" lon="6.71597">
        <ele>440</ele>
        <time>2016-08-15T07:37:49.000Z</time>
      </trkpt>
      <trkpt lat="47.57703" lon="6.716">
        <ele>440</ele>
        <time>2016-08-15T07:37:50.000Z</time>
      </trkpt>
      <trkpt lat="47.57705" lon="6.71603">
        <ele>440</ele>
        <time>2016-08-15T07:37:51.000Z</time>
      </trkpt>
      <trkpt lat="47.57706" lon="6.71606">
        <ele>441</ele>
        <time>2016-08-15T07:37:52.000Z</time>
      </trkpt>
      <trkpt lat="47.57708" lon="6.71608">
        <ele>441</ele>
        <time>2016-08-15T07:37:53.000Z</time>
      </trkpt>
      <trkpt lat="47.57709" lon="6.71611">
        <ele>441</ele>
        <time>2016-08-15T07:37:54.000Z</time>
      </trkpt>
      <trkpt lat="47.5771" lon="6.71614">
        <ele>441</ele>
        <time>2016-08-15T07:37:55.000Z</time>
      </trkpt>
      <trkpt lat="47.57711" lon="6.71617">
        <ele>441</ele>
        <time>2016-08-15T07:37:56.000Z</time>
      </trkpt>
      <trkpt lat="47.57713" lon="6.7162">
        <ele>441</ele>
        <time>2016-08-15T07:37:57.000Z</time>
      </trkpt>
      <trkpt lat="47.57714" lon="6.71623">
        <ele>441</ele>
        <time>2016-08-15T07:37:58.000Z</time>
      </trkpt>
      <trkpt lat="47.57716" lon="6.71626">
        <ele>441</ele>
        <time>2016-08-15T07:37:59.000Z</time>
      </trkpt>
      <trkpt lat="47.57717" lon="6.71629">
        <ele>442</ele>
        <time>2016-08-15T07:38:00.000Z</time>
      </trkpt>
      <trkpt lat="47.57719" lon="6.71633">
        <ele>442</ele>
        <time>2016-08-15T07:38:01.000Z</time>
      </trkpt>
      <trkpt lat="47.5772" lon="6.71637">
        <ele>442</ele>
        <time>2016-08-15T07:38:02.000Z</time>
      </trkpt>
      <trkpt lat="47.57722" lon="6.71641">
        <ele>442</ele>
        <time>2016-08-15T07:38:03.000Z</time>
      </trkpt>
      <trkpt lat="47.57722" lon="6.71645">
        <ele>443</ele>
        <time>2016-08-15T07:38:04.000Z</time>
      </trkpt>
      <trkpt lat="47.57724" lon="6.71649">
        <ele>443</ele>
        <time>2016-08-15T07:38:05.000Z</time>
      </trkpt>
      <trkpt lat="47.57726" lon="6.71655">
        <ele>443</ele>
        <time>2016-08-15T07:38:06.000Z</time>
      </trkpt>
      <trkpt lat="47.57728" lon="6.71661">
        <ele>444</ele>
        <time>2016-08-15T07:38:07.000Z</time>
      </trkpt>
      <trkpt lat="47.5773" lon="6.71668">
        <ele>446</ele>
        <time>2016-08-15T07:38:08.000Z</time>
      </trkpt>
      <trkpt lat="47.57731" lon="6.71674">
        <ele>446</ele>
        <time>2016-08-15T07:38:09.000Z</time>
      </trkpt>
      <trkpt lat="47.57733" lon="6.7168">
        <ele>446</ele>
        <time>2016-08-15T07:38:10.000Z</time>
      </trkpt>
      <trkpt lat="47.57734" lon="6.71685">
        <ele>446</ele>
        <time>2016-08-15T07:38:11.000Z</time>
      </trkpt>
      <trkpt lat="47.57735" lon="6.71689">
        <ele>446</ele>
        <time>2016-08-15T07:38:12.000Z</time>
      </trkpt>
      <trkpt lat="47.57736" lon="6.71693">
        <ele>446</ele>
        <time>2016-08-15T07:38:13.000Z</time>
      </trkpt>
      <trkpt lat="47.57736" lon="6.71696">
        <ele>446</ele>
        <time>2016-08-15T07:38:14.000Z</time>
      </trkpt>
      <trkpt lat="47.57737" lon="6.71699">
        <ele>446</ele>
        <time>2016-08-15T07:38:15.000Z</time>
      </trkpt>
      <trkpt lat="47.57739" lon="6.71705">
        <ele>446</ele>
        <time>2016-08-15T07:38:17.000Z</time>
      </trkpt>
      <trkpt lat="47.5774" lon="6.71708">
        <ele>446</ele>
        <time>2016-08-15T07:38:18.000Z</time>
      </trkpt>
      <trkpt lat="47.57741" lon="6.71711">
        <ele>446</ele>
        <time>2016-08-15T07:38:19.000Z</time>
      </trkpt>
      <trkpt lat="47.57742" lon="6.71714">
        <ele>446</ele>
        <time>2016-08-15T07:38:20.000Z</time>
      </trkpt>
      <trkpt lat="47.57743" lon="6.71719">
        <ele>447</ele>
        <time>2016-08-15T07:38:22.000Z</time>
      </trkpt>
      <trkpt lat="47.57744" lon="6.71722">
        <ele>447</ele>
        <time>2016-08-15T07:38:23.000Z</time>
      </trkpt>
      <trkpt lat="47.57746" lon="6.71726">
        <ele>447</ele>
        <time>2016-08-15T07:38:25.000Z</time>
      </trkpt>
      <trkpt lat="47.57748" lon="6.71728">
        <ele>448</ele>
        <time>2016-08-15T07:38:26.000Z</time>
      </trkpt>
      <trkpt lat="47.57749" lon="6.7173">
        <ele>448</ele>
        <time>2016-08-15T07:38:27.000Z</time>
      </trkpt>
      <trkpt lat="47.57751" lon="6.71732">
        <ele>455</ele>
        <time>2016-08-15T07:38:28.000Z</time>
      </trkpt>
      <trkpt lat="47.57754" lon="6.71736">
        <ele>454</ele>
        <time>2016-08-15T07:38:30.000Z</time>
      </trkpt>
      <trkpt lat="47.57756" lon="6.71737">
        <ele>454</ele>
        <time>2016-08-15T07:38:31.000Z</time>
      </trkpt>
      <trkpt lat="47.5776" lon="6.7174">
        <ele>455</ele>
        <time>2016-08-15T07:38:33.000Z</time>
      </trkpt>
      <trkpt lat="47.57761" lon="6.71742">
        <ele>455</ele>
        <time>2016-08-15T07:38:34.000Z</time>
      </trkpt>
      <trkpt lat="47.57764" lon="6.71745">
        <ele>455</ele>
        <time>2016-08-15T07:38:36.000Z</time>
      </trkpt>
      <trkpt lat="47.57765" lon="6.71746">
        <ele>455</ele>
        <time>2016-08-15T07:38:37.000Z</time>
      </trkpt>
      <trkpt lat="47.57767" lon="6.7175">
        <ele>455</ele>
        <time>2016-08-15T07:38:39.000Z</time>
      </trkpt>
      <trkpt lat="47.57769" lon="6.71752">
        <ele>455</ele>
        <time>2016-08-15T07:38:40.000Z</time>
      </trkpt>
      <trkpt lat="47.57771" lon="6.71756">
        <ele>455</ele>
        <time>2016-08-15T07:38:42.000Z</time>
      </trkpt>
      <trkpt lat="47.57772" lon="6.71757">
        <ele>455</ele>
        <time>2016-08-15T07:38:43.000Z</time>
      </trkpt>
      <trkpt lat="47.57774" lon="6.71761">
        <ele>455</ele>
        <time>2016-08-15T07:38:45.000Z</time>
      </trkpt>
      <trkpt lat="47.57775" lon="6.71763">
        <ele>456</ele>
        <time>2016-08-15T07:38:46.000Z</time>
      </trkpt>
      <trkpt lat="47.57777" lon="6.71766">
        <ele>456</ele>
        <time>2016-08-15T07:38:47.000Z</time>
      </trkpt>
      <trkpt lat="47.57778" lon="6.71769">
        <ele>456</ele>
        <time>2016-08-15T07:38:48.000Z</time>
      </trkpt>
      <trkpt lat="47.57781" lon="6.71774">
        <ele>456</ele>
        <time>2016-08-15T07:38:50.000Z</time>
      </trkpt>
      <trkpt lat="47.57782" lon="6.71776">
        <ele>456</ele>
        <time>2016-08-15T07:38:51.000Z</time>
      </trkpt>
      <trkpt lat="47.57784" lon="6.71781">
        <ele>456</ele>
        <time>2016-08-15T07:38:53.000Z</time>
      </trkpt>
      <trkpt lat="47.57785" lon="6.71783">
        <ele>456</ele>
        <time>2016-08-15T07:38:54.000Z</time>
      </trkpt>
      <trkpt lat="47.57787" lon="6.71786">
        <ele>456</ele>
        <time>2016-08-15T07:38:56.000Z</time>
      </trkpt>
      <trkpt lat="47.57789" lon="6.71788">
        <ele>456</ele>
        <time>2016-08-15T07:38:57.000Z</time>
      </trkpt>
      <trkpt lat="47.57791" lon="6.71793">
        <ele>456</ele>
        <time>2016-08-15T07:38:59.000Z</time>
      </trkpt>
      <trkpt lat="47.57792" lon="6.71796">
        <ele>456</ele>
        <time>2016-08-15T07:39:00.000Z</time>
      </trkpt>
      <trkpt lat="47.57794" lon="6.71799">
        <ele>456</ele>
        <time>2016-08-15T07:39:02.000Z</time>
      </trkpt>
      <trkpt lat="47.57796" lon="6.718">
        <ele>456</ele>
        <time>2016-08-15T07:39:03.000Z</time>
      </trkpt>
      <trkpt lat="47.57798" lon="6.71805">
        <ele>456</ele>
        <time>2016-08-15T07:39:05.000Z</time>
      </trkpt>
      <trkpt lat="47.57799" lon="6.71807">
        <ele>456</ele>
        <time>2016-08-15T07:39:06.000Z</time>
      </trkpt>
      <trkpt lat="47.57802" lon="6.71811">
        <ele>457</ele>
        <time>2016-08-15T07:39:08.000Z</time>
      </trkpt>
      <trkpt lat="47.57803" lon="6.71812">
        <ele>457</ele>
        <time>2016-08-15T07:39:09.000Z</time>
      </trkpt>
      <trkpt lat="47.57806" lon="6.71816">
        <ele>457</ele>
        <time>2016-08-15T07:39:11.000Z</time>
      </trkpt>
      <trkpt lat="47.57807" lon="6.71818">
        <ele>457</ele>
        <time>2016-08-15T07:39:12.000Z</time>
      </trkpt>
      <trkpt lat="47.5781" lon="6.71822">
        <ele>457</ele>
        <time>2016-08-15T07:39:14.000Z</time>
      </trkpt>
      <trkpt lat="47.57811" lon="6.71825">
        <ele>457</ele>
        <time>2016-08-15T07:39:15.000Z</time>
      </trkpt>
      <trkpt lat="47.57813" lon="6.71827">
        <ele>457</ele>
        <time>2016-08-15T07:39:16.000Z</time>
      </trkpt>
      <trkpt lat="47.57814" lon="6.7183">
        <ele>457</ele>
        <time>2016-08-15T07:39:17.000Z</time>
      </trkpt>
      <trkpt lat="47.57815" lon="6.71833">
        <ele>457</ele>
        <time>2016-08-15T07:39:18.000Z</time>
      </trkpt>
      <trkpt lat="47.57817" lon="6.71836">
        <ele>456</ele>
        <time>2016-08-15T07:39:19.000Z</time>
      </trkpt>
      <trkpt lat="47.57818" lon="6.71839">
        <ele>456</ele>
        <time>2016-08-15T07:39:20.000Z</time>
      </trkpt>
      <trkpt lat="47.5782" lon="6.71843">
        <ele>456</ele>
        <time>2016-08-15T07:39:21.000Z</time>
      </trkpt>
      <trkpt lat="47.57822" lon="6.71846">
        <ele>456</ele>
        <time>2016-08-15T07:39:22.000Z</time>
      </trkpt>
      <trkpt lat="47.57823" lon="6.7185">
        <ele>456</ele>
        <time>2016-08-15T07:39:23.000Z</time>
      </trkpt>
      <trkpt lat="47.57825" lon="6.71853">
        <ele>456</ele>
        <time>2016-08-15T07:39:24.000Z</time>
      </trkpt>
      <trkpt lat="47.57826" lon="6.71856">
        <ele>456</ele>
        <time>2016-08-15T07:39:25.000Z</time>
      </trkpt>
      <trkpt lat="47.57828" lon="6.71859">
        <ele>456</ele>
        <time>2016-08-15T07:39:26.000Z</time>
      </trkpt>
      <trkpt lat="47.57829" lon="6.71863">
        <ele>456</ele>
        <time>2016-08-15T07:39:27.000Z</time>
      </trkpt>
      <trkpt lat="47.57831" lon="6.71866">
        <ele>456</ele>
        <time>2016-08-15T07:39:28.000Z</time>
      </trkpt>
      <trkpt lat="47.57833" lon="6.71868">
        <ele>456</ele>
        <time>2016-08-15T07:39:29.000Z</time>
      </trkpt>
      <trkpt lat="47.57835" lon="6.71871">
        <ele>463</ele>
        <time>2016-08-15T07:39:30.000Z</time>
      </trkpt>
      <trkpt lat="47.57836" lon="6.71874">
        <ele>463</ele>
        <time>2016-08-15T07:39:31.000Z</time>
      </trkpt>
      <trkpt lat="47.57838" lon="6.71877">
        <ele>463</ele>
        <time>2016-08-15T07:39:32.000Z</time>
      </trkpt>
      <trkpt lat="47.5784" lon="6.71881">
        <ele>463</ele>
        <time>2016-08-15T07:39:33.000Z</time>
      </trkpt>
      <trkpt lat="47.57842" lon="6.71885">
        <ele>463</ele>
        <time>2016-08-15T07:39:34.000Z</time>
      </trkpt>
      <trkpt lat="47.57845" lon="6.7189">
        <ele>463</ele>
        <time>2016-08-15T07:39:35.000Z</time>
      </trkpt>
      <trkpt lat="47.57847" lon="6.71895">
        <ele>463</ele>
        <time>2016-08-15T07:39:36.000Z</time>
      </trkpt>
      <trkpt lat="47.57849" lon="6.71899">
        <ele>463</ele>
        <time>2016-08-15T07:39:37.000Z</time>
      </trkpt>
      <trkpt lat="47.57852" lon="6.71903">
        <ele>463</ele>
        <time>2016-08-15T07:39:38.000Z</time>
      </trkpt>
      <trkpt lat="47.57854" lon="6.71907">
        <ele>463</ele>
        <time>2016-08-15T07:39:39.000Z</time>
      </trkpt>
      <trkpt lat="47.57857" lon="6.7191">
        <ele>463</ele>
        <time>2016-08-15T07:39:40.000Z</time>
      </trkpt>
      <trkpt lat="47.57859" lon="6.71913">
        <ele>464</ele>
        <time>2016-08-15T07:39:41.000Z</time>
      </trkpt>
      <trkpt lat="47.57861" lon="6.71915">
        <ele>464</ele>
        <time>2016-08-15T07:39:42.000Z</time>
      </trkpt>
      <trkpt lat="47.57863" lon="6.71916">
        <ele>464</ele>
        <time>2016-08-15T07:39:43.000Z</time>
      </trkpt>
      <trkpt lat="47.57867" lon="6.7192">
        <ele>464</ele>
        <time>2016-08-15T07:39:45.000Z</time>
      </trkpt>
      <trkpt lat="47.57868" lon="6.71921">
        <ele>464</ele>
        <time>2016-08-15T07:39:46.000Z</time>
      </trkpt>
      <trkpt lat="47.5787" lon="6.71924">
        <ele>464</ele>
        <time>2016-08-15T07:39:47.000Z</time>
      </trkpt>
      <trkpt lat="47.57872" lon="6.71927">
        <ele>465</ele>
        <time>2016-08-15T07:39:48.000Z</time>
      </trkpt>
      <trkpt lat="47.57876" lon="6.71931">
        <ele>465</ele>
        <time>2016-08-15T07:39:49.000Z</time>
      </trkpt>
      <trkpt lat="47.57879" lon="6.71934">
        <ele>465</ele>
        <time>2016-08-15T07:39:50.000Z</time>
      </trkpt>
      <trkpt lat="47.57883" lon="6.71937">
        <ele>465</ele>
        <time>2016-08-15T07:39:51.000Z</time>
      </trkpt>
      <trkpt lat="47.57886" lon="6.7194">
        <ele>466</ele>
        <time>2016-08-15T07:39:52.000Z</time>
      </trkpt>
      <trkpt lat="47.5789" lon="6.7194">
        <ele>466</ele>
        <time>2016-08-15T07:39:53.000Z</time>
      </trkpt>
      <trkpt lat="47.57893" lon="6.7194">
        <ele>466</ele>
        <time>2016-08-15T07:39:54.000Z</time>
      </trkpt>
      <trkpt lat="47.57897" lon="6.7194">
        <ele>466</ele>
        <time>2016-08-15T07:39:55.000Z</time>
      </trkpt>
      <trkpt lat="47.579" lon="6.7194">
        <ele>467</ele>
        <time>2016-08-15T07:39:56.000Z</time>
      </trkpt>
      <trkpt lat="47.57903" lon="6.7194">
        <ele>467</ele>
        <time>2016-08-15T07:39:57.000Z</time>
      </trkpt>
      <trkpt lat="47.57906" lon="6.71941">
        <ele>467</ele>
        <time>2016-08-15T07:39:58.000Z</time>
      </trkpt>
      <trkpt lat="47.57909" lon="6.71942">
        <ele>467</ele>
        <time>2016-08-15T07:40:00.000Z</time>
      </trkpt>
      <trkpt lat="47.57911" lon="6.71943">
        <ele>467</ele>
        <time>2016-08-15T07:40:01.000Z</time>
      </trkpt>
      <trkpt lat="47.57914" lon="6.71943">
        <ele>467</ele>
        <time>2016-08-15T07:40:03.000Z</time>
      </trkpt>
      <trkpt lat="47.57916" lon="6.71943">
        <ele>467</ele>
        <time>2016-08-15T07:40:04.000Z</time>
      </trkpt>
      <trkpt lat="47.5792" lon="6.71942">
        <ele>474</ele>
        <time>2016-08-15T07:40:07.000Z</time>
      </trkpt>
      <trkpt lat="47.57921" lon="6.71942">
        <ele>474</ele>
        <time>2016-08-15T07:40:08.000Z</time>
      </trkpt>
      <trkpt lat="47.57924" lon="6.71941">
        <ele>474</ele>
        <time>2016-08-15T07:40:13.000Z</time>
      </trkpt>
      <trkpt lat="47.57925" lon="6.71941">
        <ele>474</ele>
        <time>2016-08-15T07:40:14.000Z</time>
      </trkpt>
      <trkpt lat="47.57929" lon="6.71938">
        <ele>474</ele>
        <time>2016-08-15T07:40:18.000Z</time>
      </trkpt>
      <trkpt lat="47.5793" lon="6.71937">
        <ele>474</ele>
        <time>2016-08-15T07:40:19.000Z</time>
      </trkpt>
      <trkpt lat="47.57933" lon="6.71934">
        <ele>474</ele>
        <time>2016-08-15T07:40:21.000Z</time>
      </trkpt>
      <trkpt lat="47.57935" lon="6.71931">
        <ele>474</ele>
        <time>2016-08-15T07:40:22.000Z</time>
      </trkpt>
      <trkpt lat="47.57937" lon="6.71929">
        <ele>475</ele>
        <time>2016-08-15T07:40:23.000Z</time>
      </trkpt>
      <trkpt lat="47.57939" lon="6.71926">
        <ele>475</ele>
        <time>2016-08-15T07:40:24.000Z</time>
      </trkpt>
      <trkpt lat="47.57942" lon="6.71924">
        <ele>475</ele>
        <time>2016-08-15T07:40:26.000Z</time>
      </trkpt>
      <trkpt lat="47.57944" lon="6.71924">
        <ele>475</ele>
        <time>2016-08-15T07:40:27.000Z</time>
      </trkpt>
      <trkpt lat="47.57946" lon="6.71923">
        <ele>475</ele>
        <time>2016-08-15T07:40:28.000Z</time>
      </trkpt>
      <trkpt lat="47.57949" lon="6.71922">
        <ele>476</ele>
        <time>2016-08-15T07:40:29.000Z</time>
      </trkpt>
      <trkpt lat="47.57952" lon="6.7192">
        <ele>476</ele>
        <time>2016-08-15T07:40:31.000Z</time>
      </trkpt>
      <trkpt lat="47.57953" lon="6.71919">
        <ele>476</ele>
        <time>2016-08-15T07:40:32.000Z</time>
      </trkpt>
      <trkpt lat="47.57956" lon="6.71915">
        <ele>477</ele>
        <time>2016-08-15T07:40:34.000Z</time>
      </trkpt>
      <trkpt lat="47.57957" lon="6.71914">
        <ele>477</ele>
        <time>2016-08-15T07:40:35.000Z</time>
      </trkpt>
      <trkpt lat="47.5796" lon="6.7191">
        <ele>477</ele>
        <time>2016-08-15T07:40:37.000Z</time>
      </trkpt>
      <trkpt lat="47.57962" lon="6.71909">
        <ele>477</ele>
        <time>2016-08-15T07:40:38.000Z</time>
      </trkpt>
      <trkpt lat="47.57965" lon="6.71905">
        <ele>478</ele>
        <time>2016-08-15T07:40:40.000Z</time>
      </trkpt>
      <trkpt lat="47.57967" lon="6.71903">
        <ele>478</ele>
        <time>2016-08-15T07:40:41.000Z</time>
      </trkpt>
      <trkpt lat="47.5797" lon="6.71901">
        <ele>478</ele>
        <time>2016-08-15T07:40:43.000Z</time>
      </trkpt>
      <trkpt lat="47.57972" lon="6.71899">
        <ele>478</ele>
        <time>2016-08-15T07:40:44.000Z</time>
      </trkpt>
      <trkpt lat="47.57975" lon="6.71896">
        <ele>478</ele>
        <time>2016-08-15T07:40:46.000Z</time>
      </trkpt>
      <trkpt lat="47.57977" lon="6.71895">
        <ele>478</ele>
        <time>2016-08-15T07:40:47.000Z</time>
      </trkpt>
      <trkpt lat="47.5798" lon="6.71892">
        <ele>479</ele>
        <time>2016-08-15T07:40:49.000Z</time>
      </trkpt>
      <trkpt lat="47.57981" lon="6.71891">
        <ele>479</ele>
        <time>2016-08-15T07:40:50.000Z</time>
      </trkpt>
      <trkpt lat="47.57985" lon="6.71888">
        <ele>479</ele>
        <time>2016-08-15T07:40:52.000Z</time>
      </trkpt>
      <trkpt lat="47.57986" lon="6.71887">
        <ele>479</ele>
        <time>2016-08-15T07:40:53.000Z</time>
      </trkpt>
      <trkpt lat="47.5799" lon="6.71884">
        <ele>479</ele>
        <time>2016-08-15T07:40:55.000Z</time>
      </trkpt>
      <trkpt lat="47.57992" lon="6.71883">
        <ele>479</ele>
        <time>2016-08-15T07:40:56.000Z</time>
      </trkpt>
      <trkpt lat="47.57995" lon="6.71879">
        <ele>479</ele>
        <time>2016-08-15T07:40:58.000Z</time>
      </trkpt>
      <trkpt lat="47.57996" lon="6.71878">
        <ele>479</ele>
        <time>2016-08-15T07:40:59.000Z</time>
      </trkpt>
      <trkpt lat="47.57999" lon="6.71874">
        <ele>479</ele>
        <time>2016-08-15T07:41:02.000Z</time>
      </trkpt>
      <trkpt lat="47.58001" lon="6.71872">
        <ele>486</ele>
        <time>2016-08-15T07:41:03.000Z</time>
      </trkpt>
      <trkpt lat="47.58003" lon="6.71869">
        <ele>486</ele>
        <time>2016-08-15T07:41:05.000Z</time>
      </trkpt>
      <trkpt lat="47.58004" lon="6.71868">
        <ele>486</ele>
        <time>2016-08-15T07:41:06.000Z</time>
      </trkpt>
      <trkpt lat="47.58008" lon="6.71866">
        <ele>486</ele>
        <time>2016-08-15T07:41:10.000Z</time>
      </trkpt>
      <trkpt lat="47.58009" lon="6.71865">
        <ele>486</ele>
        <time>2016-08-15T07:41:11.000Z</time>
      </trkpt>
      <trkpt lat="47.58012" lon="6.71862">
        <ele>486</ele>
        <time>2016-08-15T07:41:15.000Z</time>
      </trkpt>
      <trkpt lat="47.58013" lon="6.71862">
        <ele>487</ele>
        <time>2016-08-15T07:41:16.000Z</time>
      </trkpt>
      <trkpt lat="47.58016" lon="6.7186">
        <ele>487</ele>
        <time>2016-08-15T07:41:20.000Z</time>
      </trkpt>
      <trkpt lat="47.58017" lon="6.71859">
        <ele>487</ele>
        <time>2016-08-15T07:41:21.000Z</time>
      </trkpt>
      <trkpt lat="47.5802" lon="6.71856">
        <ele>487</ele>
        <time>2016-08-15T07:41:23.000Z</time>
      </trkpt>
      <trkpt lat="47.58022" lon="6.71854">
        <ele>487</ele>
        <time>2016-08-15T07:41:24.000Z</time>
      </trkpt>
      <trkpt lat="47.58025" lon="6.71851">
        <ele>487</ele>
        <time>2016-08-15T07:41:26.000Z</time>
      </trkpt>
      <trkpt lat="47.58026" lon="6.71849">
        <ele>487</ele>
        <time>2016-08-15T07:41:27.000Z</time>
      </trkpt>
      <trkpt lat="47.58029" lon="6.71846">
        <ele>487</ele>
        <time>2016-08-15T07:41:29.000Z</time>
      </trkpt>
      <trkpt lat="47.5803" lon="6.71844">
        <ele>487</ele>
        <time>2016-08-15T07:41:30.000Z</time>
      </trkpt>
      <trkpt lat="47.58032" lon="6.7184">
        <ele>488</ele>
        <time>2016-08-15T07:41:32.000Z</time>
      </trkpt>
      <trkpt lat="47.58034" lon="6.71838">
        <ele>488</ele>
        <time>2016-08-15T07:41:33.000Z</time>
      </trkpt>
      <trkpt lat="47.58036" lon="6.71835">
        <ele>488</ele>
        <time>2016-08-15T07:41:35.000Z</time>
      </trkpt>
      <trkpt lat="47.58037" lon="6.71834">
        <ele>488</ele>
        <time>2016-08-15T07:41:36.000Z</time>
      </trkpt>
      <trkpt lat="47.5804" lon="6.71831">
        <ele>487</ele>
        <time>2016-08-15T07:41:38.000Z</time>
      </trkpt>
      <trkpt lat="47.58042" lon="6.7183">
        <ele>488</ele>
        <time>2016-08-15T07:41:39.000Z</time>
      </trkpt>
      <trkpt lat="47.58044" lon="6.71827">
        <ele>488</ele>
        <time>2016-08-15T07:41:41.000Z</time>
      </trkpt>
      <trkpt lat="47.58046" lon="6.71825">
        <ele>488</ele>
        <time>2016-08-15T07:41:42.000Z</time>
      </trkpt>
      <trkpt lat="47.58049" lon="6.71822">
        <ele>488</ele>
        <time>2016-08-15T07:41:44.000Z</time>
      </trkpt>
      <trkpt lat="47.58052" lon="6.71821">
        <ele>489</ele>
        <time>2016-08-15T07:41:45.000Z</time>
      </trkpt>
      <trkpt lat="47.58054" lon="6.71819">
        <ele>489</ele>
        <time>2016-08-15T07:41:46.000Z</time>
      </trkpt>
      <trkpt lat="47.58057" lon="6.71817">
        <ele>489</ele>
        <time>2016-08-15T07:41:47.000Z</time>
      </trkpt>
      <trkpt lat="47.5806" lon="6.71815">
        <ele>490</ele>
        <time>2016-08-15T07:41:48.000Z</time>
      </trkpt>
      <trkpt lat="47.58063" lon="6.71813">
        <ele>490</ele>
        <time>2016-08-15T07:41:49.000Z</time>
      </trkpt>
      <trkpt lat="47.58066" lon="6.71811">
        <ele>490</ele>
        <time>2016-08-15T07:41:50.000Z</time>
      </trkpt>
      <trkpt lat="47.58068" lon="6.71809">
        <ele>490</ele>
        <time>2016-08-15T07:41:51.000Z</time>
      </trkpt>
      <trkpt lat="47.58071" lon="6.71808">
        <ele>490</ele>
        <time>2016-08-15T07:41:52.000Z</time>
      </trkpt>
      <trkpt lat="47.58073" lon="6.71806">
        <ele>490</ele>
        <time>2016-08-15T07:41:53.000Z</time>
      </trkpt>
      <trkpt lat="47.58076" lon="6.71805">
        <ele>490</ele>
        <time>2016-08-15T07:41:54.000Z</time>
      </trkpt>
      <trkpt lat="47.58079" lon="6.71803">
        <ele>490</ele>
        <time>2016-08-15T07:41:55.000Z</time>
      </trkpt>
      <trkpt lat="47.58082" lon="6.71801">
        <ele>490</ele>
        <time>2016-08-15T07:41:56.000Z</time>
      </trkpt>
      <trkpt lat="47.58085" lon="6.718">
        <ele>493</ele>
        <time>2016-08-15T07:41:57.000Z</time>
      </trkpt>
      <trkpt lat="47.58087" lon="6.71799">
        <ele>493</ele>
        <time>2016-08-15T07:41:58.000Z</time>
      </trkpt>
      <trkpt lat="47.58089" lon="6.71798">
        <ele>493</ele>
        <time>2016-08-15T07:41:59.000Z</time>
      </trkpt>
      <trkpt lat="47.58093" lon="6.71795">
        <ele>492</ele>
        <time>2016-08-15T07:42:01.000Z</time>
      </trkpt>
      <trkpt lat="47.58095" lon="6.71794">
        <ele>492</ele>
        <time>2016-08-15T07:42:02.000Z</time>
      </trkpt>
      <trkpt lat="47.58098" lon="6.71791">
        <ele>492</ele>
        <time>2016-08-15T07:42:04.000Z</time>
      </trkpt>
      <trkpt lat="47.581" lon="6.7179">
        <ele>492</ele>
        <time>2016-08-15T07:42:05.000Z</time>
      </trkpt>
      <trkpt lat="47.58103" lon="6.71786">
        <ele>492</ele>
        <time>2016-08-15T07:42:08.000Z</time>
      </trkpt>
      <trkpt lat="47.58104" lon="6.71785">
        <ele>492</ele>
        <time>2016-08-15T07:42:09.000Z</time>
      </trkpt>
      <trkpt lat="47.58105" lon="6.71781">
        <ele>491</ele>
        <time>2016-08-15T07:42:10.000Z</time>
      </trkpt>
      <trkpt lat="47.58106" lon="6.71778">
        <ele>491</ele>
        <time>2016-08-15T07:42:11.000Z</time>
      </trkpt>
      <trkpt lat="47.58109" lon="6.71775">
        <ele>491</ele>
        <time>2016-08-15T07:42:19.000Z</time>
      </trkpt>
      <trkpt lat="47.58109" lon="6.71773">
        <ele>491</ele>
        <time>2016-08-15T07:42:20.000Z</time>
      </trkpt>
      <trkpt lat="47.58108" lon="6.71766">
        <ele>491</ele>
        <time>2016-08-15T07:43:18.000Z</time>
      </trkpt>
      <trkpt lat="47.58108" lon="6.71766">
        <ele>491</ele>
        <time>2016-08-15T07:43:19.000Z</time>
      </trkpt>
      <trkpt lat="47.58112" lon="6.71766">
        <ele>491</ele>
        <time>2016-08-15T07:46:32.000Z</time>
      </trkpt>
      <trkpt lat="47.58114" lon="6.71765">
        <ele>491</ele>
        <time>2016-08-15T07:46:33.000Z</time>
      </trkpt>
      <trkpt lat="47.58117" lon="6.71766">
        <ele>491</ele>
        <time>2016-08-15T07:46:35.000Z</time>
      </trkpt>
      <trkpt lat="47.58118" lon="6.71766">
        <ele>490</ele>
        <time>2016-08-15T07:46:36.000Z</time>
      </trkpt>
      <trkpt lat="47.58122" lon="6.71768">
        <ele>490</ele>
        <time>2016-08-15T07:46:38.000Z</time>
      </trkpt>
      <trkpt lat="47.58123" lon="6.71769">
        <ele>490</ele>
        <time>2016-08-15T07:46:39.000Z</time>
      </trkpt>
      <trkpt lat="47.58126" lon="6.71773">
        <ele>490</ele>
        <time>2016-08-15T07:46:43.000Z</time>
      </trkpt>
      <trkpt lat="47.58127" lon="6.71775">
        <ele>490</ele>
        <time>2016-08-15T07:46:44.000Z</time>
      </trkpt>
      <trkpt lat="47.58129" lon="6.71779">
        <ele>490</ele>
        <time>2016-08-15T07:46:46.000Z</time>
      </trkpt>
      <trkpt lat="47.5813" lon="6.71781">
        <ele>490</ele>
        <time>2016-08-15T07:46:47.000Z</time>
      </trkpt>
      <trkpt lat="47.58133" lon="6.71783">
        <ele>490</ele>
        <time>2016-08-15T07:46:49.000Z</time>
      </trkpt>
      <trkpt lat="47.58135" lon="6.71783">
        <ele>490</ele>
        <time>2016-08-15T07:46:50.000Z</time>
      </trkpt>
      <trkpt lat="47.58138" lon="6.71786">
        <ele>490</ele>
        <time>2016-08-15T07:46:53.000Z</time>
      </trkpt>
      <trkpt lat="47.58139" lon="6.71788">
        <ele>491</ele>
        <time>2016-08-15T07:46:54.000Z</time>
      </trkpt>
      <trkpt lat="47.58142" lon="6.71792">
        <ele>491</ele>
        <time>2016-08-15T07:46:56.000Z</time>
      </trkpt>
      <trkpt lat="47.58143" lon="6.71794">
        <ele>491</ele>
        <time>2016-08-15T07:46:57.000Z</time>
      </trkpt>
      <trkpt lat="47.58145" lon="6.71797">
        <ele>491</ele>
        <time>2016-08-15T07:46:59.000Z</time>
      </trkpt>
      <trkpt lat="47.58147" lon="6.71799">
        <ele>491</ele>
        <time>2016-08-15T07:47:00.000Z</time>
      </trkpt>
      <trkpt lat="47.5815" lon="6.71802">
        <ele>491</ele>
        <time>2016-08-15T07:47:02.000Z</time>
      </trkpt>
      <trkpt lat="47.58151" lon="6.71803">
        <ele>491</ele>
        <time>2016-08-15T07:47:03.000Z</time>
      </trkpt>
      <trkpt lat="47.58153" lon="6.71807">
        <ele>492</ele>
        <time>2016-08-15T07:47:05.000Z</time>
      </trkpt>
      <trkpt lat="47.58155" lon="6.71809">
        <ele>492</ele>
        <time>2016-08-15T07:47:06.000Z</time>
      </trkpt>
      <trkpt lat="47.58156" lon="6.71814">
        <ele>492</ele>
        <time>2016-08-15T07:47:08.000Z</time>
      </trkpt>
      <trkpt lat="47.58157" lon="6.71818">
        <ele>493</ele>
        <time>2016-08-15T07:47:09.000Z</time>
      </trkpt>
      <trkpt lat="47.58159" lon="6.71821">
        <ele>493</ele>
        <time>2016-08-15T07:47:10.000Z</time>
      </trkpt>
      <trkpt lat="47.5816" lon="6.71825">
        <ele>493</ele>
        <time>2016-08-15T07:47:11.000Z</time>
      </trkpt>
      <trkpt lat="47.58161" lon="6.71828">
        <ele>494</ele>
        <time>2016-08-15T07:47:12.000Z</time>
      </trkpt>
      <trkpt lat="47.58162" lon="6.71831">
        <ele>494</ele>
        <time>2016-08-15T07:47:13.000Z</time>
      </trkpt>
      <trkpt lat="47.58164" lon="6.71836">
        <ele>495</ele>
        <time>2016-08-15T07:47:15.000Z</time>
      </trkpt>
      <trkpt lat="47.58165" lon="6.71839">
        <ele>495</ele>
        <time>2016-08-15T07:47:16.000Z</time>
      </trkpt>
      <trkpt lat="47.58167" lon="6.71844">
        <ele>493</ele>
        <time>2016-08-15T07:47:18.000Z</time>
      </trkpt>
      <trkpt lat="47.58169" lon="6.71847">
        <ele>492</ele>
        <time>2016-08-15T07:47:19.000Z</time>
      </trkpt>
      <trkpt lat="47.5817" lon="6.71851">
        <ele>492</ele>
        <time>2016-08-15T07:47:20.000Z</time>
      </trkpt>
      <trkpt lat="47.58172" lon="6.71854">
        <ele>492</ele>
        <time>2016-08-15T07:47:21.000Z</time>
      </trkpt>
      <trkpt lat="47.58173" lon="6.71857">
        <ele>491</ele>
        <time>2016-08-15T07:47:22.000Z</time>
      </trkpt>
      <trkpt lat="47.58175" lon="6.71859">
        <ele>491</ele>
        <time>2016-08-15T07:47:23.000Z</time>
      </trkpt>
      <trkpt lat="47.58178" lon="6.71863">
        <ele>491</ele>
        <time>2016-08-15T07:47:25.000Z</time>
      </trkpt>
      <trkpt lat="47.5818" lon="6.71866">
        <ele>491</ele>
        <time>2016-08-15T07:47:26.000Z</time>
      </trkpt>
      <trkpt lat="47.58182" lon="6.71868">
        <ele>491</ele>
        <time>2016-08-15T07:47:27.000Z</time>
      </trkpt>
      <trkpt lat="47.58185" lon="6.71871">
        <ele>491</ele>
        <time>2016-08-15T07:47:28.000Z</time>
      </trkpt>
      <trkpt lat="47.58187" lon="6.71873">
        <ele>491</ele>
        <time>2016-08-15T07:47:29.000Z</time>
      </trkpt>
      <trkpt lat="47.58188" lon="6.71876">
        <ele>491</ele>
        <time>2016-08-15T07:47:30.000Z</time>
      </trkpt>
      <trkpt lat="47.58191" lon="6.7188">
        <ele>491</ele>
        <time>2016-08-15T07:47:32.000Z</time>
      </trkpt>
      <trkpt lat="47.58192" lon="6.71882">
        <ele>491</ele>
        <time>2016-08-15T07:47:33.000Z</time>
      </trkpt>
      <trkpt lat="47.58193" lon="6.71885">
        <ele>491</ele>
        <time>2016-08-15T07:47:34.000Z</time>
      </trkpt>
      <trkpt lat="47.58195" lon="6.71889">
        <ele>491</ele>
        <time>2016-08-15T07:47:35.000Z</time>
      </trkpt>
      <trkpt lat="47.58197" lon="6.71894">
        <ele>491</ele>
        <time>2016-08-15T07:47:36.000Z</time>
      </trkpt>
      <trkpt lat="47.58198" lon="6.71899">
        <ele>491</ele>
        <time>2016-08-15T07:47:37.000Z</time>
      </trkpt>
      <trkpt lat="47.582" lon="6.71902">
        <ele>491</ele>
        <time>2016-08-15T07:47:38.000Z</time>
      </trkpt>
      <trkpt lat="47.58202" lon="6.71906">
        <ele>491</ele>
        <time>2016-08-15T07:47:39.000Z</time>
      </trkpt>
      <trkpt lat="47.58205" lon="6.71911">
        <ele>491</ele>
        <time>2016-08-15T07:47:41.000Z</time>
      </trkpt>
      <trkpt lat="47.58205" lon="6.71914">
        <ele>491</ele>
        <time>2016-08-15T07:47:42.000Z</time>
      </trkpt>
      <trkpt lat="47.58207" lon="6.71918">
        <ele>496</ele>
        <time>2016-08-15T07:47:43.000Z</time>
      </trkpt>
      <trkpt lat="47.58208" lon="6.71921">
        <ele>496</ele>
        <time>2016-08-15T07:47:44.000Z</time>
      </trkpt>
      <trkpt lat="47.5821" lon="6.71924">
        <ele>496</ele>
        <time>2016-08-15T07:47:45.000Z</time>
      </trkpt>
      <trkpt lat="47.58212" lon="6.71927">
        <ele>495</ele>
        <time>2016-08-15T07:47:46.000Z</time>
      </trkpt>
      <trkpt lat="47.58215" lon="6.71932">
        <ele>495</ele>
        <time>2016-08-15T07:47:48.000Z</time>
      </trkpt>
      <trkpt lat="47.58216" lon="6.71934">
        <ele>495</ele>
        <time>2016-08-15T07:47:49.000Z</time>
      </trkpt>
      <trkpt lat="47.58218" lon="6.71938">
        <ele>495</ele>
        <time>2016-08-15T07:47:51.000Z</time>
      </trkpt>
      <trkpt lat="47.58219" lon="6.7194">
        <ele>495</ele>
        <time>2016-08-15T07:47:52.000Z</time>
      </trkpt>
      <trkpt lat="47.5822" lon="6.71944">
        <ele>495</ele>
        <time>2016-08-15T07:47:54.000Z</time>
      </trkpt>
      <trkpt lat="47.58222" lon="6.71946">
        <ele>495</ele>
        <time>2016-08-15T07:47:55.000Z</time>
      </trkpt>
      <trkpt lat="47.58223" lon="6.71949">
        <ele>495</ele>
        <time>2016-08-15T07:47:56.000Z</time>
      </trkpt>
      <trkpt lat="47.58224" lon="6.71952">
        <ele>495</ele>
        <time>2016-08-15T07:47:57.000Z</time>
      </trkpt>
      <trkpt lat="47.58226" lon="6.71955">
        <ele>496</ele>
        <time>2016-08-15T07:47:58.000Z</time>
      </trkpt>
      <trkpt lat="47.58227" lon="6.71959">
        <ele>496</ele>
        <time>2016-08-15T07:47:59.000Z</time>
      </trkpt>
      <trkpt lat="47.58229" lon="6.71962">
        <ele>496</ele>
        <time>2016-08-15T07:48:00.000Z</time>
      </trkpt>
      <trkpt lat="47.58231" lon="6.71966">
        <ele>496</ele>
        <time>2016-08-15T07:48:01.000Z</time>
      </trkpt>
      <trkpt lat="47.58233" lon="6.71969">
        <ele>496</ele>
        <time>2016-08-15T07:48:02.000Z</time>
      </trkpt>
      <trkpt lat="47.58236" lon="6.71972">
        <ele>496</ele>
        <time>2016-08-15T07:48:03.000Z</time>
      </trkpt>
      <trkpt lat="47.58238" lon="6.71976">
        <ele>496</ele>
        <time>2016-08-15T07:48:04.000Z</time>
      </trkpt>
      <trkpt lat="47.5824" lon="6.71979">
        <ele>497</ele>
        <time>2016-08-15T07:48:05.000Z</time>
      </trkpt>
      <trkpt lat="47.58243" lon="6.71983">
        <ele>497</ele>
        <time>2016-08-15T07:48:06.000Z</time>
      </trkpt>
      <trkpt lat="47.58244" lon="6.71986">
        <ele>497</ele>
        <time>2016-08-15T07:48:07.000Z</time>
      </trkpt>
      <trkpt lat="47.58246" lon="6.71989">
        <ele>497</ele>
        <time>2016-08-15T07:48:08.000Z</time>
      </trkpt>
      <trkpt lat="47.58247" lon="6.71992">
        <ele>497</ele>
        <time>2016-08-15T07:48:09.000Z</time>
      </trkpt>
      <trkpt lat="47.58249" lon="6.71994">
        <ele>498</ele>
        <time>2016-08-15T07:48:10.000Z</time>
      </trkpt>
      <trkpt lat="47.58251" lon="6.71996">
        <ele>495</ele>
        <time>2016-08-15T07:48:11.000Z</time>
      </trkpt>
      <trkpt lat="47.58254" lon="6.71998">
        <ele>494</ele>
        <time>2016-08-15T07:48:12.000Z</time>
      </trkpt>
      <trkpt lat="47.58258" lon="6.71999">
        <ele>493</ele>
        <time>2016-08-15T07:48:13.000Z</time>
      </trkpt>
      <trkpt lat="47.58261" lon="6.72">
        <ele>491</ele>
        <time>2016-08-15T07:48:14.000Z</time>
      </trkpt>
      <trkpt lat="47.58264" lon="6.72002">
        <ele>492</ele>
        <time>2016-08-15T07:48:15.000Z</time>
      </trkpt>
      <trkpt lat="47.58267" lon="6.72005">
        <ele>491</ele>
        <time>2016-08-15T07:48:16.000Z</time>
      </trkpt>
      <trkpt lat="47.5827" lon="6.72007">
        <ele>490</ele>
        <time>2016-08-15T07:48:17.000Z</time>
      </trkpt>
      <trkpt lat="47.58273" lon="6.7201">
        <ele>489</ele>
        <time>2016-08-15T07:48:18.000Z</time>
      </trkpt>
      <trkpt lat="47.58276" lon="6.72013">
        <ele>489</ele>
        <time>2016-08-15T07:48:19.000Z</time>
      </trkpt>
      <trkpt lat="47.58279" lon="6.72017">
        <ele>488</ele>
        <time>2016-08-15T07:48:20.000Z</time>
      </trkpt>
      <trkpt lat="47.58281" lon="6.72022">
        <ele>487</ele>
        <time>2016-08-15T07:48:21.000Z</time>
      </trkpt>
      <trkpt lat="47.58282" lon="6.72027">
        <ele>487</ele>
        <time>2016-08-15T07:48:22.000Z</time>
      </trkpt>
      <trkpt lat="47.58283" lon="6.72033">
        <ele>487</ele>
        <time>2016-08-15T07:48:23.000Z</time>
      </trkpt>
      <trkpt lat="47.58284" lon="6.72039">
        <ele>487</ele>
        <time>2016-08-15T07:48:24.000Z</time>
      </trkpt>
      <trkpt lat="47.58285" lon="6.72045">
        <ele>487</ele>
        <time>2016-08-15T07:48:25.000Z</time>
      </trkpt>
      <trkpt lat="47.58286" lon="6.72052">
        <ele>487</ele>
        <time>2016-08-15T07:48:26.000Z</time>
      </trkpt>
      <trkpt lat="47.58287" lon="6.7206">
        <ele>487</ele>
        <time>2016-08-15T07:48:27.000Z</time>
      </trkpt>
      <trkpt lat="47.58287" lon="6.72068">
        <ele>487</ele>
        <time>2016-08-15T07:48:28.000Z</time>
      </trkpt>
      <trkpt lat="47.58288" lon="6.72076">
        <ele>488</ele>
        <time>2016-08-15T07:48:29.000Z</time>
      </trkpt>
      <trkpt lat="47.58289" lon="6.72084">
        <ele>488</ele>
        <time>2016-08-15T07:48:30.000Z</time>
      </trkpt>
      <trkpt lat="47.5829" lon="6.72092">
        <ele>488</ele>
        <time>2016-08-15T07:48:31.000Z</time>
      </trkpt>
      <trkpt lat="47.58291" lon="6.721">
        <ele>488</ele>
        <time>2016-08-15T07:48:32.000Z</time>
      </trkpt>
      <trkpt lat="47.58294" lon="6.72108">
        <ele>487</ele>
        <time>2016-08-15T07:48:33.000Z</time>
      </trkpt>
      <trkpt lat="47.58296" lon="6.72117">
        <ele>487</ele>
        <time>2016-08-15T07:48:34.000Z</time>
      </trkpt>
      <trkpt lat="47.58299" lon="6.72127">
        <ele>487</ele>
        <time>2016-08-15T07:48:35.000Z</time>
      </trkpt>
      <trkpt lat="47.58302" lon="6.72136">
        <ele>487</ele>
        <time>2016-08-15T07:48:36.000Z</time>
      </trkpt>
      <trkpt lat="47.58305" lon="6.72146">
        <ele>486</ele>
        <time>2016-08-15T07:48:37.000Z</time>
      </trkpt>
      <trkpt lat="47.58307" lon="6.72153">
        <ele>486</ele>
        <time>2016-08-15T07:48:38.000Z</time>
      </trkpt>
      <trkpt lat="47.5831" lon="6.72161">
        <ele>486</ele>
        <time>2016-08-15T07:48:39.000Z</time>
      </trkpt>
      <trkpt lat="47.58313" lon="6.72167">
        <ele>484</ele>
        <time>2016-08-15T07:48:40.000Z</time>
      </trkpt>
      <trkpt lat="47.58315" lon="6.72173">
        <ele>484</ele>
        <time>2016-08-15T07:48:41.000Z</time>
      </trkpt>
      <trkpt lat="47.58317" lon="6.72179">
        <ele>484</ele>
        <time>2016-08-15T07:48:42.000Z</time>
      </trkpt>
      <trkpt lat="47.58319" lon="6.72185">
        <ele>484</ele>
        <time>2016-08-15T07:48:43.000Z</time>
      </trkpt>
      <trkpt lat="47.5832" lon="6.72192">
        <ele>483</ele>
        <time>2016-08-15T07:48:44.000Z</time>
      </trkpt>
      <trkpt lat="47.58322" lon="6.722">
        <ele>483</ele>
        <time>2016-08-15T07:48:45.000Z</time>
      </trkpt>
      <trkpt lat="47.58324" lon="6.72207">
        <ele>483</ele>
        <time>2016-08-15T07:48:46.000Z</time>
      </trkpt>
      <trkpt lat="47.58326" lon="6.72214">
        <ele>482</ele>
        <time>2016-08-15T07:48:47.000Z</time>
      </trkpt>
      <trkpt lat="47.58326" lon="6.72221">
        <ele>482</ele>
        <time>2016-08-15T07:48:48.000Z</time>
      </trkpt>
      <trkpt lat="47.58327" lon="6.72228">
        <ele>482</ele>
        <time>2016-08-15T07:48:49.000Z</time>
      </trkpt>
      <trkpt lat="47.58327" lon="6.72235">
        <ele>482</ele>
        <time>2016-08-15T07:48:50.000Z</time>
      </trkpt>
      <trkpt lat="47.58328" lon="6.72242">
        <ele>481</ele>
        <time>2016-08-15T07:48:51.000Z</time>
      </trkpt>
      <trkpt lat="47.58329" lon="6.7225">
        <ele>481</ele>
        <time>2016-08-15T07:48:52.000Z</time>
      </trkpt>
      <trkpt lat="47.58331" lon="6.72258">
        <ele>479</ele>
        <time>2016-08-15T07:48:53.000Z</time>
      </trkpt>
      <trkpt lat="47.58332" lon="6.72267">
        <ele>478</ele>
        <time>2016-08-15T07:48:54.000Z</time>
      </trkpt>
      <trkpt lat="47.58333" lon="6.72275">
        <ele>477</ele>
        <time>2016-08-15T07:48:55.000Z</time>
      </trkpt>
      <trkpt lat="47.58334" lon="6.72283">
        <ele>466</ele>
        <time>2016-08-15T07:48:56.000Z</time>
      </trkpt>
      <trkpt lat="47.58334" lon="6.72291">
        <ele>465</ele>
        <time>2016-08-15T07:48:57.000Z</time>
      </trkpt>
      <trkpt lat="47.58334" lon="6.723">
        <ele>464</ele>
        <time>2016-08-15T07:48:58.000Z</time>
      </trkpt>
      <trkpt lat="47.58333" lon="6.72309">
        <ele>475</ele>
        <time>2016-08-15T07:48:59.000Z</time>
      </trkpt>
      <trkpt lat="47.58332" lon="6.72317">
        <ele>474</ele>
        <time>2016-08-15T07:49:00.000Z</time>
      </trkpt>
      <trkpt lat="47.58331" lon="6.72324">
        <ele>473</ele>
        <time>2016-08-15T07:49:01.000Z</time>
      </trkpt>
      <trkpt lat="47.58329" lon="6.72329">
        <ele>473</ele>
        <time>2016-08-15T07:49:02.000Z</time>
      </trkpt>
      <trkpt lat="47.58326" lon="6.72334">
        <ele>471</ele>
        <time>2016-08-15T07:49:03.000Z</time>
      </trkpt>
      <trkpt lat="47.58323" lon="6.72338">
        <ele>471</ele>
        <time>2016-08-15T07:49:04.000Z</time>
      </trkpt>
      <trkpt lat="47.58318" lon="6.72341">
        <ele>471</ele>
        <time>2016-08-15T07:49:05.000Z</time>
      </trkpt>
      <trkpt lat="47.58314" lon="6.72344">
        <ele>471</ele>
        <time>2016-08-15T07:49:06.000Z</time>
      </trkpt>
      <trkpt lat="47.58309" lon="6.72347">
        <ele>470</ele>
        <time>2016-08-15T07:49:07.000Z</time>
      </trkpt>
      <trkpt lat="47.58306" lon="6.72352">
        <ele>470</ele>
        <time>2016-08-15T07:49:08.000Z</time>
      </trkpt>
      <trkpt lat="47.58304" lon="6.72357">
        <ele>470</ele>
        <time>2016-08-15T07:49:09.000Z</time>
      </trkpt>
      <trkpt lat="47.58303" lon="6.72362">
        <ele>470</ele>
        <time>2016-08-15T07:49:10.000Z</time>
      </trkpt>
      <trkpt lat="47.58302" lon="6.72368">
        <ele>470</ele>
        <time>2016-08-15T07:49:11.000Z</time>
      </trkpt>
      <trkpt lat="47.58302" lon="6.72375">
        <ele>469</ele>
        <time>2016-08-15T07:49:12.000Z</time>
      </trkpt>
      <trkpt lat="47.58303" lon="6.72383">
        <ele>469</ele>
        <time>2016-08-15T07:49:13.000Z</time>
      </trkpt>
      <trkpt lat="47.58303" lon="6.72392">
        <ele>469</ele>
        <time>2016-08-15T07:49:14.000Z</time>
      </trkpt>
      <trkpt lat="47.58305" lon="6.72402">
        <ele>469</ele>
        <time>2016-08-15T07:49:15.000Z</time>
      </trkpt>
      <trkpt lat="47.58312" lon="6.72428">
        <ele>466</ele>
        <time>2016-08-15T07:49:16.000Z</time>
      </trkpt>
      <trkpt lat="47.58313" lon="6.72436">
        <ele>466</ele>
        <time>2016-08-15T07:49:17.000Z</time>
      </trkpt>
      <trkpt lat="47.58315" lon="6.72446">
        <ele>466</ele>
        <time>2016-08-15T07:49:18.000Z</time>
      </trkpt>
      <trkpt lat="47.5832" lon="6.72464">
        <ele>465</ele>
        <time>2016-08-15T07:49:19.000Z</time>
      </trkpt>
      <trkpt lat="47.58324" lon="6.72481">
        <ele>465</ele>
        <time>2016-08-15T07:49:20.000Z</time>
      </trkpt>
      <trkpt lat="47.58323" lon="6.72488">
        <ele>464</ele>
        <time>2016-08-15T07:49:21.000Z</time>
      </trkpt>
      <trkpt lat="47.58321" lon="6.72494">
        <ele>464</ele>
        <time>2016-08-15T07:49:22.000Z</time>
      </trkpt>
      <trkpt lat="47.58321" lon="6.72504">
        <ele>462</ele>
        <time>2016-08-15T07:49:23.000Z</time>
      </trkpt>
      <trkpt lat="47.58323" lon="6.7251">
        <ele>462</ele>
        <time>2016-08-15T07:49:24.000Z</time>
      </trkpt>
      <trkpt lat="47.58324" lon="6.72519">
        <ele>462</ele>
        <time>2016-08-15T07:49:25.000Z</time>
      </trkpt>
      <trkpt lat="47.58323" lon="6.72524">
        <ele>462</ele>
        <time>2016-08-15T07:49:26.000Z</time>
      </trkpt>
      <trkpt lat="47.58322" lon="6.72529">
        <ele>461</ele>
        <time>2016-08-15T07:49:27.000Z</time>
      </trkpt>
      <trkpt lat="47.58323" lon="6.72537">
        <ele>461</ele>
        <time>2016-08-15T07:49:28.000Z</time>
      </trkpt>
      <trkpt lat="47.58324" lon="6.72545">
        <ele>461</ele>
        <time>2016-08-15T07:49:29.000Z</time>
      </trkpt>
      <trkpt lat="47.58325" lon="6.72556">
        <ele>460</ele>
        <time>2016-08-15T07:49:30.000Z</time>
      </trkpt>
      <trkpt lat="47.58326" lon="6.72564">
        <ele>459</ele>
        <time>2016-08-15T07:49:31.000Z</time>
      </trkpt>
      <trkpt lat="47.58329" lon="6.72581">
        <ele>458</ele>
        <time>2016-08-15T07:49:32.000Z</time>
      </trkpt>
      <trkpt lat="47.58329" lon="6.7259">
        <ele>456</ele>
        <time>2016-08-15T07:49:33.000Z</time>
      </trkpt>
      <trkpt lat="47.58328" lon="6.72601">
        <ele>455</ele>
        <time>2016-08-15T07:49:34.000Z</time>
      </trkpt>
      <trkpt lat="47.5833" lon="6.72614">
        <ele>455</ele>
        <time>2016-08-15T07:49:35.000Z</time>
      </trkpt>
      <trkpt lat="47.5833" lon="6.72623">
        <ele>454</ele>
        <time>2016-08-15T07:49:36.000Z</time>
      </trkpt>
      <trkpt lat="47.5833" lon="6.72628">
        <ele>454</ele>
        <time>2016-08-15T07:49:37.000Z</time>
      </trkpt>
      <trkpt lat="47.58333" lon="6.72641">
        <ele>453</ele>
        <time>2016-08-15T07:49:38.000Z</time>
      </trkpt>
      <trkpt lat="47.58332" lon="6.72654">
        <ele>452</ele>
        <time>2016-08-15T07:49:39.000Z</time>
      </trkpt>
      <trkpt lat="47.58332" lon="6.72667">
        <ele>450</ele>
        <time>2016-08-15T07:49:40.000Z</time>
      </trkpt>
      <trkpt lat="47.58331" lon="6.7268">
        <ele>448</ele>
        <time>2016-08-15T07:49:41.000Z</time>
      </trkpt>
      <trkpt lat="47.5833" lon="6.72685">
        <ele>447</ele>
        <time>2016-08-15T07:49:42.000Z</time>
      </trkpt>
      <trkpt lat="47.58331" lon="6.72696">
        <ele>446</ele>
        <time>2016-08-15T07:49:43.000Z</time>
      </trkpt>
      <trkpt lat="47.58334" lon="6.72711">
        <ele>434</ele>
        <time>2016-08-15T07:49:44.000Z</time>
      </trkpt>
      <trkpt lat="47.58334" lon="6.72726">
        <ele>435</ele>
        <time>2016-08-15T07:49:45.000Z</time>
      </trkpt>
      <trkpt lat="47.58334" lon="6.72738">
        <ele>436</ele>
        <time>2016-08-15T07:49:46.000Z</time>
      </trkpt>
      <trkpt lat="47.58336" lon="6.72748">
        <ele>439</ele>
        <time>2016-08-15T07:49:47.000Z</time>
      </trkpt>
      <trkpt lat="47.58335" lon="6.72762">
        <ele>434</ele>
        <time>2016-08-15T07:49:48.000Z</time>
      </trkpt>
      <trkpt lat="47.58333" lon="6.72774">
        <ele>437</ele>
        <time>2016-08-15T07:49:49.000Z</time>
      </trkpt>
      <trkpt lat="47.58331" lon="6.72784">
        <ele>437</ele>
        <time>2016-08-15T07:49:50.000Z</time>
      </trkpt>
      <trkpt lat="47.58329" lon="6.72791">
        <ele>436</ele>
        <time>2016-08-15T07:49:51.000Z</time>
      </trkpt>
      <trkpt lat="47.58328" lon="6.72802">
        <ele>435</ele>
        <time>2016-08-15T07:49:52.000Z</time>
      </trkpt>
      <trkpt lat="47.58326" lon="6.7281">
        <ele>435</ele>
        <time>2016-08-15T07:49:53.000Z</time>
      </trkpt>
      <trkpt lat="47.58324" lon="6.72816">
        <ele>435</ele>
        <time>2016-08-15T07:49:54.000Z</time>
      </trkpt>
      <trkpt lat="47.58326" lon="6.72829">
        <ele>434</ele>
        <time>2016-08-15T07:49:55.000Z</time>
      </trkpt>
      <trkpt lat="47.58328" lon="6.72841">
        <ele>431</ele>
        <time>2016-08-15T07:49:56.000Z</time>
      </trkpt>
      <trkpt lat="47.58327" lon="6.72851">
        <ele>429</ele>
        <time>2016-08-15T07:49:57.000Z</time>
      </trkpt>
      <trkpt lat="47.58326" lon="6.72857">
        <ele>428</ele>
        <time>2016-08-15T07:49:58.000Z</time>
      </trkpt>
      <trkpt lat="47.58325" lon="6.72864">
        <ele>427</ele>
        <time>2016-08-15T07:49:59.000Z</time>
      </trkpt>
      <trkpt lat="47.58325" lon="6.72877">
        <ele>425</ele>
        <time>2016-08-15T07:50:00.000Z</time>
      </trkpt>
      <trkpt lat="47.58322" lon="6.72885">
        <ele>425</ele>
        <time>2016-08-15T07:50:01.000Z</time>
      </trkpt>
      <trkpt lat="47.58319" lon="6.72892">
        <ele>424</ele>
        <time>2016-08-15T07:50:02.000Z</time>
      </trkpt>
      <trkpt lat="47.5832" lon="6.72904">
        <ele>423</ele>
        <time>2016-08-15T07:50:03.000Z</time>
      </trkpt>
      <trkpt lat="47.58322" lon="6.7292">
        <ele>418</ele>
        <time>2016-08-15T07:50:04.000Z</time>
      </trkpt>
      <trkpt lat="47.58322" lon="6.72931">
        <ele>416</ele>
        <time>2016-08-15T07:50:05.000Z</time>
      </trkpt>
      <trkpt lat="47.5832" lon="6.72939">
        <ele>416</ele>
        <time>2016-08-15T07:50:06.000Z</time>
      </trkpt>
      <trkpt lat="47.58318" lon="6.72951">
        <ele>414</ele>
        <time>2016-08-15T07:50:07.000Z</time>
      </trkpt>
      <trkpt lat="47.58316" lon="6.72959">
        <ele>414</ele>
        <time>2016-08-15T07:50:08.000Z</time>
      </trkpt>
      <trkpt lat="47.58316" lon="6.72968">
        <ele>413</ele>
        <time>2016-08-15T07:50:09.000Z</time>
      </trkpt>
      <trkpt lat="47.58316" lon="6.72974">
        <ele>413</ele>
        <time>2016-08-15T07:50:10.000Z</time>
      </trkpt>
      <trkpt lat="47.58315" lon="6.72979">
        <ele>413</ele>
        <time>2016-08-15T07:50:11.000Z</time>
      </trkpt>
      <trkpt lat="47.58315" lon="6.72985">
        <ele>412</ele>
        <time>2016-08-15T07:50:12.000Z</time>
      </trkpt>
      <trkpt lat="47.58316" lon="6.72992">
        <ele>412</ele>
        <time>2016-08-15T07:50:13.000Z</time>
      </trkpt>
      <trkpt lat="47.58317" lon="6.72999">
        <ele>412</ele>
        <time>2016-08-15T07:50:14.000Z</time>
      </trkpt>
      <trkpt lat="47.58319" lon="6.73008">
        <ele>408</ele>
        <time>2016-08-15T07:50:15.000Z</time>
      </trkpt>
      <trkpt lat="47.58326" lon="6.73035">
        <ele>407</ele>
        <time>2016-08-15T07:50:16.000Z</time>
      </trkpt>
      <trkpt lat="47.58327" lon="6.73048">
        <ele>406</ele>
        <time>2016-08-15T07:50:17.000Z</time>
      </trkpt>
      <trkpt lat="47.58326" lon="6.73058">
        <ele>406</ele>
        <time>2016-08-15T07:50:18.000Z</time>
      </trkpt>
      <trkpt lat="47.58326" lon="6.73066">
        <ele>406</ele>
        <time>2016-08-15T07:50:19.000Z</time>
      </trkpt>
      <trkpt lat="47.58325" lon="6.7307">
        <ele>406</ele>
        <time>2016-08-15T07:50:20.000Z</time>
      </trkpt>
      <trkpt lat="47.58324" lon="6.73077">
        <ele>406</ele>
        <time>2016-08-15T07:50:21.000Z</time>
      </trkpt>
      <trkpt lat="47.58324" lon="6.73087">
        <ele>404</ele>
        <time>2016-08-15T07:50:22.000Z</time>
      </trkpt>
      <trkpt lat="47.58326" lon="6.73104">
        <ele>402</ele>
        <time>2016-08-15T07:50:23.000Z</time>
      </trkpt>
      <trkpt lat="47.58327" lon="6.73114">
        <ele>402</ele>
        <time>2016-08-15T07:50:24.000Z</time>
      </trkpt>
      <trkpt lat="47.58327" lon="6.73124">
        <ele>401</ele>
        <time>2016-08-15T07:50:25.000Z</time>
      </trkpt>
      <trkpt lat="47.58326" lon="6.73131">
        <ele>401</ele>
        <time>2016-08-15T07:50:26.000Z</time>
      </trkpt>
      <trkpt lat="47.58322" lon="6.73141">
        <ele>400</ele>
        <time>2016-08-15T07:50:27.000Z</time>
      </trkpt>
      <trkpt lat="47.58323" lon="6.73148">
        <ele>400</ele>
        <time>2016-08-15T07:50:28.000Z</time>
      </trkpt>
      <trkpt lat="47.58322" lon="6.73162">
        <ele>400</ele>
        <time>2016-08-15T07:50:29.000Z</time>
      </trkpt>
      <trkpt lat="47.58316" lon="6.73186">
        <ele>395</ele>
        <time>2016-08-15T07:50:30.000Z</time>
      </trkpt>
      <trkpt lat="47.58313" lon="6.73209">
        <ele>394</ele>
        <time>2016-08-15T07:50:31.000Z</time>
      </trkpt>
      <trkpt lat="47.58306" lon="6.73228">
        <ele>393</ele>
        <time>2016-08-15T07:50:32.000Z</time>
      </trkpt>
      <trkpt lat="47.58304" lon="6.73244">
        <ele>392</ele>
        <time>2016-08-15T07:50:33.000Z</time>
      </trkpt>
      <trkpt lat="47.58305" lon="6.73259">
        <ele>387</ele>
        <time>2016-08-15T07:50:34.000Z</time>
      </trkpt>
      <trkpt lat="47.58314" lon="6.73277">
        <ele>387</ele>
        <time>2016-08-15T07:50:35.000Z</time>
      </trkpt>
      <trkpt lat="47.58318" lon="6.73295">
        <ele>386</ele>
        <time>2016-08-15T07:50:36.000Z</time>
      </trkpt>
      <trkpt lat="47.5832" lon="6.73312">
        <ele>386</ele>
        <time>2016-08-15T07:50:37.000Z</time>
      </trkpt>
      <trkpt lat="47.58321" lon="6.73327">
        <ele>386</ele>
        <time>2016-08-15T07:50:38.000Z</time>
      </trkpt>
      <trkpt lat="47.58322" lon="6.73343">
        <ele>382</ele>
        <time>2016-08-15T07:50:39.000Z</time>
      </trkpt>
      <trkpt lat="47.58324" lon="6.73359">
        <ele>380</ele>
        <time>2016-08-15T07:50:40.000Z</time>
      </trkpt>
      <trkpt lat="47.58323" lon="6.73368">
        <ele>379</ele>
        <time>2016-08-15T07:50:41.000Z</time>
      </trkpt>
      <trkpt lat="47.58321" lon="6.73378">
        <ele>378</ele>
        <time>2016-08-15T07:50:42.000Z</time>
      </trkpt>
      <trkpt lat="47.58321" lon="6.73393">
        <ele>378</ele>
        <time>2016-08-15T07:50:43.000Z</time>
      </trkpt>
      <trkpt lat="47.58321" lon="6.73406">
        <ele>378</ele>
        <time>2016-08-15T07:50:44.000Z</time>
      </trkpt>
      <trkpt lat="47.58322" lon="6.73419">
        <ele>375</ele>
        <time>2016-08-15T07:50:45.000Z</time>
      </trkpt>
      <trkpt lat="47.58323" lon="6.73432">
        <ele>373</ele>
        <time>2016-08-15T07:50:46.000Z</time>
      </trkpt>
      <trkpt lat="47.58323" lon="6.73445">
        <ele>371</ele>
        <time>2016-08-15T07:50:47.000Z</time>
      </trkpt>
      <trkpt lat="47.58323" lon="6.73457">
        <ele>370</ele>
        <time>2016-08-15T07:50:48.000Z</time>
      </trkpt>
      <trkpt lat="47.58323" lon="6.73467">
        <ele>369</ele>
        <time>2016-08-15T07:50:49.000Z</time>
      </trkpt>
      <trkpt lat="47.58323" lon="6.73477">
        <ele>369</ele>
        <time>2016-08-15T07:50:50.000Z</time>
      </trkpt>
      <trkpt lat="47.58321" lon="6.73487">
        <ele>369</ele>
        <time>2016-08-15T07:50:51.000Z</time>
      </trkpt>
      <trkpt lat="47.58321" lon="6.73499">
        <ele>368</ele>
        <time>2016-08-15T07:50:52.000Z</time>
      </trkpt>
      <trkpt lat="47.5832" lon="6.73509">
        <ele>366</ele>
        <time>2016-08-15T07:50:53.000Z</time>
      </trkpt>
      <trkpt lat="47.58319" lon="6.73519">
        <ele>364</ele>
        <time>2016-08-15T07:50:54.000Z</time>
      </trkpt>
      <trkpt lat="47.58314" lon="6.73532">
        <ele>363</ele>
        <time>2016-08-15T07:50:55.000Z</time>
      </trkpt>
      <trkpt lat="47.58309" lon="6.73542">
        <ele>363</ele>
        <time>2016-08-15T07:50:56.000Z</time>
      </trkpt>
      <trkpt lat="47.58304" lon="6.73552">
        <ele>362</ele>
        <time>2016-08-15T07:50:57.000Z</time>
      </trkpt>
      <trkpt lat="47.583" lon="6.7356">
        <ele>362</ele>
        <time>2016-08-15T07:50:58.000Z</time>
      </trkpt>
      <trkpt lat="47.58305" lon="6.73566">
        <ele>362</ele>
        <time>2016-08-15T07:50:59.000Z</time>
      </trkpt>
      <trkpt lat="47.58307" lon="6.73577">
        <ele>362</ele>
        <time>2016-08-15T07:51:00.000Z</time>
      </trkpt>
      <trkpt lat="47.58309" lon="6.73586">
        <ele>358</ele>
        <time>2016-08-15T07:51:01.000Z</time>
      </trkpt>
      <trkpt lat="47.58312" lon="6.73595">
        <ele>358</ele>
        <time>2016-08-15T07:51:02.000Z</time>
      </trkpt>
      <trkpt lat="47.58316" lon="6.73604">
        <ele>358</ele>
        <time>2016-08-15T07:51:03.000Z</time>
      </trkpt>
      <trkpt lat="47.58319" lon="6.73613">
        <ele>357</ele>
        <time>2016-08-15T07:51:04.000Z</time>
      </trkpt>
      <trkpt lat="47.58325" lon="6.73623">
        <ele>357</ele>
        <time>2016-08-15T07:51:05.000Z</time>
      </trkpt>
      <trkpt lat="47.5833" lon="6.73632">
        <ele>356</ele>
        <time>2016-08-15T07:51:06.000Z</time>
      </trkpt>
      <trkpt lat="47.58335" lon="6.73641">
        <ele>353</ele>
        <time>2016-08-15T07:51:07.000Z</time>
      </trkpt>
      <trkpt lat="47.58338" lon="6.73646">
        <ele>352</ele>
        <time>2016-08-15T07:51:08.000Z</time>
      </trkpt>
      <trkpt lat="47.58342" lon="6.73651">
        <ele>352</ele>
        <time>2016-08-15T07:51:09.000Z</time>
      </trkpt>
      <trkpt lat="47.58346" lon="6.73651">
        <ele>352</ele>
        <time>2016-08-15T07:51:11.000Z</time>
      </trkpt>
      <trkpt lat="47.58348" lon="6.73651">
        <ele>352</ele>
        <time>2016-08-15T07:51:12.000Z</time>
      </trkpt>
      <trkpt lat="47.5835" lon="6.73649">
        <ele>352</ele>
        <time>2016-08-15T07:52:42.000Z</time>
      </trkpt>
      <trkpt lat="47.58352" lon="6.73648">
        <ele>352</ele>
        <time>2016-08-15T07:52:43.000Z</time>
      </trkpt>
      <trkpt lat="47.58354" lon="6.73649">
        <ele>352</ele>
        <time>2016-08-15T07:52:44.000Z</time>
      </trkpt>
      <trkpt lat="47.58359" lon="6.7365">
        <ele>351</ele>
        <time>2016-08-15T07:52:45.000Z</time>
      </trkpt>
      <trkpt lat="47.58364" lon="6.73652">
        <ele>351</ele>
        <time>2016-08-15T07:52:46.000Z</time>
      </trkpt>
      <trkpt lat="47.58366" lon="6.73654">
        <ele>351</ele>
        <time>2016-08-15T07:52:47.000Z</time>
      </trkpt>
      <trkpt lat="47.58368" lon="6.73658">
        <ele>350</ele>
        <time>2016-08-15T07:52:48.000Z</time>
      </trkpt>
      <trkpt lat="47.5837" lon="6.73662">
        <ele>350</ele>
        <time>2016-08-15T07:52:49.000Z</time>
      </trkpt>
      <trkpt lat="47.58371" lon="6.73666">
        <ele>350</ele>
        <time>2016-08-15T07:52:50.000Z</time>
      </trkpt>
      <trkpt lat="47.58371" lon="6.73671">
        <ele>350</ele>
        <time>2016-08-15T07:52:51.000Z</time>
      </trkpt>
      <trkpt lat="47.5837" lon="6.73675">
        <ele>350</ele>
        <time>2016-08-15T07:52:52.000Z</time>
      </trkpt>
      <trkpt lat="47.58369" lon="6.73679">
        <ele>350</ele>
        <time>2016-08-15T07:52:53.000Z</time>
      </trkpt>
      <trkpt lat="47.58368" lon="6.73683">
        <ele>350</ele>
        <time>2016-08-15T07:52:54.000Z</time>
      </trkpt>
      <trkpt lat="47.58367" lon="6.73687">
        <ele>350</ele>
        <time>2016-08-15T07:52:55.000Z</time>
      </trkpt>
      <trkpt lat="47.58368" lon="6.73691">
        <ele>350</ele>
        <time>2016-08-15T07:52:56.000Z</time>
      </trkpt>
      <trkpt lat="47.58369" lon="6.73696">
        <ele>350</ele>
        <time>2016-08-15T07:52:58.000Z</time>
      </trkpt>
      <trkpt lat="47.58368" lon="6.73698">
        <ele>350</ele>
        <time>2016-08-15T07:52:59.000Z</time>
      </trkpt>
      <trkpt lat="47.58365" lon="6.73702">
        <ele>350</ele>
        <time>2016-08-15T07:53:01.000Z</time>
      </trkpt>
      <trkpt lat="47.58363" lon="6.73703">
        <ele>350</ele>
        <time>2016-08-15T07:53:02.000Z</time>
      </trkpt>
      <trkpt lat="47.5836" lon="6.73704">
        <ele>350</ele>
        <time>2016-08-15T07:53:04.000Z</time>
      </trkpt>
      <trkpt lat="47.58358" lon="6.73706">
        <ele>351</ele>
        <time>2016-08-15T07:53:05.000Z</time>
      </trkpt>
      <trkpt lat="47.58356" lon="6.73708">
        <ele>351</ele>
        <time>2016-08-15T07:53:06.000Z</time>
      </trkpt>
      <trkpt lat="47.58354" lon="6.73711">
        <ele>351</ele>
        <time>2016-08-15T07:53:07.000Z</time>
      </trkpt>
      <trkpt lat="47.58352" lon="6.73715">
        <ele>351</ele>
        <time>2016-08-15T07:53:08.000Z</time>
      </trkpt>
      <trkpt lat="47.5835" lon="6.73719">
        <ele>351</ele>
        <time>2016-08-15T07:53:09.000Z</time>
      </trkpt>
      <trkpt lat="47.58348" lon="6.73722">
        <ele>351</ele>
        <time>2016-08-15T07:53:10.000Z</time>
      </trkpt>
      <trkpt lat="47.58347" lon="6.73726">
        <ele>351</ele>
        <time>2016-08-15T07:53:11.000Z</time>
      </trkpt>
      <trkpt lat="47.58345" lon="6.73728">
        <ele>352</ele>
        <time>2016-08-15T07:53:12.000Z</time>
      </trkpt>
      <trkpt lat="47.58343" lon="6.7373">
        <ele>352</ele>
        <time>2016-08-15T07:53:13.000Z</time>
      </trkpt>
      <trkpt lat="47.5834" lon="6.73733">
        <ele>352</ele>
        <time>2016-08-15T07:53:15.000Z</time>
      </trkpt>
      <trkpt lat="47.58338" lon="6.73734">
        <ele>352</ele>
        <time>2016-08-15T07:53:16.000Z</time>
      </trkpt>
      <trkpt lat="47.58335" lon="6.73738">
        <ele>353</ele>
        <time>2016-08-15T07:53:18.000Z</time>
      </trkpt>
      <trkpt lat="47.58333" lon="6.7374">
        <ele>353</ele>
        <time>2016-08-15T07:53:19.000Z</time>
      </trkpt>
      <trkpt lat="47.58331" lon="6.73743">
        <ele>353</ele>
        <time>2016-08-15T07:53:20.000Z</time>
      </trkpt>
      <trkpt lat="47.58329" lon="6.73746">
        <ele>353</ele>
        <time>2016-08-15T07:53:21.000Z</time>
      </trkpt>
      <trkpt lat="47.58327" lon="6.73751">
        <ele>353</ele>
        <time>2016-08-15T07:53:23.000Z</time>
      </trkpt>
      <trkpt lat="47.58326" lon="6.73754">
        <ele>353</ele>
        <time>2016-08-15T07:53:24.000Z</time>
      </trkpt>
      <trkpt lat="47.58324" lon="6.73759">
        <ele>353</ele>
        <time>2016-08-15T07:53:26.000Z</time>
      </trkpt>
      <trkpt lat="47.58323" lon="6.73763">
        <ele>353</ele>
        <time>2016-08-15T07:53:27.000Z</time>
      </trkpt>
      <trkpt lat="47.58323" lon="6.73767">
        <ele>352</ele>
        <time>2016-08-15T07:53:28.000Z</time>
      </trkpt>
      <trkpt lat="47.58323" lon="6.73772">
        <ele>352</ele>
        <time>2016-08-15T07:53:29.000Z</time>
      </trkpt>
      <trkpt lat="47.58322" lon="6.73777">
        <ele>352</ele>
        <time>2016-08-15T07:53:30.000Z</time>
      </trkpt>
      <trkpt lat="47.58321" lon="6.73782">
        <ele>352</ele>
        <time>2016-08-15T07:53:31.000Z</time>
      </trkpt>
      <trkpt lat="47.5832" lon="6.73786">
        <ele>352</ele>
        <time>2016-08-15T07:53:32.000Z</time>
      </trkpt>
      <trkpt lat="47.58318" lon="6.7379">
        <ele>352</ele>
        <time>2016-08-15T07:53:33.000Z</time>
      </trkpt>
      <trkpt lat="47.58317" lon="6.73793">
        <ele>352</ele>
        <time>2016-08-15T07:53:34.000Z</time>
      </trkpt>
      <trkpt lat="47.58315" lon="6.73796">
        <ele>352</ele>
        <time>2016-08-15T07:53:35.000Z</time>
      </trkpt>
      <trkpt lat="47.58313" lon="6.73799">
        <ele>352</ele>
        <time>2016-08-15T07:53:36.000Z</time>
      </trkpt>
      <trkpt lat="47.58311" lon="6.73802">
        <ele>352</ele>
        <time>2016-08-15T07:53:37.000Z</time>
      </trkpt>
      <trkpt lat="47.58309" lon="6.73805">
        <ele>352</ele>
        <time>2016-08-15T07:53:38.000Z</time>
      </trkpt>
      <trkpt lat="47.58306" lon="6.73809">
        <ele>352</ele>
        <time>2016-08-15T07:53:39.000Z</time>
      </trkpt>
      <trkpt lat="47.58304" lon="6.73814">
        <ele>352</ele>
        <time>2016-08-15T07:53:40.000Z</time>
      </trkpt>
      <trkpt lat="47.58302" lon="6.73819">
        <ele>352</ele>
        <time>2016-08-15T07:53:41.000Z</time>
      </trkpt>
      <trkpt lat="47.583" lon="6.73824">
        <ele>352</ele>
        <time>2016-08-15T07:53:42.000Z</time>
      </trkpt>
      <trkpt lat="47.58298" lon="6.7383">
        <ele>352</ele>
        <time>2016-08-15T07:53:43.000Z</time>
      </trkpt>
      <trkpt lat="47.58297" lon="6.73835">
        <ele>353</ele>
        <time>2016-08-15T07:53:44.000Z</time>
      </trkpt>
      <trkpt lat="47.58296" lon="6.7384">
        <ele>353</ele>
        <time>2016-08-15T07:53:45.000Z</time>
      </trkpt>
      <trkpt lat="47.58295" lon="6.73845">
        <ele>353</ele>
        <time>2016-08-15T07:53:46.000Z</time>
      </trkpt>
      <trkpt lat="47.58294" lon="6.7385">
        <ele>353</ele>
        <time>2016-08-15T07:53:47.000Z</time>
      </trkpt>
      <trkpt lat="47.58292" lon="6.73855">
        <ele>353</ele>
        <time>2016-08-15T07:53:48.000Z</time>
      </trkpt>
      <trkpt lat="47.5829" lon="6.7386">
        <ele>353</ele>
        <time>2016-08-15T07:53:49.000Z</time>
      </trkpt>
      <trkpt lat="47.58289" lon="6.73866">
        <ele>353</ele>
        <time>2016-08-15T07:53:50.000Z</time>
      </trkpt>
      <trkpt lat="47.58289" lon="6.73872">
        <ele>353</ele>
        <time>2016-08-15T07:53:51.000Z</time>
      </trkpt>
      <trkpt lat="47.58288" lon="6.73879">
        <ele>353</ele>
        <time>2016-08-15T07:53:52.000Z</time>
      </trkpt>
      <trkpt lat="47.58288" lon="6.73885">
        <ele>353</ele>
        <time>2016-08-15T07:53:53.000Z</time>
      </trkpt>
      <trkpt lat="47.58288" lon="6.73892">
        <ele>353</ele>
        <time>2016-08-15T07:53:54.000Z</time>
      </trkpt>
      <trkpt lat="47.58288" lon="6.73898">
        <ele>353</ele>
        <time>2016-08-15T07:53:55.000Z</time>
      </trkpt>
      <trkpt lat="47.58287" lon="6.73905">
        <ele>353</ele>
        <time>2016-08-15T07:53:56.000Z</time>
      </trkpt>
      <trkpt lat="47.58287" lon="6.73911">
        <ele>353</ele>
        <time>2016-08-15T07:53:57.000Z</time>
      </trkpt>
      <trkpt lat="47.58288" lon="6.73917">
        <ele>353</ele>
        <time>2016-08-15T07:53:58.000Z</time>
      </trkpt>
      <trkpt lat="47.58288" lon="6.73922">
        <ele>354</ele>
        <time>2016-08-15T07:53:59.000Z</time>
      </trkpt>
      <trkpt lat="47.58288" lon="6.73927">
        <ele>354</ele>
        <time>2016-08-15T07:54:00.000Z</time>
      </trkpt>
      <trkpt lat="47.58288" lon="6.73932">
        <ele>354</ele>
        <time>2016-08-15T07:54:01.000Z</time>
      </trkpt>
      <trkpt lat="47.58289" lon="6.73938">
        <ele>354</ele>
        <time>2016-08-15T07:54:02.000Z</time>
      </trkpt>
      <trkpt lat="47.58289" lon="6.73943">
        <ele>354</ele>
        <time>2016-08-15T07:54:03.000Z</time>
      </trkpt>
      <trkpt lat="47.58291" lon="6.73949">
        <ele>354</ele>
        <time>2016-08-15T07:54:04.000Z</time>
      </trkpt>
      <trkpt lat="47.58292" lon="6.73954">
        <ele>354</ele>
        <time>2016-08-15T07:54:05.000Z</time>
      </trkpt>
      <trkpt lat="47.58293" lon="6.7396">
        <ele>355</ele>
        <time>2016-08-15T07:54:06.000Z</time>
      </trkpt>
      <trkpt lat="47.58295" lon="6.73966">
        <ele>355</ele>
        <time>2016-08-15T07:54:07.000Z</time>
      </trkpt>
      <trkpt lat="47.58297" lon="6.73971">
        <ele>355</ele>
        <time>2016-08-15T07:54:08.000Z</time>
      </trkpt>
      <trkpt lat="47.583" lon="6.73976">
        <ele>355</ele>
        <time>2016-08-15T07:54:09.000Z</time>
      </trkpt>
      <trkpt lat="47.58303" lon="6.7398">
        <ele>355</ele>
        <time>2016-08-15T07:54:10.000Z</time>
      </trkpt>
      <trkpt lat="47.58305" lon="6.73984">
        <ele>356</ele>
        <time>2016-08-15T07:54:11.000Z</time>
      </trkpt>
      <trkpt lat="47.58308" lon="6.73988">
        <ele>356</ele>
        <time>2016-08-15T07:54:12.000Z</time>
      </trkpt>
      <trkpt lat="47.58311" lon="6.73992">
        <ele>356</ele>
        <time>2016-08-15T07:54:13.000Z</time>
      </trkpt>
      <trkpt lat="47.58314" lon="6.73995">
        <ele>357</ele>
        <time>2016-08-15T07:54:14.000Z</time>
      </trkpt>
      <trkpt lat="47.58317" lon="6.73996">
        <ele>357</ele>
        <time>2016-08-15T07:54:15.000Z</time>
      </trkpt>
      <trkpt lat="47.5832" lon="6.73996">
        <ele>358</ele>
        <time>2016-08-15T07:54:16.000Z</time>
      </trkpt>
      <trkpt lat="47.58324" lon="6.73995">
        <ele>358</ele>
        <time>2016-08-15T07:54:17.000Z</time>
      </trkpt>
      <trkpt lat="47.58328" lon="6.73994">
        <ele>358</ele>
        <time>2016-08-15T07:54:18.000Z</time>
      </trkpt>
      <trkpt lat="47.58332" lon="6.73992">
        <ele>359</ele>
        <time>2016-08-15T07:54:19.000Z</time>
      </trkpt>
      <trkpt lat="47.58336" lon="6.73991">
        <ele>360</ele>
        <time>2016-08-15T07:54:20.000Z</time>
      </trkpt>
      <trkpt lat="47.5834" lon="6.7399">
        <ele>360</ele>
        <time>2016-08-15T07:54:21.000Z</time>
      </trkpt>
      <trkpt lat="47.58344" lon="6.73988">
        <ele>360</ele>
        <time>2016-08-15T07:54:22.000Z</time>
      </trkpt>
      <trkpt lat="47.58348" lon="6.73987">
        <ele>360</ele>
        <time>2016-08-15T07:54:23.000Z</time>
      </trkpt>
      <trkpt lat="47.58351" lon="6.73985">
        <ele>360</ele>
        <time>2016-08-15T07:54:24.000Z</time>
      </trkpt>
      <trkpt lat="47.58355" lon="6.73984">
        <ele>360</ele>
        <time>2016-08-15T07:54:25.000Z</time>
      </trkpt>
      <trkpt lat="47.58359" lon="6.73983">
        <ele>360</ele>
        <time>2016-08-15T07:54:26.000Z</time>
      </trkpt>
      <trkpt lat="47.58362" lon="6.73982">
        <ele>360</ele>
        <time>2016-08-15T07:54:27.000Z</time>
      </trkpt>
      <trkpt lat="47.58366" lon="6.7398">
        <ele>360</ele>
        <time>2016-08-15T07:54:28.000Z</time>
      </trkpt>
      <trkpt lat="47.5837" lon="6.73979">
        <ele>360</ele>
        <time>2016-08-15T07:54:29.000Z</time>
      </trkpt>
      <trkpt lat="47.58374" lon="6.73977">
        <ele>360</ele>
        <time>2016-08-15T07:54:30.000Z</time>
      </trkpt>
      <trkpt lat="47.58377" lon="6.73976">
        <ele>360</ele>
        <time>2016-08-15T07:54:31.000Z</time>
      </trkpt>
      <trkpt lat="47.5838" lon="6.73975">
        <ele>360</ele>
        <time>2016-08-15T07:54:32.000Z</time>
      </trkpt>
      <trkpt lat="47.58382" lon="6.73973">
        <ele>360</ele>
        <time>2016-08-15T07:54:33.000Z</time>
      </trkpt>
      <trkpt lat="47.58385" lon="6.7397">
        <ele>360</ele>
        <time>2016-08-15T07:54:34.000Z</time>
      </trkpt>
      <trkpt lat="47.58387" lon="6.73967">
        <ele>360</ele>
        <time>2016-08-15T07:54:35.000Z</time>
      </trkpt>
      <trkpt lat="47.5839" lon="6.73962">
        <ele>360</ele>
        <time>2016-08-15T07:54:36.000Z</time>
      </trkpt>
      <trkpt lat="47.58393" lon="6.73957">
        <ele>360</ele>
        <time>2016-08-15T07:54:37.000Z</time>
      </trkpt>
      <trkpt lat="47.58397" lon="6.73945">
        <ele>360</ele>
        <time>2016-08-15T07:54:38.000Z</time>
      </trkpt>
      <trkpt lat="47.58399" lon="6.7394">
        <ele>360</ele>
        <time>2016-08-15T07:54:39.000Z</time>
      </trkpt>
      <trkpt lat="47.58403" lon="6.73936">
        <ele>360</ele>
        <time>2016-08-15T07:54:41.000Z</time>
      </trkpt>
      <trkpt lat="47.58404" lon="6.73935">
        <ele>360</ele>
        <time>2016-08-15T07:54:42.000Z</time>
      </trkpt>
      <trkpt lat="47.58407" lon="6.73935">
        <ele>360</ele>
        <time>2016-08-15T07:54:44.000Z</time>
      </trkpt>
      <trkpt lat="47.58409" lon="6.73937">
        <ele>360</ele>
        <time>2016-08-15T07:54:45.000Z</time>
      </trkpt>
      <trkpt lat="47.58413" lon="6.73938">
        <ele>360</ele>
        <time>2016-08-15T07:54:46.000Z</time>
      </trkpt>
      <trkpt lat="47.58417" lon="6.73942">
        <ele>353</ele>
        <time>2016-08-15T07:54:47.000Z</time>
      </trkpt>
      <trkpt lat="47.5842" lon="6.73944">
        <ele>353</ele>
        <time>2016-08-15T07:54:48.000Z</time>
      </trkpt>
      <trkpt lat="47.58421" lon="6.73948">
        <ele>352</ele>
        <time>2016-08-15T07:54:49.000Z</time>
      </trkpt>
      <trkpt lat="47.58423" lon="6.73953">
        <ele>352</ele>
        <time>2016-08-15T07:54:50.000Z</time>
      </trkpt>
      <trkpt lat="47.58425" lon="6.73957">
        <ele>351</ele>
        <time>2016-08-15T07:54:51.000Z</time>
      </trkpt>
      <trkpt lat="47.58426" lon="6.73962">
        <ele>351</ele>
        <time>2016-08-15T07:54:52.000Z</time>
      </trkpt>
      <trkpt lat="47.58428" lon="6.73968">
        <ele>351</ele>
        <time>2016-08-15T07:54:53.000Z</time>
      </trkpt>
      <trkpt lat="47.58431" lon="6.73973">
        <ele>351</ele>
        <time>2016-08-15T07:54:54.000Z</time>
      </trkpt>
      <trkpt lat="47.58433" lon="6.73979">
        <ele>351</ele>
        <time>2016-08-15T07:54:55.000Z</time>
      </trkpt>
      <trkpt lat="47.58435" lon="6.73984">
        <ele>351</ele>
        <time>2016-08-15T07:54:56.000Z</time>
      </trkpt>
      <trkpt lat="47.58438" lon="6.7399">
        <ele>351</ele>
        <time>2016-08-15T07:54:57.000Z</time>
      </trkpt>
      <trkpt lat="47.58441" lon="6.73995">
        <ele>351</ele>
        <time>2016-08-15T07:54:58.000Z</time>
      </trkpt>
      <trkpt lat="47.58444" lon="6.74001">
        <ele>348</ele>
        <time>2016-08-15T07:54:59.000Z</time>
      </trkpt>
      <trkpt lat="47.58449" lon="6.74008">
        <ele>346</ele>
        <time>2016-08-15T07:55:00.000Z</time>
      </trkpt>
      <trkpt lat="47.58462" lon="6.74023">
        <ele>343</ele>
        <time>2016-08-15T07:55:01.000Z</time>
      </trkpt>
      <trkpt lat="47.58466" lon="6.74013">
        <ele>343</ele>
        <time>2016-08-15T07:55:02.000Z</time>
      </trkpt>
      <trkpt lat="47.5847" lon="6.74009">
        <ele>342</ele>
        <time>2016-08-15T07:55:03.000Z</time>
      </trkpt>
      <trkpt lat="47.5847" lon="6.74005">
        <ele>342</ele>
        <time>2016-08-15T07:55:04.000Z</time>
      </trkpt>
      <trkpt lat="47.58471" lon="6.74001">
        <ele>342</ele>
        <time>2016-08-15T07:55:05.000Z</time>
      </trkpt>
      <trkpt lat="47.58471" lon="6.73998">
        <ele>344</ele>
        <time>2016-08-15T07:55:06.000Z</time>
      </trkpt>
      <trkpt lat="47.58473" lon="6.73995">
        <ele>344</ele>
        <time>2016-08-15T07:55:07.000Z</time>
      </trkpt>
      <trkpt lat="47.58474" lon="6.73989">
        <ele>344</ele>
        <time>2016-08-15T07:55:09.000Z</time>
      </trkpt>
      <trkpt lat="47.58475" lon="6.73987">
        <ele>344</ele>
        <time>2016-08-15T07:55:10.000Z</time>
      </trkpt>
      <trkpt lat="47.58476" lon="6.73982">
        <ele>344</ele>
        <time>2016-08-15T07:55:12.000Z</time>
      </trkpt>
      <trkpt lat="47.58477" lon="6.7398">
        <ele>344</ele>
        <time>2016-08-15T07:55:13.000Z</time>
      </trkpt>
      <trkpt lat="47.58475" lon="6.73974">
        <ele>345</ele>
        <time>2016-08-15T07:55:24.000Z</time>
      </trkpt>
      <trkpt lat="47.58476" lon="6.73973">
        <ele>344</ele>
        <time>2016-08-15T07:55:25.000Z</time>
      </trkpt>
      <trkpt lat="47.58478" lon="6.7397">
        <ele>344</ele>
        <time>2016-08-15T07:55:28.000Z</time>
      </trkpt>
      <trkpt lat="47.58479" lon="6.73968">
        <ele>344</ele>
        <time>2016-08-15T07:55:29.000Z</time>
      </trkpt>
      <trkpt lat="47.5848" lon="6.73962">
        <ele>344</ele>
        <time>2016-08-15T07:55:32.000Z</time>
      </trkpt>
      <trkpt lat="47.58479" lon="6.73957">
        <ele>345</ele>
        <time>2016-08-15T07:55:33.000Z</time>
      </trkpt>
      <trkpt lat="47.58478" lon="6.73952">
        <ele>345</ele>
        <time>2016-08-15T07:55:34.000Z</time>
      </trkpt>
      <trkpt lat="47.58478" lon="6.73948">
        <ele>345</ele>
        <time>2016-08-15T07:55:35.000Z</time>
      </trkpt>
      <trkpt lat="47.58478" lon="6.73942">
        <ele>344</ele>
        <time>2016-08-15T07:55:38.000Z</time>
      </trkpt>
      <trkpt lat="47.58478" lon="6.7394">
        <ele>344</ele>
        <time>2016-08-15T07:55:39.000Z</time>
      </trkpt>
      <trkpt lat="47.58479" lon="6.73946">
        <ele>344</ele>
        <time>2016-08-15T07:55:51.000Z</time>
      </trkpt>
      <trkpt lat="47.58479" lon="6.7395">
        <ele>344</ele>
        <time>2016-08-15T07:55:52.000Z</time>
      </trkpt>
      <trkpt lat="47.58478" lon="6.73954">
        <ele>345</ele>
        <time>2016-08-15T07:55:53.000Z</time>
      </trkpt>
      <trkpt lat="47.58478" lon="6.73958">
        <ele>345</ele>
        <time>2016-08-15T07:55:54.000Z</time>
      </trkpt>
      <trkpt lat="47.58477" lon="6.73963">
        <ele>345</ele>
        <time>2016-08-15T07:55:55.000Z</time>
      </trkpt>
      <trkpt lat="47.58477" lon="6.73968">
        <ele>345</ele>
        <time>2016-08-15T07:55:56.000Z</time>
      </trkpt>
      <trkpt lat="47.58477" lon="6.73973">
        <ele>344</ele>
        <time>2016-08-15T07:55:57.000Z</time>
      </trkpt>
      <trkpt lat="47.58477" lon="6.73978">
        <ele>344</ele>
        <time>2016-08-15T07:55:58.000Z</time>
      </trkpt>
      <trkpt lat="47.58477" lon="6.73984">
        <ele>344</ele>
        <time>2016-08-15T07:55:59.000Z</time>
      </trkpt>
      <trkpt lat="47.58477" lon="6.73989">
        <ele>343</ele>
        <time>2016-08-15T07:56:00.000Z</time>
      </trkpt>
      <trkpt lat="47.58476" lon="6.73995">
        <ele>343</ele>
        <time>2016-08-15T07:56:01.000Z</time>
      </trkpt>
      <trkpt lat="47.58476" lon="6.74001">
        <ele>341</ele>
        <time>2016-08-15T07:56:02.000Z</time>
      </trkpt>
      <trkpt lat="47.58476" lon="6.74007">
        <ele>341</ele>
        <time>2016-08-15T07:56:03.000Z</time>
      </trkpt>
      <trkpt lat="47.58476" lon="6.74013">
        <ele>341</ele>
        <time>2016-08-15T07:56:04.000Z</time>
      </trkpt>
      <trkpt lat="47.58475" lon="6.7402">
        <ele>341</ele>
        <time>2016-08-15T07:56:05.000Z</time>
      </trkpt>
      <trkpt lat="47.58475" lon="6.74026">
        <ele>342</ele>
        <time>2016-08-15T07:56:06.000Z</time>
      </trkpt>
      <trkpt lat="47.58474" lon="6.74032">
        <ele>342</ele>
        <time>2016-08-15T07:56:07.000Z</time>
      </trkpt>
      <trkpt lat="47.58474" lon="6.74038">
        <ele>341</ele>
        <time>2016-08-15T07:56:08.000Z</time>
      </trkpt>
      <trkpt lat="47.58473" lon="6.74044">
        <ele>341</ele>
        <time>2016-08-15T07:56:09.000Z</time>
      </trkpt>
      <trkpt lat="47.58472" lon="6.7405">
        <ele>341</ele>
        <time>2016-08-15T07:56:10.000Z</time>
      </trkpt>
      <trkpt lat="47.58472" lon="6.74055">
        <ele>341</ele>
        <time>2016-08-15T07:56:11.000Z</time>
      </trkpt>
      <trkpt lat="47.58471" lon="6.74059">
        <ele>341</ele>
        <time>2016-08-15T07:56:12.000Z</time>
      </trkpt>
      <trkpt lat="47.5847" lon="6.74062">
        <ele>341</ele>
        <time>2016-08-15T07:56:13.000Z</time>
      </trkpt>
      <trkpt lat="47.5847" lon="6.74065">
        <ele>341</ele>
        <time>2016-08-15T07:56:14.000Z</time>
      </trkpt>
      <trkpt lat="47.58468" lon="6.74071">
        <ele>341</ele>
        <time>2016-08-15T07:56:16.000Z</time>
      </trkpt>
      <trkpt lat="47.58466" lon="6.74074">
        <ele>341</ele>
        <time>2016-08-15T07:56:17.000Z</time>
      </trkpt>
      <trkpt lat="47.58464" lon="6.74077">
        <ele>341</ele>
        <time>2016-08-15T07:56:18.000Z</time>
      </trkpt>
      <trkpt lat="47.58462" lon="6.7408">
        <ele>341</ele>
        <time>2016-08-15T07:56:19.000Z</time>
      </trkpt>
      <trkpt lat="47.58459" lon="6.74083">
        <ele>342</ele>
        <time>2016-08-15T07:56:20.000Z</time>
      </trkpt>
      <trkpt lat="47.58457" lon="6.74085">
        <ele>338</ele>
        <time>2016-08-15T07:56:21.000Z</time>
      </trkpt>
      <trkpt lat="47.58454" lon="6.74087">
        <ele>339</ele>
        <time>2016-08-15T07:56:22.000Z</time>
      </trkpt>
      <trkpt lat="47.58451" lon="6.74089">
        <ele>339</ele>
        <time>2016-08-15T07:56:23.000Z</time>
      </trkpt>
      <trkpt lat="47.58448" lon="6.74091">
        <ele>339</ele>
        <time>2016-08-15T07:56:24.000Z</time>
      </trkpt>
      <trkpt lat="47.58446" lon="6.74094">
        <ele>340</ele>
        <time>2016-08-15T07:56:25.000Z</time>
      </trkpt>
      <trkpt lat="47.58443" lon="6.74096">
        <ele>340</ele>
        <time>2016-08-15T07:56:26.000Z</time>
      </trkpt>
      <trkpt lat="47.58441" lon="6.74099">
        <ele>340</ele>
        <time>2016-08-15T07:56:27.000Z</time>
      </trkpt>
      <trkpt lat="47.58438" lon="6.74102">
        <ele>340</ele>
        <time>2016-08-15T07:56:28.000Z</time>
      </trkpt>
      <trkpt lat="47.58436" lon="6.74104">
        <ele>340</ele>
        <time>2016-08-15T07:56:29.000Z</time>
      </trkpt>
      <trkpt lat="47.58434" lon="6.74107">
        <ele>340</ele>
        <time>2016-08-15T07:56:30.000Z</time>
      </trkpt>
      <trkpt lat="47.58432" lon="6.74109">
        <ele>340</ele>
        <time>2016-08-15T07:56:31.000Z</time>
      </trkpt>
      <trkpt lat="47.58429" lon="6.74112">
        <ele>340</ele>
        <time>2016-08-15T07:56:32.000Z</time>
      </trkpt>
      <trkpt lat="47.58426" lon="6.74116">
        <ele>340</ele>
        <time>2016-08-15T07:56:33.000Z</time>
      </trkpt>
      <trkpt lat="47.58421" lon="6.74121">
        <ele>339</ele>
        <time>2016-08-15T07:56:34.000Z</time>
      </trkpt>
      <trkpt lat="47.58416" lon="6.74126">
        <ele>345</ele>
        <time>2016-08-15T07:56:35.000Z</time>
      </trkpt>
      <trkpt lat="47.58412" lon="6.7413">
        <ele>344</ele>
        <time>2016-08-15T07:56:36.000Z</time>
      </trkpt>
      <trkpt lat="47.58408" lon="6.74135">
        <ele>344</ele>
        <time>2016-08-15T07:56:37.000Z</time>
      </trkpt>
      <trkpt lat="47.58404" lon="6.74138">
        <ele>343</ele>
        <time>2016-08-15T07:56:38.000Z</time>
      </trkpt>
      <trkpt lat="47.584" lon="6.74142">
        <ele>343</ele>
        <time>2016-08-15T07:56:39.000Z</time>
      </trkpt>
      <trkpt lat="47.58397" lon="6.74145">
        <ele>343</ele>
        <time>2016-08-15T07:56:40.000Z</time>
      </trkpt>
      <trkpt lat="47.58394" lon="6.74148">
        <ele>343</ele>
        <time>2016-08-15T07:56:41.000Z</time>
      </trkpt>
      <trkpt lat="47.58391" lon="6.74151">
        <ele>343</ele>
        <time>2016-08-15T07:56:42.000Z</time>
      </trkpt>
      <trkpt lat="47.58388" lon="6.74154">
        <ele>343</ele>
        <time>2016-08-15T07:56:43.000Z</time>
      </trkpt>
      <trkpt lat="47.58384" lon="6.74158">
        <ele>343</ele>
        <time>2016-08-15T07:56:44.000Z</time>
      </trkpt>
      <trkpt lat="47.5838" lon="6.74162">
        <ele>343</ele>
        <time>2016-08-15T07:56:45.000Z</time>
      </trkpt>
      <trkpt lat="47.58377" lon="6.74167">
        <ele>343</ele>
        <time>2016-08-15T07:56:46.000Z</time>
      </trkpt>
      <trkpt lat="47.58375" lon="6.74172">
        <ele>338</ele>
        <time>2016-08-15T07:56:47.000Z</time>
      </trkpt>
      <trkpt lat="47.58373" lon="6.74178">
        <ele>338</ele>
        <time>2016-08-15T07:56:48.000Z</time>
      </trkpt>
      <trkpt lat="47.58373" lon="6.74184">
        <ele>338</ele>
        <time>2016-08-15T07:56:49.000Z</time>
      </trkpt>
      <trkpt lat="47.58373" lon="6.74189">
        <ele>338</ele>
        <time>2016-08-15T07:56:50.000Z</time>
      </trkpt>
      <trkpt lat="47.58374" lon="6.74193">
        <ele>337</ele>
        <time>2016-08-15T07:56:51.000Z</time>
      </trkpt>
      <trkpt lat="47.58375" lon="6.74197">
        <ele>337</ele>
        <time>2016-08-15T07:56:52.000Z</time>
      </trkpt>
      <trkpt lat="47.58377" lon="6.74201">
        <ele>337</ele>
        <time>2016-08-15T07:56:53.000Z</time>
      </trkpt>
      <trkpt lat="47.58379" lon="6.74206">
        <ele>337</ele>
        <time>2016-08-15T07:56:54.000Z</time>
      </trkpt>
      <trkpt lat="47.58381" lon="6.74211">
        <ele>337</ele>
        <time>2016-08-15T07:56:55.000Z</time>
      </trkpt>
      <trkpt lat="47.58381" lon="6.74217">
        <ele>337</ele>
        <time>2016-08-15T07:56:56.000Z</time>
      </trkpt>
      <trkpt lat="47.58381" lon="6.74223">
        <ele>336</ele>
        <time>2016-08-15T07:56:57.000Z</time>
      </trkpt>
      <trkpt lat="47.5838" lon="6.74229">
        <ele>336</ele>
        <time>2016-08-15T07:56:58.000Z</time>
      </trkpt>
      <trkpt lat="47.58379" lon="6.74234">
        <ele>336</ele>
        <time>2016-08-15T07:56:59.000Z</time>
      </trkpt>
      <trkpt lat="47.58377" lon="6.74238">
        <ele>336</ele>
        <time>2016-08-15T07:57:00.000Z</time>
      </trkpt>
      <trkpt lat="47.58374" lon="6.74243">
        <ele>336</ele>
        <time>2016-08-15T07:57:01.000Z</time>
      </trkpt>
      <trkpt lat="47.58371" lon="6.74247">
        <ele>336</ele>
        <time>2016-08-15T07:57:02.000Z</time>
      </trkpt>
      <trkpt lat="47.58368" lon="6.74251">
        <ele>335</ele>
        <time>2016-08-15T07:57:03.000Z</time>
      </trkpt>
      <trkpt lat="47.58364" lon="6.74254">
        <ele>335</ele>
        <time>2016-08-15T07:57:04.000Z</time>
      </trkpt>
      <trkpt lat="47.5836" lon="6.74256">
        <ele>335</ele>
        <time>2016-08-15T07:57:05.000Z</time>
      </trkpt>
      <trkpt lat="47.58357" lon="6.74258">
        <ele>335</ele>
        <time>2016-08-15T07:57:06.000Z</time>
      </trkpt>
      <trkpt lat="47.58353" lon="6.74259">
        <ele>335</ele>
        <time>2016-08-15T07:57:07.000Z</time>
      </trkpt>
      <trkpt lat="47.5835" lon="6.74257">
        <ele>335</ele>
        <time>2016-08-15T07:57:08.000Z</time>
      </trkpt>
      <trkpt lat="47.58347" lon="6.74254">
        <ele>335</ele>
        <time>2016-08-15T07:57:09.000Z</time>
      </trkpt>
      <trkpt lat="47.58345" lon="6.7425">
        <ele>336</ele>
        <time>2016-08-15T07:57:10.000Z</time>
      </trkpt>
      <trkpt lat="47.58343" lon="6.74245">
        <ele>336</ele>
        <time>2016-08-15T07:57:11.000Z</time>
      </trkpt>
      <trkpt lat="47.58341" lon="6.74241">
        <ele>336</ele>
        <time>2016-08-15T07:57:12.000Z</time>
      </trkpt>
      <trkpt lat="47.58339" lon="6.74235">
        <ele>336</ele>
        <time>2016-08-15T07:57:13.000Z</time>
      </trkpt>
      <trkpt lat="47.58338" lon="6.74224">
        <ele>337</ele>
        <time>2016-08-15T07:57:14.000Z</time>
      </trkpt>
      <trkpt lat="47.58335" lon="6.74218">
        <ele>337</ele>
        <time>2016-08-15T07:57:15.000Z</time>
      </trkpt>
      <trkpt lat="47.58334" lon="6.74213">
        <ele>337</ele>
        <time>2016-08-15T07:57:16.000Z</time>
      </trkpt>
      <trkpt lat="47.58332" lon="6.74208">
        <ele>340</ele>
        <time>2016-08-15T07:57:17.000Z</time>
      </trkpt>
      <trkpt lat="47.58329" lon="6.74209">
        <ele>340</ele>
        <time>2016-08-15T07:57:18.000Z</time>
      </trkpt>
      <trkpt lat="47.58323" lon="6.74207">
        <ele>340</ele>
        <time>2016-08-15T07:57:19.000Z</time>
      </trkpt>
      <trkpt lat="47.58318" lon="6.74206">
        <ele>340</ele>
        <time>2016-08-15T07:57:20.000Z</time>
      </trkpt>
      <trkpt lat="47.58313" lon="6.74207">
        <ele>340</ele>
        <time>2016-08-15T07:57:21.000Z</time>
      </trkpt>
      <trkpt lat="47.58301" lon="6.74211">
        <ele>340</ele>
        <time>2016-08-15T07:57:23.000Z</time>
      </trkpt>
      <trkpt lat="47.58296" lon="6.74216">
        <ele>340</ele>
        <time>2016-08-15T07:57:24.000Z</time>
      </trkpt>
      <trkpt lat="47.58289" lon="6.7422">
        <ele>340</ele>
        <time>2016-08-15T07:57:25.000Z</time>
      </trkpt>
      <trkpt lat="47.58284" lon="6.7422">
        <ele>340</ele>
        <time>2016-08-15T07:57:26.000Z</time>
      </trkpt>
      <trkpt lat="47.5828" lon="6.74221">
        <ele>340</ele>
        <time>2016-08-15T07:57:27.000Z</time>
      </trkpt>
      <trkpt lat="47.58276" lon="6.74223">
        <ele>339</ele>
        <time>2016-08-15T07:57:28.000Z</time>
      </trkpt>
      <trkpt lat="47.58273" lon="6.74227">
        <ele>339</ele>
        <time>2016-08-15T07:57:29.000Z</time>
      </trkpt>
      <trkpt lat="47.5827" lon="6.74229">
        <ele>339</ele>
        <time>2016-08-15T07:57:30.000Z</time>
      </trkpt>
      <trkpt lat="47.58266" lon="6.74233">
        <ele>338</ele>
        <time>2016-08-15T07:57:31.000Z</time>
      </trkpt>
      <trkpt lat="47.58262" lon="6.74236">
        <ele>338</ele>
        <time>2016-08-15T07:57:32.000Z</time>
      </trkpt>
      <trkpt lat="47.58259" lon="6.74239">
        <ele>337</ele>
        <time>2016-08-15T07:57:33.000Z</time>
      </trkpt>
      <trkpt lat="47.58258" lon="6.7424">
        <ele>337</ele>
        <time>2016-08-15T07:57:34.000Z</time>
      </trkpt>
      <trkpt lat="47.58255" lon="6.74242">
        <ele>337</ele>
        <time>2016-08-15T07:57:35.000Z</time>
      </trkpt>
      <trkpt lat="47.58254" lon="6.74243">
        <ele>337</ele>
        <time>2016-08-15T07:57:36.000Z</time>
      </trkpt>
      <trkpt lat="47.5825" lon="6.74245">
        <ele>336</ele>
        <time>2016-08-15T07:57:40.000Z</time>
      </trkpt>
      <trkpt lat="47.58249" lon="6.74246">
        <ele>336</ele>
        <time>2016-08-15T07:57:41.000Z</time>
      </trkpt>
      <trkpt lat="47.5825" lon="6.7425">
        <ele>335</ele>
        <time>2016-08-15T07:57:43.000Z</time>
      </trkpt>
      <trkpt lat="47.58251" lon="6.74254">
        <ele>335</ele>
        <time>2016-08-15T07:57:44.000Z</time>
      </trkpt>
      <trkpt lat="47.58252" lon="6.74257">
        <ele>334</ele>
        <time>2016-08-15T07:57:45.000Z</time>
      </trkpt>
      <trkpt lat="47.58254" lon="6.7426">
        <ele>334</ele>
        <time>2016-08-15T07:57:46.000Z</time>
      </trkpt>
      <trkpt lat="47.58255" lon="6.74264">
        <ele>334</ele>
        <time>2016-08-15T07:57:47.000Z</time>
      </trkpt>
      <trkpt lat="47.58256" lon="6.74267">
        <ele>334</ele>
        <time>2016-08-15T07:57:48.000Z</time>
      </trkpt>
      <trkpt lat="47.58256" lon="6.74273">
        <ele>333</ele>
        <time>2016-08-15T07:57:50.000Z</time>
      </trkpt>
      <trkpt lat="47.58256" lon="6.74276">
        <ele>333</ele>
        <time>2016-08-15T07:57:51.000Z</time>
      </trkpt>
      <trkpt lat="47.58257" lon="6.7428">
        <ele>333</ele>
        <time>2016-08-15T07:57:53.000Z</time>
      </trkpt>
      <trkpt lat="47.58257" lon="6.74282">
        <ele>333</ele>
        <time>2016-08-15T07:57:54.000Z</time>
      </trkpt>
      <trkpt lat="47.58257" lon="6.74277">
        <ele>333</ele>
        <time>2016-08-15T07:58:01.000Z</time>
      </trkpt>
      <trkpt lat="47.58257" lon="6.74274">
        <ele>333</ele>
        <time>2016-08-15T07:58:02.000Z</time>
      </trkpt>
      <trkpt lat="47.58256" lon="6.74271">
        <ele>333</ele>
        <time>2016-08-15T07:58:03.000Z</time>
      </trkpt>
      <trkpt lat="47.58253" lon="6.74263">
        <ele>334</ele>
        <time>2016-08-15T07:58:04.000Z</time>
      </trkpt>
      <trkpt lat="47.58252" lon="6.74257">
        <ele>334</ele>
        <time>2016-08-15T07:58:05.000Z</time>
      </trkpt>
      <trkpt lat="47.5825" lon="6.74254">
        <ele>335</ele>
        <time>2016-08-15T07:58:06.000Z</time>
      </trkpt>
      <trkpt lat="47.58248" lon="6.74251">
        <ele>335</ele>
        <time>2016-08-15T07:58:07.000Z</time>
      </trkpt>
      <trkpt lat="47.58244" lon="6.74249">
        <ele>336</ele>
        <time>2016-08-15T07:58:08.000Z</time>
      </trkpt>
      <trkpt lat="47.58242" lon="6.74246">
        <ele>336</ele>
        <time>2016-08-15T07:58:09.000Z</time>
      </trkpt>
      <trkpt lat="47.5824" lon="6.74245">
        <ele>337</ele>
        <time>2016-08-15T07:58:10.000Z</time>
      </trkpt>
      <trkpt lat="47.58236" lon="6.74243">
        <ele>337</ele>
        <time>2016-08-15T07:58:12.000Z</time>
      </trkpt>
      <trkpt lat="47.58234" lon="6.74243">
        <ele>337</ele>
        <time>2016-08-15T07:58:13.000Z</time>
      </trkpt>
      <trkpt lat="47.58231" lon="6.74241">
        <ele>337</ele>
        <time>2016-08-15T07:58:15.000Z</time>
      </trkpt>
      <trkpt lat="47.58229" lon="6.7424">
        <ele>337</ele>
        <time>2016-08-15T07:58:16.000Z</time>
      </trkpt>
      <trkpt lat="47.58225" lon="6.74237">
        <ele>338</ele>
        <time>2016-08-15T07:58:18.000Z</time>
      </trkpt>
      <trkpt lat="47.58223" lon="6.74236">
        <ele>338</ele>
        <time>2016-08-15T07:58:19.000Z</time>
      </trkpt>
      <trkpt lat="47.5822" lon="6.74235">
        <ele>338</ele>
        <time>2016-08-15T07:58:20.000Z</time>
      </trkpt>
      <trkpt lat="47.58216" lon="6.74236">
        <ele>338</ele>
        <time>2016-08-15T07:58:21.000Z</time>
      </trkpt>
      <trkpt lat="47.58213" lon="6.74237">
        <ele>338</ele>
        <time>2016-08-15T07:58:22.000Z</time>
      </trkpt>
      <trkpt lat="47.58211" lon="6.74238">
        <ele>338</ele>
        <time>2016-08-15T07:58:23.000Z</time>
      </trkpt>
      <trkpt lat="47.58207" lon="6.7424">
        <ele>337</ele>
        <time>2016-08-15T07:58:25.000Z</time>
      </trkpt>
      <trkpt lat="47.58205" lon="6.74242">
        <ele>337</ele>
        <time>2016-08-15T07:58:26.000Z</time>
      </trkpt>
      <trkpt lat="47.58202" lon="6.74243">
        <ele>337</ele>
        <time>2016-08-15T07:58:27.000Z</time>
      </trkpt>
      <trkpt lat="47.582" lon="6.74245">
        <ele>337</ele>
        <time>2016-08-15T07:58:28.000Z</time>
      </trkpt>
      <trkpt lat="47.58197" lon="6.74247">
        <ele>337</ele>
        <time>2016-08-15T07:58:29.000Z</time>
      </trkpt>
      <trkpt lat="47.58194" lon="6.74248">
        <ele>337</ele>
        <time>2016-08-15T07:58:30.000Z</time>
      </trkpt>
      <trkpt lat="47.58191" lon="6.7425">
        <ele>336</ele>
        <time>2016-08-15T07:58:31.000Z</time>
      </trkpt>
      <trkpt lat="47.58189" lon="6.74252">
        <ele>332</ele>
        <time>2016-08-15T07:58:32.000Z</time>
      </trkpt>
      <trkpt lat="47.58185" lon="6.74253">
        <ele>332</ele>
        <time>2016-08-15T07:58:33.000Z</time>
      </trkpt>
      <trkpt lat="47.58181" lon="6.74255">
        <ele>332</ele>
        <time>2016-08-15T07:58:34.000Z</time>
      </trkpt>
      <trkpt lat="47.58178" lon="6.74257">
        <ele>332</ele>
        <time>2016-08-15T07:58:35.000Z</time>
      </trkpt>
      <trkpt lat="47.58174" lon="6.74261">
        <ele>332</ele>
        <time>2016-08-15T07:58:36.000Z</time>
      </trkpt>
      <trkpt lat="47.58171" lon="6.74267">
        <ele>332</ele>
        <time>2016-08-15T07:58:37.000Z</time>
      </trkpt>
      <trkpt lat="47.58168" lon="6.74273">
        <ele>332</ele>
        <time>2016-08-15T07:58:38.000Z</time>
      </trkpt>
      <trkpt lat="47.58167" lon="6.7428">
        <ele>331</ele>
        <time>2016-08-15T07:58:39.000Z</time>
      </trkpt>
      <trkpt lat="47.58165" lon="6.74287">
        <ele>332</ele>
        <time>2016-08-15T07:58:40.000Z</time>
      </trkpt>
      <trkpt lat="47.58161" lon="6.74307">
        <ele>331</ele>
        <time>2016-08-15T07:58:41.000Z</time>
      </trkpt>
      <trkpt lat="47.58161" lon="6.74315">
        <ele>331</ele>
        <time>2016-08-15T07:58:42.000Z</time>
      </trkpt>
      <trkpt lat="47.58161" lon="6.74323">
        <ele>330</ele>
        <time>2016-08-15T07:58:43.000Z</time>
      </trkpt>
      <trkpt lat="47.58163" lon="6.7433">
        <ele>329</ele>
        <time>2016-08-15T07:58:44.000Z</time>
      </trkpt>
      <trkpt lat="47.58163" lon="6.74337">
        <ele>328</ele>
        <time>2016-08-15T07:58:45.000Z</time>
      </trkpt>
      <trkpt lat="47.58164" lon="6.74343">
        <ele>329</ele>
        <time>2016-08-15T07:58:46.000Z</time>
      </trkpt>
      <trkpt lat="47.58166" lon="6.74349">
        <ele>329</ele>
        <time>2016-08-15T07:58:47.000Z</time>
      </trkpt>
      <trkpt lat="47.58168" lon="6.74355">
        <ele>328</ele>
        <time>2016-08-15T07:58:48.000Z</time>
      </trkpt>
      <trkpt lat="47.5817" lon="6.74361">
        <ele>328</ele>
        <time>2016-08-15T07:58:49.000Z</time>
      </trkpt>
      <trkpt lat="47.58173" lon="6.74366">
        <ele>328</ele>
        <time>2016-08-15T07:58:50.000Z</time>
      </trkpt>
      <trkpt lat="47.58175" lon="6.74372">
        <ele>328</ele>
        <time>2016-08-15T07:58:51.000Z</time>
      </trkpt>
      <trkpt lat="47.58178" lon="6.74378">
        <ele>327</ele>
        <time>2016-08-15T07:58:52.000Z</time>
      </trkpt>
      <trkpt lat="47.58181" lon="6.74383">
        <ele>327</ele>
        <time>2016-08-15T07:58:53.000Z</time>
      </trkpt>
      <trkpt lat="47.58183" lon="6.74389">
        <ele>327</ele>
        <time>2016-08-15T07:58:54.000Z</time>
      </trkpt>
      <trkpt lat="47.58185" lon="6.74394">
        <ele>327</ele>
        <time>2016-08-15T07:58:55.000Z</time>
      </trkpt>
      <trkpt lat="47.58189" lon="6.74399">
        <ele>327</ele>
        <time>2016-08-15T07:58:56.000Z</time>
      </trkpt>
      <trkpt lat="47.58192" lon="6.74405">
        <ele>327</ele>
        <time>2016-08-15T07:58:57.000Z</time>
      </trkpt>
      <trkpt lat="47.58194" lon="6.7441">
        <ele>327</ele>
        <time>2016-08-15T07:58:58.000Z</time>
      </trkpt>
      <trkpt lat="47.58196" lon="6.74415">
        <ele>327</ele>
        <time>2016-08-15T07:58:59.000Z</time>
      </trkpt>
      <trkpt lat="47.58199" lon="6.74421">
        <ele>328</ele>
        <time>2016-08-15T07:59:00.000Z</time>
      </trkpt>
      <trkpt lat="47.58202" lon="6.74427">
        <ele>328</ele>
        <time>2016-08-15T07:59:01.000Z</time>
      </trkpt>
      <trkpt lat="47.58204" lon="6.74431">
        <ele>328</ele>
        <time>2016-08-15T07:59:02.000Z</time>
      </trkpt>
      <trkpt lat="47.58207" lon="6.74437">
        <ele>328</ele>
        <time>2016-08-15T07:59:03.000Z</time>
      </trkpt>
      <trkpt lat="47.5821" lon="6.74442">
        <ele>328</ele>
        <time>2016-08-15T07:59:04.000Z</time>
      </trkpt>
      <trkpt lat="47.58212" lon="6.74446">
        <ele>328</ele>
        <time>2016-08-15T07:59:05.000Z</time>
      </trkpt>
      <trkpt lat="47.58215" lon="6.7445">
        <ele>328</ele>
        <time>2016-08-15T07:59:06.000Z</time>
      </trkpt>
      <trkpt lat="47.58217" lon="6.74454">
        <ele>329</ele>
        <time>2016-08-15T07:59:07.000Z</time>
      </trkpt>
      <trkpt lat="47.5822" lon="6.74458">
        <ele>329</ele>
        <time>2016-08-15T07:59:08.000Z</time>
      </trkpt>
      <trkpt lat="47.58223" lon="6.74462">
        <ele>329</ele>
        <time>2016-08-15T07:59:09.000Z</time>
      </trkpt>
      <trkpt lat="47.58226" lon="6.74465">
        <ele>329</ele>
        <time>2016-08-15T07:59:10.000Z</time>
      </trkpt>
      <trkpt lat="47.5823" lon="6.74469">
        <ele>329</ele>
        <time>2016-08-15T07:59:11.000Z</time>
      </trkpt>
      <trkpt lat="47.58233" lon="6.74473">
        <ele>329</ele>
        <time>2016-08-15T07:59:12.000Z</time>
      </trkpt>
      <trkpt lat="47.58236" lon="6.74477">
        <ele>329</ele>
        <time>2016-08-15T07:59:13.000Z</time>
      </trkpt>
      <trkpt lat="47.58239" lon="6.7448">
        <ele>329</ele>
        <time>2016-08-15T07:59:14.000Z</time>
      </trkpt>
      <trkpt lat="47.58242" lon="6.74484">
        <ele>330</ele>
        <time>2016-08-15T07:59:15.000Z</time>
      </trkpt>
      <trkpt lat="47.58245" lon="6.74488">
        <ele>330</ele>
        <time>2016-08-15T07:59:16.000Z</time>
      </trkpt>
      <trkpt lat="47.58248" lon="6.74491">
        <ele>330</ele>
        <time>2016-08-15T07:59:17.000Z</time>
      </trkpt>
      <trkpt lat="47.58251" lon="6.74495">
        <ele>331</ele>
        <time>2016-08-15T07:59:18.000Z</time>
      </trkpt>
      <trkpt lat="47.58254" lon="6.74498">
        <ele>331</ele>
        <time>2016-08-15T07:59:19.000Z</time>
      </trkpt>
      <trkpt lat="47.58257" lon="6.74501">
        <ele>332</ele>
        <time>2016-08-15T07:59:20.000Z</time>
      </trkpt>
      <trkpt lat="47.58259" lon="6.74504">
        <ele>333</ele>
        <time>2016-08-15T07:59:21.000Z</time>
      </trkpt>
      <trkpt lat="47.58264" lon="6.7451">
        <ele>333</ele>
        <time>2016-08-15T07:59:23.000Z</time>
      </trkpt>
      <trkpt lat="47.58266" lon="6.74511">
        <ele>333</ele>
        <time>2016-08-15T07:59:24.000Z</time>
      </trkpt>
      <trkpt lat="47.58268" lon="6.74511">
        <ele>334</ele>
        <time>2016-08-15T07:59:25.000Z</time>
      </trkpt>
      <trkpt lat="47.58271" lon="6.74509">
        <ele>334</ele>
        <time>2016-08-15T07:59:26.000Z</time>
      </trkpt>
      <trkpt lat="47.58273" lon="6.74506">
        <ele>334</ele>
        <time>2016-08-15T07:59:27.000Z</time>
      </trkpt>
      <trkpt lat="47.58276" lon="6.74502">
        <ele>334</ele>
        <time>2016-08-15T07:59:28.000Z</time>
      </trkpt>
      <trkpt lat="47.58278" lon="6.74498">
        <ele>332</ele>
        <time>2016-08-15T07:59:29.000Z</time>
      </trkpt>
      <trkpt lat="47.5828" lon="6.74494">
        <ele>332</ele>
        <time>2016-08-15T07:59:30.000Z</time>
      </trkpt>
      <trkpt lat="47.58282" lon="6.74489">
        <ele>333</ele>
        <time>2016-08-15T07:59:31.000Z</time>
      </trkpt>
      <trkpt lat="47.58283" lon="6.74485">
        <ele>333</ele>
        <time>2016-08-15T07:59:32.000Z</time>
      </trkpt>
      <trkpt lat="47.58285" lon="6.7448">
        <ele>333</ele>
        <time>2016-08-15T07:59:33.000Z</time>
      </trkpt>
      <trkpt lat="47.58286" lon="6.74475">
        <ele>333</ele>
        <time>2016-08-15T07:59:34.000Z</time>
      </trkpt>
      <trkpt lat="47.58287" lon="6.74471">
        <ele>333</ele>
        <time>2016-08-15T07:59:35.000Z</time>
      </trkpt>
      <trkpt lat="47.58288" lon="6.74466">
        <ele>332</ele>
        <time>2016-08-15T07:59:36.000Z</time>
      </trkpt>
      <trkpt lat="47.58289" lon="6.74461">
        <ele>332</ele>
        <time>2016-08-15T07:59:37.000Z</time>
      </trkpt>
      <trkpt lat="47.5829" lon="6.74457">
        <ele>332</ele>
        <time>2016-08-15T07:59:38.000Z</time>
      </trkpt>
      <trkpt lat="47.58291" lon="6.74454">
        <ele>332</ele>
        <time>2016-08-15T07:59:39.000Z</time>
      </trkpt>
      <trkpt lat="47.58293" lon="6.74449">
        <ele>332</ele>
        <time>2016-08-15T07:59:41.000Z</time>
      </trkpt>
      <trkpt lat="47.58293" lon="6.74447">
        <ele>332</ele>
        <time>2016-08-15T07:59:42.000Z</time>
      </trkpt>
      <trkpt lat="47.58294" lon="6.74442">
        <ele>332</ele>
        <time>2016-08-15T07:59:44.000Z</time>
      </trkpt>
      <trkpt lat="47.58295" lon="6.7444">
        <ele>332</ele>
        <time>2016-08-15T07:59:45.000Z</time>
      </trkpt>
      <trkpt lat="47.58297" lon="6.74434">
        <ele>332</ele>
        <time>2016-08-15T07:59:47.000Z</time>
      </trkpt>
      <trkpt lat="47.58299" lon="6.74431">
        <ele>332</ele>
        <time>2016-08-15T07:59:48.000Z</time>
      </trkpt>
      <trkpt lat="47.58301" lon="6.74428">
        <ele>332</ele>
        <time>2016-08-15T07:59:49.000Z</time>
      </trkpt>
      <trkpt lat="47.58303" lon="6.74424">
        <ele>333</ele>
        <time>2016-08-15T07:59:50.000Z</time>
      </trkpt>
      <trkpt lat="47.58304" lon="6.74421">
        <ele>333</ele>
        <time>2016-08-15T07:59:51.000Z</time>
      </trkpt>
      <trkpt lat="47.58306" lon="6.74418">
        <ele>333</ele>
        <time>2016-08-15T07:59:52.000Z</time>
      </trkpt>
      <trkpt lat="47.58307" lon="6.74414">
        <ele>332</ele>
        <time>2016-08-15T07:59:53.000Z</time>
      </trkpt>
      <trkpt lat="47.58308" lon="6.74411">
        <ele>332</ele>
        <time>2016-08-15T07:59:54.000Z</time>
      </trkpt>
      <trkpt lat="47.5831" lon="6.74407">
        <ele>332</ele>
        <time>2016-08-15T07:59:55.000Z</time>
      </trkpt>
      <trkpt lat="47.58312" lon="6.74403">
        <ele>332</ele>
        <time>2016-08-15T07:59:56.000Z</time>
      </trkpt>
      <trkpt lat="47.58314" lon="6.74399">
        <ele>332</ele>
        <time>2016-08-15T07:59:57.000Z</time>
      </trkpt>
      <trkpt lat="47.58316" lon="6.74395">
        <ele>332</ele>
        <time>2016-08-15T07:59:58.000Z</time>
      </trkpt>
      <trkpt lat="47.58318" lon="6.74389">
        <ele>332</ele>
        <time>2016-08-15T07:59:59.000Z</time>
      </trkpt>
      <trkpt lat="47.5832" lon="6.74384">
        <ele>332</ele>
        <time>2016-08-15T08:00:00.000Z</time>
      </trkpt>
      <trkpt lat="47.58323" lon="6.74378">
        <ele>331</ele>
        <time>2016-08-15T08:00:01.000Z</time>
      </trkpt>
      <trkpt lat="47.58325" lon="6.74373">
        <ele>331</ele>
        <time>2016-08-15T08:00:02.000Z</time>
      </trkpt>
      <trkpt lat="47.58327" lon="6.74369">
        <ele>332</ele>
        <time>2016-08-15T08:00:03.000Z</time>
      </trkpt>
      <trkpt lat="47.5833" lon="6.74364">
        <ele>332</ele>
        <time>2016-08-15T08:00:04.000Z</time>
      </trkpt>
      <trkpt lat="47.58333" lon="6.7436">
        <ele>332</ele>
        <time>2016-08-15T08:00:05.000Z</time>
      </trkpt>
      <trkpt lat="47.58336" lon="6.74357">
        <ele>336</ele>
        <time>2016-08-15T08:00:06.000Z</time>
      </trkpt>
      <trkpt lat="47.5834" lon="6.74354">
        <ele>336</ele>
        <time>2016-08-15T08:00:07.000Z</time>
      </trkpt>
      <trkpt lat="47.58343" lon="6.74351">
        <ele>336</ele>
        <time>2016-08-15T08:00:08.000Z</time>
      </trkpt>
      <trkpt lat="47.58346" lon="6.74348">
        <ele>336</ele>
        <time>2016-08-15T08:00:09.000Z</time>
      </trkpt>
      <trkpt lat="47.58354" lon="6.74346">
        <ele>336</ele>
        <time>2016-08-15T08:00:10.000Z</time>
      </trkpt>
      <trkpt lat="47.58358" lon="6.74341">
        <ele>336</ele>
        <time>2016-08-15T08:00:11.000Z</time>
      </trkpt>
      <trkpt lat="47.58362" lon="6.74337">
        <ele>337</ele>
        <time>2016-08-15T08:00:12.000Z</time>
      </trkpt>
      <trkpt lat="47.58367" lon="6.74333">
        <ele>336</ele>
        <time>2016-08-15T08:00:13.000Z</time>
      </trkpt>
      <trkpt lat="47.58371" lon="6.74331">
        <ele>336</ele>
        <time>2016-08-15T08:00:14.000Z</time>
      </trkpt>
      <trkpt lat="47.58376" lon="6.74329">
        <ele>336</ele>
        <time>2016-08-15T08:00:15.000Z</time>
      </trkpt>
      <trkpt lat="47.58378" lon="6.74325">
        <ele>336</ele>
        <time>2016-08-15T08:00:16.000Z</time>
      </trkpt>
      <trkpt lat="47.5838" lon="6.74324">
        <ele>336</ele>
        <time>2016-08-15T08:00:17.000Z</time>
      </trkpt>
      <trkpt lat="47.58383" lon="6.74322">
        <ele>337</ele>
        <time>2016-08-15T08:00:18.000Z</time>
      </trkpt>
      <trkpt lat="47.58386" lon="6.7432">
        <ele>337</ele>
        <time>2016-08-15T08:00:19.000Z</time>
      </trkpt>
      <trkpt lat="47.5839" lon="6.74319">
        <ele>337</ele>
        <time>2016-08-15T08:00:20.000Z</time>
      </trkpt>
      <trkpt lat="47.58393" lon="6.74319">
        <ele>337</ele>
        <time>2016-08-15T08:00:21.000Z</time>
      </trkpt>
      <trkpt lat="47.58396" lon="6.74318">
        <ele>337</ele>
        <time>2016-08-15T08:00:22.000Z</time>
      </trkpt>
      <trkpt lat="47.58398" lon="6.74317">
        <ele>337</ele>
        <time>2016-08-15T08:00:23.000Z</time>
      </trkpt>
      <trkpt lat="47.58401" lon="6.74316">
        <ele>338</ele>
        <time>2016-08-15T08:00:24.000Z</time>
      </trkpt>
      <trkpt lat="47.58406" lon="6.74316">
        <ele>338</ele>
        <time>2016-08-15T08:00:26.000Z</time>
      </trkpt>
      <trkpt lat="47.58407" lon="6.74315">
        <ele>338</ele>
        <time>2016-08-15T08:00:27.000Z</time>
      </trkpt>
      <trkpt lat="47.58411" lon="6.74316">
        <ele>338</ele>
        <time>2016-08-15T08:00:30.000Z</time>
      </trkpt>
      <trkpt lat="47.58412" lon="6.74315">
        <ele>338</ele>
        <time>2016-08-15T08:00:31.000Z</time>
      </trkpt>
      <trkpt lat="47.58415" lon="6.74314">
        <ele>338</ele>
        <time>2016-08-15T08:00:33.000Z</time>
      </trkpt>
      <trkpt lat="47.58417" lon="6.74313">
        <ele>339</ele>
        <time>2016-08-15T08:00:34.000Z</time>
      </trkpt>
      <trkpt lat="47.58421" lon="6.74314">
        <ele>339</ele>
        <time>2016-08-15T08:00:37.000Z</time>
      </trkpt>
      <trkpt lat="47.58422" lon="6.74315">
        <ele>339</ele>
        <time>2016-08-15T08:00:38.000Z</time>
      </trkpt>
      <trkpt lat="47.58426" lon="6.74314">
        <ele>339</ele>
        <time>2016-08-15T08:00:41.000Z</time>
      </trkpt>
      <trkpt lat="47.58428" lon="6.74312">
        <ele>339</ele>
        <time>2016-08-15T08:00:42.000Z</time>
      </trkpt>
      <trkpt lat="47.58431" lon="6.7431">
        <ele>339</ele>
        <time>2016-08-15T08:00:43.000Z</time>
      </trkpt>
      <trkpt lat="47.58434" lon="6.74308">
        <ele>339</ele>
        <time>2016-08-15T08:00:44.000Z</time>
      </trkpt>
      <trkpt lat="47.58435" lon="6.74307">
        <ele>339</ele>
        <time>2016-08-15T08:00:44.999Z</time>
      </trkpt>
      <trkpt lat="47.58441" lon="6.74301">
        <ele>339</ele>
        <time>2016-08-15T08:00:46.000Z</time>
      </trkpt>
      <trkpt lat="47.58446" lon="6.74298">
        <ele>338</ele>
        <time>2016-08-15T08:00:47.000Z</time>
      </trkpt>
      <trkpt lat="47.5845" lon="6.74295">
        <ele>338</ele>
        <time>2016-08-15T08:00:48.000Z</time>
      </trkpt>
      <trkpt lat="47.58453" lon="6.74292">
        <ele>338</ele>
        <time>2016-08-15T08:00:49.000Z</time>
      </trkpt>
      <trkpt lat="47.58456" lon="6.74289">
        <ele>338</ele>
        <time>2016-08-15T08:00:50.000Z</time>
      </trkpt>
      <trkpt lat="47.58459" lon="6.74286">
        <ele>338</ele>
        <time>2016-08-15T08:00:51.000Z</time>
      </trkpt>
      <trkpt lat="47.58462" lon="6.74283">
        <ele>338</ele>
        <time>2016-08-15T08:00:52.000Z</time>
      </trkpt>
      <trkpt lat="47.58466" lon="6.74279">
        <ele>338</ele>
        <time>2016-08-15T08:00:53.000Z</time>
      </trkpt>
      <trkpt lat="47.58469" lon="6.74274">
        <ele>337</ele>
        <time>2016-08-15T08:00:54.000Z</time>
      </trkpt>
      <trkpt lat="47.58474" lon="6.74269">
        <ele>337</ele>
        <time>2016-08-15T08:00:55.000Z</time>
      </trkpt>
      <trkpt lat="47.58478" lon="6.74263">
        <ele>337</ele>
        <time>2016-08-15T08:00:56.000Z</time>
      </trkpt>
      <trkpt lat="47.58483" lon="6.74258">
        <ele>336</ele>
        <time>2016-08-15T08:00:57.000Z</time>
      </trkpt>
      <trkpt lat="47.58487" lon="6.74252">
        <ele>336</ele>
        <time>2016-08-15T08:00:58.000Z</time>
      </trkpt>
      <trkpt lat="47.58498" lon="6.74239">
        <ele>334</ele>
        <time>2016-08-15T08:00:59.000Z</time>
      </trkpt>
      <trkpt lat="47.58501" lon="6.74235">
        <ele>332</ele>
        <time>2016-08-15T08:01:00.000Z</time>
      </trkpt>
      <trkpt lat="47.58504" lon="6.74232">
        <ele>332</ele>
        <time>2016-08-15T08:01:01.000Z</time>
      </trkpt>
      <trkpt lat="47.58507" lon="6.74228">
        <ele>332</ele>
        <time>2016-08-15T08:01:02.000Z</time>
      </trkpt>
      <trkpt lat="47.5851" lon="6.74222">
        <ele>331</ele>
        <time>2016-08-15T08:01:03.000Z</time>
      </trkpt>
      <trkpt lat="47.58512" lon="6.74217">
        <ele>331</ele>
        <time>2016-08-15T08:01:04.000Z</time>
      </trkpt>
      <trkpt lat="47.58515" lon="6.74211">
        <ele>331</ele>
        <time>2016-08-15T08:01:05.000Z</time>
      </trkpt>
      <trkpt lat="47.58516" lon="6.74206">
        <ele>331</ele>
        <time>2016-08-15T08:01:06.000Z</time>
      </trkpt>
      <trkpt lat="47.58521" lon="6.742">
        <ele>331</ele>
        <time>2016-08-15T08:01:07.000Z</time>
      </trkpt>
      <trkpt lat="47.58521" lon="6.74196">
        <ele>331</ele>
        <time>2016-08-15T08:01:08.000Z</time>
      </trkpt>
      <trkpt lat="47.58523" lon="6.74191">
        <ele>330</ele>
        <time>2016-08-15T08:01:09.000Z</time>
      </trkpt>
      <trkpt lat="47.58524" lon="6.74186">
        <ele>330</ele>
        <time>2016-08-15T08:01:10.000Z</time>
      </trkpt>
      <trkpt lat="47.58525" lon="6.74181">
        <ele>330</ele>
        <time>2016-08-15T08:01:11.000Z</time>
      </trkpt>
      <trkpt lat="47.58527" lon="6.74176">
        <ele>330</ele>
        <time>2016-08-15T08:01:12.000Z</time>
      </trkpt>
      <trkpt lat="47.58528" lon="6.74171">
        <ele>330</ele>
        <time>2016-08-15T08:01:13.000Z</time>
      </trkpt>
      <trkpt lat="47.5853" lon="6.74165">
        <ele>330</ele>
        <time>2016-08-15T08:01:14.000Z</time>
      </trkpt>
      <trkpt lat="47.58531" lon="6.74159">
        <ele>330</ele>
        <time>2016-08-15T08:01:15.000Z</time>
      </trkpt>
      <trkpt lat="47.58532" lon="6.74154">
        <ele>330</ele>
        <time>2016-08-15T08:01:16.000Z</time>
      </trkpt>
      <trkpt lat="47.58534" lon="6.74146">
        <ele>330</ele>
        <time>2016-08-15T08:01:17.000Z</time>
      </trkpt>
      <trkpt lat="47.58536" lon="6.74139">
        <ele>330</ele>
        <time>2016-08-15T08:01:18.000Z</time>
      </trkpt>
      <trkpt lat="47.58538" lon="6.74132">
        <ele>330</ele>
        <time>2016-08-15T08:01:19.000Z</time>
      </trkpt>
      <trkpt lat="47.5854" lon="6.74126">
        <ele>330</ele>
        <time>2016-08-15T08:01:20.000Z</time>
      </trkpt>
      <trkpt lat="47.58542" lon="6.74119">
        <ele>329</ele>
        <time>2016-08-15T08:01:21.000Z</time>
      </trkpt>
      <trkpt lat="47.58546" lon="6.74111">
        <ele>329</ele>
        <time>2016-08-15T08:01:22.000Z</time>
      </trkpt>
      <trkpt lat="47.58548" lon="6.74103">
        <ele>329</ele>
        <time>2016-08-15T08:01:23.000Z</time>
      </trkpt>
      <trkpt lat="47.5855" lon="6.74096">
        <ele>329</ele>
        <time>2016-08-15T08:01:24.000Z</time>
      </trkpt>
      <trkpt lat="47.58552" lon="6.74089">
        <ele>329</ele>
        <time>2016-08-15T08:01:25.000Z</time>
      </trkpt>
      <trkpt lat="47.58553" lon="6.74083">
        <ele>329</ele>
        <time>2016-08-15T08:01:26.000Z</time>
      </trkpt>
      <trkpt lat="47.58555" lon="6.74075">
        <ele>330</ele>
        <time>2016-08-15T08:01:27.000Z</time>
      </trkpt>
      <trkpt lat="47.58557" lon="6.74068">
        <ele>330</ele>
        <time>2016-08-15T08:01:28.000Z</time>
      </trkpt>
      <trkpt lat="47.58558" lon="6.74062">
        <ele>330</ele>
        <time>2016-08-15T08:01:29.000Z</time>
      </trkpt>
      <trkpt lat="47.58559" lon="6.74056">
        <ele>330</ele>
        <time>2016-08-15T08:01:30.000Z</time>
      </trkpt>
      <trkpt lat="47.58559" lon="6.74049">
        <ele>330</ele>
        <time>2016-08-15T08:01:31.000Z</time>
      </trkpt>
      <trkpt lat="47.58561" lon="6.74042">
        <ele>330</ele>
        <time>2016-08-15T08:01:32.000Z</time>
      </trkpt>
      <trkpt lat="47.58563" lon="6.74035">
        <ele>330</ele>
        <time>2016-08-15T08:01:33.000Z</time>
      </trkpt>
      <trkpt lat="47.58566" lon="6.74026">
        <ele>330</ele>
        <time>2016-08-15T08:01:34.000Z</time>
      </trkpt>
      <trkpt lat="47.58566" lon="6.74019">
        <ele>330</ele>
        <time>2016-08-15T08:01:35.000Z</time>
      </trkpt>
      <trkpt lat="47.58567" lon="6.74011">
        <ele>330</ele>
        <time>2016-08-15T08:01:36.000Z</time>
      </trkpt>
      <trkpt lat="47.58568" lon="6.74006">
        <ele>330</ele>
        <time>2016-08-15T08:01:37.000Z</time>
      </trkpt>
      <trkpt lat="47.5857" lon="6.74002">
        <ele>330</ele>
        <time>2016-08-15T08:01:38.000Z</time>
      </trkpt>
      <trkpt lat="47.58572" lon="6.73999">
        <ele>330</ele>
        <time>2016-08-15T08:01:39.000Z</time>
      </trkpt>
      <trkpt lat="47.58573" lon="6.73995">
        <ele>330</ele>
        <time>2016-08-15T08:01:40.000Z</time>
      </trkpt>
      <trkpt lat="47.58576" lon="6.73993">
        <ele>330</ele>
        <time>2016-08-15T08:01:41.000Z</time>
      </trkpt>
      <trkpt lat="47.58578" lon="6.73989">
        <ele>330</ele>
        <time>2016-08-15T08:01:42.000Z</time>
      </trkpt>
      <trkpt lat="47.58579" lon="6.73984">
        <ele>330</ele>
        <time>2016-08-15T08:01:43.000Z</time>
      </trkpt>
      <trkpt lat="47.5858" lon="6.73981">
        <ele>331</ele>
        <time>2016-08-15T08:01:44.000Z</time>
      </trkpt>
      <trkpt lat="47.58582" lon="6.73977">
        <ele>331</ele>
        <time>2016-08-15T08:01:46.000Z</time>
      </trkpt>
      <trkpt lat="47.58583" lon="6.73974">
        <ele>331</ele>
        <time>2016-08-15T08:01:47.000Z</time>
      </trkpt>
      <trkpt lat="47.58585" lon="6.73969">
        <ele>329</ele>
        <time>2016-08-15T08:01:49.000Z</time>
      </trkpt>
      <trkpt lat="47.58585" lon="6.73968">
        <ele>329</ele>
        <time>2016-08-15T08:01:50.000Z</time>
      </trkpt>
      <trkpt lat="47.58582" lon="6.73967">
        <ele>331</ele>
        <time>2016-08-15T08:02:10.000Z</time>
      </trkpt>
      <trkpt lat="47.58581" lon="6.73969">
        <ele>331</ele>
        <time>2016-08-15T08:02:11.000Z</time>
      </trkpt>
      <trkpt lat="47.58578" lon="6.73973">
        <ele>331</ele>
        <time>2016-08-15T08:02:13.000Z</time>
      </trkpt>
      <trkpt lat="47.58577" lon="6.73976">
        <ele>331</ele>
        <time>2016-08-15T08:02:14.000Z</time>
      </trkpt>
      <trkpt lat="47.58576" lon="6.73981">
        <ele>331</ele>
        <time>2016-08-15T08:02:16.000Z</time>
      </trkpt>
      <trkpt lat="47.58575" lon="6.73984">
        <ele>331</ele>
        <time>2016-08-15T08:02:17.000Z</time>
      </trkpt>
      <trkpt lat="47.58573" lon="6.73987">
        <ele>331</ele>
        <time>2016-08-15T08:02:18.000Z</time>
      </trkpt>
      <trkpt lat="47.58572" lon="6.7399">
        <ele>330</ele>
        <time>2016-08-15T08:02:19.000Z</time>
      </trkpt>
      <trkpt lat="47.5857" lon="6.73994">
        <ele>330</ele>
        <time>2016-08-15T08:02:20.000Z</time>
      </trkpt>
      <trkpt lat="47.58568" lon="6.73997">
        <ele>331</ele>
        <time>2016-08-15T08:02:21.000Z</time>
      </trkpt>
      <trkpt lat="47.58566" lon="6.74">
        <ele>331</ele>
        <time>2016-08-15T08:02:22.000Z</time>
      </trkpt>
      <trkpt lat="47.58564" lon="6.74003">
        <ele>330</ele>
        <time>2016-08-15T08:02:23.000Z</time>
      </trkpt>
      <trkpt lat="47.58562" lon="6.74005">
        <ele>330</ele>
        <time>2016-08-15T08:02:24.000Z</time>
      </trkpt>
      <trkpt lat="47.5856" lon="6.74007">
        <ele>330</ele>
        <time>2016-08-15T08:02:25.000Z</time>
      </trkpt>
      <trkpt lat="47.58556" lon="6.74008">
        <ele>331</ele>
        <time>2016-08-15T08:02:27.000Z</time>
      </trkpt>
      <trkpt lat="47.58555" lon="6.74007">
        <ele>331</ele>
        <time>2016-08-15T08:02:28.000Z</time>
      </trkpt>
      <trkpt lat="47.58553" lon="6.74004">
        <ele>331</ele>
        <time>2016-08-15T08:02:29.000Z</time>
      </trkpt>
      <trkpt lat="47.58553" lon="6.74001">
        <ele>331</ele>
        <time>2016-08-15T08:02:30.000Z</time>
      </trkpt>
      <trkpt lat="47.58552" lon="6.73996">
        <ele>332</ele>
        <time>2016-08-15T08:02:31.000Z</time>
      </trkpt>
      <trkpt lat="47.58553" lon="6.7399">
        <ele>332</ele>
        <time>2016-08-15T08:02:32.000Z</time>
      </trkpt>
      <trkpt lat="47.58555" lon="6.73983">
        <ele>332</ele>
        <time>2016-08-15T08:02:33.000Z</time>
      </trkpt>
      <trkpt lat="47.58557" lon="6.73977">
        <ele>332</ele>
        <time>2016-08-15T08:02:34.000Z</time>
      </trkpt>
      <trkpt lat="47.58559" lon="6.73972">
        <ele>331</ele>
        <time>2016-08-15T08:02:35.000Z</time>
      </trkpt>
      <trkpt lat="47.58562" lon="6.73967">
        <ele>331</ele>
        <time>2016-08-15T08:02:36.000Z</time>
      </trkpt>
      <trkpt lat="47.58565" lon="6.73963">
        <ele>331</ele>
        <time>2016-08-15T08:02:37.000Z</time>
      </trkpt>
      <trkpt lat="47.58568" lon="6.73958">
        <ele>331</ele>
        <time>2016-08-15T08:02:38.000Z</time>
      </trkpt>
      <trkpt lat="47.58571" lon="6.73954">
        <ele>331</ele>
        <time>2016-08-15T08:02:39.000Z</time>
      </trkpt>
      <trkpt lat="47.58574" lon="6.73949">
        <ele>331</ele>
        <time>2016-08-15T08:02:40.000Z</time>
      </trkpt>
      <trkpt lat="47.58577" lon="6.73945">
        <ele>331</ele>
        <time>2016-08-15T08:02:41.000Z</time>
      </trkpt>
      <trkpt lat="47.5858" lon="6.73942">
        <ele>331</ele>
        <time>2016-08-15T08:02:42.000Z</time>
      </trkpt>
      <trkpt lat="47.58583" lon="6.7394">
        <ele>331</ele>
        <time>2016-08-15T08:02:43.000Z</time>
      </trkpt>
      <trkpt lat="47.58585" lon="6.73939">
        <ele>329</ele>
        <time>2016-08-15T08:02:44.000Z</time>
      </trkpt>
      <trkpt lat="47.5859" lon="6.73938">
        <ele>329</ele>
        <time>2016-08-15T08:02:48.000Z</time>
      </trkpt>
      <trkpt lat="47.5859" lon="6.73938">
        <ele>329</ele>
        <time>2016-08-15T08:02:49.000Z</time>
      </trkpt>
      <trkpt lat="47.58594" lon="6.73938">
        <ele>329</ele>
        <time>2016-08-15T08:02:51.000Z</time>
      </trkpt>
      <trkpt lat="47.58598" lon="6.7394">
        <ele>329</ele>
        <time>2016-08-15T08:02:52.000Z</time>
      </trkpt>
      <trkpt lat="47.58601" lon="6.73944">
        <ele>329</ele>
        <time>2016-08-15T08:02:53.000Z</time>
      </trkpt>
      <trkpt lat="47.58604" lon="6.73949">
        <ele>329</ele>
        <time>2016-08-15T08:02:54.000Z</time>
      </trkpt>
      <trkpt lat="47.58614" lon="6.73973">
        <ele>329</ele>
        <time>2016-08-15T08:02:55.000Z</time>
      </trkpt>
      <trkpt lat="47.58616" lon="6.73977">
        <ele>329</ele>
        <time>2016-08-15T08:02:56.000Z</time>
      </trkpt>
      <trkpt lat="47.58617" lon="6.73983">
        <ele>329</ele>
        <time>2016-08-15T08:02:57.000Z</time>
      </trkpt>
      <trkpt lat="47.58619" lon="6.73989">
        <ele>329</ele>
        <time>2016-08-15T08:02:58.000Z</time>
      </trkpt>
      <trkpt lat="47.5862" lon="6.73995">
        <ele>329</ele>
        <time>2016-08-15T08:02:59.000Z</time>
      </trkpt>
      <trkpt lat="47.58622" lon="6.74001">
        <ele>329</ele>
        <time>2016-08-15T08:03:00.000Z</time>
      </trkpt>
      <trkpt lat="47.58622" lon="6.74008">
        <ele>329</ele>
        <time>2016-08-15T08:03:01.000Z</time>
      </trkpt>
      <trkpt lat="47.58622" lon="6.74015">
        <ele>329</ele>
        <time>2016-08-15T08:03:02.000Z</time>
      </trkpt>
      <trkpt lat="47.58622" lon="6.74022">
        <ele>329</ele>
        <time>2016-08-15T08:03:03.000Z</time>
      </trkpt>
      <trkpt lat="47.58623" lon="6.74028">
        <ele>329</ele>
        <time>2016-08-15T08:03:04.000Z</time>
      </trkpt>
      <trkpt lat="47.58624" lon="6.74036">
        <ele>329</ele>
        <time>2016-08-15T08:03:05.000Z</time>
      </trkpt>
      <trkpt lat="47.58623" lon="6.74043">
        <ele>329</ele>
        <time>2016-08-15T08:03:06.000Z</time>
      </trkpt>
      <trkpt lat="47.58621" lon="6.74051">
        <ele>329</ele>
        <time>2016-08-15T08:03:07.000Z</time>
      </trkpt>
      <trkpt lat="47.58621" lon="6.74059">
        <ele>329</ele>
        <time>2016-08-15T08:03:08.000Z</time>
      </trkpt>
      <trkpt lat="47.58619" lon="6.74065">
        <ele>329</ele>
        <time>2016-08-15T08:03:09.000Z</time>
      </trkpt>
      <trkpt lat="47.58618" lon="6.7407">
        <ele>329</ele>
        <time>2016-08-15T08:03:10.000Z</time>
      </trkpt>
      <trkpt lat="47.58618" lon="6.74078">
        <ele>329</ele>
        <time>2016-08-15T08:03:11.000Z</time>
      </trkpt>
      <trkpt lat="47.58617" lon="6.74084">
        <ele>329</ele>
        <time>2016-08-15T08:03:12.000Z</time>
      </trkpt>
      <trkpt lat="47.58616" lon="6.74091">
        <ele>329</ele>
        <time>2016-08-15T08:03:13.000Z</time>
      </trkpt>
      <trkpt lat="47.58614" lon="6.74097">
        <ele>329</ele>
        <time>2016-08-15T08:03:14.000Z</time>
      </trkpt>
      <trkpt lat="47.58612" lon="6.74104">
        <ele>329</ele>
        <time>2016-08-15T08:03:15.000Z</time>
      </trkpt>
      <trkpt lat="47.5861" lon="6.74109">
        <ele>329</ele>
        <time>2016-08-15T08:03:16.000Z</time>
      </trkpt>
      <trkpt lat="47.58608" lon="6.74116">
        <ele>329</ele>
        <time>2016-08-15T08:03:17.000Z</time>
      </trkpt>
      <trkpt lat="47.58606" lon="6.74122">
        <ele>329</ele>
        <time>2016-08-15T08:03:18.000Z</time>
      </trkpt>
      <trkpt lat="47.58604" lon="6.74127">
        <ele>329</ele>
        <time>2016-08-15T08:03:19.000Z</time>
      </trkpt>
      <trkpt lat="47.58602" lon="6.74132">
        <ele>329</ele>
        <time>2016-08-15T08:03:20.000Z</time>
      </trkpt>
      <trkpt lat="47.58599" lon="6.74139">
        <ele>329</ele>
        <time>2016-08-15T08:03:21.000Z</time>
      </trkpt>
      <trkpt lat="47.58597" lon="6.74145">
        <ele>329</ele>
        <time>2016-08-15T08:03:22.000Z</time>
      </trkpt>
      <trkpt lat="47.58595" lon="6.74149">
        <ele>329</ele>
        <time>2016-08-15T08:03:23.000Z</time>
      </trkpt>
      <trkpt lat="47.58592" lon="6.74154">
        <ele>329</ele>
        <time>2016-08-15T08:03:24.000Z</time>
      </trkpt>
      <trkpt lat="47.58589" lon="6.74159">
        <ele>329</ele>
        <time>2016-08-15T08:03:25.000Z</time>
      </trkpt>
      <trkpt lat="47.58589" lon="6.74174">
        <ele>329</ele>
        <time>2016-08-15T08:03:26.000Z</time>
      </trkpt>
      <trkpt lat="47.58587" lon="6.74183">
        <ele>329</ele>
        <time>2016-08-15T08:03:27.000Z</time>
      </trkpt>
      <trkpt lat="47.58585" lon="6.74192">
        <ele>330</ele>
        <time>2016-08-15T08:03:28.000Z</time>
      </trkpt>
      <trkpt lat="47.58583" lon="6.74201">
        <ele>330</ele>
        <time>2016-08-15T08:03:29.000Z</time>
      </trkpt>
      <trkpt lat="47.58581" lon="6.74203">
        <ele>330</ele>
        <time>2016-08-15T08:03:30.000Z</time>
      </trkpt>
      <trkpt lat="47.5858" lon="6.74211">
        <ele>330</ele>
        <time>2016-08-15T08:03:31.000Z</time>
      </trkpt>
      <trkpt lat="47.58579" lon="6.74218">
        <ele>330</ele>
        <time>2016-08-15T08:03:32.000Z</time>
      </trkpt>
      <trkpt lat="47.58578" lon="6.74224">
        <ele>330</ele>
        <time>2016-08-15T08:03:33.000Z</time>
      </trkpt>
      <trkpt lat="47.58577" lon="6.74231">
        <ele>330</ele>
        <time>2016-08-15T08:03:34.000Z</time>
      </trkpt>
      <trkpt lat="47.58577" lon="6.74238">
        <ele>330</ele>
        <time>2016-08-15T08:03:35.000Z</time>
      </trkpt>
      <trkpt lat="47.58576" lon="6.74245">
        <ele>330</ele>
        <time>2016-08-15T08:03:36.000Z</time>
      </trkpt>
      <trkpt lat="47.58575" lon="6.74253">
        <ele>331</ele>
        <time>2016-08-15T08:03:37.000Z</time>
      </trkpt>
      <trkpt lat="47.58574" lon="6.7426">
        <ele>332</ele>
        <time>2016-08-15T08:03:38.000Z</time>
      </trkpt>
      <trkpt lat="47.58573" lon="6.74265">
        <ele>332</ele>
        <time>2016-08-15T08:03:39.000Z</time>
      </trkpt>
      <trkpt lat="47.58571" lon="6.74269">
        <ele>333</ele>
        <time>2016-08-15T08:03:40.000Z</time>
      </trkpt>
      <trkpt lat="47.58569" lon="6.74273">
        <ele>333</ele>
        <time>2016-08-15T08:03:41.000Z</time>
      </trkpt>
      <trkpt lat="47.58567" lon="6.74277">
        <ele>333</ele>
        <time>2016-08-15T08:03:42.000Z</time>
      </trkpt>
      <trkpt lat="47.58566" lon="6.7428">
        <ele>334</ele>
        <time>2016-08-15T08:03:43.000Z</time>
      </trkpt>
      <trkpt lat="47.58565" lon="6.74284">
        <ele>334</ele>
        <time>2016-08-15T08:03:44.000Z</time>
      </trkpt>
      <trkpt lat="47.58563" lon="6.74289">
        <ele>334</ele>
        <time>2016-08-15T08:03:46.000Z</time>
      </trkpt>
      <trkpt lat="47.58562" lon="6.74292">
        <ele>334</ele>
        <time>2016-08-15T08:03:47.000Z</time>
      </trkpt>
      <trkpt lat="47.5856" lon="6.74295">
        <ele>335</ele>
        <time>2016-08-15T08:03:48.000Z</time>
      </trkpt>
      <trkpt lat="47.58559" lon="6.74297">
        <ele>335</ele>
        <time>2016-08-15T08:03:49.000Z</time>
      </trkpt>
      <trkpt lat="47.58558" lon="6.74301">
        <ele>335</ele>
        <time>2016-08-15T08:03:50.000Z</time>
      </trkpt>
      <trkpt lat="47.58557" lon="6.74304">
        <ele>335</ele>
        <time>2016-08-15T08:03:51.000Z</time>
      </trkpt>
      <trkpt lat="47.58556" lon="6.74308">
        <ele>335</ele>
        <time>2016-08-15T08:03:52.000Z</time>
      </trkpt>
      <trkpt lat="47.58555" lon="6.74312">
        <ele>335</ele>
        <time>2016-08-15T08:03:53.000Z</time>
      </trkpt>
      <trkpt lat="47.58554" lon="6.74316">
        <ele>335</ele>
        <time>2016-08-15T08:03:54.000Z</time>
      </trkpt>
      <trkpt lat="47.58553" lon="6.7432">
        <ele>336</ele>
        <time>2016-08-15T08:03:55.000Z</time>
      </trkpt>
      <trkpt lat="47.58552" lon="6.74324">
        <ele>336</ele>
        <time>2016-08-15T08:03:56.000Z</time>
      </trkpt>
      <trkpt lat="47.58551" lon="6.74328">
        <ele>336</ele>
        <time>2016-08-15T08:03:57.000Z</time>
      </trkpt>
      <trkpt lat="47.5855" lon="6.74332">
        <ele>336</ele>
        <time>2016-08-15T08:03:58.000Z</time>
      </trkpt>
      <trkpt lat="47.58549" lon="6.74335">
        <ele>340</ele>
        <time>2016-08-15T08:03:59.000Z</time>
      </trkpt>
      <trkpt lat="47.58548" lon="6.74339">
        <ele>340</ele>
        <time>2016-08-15T08:04:00.000Z</time>
      </trkpt>
      <trkpt lat="47.58547" lon="6.74342">
        <ele>340</ele>
        <time>2016-08-15T08:04:01.000Z</time>
      </trkpt>
      <trkpt lat="47.58546" lon="6.74348">
        <ele>341</ele>
        <time>2016-08-15T08:04:03.000Z</time>
      </trkpt>
      <trkpt lat="47.58545" lon="6.74351">
        <ele>341</ele>
        <time>2016-08-15T08:04:04.000Z</time>
      </trkpt>
      <trkpt lat="47.58545" lon="6.74355">
        <ele>341</ele>
        <time>2016-08-15T08:04:05.000Z</time>
      </trkpt>
      <trkpt lat="47.58544" lon="6.74359">
        <ele>341</ele>
        <time>2016-08-15T08:04:06.000Z</time>
      </trkpt>
      <trkpt lat="47.58544" lon="6.74363">
        <ele>341</ele>
        <time>2016-08-15T08:04:07.000Z</time>
      </trkpt>
      <trkpt lat="47.58544" lon="6.74367">
        <ele>342</ele>
        <time>2016-08-15T08:04:08.000Z</time>
      </trkpt>
      <trkpt lat="47.58544" lon="6.74373">
        <ele>342</ele>
        <time>2016-08-15T08:04:10.000Z</time>
      </trkpt>
      <trkpt lat="47.58544" lon="6.74377">
        <ele>342</ele>
        <time>2016-08-15T08:04:11.000Z</time>
      </trkpt>
      <trkpt lat="47.58543" lon="6.74381">
        <ele>342</ele>
        <time>2016-08-15T08:04:12.000Z</time>
      </trkpt>
      <trkpt lat="47.58543" lon="6.74386">
        <ele>342</ele>
        <time>2016-08-15T08:04:13.000Z</time>
      </trkpt>
      <trkpt lat="47.58542" lon="6.7439">
        <ele>342</ele>
        <time>2016-08-15T08:04:14.000Z</time>
      </trkpt>
      <trkpt lat="47.58542" lon="6.74393">
        <ele>343</ele>
        <time>2016-08-15T08:04:15.000Z</time>
      </trkpt>
      <trkpt lat="47.58541" lon="6.74397">
        <ele>343</ele>
        <time>2016-08-15T08:04:16.000Z</time>
      </trkpt>
      <trkpt lat="47.5854" lon="6.744">
        <ele>343</ele>
        <time>2016-08-15T08:04:17.000Z</time>
      </trkpt>
      <trkpt lat="47.5854" lon="6.74404">
        <ele>343</ele>
        <time>2016-08-15T08:04:18.000Z</time>
      </trkpt>
      <trkpt lat="47.58539" lon="6.74408">
        <ele>343</ele>
        <time>2016-08-15T08:04:19.000Z</time>
      </trkpt>
      <trkpt lat="47.58538" lon="6.74412">
        <ele>343</ele>
        <time>2016-08-15T08:04:20.000Z</time>
      </trkpt>
      <trkpt lat="47.58537" lon="6.74417">
        <ele>343</ele>
        <time>2016-08-15T08:04:21.000Z</time>
      </trkpt>
      <trkpt lat="47.58537" lon="6.7442">
        <ele>347</ele>
        <time>2016-08-15T08:04:22.000Z</time>
      </trkpt>
      <trkpt lat="47.58536" lon="6.74424">
        <ele>347</ele>
        <time>2016-08-15T08:04:23.000Z</time>
      </trkpt>
      <trkpt lat="47.58536" lon="6.74428">
        <ele>347</ele>
        <time>2016-08-15T08:04:24.000Z</time>
      </trkpt>
      <trkpt lat="47.58535" lon="6.74431">
        <ele>347</ele>
        <time>2016-08-15T08:04:25.000Z</time>
      </trkpt>
      <trkpt lat="47.58535" lon="6.74438">
        <ele>347</ele>
        <time>2016-08-15T08:04:27.000Z</time>
      </trkpt>
      <trkpt lat="47.58535" lon="6.74441">
        <ele>348</ele>
        <time>2016-08-15T08:04:28.000Z</time>
      </trkpt>
      <trkpt lat="47.58535" lon="6.74448">
        <ele>348</ele>
        <time>2016-08-15T08:04:30.000Z</time>
      </trkpt>
      <trkpt lat="47.58535" lon="6.74451">
        <ele>348</ele>
        <time>2016-08-15T08:04:31.000Z</time>
      </trkpt>
      <trkpt lat="47.58535" lon="6.74458">
        <ele>348</ele>
        <time>2016-08-15T08:04:33.000Z</time>
      </trkpt>
      <trkpt lat="47.58535" lon="6.74461">
        <ele>348</ele>
        <time>2016-08-15T08:04:34.000Z</time>
      </trkpt>
      <trkpt lat="47.58534" lon="6.74466">
        <ele>348</ele>
        <time>2016-08-15T08:04:36.000Z</time>
      </trkpt>
      <trkpt lat="47.58534" lon="6.74469">
        <ele>348</ele>
        <time>2016-08-15T08:04:37.000Z</time>
      </trkpt>
      <trkpt lat="47.58534" lon="6.74476">
        <ele>349</ele>
        <time>2016-08-15T08:04:39.000Z</time>
      </trkpt>
      <trkpt lat="47.58534" lon="6.74479">
        <ele>349</ele>
        <time>2016-08-15T08:04:40.000Z</time>
      </trkpt>
      <trkpt lat="47.58534" lon="6.74482">
        <ele>349</ele>
        <time>2016-08-15T08:04:41.000Z</time>
      </trkpt>
      <trkpt lat="47.58534" lon="6.74486">
        <ele>349</ele>
        <time>2016-08-15T08:04:42.000Z</time>
      </trkpt>
      <trkpt lat="47.58534" lon="6.74489">
        <ele>349</ele>
        <time>2016-08-15T08:04:43.000Z</time>
      </trkpt>
      <trkpt lat="47.58534" lon="6.74492">
        <ele>349</ele>
        <time>2016-08-15T08:04:44.000Z</time>
      </trkpt>
      <trkpt lat="47.58534" lon="6.74498">
        <ele>349</ele>
        <time>2016-08-15T08:04:46.000Z</time>
      </trkpt>
      <trkpt lat="47.58534" lon="6.74501">
        <ele>352</ele>
        <time>2016-08-15T08:04:47.000Z</time>
      </trkpt>
      <trkpt lat="47.58533" lon="6.74507">
        <ele>352</ele>
        <time>2016-08-15T08:04:49.000Z</time>
      </trkpt>
      <trkpt lat="47.58533" lon="6.7451">
        <ele>352</ele>
        <time>2016-08-15T08:04:50.000Z</time>
      </trkpt>
      <trkpt lat="47.58532" lon="6.74514">
        <ele>352</ele>
        <time>2016-08-15T08:04:51.000Z</time>
      </trkpt>
      <trkpt lat="47.58532" lon="6.74518">
        <ele>352</ele>
        <time>2016-08-15T08:04:52.000Z</time>
      </trkpt>
      <trkpt lat="47.58531" lon="6.74522">
        <ele>353</ele>
        <time>2016-08-15T08:04:53.000Z</time>
      </trkpt>
      <trkpt lat="47.58531" lon="6.74526">
        <ele>353</ele>
        <time>2016-08-15T08:04:54.000Z</time>
      </trkpt>
      <trkpt lat="47.5853" lon="6.7453">
        <ele>353</ele>
        <time>2016-08-15T08:04:55.000Z</time>
      </trkpt>
      <trkpt lat="47.5853" lon="6.74533">
        <ele>353</ele>
        <time>2016-08-15T08:04:56.000Z</time>
      </trkpt>
      <trkpt lat="47.5853" lon="6.74537">
        <ele>353</ele>
        <time>2016-08-15T08:04:57.000Z</time>
      </trkpt>
      <trkpt lat="47.5853" lon="6.74541">
        <ele>353</ele>
        <time>2016-08-15T08:04:58.000Z</time>
      </trkpt>
      <trkpt lat="47.5853" lon="6.74545">
        <ele>353</ele>
        <time>2016-08-15T08:04:59.000Z</time>
      </trkpt>
      <trkpt lat="47.5853" lon="6.74549">
        <ele>353</ele>
        <time>2016-08-15T08:05:00.000Z</time>
      </trkpt>
      <trkpt lat="47.5853" lon="6.74553">
        <ele>353</ele>
        <time>2016-08-15T08:05:01.000Z</time>
      </trkpt>
      <trkpt lat="47.58529" lon="6.74556">
        <ele>353</ele>
        <time>2016-08-15T08:05:02.000Z</time>
      </trkpt>
      <trkpt lat="47.58528" lon="6.74562">
        <ele>353</ele>
        <time>2016-08-15T08:05:04.000Z</time>
      </trkpt>
      <trkpt lat="47.58528" lon="6.74565">
        <ele>353</ele>
        <time>2016-08-15T08:05:05.000Z</time>
      </trkpt>
      <trkpt lat="47.58528" lon="6.74571">
        <ele>354</ele>
        <time>2016-08-15T08:05:07.000Z</time>
      </trkpt>
      <trkpt lat="47.58527" lon="6.74575">
        <ele>354</ele>
        <time>2016-08-15T08:05:08.000Z</time>
      </trkpt>
      <trkpt lat="47.58527" lon="6.74579">
        <ele>354</ele>
        <time>2016-08-15T08:05:09.000Z</time>
      </trkpt>
      <trkpt lat="47.58527" lon="6.74583">
        <ele>354</ele>
        <time>2016-08-15T08:05:10.000Z</time>
      </trkpt>
      <trkpt lat="47.58527" lon="6.74586">
        <ele>356</ele>
        <time>2016-08-15T08:05:11.000Z</time>
      </trkpt>
      <trkpt lat="47.58527" lon="6.7459">
        <ele>356</ele>
        <time>2016-08-15T08:05:12.000Z</time>
      </trkpt>
      <trkpt lat="47.58528" lon="6.74593">
        <ele>356</ele>
        <time>2016-08-15T08:05:13.000Z</time>
      </trkpt>
      <trkpt lat="47.58528" lon="6.74597">
        <ele>356</ele>
        <time>2016-08-15T08:05:14.000Z</time>
      </trkpt>
      <trkpt lat="47.58528" lon="6.746">
        <ele>356</ele>
        <time>2016-08-15T08:05:15.000Z</time>
      </trkpt>
      <trkpt lat="47.58528" lon="6.74604">
        <ele>356</ele>
        <time>2016-08-15T08:05:16.000Z</time>
      </trkpt>
      <trkpt lat="47.58528" lon="6.7461">
        <ele>356</ele>
        <time>2016-08-15T08:05:18.000Z</time>
      </trkpt>
      <trkpt lat="47.58528" lon="6.74613">
        <ele>356</ele>
        <time>2016-08-15T08:05:19.000Z</time>
      </trkpt>
      <trkpt lat="47.58528" lon="6.74618">
        <ele>356</ele>
        <time>2016-08-15T08:05:21.000Z</time>
      </trkpt>
      <trkpt lat="47.58528" lon="6.74621">
        <ele>356</ele>
        <time>2016-08-15T08:05:22.000Z</time>
      </trkpt>
      <trkpt lat="47.58527" lon="6.74628">
        <ele>356</ele>
        <time>2016-08-15T08:05:24.000Z</time>
      </trkpt>
      <trkpt lat="47.58527" lon="6.74631">
        <ele>357</ele>
        <time>2016-08-15T08:05:25.000Z</time>
      </trkpt>
      <trkpt lat="47.58527" lon="6.74637">
        <ele>357</ele>
        <time>2016-08-15T08:05:27.000Z</time>
      </trkpt>
      <trkpt lat="47.58527" lon="6.7464">
        <ele>357</ele>
        <time>2016-08-15T08:05:28.000Z</time>
      </trkpt>
      <trkpt lat="47.58527" lon="6.74644">
        <ele>357</ele>
        <time>2016-08-15T08:05:29.000Z</time>
      </trkpt>
      <trkpt lat="47.58527" lon="6.74647">
        <ele>357</ele>
        <time>2016-08-15T08:05:30.000Z</time>
      </trkpt>
      <trkpt lat="47.58528" lon="6.74653">
        <ele>357</ele>
        <time>2016-08-15T08:05:32.000Z</time>
      </trkpt>
      <trkpt lat="47.58528" lon="6.74656">
        <ele>357</ele>
        <time>2016-08-15T08:05:33.000Z</time>
      </trkpt>
      <trkpt lat="47.58527" lon="6.74662">
        <ele>357</ele>
        <time>2016-08-15T08:05:35.000Z</time>
      </trkpt>
      <trkpt lat="47.58526" lon="6.74665">
        <ele>357</ele>
        <time>2016-08-15T08:05:36.000Z</time>
      </trkpt>
      <trkpt lat="47.58526" lon="6.74668">
        <ele>359</ele>
        <time>2016-08-15T08:05:37.000Z</time>
      </trkpt>
      <trkpt lat="47.58526" lon="6.74672">
        <ele>359</ele>
        <time>2016-08-15T08:05:38.000Z</time>
      </trkpt>
      <trkpt lat="47.58526" lon="6.74675">
        <ele>359</ele>
        <time>2016-08-15T08:05:39.000Z</time>
      </trkpt>
      <trkpt lat="47.58526" lon="6.74679">
        <ele>359</ele>
        <time>2016-08-15T08:05:40.000Z</time>
      </trkpt>
      <trkpt lat="47.58526" lon="6.74683">
        <ele>359</ele>
        <time>2016-08-15T08:05:41.000Z</time>
      </trkpt>
      <trkpt lat="47.58527" lon="6.74687">
        <ele>359</ele>
        <time>2016-08-15T08:05:42.000Z</time>
      </trkpt>
      <trkpt lat="47.58527" lon="6.74691">
        <ele>359</ele>
        <time>2016-08-15T08:05:43.000Z</time>
      </trkpt>
      <trkpt lat="47.58528" lon="6.74695">
        <ele>359</ele>
        <time>2016-08-15T08:05:44.000Z</time>
      </trkpt>
      <trkpt lat="47.58528" lon="6.74699">
        <ele>360</ele>
        <time>2016-08-15T08:05:45.000Z</time>
      </trkpt>
      <trkpt lat="47.58529" lon="6.74703">
        <ele>360</ele>
        <time>2016-08-15T08:05:46.000Z</time>
      </trkpt>
      <trkpt lat="47.5853" lon="6.74706">
        <ele>360</ele>
        <time>2016-08-15T08:05:47.000Z</time>
      </trkpt>
      <trkpt lat="47.58531" lon="6.7471">
        <ele>360</ele>
        <time>2016-08-15T08:05:48.000Z</time>
      </trkpt>
      <trkpt lat="47.58533" lon="6.74713">
        <ele>360</ele>
        <time>2016-08-15T08:05:49.000Z</time>
      </trkpt>
      <trkpt lat="47.58535" lon="6.74716">
        <ele>360</ele>
        <time>2016-08-15T08:05:50.000Z</time>
      </trkpt>
      <trkpt lat="47.58538" lon="6.74718">
        <ele>360</ele>
        <time>2016-08-15T08:05:51.000Z</time>
      </trkpt>
      <trkpt lat="47.58541" lon="6.7472">
        <ele>361</ele>
        <time>2016-08-15T08:05:52.000Z</time>
      </trkpt>
      <trkpt lat="47.58543" lon="6.74722">
        <ele>361</ele>
        <time>2016-08-15T08:05:53.000Z</time>
      </trkpt>
      <trkpt lat="47.58546" lon="6.74724">
        <ele>361</ele>
        <time>2016-08-15T08:05:54.000Z</time>
      </trkpt>
      <trkpt lat="47.58549" lon="6.74727">
        <ele>362</ele>
        <time>2016-08-15T08:05:55.000Z</time>
      </trkpt>
      <trkpt lat="47.58552" lon="6.74729">
        <ele>362</ele>
        <time>2016-08-15T08:05:56.000Z</time>
      </trkpt>
      <trkpt lat="47.58555" lon="6.74732">
        <ele>362</ele>
        <time>2016-08-15T08:05:57.000Z</time>
      </trkpt>
      <trkpt lat="47.58557" lon="6.74735">
        <ele>363</ele>
        <time>2016-08-15T08:05:58.000Z</time>
      </trkpt>
      <trkpt lat="47.5856" lon="6.74738">
        <ele>363</ele>
        <time>2016-08-15T08:05:59.000Z</time>
      </trkpt>
      <trkpt lat="47.58562" lon="6.74742">
        <ele>364</ele>
        <time>2016-08-15T08:06:00.000Z</time>
      </trkpt>
      <trkpt lat="47.58564" lon="6.74746">
        <ele>364</ele>
        <time>2016-08-15T08:06:01.000Z</time>
      </trkpt>
      <trkpt lat="47.58566" lon="6.7475">
        <ele>365</ele>
        <time>2016-08-15T08:06:02.000Z</time>
      </trkpt>
      <trkpt lat="47.58568" lon="6.74754">
        <ele>366</ele>
        <time>2016-08-15T08:06:03.000Z</time>
      </trkpt>
      <trkpt lat="47.5857" lon="6.74758">
        <ele>367</ele>
        <time>2016-08-15T08:06:04.000Z</time>
      </trkpt>
      <trkpt lat="47.58572" lon="6.74763">
        <ele>367</ele>
        <time>2016-08-15T08:06:05.000Z</time>
      </trkpt>
      <trkpt lat="47.58574" lon="6.74767">
        <ele>366</ele>
        <time>2016-08-15T08:06:06.000Z</time>
      </trkpt>
      <trkpt lat="47.58576" lon="6.74772">
        <ele>366</ele>
        <time>2016-08-15T08:06:07.000Z</time>
      </trkpt>
      <trkpt lat="47.58577" lon="6.74776">
        <ele>366</ele>
        <time>2016-08-15T08:06:08.000Z</time>
      </trkpt>
      <trkpt lat="47.58577" lon="6.74781">
        <ele>366</ele>
        <time>2016-08-15T08:06:09.000Z</time>
      </trkpt>
      <trkpt lat="47.58577" lon="6.74785">
        <ele>366</ele>
        <time>2016-08-15T08:06:10.000Z</time>
      </trkpt>
      <trkpt lat="47.58576" lon="6.7479">
        <ele>366</ele>
        <time>2016-08-15T08:06:11.000Z</time>
      </trkpt>
      <trkpt lat="47.58575" lon="6.74794">
        <ele>366</ele>
        <time>2016-08-15T08:06:12.000Z</time>
      </trkpt>
      <trkpt lat="47.58573" lon="6.74799">
        <ele>366</ele>
        <time>2016-08-15T08:06:13.000Z</time>
      </trkpt>
      <trkpt lat="47.58571" lon="6.74803">
        <ele>367</ele>
        <time>2016-08-15T08:06:14.000Z</time>
      </trkpt>
      <trkpt lat="47.58569" lon="6.74806">
        <ele>367</ele>
        <time>2016-08-15T08:06:15.000Z</time>
      </trkpt>
      <trkpt lat="47.58568" lon="6.7481">
        <ele>367</ele>
        <time>2016-08-15T08:06:16.000Z</time>
      </trkpt>
      <trkpt lat="47.58567" lon="6.74814">
        <ele>367</ele>
        <time>2016-08-15T08:06:17.000Z</time>
      </trkpt>
      <trkpt lat="47.58566" lon="6.74818">
        <ele>367</ele>
        <time>2016-08-15T08:06:18.000Z</time>
      </trkpt>
      <trkpt lat="47.58566" lon="6.74823">
        <ele>368</ele>
        <time>2016-08-15T08:06:19.000Z</time>
      </trkpt>
      <trkpt lat="47.58566" lon="6.74828">
        <ele>368</ele>
        <time>2016-08-15T08:06:20.000Z</time>
      </trkpt>
      <trkpt lat="47.58567" lon="6.74833">
        <ele>368</ele>
        <time>2016-08-15T08:06:21.000Z</time>
      </trkpt>
      <trkpt lat="47.58567" lon="6.74838">
        <ele>368</ele>
        <time>2016-08-15T08:06:22.000Z</time>
      </trkpt>
      <trkpt lat="47.58567" lon="6.74842">
        <ele>368</ele>
        <time>2016-08-15T08:06:23.000Z</time>
      </trkpt>
      <trkpt lat="47.58569" lon="6.74847">
        <ele>368</ele>
        <time>2016-08-15T08:06:24.000Z</time>
      </trkpt>
      <trkpt lat="47.58569" lon="6.7485">
        <ele>368</ele>
        <time>2016-08-15T08:06:25.000Z</time>
      </trkpt>
      <trkpt lat="47.58571" lon="6.74854">
        <ele>368</ele>
        <time>2016-08-15T08:06:26.000Z</time>
      </trkpt>
      <trkpt lat="47.58572" lon="6.74858">
        <ele>367</ele>
        <time>2016-08-15T08:06:27.000Z</time>
      </trkpt>
      <trkpt lat="47.58573" lon="6.74861">
        <ele>367</ele>
        <time>2016-08-15T08:06:28.000Z</time>
      </trkpt>
      <trkpt lat="47.58574" lon="6.74865">
        <ele>367</ele>
        <time>2016-08-15T08:06:29.000Z</time>
      </trkpt>
      <trkpt lat="47.58574" lon="6.74868">
        <ele>367</ele>
        <time>2016-08-15T08:06:30.000Z</time>
      </trkpt>
      <trkpt lat="47.58575" lon="6.74873">
        <ele>366</ele>
        <time>2016-08-15T08:06:32.000Z</time>
      </trkpt>
      <trkpt lat="47.58576" lon="6.74875">
        <ele>366</ele>
        <time>2016-08-15T08:06:33.000Z</time>
      </trkpt>
      <trkpt lat="47.58576" lon="6.74881">
        <ele>366</ele>
        <time>2016-08-15T08:06:36.000Z</time>
      </trkpt>
      <trkpt lat="47.58575" lon="6.74883">
        <ele>366</ele>
        <time>2016-08-15T08:06:37.000Z</time>
      </trkpt>
      <trkpt lat="47.58573" lon="6.74886">
        <ele>366</ele>
        <time>2016-08-15T08:06:39.000Z</time>
      </trkpt>
      <trkpt lat="47.58573" lon="6.74889">
        <ele>366</ele>
        <time>2016-08-15T08:06:40.000Z</time>
      </trkpt>
      <trkpt lat="47.58573" lon="6.74895">
        <ele>366</ele>
        <time>2016-08-15T08:06:42.000Z</time>
      </trkpt>
      <trkpt lat="47.58575" lon="6.74898">
        <ele>366</ele>
        <time>2016-08-15T08:06:43.000Z</time>
      </trkpt>
      <trkpt lat="47.58576" lon="6.74902">
        <ele>366</ele>
        <time>2016-08-15T08:06:44.000Z</time>
      </trkpt>
      <trkpt lat="47.58577" lon="6.74906">
        <ele>367</ele>
        <time>2016-08-15T08:06:45.000Z</time>
      </trkpt>
      <trkpt lat="47.58578" lon="6.74909">
        <ele>367</ele>
        <time>2016-08-15T08:06:46.000Z</time>
      </trkpt>
      <trkpt lat="47.58578" lon="6.74913">
        <ele>367</ele>
        <time>2016-08-15T08:06:47.000Z</time>
      </trkpt>
      <trkpt lat="47.58579" lon="6.74916">
        <ele>367</ele>
        <time>2016-08-15T08:06:48.000Z</time>
      </trkpt>
      <trkpt lat="47.58581" lon="6.74919">
        <ele>368</ele>
        <time>2016-08-15T08:06:49.000Z</time>
      </trkpt>
      <trkpt lat="47.58582" lon="6.74924">
        <ele>367</ele>
        <time>2016-08-15T08:06:51.000Z</time>
      </trkpt>
      <trkpt lat="47.58582" lon="6.74928">
        <ele>367</ele>
        <time>2016-08-15T08:06:52.000Z</time>
      </trkpt>
      <trkpt lat="47.58583" lon="6.74933">
        <ele>367</ele>
        <time>2016-08-15T08:06:53.000Z</time>
      </trkpt>
      <trkpt lat="47.58583" lon="6.74939">
        <ele>366</ele>
        <time>2016-08-15T08:06:54.000Z</time>
      </trkpt>
      <trkpt lat="47.58584" lon="6.74945">
        <ele>377</ele>
        <time>2016-08-15T08:06:55.000Z</time>
      </trkpt>
      <trkpt lat="47.58584" lon="6.7495">
        <ele>378</ele>
        <time>2016-08-15T08:06:56.000Z</time>
      </trkpt>
      <trkpt lat="47.58585" lon="6.74955">
        <ele>378</ele>
        <time>2016-08-15T08:06:57.000Z</time>
      </trkpt>
      <trkpt lat="47.58585" lon="6.74958">
        <ele>379</ele>
        <time>2016-08-15T08:06:58.000Z</time>
      </trkpt>
      <trkpt lat="47.58585" lon="6.74964">
        <ele>379</ele>
        <time>2016-08-15T08:07:00.000Z</time>
      </trkpt>
      <trkpt lat="47.58584" lon="6.74968">
        <ele>379</ele>
        <time>2016-08-15T08:07:01.000Z</time>
      </trkpt>
      <trkpt lat="47.58585" lon="6.74972">
        <ele>378</ele>
        <time>2016-08-15T08:07:02.000Z</time>
      </trkpt>
      <trkpt lat="47.58585" lon="6.74977">
        <ele>378</ele>
        <time>2016-08-15T08:07:02.999Z</time>
      </trkpt>
      <trkpt lat="47.58585" lon="6.74982">
        <ele>377</ele>
        <time>2016-08-15T08:07:04.000Z</time>
      </trkpt>
      <trkpt lat="47.58586" lon="6.74986">
        <ele>377</ele>
        <time>2016-08-15T08:07:05.000Z</time>
      </trkpt>
      <trkpt lat="47.58586" lon="6.7499">
        <ele>376</ele>
        <time>2016-08-15T08:07:06.000Z</time>
      </trkpt>
      <trkpt lat="47.58586" lon="6.74994">
        <ele>375</ele>
        <time>2016-08-15T08:07:06.999Z</time>
      </trkpt>
      <trkpt lat="47.58585" lon="6.74997">
        <ele>374</ele>
        <time>2016-08-15T08:07:08.000Z</time>
      </trkpt>
      <trkpt lat="47.58585" lon="6.75">
        <ele>373</ele>
        <time>2016-08-15T08:07:09.000Z</time>
      </trkpt>
      <trkpt lat="47.58582" lon="6.75004">
        <ele>371</ele>
        <time>2016-08-15T08:07:11.000Z</time>
      </trkpt>
      <trkpt lat="47.58581" lon="6.75007">
        <ele>371</ele>
        <time>2016-08-15T08:07:12.000Z</time>
      </trkpt>
      <trkpt lat="47.58578" lon="6.75011">
        <ele>370</ele>
        <time>2016-08-15T08:07:14.000Z</time>
      </trkpt>
      <trkpt lat="47.58577" lon="6.75014">
        <ele>369</ele>
        <time>2016-08-15T08:07:15.000Z</time>
      </trkpt>
      <trkpt lat="47.58575" lon="6.75017">
        <ele>369</ele>
        <time>2016-08-15T08:07:16.000Z</time>
      </trkpt>
      <trkpt lat="47.58574" lon="6.75021">
        <ele>369</ele>
        <time>2016-08-15T08:07:17.000Z</time>
      </trkpt>
      <trkpt lat="47.58573" lon="6.75026">
        <ele>369</ele>
        <time>2016-08-15T08:07:18.000Z</time>
      </trkpt>
      <trkpt lat="47.58572" lon="6.75032">
        <ele>368</ele>
        <time>2016-08-15T08:07:19.000Z</time>
      </trkpt>
      <trkpt lat="47.58572" lon="6.75038">
        <ele>368</ele>
        <time>2016-08-15T08:07:20.000Z</time>
      </trkpt>
      <trkpt lat="47.58573" lon="6.75043">
        <ele>369</ele>
        <time>2016-08-15T08:07:21.000Z</time>
      </trkpt>
      <trkpt lat="47.58574" lon="6.75047">
        <ele>369</ele>
        <time>2016-08-15T08:07:22.000Z</time>
      </trkpt>
      <trkpt lat="47.58575" lon="6.75051">
        <ele>369</ele>
        <time>2016-08-15T08:07:23.000Z</time>
      </trkpt>
      <trkpt lat="47.58576" lon="6.75055">
        <ele>370</ele>
        <time>2016-08-15T08:07:24.000Z</time>
      </trkpt>
      <trkpt lat="47.58577" lon="6.75058">
        <ele>370</ele>
        <time>2016-08-15T08:07:25.000Z</time>
      </trkpt>
      <trkpt lat="47.58578" lon="6.75062">
        <ele>370</ele>
        <time>2016-08-15T08:07:26.000Z</time>
      </trkpt>
      <trkpt lat="47.58579" lon="6.75066">
        <ele>371</ele>
        <time>2016-08-15T08:07:27.000Z</time>
      </trkpt>
      <trkpt lat="47.5858" lon="6.7507">
        <ele>372</ele>
        <time>2016-08-15T08:07:28.000Z</time>
      </trkpt>
      <trkpt lat="47.58582" lon="6.75073">
        <ele>373</ele>
        <time>2016-08-15T08:07:29.000Z</time>
      </trkpt>
      <trkpt lat="47.58583" lon="6.75077">
        <ele>374</ele>
        <time>2016-08-15T08:07:30.000Z</time>
      </trkpt>
      <trkpt lat="47.58585" lon="6.75081">
        <ele>377</ele>
        <time>2016-08-15T08:07:31.000Z</time>
      </trkpt>
      <trkpt lat="47.58586" lon="6.75086">
        <ele>377</ele>
        <time>2016-08-15T08:07:32.000Z</time>
      </trkpt>
      <trkpt lat="47.58587" lon="6.7509">
        <ele>379</ele>
        <time>2016-08-15T08:07:33.000Z</time>
      </trkpt>
      <trkpt lat="47.58589" lon="6.75094">
        <ele>380</ele>
        <time>2016-08-15T08:07:34.000Z</time>
      </trkpt>
      <trkpt lat="47.58589" lon="6.75098">
        <ele>380</ele>
        <time>2016-08-15T08:07:35.000Z</time>
      </trkpt>
      <trkpt lat="47.58591" lon="6.75101">
        <ele>381</ele>
        <time>2016-08-15T08:07:36.000Z</time>
      </trkpt>
      <trkpt lat="47.58594" lon="6.75104">
        <ele>381</ele>
        <time>2016-08-15T08:07:37.000Z</time>
      </trkpt>
      <trkpt lat="47.58596" lon="6.75107">
        <ele>382</ele>
        <time>2016-08-15T08:07:38.000Z</time>
      </trkpt>
      <trkpt lat="47.58602" lon="6.75112">
        <ele>383</ele>
        <time>2016-08-15T08:07:39.000Z</time>
      </trkpt>
      <trkpt lat="47.58605" lon="6.75114">
        <ele>383</ele>
        <time>2016-08-15T08:07:40.000Z</time>
      </trkpt>
      <trkpt lat="47.58605" lon="6.75119">
        <ele>383</ele>
        <time>2016-08-15T08:07:41.000Z</time>
      </trkpt>
      <trkpt lat="47.58607" lon="6.75123">
        <ele>383</ele>
        <time>2016-08-15T08:07:42.000Z</time>
      </trkpt>
      <trkpt lat="47.58608" lon="6.75127">
        <ele>383</ele>
        <time>2016-08-15T08:07:43.000Z</time>
      </trkpt>
      <trkpt lat="47.58609" lon="6.75131">
        <ele>384</ele>
        <time>2016-08-15T08:07:44.000Z</time>
      </trkpt>
      <trkpt lat="47.5861" lon="6.75135">
        <ele>383</ele>
        <time>2016-08-15T08:07:45.000Z</time>
      </trkpt>
      <trkpt lat="47.58611" lon="6.75139">
        <ele>383</ele>
        <time>2016-08-15T08:07:46.000Z</time>
      </trkpt>
      <trkpt lat="47.58609" lon="6.75145">
        <ele>383</ele>
        <time>2016-08-15T08:07:47.000Z</time>
      </trkpt>
      <trkpt lat="47.58609" lon="6.75151">
        <ele>382</ele>
        <time>2016-08-15T08:07:48.000Z</time>
      </trkpt>
      <trkpt lat="47.5861" lon="6.75155">
        <ele>382</ele>
        <time>2016-08-15T08:07:49.000Z</time>
      </trkpt>
      <trkpt lat="47.58611" lon="6.75159">
        <ele>382</ele>
        <time>2016-08-15T08:07:50.000Z</time>
      </trkpt>
      <trkpt lat="47.58612" lon="6.75163">
        <ele>382</ele>
        <time>2016-08-15T08:07:51.000Z</time>
      </trkpt>
      <trkpt lat="47.58613" lon="6.75167">
        <ele>380</ele>
        <time>2016-08-15T08:07:52.000Z</time>
      </trkpt>
      <trkpt lat="47.58614" lon="6.75171">
        <ele>380</ele>
        <time>2016-08-15T08:07:53.000Z</time>
      </trkpt>
      <trkpt lat="47.58615" lon="6.75176">
        <ele>381</ele>
        <time>2016-08-15T08:07:54.000Z</time>
      </trkpt>
      <trkpt lat="47.58616" lon="6.7518">
        <ele>381</ele>
        <time>2016-08-15T08:07:55.000Z</time>
      </trkpt>
      <trkpt lat="47.58617" lon="6.75184">
        <ele>381</ele>
        <time>2016-08-15T08:07:56.000Z</time>
      </trkpt>
      <trkpt lat="47.58618" lon="6.75189">
        <ele>381</ele>
        <time>2016-08-15T08:07:57.000Z</time>
      </trkpt>
      <trkpt lat="47.58619" lon="6.75193">
        <ele>381</ele>
        <time>2016-08-15T08:07:58.000Z</time>
      </trkpt>
      <trkpt lat="47.58619" lon="6.75197">
        <ele>381</ele>
        <time>2016-08-15T08:07:59.000Z</time>
      </trkpt>
      <trkpt lat="47.58619" lon="6.75204">
        <ele>381</ele>
        <time>2016-08-15T08:08:01.000Z</time>
      </trkpt>
      <trkpt lat="47.58618" lon="6.75206">
        <ele>381</ele>
        <time>2016-08-15T08:08:02.000Z</time>
      </trkpt>
      <trkpt lat="47.58617" lon="6.75211">
        <ele>381</ele>
        <time>2016-08-15T08:08:04.000Z</time>
      </trkpt>
      <trkpt lat="47.58617" lon="6.75213">
        <ele>381</ele>
        <time>2016-08-15T08:08:05.000Z</time>
      </trkpt>
      <trkpt lat="47.58617" lon="6.75218">
        <ele>380</ele>
        <time>2016-08-15T08:08:07.000Z</time>
      </trkpt>
      <trkpt lat="47.58618" lon="6.7522">
        <ele>380</ele>
        <time>2016-08-15T08:08:08.000Z</time>
      </trkpt>
      <trkpt lat="47.58619" lon="6.75227">
        <ele>380</ele>
        <time>2016-08-15T08:08:10.000Z</time>
      </trkpt>
      <trkpt lat="47.5862" lon="6.7523">
        <ele>380</ele>
        <time>2016-08-15T08:08:11.000Z</time>
      </trkpt>
      <trkpt lat="47.58621" lon="6.75233">
        <ele>380</ele>
        <time>2016-08-15T08:08:12.000Z</time>
      </trkpt>
      <trkpt lat="47.58622" lon="6.75235">
        <ele>380</ele>
        <time>2016-08-15T08:08:13.000Z</time>
      </trkpt>
      <trkpt lat="47.58625" lon="6.7524">
        <ele>381</ele>
        <time>2016-08-15T08:08:15.000Z</time>
      </trkpt>
      <trkpt lat="47.58626" lon="6.75243">
        <ele>381</ele>
        <time>2016-08-15T08:08:16.000Z</time>
      </trkpt>
      <trkpt lat="47.58627" lon="6.75245">
        <ele>381</ele>
        <time>2016-08-15T08:08:17.000Z</time>
      </trkpt>
      <trkpt lat="47.58629" lon="6.75247">
        <ele>381</ele>
        <time>2016-08-15T08:08:18.000Z</time>
      </trkpt>
      <trkpt lat="47.58632" lon="6.75249">
        <ele>381</ele>
        <time>2016-08-15T08:08:19.000Z</time>
      </trkpt>
      <trkpt lat="47.58635" lon="6.75251">
        <ele>380</ele>
        <time>2016-08-15T08:08:20.000Z</time>
      </trkpt>
      <trkpt lat="47.58637" lon="6.75253">
        <ele>380</ele>
        <time>2016-08-15T08:08:21.000Z</time>
      </trkpt>
      <trkpt lat="47.5864" lon="6.75255">
        <ele>380</ele>
        <time>2016-08-15T08:08:22.000Z</time>
      </trkpt>
      <trkpt lat="47.58643" lon="6.75256">
        <ele>381</ele>
        <time>2016-08-15T08:08:23.000Z</time>
      </trkpt>
      <trkpt lat="47.58646" lon="6.75256">
        <ele>381</ele>
        <time>2016-08-15T08:08:24.000Z</time>
      </trkpt>
      <trkpt lat="47.58649" lon="6.75256">
        <ele>382</ele>
        <time>2016-08-15T08:08:25.000Z</time>
      </trkpt>
      <trkpt lat="47.58651" lon="6.75255">
        <ele>382</ele>
        <time>2016-08-15T08:08:26.000Z</time>
      </trkpt>
      <trkpt lat="47.58654" lon="6.75254">
        <ele>383</ele>
        <time>2016-08-15T08:08:27.000Z</time>
      </trkpt>
      <trkpt lat="47.58657" lon="6.75252">
        <ele>383</ele>
        <time>2016-08-15T08:08:28.000Z</time>
      </trkpt>
      <trkpt lat="47.58659" lon="6.7525">
        <ele>384</ele>
        <time>2016-08-15T08:08:29.000Z</time>
      </trkpt>
      <trkpt lat="47.5866" lon="6.75248">
        <ele>385</ele>
        <time>2016-08-15T08:08:30.000Z</time>
      </trkpt>
      <trkpt lat="47.58662" lon="6.75245">
        <ele>385</ele>
        <time>2016-08-15T08:08:31.000Z</time>
      </trkpt>
      <trkpt lat="47.58663" lon="6.75243">
        <ele>385</ele>
        <time>2016-08-15T08:08:32.000Z</time>
      </trkpt>
      <trkpt lat="47.58664" lon="6.7524">
        <ele>385</ele>
        <time>2016-08-15T08:08:33.000Z</time>
      </trkpt>
      <trkpt lat="47.58665" lon="6.75237">
        <ele>385</ele>
        <time>2016-08-15T08:08:34.000Z</time>
      </trkpt>
      <trkpt lat="47.58666" lon="6.75233">
        <ele>384</ele>
        <time>2016-08-15T08:08:35.000Z</time>
      </trkpt>
      <trkpt lat="47.58666" lon="6.7523">
        <ele>384</ele>
        <time>2016-08-15T08:08:36.000Z</time>
      </trkpt>
      <trkpt lat="47.58665" lon="6.75226">
        <ele>384</ele>
        <time>2016-08-15T08:08:37.000Z</time>
      </trkpt>
      <trkpt lat="47.58665" lon="6.75223">
        <ele>384</ele>
        <time>2016-08-15T08:08:38.000Z</time>
      </trkpt>
      <trkpt lat="47.58663" lon="6.75219">
        <ele>384</ele>
        <time>2016-08-15T08:08:39.000Z</time>
      </trkpt>
      <trkpt lat="47.58662" lon="6.75215">
        <ele>384</ele>
        <time>2016-08-15T08:08:40.000Z</time>
      </trkpt>
      <trkpt lat="47.5866" lon="6.75211">
        <ele>384</ele>
        <time>2016-08-15T08:08:41.000Z</time>
      </trkpt>
      <trkpt lat="47.58659" lon="6.75207">
        <ele>385</ele>
        <time>2016-08-15T08:08:42.000Z</time>
      </trkpt>
      <trkpt lat="47.58658" lon="6.75202">
        <ele>385</ele>
        <time>2016-08-15T08:08:43.000Z</time>
      </trkpt>
      <trkpt lat="47.58657" lon="6.75198">
        <ele>385</ele>
        <time>2016-08-15T08:08:44.000Z</time>
      </trkpt>
      <trkpt lat="47.58657" lon="6.75194">
        <ele>386</ele>
        <time>2016-08-15T08:08:45.000Z</time>
      </trkpt>
      <trkpt lat="47.58657" lon="6.7519">
        <ele>387</ele>
        <time>2016-08-15T08:08:46.000Z</time>
      </trkpt>
      <trkpt lat="47.58657" lon="6.75185">
        <ele>387</ele>
        <time>2016-08-15T08:08:47.000Z</time>
      </trkpt>
      <trkpt lat="47.58657" lon="6.75181">
        <ele>388</ele>
        <time>2016-08-15T08:08:48.000Z</time>
      </trkpt>
      <trkpt lat="47.58656" lon="6.75178">
        <ele>389</ele>
        <time>2016-08-15T08:08:49.000Z</time>
      </trkpt>
      <trkpt lat="47.58656" lon="6.75174">
        <ele>389</ele>
        <time>2016-08-15T08:08:50.000Z</time>
      </trkpt>
      <trkpt lat="47.58656" lon="6.7517">
        <ele>390</ele>
        <time>2016-08-15T08:08:51.000Z</time>
      </trkpt>
      <trkpt lat="47.58656" lon="6.75166">
        <ele>392</ele>
        <time>2016-08-15T08:08:52.000Z</time>
      </trkpt>
      <trkpt lat="47.58656" lon="6.75161">
        <ele>391</ele>
        <time>2016-08-15T08:08:53.000Z</time>
      </trkpt>
      <trkpt lat="47.58656" lon="6.75156">
        <ele>391</ele>
        <time>2016-08-15T08:08:54.000Z</time>
      </trkpt>
      <trkpt lat="47.58656" lon="6.75151">
        <ele>390</ele>
        <time>2016-08-15T08:08:55.000Z</time>
      </trkpt>
      <trkpt lat="47.58656" lon="6.75146">
        <ele>390</ele>
        <time>2016-08-15T08:08:56.000Z</time>
      </trkpt>
      <trkpt lat="47.58656" lon="6.75142">
        <ele>390</ele>
        <time>2016-08-15T08:08:57.000Z</time>
      </trkpt>
      <trkpt lat="47.58656" lon="6.75137">
        <ele>389</ele>
        <time>2016-08-15T08:08:58.000Z</time>
      </trkpt>
      <trkpt lat="47.58657" lon="6.75133">
        <ele>389</ele>
        <time>2016-08-15T08:08:59.000Z</time>
      </trkpt>
      <trkpt lat="47.58657" lon="6.75129">
        <ele>389</ele>
        <time>2016-08-15T08:09:00.000Z</time>
      </trkpt>
      <trkpt lat="47.58659" lon="6.75125">
        <ele>390</ele>
        <time>2016-08-15T08:09:01.000Z</time>
      </trkpt>
      <trkpt lat="47.5866" lon="6.7512">
        <ele>390</ele>
        <time>2016-08-15T08:09:02.000Z</time>
      </trkpt>
      <trkpt lat="47.58661" lon="6.75115">
        <ele>390</ele>
        <time>2016-08-15T08:09:03.000Z</time>
      </trkpt>
      <trkpt lat="47.5866" lon="6.75111">
        <ele>391</ele>
        <time>2016-08-15T08:09:04.000Z</time>
      </trkpt>
      <trkpt lat="47.58659" lon="6.75106">
        <ele>391</ele>
        <time>2016-08-15T08:09:05.000Z</time>
      </trkpt>
      <trkpt lat="47.58659" lon="6.75102">
        <ele>392</ele>
        <time>2016-08-15T08:09:06.000Z</time>
      </trkpt>
      <trkpt lat="47.58658" lon="6.75097">
        <ele>393</ele>
        <time>2016-08-15T08:09:07.000Z</time>
      </trkpt>
      <trkpt lat="47.58657" lon="6.75093">
        <ele>393</ele>
        <time>2016-08-15T08:09:08.000Z</time>
      </trkpt>
      <trkpt lat="47.58656" lon="6.75089">
        <ele>394</ele>
        <time>2016-08-15T08:09:09.000Z</time>
      </trkpt>
      <trkpt lat="47.58656" lon="6.75085">
        <ele>394</ele>
        <time>2016-08-15T08:09:10.000Z</time>
      </trkpt>
      <trkpt lat="47.58656" lon="6.75081">
        <ele>395</ele>
        <time>2016-08-15T08:09:11.000Z</time>
      </trkpt>
      <trkpt lat="47.58656" lon="6.75078">
        <ele>394</ele>
        <time>2016-08-15T08:09:12.000Z</time>
      </trkpt>
      <trkpt lat="47.58656" lon="6.75074">
        <ele>394</ele>
        <time>2016-08-15T08:09:13.000Z</time>
      </trkpt>
      <trkpt lat="47.58657" lon="6.75071">
        <ele>393</ele>
        <time>2016-08-15T08:09:14.000Z</time>
      </trkpt>
      <trkpt lat="47.58658" lon="6.75067">
        <ele>393</ele>
        <time>2016-08-15T08:09:15.000Z</time>
      </trkpt>
      <trkpt lat="47.58659" lon="6.75063">
        <ele>392</ele>
        <time>2016-08-15T08:09:16.000Z</time>
      </trkpt>
      <trkpt lat="47.5866" lon="6.75059">
        <ele>392</ele>
        <time>2016-08-15T08:09:17.000Z</time>
      </trkpt>
      <trkpt lat="47.58661" lon="6.75055">
        <ele>392</ele>
        <time>2016-08-15T08:09:18.000Z</time>
      </trkpt>
      <trkpt lat="47.58662" lon="6.75051">
        <ele>391</ele>
        <time>2016-08-15T08:09:19.000Z</time>
      </trkpt>
      <trkpt lat="47.58662" lon="6.75046">
        <ele>391</ele>
        <time>2016-08-15T08:09:20.000Z</time>
      </trkpt>
      <trkpt lat="47.58662" lon="6.75042">
        <ele>391</ele>
        <time>2016-08-15T08:09:21.000Z</time>
      </trkpt>
      <trkpt lat="47.58662" lon="6.75038">
        <ele>391</ele>
        <time>2016-08-15T08:09:22.000Z</time>
      </trkpt>
      <trkpt lat="47.58662" lon="6.75032">
        <ele>391</ele>
        <time>2016-08-15T08:09:24.000Z</time>
      </trkpt>
      <trkpt lat="47.58662" lon="6.75028">
        <ele>392</ele>
        <time>2016-08-15T08:09:25.000Z</time>
      </trkpt>
      <trkpt lat="47.58662" lon="6.75025">
        <ele>392</ele>
        <time>2016-08-15T08:09:26.000Z</time>
      </trkpt>
      <trkpt lat="47.58663" lon="6.75021">
        <ele>392</ele>
        <time>2016-08-15T08:09:27.000Z</time>
      </trkpt>
      <trkpt lat="47.58664" lon="6.75017">
        <ele>393</ele>
        <time>2016-08-15T08:09:28.000Z</time>
      </trkpt>
      <trkpt lat="47.58665" lon="6.75013">
        <ele>394</ele>
        <time>2016-08-15T08:09:29.000Z</time>
      </trkpt>
      <trkpt lat="47.58666" lon="6.75009">
        <ele>395</ele>
        <time>2016-08-15T08:09:30.000Z</time>
      </trkpt>
      <trkpt lat="47.58667" lon="6.75005">
        <ele>401</ele>
        <time>2016-08-15T08:09:31.000Z</time>
      </trkpt>
      <trkpt lat="47.58667" lon="6.75002">
        <ele>400</ele>
        <time>2016-08-15T08:09:32.000Z</time>
      </trkpt>
      <trkpt lat="47.58668" lon="6.74999">
        <ele>400</ele>
        <time>2016-08-15T08:09:33.000Z</time>
      </trkpt>
      <trkpt lat="47.58669" lon="6.74993">
        <ele>401</ele>
        <time>2016-08-15T08:09:35.000Z</time>
      </trkpt>
      <trkpt lat="47.5867" lon="6.7499">
        <ele>402</ele>
        <time>2016-08-15T08:09:36.000Z</time>
      </trkpt>
      <trkpt lat="47.58671" lon="6.74984">
        <ele>403</ele>
        <time>2016-08-15T08:09:38.000Z</time>
      </trkpt>
      <trkpt lat="47.58671" lon="6.74981">
        <ele>403</ele>
        <time>2016-08-15T08:09:39.000Z</time>
      </trkpt>
      <trkpt lat="47.58672" lon="6.74977">
        <ele>403</ele>
        <time>2016-08-15T08:09:40.000Z</time>
      </trkpt>
      <trkpt lat="47.58673" lon="6.74974">
        <ele>404</ele>
        <time>2016-08-15T08:09:41.000Z</time>
      </trkpt>
      <trkpt lat="47.58674" lon="6.7497">
        <ele>404</ele>
        <time>2016-08-15T08:09:42.000Z</time>
      </trkpt>
      <trkpt lat="47.58676" lon="6.74966">
        <ele>404</ele>
        <time>2016-08-15T08:09:43.000Z</time>
      </trkpt>
      <trkpt lat="47.58677" lon="6.74961">
        <ele>404</ele>
        <time>2016-08-15T08:09:44.000Z</time>
      </trkpt>
      <trkpt lat="47.58678" lon="6.74957">
        <ele>404</ele>
        <time>2016-08-15T08:09:45.000Z</time>
      </trkpt>
      <trkpt lat="47.5868" lon="6.74952">
        <ele>404</ele>
        <time>2016-08-15T08:09:46.000Z</time>
      </trkpt>
      <trkpt lat="47.58681" lon="6.74946">
        <ele>404</ele>
        <time>2016-08-15T08:09:47.000Z</time>
      </trkpt>
      <trkpt lat="47.58682" lon="6.74941">
        <ele>403</ele>
        <time>2016-08-15T08:09:48.000Z</time>
      </trkpt>
      <trkpt lat="47.58684" lon="6.74936">
        <ele>403</ele>
        <time>2016-08-15T08:09:49.000Z</time>
      </trkpt>
      <trkpt lat="47.58685" lon="6.7493">
        <ele>403</ele>
        <time>2016-08-15T08:09:50.000Z</time>
      </trkpt>
      <trkpt lat="47.58685" lon="6.74926">
        <ele>402</ele>
        <time>2016-08-15T08:09:51.000Z</time>
      </trkpt>
      <trkpt lat="47.58686" lon="6.74921">
        <ele>402</ele>
        <time>2016-08-15T08:09:52.000Z</time>
      </trkpt>
      <trkpt lat="47.58686" lon="6.74917">
        <ele>400</ele>
        <time>2016-08-15T08:09:53.000Z</time>
      </trkpt>
      <trkpt lat="47.58687" lon="6.74913">
        <ele>400</ele>
        <time>2016-08-15T08:09:54.000Z</time>
      </trkpt>
      <trkpt lat="47.58688" lon="6.74909">
        <ele>401</ele>
        <time>2016-08-15T08:09:55.000Z</time>
      </trkpt>
      <trkpt lat="47.58689" lon="6.74906">
        <ele>401</ele>
        <time>2016-08-15T08:09:56.000Z</time>
      </trkpt>
      <trkpt lat="47.5869" lon="6.74902">
        <ele>401</ele>
        <time>2016-08-15T08:09:57.000Z</time>
      </trkpt>
      <trkpt lat="47.58692" lon="6.74899">
        <ele>401</ele>
        <time>2016-08-15T08:09:58.000Z</time>
      </trkpt>
      <trkpt lat="47.58693" lon="6.74896">
        <ele>401</ele>
        <time>2016-08-15T08:09:59.000Z</time>
      </trkpt>
      <trkpt lat="47.58694" lon="6.74893">
        <ele>402</ele>
        <time>2016-08-15T08:10:00.000Z</time>
      </trkpt>
      <trkpt lat="47.58696" lon="6.74889">
        <ele>402</ele>
        <time>2016-08-15T08:10:01.000Z</time>
      </trkpt>
      <trkpt lat="47.58697" lon="6.74886">
        <ele>402</ele>
        <time>2016-08-15T08:10:02.000Z</time>
      </trkpt>
      <trkpt lat="47.58699" lon="6.74882">
        <ele>402</ele>
        <time>2016-08-15T08:10:03.000Z</time>
      </trkpt>
      <trkpt lat="47.58701" lon="6.74878">
        <ele>402</ele>
        <time>2016-08-15T08:10:04.000Z</time>
      </trkpt>
      <trkpt lat="47.58703" lon="6.74873">
        <ele>402</ele>
        <time>2016-08-15T08:10:05.000Z</time>
      </trkpt>
      <trkpt lat="47.58705" lon="6.7487">
        <ele>402</ele>
        <time>2016-08-15T08:10:06.000Z</time>
      </trkpt>
      <trkpt lat="47.58707" lon="6.74866">
        <ele>402</ele>
        <time>2016-08-15T08:10:07.000Z</time>
      </trkpt>
      <trkpt lat="47.58709" lon="6.74862">
        <ele>402</ele>
        <time>2016-08-15T08:10:09.000Z</time>
      </trkpt>
      <trkpt lat="47.5871" lon="6.7486">
        <ele>403</ele>
        <time>2016-08-15T08:10:10.000Z</time>
      </trkpt>
      <trkpt lat="47.58714" lon="6.74858">
        <ele>403</ele>
        <time>2016-08-15T08:10:15.000Z</time>
      </trkpt>
      <trkpt lat="47.58715" lon="6.74859">
        <ele>403</ele>
        <time>2016-08-15T08:10:16.000Z</time>
      </trkpt>
      <trkpt lat="47.58718" lon="6.74862">
        <ele>403</ele>
        <time>2016-08-15T08:10:20.000Z</time>
      </trkpt>
      <trkpt lat="47.58719" lon="6.74863">
        <ele>403</ele>
        <time>2016-08-15T08:10:21.000Z</time>
      </trkpt>
      <trkpt lat="47.58721" lon="6.74869">
        <ele>404</ele>
        <time>2016-08-15T08:10:28.000Z</time>
      </trkpt>
      <trkpt lat="47.58721" lon="6.7487">
        <ele>404</ele>
        <time>2016-08-15T08:10:29.000Z</time>
      </trkpt>
      <trkpt lat="47.58724" lon="6.7487">
        <ele>404</ele>
        <time>2016-08-15T08:10:34.000Z</time>
      </trkpt>
      <trkpt lat="47.58726" lon="6.7487">
        <ele>404</ele>
        <time>2016-08-15T08:10:35.000Z</time>
      </trkpt>
      <trkpt lat="47.58729" lon="6.7487">
        <ele>404</ele>
        <time>2016-08-15T08:10:38.000Z</time>
      </trkpt>
      <trkpt lat="47.58731" lon="6.74869">
        <ele>404</ele>
        <time>2016-08-15T08:10:39.000Z</time>
      </trkpt>
      <trkpt lat="47.58735" lon="6.74867">
        <ele>404</ele>
        <time>2016-08-15T08:10:42.000Z</time>
      </trkpt>
      <trkpt lat="47.58735" lon="6.74866">
        <ele>404</ele>
        <time>2016-08-15T08:10:43.000Z</time>
      </trkpt>
      <trkpt lat="47.58739" lon="6.74865">
        <ele>405</ele>
        <time>2016-08-15T08:10:47.000Z</time>
      </trkpt>
      <trkpt lat="47.5874" lon="6.74866">
        <ele>405</ele>
        <time>2016-08-15T08:10:48.000Z</time>
      </trkpt>
      <trkpt lat="47.58743" lon="6.74871">
        <ele>405</ele>
        <time>2016-08-15T08:10:53.000Z</time>
      </trkpt>
      <trkpt lat="47.58743" lon="6.74872">
        <ele>405</ele>
        <time>2016-08-15T08:10:54.000Z</time>
      </trkpt>
      <trkpt lat="47.58747" lon="6.74871">
        <ele>405</ele>
        <time>2016-08-15T08:11:18.000Z</time>
      </trkpt>
      <trkpt lat="47.58748" lon="6.74871">
        <ele>405</ele>
        <time>2016-08-15T08:11:19.000Z</time>
      </trkpt>
      <trkpt lat="47.58751" lon="6.74875">
        <ele>413</ele>
        <time>2016-08-15T08:11:29.000Z</time>
      </trkpt>
      <trkpt lat="47.58751" lon="6.74876">
        <ele>413</ele>
        <time>2016-08-15T08:11:30.000Z</time>
      </trkpt>
      <trkpt lat="47.58751" lon="6.74882">
        <ele>413</ele>
        <time>2016-08-15T08:12:14.000Z</time>
      </trkpt>
      <trkpt lat="47.58751" lon="6.74883">
        <ele>413</ele>
        <time>2016-08-15T08:12:15.000Z</time>
      </trkpt>
      <trkpt lat="47.58751" lon="6.74889">
        <ele>414</ele>
        <time>2016-08-15T08:12:25.000Z</time>
      </trkpt>
      <trkpt lat="47.58752" lon="6.74891">
        <ele>414</ele>
        <time>2016-08-15T08:12:26.000Z</time>
      </trkpt>
      <trkpt lat="47.58753" lon="6.74897">
        <ele>414</ele>
        <time>2016-08-15T08:12:29.000Z</time>
      </trkpt>
      <trkpt lat="47.58753" lon="6.74898">
        <ele>414</ele>
        <time>2016-08-15T08:12:30.000Z</time>
      </trkpt>
      <trkpt lat="47.58755" lon="6.74903">
        <ele>414</ele>
        <time>2016-08-15T08:12:33.000Z</time>
      </trkpt>
      <trkpt lat="47.58756" lon="6.74904">
        <ele>414</ele>
        <time>2016-08-15T08:12:34.000Z</time>
      </trkpt>
      <trkpt lat="47.58757" lon="6.74909">
        <ele>414</ele>
        <time>2016-08-15T08:12:36.000Z</time>
      </trkpt>
      <trkpt lat="47.58757" lon="6.74912">
        <ele>414</ele>
        <time>2016-08-15T08:12:37.000Z</time>
      </trkpt>
      <trkpt lat="47.58758" lon="6.74915">
        <ele>414</ele>
        <time>2016-08-15T08:12:38.000Z</time>
      </trkpt>
      <trkpt lat="47.58758" lon="6.74919">
        <ele>417</ele>
        <time>2016-08-15T08:12:39.000Z</time>
      </trkpt>
      <trkpt lat="47.58758" lon="6.74925">
        <ele>417</ele>
        <time>2016-08-15T08:12:46.000Z</time>
      </trkpt>
      <trkpt lat="47.58759" lon="6.74927">
        <ele>418</ele>
        <time>2016-08-15T08:12:47.000Z</time>
      </trkpt>
      <trkpt lat="47.58761" lon="6.74933">
        <ele>419</ele>
        <time>2016-08-15T08:13:14.000Z</time>
      </trkpt>
      <trkpt lat="47.58761" lon="6.74933">
        <ele>419</ele>
        <time>2016-08-15T08:13:15.000Z</time>
      </trkpt>
      <trkpt lat="47.58764" lon="6.74933">
        <ele>419</ele>
        <time>2016-08-15T08:14:41.000Z</time>
      </trkpt>
      <trkpt lat="47.58765" lon="6.74933">
        <ele>419</ele>
        <time>2016-08-15T08:14:42.000Z</time>
      </trkpt>
      <trkpt lat="47.58761" lon="6.74936">
        <ele>419</ele>
        <time>2016-08-15T08:14:55.000Z</time>
      </trkpt>
      <trkpt lat="47.58761" lon="6.74935">
        <ele>419</ele>
        <time>2016-08-15T08:14:56.000Z</time>
      </trkpt>
      <trkpt lat="47.58756" lon="6.74936">
        <ele>419</ele>
        <time>2016-08-15T08:17:53.000Z</time>
      </trkpt>
      <trkpt lat="47.58756" lon="6.74936">
        <ele>419</ele>
        <time>2016-08-15T08:17:54.000Z</time>
      </trkpt>
      <trkpt lat="47.58758" lon="6.74941">
        <ele>420</ele>
        <time>2016-08-15T08:18:14.000Z</time>
      </trkpt>
      <trkpt lat="47.58758" lon="6.74944">
        <ele>420</ele>
        <time>2016-08-15T08:18:15.000Z</time>
      </trkpt>
      <trkpt lat="47.58759" lon="6.74949">
        <ele>420</ele>
        <time>2016-08-15T08:18:18.000Z</time>
      </trkpt>
      <trkpt lat="47.5876" lon="6.74952">
        <ele>421</ele>
        <time>2016-08-15T08:18:19.000Z</time>
      </trkpt>
      <trkpt lat="47.58762" lon="6.74958">
        <ele>421</ele>
        <time>2016-08-15T08:18:21.000Z</time>
      </trkpt>
      <trkpt lat="47.58763" lon="6.74961">
        <ele>421</ele>
        <time>2016-08-15T08:18:22.000Z</time>
      </trkpt>
      <trkpt lat="47.58765" lon="6.74965">
        <ele>422</ele>
        <time>2016-08-15T08:18:25.000Z</time>
      </trkpt>
      <trkpt lat="47.58766" lon="6.74966">
        <ele>422</ele>
        <time>2016-08-15T08:18:26.000Z</time>
      </trkpt>
      <trkpt lat="47.58767" lon="6.74972">
        <ele>422</ele>
        <time>2016-08-15T08:18:31.000Z</time>
      </trkpt>
      <trkpt lat="47.58768" lon="6.74973">
        <ele>422</ele>
        <time>2016-08-15T08:18:32.000Z</time>
      </trkpt>
      <trkpt lat="47.58771" lon="6.74977">
        <ele>422</ele>
        <time>2016-08-15T08:18:34.000Z</time>
      </trkpt>
      <trkpt lat="47.58773" lon="6.74979">
        <ele>422</ele>
        <time>2016-08-15T08:18:35.000Z</time>
      </trkpt>
      <trkpt lat="47.58775" lon="6.74983">
        <ele>422</ele>
        <time>2016-08-15T08:18:37.000Z</time>
      </trkpt>
      <trkpt lat="47.58777" lon="6.74984">
        <ele>423</ele>
        <time>2016-08-15T08:18:38.000Z</time>
      </trkpt>
      <trkpt lat="47.58779" lon="6.74988">
        <ele>423</ele>
        <time>2016-08-15T08:18:42.000Z</time>
      </trkpt>
      <trkpt lat="47.58779" lon="6.7499">
        <ele>423</ele>
        <time>2016-08-15T08:18:43.000Z</time>
      </trkpt>
      <trkpt lat="47.58782" lon="6.74994">
        <ele>423</ele>
        <time>2016-08-15T08:18:45.000Z</time>
      </trkpt>
      <trkpt lat="47.58783" lon="6.74997">
        <ele>423</ele>
        <time>2016-08-15T08:18:46.000Z</time>
      </trkpt>
      <trkpt lat="47.58784" lon="6.74999">
        <ele>424</ele>
        <time>2016-08-15T08:18:47.000Z</time>
      </trkpt>
      <trkpt lat="47.58786" lon="6.75002">
        <ele>426</ele>
        <time>2016-08-15T08:18:48.000Z</time>
      </trkpt>
      <trkpt lat="47.58788" lon="6.75004">
        <ele>426</ele>
        <time>2016-08-15T08:18:49.000Z</time>
      </trkpt>
      <trkpt lat="47.5879" lon="6.75006">
        <ele>426</ele>
        <time>2016-08-15T08:18:50.000Z</time>
      </trkpt>
      <trkpt lat="47.58792" lon="6.75009">
        <ele>426</ele>
        <time>2016-08-15T08:18:52.000Z</time>
      </trkpt>
      <trkpt lat="47.58793" lon="6.75011">
        <ele>427</ele>
        <time>2016-08-15T08:18:53.000Z</time>
      </trkpt>
      <trkpt lat="47.58795" lon="6.75015">
        <ele>427</ele>
        <time>2016-08-15T08:18:55.000Z</time>
      </trkpt>
      <trkpt lat="47.58797" lon="6.75016">
        <ele>427</ele>
        <time>2016-08-15T08:18:56.000Z</time>
      </trkpt>
      <trkpt lat="47.58799" lon="6.75018">
        <ele>427</ele>
        <time>2016-08-15T08:18:57.000Z</time>
      </trkpt>
      <trkpt lat="47.58802" lon="6.75019">
        <ele>427</ele>
        <time>2016-08-15T08:18:58.000Z</time>
      </trkpt>
      <trkpt lat="47.58806" lon="6.75022">
        <ele>428</ele>
        <time>2016-08-15T08:19:00.000Z</time>
      </trkpt>
      <trkpt lat="47.58806" lon="6.75024">
        <ele>428</ele>
        <time>2016-08-15T08:19:01.000Z</time>
      </trkpt>
      <trkpt lat="47.58807" lon="6.7503">
        <ele>428</ele>
        <time>2016-08-15T08:19:04.000Z</time>
      </trkpt>
      <trkpt lat="47.58807" lon="6.75033">
        <ele>428</ele>
        <time>2016-08-15T08:19:05.000Z</time>
      </trkpt>
      <trkpt lat="47.58808" lon="6.75039">
        <ele>428</ele>
        <time>2016-08-15T08:19:07.000Z</time>
      </trkpt>
      <trkpt lat="47.58808" lon="6.75042">
        <ele>428</ele>
        <time>2016-08-15T08:19:08.000Z</time>
      </trkpt>
      <trkpt lat="47.58809" lon="6.75047">
        <ele>428</ele>
        <time>2016-08-15T08:19:10.000Z</time>
      </trkpt>
      <trkpt lat="47.58811" lon="6.7505">
        <ele>428</ele>
        <time>2016-08-15T08:19:11.000Z</time>
      </trkpt>
      <trkpt lat="47.58812" lon="6.75053">
        <ele>428</ele>
        <time>2016-08-15T08:19:12.000Z</time>
      </trkpt>
      <trkpt lat="47.58813" lon="6.75057">
        <ele>428</ele>
        <time>2016-08-15T08:19:13.000Z</time>
      </trkpt>
      <trkpt lat="47.58814" lon="6.7506">
        <ele>428</ele>
        <time>2016-08-15T08:19:14.000Z</time>
      </trkpt>
      <trkpt lat="47.58816" lon="6.75063">
        <ele>429</ele>
        <time>2016-08-15T08:19:15.000Z</time>
      </trkpt>
      <trkpt lat="47.58817" lon="6.75066">
        <ele>429</ele>
        <time>2016-08-15T08:19:16.000Z</time>
      </trkpt>
      <trkpt lat="47.58818" lon="6.75069">
        <ele>429</ele>
        <time>2016-08-15T08:19:17.000Z</time>
      </trkpt>
      <trkpt lat="47.58819" lon="6.75073">
        <ele>430</ele>
        <time>2016-08-15T08:19:18.000Z</time>
      </trkpt>
      <trkpt lat="47.58821" lon="6.75076">
        <ele>430</ele>
        <time>2016-08-15T08:19:19.000Z</time>
      </trkpt>
      <trkpt lat="47.58822" lon="6.75079">
        <ele>430</ele>
        <time>2016-08-15T08:19:20.000Z</time>
      </trkpt>
      <trkpt lat="47.58824" lon="6.75082">
        <ele>431</ele>
        <time>2016-08-15T08:19:21.000Z</time>
      </trkpt>
      <trkpt lat="47.58825" lon="6.75085">
        <ele>430</ele>
        <time>2016-08-15T08:19:22.000Z</time>
      </trkpt>
      <trkpt lat="47.58826" lon="6.75087">
        <ele>430</ele>
        <time>2016-08-15T08:19:23.000Z</time>
      </trkpt>
      <trkpt lat="47.58828" lon="6.75093">
        <ele>430</ele>
        <time>2016-08-15T08:19:25.000Z</time>
      </trkpt>
      <trkpt lat="47.58829" lon="6.75096">
        <ele>429</ele>
        <time>2016-08-15T08:19:26.000Z</time>
      </trkpt>
      <trkpt lat="47.5883" lon="6.75099">
        <ele>429</ele>
        <time>2016-08-15T08:19:27.000Z</time>
      </trkpt>
      <trkpt lat="47.58831" lon="6.75102">
        <ele>428</ele>
        <time>2016-08-15T08:19:28.000Z</time>
      </trkpt>
      <trkpt lat="47.58833" lon="6.75106">
        <ele>428</ele>
        <time>2016-08-15T08:19:30.000Z</time>
      </trkpt>
      <trkpt lat="47.58834" lon="6.75108">
        <ele>435</ele>
        <time>2016-08-15T08:19:31.000Z</time>
      </trkpt>
      <trkpt lat="47.58837" lon="6.75113">
        <ele>435</ele>
        <time>2016-08-15T08:19:33.000Z</time>
      </trkpt>
      <trkpt lat="47.58838" lon="6.75115">
        <ele>436</ele>
        <time>2016-08-15T08:19:34.000Z</time>
      </trkpt>
      <trkpt lat="47.5884" lon="6.75117">
        <ele>436</ele>
        <time>2016-08-15T08:19:35.000Z</time>
      </trkpt>
      <trkpt lat="47.58841" lon="6.7512">
        <ele>436</ele>
        <time>2016-08-15T08:19:36.000Z</time>
      </trkpt>
      <trkpt lat="47.58843" lon="6.75123">
        <ele>436</ele>
        <time>2016-08-15T08:19:37.000Z</time>
      </trkpt>
      <trkpt lat="47.58845" lon="6.75126">
        <ele>436</ele>
        <time>2016-08-15T08:19:38.000Z</time>
      </trkpt>
      <trkpt lat="47.58846" lon="6.7513">
        <ele>436</ele>
        <time>2016-08-15T08:19:39.000Z</time>
      </trkpt>
      <trkpt lat="47.58848" lon="6.75133">
        <ele>435</ele>
        <time>2016-08-15T08:19:40.000Z</time>
      </trkpt>
      <trkpt lat="47.5885" lon="6.75138">
        <ele>435</ele>
        <time>2016-08-15T08:19:44.000Z</time>
      </trkpt>
      <trkpt lat="47.5885" lon="6.75139">
        <ele>435</ele>
        <time>2016-08-15T08:19:45.000Z</time>
      </trkpt>
      <trkpt lat="47.58853" lon="6.75143">
        <ele>435</ele>
        <time>2016-08-15T08:19:47.000Z</time>
      </trkpt>
      <trkpt lat="47.58854" lon="6.75145">
        <ele>435</ele>
        <time>2016-08-15T08:19:48.000Z</time>
      </trkpt>
      <trkpt lat="47.58857" lon="6.75149">
        <ele>435</ele>
        <time>2016-08-15T08:19:50.000Z</time>
      </trkpt>
      <trkpt lat="47.58859" lon="6.75151">
        <ele>435</ele>
        <time>2016-08-15T08:19:51.000Z</time>
      </trkpt>
      <trkpt lat="47.58862" lon="6.75153">
        <ele>436</ele>
        <time>2016-08-15T08:19:53.000Z</time>
      </trkpt>
      <trkpt lat="47.58864" lon="6.75155">
        <ele>436</ele>
        <time>2016-08-15T08:19:54.000Z</time>
      </trkpt>
      <trkpt lat="47.58867" lon="6.75157">
        <ele>436</ele>
        <time>2016-08-15T08:19:56.000Z</time>
      </trkpt>
      <trkpt lat="47.58868" lon="6.75158">
        <ele>437</ele>
        <time>2016-08-15T08:19:57.000Z</time>
      </trkpt>
      <trkpt lat="47.58871" lon="6.75161">
        <ele>437</ele>
        <time>2016-08-15T08:19:59.000Z</time>
      </trkpt>
      <trkpt lat="47.58873" lon="6.75162">
        <ele>437</ele>
        <time>2016-08-15T08:20:00.000Z</time>
      </trkpt>
      <trkpt lat="47.58876" lon="6.75164">
        <ele>438</ele>
        <time>2016-08-15T08:20:02.000Z</time>
      </trkpt>
      <trkpt lat="47.58877" lon="6.75163">
        <ele>438</ele>
        <time>2016-08-15T08:20:03.000Z</time>
      </trkpt>
      <trkpt lat="47.58881" lon="6.75161">
        <ele>439</ele>
        <time>2016-08-15T08:20:05.000Z</time>
      </trkpt>
      <trkpt lat="47.58883" lon="6.7516">
        <ele>439</ele>
        <time>2016-08-15T08:20:06.000Z</time>
      </trkpt>
      <trkpt lat="47.58886" lon="6.7516">
        <ele>439</ele>
        <time>2016-08-15T08:20:08.000Z</time>
      </trkpt>
      <trkpt lat="47.58887" lon="6.7516">
        <ele>440</ele>
        <time>2016-08-15T08:20:09.000Z</time>
      </trkpt>
      <trkpt lat="47.5889" lon="6.75165">
        <ele>440</ele>
        <time>2016-08-15T08:20:12.000Z</time>
      </trkpt>
      <trkpt lat="47.58891" lon="6.75167">
        <ele>439</ele>
        <time>2016-08-15T08:20:13.000Z</time>
      </trkpt>
      <trkpt lat="47.58894" lon="6.75169">
        <ele>439</ele>
        <time>2016-08-15T08:20:15.000Z</time>
      </trkpt>
      <trkpt lat="47.58897" lon="6.75169">
        <ele>440</ele>
        <time>2016-08-15T08:20:16.000Z</time>
      </trkpt>
      <trkpt lat="47.58901" lon="6.7517">
        <ele>441</ele>
        <time>2016-08-15T08:20:20.000Z</time>
      </trkpt>
      <trkpt lat="47.58901" lon="6.75171">
        <ele>441</ele>
        <time>2016-08-15T08:20:21.000Z</time>
      </trkpt>
      <trkpt lat="47.58904" lon="6.75172">
        <ele>441</ele>
        <time>2016-08-15T08:20:24.000Z</time>
      </trkpt>
      <trkpt lat="47.58906" lon="6.75173">
        <ele>442</ele>
        <time>2016-08-15T08:20:25.000Z</time>
      </trkpt>
      <trkpt lat="47.5891" lon="6.75175">
        <ele>442</ele>
        <time>2016-08-15T08:20:27.000Z</time>
      </trkpt>
      <trkpt lat="47.58912" lon="6.75176">
        <ele>442</ele>
        <time>2016-08-15T08:20:28.000Z</time>
      </trkpt>
      <trkpt lat="47.58915" lon="6.75176">
        <ele>443</ele>
        <time>2016-08-15T08:20:31.000Z</time>
      </trkpt>
      <trkpt lat="47.58917" lon="6.75176">
        <ele>443</ele>
        <time>2016-08-15T08:20:32.000Z</time>
      </trkpt>
      <trkpt lat="47.5892" lon="6.75178">
        <ele>448</ele>
        <time>2016-08-15T08:20:34.000Z</time>
      </trkpt>
      <trkpt lat="47.58921" lon="6.75181">
        <ele>449</ele>
        <time>2016-08-15T08:20:35.000Z</time>
      </trkpt>
      <trkpt lat="47.58923" lon="6.75187">
        <ele>449</ele>
        <time>2016-08-15T08:20:38.000Z</time>
      </trkpt>
      <trkpt lat="47.58923" lon="6.75187">
        <ele>449</ele>
        <time>2016-08-15T08:20:39.000Z</time>
      </trkpt>
      <trkpt lat="47.58926" lon="6.75191">
        <ele>450</ele>
        <time>2016-08-15T08:20:45.000Z</time>
      </trkpt>
      <trkpt lat="47.58927" lon="6.75192">
        <ele>450</ele>
        <time>2016-08-15T08:20:46.000Z</time>
      </trkpt>
      <trkpt lat="47.5893" lon="6.75197">
        <ele>450</ele>
        <time>2016-08-15T08:20:49.000Z</time>
      </trkpt>
      <trkpt lat="47.58931" lon="6.75198">
        <ele>450</ele>
        <time>2016-08-15T08:20:50.000Z</time>
      </trkpt>
      <trkpt lat="47.58934" lon="6.75203">
        <ele>450</ele>
        <time>2016-08-15T08:20:53.000Z</time>
      </trkpt>
      <trkpt lat="47.58935" lon="6.75204">
        <ele>450</ele>
        <time>2016-08-15T08:20:54.000Z</time>
      </trkpt>
      <trkpt lat="47.58938" lon="6.75205">
        <ele>451</ele>
        <time>2016-08-15T08:20:56.000Z</time>
      </trkpt>
      <trkpt lat="47.5894" lon="6.75205">
        <ele>451</ele>
        <time>2016-08-15T08:20:57.000Z</time>
      </trkpt>
      <trkpt lat="47.58943" lon="6.75207">
        <ele>451</ele>
        <time>2016-08-15T08:21:00.000Z</time>
      </trkpt>
      <trkpt lat="47.58944" lon="6.75208">
        <ele>451</ele>
        <time>2016-08-15T08:21:01.000Z</time>
      </trkpt>
      <trkpt lat="47.58946" lon="6.75213">
        <ele>451</ele>
        <time>2016-08-15T08:21:04.000Z</time>
      </trkpt>
      <trkpt lat="47.58947" lon="6.75215">
        <ele>451</ele>
        <time>2016-08-15T08:21:05.000Z</time>
      </trkpt>
      <trkpt lat="47.58949" lon="6.75219">
        <ele>451</ele>
        <time>2016-08-15T08:21:09.000Z</time>
      </trkpt>
      <trkpt lat="47.5895" lon="6.7522">
        <ele>451</ele>
        <time>2016-08-15T08:21:10.000Z</time>
      </trkpt>
      <trkpt lat="47.58951" lon="6.75226">
        <ele>451</ele>
        <time>2016-08-15T08:21:14.000Z</time>
      </trkpt>
      <trkpt lat="47.58952" lon="6.75227">
        <ele>452</ele>
        <time>2016-08-15T08:21:15.000Z</time>
      </trkpt>
      <trkpt lat="47.58956" lon="6.7523">
        <ele>452</ele>
        <time>2016-08-15T08:21:19.000Z</time>
      </trkpt>
      <trkpt lat="47.58956" lon="6.75231">
        <ele>452</ele>
        <time>2016-08-15T08:21:20.000Z</time>
      </trkpt>
      <trkpt lat="47.58957" lon="6.75235">
        <ele>452</ele>
        <time>2016-08-15T08:21:21.000Z</time>
      </trkpt>
      <trkpt lat="47.58957" lon="6.75239">
        <ele>452</ele>
        <time>2016-08-15T08:21:22.000Z</time>
      </trkpt>
      <trkpt lat="47.58958" lon="6.75245">
        <ele>452</ele>
        <time>2016-08-15T08:21:23.000Z</time>
      </trkpt>
      <trkpt lat="47.58958" lon="6.7525">
        <ele>452</ele>
        <time>2016-08-15T08:21:24.000Z</time>
      </trkpt>
      <trkpt lat="47.5896" lon="6.75253">
        <ele>450</ele>
        <time>2016-08-15T08:21:25.000Z</time>
      </trkpt>
      <trkpt lat="47.58961" lon="6.75256">
        <ele>451</ele>
        <time>2016-08-15T08:21:26.000Z</time>
      </trkpt>
      <trkpt lat="47.58963" lon="6.75259">
        <ele>451</ele>
        <time>2016-08-15T08:21:27.000Z</time>
      </trkpt>
      <trkpt lat="47.58966" lon="6.75261">
        <ele>451</ele>
        <time>2016-08-15T08:21:28.000Z</time>
      </trkpt>
      <trkpt lat="47.5897" lon="6.75263">
        <ele>452</ele>
        <time>2016-08-15T08:21:30.000Z</time>
      </trkpt>
      <trkpt lat="47.58972" lon="6.75264">
        <ele>452</ele>
        <time>2016-08-15T08:21:31.000Z</time>
      </trkpt>
      <trkpt lat="47.58975" lon="6.75267">
        <ele>453</ele>
        <time>2016-08-15T08:21:33.000Z</time>
      </trkpt>
      <trkpt lat="47.58977" lon="6.75269">
        <ele>453</ele>
        <time>2016-08-15T08:21:34.000Z</time>
      </trkpt>
      <trkpt lat="47.58979" lon="6.75274">
        <ele>453</ele>
        <time>2016-08-15T08:21:36.000Z</time>
      </trkpt>
      <trkpt lat="47.5898" lon="6.75276">
        <ele>453</ele>
        <time>2016-08-15T08:21:37.000Z</time>
      </trkpt>
      <trkpt lat="47.58981" lon="6.75281">
        <ele>452</ele>
        <time>2016-08-15T08:21:39.000Z</time>
      </trkpt>
      <trkpt lat="47.58981" lon="6.75283">
        <ele>452</ele>
        <time>2016-08-15T08:21:40.000Z</time>
      </trkpt>
      <trkpt lat="47.58983" lon="6.75289">
        <ele>452</ele>
        <time>2016-08-15T08:21:43.000Z</time>
      </trkpt>
      <trkpt lat="47.58983" lon="6.75291">
        <ele>452</ele>
        <time>2016-08-15T08:21:44.000Z</time>
      </trkpt>
      <trkpt lat="47.58985" lon="6.75297">
        <ele>452</ele>
        <time>2016-08-15T08:21:48.000Z</time>
      </trkpt>
      <trkpt lat="47.58986" lon="6.75298">
        <ele>452</ele>
        <time>2016-08-15T08:21:49.000Z</time>
      </trkpt>
      <trkpt lat="47.58988" lon="6.75303">
        <ele>453</ele>
        <time>2016-08-15T08:21:51.000Z</time>
      </trkpt>
      <trkpt lat="47.5899" lon="6.75305">
        <ele>453</ele>
        <time>2016-08-15T08:21:52.000Z</time>
      </trkpt>
      <trkpt lat="47.58992" lon="6.75309">
        <ele>453</ele>
        <time>2016-08-15T08:21:54.000Z</time>
      </trkpt>
      <trkpt lat="47.58994" lon="6.75312">
        <ele>454</ele>
        <time>2016-08-15T08:21:55.000Z</time>
      </trkpt>
      <trkpt lat="47.58996" lon="6.75317">
        <ele>455</ele>
        <time>2016-08-15T08:21:57.000Z</time>
      </trkpt>
      <trkpt lat="47.58998" lon="6.75318">
        <ele>455</ele>
        <time>2016-08-15T08:21:58.000Z</time>
      </trkpt>
      <trkpt lat="47.59001" lon="6.75322">
        <ele>462</ele>
        <time>2016-08-15T08:22:00.000Z</time>
      </trkpt>
      <trkpt lat="47.59003" lon="6.75324">
        <ele>462</ele>
        <time>2016-08-15T08:22:01.000Z</time>
      </trkpt>
      <trkpt lat="47.59004" lon="6.75327">
        <ele>461</ele>
        <time>2016-08-15T08:22:02.000Z</time>
      </trkpt>
      <trkpt lat="47.59006" lon="6.75328">
        <ele>461</ele>
        <time>2016-08-15T08:22:03.000Z</time>
      </trkpt>
      <trkpt lat="47.59009" lon="6.75332">
        <ele>462</ele>
        <time>2016-08-15T08:22:05.000Z</time>
      </trkpt>
      <trkpt lat="47.5901" lon="6.75334">
        <ele>462</ele>
        <time>2016-08-15T08:22:06.000Z</time>
      </trkpt>
      <trkpt lat="47.59013" lon="6.75338">
        <ele>462</ele>
        <time>2016-08-15T08:22:08.000Z</time>
      </trkpt>
      <trkpt lat="47.59014" lon="6.7534">
        <ele>462</ele>
        <time>2016-08-15T08:22:09.000Z</time>
      </trkpt>
      <trkpt lat="47.59016" lon="6.75344">
        <ele>463</ele>
        <time>2016-08-15T08:22:11.000Z</time>
      </trkpt>
      <trkpt lat="47.59017" lon="6.75346">
        <ele>463</ele>
        <time>2016-08-15T08:22:12.000Z</time>
      </trkpt>
      <trkpt lat="47.5902" lon="6.75349">
        <ele>464</ele>
        <time>2016-08-15T08:22:14.000Z</time>
      </trkpt>
      <trkpt lat="47.59021" lon="6.75352">
        <ele>464</ele>
        <time>2016-08-15T08:22:15.000Z</time>
      </trkpt>
      <trkpt lat="47.59022" lon="6.75358">
        <ele>464</ele>
        <time>2016-08-15T08:22:17.000Z</time>
      </trkpt>
      <trkpt lat="47.59023" lon="6.75361">
        <ele>464</ele>
        <time>2016-08-15T08:22:18.000Z</time>
      </trkpt>
      <trkpt lat="47.59023" lon="6.75365">
        <ele>465</ele>
        <time>2016-08-15T08:22:19.000Z</time>
      </trkpt>
      <trkpt lat="47.59024" lon="6.75368">
        <ele>465</ele>
        <time>2016-08-15T08:22:20.000Z</time>
      </trkpt>
      <trkpt lat="47.59026" lon="6.75374">
        <ele>465</ele>
        <time>2016-08-15T08:22:22.000Z</time>
      </trkpt>
      <trkpt lat="47.59028" lon="6.75376">
        <ele>465</ele>
        <time>2016-08-15T08:22:23.000Z</time>
      </trkpt>
      <trkpt lat="47.59031" lon="6.75379">
        <ele>465</ele>
        <time>2016-08-15T08:22:26.000Z</time>
      </trkpt>
      <trkpt lat="47.59033" lon="6.7538">
        <ele>465</ele>
        <time>2016-08-15T08:22:27.000Z</time>
      </trkpt>
      <trkpt lat="47.59036" lon="6.75382">
        <ele>466</ele>
        <time>2016-08-15T08:22:29.000Z</time>
      </trkpt>
      <trkpt lat="47.59037" lon="6.75383">
        <ele>466</ele>
        <time>2016-08-15T08:22:30.000Z</time>
      </trkpt>
      <trkpt lat="47.5904" lon="6.75386">
        <ele>466</ele>
        <time>2016-08-15T08:22:32.000Z</time>
      </trkpt>
      <trkpt lat="47.59041" lon="6.75388">
        <ele>466</ele>
        <time>2016-08-15T08:22:33.000Z</time>
      </trkpt>
      <trkpt lat="47.59044" lon="6.75391">
        <ele>466</ele>
        <time>2016-08-15T08:22:35.000Z</time>
      </trkpt>
      <trkpt lat="47.59045" lon="6.75392">
        <ele>466</ele>
        <time>2016-08-15T08:22:36.000Z</time>
      </trkpt>
      <trkpt lat="47.59048" lon="6.75394">
        <ele>467</ele>
        <time>2016-08-15T08:22:38.000Z</time>
      </trkpt>
      <trkpt lat="47.5905" lon="6.75395">
        <ele>467</ele>
        <time>2016-08-15T08:22:39.000Z</time>
      </trkpt>
      <trkpt lat="47.59052" lon="6.75395">
        <ele>467</ele>
        <time>2016-08-15T08:22:40.000Z</time>
      </trkpt>
      <trkpt lat="47.59055" lon="6.75395">
        <ele>467</ele>
        <time>2016-08-15T08:22:41.000Z</time>
      </trkpt>
      <trkpt lat="47.59058" lon="6.75395">
        <ele>468</ele>
        <time>2016-08-15T08:22:42.000Z</time>
      </trkpt>
      <trkpt lat="47.59061" lon="6.75394">
        <ele>468</ele>
        <time>2016-08-15T08:22:43.000Z</time>
      </trkpt>
      <trkpt lat="47.59065" lon="6.75392">
        <ele>468</ele>
        <time>2016-08-15T08:22:45.000Z</time>
      </trkpt>
      <trkpt lat="47.59066" lon="6.75392">
        <ele>469</ele>
        <time>2016-08-15T08:22:46.000Z</time>
      </trkpt>
      <trkpt lat="47.5907" lon="6.75389">
        <ele>469</ele>
        <time>2016-08-15T08:22:49.000Z</time>
      </trkpt>
      <trkpt lat="47.59071" lon="6.75389">
        <ele>469</ele>
        <time>2016-08-15T08:22:50.000Z</time>
      </trkpt>
      <trkpt lat="47.59075" lon="6.75388">
        <ele>469</ele>
        <time>2016-08-15T08:22:54.000Z</time>
      </trkpt>
      <trkpt lat="47.59076" lon="6.75388">
        <ele>469</ele>
        <time>2016-08-15T08:22:55.000Z</time>
      </trkpt>
      <trkpt lat="47.5908" lon="6.75388">
        <ele>469</ele>
        <time>2016-08-15T08:22:58.000Z</time>
      </trkpt>
      <trkpt lat="47.59082" lon="6.75388">
        <ele>469</ele>
        <time>2016-08-15T08:22:59.000Z</time>
      </trkpt>
      <trkpt lat="47.59084" lon="6.75388">
        <ele>479</ele>
        <time>2016-08-15T08:23:00.000Z</time>
      </trkpt>
      <trkpt lat="47.59086" lon="6.75387">
        <ele>479</ele>
        <time>2016-08-15T08:23:01.000Z</time>
      </trkpt>
      <trkpt lat="47.59089" lon="6.75387">
        <ele>479</ele>
        <time>2016-08-15T08:23:02.000Z</time>
      </trkpt>
      <trkpt lat="47.59092" lon="6.75386">
        <ele>479</ele>
        <time>2016-08-15T08:23:03.000Z</time>
      </trkpt>
      <trkpt lat="47.59096" lon="6.75385">
        <ele>479</ele>
        <time>2016-08-15T08:23:05.000Z</time>
      </trkpt>
      <trkpt lat="47.59098" lon="6.75384">
        <ele>480</ele>
        <time>2016-08-15T08:23:06.000Z</time>
      </trkpt>
      <trkpt lat="47.59101" lon="6.75382">
        <ele>480</ele>
        <time>2016-08-15T08:23:08.000Z</time>
      </trkpt>
      <trkpt lat="47.59102" lon="6.75381">
        <ele>480</ele>
        <time>2016-08-15T08:23:09.000Z</time>
      </trkpt>
      <trkpt lat="47.59105" lon="6.75378">
        <ele>480</ele>
        <time>2016-08-15T08:23:11.000Z</time>
      </trkpt>
      <trkpt lat="47.59106" lon="6.75378">
        <ele>481</ele>
        <time>2016-08-15T08:23:12.000Z</time>
      </trkpt>
      <trkpt lat="47.5911" lon="6.75377">
        <ele>481</ele>
        <time>2016-08-15T08:23:16.000Z</time>
      </trkpt>
      <trkpt lat="47.59111" lon="6.75377">
        <ele>481</ele>
        <time>2016-08-15T08:23:17.000Z</time>
      </trkpt>
      <trkpt lat="47.59114" lon="6.75378">
        <ele>481</ele>
        <time>2016-08-15T08:23:21.000Z</time>
      </trkpt>
      <trkpt lat="47.59116" lon="6.75377">
        <ele>481</ele>
        <time>2016-08-15T08:23:22.000Z</time>
      </trkpt>
      <trkpt lat="47.59119" lon="6.75376">
        <ele>482</ele>
        <time>2016-08-15T08:23:24.000Z</time>
      </trkpt>
      <trkpt lat="47.5912" lon="6.75374">
        <ele>482</ele>
        <time>2016-08-15T08:23:25.000Z</time>
      </trkpt>
      <trkpt lat="47.59122" lon="6.75371">
        <ele>482</ele>
        <time>2016-08-15T08:23:27.000Z</time>
      </trkpt>
      <trkpt lat="47.59124" lon="6.7537">
        <ele>482</ele>
        <time>2016-08-15T08:23:28.000Z</time>
      </trkpt>
      <trkpt lat="47.59127" lon="6.75367">
        <ele>483</ele>
        <time>2016-08-15T08:23:30.000Z</time>
      </trkpt>
      <trkpt lat="47.59128" lon="6.75366">
        <ele>483</ele>
        <time>2016-08-15T08:23:31.000Z</time>
      </trkpt>
      <trkpt lat="47.59132" lon="6.75365">
        <ele>483</ele>
        <time>2016-08-15T08:23:35.000Z</time>
      </trkpt>
      <trkpt lat="47.59133" lon="6.75365">
        <ele>483</ele>
        <time>2016-08-15T08:23:36.000Z</time>
      </trkpt>
      <trkpt lat="47.59137" lon="6.75366">
        <ele>484</ele>
        <time>2016-08-15T08:23:41.000Z</time>
      </trkpt>
      <trkpt lat="47.59138" lon="6.75366">
        <ele>484</ele>
        <time>2016-08-15T08:23:42.000Z</time>
      </trkpt>
      <trkpt lat="47.59142" lon="6.75363">
        <ele>484</ele>
        <time>2016-08-15T08:23:48.000Z</time>
      </trkpt>
      <trkpt lat="47.59143" lon="6.75363">
        <ele>484</ele>
        <time>2016-08-15T08:23:49.000Z</time>
      </trkpt>
      <trkpt lat="47.59147" lon="6.75363">
        <ele>485</ele>
        <time>2016-08-15T08:23:53.000Z</time>
      </trkpt>
      <trkpt lat="47.59148" lon="6.75364">
        <ele>485</ele>
        <time>2016-08-15T08:23:54.000Z</time>
      </trkpt>
      <trkpt lat="47.59152" lon="6.75364">
        <ele>485</ele>
        <time>2016-08-15T08:23:58.000Z</time>
      </trkpt>
      <trkpt lat="47.59154" lon="6.75364">
        <ele>485</ele>
        <time>2016-08-15T08:23:59.000Z</time>
      </trkpt>
      <trkpt lat="47.59157" lon="6.75366">
        <ele>485</ele>
        <time>2016-08-15T08:24:02.000Z</time>
      </trkpt>
      <trkpt lat="47.59158" lon="6.75366">
        <ele>485</ele>
        <time>2016-08-15T08:24:03.000Z</time>
      </trkpt>
      <trkpt lat="47.59162" lon="6.75367">
        <ele>485</ele>
        <time>2016-08-15T08:24:07.000Z</time>
      </trkpt>
      <trkpt lat="47.59163" lon="6.75368">
        <ele>485</ele>
        <time>2016-08-15T08:24:08.000Z</time>
      </trkpt>
      <trkpt lat="47.59166" lon="6.75371">
        <ele>485</ele>
        <time>2016-08-15T08:24:11.000Z</time>
      </trkpt>
      <trkpt lat="47.59167" lon="6.75372">
        <ele>494</ele>
        <time>2016-08-15T08:24:12.000Z</time>
      </trkpt>
      <trkpt lat="47.5917" lon="6.75375">
        <ele>494</ele>
        <time>2016-08-15T08:24:17.000Z</time>
      </trkpt>
      <trkpt lat="47.59171" lon="6.75375">
        <ele>494</ele>
        <time>2016-08-15T08:24:18.000Z</time>
      </trkpt>
      <trkpt lat="47.59175" lon="6.75377">
        <ele>494</ele>
        <time>2016-08-15T08:24:21.000Z</time>
      </trkpt>
      <trkpt lat="47.59176" lon="6.75379">
        <ele>494</ele>
        <time>2016-08-15T08:24:22.000Z</time>
      </trkpt>
      <trkpt lat="47.59178" lon="6.75384">
        <ele>494</ele>
        <time>2016-08-15T08:24:26.000Z</time>
      </trkpt>
      <trkpt lat="47.59179" lon="6.75385">
        <ele>494</ele>
        <time>2016-08-15T08:24:27.000Z</time>
      </trkpt>
      <trkpt lat="47.59182" lon="6.75387">
        <ele>494</ele>
        <time>2016-08-15T08:24:29.000Z</time>
      </trkpt>
      <trkpt lat="47.59184" lon="6.75387">
        <ele>495</ele>
        <time>2016-08-15T08:24:30.000Z</time>
      </trkpt>
      <trkpt lat="47.59188" lon="6.75388">
        <ele>495</ele>
        <time>2016-08-15T08:24:37.000Z</time>
      </trkpt>
      <trkpt lat="47.59189" lon="6.75388">
        <ele>495</ele>
        <time>2016-08-15T08:24:38.000Z</time>
      </trkpt>
      <trkpt lat="47.59193" lon="6.75389">
        <ele>495</ele>
        <time>2016-08-15T08:24:45.000Z</time>
      </trkpt>
      <trkpt lat="47.59194" lon="6.75389">
        <ele>495</ele>
        <time>2016-08-15T08:24:46.000Z</time>
      </trkpt>
      <trkpt lat="47.59198" lon="6.7539">
        <ele>496</ele>
        <time>2016-08-15T08:24:50.000Z</time>
      </trkpt>
      <trkpt lat="47.592" lon="6.75391">
        <ele>496</ele>
        <time>2016-08-15T08:24:51.000Z</time>
      </trkpt>
      <trkpt lat="47.59203" lon="6.75392">
        <ele>496</ele>
        <time>2016-08-15T08:24:53.000Z</time>
      </trkpt>
      <trkpt lat="47.59204" lon="6.75393">
        <ele>496</ele>
        <time>2016-08-15T08:24:54.000Z</time>
      </trkpt>
      <trkpt lat="47.59207" lon="6.75396">
        <ele>497</ele>
        <time>2016-08-15T08:24:56.000Z</time>
      </trkpt>
      <trkpt lat="47.59209" lon="6.75397">
        <ele>497</ele>
        <time>2016-08-15T08:24:57.000Z</time>
      </trkpt>
      <trkpt lat="47.59211" lon="6.75398">
        <ele>497</ele>
        <time>2016-08-15T08:24:58.000Z</time>
      </trkpt>
      <trkpt lat="47.59215" lon="6.75399">
        <ele>497</ele>
        <time>2016-08-15T08:24:59.000Z</time>
      </trkpt>
      <trkpt lat="47.59219" lon="6.75399">
        <ele>498</ele>
        <time>2016-08-15T08:25:02.000Z</time>
      </trkpt>
      <trkpt lat="47.5922" lon="6.754">
        <ele>498</ele>
        <time>2016-08-15T08:25:03.000Z</time>
      </trkpt>
      <trkpt lat="47.59223" lon="6.75399">
        <ele>498</ele>
        <time>2016-08-15T08:25:11.000Z</time>
      </trkpt>
      <trkpt lat="47.59224" lon="6.75399">
        <ele>498</ele>
        <time>2016-08-15T08:25:12.000Z</time>
      </trkpt>
      <trkpt lat="47.59228" lon="6.75401">
        <ele>499</ele>
        <time>2016-08-15T08:25:15.000Z</time>
      </trkpt>
      <trkpt lat="47.59229" lon="6.75401">
        <ele>499</ele>
        <time>2016-08-15T08:25:16.000Z</time>
      </trkpt>
      <trkpt lat="47.59232" lon="6.75403">
        <ele>500</ele>
        <time>2016-08-15T08:25:18.000Z</time>
      </trkpt>
      <trkpt lat="47.59234" lon="6.75404">
        <ele>500</ele>
        <time>2016-08-15T08:25:19.000Z</time>
      </trkpt>
      <trkpt lat="47.59237" lon="6.75406">
        <ele>500</ele>
        <time>2016-08-15T08:25:21.000Z</time>
      </trkpt>
      <trkpt lat="47.59239" lon="6.75406">
        <ele>501</ele>
        <time>2016-08-15T08:25:22.000Z</time>
      </trkpt>
      <trkpt lat="47.59243" lon="6.75407">
        <ele>501</ele>
        <time>2016-08-15T08:25:24.000Z</time>
      </trkpt>
      <trkpt lat="47.59245" lon="6.75408">
        <ele>502</ele>
        <time>2016-08-15T08:25:25.000Z</time>
      </trkpt>
      <trkpt lat="47.59248" lon="6.75408">
        <ele>502</ele>
        <time>2016-08-15T08:25:27.000Z</time>
      </trkpt>
      <trkpt lat="47.5925" lon="6.75408">
        <ele>505</ele>
        <time>2016-08-15T08:25:28.000Z</time>
      </trkpt>
      <trkpt lat="47.59253" lon="6.75409">
        <ele>505</ele>
        <time>2016-08-15T08:25:30.000Z</time>
      </trkpt>
      <trkpt lat="47.59255" lon="6.7541">
        <ele>505</ele>
        <time>2016-08-15T08:25:31.000Z</time>
      </trkpt>
      <trkpt lat="47.59257" lon="6.75413">
        <ele>505</ele>
        <time>2016-08-15T08:25:33.000Z</time>
      </trkpt>
      <trkpt lat="47.59259" lon="6.75413">
        <ele>505</ele>
        <time>2016-08-15T08:25:34.000Z</time>
      </trkpt>
      <trkpt lat="47.59262" lon="6.75414">
        <ele>505</ele>
        <time>2016-08-15T08:25:36.000Z</time>
      </trkpt>
      <trkpt lat="47.59264" lon="6.75413">
        <ele>506</ele>
        <time>2016-08-15T08:25:37.000Z</time>
      </trkpt>
      <trkpt lat="47.59267" lon="6.75411">
        <ele>506</ele>
        <time>2016-08-15T08:25:39.000Z</time>
      </trkpt>
      <trkpt lat="47.59269" lon="6.7541">
        <ele>506</ele>
        <time>2016-08-15T08:25:40.000Z</time>
      </trkpt>
      <trkpt lat="47.59272" lon="6.75407">
        <ele>506</ele>
        <time>2016-08-15T08:25:42.000Z</time>
      </trkpt>
      <trkpt lat="47.59275" lon="6.75405">
        <ele>507</ele>
        <time>2016-08-15T08:25:43.000Z</time>
      </trkpt>
      <trkpt lat="47.59277" lon="6.75403">
        <ele>507</ele>
        <time>2016-08-15T08:25:44.000Z</time>
      </trkpt>
      <trkpt lat="47.5928" lon="6.75401">
        <ele>507</ele>
        <time>2016-08-15T08:25:45.000Z</time>
      </trkpt>
      <trkpt lat="47.59284" lon="6.754">
        <ele>507</ele>
        <time>2016-08-15T08:25:47.000Z</time>
      </trkpt>
      <trkpt lat="47.59285" lon="6.75401">
        <ele>507</ele>
        <time>2016-08-15T08:25:48.000Z</time>
      </trkpt>
      <trkpt lat="47.59288" lon="6.75401">
        <ele>508</ele>
        <time>2016-08-15T08:25:50.000Z</time>
      </trkpt>
      <trkpt lat="47.5929" lon="6.75401">
        <ele>508</ele>
        <time>2016-08-15T08:25:51.000Z</time>
      </trkpt>
      <trkpt lat="47.59293" lon="6.754">
        <ele>508</ele>
        <time>2016-08-15T08:25:53.000Z</time>
      </trkpt>
      <trkpt lat="47.59295" lon="6.754">
        <ele>508</ele>
        <time>2016-08-15T08:25:54.000Z</time>
      </trkpt>
      <trkpt lat="47.59299" lon="6.75397">
        <ele>508</ele>
        <time>2016-08-15T08:25:57.000Z</time>
      </trkpt>
      <trkpt lat="47.593" lon="6.75396">
        <ele>508</ele>
        <time>2016-08-15T08:25:58.000Z</time>
      </trkpt>
      <trkpt lat="47.59304" lon="6.75394">
        <ele>508</ele>
        <time>2016-08-15T08:26:02.000Z</time>
      </trkpt>
      <trkpt lat="47.59304" lon="6.75393">
        <ele>508</ele>
        <time>2016-08-15T08:26:03.000Z</time>
      </trkpt>
      <trkpt lat="47.59308" lon="6.7539">
        <ele>509</ele>
        <time>2016-08-15T08:26:10.000Z</time>
      </trkpt>
      <trkpt lat="47.59308" lon="6.7539">
        <ele>509</ele>
        <time>2016-08-15T08:26:11.000Z</time>
      </trkpt>
      <trkpt lat="47.59308" lon="6.75396">
        <ele>509</ele>
        <time>2016-08-15T08:28:30.000Z</time>
      </trkpt>
      <trkpt lat="47.59308" lon="6.75398">
        <ele>509</ele>
        <time>2016-08-15T08:28:31.000Z</time>
      </trkpt>
      <trkpt lat="47.5931" lon="6.75402">
        <ele>509</ele>
        <time>2016-08-15T08:29:00.000Z</time>
      </trkpt>
      <trkpt lat="47.5931" lon="6.75404">
        <ele>509</ele>
        <time>2016-08-15T08:29:01.000Z</time>
      </trkpt>
      <trkpt lat="47.59311" lon="6.75409">
        <ele>509</ele>
        <time>2016-08-15T08:29:03.000Z</time>
      </trkpt>
      <trkpt lat="47.59311" lon="6.75411">
        <ele>510</ele>
        <time>2016-08-15T08:29:04.000Z</time>
      </trkpt>
      <trkpt lat="47.59313" lon="6.75416">
        <ele>510</ele>
        <time>2016-08-15T08:29:07.000Z</time>
      </trkpt>
      <trkpt lat="47.59313" lon="6.75418">
        <ele>510</ele>
        <time>2016-08-15T08:29:08.000Z</time>
      </trkpt>
      <trkpt lat="47.59313" lon="6.75422">
        <ele>510</ele>
        <time>2016-08-15T08:29:10.000Z</time>
      </trkpt>
      <trkpt lat="47.59313" lon="6.75425">
        <ele>510</ele>
        <time>2016-08-15T08:29:11.000Z</time>
      </trkpt>
      <trkpt lat="47.59315" lon="6.75429">
        <ele>509</ele>
        <time>2016-08-15T08:29:13.000Z</time>
      </trkpt>
      <trkpt lat="47.59316" lon="6.75432">
        <ele>509</ele>
        <time>2016-08-15T08:29:14.000Z</time>
      </trkpt>
      <trkpt lat="47.59317" lon="6.75435">
        <ele>509</ele>
        <time>2016-08-15T08:29:15.000Z</time>
      </trkpt>
      <trkpt lat="47.59318" lon="6.75439">
        <ele>509</ele>
        <time>2016-08-15T08:29:16.000Z</time>
      </trkpt>
      <trkpt lat="47.59319" lon="6.75443">
        <ele>509</ele>
        <time>2016-08-15T08:29:17.000Z</time>
      </trkpt>
      <trkpt lat="47.59321" lon="6.75447">
        <ele>509</ele>
        <time>2016-08-15T08:29:18.000Z</time>
      </trkpt>
      <trkpt lat="47.59324" lon="6.7545">
        <ele>509</ele>
        <time>2016-08-15T08:29:19.000Z</time>
      </trkpt>
      <trkpt lat="47.59327" lon="6.75452">
        <ele>509</ele>
        <time>2016-08-15T08:29:20.000Z</time>
      </trkpt>
      <trkpt lat="47.5933" lon="6.75452">
        <ele>509</ele>
        <time>2016-08-15T08:29:21.000Z</time>
      </trkpt>
      <trkpt lat="47.59333" lon="6.75451">
        <ele>509</ele>
        <time>2016-08-15T08:29:22.000Z</time>
      </trkpt>
      <trkpt lat="47.59335" lon="6.7545">
        <ele>514</ele>
        <time>2016-08-15T08:29:23.000Z</time>
      </trkpt>
      <trkpt lat="47.59338" lon="6.75448">
        <ele>514</ele>
        <time>2016-08-15T08:29:24.000Z</time>
      </trkpt>
      <trkpt lat="47.5934" lon="6.75446">
        <ele>514</ele>
        <time>2016-08-15T08:29:25.000Z</time>
      </trkpt>
      <trkpt lat="47.59342" lon="6.75444">
        <ele>514</ele>
        <time>2016-08-15T08:29:26.000Z</time>
      </trkpt>
      <trkpt lat="47.59344" lon="6.75439">
        <ele>514</ele>
        <time>2016-08-15T08:29:28.000Z</time>
      </trkpt>
      <trkpt lat="47.59345" lon="6.75437">
        <ele>514</ele>
        <time>2016-08-15T08:29:29.000Z</time>
      </trkpt>
      <trkpt lat="47.59348" lon="6.75438">
        <ele>514</ele>
        <time>2016-08-15T08:29:32.000Z</time>
      </trkpt>
      <trkpt lat="47.5935" lon="6.7544">
        <ele>514</ele>
        <time>2016-08-15T08:29:33.000Z</time>
      </trkpt>
      <trkpt lat="47.59352" lon="6.75444">
        <ele>514</ele>
        <time>2016-08-15T08:29:35.000Z</time>
      </trkpt>
      <trkpt lat="47.59354" lon="6.75446">
        <ele>514</ele>
        <time>2016-08-15T08:29:36.000Z</time>
      </trkpt>
      <trkpt lat="47.59357" lon="6.75448">
        <ele>514</ele>
        <time>2016-08-15T08:29:38.000Z</time>
      </trkpt>
      <trkpt lat="47.59358" lon="6.75449">
        <ele>514</ele>
        <time>2016-08-15T08:29:39.000Z</time>
      </trkpt>
      <trkpt lat="47.59362" lon="6.75451">
        <ele>515</ele>
        <time>2016-08-15T08:29:42.000Z</time>
      </trkpt>
      <trkpt lat="47.59363" lon="6.75452">
        <ele>515</ele>
        <time>2016-08-15T08:29:43.000Z</time>
      </trkpt>
      <trkpt lat="47.59366" lon="6.75455">
        <ele>515</ele>
        <time>2016-08-15T08:29:46.000Z</time>
      </trkpt>
      <trkpt lat="47.59367" lon="6.75456">
        <ele>515</ele>
        <time>2016-08-15T08:29:47.000Z</time>
      </trkpt>
      <trkpt lat="47.59369" lon="6.75458">
        <ele>515</ele>
        <time>2016-08-15T08:29:48.000Z</time>
      </trkpt>
      <trkpt lat="47.59371" lon="6.75461">
        <ele>515</ele>
        <time>2016-08-15T08:29:49.000Z</time>
      </trkpt>
      <trkpt lat="47.59373" lon="6.75464">
        <ele>515</ele>
        <time>2016-08-15T08:29:50.000Z</time>
      </trkpt>
      <trkpt lat="47.59375" lon="6.75467">
        <ele>515</ele>
        <time>2016-08-15T08:29:51.000Z</time>
      </trkpt>
      <trkpt lat="47.59377" lon="6.7547">
        <ele>515</ele>
        <time>2016-08-15T08:29:52.000Z</time>
      </trkpt>
      <trkpt lat="47.59378" lon="6.75473">
        <ele>515</ele>
        <time>2016-08-15T08:29:53.000Z</time>
      </trkpt>
      <trkpt lat="47.5938" lon="6.75477">
        <ele>515</ele>
        <time>2016-08-15T08:29:55.000Z</time>
      </trkpt>
      <trkpt lat="47.59381" lon="6.75479">
        <ele>515</ele>
        <time>2016-08-15T08:29:56.000Z</time>
      </trkpt>
      <trkpt lat="47.59382" lon="6.75484">
        <ele>515</ele>
        <time>2016-08-15T08:29:58.000Z</time>
      </trkpt>
      <trkpt lat="47.59383" lon="6.75486">
        <ele>515</ele>
        <time>2016-08-15T08:29:59.000Z</time>
      </trkpt>
      <trkpt lat="47.59385" lon="6.75492">
        <ele>515</ele>
        <time>2016-08-15T08:30:01.000Z</time>
      </trkpt>
      <trkpt lat="47.59386" lon="6.75495">
        <ele>516</ele>
        <time>2016-08-15T08:30:02.000Z</time>
      </trkpt>
      <trkpt lat="47.59388" lon="6.75499">
        <ele>516</ele>
        <time>2016-08-15T08:30:03.000Z</time>
      </trkpt>
      <trkpt lat="47.59389" lon="6.75502">
        <ele>515</ele>
        <time>2016-08-15T08:30:04.000Z</time>
      </trkpt>
      <trkpt lat="47.5939" lon="6.75505">
        <ele>515</ele>
        <time>2016-08-15T08:30:05.000Z</time>
      </trkpt>
      <trkpt lat="47.59391" lon="6.75508">
        <ele>515</ele>
        <time>2016-08-15T08:30:06.000Z</time>
      </trkpt>
      <trkpt lat="47.59393" lon="6.75511">
        <ele>515</ele>
        <time>2016-08-15T08:30:07.000Z</time>
      </trkpt>
      <trkpt lat="47.59394" lon="6.75514">
        <ele>515</ele>
        <time>2016-08-15T08:30:08.000Z</time>
      </trkpt>
      <trkpt lat="47.59396" lon="6.75517">
        <ele>515</ele>
        <time>2016-08-15T08:30:09.000Z</time>
      </trkpt>
      <trkpt lat="47.59397" lon="6.7552">
        <ele>515</ele>
        <time>2016-08-15T08:30:10.000Z</time>
      </trkpt>
      <trkpt lat="47.59399" lon="6.75523">
        <ele>515</ele>
        <time>2016-08-15T08:30:11.000Z</time>
      </trkpt>
      <trkpt lat="47.594" lon="6.75526">
        <ele>515</ele>
        <time>2016-08-15T08:30:12.000Z</time>
      </trkpt>
      <trkpt lat="47.59401" lon="6.7553">
        <ele>515</ele>
        <time>2016-08-15T08:30:13.000Z</time>
      </trkpt>
      <trkpt lat="47.59403" lon="6.75533">
        <ele>514</ele>
        <time>2016-08-15T08:30:14.000Z</time>
      </trkpt>
      <trkpt lat="47.59405" lon="6.75536">
        <ele>514</ele>
        <time>2016-08-15T08:30:15.000Z</time>
      </trkpt>
      <trkpt lat="47.59407" lon="6.75539">
        <ele>514</ele>
        <time>2016-08-15T08:30:16.000Z</time>
      </trkpt>
      <trkpt lat="47.59409" lon="6.75542">
        <ele>514</ele>
        <time>2016-08-15T08:30:17.000Z</time>
      </trkpt>
      <trkpt lat="47.59411" lon="6.75545">
        <ele>514</ele>
        <time>2016-08-15T08:30:18.000Z</time>
      </trkpt>
      <trkpt lat="47.59414" lon="6.75549">
        <ele>514</ele>
        <time>2016-08-15T08:30:19.000Z</time>
      </trkpt>
      <trkpt lat="47.59416" lon="6.75552">
        <ele>514</ele>
        <time>2016-08-15T08:30:20.000Z</time>
      </trkpt>
      <trkpt lat="47.59419" lon="6.75555">
        <ele>519</ele>
        <time>2016-08-15T08:30:21.000Z</time>
      </trkpt>
      <trkpt lat="47.59422" lon="6.75558">
        <ele>519</ele>
        <time>2016-08-15T08:30:22.000Z</time>
      </trkpt>
      <trkpt lat="47.59424" lon="6.75562">
        <ele>518</ele>
        <time>2016-08-15T08:30:23.000Z</time>
      </trkpt>
      <trkpt lat="47.59427" lon="6.75565">
        <ele>518</ele>
        <time>2016-08-15T08:30:24.000Z</time>
      </trkpt>
      <trkpt lat="47.59429" lon="6.75569">
        <ele>518</ele>
        <time>2016-08-15T08:30:25.000Z</time>
      </trkpt>
      <trkpt lat="47.59431" lon="6.75572">
        <ele>518</ele>
        <time>2016-08-15T08:30:26.000Z</time>
      </trkpt>
      <trkpt lat="47.59433" lon="6.75575">
        <ele>518</ele>
        <time>2016-08-15T08:30:27.000Z</time>
      </trkpt>
      <trkpt lat="47.59435" lon="6.75578">
        <ele>518</ele>
        <time>2016-08-15T08:30:28.000Z</time>
      </trkpt>
      <trkpt lat="47.59437" lon="6.75582">
        <ele>518</ele>
        <time>2016-08-15T08:30:29.000Z</time>
      </trkpt>
      <trkpt lat="47.59439" lon="6.75586">
        <ele>518</ele>
        <time>2016-08-15T08:30:30.000Z</time>
      </trkpt>
      <trkpt lat="47.59441" lon="6.75589">
        <ele>518</ele>
        <time>2016-08-15T08:30:31.000Z</time>
      </trkpt>
      <trkpt lat="47.59442" lon="6.75593">
        <ele>518</ele>
        <time>2016-08-15T08:30:32.000Z</time>
      </trkpt>
      <trkpt lat="47.59444" lon="6.75597">
        <ele>518</ele>
        <time>2016-08-15T08:30:33.000Z</time>
      </trkpt>
      <trkpt lat="47.59446" lon="6.756">
        <ele>518</ele>
        <time>2016-08-15T08:30:34.000Z</time>
      </trkpt>
      <trkpt lat="47.59447" lon="6.75602">
        <ele>518</ele>
        <time>2016-08-15T08:30:35.000Z</time>
      </trkpt>
      <trkpt lat="47.59449" lon="6.75605">
        <ele>518</ele>
        <time>2016-08-15T08:30:36.000Z</time>
      </trkpt>
      <trkpt lat="47.5945" lon="6.75608">
        <ele>518</ele>
        <time>2016-08-15T08:30:37.000Z</time>
      </trkpt>
      <trkpt lat="47.59452" lon="6.75611">
        <ele>519</ele>
        <time>2016-08-15T08:30:38.000Z</time>
      </trkpt>
      <trkpt lat="47.59453" lon="6.75614">
        <ele>519</ele>
        <time>2016-08-15T08:30:39.000Z</time>
      </trkpt>
      <trkpt lat="47.59454" lon="6.75617">
        <ele>519</ele>
        <time>2016-08-15T08:30:40.000Z</time>
      </trkpt>
      <trkpt lat="47.59455" lon="6.7562">
        <ele>519</ele>
        <time>2016-08-15T08:30:41.000Z</time>
      </trkpt>
      <trkpt lat="47.59456" lon="6.75624">
        <ele>519</ele>
        <time>2016-08-15T08:30:42.000Z</time>
      </trkpt>
      <trkpt lat="47.59458" lon="6.75628">
        <ele>519</ele>
        <time>2016-08-15T08:30:43.000Z</time>
      </trkpt>
      <trkpt lat="47.59461" lon="6.75631">
        <ele>519</ele>
        <time>2016-08-15T08:30:44.000Z</time>
      </trkpt>
      <trkpt lat="47.59463" lon="6.75634">
        <ele>519</ele>
        <time>2016-08-15T08:30:45.000Z</time>
      </trkpt>
      <trkpt lat="47.59465" lon="6.75637">
        <ele>519</ele>
        <time>2016-08-15T08:30:46.000Z</time>
      </trkpt>
      <trkpt lat="47.59467" lon="6.75639">
        <ele>519</ele>
        <time>2016-08-15T08:30:47.000Z</time>
      </trkpt>
      <trkpt lat="47.59468" lon="6.75642">
        <ele>519</ele>
        <time>2016-08-15T08:30:48.000Z</time>
      </trkpt>
      <trkpt lat="47.59469" lon="6.75646">
        <ele>519</ele>
        <time>2016-08-15T08:30:49.000Z</time>
      </trkpt>
      <trkpt lat="47.5947" lon="6.75649">
        <ele>519</ele>
        <time>2016-08-15T08:30:50.000Z</time>
      </trkpt>
      <trkpt lat="47.59472" lon="6.75653">
        <ele>519</ele>
        <time>2016-08-15T08:30:51.000Z</time>
      </trkpt>
      <trkpt lat="47.59473" lon="6.75656">
        <ele>519</ele>
        <time>2016-08-15T08:30:52.000Z</time>
      </trkpt>
      <trkpt lat="47.59474" lon="6.75659">
        <ele>520</ele>
        <time>2016-08-15T08:30:53.000Z</time>
      </trkpt>
      <trkpt lat="47.59475" lon="6.75662">
        <ele>520</ele>
        <time>2016-08-15T08:30:54.000Z</time>
      </trkpt>
      <trkpt lat="47.59476" lon="6.75668">
        <ele>518</ele>
        <time>2016-08-15T08:30:56.000Z</time>
      </trkpt>
      <trkpt lat="47.59477" lon="6.75671">
        <ele>519</ele>
        <time>2016-08-15T08:30:57.000Z</time>
      </trkpt>
      <trkpt lat="47.59479" lon="6.75675">
        <ele>519</ele>
        <time>2016-08-15T08:30:59.000Z</time>
      </trkpt>
      <trkpt lat="47.5948" lon="6.75677">
        <ele>519</ele>
        <time>2016-08-15T08:31:00.000Z</time>
      </trkpt>
      <trkpt lat="47.59482" lon="6.75681">
        <ele>519</ele>
        <time>2016-08-15T08:31:02.000Z</time>
      </trkpt>
      <trkpt lat="47.59483" lon="6.75684">
        <ele>519</ele>
        <time>2016-08-15T08:31:03.000Z</time>
      </trkpt>
      <trkpt lat="47.59485" lon="6.75687">
        <ele>519</ele>
        <time>2016-08-15T08:31:04.000Z</time>
      </trkpt>
      <trkpt lat="47.59486" lon="6.7569">
        <ele>518</ele>
        <time>2016-08-15T08:31:05.000Z</time>
      </trkpt>
      <trkpt lat="47.59487" lon="6.75694">
        <ele>518</ele>
        <time>2016-08-15T08:31:06.000Z</time>
      </trkpt>
      <trkpt lat="47.59489" lon="6.75697">
        <ele>518</ele>
        <time>2016-08-15T08:31:07.000Z</time>
      </trkpt>
      <trkpt lat="47.5949" lon="6.757">
        <ele>518</ele>
        <time>2016-08-15T08:31:08.000Z</time>
      </trkpt>
      <trkpt lat="47.59492" lon="6.75703">
        <ele>518</ele>
        <time>2016-08-15T08:31:09.000Z</time>
      </trkpt>
      <trkpt lat="47.59494" lon="6.75706">
        <ele>518</ele>
        <time>2016-08-15T08:31:10.000Z</time>
      </trkpt>
      <trkpt lat="47.59496" lon="6.75708">
        <ele>518</ele>
        <time>2016-08-15T08:31:11.000Z</time>
      </trkpt>
      <trkpt lat="47.59498" lon="6.75711">
        <ele>518</ele>
        <time>2016-08-15T08:31:12.000Z</time>
      </trkpt>
      <trkpt lat="47.595" lon="6.75714">
        <ele>518</ele>
        <time>2016-08-15T08:31:13.000Z</time>
      </trkpt>
      <trkpt lat="47.59502" lon="6.75717">
        <ele>523</ele>
        <time>2016-08-15T08:31:14.000Z</time>
      </trkpt>
      <trkpt lat="47.59503" lon="6.7572">
        <ele>523</ele>
        <time>2016-08-15T08:31:15.000Z</time>
      </trkpt>
      <trkpt lat="47.59505" lon="6.75723">
        <ele>522</ele>
        <time>2016-08-15T08:31:16.000Z</time>
      </trkpt>
      <trkpt lat="47.59506" lon="6.75726">
        <ele>522</ele>
        <time>2016-08-15T08:31:17.000Z</time>
      </trkpt>
      <trkpt lat="47.59508" lon="6.7573">
        <ele>522</ele>
        <time>2016-08-15T08:31:18.000Z</time>
      </trkpt>
      <trkpt lat="47.59509" lon="6.75732">
        <ele>522</ele>
        <time>2016-08-15T08:31:19.000Z</time>
      </trkpt>
      <trkpt lat="47.59512" lon="6.75737">
        <ele>522</ele>
        <time>2016-08-15T08:31:21.000Z</time>
      </trkpt>
      <trkpt lat="47.59514" lon="6.75738">
        <ele>522</ele>
        <time>2016-08-15T08:31:22.000Z</time>
      </trkpt>
      <trkpt lat="47.59516" lon="6.7574">
        <ele>522</ele>
        <time>2016-08-15T08:31:23.000Z</time>
      </trkpt>
      <trkpt lat="47.59518" lon="6.75742">
        <ele>522</ele>
        <time>2016-08-15T08:31:24.000Z</time>
      </trkpt>
      <trkpt lat="47.59522" lon="6.75744">
        <ele>522</ele>
        <time>2016-08-15T08:31:26.000Z</time>
      </trkpt>
      <trkpt lat="47.59523" lon="6.75744">
        <ele>522</ele>
        <time>2016-08-15T08:31:27.000Z</time>
      </trkpt>
      <trkpt lat="47.5952" lon="6.75747">
        <ele>522</ele>
        <time>2016-08-15T08:31:29.000Z</time>
      </trkpt>
      <trkpt lat="47.59518" lon="6.75749">
        <ele>522</ele>
        <time>2016-08-15T08:31:30.000Z</time>
      </trkpt>
      <trkpt lat="47.59515" lon="6.75752">
        <ele>522</ele>
        <time>2016-08-15T08:31:31.000Z</time>
      </trkpt>
      <trkpt lat="47.59512" lon="6.75754">
        <ele>521</ele>
        <time>2016-08-15T08:31:32.000Z</time>
      </trkpt>
      <trkpt lat="47.59509" lon="6.75757">
        <ele>521</ele>
        <time>2016-08-15T08:31:33.000Z</time>
      </trkpt>
      <trkpt lat="47.59507" lon="6.7576">
        <ele>521</ele>
        <time>2016-08-15T08:31:34.000Z</time>
      </trkpt>
      <trkpt lat="47.59505" lon="6.75763">
        <ele>521</ele>
        <time>2016-08-15T08:31:35.000Z</time>
      </trkpt>
      <trkpt lat="47.59503" lon="6.75767">
        <ele>521</ele>
        <time>2016-08-15T08:31:36.000Z</time>
      </trkpt>
      <trkpt lat="47.59502" lon="6.7577">
        <ele>522</ele>
        <time>2016-08-15T08:31:37.000Z</time>
      </trkpt>
      <trkpt lat="47.59502" lon="6.75773">
        <ele>522</ele>
        <time>2016-08-15T08:31:38.000Z</time>
      </trkpt>
      <trkpt lat="47.59502" lon="6.75779">
        <ele>522</ele>
        <time>2016-08-15T08:31:41.000Z</time>
      </trkpt>
      <trkpt lat="47.59505" lon="6.75779">
        <ele>522</ele>
        <time>2016-08-15T08:31:42.000Z</time>
      </trkpt>
      <trkpt lat="47.59507" lon="6.75784">
        <ele>522</ele>
        <time>2016-08-15T08:31:56.000Z</time>
      </trkpt>
      <trkpt lat="47.59507" lon="6.75784">
        <ele>522</ele>
        <time>2016-08-15T08:31:57.000Z</time>
      </trkpt>
      <trkpt lat="47.59507" lon="6.75789">
        <ele>522</ele>
        <time>2016-08-15T08:32:01.000Z</time>
      </trkpt>
      <trkpt lat="47.59507" lon="6.75791">
        <ele>522</ele>
        <time>2016-08-15T08:32:02.000Z</time>
      </trkpt>
      <trkpt lat="47.59507" lon="6.75795">
        <ele>522</ele>
        <time>2016-08-15T08:32:03.000Z</time>
      </trkpt>
      <trkpt lat="47.59506" lon="6.75798">
        <ele>522</ele>
        <time>2016-08-15T08:32:04.000Z</time>
      </trkpt>
      <trkpt lat="47.59505" lon="6.75802">
        <ele>522</ele>
        <time>2016-08-15T08:32:05.000Z</time>
      </trkpt>
      <trkpt lat="47.59504" lon="6.75806">
        <ele>522</ele>
        <time>2016-08-15T08:32:06.000Z</time>
      </trkpt>
      <trkpt lat="47.59503" lon="6.75812">
        <ele>522</ele>
        <time>2016-08-15T08:32:08.000Z</time>
      </trkpt>
      <trkpt lat="47.59503" lon="6.75815">
        <ele>522</ele>
        <time>2016-08-15T08:32:09.000Z</time>
      </trkpt>
      <trkpt lat="47.59502" lon="6.75818">
        <ele>521</ele>
        <time>2016-08-15T08:32:10.000Z</time>
      </trkpt>
      <trkpt lat="47.59502" lon="6.75821">
        <ele>521</ele>
        <time>2016-08-15T08:32:11.000Z</time>
      </trkpt>
      <trkpt lat="47.59502" lon="6.75825">
        <ele>521</ele>
        <time>2016-08-15T08:32:12.000Z</time>
      </trkpt>
      <trkpt lat="47.59501" lon="6.75828">
        <ele>521</ele>
        <time>2016-08-15T08:32:13.000Z</time>
      </trkpt>
      <trkpt lat="47.59498" lon="6.75831">
        <ele>519</ele>
        <time>2016-08-15T08:32:15.000Z</time>
      </trkpt>
      <trkpt lat="47.59496" lon="6.75832">
        <ele>519</ele>
        <time>2016-08-15T08:32:16.000Z</time>
      </trkpt>
      <trkpt lat="47.59492" lon="6.75832">
        <ele>519</ele>
        <time>2016-08-15T08:32:18.000Z</time>
      </trkpt>
      <trkpt lat="47.5949" lon="6.75833">
        <ele>519</ele>
        <time>2016-08-15T08:32:19.000Z</time>
      </trkpt>
      <trkpt lat="47.59487" lon="6.75834">
        <ele>518</ele>
        <time>2016-08-15T08:32:21.000Z</time>
      </trkpt>
      <trkpt lat="47.59485" lon="6.75834">
        <ele>518</ele>
        <time>2016-08-15T08:32:22.000Z</time>
      </trkpt>
      <trkpt lat="47.59481" lon="6.75831">
        <ele>518</ele>
        <time>2016-08-15T08:32:27.000Z</time>
      </trkpt>
      <trkpt lat="47.59481" lon="6.75828">
        <ele>517</ele>
        <time>2016-08-15T08:32:28.000Z</time>
      </trkpt>
      <trkpt lat="47.5948" lon="6.75824">
        <ele>517</ele>
        <time>2016-08-15T08:32:29.000Z</time>
      </trkpt>
      <trkpt lat="47.59479" lon="6.75821">
        <ele>517</ele>
        <time>2016-08-15T08:32:30.000Z</time>
      </trkpt>
      <trkpt lat="47.59479" lon="6.75817">
        <ele>517</ele>
        <time>2016-08-15T08:32:31.000Z</time>
      </trkpt>
      <trkpt lat="47.59478" lon="6.75812">
        <ele>517</ele>
        <time>2016-08-15T08:32:32.000Z</time>
      </trkpt>
      <trkpt lat="47.59476" lon="6.75809">
        <ele>517</ele>
        <time>2016-08-15T08:32:33.000Z</time>
      </trkpt>
      <trkpt lat="47.59474" lon="6.75807">
        <ele>516</ele>
        <time>2016-08-15T08:32:34.000Z</time>
      </trkpt>
      <trkpt lat="47.59471" lon="6.75806">
        <ele>516</ele>
        <time>2016-08-15T08:32:35.000Z</time>
      </trkpt>
      <trkpt lat="47.59466" lon="6.75808">
        <ele>516</ele>
        <time>2016-08-15T08:32:36.000Z</time>
      </trkpt>
      <trkpt lat="47.59444" lon="6.75817">
        <ele>514</ele>
        <time>2016-08-15T08:32:37.000Z</time>
      </trkpt>
      <trkpt lat="47.59441" lon="6.75819">
        <ele>514</ele>
        <time>2016-08-15T08:32:38.000Z</time>
      </trkpt>
      <trkpt lat="47.59439" lon="6.75821">
        <ele>514</ele>
        <time>2016-08-15T08:32:39.000Z</time>
      </trkpt>
      <trkpt lat="47.59438" lon="6.75824">
        <ele>514</ele>
        <time>2016-08-15T08:32:40.000Z</time>
      </trkpt>
      <trkpt lat="47.59436" lon="6.75826">
        <ele>514</ele>
        <time>2016-08-15T08:32:41.000Z</time>
      </trkpt>
      <trkpt lat="47.59433" lon="6.75831">
        <ele>513</ele>
        <time>2016-08-15T08:32:43.000Z</time>
      </trkpt>
      <trkpt lat="47.59431" lon="6.75833">
        <ele>513</ele>
        <time>2016-08-15T08:32:44.000Z</time>
      </trkpt>
      <trkpt lat="47.59429" lon="6.75835">
        <ele>512</ele>
        <time>2016-08-15T08:32:45.000Z</time>
      </trkpt>
      <trkpt lat="47.59427" lon="6.75837">
        <ele>512</ele>
        <time>2016-08-15T08:32:46.000Z</time>
      </trkpt>
      <trkpt lat="47.59425" lon="6.75842">
        <ele>512</ele>
        <time>2016-08-15T08:32:47.000Z</time>
      </trkpt>
      <trkpt lat="47.59424" lon="6.75847">
        <ele>513</ele>
        <time>2016-08-15T08:32:48.000Z</time>
      </trkpt>
      <trkpt lat="47.59422" lon="6.75853">
        <ele>513</ele>
        <time>2016-08-15T08:32:49.000Z</time>
      </trkpt>
      <trkpt lat="47.59422" lon="6.75859">
        <ele>513</ele>
        <time>2016-08-15T08:32:50.000Z</time>
      </trkpt>
      <trkpt lat="47.59423" lon="6.75864">
        <ele>513</ele>
        <time>2016-08-15T08:32:51.000Z</time>
      </trkpt>
      <trkpt lat="47.59423" lon="6.75869">
        <ele>513</ele>
        <time>2016-08-15T08:32:52.000Z</time>
      </trkpt>
      <trkpt lat="47.59423" lon="6.75874">
        <ele>513</ele>
        <time>2016-08-15T08:32:53.000Z</time>
      </trkpt>
      <trkpt lat="47.59424" lon="6.75878">
        <ele>513</ele>
        <time>2016-08-15T08:32:54.000Z</time>
      </trkpt>
      <trkpt lat="47.59424" lon="6.75883">
        <ele>513</ele>
        <time>2016-08-15T08:32:55.000Z</time>
      </trkpt>
      <trkpt lat="47.59425" lon="6.75886">
        <ele>513</ele>
        <time>2016-08-15T08:32:56.000Z</time>
      </trkpt>
      <trkpt lat="47.59425" lon="6.7589">
        <ele>512</ele>
        <time>2016-08-15T08:32:57.000Z</time>
      </trkpt>
      <trkpt lat="47.59426" lon="6.75893">
        <ele>512</ele>
        <time>2016-08-15T08:32:58.000Z</time>
      </trkpt>
      <trkpt lat="47.59426" lon="6.75898">
        <ele>512</ele>
        <time>2016-08-15T08:33:01.000Z</time>
      </trkpt>
      <trkpt lat="47.59427" lon="6.759">
        <ele>512</ele>
        <time>2016-08-15T08:33:02.000Z</time>
      </trkpt>
      <trkpt lat="47.59428" lon="6.75905">
        <ele>512</ele>
        <time>2016-08-15T08:33:04.000Z</time>
      </trkpt>
      <trkpt lat="47.59429" lon="6.75909">
        <ele>511</ele>
        <time>2016-08-15T08:33:05.000Z</time>
      </trkpt>
      <trkpt lat="47.59431" lon="6.75914">
        <ele>511</ele>
        <time>2016-08-15T08:33:07.000Z</time>
      </trkpt>
      <trkpt lat="47.59432" lon="6.75917">
        <ele>511</ele>
        <time>2016-08-15T08:33:08.000Z</time>
      </trkpt>
      <trkpt lat="47.59433" lon="6.7592">
        <ele>511</ele>
        <time>2016-08-15T08:33:09.000Z</time>
      </trkpt>
      <trkpt lat="47.59434" lon="6.75924">
        <ele>512</ele>
        <time>2016-08-15T08:33:10.000Z</time>
      </trkpt>
      <trkpt lat="47.59435" lon="6.75927">
        <ele>512</ele>
        <time>2016-08-15T08:33:11.000Z</time>
      </trkpt>
      <trkpt lat="47.59436" lon="6.7593">
        <ele>512</ele>
        <time>2016-08-15T08:33:12.000Z</time>
      </trkpt>
      <trkpt lat="47.59437" lon="6.75934">
        <ele>512</ele>
        <time>2016-08-15T08:33:14.000Z</time>
      </trkpt>
      <trkpt lat="47.59438" lon="6.75937">
        <ele>512</ele>
        <time>2016-08-15T08:33:15.000Z</time>
      </trkpt>
      <trkpt lat="47.59439" lon="6.7594">
        <ele>512</ele>
        <time>2016-08-15T08:33:17.000Z</time>
      </trkpt>
      <trkpt lat="47.5944" lon="6.75943">
        <ele>512</ele>
        <time>2016-08-15T08:33:18.000Z</time>
      </trkpt>
      <trkpt lat="47.59442" lon="6.75948">
        <ele>513</ele>
        <time>2016-08-15T08:33:20.000Z</time>
      </trkpt>
      <trkpt lat="47.59442" lon="6.75952">
        <ele>513</ele>
        <time>2016-08-15T08:33:21.000Z</time>
      </trkpt>
      <trkpt lat="47.59443" lon="6.75956">
        <ele>513</ele>
        <time>2016-08-15T08:33:22.000Z</time>
      </trkpt>
      <trkpt lat="47.59443" lon="6.7596">
        <ele>513</ele>
        <time>2016-08-15T08:33:23.000Z</time>
      </trkpt>
      <trkpt lat="47.59443" lon="6.75965">
        <ele>513</ele>
        <time>2016-08-15T08:33:24.000Z</time>
      </trkpt>
      <trkpt lat="47.59444" lon="6.75969">
        <ele>513</ele>
        <time>2016-08-15T08:33:25.000Z</time>
      </trkpt>
      <trkpt lat="47.59444" lon="6.75974">
        <ele>513</ele>
        <time>2016-08-15T08:33:26.000Z</time>
      </trkpt>
      <trkpt lat="47.59444" lon="6.75979">
        <ele>513</ele>
        <time>2016-08-15T08:33:27.000Z</time>
      </trkpt>
      <trkpt lat="47.59444" lon="6.75985">
        <ele>513</ele>
        <time>2016-08-15T08:33:29.000Z</time>
      </trkpt>
      <trkpt lat="47.59444" lon="6.75988">
        <ele>513</ele>
        <time>2016-08-15T08:33:30.000Z</time>
      </trkpt>
      <trkpt lat="47.59443" lon="6.75994">
        <ele>513</ele>
        <time>2016-08-15T08:33:32.000Z</time>
      </trkpt>
      <trkpt lat="47.59444" lon="6.75997">
        <ele>513</ele>
        <time>2016-08-15T08:33:33.000Z</time>
      </trkpt>
      <trkpt lat="47.59445" lon="6.76003">
        <ele>512</ele>
        <time>2016-08-15T08:33:34.000Z</time>
      </trkpt>
      <trkpt lat="47.59446" lon="6.76008">
        <ele>512</ele>
        <time>2016-08-15T08:33:35.000Z</time>
      </trkpt>
      <trkpt lat="47.59448" lon="6.76015">
        <ele>512</ele>
        <time>2016-08-15T08:33:36.000Z</time>
      </trkpt>
      <trkpt lat="47.59449" lon="6.76022">
        <ele>512</ele>
        <time>2016-08-15T08:33:37.000Z</time>
      </trkpt>
      <trkpt lat="47.59449" lon="6.76028">
        <ele>512</ele>
        <time>2016-08-15T08:33:38.000Z</time>
      </trkpt>
      <trkpt lat="47.59449" lon="6.76033">
        <ele>512</ele>
        <time>2016-08-15T08:33:39.000Z</time>
      </trkpt>
      <trkpt lat="47.59449" lon="6.76039">
        <ele>512</ele>
        <time>2016-08-15T08:33:40.000Z</time>
      </trkpt>
      <trkpt lat="47.59449" lon="6.76044">
        <ele>512</ele>
        <time>2016-08-15T08:33:41.000Z</time>
      </trkpt>
      <trkpt lat="47.59449" lon="6.7605">
        <ele>512</ele>
        <time>2016-08-15T08:33:42.000Z</time>
      </trkpt>
      <trkpt lat="47.59449" lon="6.76055">
        <ele>512</ele>
        <time>2016-08-15T08:33:43.000Z</time>
      </trkpt>
      <trkpt lat="47.59449" lon="6.76059">
        <ele>512</ele>
        <time>2016-08-15T08:33:44.000Z</time>
      </trkpt>
      <trkpt lat="47.59448" lon="6.76063">
        <ele>512</ele>
        <time>2016-08-15T08:33:45.000Z</time>
      </trkpt>
      <trkpt lat="47.59447" lon="6.76066">
        <ele>512</ele>
        <time>2016-08-15T08:33:46.000Z</time>
      </trkpt>
      <trkpt lat="47.59446" lon="6.76069">
        <ele>511</ele>
        <time>2016-08-15T08:33:47.000Z</time>
      </trkpt>
      <trkpt lat="47.59445" lon="6.76074">
        <ele>511</ele>
        <time>2016-08-15T08:33:48.000Z</time>
      </trkpt>
      <trkpt lat="47.59444" lon="6.76078">
        <ele>511</ele>
        <time>2016-08-15T08:33:49.000Z</time>
      </trkpt>
      <trkpt lat="47.59442" lon="6.76083">
        <ele>511</ele>
        <time>2016-08-15T08:33:50.000Z</time>
      </trkpt>
      <trkpt lat="47.59439" lon="6.76089">
        <ele>510</ele>
        <time>2016-08-15T08:33:51.000Z</time>
      </trkpt>
      <trkpt lat="47.59437" lon="6.76094">
        <ele>510</ele>
        <time>2016-08-15T08:33:52.000Z</time>
      </trkpt>
      <trkpt lat="47.59435" lon="6.76101">
        <ele>510</ele>
        <time>2016-08-15T08:33:53.000Z</time>
      </trkpt>
      <trkpt lat="47.59433" lon="6.76107">
        <ele>510</ele>
        <time>2016-08-15T08:33:54.000Z</time>
      </trkpt>
      <trkpt lat="47.59432" lon="6.76113">
        <ele>510</ele>
        <time>2016-08-15T08:33:55.000Z</time>
      </trkpt>
      <trkpt lat="47.5943" lon="6.76119">
        <ele>510</ele>
        <time>2016-08-15T08:33:56.000Z</time>
      </trkpt>
      <trkpt lat="47.59428" lon="6.76123">
        <ele>510</ele>
        <time>2016-08-15T08:33:57.000Z</time>
      </trkpt>
      <trkpt lat="47.59426" lon="6.76127">
        <ele>509</ele>
        <time>2016-08-15T08:33:58.000Z</time>
      </trkpt>
      <trkpt lat="47.59424" lon="6.76131">
        <ele>509</ele>
        <time>2016-08-15T08:33:59.000Z</time>
      </trkpt>
      <trkpt lat="47.59423" lon="6.76136">
        <ele>509</ele>
        <time>2016-08-15T08:34:00.000Z</time>
      </trkpt>
      <trkpt lat="47.59422" lon="6.76139">
        <ele>509</ele>
        <time>2016-08-15T08:34:01.000Z</time>
      </trkpt>
      <trkpt lat="47.5942" lon="6.76143">
        <ele>509</ele>
        <time>2016-08-15T08:34:02.000Z</time>
      </trkpt>
      <trkpt lat="47.59418" lon="6.76147">
        <ele>508</ele>
        <time>2016-08-15T08:34:03.000Z</time>
      </trkpt>
      <trkpt lat="47.59416" lon="6.76152">
        <ele>505</ele>
        <time>2016-08-15T08:34:04.000Z</time>
      </trkpt>
      <trkpt lat="47.59413" lon="6.76156">
        <ele>505</ele>
        <time>2016-08-15T08:34:05.000Z</time>
      </trkpt>
      <trkpt lat="47.59409" lon="6.76162">
        <ele>505</ele>
        <time>2016-08-15T08:34:06.000Z</time>
      </trkpt>
      <trkpt lat="47.59406" lon="6.76168">
        <ele>504</ele>
        <time>2016-08-15T08:34:07.000Z</time>
      </trkpt>
      <trkpt lat="47.59403" lon="6.76174">
        <ele>504</ele>
        <time>2016-08-15T08:34:08.000Z</time>
      </trkpt>
      <trkpt lat="47.594" lon="6.7618">
        <ele>503</ele>
        <time>2016-08-15T08:34:09.000Z</time>
      </trkpt>
      <trkpt lat="47.59396" lon="6.76187">
        <ele>502</ele>
        <time>2016-08-15T08:34:10.000Z</time>
      </trkpt>
      <trkpt lat="47.59393" lon="6.76194">
        <ele>502</ele>
        <time>2016-08-15T08:34:11.000Z</time>
      </trkpt>
      <trkpt lat="47.59391" lon="6.76201">
        <ele>502</ele>
        <time>2016-08-15T08:34:12.000Z</time>
      </trkpt>
      <trkpt lat="47.59389" lon="6.76207">
        <ele>502</ele>
        <time>2016-08-15T08:34:13.000Z</time>
      </trkpt>
      <trkpt lat="47.59389" lon="6.76213">
        <ele>501</ele>
        <time>2016-08-15T08:34:14.000Z</time>
      </trkpt>
      <trkpt lat="47.59388" lon="6.76219">
        <ele>501</ele>
        <time>2016-08-15T08:34:15.000Z</time>
      </trkpt>
      <trkpt lat="47.59387" lon="6.76225">
        <ele>501</ele>
        <time>2016-08-15T08:34:16.000Z</time>
      </trkpt>
      <trkpt lat="47.59387" lon="6.76231">
        <ele>501</ele>
        <time>2016-08-15T08:34:17.000Z</time>
      </trkpt>
      <trkpt lat="47.59387" lon="6.76237">
        <ele>501</ele>
        <time>2016-08-15T08:34:18.000Z</time>
      </trkpt>
      <trkpt lat="47.59388" lon="6.76242">
        <ele>501</ele>
        <time>2016-08-15T08:34:19.000Z</time>
      </trkpt>
      <trkpt lat="47.59388" lon="6.76247">
        <ele>502</ele>
        <time>2016-08-15T08:34:20.000Z</time>
      </trkpt>
      <trkpt lat="47.59389" lon="6.76253">
        <ele>500</ele>
        <time>2016-08-15T08:34:21.000Z</time>
      </trkpt>
      <trkpt lat="47.59391" lon="6.76258">
        <ele>500</ele>
        <time>2016-08-15T08:34:22.000Z</time>
      </trkpt>
      <trkpt lat="47.59392" lon="6.76264">
        <ele>500</ele>
        <time>2016-08-15T08:34:23.000Z</time>
      </trkpt>
      <trkpt lat="47.59394" lon="6.76269">
        <ele>500</ele>
        <time>2016-08-15T08:34:24.000Z</time>
      </trkpt>
      <trkpt lat="47.59395" lon="6.76275">
        <ele>500</ele>
        <time>2016-08-15T08:34:25.000Z</time>
      </trkpt>
      <trkpt lat="47.59396" lon="6.76281">
        <ele>499</ele>
        <time>2016-08-15T08:34:26.000Z</time>
      </trkpt>
      <trkpt lat="47.59397" lon="6.76288">
        <ele>499</ele>
        <time>2016-08-15T08:34:27.000Z</time>
      </trkpt>
      <trkpt lat="47.59399" lon="6.76294">
        <ele>499</ele>
        <time>2016-08-15T08:34:28.000Z</time>
      </trkpt>
      <trkpt lat="47.594" lon="6.763">
        <ele>499</ele>
        <time>2016-08-15T08:34:29.000Z</time>
      </trkpt>
      <trkpt lat="47.59401" lon="6.76306">
        <ele>499</ele>
        <time>2016-08-15T08:34:30.000Z</time>
      </trkpt>
      <trkpt lat="47.59403" lon="6.76311">
        <ele>499</ele>
        <time>2016-08-15T08:34:31.000Z</time>
      </trkpt>
      <trkpt lat="47.59404" lon="6.7632">
        <ele>500</ele>
        <time>2016-08-15T08:34:32.000Z</time>
      </trkpt>
      <trkpt lat="47.59406" lon="6.76328">
        <ele>500</ele>
        <time>2016-08-15T08:34:33.000Z</time>
      </trkpt>
      <trkpt lat="47.59408" lon="6.76337">
        <ele>499</ele>
        <time>2016-08-15T08:34:34.000Z</time>
      </trkpt>
      <trkpt lat="47.5941" lon="6.76346">
        <ele>498</ele>
        <time>2016-08-15T08:34:35.000Z</time>
      </trkpt>
      <trkpt lat="47.59412" lon="6.76355">
        <ele>497</ele>
        <time>2016-08-15T08:34:36.000Z</time>
      </trkpt>
      <trkpt lat="47.59414" lon="6.76363">
        <ele>496</ele>
        <time>2016-08-15T08:34:37.000Z</time>
      </trkpt>
      <trkpt lat="47.59417" lon="6.76372">
        <ele>503</ele>
        <time>2016-08-15T08:34:38.000Z</time>
      </trkpt>
      <trkpt lat="47.59421" lon="6.76382">
        <ele>502</ele>
        <time>2016-08-15T08:34:39.000Z</time>
      </trkpt>
      <trkpt lat="47.59424" lon="6.76391">
        <ele>502</ele>
        <time>2016-08-15T08:34:40.000Z</time>
      </trkpt>
      <trkpt lat="47.59429" lon="6.76401">
        <ele>501</ele>
        <time>2016-08-15T08:34:41.000Z</time>
      </trkpt>
      <trkpt lat="47.59444" lon="6.76434">
        <ele>500</ele>
        <time>2016-08-15T08:34:42.000Z</time>
      </trkpt>
      <trkpt lat="47.59448" lon="6.76441">
        <ele>501</ele>
        <time>2016-08-15T08:34:43.000Z</time>
      </trkpt>
      <trkpt lat="47.5945" lon="6.76446">
        <ele>501</ele>
        <time>2016-08-15T08:34:44.000Z</time>
      </trkpt>
      <trkpt lat="47.59453" lon="6.7645">
        <ele>501</ele>
        <time>2016-08-15T08:34:45.000Z</time>
      </trkpt>
      <trkpt lat="47.59456" lon="6.76453">
        <ele>501</ele>
        <time>2016-08-15T08:34:46.000Z</time>
      </trkpt>
      <trkpt lat="47.59456" lon="6.7646">
        <ele>501</ele>
        <time>2016-08-15T08:34:47.000Z</time>
      </trkpt>
      <trkpt lat="47.59458" lon="6.76463">
        <ele>501</ele>
        <time>2016-08-15T08:34:48.000Z</time>
      </trkpt>
      <trkpt lat="47.59461" lon="6.76462">
        <ele>501</ele>
        <time>2016-08-15T08:34:49.000Z</time>
      </trkpt>
      <trkpt lat="47.59465" lon="6.76465">
        <ele>502</ele>
        <time>2016-08-15T08:34:51.000Z</time>
      </trkpt>
      <trkpt lat="47.59467" lon="6.76466">
        <ele>502</ele>
        <time>2016-08-15T08:34:52.000Z</time>
      </trkpt>
      <trkpt lat="47.59471" lon="6.76469">
        <ele>502</ele>
        <time>2016-08-15T08:34:54.000Z</time>
      </trkpt>
      <trkpt lat="47.59473" lon="6.7647">
        <ele>502</ele>
        <time>2016-08-15T08:34:55.000Z</time>
      </trkpt>
      <trkpt lat="47.59476" lon="6.76469">
        <ele>502</ele>
        <time>2016-08-15T08:34:56.000Z</time>
      </trkpt>
      <trkpt lat="47.59479" lon="6.76469">
        <ele>502</ele>
        <time>2016-08-15T08:34:57.000Z</time>
      </trkpt>
      <trkpt lat="47.59481" lon="6.76469">
        <ele>502</ele>
        <time>2016-08-15T08:34:58.000Z</time>
      </trkpt>
      <trkpt lat="47.59483" lon="6.7647">
        <ele>503</ele>
        <time>2016-08-15T08:34:59.000Z</time>
      </trkpt>
      <trkpt lat="47.59486" lon="6.76474">
        <ele>503</ele>
        <time>2016-08-15T08:35:01.000Z</time>
      </trkpt>
      <trkpt lat="47.59488" lon="6.76476">
        <ele>503</ele>
        <time>2016-08-15T08:35:02.000Z</time>
      </trkpt>
      <trkpt lat="47.59489" lon="6.76479">
        <ele>503</ele>
        <time>2016-08-15T08:35:03.000Z</time>
      </trkpt>
      <trkpt lat="47.59491" lon="6.76482">
        <ele>503</ele>
        <time>2016-08-15T08:35:04.000Z</time>
      </trkpt>
      <trkpt lat="47.59493" lon="6.76484">
        <ele>503</ele>
        <time>2016-08-15T08:35:05.000Z</time>
      </trkpt>
      <trkpt lat="47.59495" lon="6.76486">
        <ele>504</ele>
        <time>2016-08-15T08:35:06.000Z</time>
      </trkpt>
      <trkpt lat="47.59498" lon="6.76488">
        <ele>504</ele>
        <time>2016-08-15T08:35:08.000Z</time>
      </trkpt>
      <trkpt lat="47.595" lon="6.76488">
        <ele>504</ele>
        <time>2016-08-15T08:35:09.000Z</time>
      </trkpt>
      <trkpt lat="47.59504" lon="6.76492">
        <ele>507</ele>
        <time>2016-08-15T08:35:13.000Z</time>
      </trkpt>
      <trkpt lat="47.59505" lon="6.76493">
        <ele>507</ele>
        <time>2016-08-15T08:35:14.000Z</time>
      </trkpt>
      <trkpt lat="47.59507" lon="6.76496">
        <ele>507</ele>
        <time>2016-08-15T08:35:16.000Z</time>
      </trkpt>
      <trkpt lat="47.59509" lon="6.76497">
        <ele>507</ele>
        <time>2016-08-15T08:35:17.000Z</time>
      </trkpt>
      <trkpt lat="47.59513" lon="6.765">
        <ele>506</ele>
        <time>2016-08-15T08:35:19.000Z</time>
      </trkpt>
      <trkpt lat="47.59515" lon="6.76501">
        <ele>506</ele>
        <time>2016-08-15T08:35:20.000Z</time>
      </trkpt>
      <trkpt lat="47.59518" lon="6.76504">
        <ele>506</ele>
        <time>2016-08-15T08:35:22.000Z</time>
      </trkpt>
      <trkpt lat="47.5952" lon="6.76506">
        <ele>507</ele>
        <time>2016-08-15T08:35:23.000Z</time>
      </trkpt>
      <trkpt lat="47.59522" lon="6.76511">
        <ele>507</ele>
        <time>2016-08-15T08:35:25.000Z</time>
      </trkpt>
      <trkpt lat="47.59524" lon="6.76514">
        <ele>507</ele>
        <time>2016-08-15T08:35:26.000Z</time>
      </trkpt>
      <trkpt lat="47.59527" lon="6.76519">
        <ele>507</ele>
        <time>2016-08-15T08:35:28.000Z</time>
      </trkpt>
      <trkpt lat="47.59528" lon="6.76521">
        <ele>507</ele>
        <time>2016-08-15T08:35:29.000Z</time>
      </trkpt>
      <trkpt lat="47.59531" lon="6.76524">
        <ele>507</ele>
        <time>2016-08-15T08:35:33.000Z</time>
      </trkpt>
      <trkpt lat="47.59533" lon="6.76525">
        <ele>507</ele>
        <time>2016-08-15T08:35:34.000Z</time>
      </trkpt>
      <trkpt lat="47.59537" lon="6.76527">
        <ele>507</ele>
        <time>2016-08-15T08:35:36.000Z</time>
      </trkpt>
      <trkpt lat="47.59539" lon="6.76528">
        <ele>508</ele>
        <time>2016-08-15T08:35:37.000Z</time>
      </trkpt>
      <trkpt lat="47.59541" lon="6.7653">
        <ele>508</ele>
        <time>2016-08-15T08:35:38.000Z</time>
      </trkpt>
      <trkpt lat="47.59544" lon="6.76531">
        <ele>508</ele>
        <time>2016-08-15T08:35:39.000Z</time>
      </trkpt>
      <trkpt lat="47.59547" lon="6.76532">
        <ele>508</ele>
        <time>2016-08-15T08:35:40.000Z</time>
      </trkpt>
      <trkpt lat="47.59549" lon="6.76533">
        <ele>508</ele>
        <time>2016-08-15T08:35:41.000Z</time>
      </trkpt>
      <trkpt lat="47.59552" lon="6.76534">
        <ele>508</ele>
        <time>2016-08-15T08:35:42.000Z</time>
      </trkpt>
      <trkpt lat="47.59555" lon="6.76534">
        <ele>508</ele>
        <time>2016-08-15T08:35:43.000Z</time>
      </trkpt>
      <trkpt lat="47.59557" lon="6.76534">
        <ele>508</ele>
        <time>2016-08-15T08:35:44.000Z</time>
      </trkpt>
      <trkpt lat="47.59559" lon="6.76534">
        <ele>509</ele>
        <time>2016-08-15T08:35:45.000Z</time>
      </trkpt>
      <trkpt lat="47.59564" lon="6.76534">
        <ele>509</ele>
        <time>2016-08-15T08:35:47.000Z</time>
      </trkpt>
      <trkpt lat="47.59565" lon="6.76535">
        <ele>509</ele>
        <time>2016-08-15T08:35:48.000Z</time>
      </trkpt>
      <trkpt lat="47.59569" lon="6.76538">
        <ele>509</ele>
        <time>2016-08-15T08:35:50.000Z</time>
      </trkpt>
      <trkpt lat="47.59571" lon="6.76539">
        <ele>509</ele>
        <time>2016-08-15T08:35:51.000Z</time>
      </trkpt>
      <trkpt lat="47.59572" lon="6.7654">
        <ele>509</ele>
        <time>2016-08-15T08:35:52.000Z</time>
      </trkpt>
      <trkpt lat="47.59575" lon="6.76542">
        <ele>509</ele>
        <time>2016-08-15T08:35:53.000Z</time>
      </trkpt>
      <trkpt lat="47.59577" lon="6.76543">
        <ele>509</ele>
        <time>2016-08-15T08:35:54.000Z</time>
      </trkpt>
      <trkpt lat="47.59579" lon="6.76545">
        <ele>509</ele>
        <time>2016-08-15T08:35:55.000Z</time>
      </trkpt>
      <trkpt lat="47.59583" lon="6.76547">
        <ele>509</ele>
        <time>2016-08-15T08:35:57.000Z</time>
      </trkpt>
      <trkpt lat="47.59584" lon="6.76549">
        <ele>513</ele>
        <time>2016-08-15T08:35:58.000Z</time>
      </trkpt>
      <trkpt lat="47.59587" lon="6.76551">
        <ele>513</ele>
        <time>2016-08-15T08:36:00.000Z</time>
      </trkpt>
      <trkpt lat="47.59588" lon="6.76552">
        <ele>513</ele>
        <time>2016-08-15T08:36:01.000Z</time>
      </trkpt>
      <trkpt lat="47.59592" lon="6.76553">
        <ele>513</ele>
        <time>2016-08-15T08:36:03.000Z</time>
      </trkpt>
      <trkpt lat="47.59594" lon="6.76553">
        <ele>513</ele>
        <time>2016-08-15T08:36:04.000Z</time>
      </trkpt>
      <trkpt lat="47.59597" lon="6.76553">
        <ele>513</ele>
        <time>2016-08-15T08:36:06.000Z</time>
      </trkpt>
      <trkpt lat="47.59599" lon="6.76552">
        <ele>513</ele>
        <time>2016-08-15T08:36:07.000Z</time>
      </trkpt>
      <trkpt lat="47.59602" lon="6.76551">
        <ele>513</ele>
        <time>2016-08-15T08:36:09.000Z</time>
      </trkpt>
      <trkpt lat="47.59603" lon="6.76551">
        <ele>514</ele>
        <time>2016-08-15T08:36:10.000Z</time>
      </trkpt>
      <trkpt lat="47.59607" lon="6.76551">
        <ele>514</ele>
        <time>2016-08-15T08:36:12.000Z</time>
      </trkpt>
      <trkpt lat="47.59609" lon="6.76551">
        <ele>514</ele>
        <time>2016-08-15T08:36:13.000Z</time>
      </trkpt>
      <trkpt lat="47.59611" lon="6.76552">
        <ele>514</ele>
        <time>2016-08-15T08:36:14.000Z</time>
      </trkpt>
      <trkpt lat="47.59613" lon="6.76553">
        <ele>514</ele>
        <time>2016-08-15T08:36:15.000Z</time>
      </trkpt>
      <trkpt lat="47.59615" lon="6.76554">
        <ele>514</ele>
        <time>2016-08-15T08:36:16.000Z</time>
      </trkpt>
      <trkpt lat="47.59617" lon="6.76555">
        <ele>514</ele>
        <time>2016-08-15T08:36:17.000Z</time>
      </trkpt>
      <trkpt lat="47.59621" lon="6.76557">
        <ele>514</ele>
        <time>2016-08-15T08:36:19.000Z</time>
      </trkpt>
      <trkpt lat="47.59623" lon="6.76557">
        <ele>514</ele>
        <time>2016-08-15T08:36:20.000Z</time>
      </trkpt>
      <trkpt lat="47.59625" lon="6.76559">
        <ele>514</ele>
        <time>2016-08-15T08:36:21.000Z</time>
      </trkpt>
      <trkpt lat="47.59627" lon="6.7656">
        <ele>514</ele>
        <time>2016-08-15T08:36:22.000Z</time>
      </trkpt>
      <trkpt lat="47.59631" lon="6.76562">
        <ele>514</ele>
        <time>2016-08-15T08:36:24.000Z</time>
      </trkpt>
      <trkpt lat="47.59633" lon="6.76562">
        <ele>514</ele>
        <time>2016-08-15T08:36:25.000Z</time>
      </trkpt>
      <trkpt lat="47.59636" lon="6.76562">
        <ele>514</ele>
        <time>2016-08-15T08:36:26.000Z</time>
      </trkpt>
      <trkpt lat="47.59638" lon="6.76563">
        <ele>514</ele>
        <time>2016-08-15T08:36:27.000Z</time>
      </trkpt>
      <trkpt lat="47.59641" lon="6.76563">
        <ele>514</ele>
        <time>2016-08-15T08:36:28.000Z</time>
      </trkpt>
      <trkpt lat="47.59642" lon="6.76564">
        <ele>514</ele>
        <time>2016-08-15T08:36:29.000Z</time>
      </trkpt>
      <trkpt lat="47.59646" lon="6.76566">
        <ele>514</ele>
        <time>2016-08-15T08:36:31.000Z</time>
      </trkpt>
      <trkpt lat="47.59649" lon="6.76567">
        <ele>515</ele>
        <time>2016-08-15T08:36:32.000Z</time>
      </trkpt>
      <trkpt lat="47.59652" lon="6.76567">
        <ele>515</ele>
        <time>2016-08-15T08:36:33.000Z</time>
      </trkpt>
      <trkpt lat="47.59655" lon="6.76568">
        <ele>515</ele>
        <time>2016-08-15T08:36:34.000Z</time>
      </trkpt>
      <trkpt lat="47.59659" lon="6.76568">
        <ele>515</ele>
        <time>2016-08-15T08:36:35.000Z</time>
      </trkpt>
      <trkpt lat="47.59662" lon="6.76568">
        <ele>515</ele>
        <time>2016-08-15T08:36:36.000Z</time>
      </trkpt>
      <trkpt lat="47.59664" lon="6.76568">
        <ele>515</ele>
        <time>2016-08-15T08:36:37.000Z</time>
      </trkpt>
      <trkpt lat="47.59667" lon="6.76568">
        <ele>516</ele>
        <time>2016-08-15T08:36:38.000Z</time>
      </trkpt>
      <trkpt lat="47.59669" lon="6.76568">
        <ele>516</ele>
        <time>2016-08-15T08:36:39.000Z</time>
      </trkpt>
      <trkpt lat="47.59672" lon="6.76568">
        <ele>516</ele>
        <time>2016-08-15T08:36:40.000Z</time>
      </trkpt>
      <trkpt lat="47.59675" lon="6.76569">
        <ele>516</ele>
        <time>2016-08-15T08:36:42.000Z</time>
      </trkpt>
      <trkpt lat="47.59676" lon="6.7657">
        <ele>516</ele>
        <time>2016-08-15T08:36:43.000Z</time>
      </trkpt>
      <trkpt lat="47.59681" lon="6.76572">
        <ele>516</ele>
        <time>2016-08-15T08:36:47.000Z</time>
      </trkpt>
      <trkpt lat="47.59681" lon="6.76571">
        <ele>516</ele>
        <time>2016-08-15T08:36:48.000Z</time>
      </trkpt>
      <trkpt lat="47.59685" lon="6.76567">
        <ele>516</ele>
        <time>2016-08-15T08:36:51.000Z</time>
      </trkpt>
      <trkpt lat="47.59685" lon="6.76567">
        <ele>516</ele>
        <time>2016-08-15T08:36:52.000Z</time>
      </trkpt>
      <trkpt lat="47.59689" lon="6.76569">
        <ele>516</ele>
        <time>2016-08-15T08:37:24.000Z</time>
      </trkpt>
      <trkpt lat="47.5969" lon="6.7657">
        <ele>516</ele>
        <time>2016-08-15T08:37:25.000Z</time>
      </trkpt>
      <trkpt lat="47.59694" lon="6.76572">
        <ele>516</ele>
        <time>2016-08-15T08:37:27.000Z</time>
      </trkpt>
      <trkpt lat="47.59696" lon="6.76574">
        <ele>516</ele>
        <time>2016-08-15T08:37:28.000Z</time>
      </trkpt>
      <trkpt lat="47.59699" lon="6.76577">
        <ele>516</ele>
        <time>2016-08-15T08:37:30.000Z</time>
      </trkpt>
      <trkpt lat="47.597" lon="6.76579">
        <ele>517</ele>
        <time>2016-08-15T08:37:31.000Z</time>
      </trkpt>
      <trkpt lat="47.59702" lon="6.76581">
        <ele>517</ele>
        <time>2016-08-15T08:37:32.000Z</time>
      </trkpt>
      <trkpt lat="47.59704" lon="6.76583">
        <ele>517</ele>
        <time>2016-08-15T08:37:33.000Z</time>
      </trkpt>
      <trkpt lat="47.59707" lon="6.76588">
        <ele>514</ele>
        <time>2016-08-15T08:37:35.000Z</time>
      </trkpt>
      <trkpt lat="47.59708" lon="6.76589">
        <ele>514</ele>
        <time>2016-08-15T08:37:36.000Z</time>
      </trkpt>
      <trkpt lat="47.59711" lon="6.76593">
        <ele>514</ele>
        <time>2016-08-15T08:37:43.000Z</time>
      </trkpt>
      <trkpt lat="47.59711" lon="6.76594">
        <ele>514</ele>
        <time>2016-08-15T08:37:44.000Z</time>
      </trkpt>
      <trkpt lat="47.59711" lon="6.76599">
        <ele>514</ele>
        <time>2016-08-15T08:37:46.000Z</time>
      </trkpt>
      <trkpt lat="47.59712" lon="6.76603">
        <ele>513</ele>
        <time>2016-08-15T08:37:47.000Z</time>
      </trkpt>
      <trkpt lat="47.59713" lon="6.76606">
        <ele>513</ele>
        <time>2016-08-15T08:37:48.000Z</time>
      </trkpt>
      <trkpt lat="47.59715" lon="6.76611">
        <ele>513</ele>
        <time>2016-08-15T08:37:49.000Z</time>
      </trkpt>
      <trkpt lat="47.59717" lon="6.76616">
        <ele>513</ele>
        <time>2016-08-15T08:37:50.000Z</time>
      </trkpt>
      <trkpt lat="47.59719" lon="6.76622">
        <ele>513</ele>
        <time>2016-08-15T08:37:51.000Z</time>
      </trkpt>
      <trkpt lat="47.59721" lon="6.76628">
        <ele>513</ele>
        <time>2016-08-15T08:37:52.000Z</time>
      </trkpt>
      <trkpt lat="47.59723" lon="6.76635">
        <ele>512</ele>
        <time>2016-08-15T08:37:53.000Z</time>
      </trkpt>
      <trkpt lat="47.59724" lon="6.76641">
        <ele>512</ele>
        <time>2016-08-15T08:37:54.000Z</time>
      </trkpt>
      <trkpt lat="47.59725" lon="6.76647">
        <ele>512</ele>
        <time>2016-08-15T08:37:55.000Z</time>
      </trkpt>
      <trkpt lat="47.59725" lon="6.76652">
        <ele>512</ele>
        <time>2016-08-15T08:37:56.000Z</time>
      </trkpt>
      <trkpt lat="47.59726" lon="6.76658">
        <ele>511</ele>
        <time>2016-08-15T08:37:57.000Z</time>
      </trkpt>
      <trkpt lat="47.59725" lon="6.76663">
        <ele>511</ele>
        <time>2016-08-15T08:37:58.000Z</time>
      </trkpt>
      <trkpt lat="47.59725" lon="6.76668">
        <ele>508</ele>
        <time>2016-08-15T08:37:59.000Z</time>
      </trkpt>
      <trkpt lat="47.59724" lon="6.76672">
        <ele>508</ele>
        <time>2016-08-15T08:38:00.000Z</time>
      </trkpt>
      <trkpt lat="47.59723" lon="6.76677">
        <ele>508</ele>
        <time>2016-08-15T08:38:01.000Z</time>
      </trkpt>
      <trkpt lat="47.59722" lon="6.76681">
        <ele>508</ele>
        <time>2016-08-15T08:38:02.000Z</time>
      </trkpt>
      <trkpt lat="47.59721" lon="6.76685">
        <ele>508</ele>
        <time>2016-08-15T08:38:03.000Z</time>
      </trkpt>
      <trkpt lat="47.59719" lon="6.76689">
        <ele>508</ele>
        <time>2016-08-15T08:38:04.000Z</time>
      </trkpt>
      <trkpt lat="47.59717" lon="6.76692">
        <ele>508</ele>
        <time>2016-08-15T08:38:05.000Z</time>
      </trkpt>
      <trkpt lat="47.59715" lon="6.76696">
        <ele>508</ele>
        <time>2016-08-15T08:38:06.000Z</time>
      </trkpt>
      <trkpt lat="47.59714" lon="6.76698">
        <ele>508</ele>
        <time>2016-08-15T08:38:07.000Z</time>
      </trkpt>
      <trkpt lat="47.59711" lon="6.76704">
        <ele>508</ele>
        <time>2016-08-15T08:38:12.000Z</time>
      </trkpt>
      <trkpt lat="47.59711" lon="6.76704">
        <ele>508</ele>
        <time>2016-08-15T08:38:13.000Z</time>
      </trkpt>
      <trkpt lat="47.5971" lon="6.76709">
        <ele>507</ele>
        <time>2016-08-15T08:38:20.000Z</time>
      </trkpt>
      <trkpt lat="47.59709" lon="6.76711">
        <ele>507</ele>
        <time>2016-08-15T08:38:21.000Z</time>
      </trkpt>
      <trkpt lat="47.59707" lon="6.76714">
        <ele>507</ele>
        <time>2016-08-15T08:38:23.000Z</time>
      </trkpt>
      <trkpt lat="47.59706" lon="6.76717">
        <ele>507</ele>
        <time>2016-08-15T08:38:24.000Z</time>
      </trkpt>
      <trkpt lat="47.59705" lon="6.76723">
        <ele>507</ele>
        <time>2016-08-15T08:38:26.000Z</time>
      </trkpt>
      <trkpt lat="47.59705" lon="6.76725">
        <ele>507</ele>
        <time>2016-08-15T08:38:27.000Z</time>
      </trkpt>
      <trkpt lat="47.59707" lon="6.7673">
        <ele>507</ele>
        <time>2016-08-15T08:38:29.000Z</time>
      </trkpt>
      <trkpt lat="47.59708" lon="6.76731">
        <ele>507</ele>
        <time>2016-08-15T08:38:30.000Z</time>
      </trkpt>
      <trkpt lat="47.5971" lon="6.76736">
        <ele>507</ele>
        <time>2016-08-15T08:38:33.000Z</time>
      </trkpt>
      <trkpt lat="47.59711" lon="6.76738">
        <ele>507</ele>
        <time>2016-08-15T08:38:34.000Z</time>
      </trkpt>
      <trkpt lat="47.59713" lon="6.76743">
        <ele>506</ele>
        <time>2016-08-15T08:38:38.000Z</time>
      </trkpt>
      <trkpt lat="47.59713" lon="6.76743">
        <ele>506</ele>
        <time>2016-08-15T08:38:39.000Z</time>
      </trkpt>
      <trkpt lat="47.59713" lon="6.76749">
        <ele>506</ele>
        <time>2016-08-15T08:38:43.000Z</time>
      </trkpt>
      <trkpt lat="47.59711" lon="6.76756">
        <ele>503</ele>
        <time>2016-08-15T08:38:44.000Z</time>
      </trkpt>
      <trkpt lat="47.5971" lon="6.7676">
        <ele>503</ele>
        <time>2016-08-15T08:38:45.000Z</time>
      </trkpt>
      <trkpt lat="47.59708" lon="6.76766">
        <ele>503</ele>
        <time>2016-08-15T08:38:46.000Z</time>
      </trkpt>
      <trkpt lat="47.59706" lon="6.76771">
        <ele>503</ele>
        <time>2016-08-15T08:38:47.000Z</time>
      </trkpt>
      <trkpt lat="47.59703" lon="6.76775">
        <ele>503</ele>
        <time>2016-08-15T08:38:48.000Z</time>
      </trkpt>
      <trkpt lat="47.59701" lon="6.76779">
        <ele>503</ele>
        <time>2016-08-15T08:38:49.000Z</time>
      </trkpt>
      <trkpt lat="47.597" lon="6.76782">
        <ele>503</ele>
        <time>2016-08-15T08:38:50.000Z</time>
      </trkpt>
      <trkpt lat="47.59698" lon="6.76787">
        <ele>503</ele>
        <time>2016-08-15T08:38:52.000Z</time>
      </trkpt>
      <trkpt lat="47.59698" lon="6.7679">
        <ele>503</ele>
        <time>2016-08-15T08:38:53.000Z</time>
      </trkpt>
      <trkpt lat="47.59699" lon="6.76792">
        <ele>503</ele>
        <time>2016-08-15T08:38:54.000Z</time>
      </trkpt>
      <trkpt lat="47.597" lon="6.76796">
        <ele>503</ele>
        <time>2016-08-15T08:38:55.000Z</time>
      </trkpt>
      <trkpt lat="47.59701" lon="6.768">
        <ele>502</ele>
        <time>2016-08-15T08:38:56.000Z</time>
      </trkpt>
      <trkpt lat="47.59702" lon="6.76804">
        <ele>502</ele>
        <time>2016-08-15T08:38:57.000Z</time>
      </trkpt>
      <trkpt lat="47.59703" lon="6.76808">
        <ele>502</ele>
        <time>2016-08-15T08:38:58.000Z</time>
      </trkpt>
      <trkpt lat="47.59703" lon="6.76813">
        <ele>502</ele>
        <time>2016-08-15T08:38:59.000Z</time>
      </trkpt>
      <trkpt lat="47.59703" lon="6.76817">
        <ele>502</ele>
        <time>2016-08-15T08:39:00.000Z</time>
      </trkpt>
      <trkpt lat="47.59703" lon="6.76821">
        <ele>502</ele>
        <time>2016-08-15T08:39:01.000Z</time>
      </trkpt>
      <trkpt lat="47.59703" lon="6.76824">
        <ele>502</ele>
        <time>2016-08-15T08:39:02.000Z</time>
      </trkpt>
      <trkpt lat="47.59702" lon="6.76828">
        <ele>502</ele>
        <time>2016-08-15T08:39:03.000Z</time>
      </trkpt>
      <trkpt lat="47.59702" lon="6.76834">
        <ele>499</ele>
        <time>2016-08-15T08:39:05.000Z</time>
      </trkpt>
      <trkpt lat="47.59702" lon="6.76838">
        <ele>499</ele>
        <time>2016-08-15T08:39:06.000Z</time>
      </trkpt>
      <trkpt lat="47.59703" lon="6.76842">
        <ele>498</ele>
        <time>2016-08-15T08:39:07.000Z</time>
      </trkpt>
      <trkpt lat="47.59703" lon="6.76845">
        <ele>498</ele>
        <time>2016-08-15T08:39:08.000Z</time>
      </trkpt>
      <trkpt lat="47.59704" lon="6.76849">
        <ele>498</ele>
        <time>2016-08-15T08:39:09.000Z</time>
      </trkpt>
      <trkpt lat="47.59704" lon="6.76852">
        <ele>498</ele>
        <time>2016-08-15T08:39:10.000Z</time>
      </trkpt>
      <trkpt lat="47.59705" lon="6.76858">
        <ele>498</ele>
        <time>2016-08-15T08:39:12.000Z</time>
      </trkpt>
      <trkpt lat="47.59705" lon="6.76862">
        <ele>498</ele>
        <time>2016-08-15T08:39:13.000Z</time>
      </trkpt>
      <trkpt lat="47.59705" lon="6.76866">
        <ele>498</ele>
        <time>2016-08-15T08:39:14.000Z</time>
      </trkpt>
      <trkpt lat="47.59705" lon="6.76871">
        <ele>497</ele>
        <time>2016-08-15T08:39:15.000Z</time>
      </trkpt>
      <trkpt lat="47.59705" lon="6.76876">
        <ele>497</ele>
        <time>2016-08-15T08:39:16.000Z</time>
      </trkpt>
      <trkpt lat="47.59705" lon="6.76881">
        <ele>497</ele>
        <time>2016-08-15T08:39:17.000Z</time>
      </trkpt>
      <trkpt lat="47.59705" lon="6.76885">
        <ele>497</ele>
        <time>2016-08-15T08:39:18.000Z</time>
      </trkpt>
      <trkpt lat="47.59704" lon="6.76891">
        <ele>497</ele>
        <time>2016-08-15T08:39:19.000Z</time>
      </trkpt>
      <trkpt lat="47.59704" lon="6.76897">
        <ele>497</ele>
        <time>2016-08-15T08:39:20.000Z</time>
      </trkpt>
      <trkpt lat="47.59703" lon="6.76906">
        <ele>497</ele>
        <time>2016-08-15T08:39:21.000Z</time>
      </trkpt>
      <trkpt lat="47.59705" lon="6.7694">
        <ele>493</ele>
        <time>2016-08-15T08:39:22.000Z</time>
      </trkpt>
      <trkpt lat="47.59705" lon="6.76954">
        <ele>492</ele>
        <time>2016-08-15T08:39:23.000Z</time>
      </trkpt>
      <trkpt lat="47.59701" lon="6.76964">
        <ele>492</ele>
        <time>2016-08-15T08:39:24.000Z</time>
      </trkpt>
      <trkpt lat="47.59699" lon="6.7697">
        <ele>492</ele>
        <time>2016-08-15T08:39:25.000Z</time>
      </trkpt>
      <trkpt lat="47.59696" lon="6.76977">
        <ele>491</ele>
        <time>2016-08-15T08:39:26.000Z</time>
      </trkpt>
      <trkpt lat="47.5969" lon="6.76993">
        <ele>491</ele>
        <time>2016-08-15T08:39:27.000Z</time>
      </trkpt>
      <trkpt lat="47.59687" lon="6.77001">
        <ele>488</ele>
        <time>2016-08-15T08:39:28.000Z</time>
      </trkpt>
      <trkpt lat="47.5968" lon="6.77013">
        <ele>488</ele>
        <time>2016-08-15T08:39:29.000Z</time>
      </trkpt>
      <trkpt lat="47.59676" lon="6.77012">
        <ele>488</ele>
        <time>2016-08-15T08:39:30.000Z</time>
      </trkpt>
      <trkpt lat="47.59672" lon="6.77013">
        <ele>488</ele>
        <time>2016-08-15T08:39:31.000Z</time>
      </trkpt>
      <trkpt lat="47.59668" lon="6.77015">
        <ele>488</ele>
        <time>2016-08-15T08:39:32.000Z</time>
      </trkpt>
      <trkpt lat="47.59667" lon="6.77014">
        <ele>489</ele>
        <time>2016-08-15T08:39:33.000Z</time>
      </trkpt>
      <trkpt lat="47.59663" lon="6.77016">
        <ele>488</ele>
        <time>2016-08-15T08:39:34.000Z</time>
      </trkpt>
      <trkpt lat="47.5966" lon="6.77014">
        <ele>488</ele>
        <time>2016-08-15T08:39:35.000Z</time>
      </trkpt>
      <trkpt lat="47.59656" lon="6.77014">
        <ele>488</ele>
        <time>2016-08-15T08:39:41.000Z</time>
      </trkpt>
      <trkpt lat="47.59655" lon="6.77014">
        <ele>488</ele>
        <time>2016-08-15T08:39:42.000Z</time>
      </trkpt>
      <trkpt lat="47.59651" lon="6.77014">
        <ele>487</ele>
        <time>2016-08-15T08:39:49.999Z</time>
      </trkpt>
      <trkpt lat="47.59648" lon="6.77014">
        <ele>487</ele>
        <time>2016-08-15T08:39:51.000Z</time>
      </trkpt>
      <trkpt lat="47.59645" lon="6.77014">
        <ele>487</ele>
        <time>2016-08-15T08:39:52.000Z</time>
      </trkpt>
      <trkpt lat="47.59642" lon="6.77015">
        <ele>486</ele>
        <time>2016-08-15T08:39:53.000Z</time>
      </trkpt>
      <trkpt lat="47.59638" lon="6.77016">
        <ele>486</ele>
        <time>2016-08-15T08:39:54.000Z</time>
      </trkpt>
      <trkpt lat="47.59633" lon="6.77018">
        <ele>486</ele>
        <time>2016-08-15T08:39:55.000Z</time>
      </trkpt>
      <trkpt lat="47.59628" lon="6.77019">
        <ele>486</ele>
        <time>2016-08-15T08:39:56.000Z</time>
      </trkpt>
      <trkpt lat="47.59623" lon="6.7702">
        <ele>485</ele>
        <time>2016-08-15T08:39:57.000Z</time>
      </trkpt>
      <trkpt lat="47.59619" lon="6.77021">
        <ele>485</ele>
        <time>2016-08-15T08:39:58.000Z</time>
      </trkpt>
      <trkpt lat="47.59614" lon="6.77022">
        <ele>485</ele>
        <time>2016-08-15T08:39:59.000Z</time>
      </trkpt>
      <trkpt lat="47.5961" lon="6.77024">
        <ele>485</ele>
        <time>2016-08-15T08:40:00.000Z</time>
      </trkpt>
      <trkpt lat="47.59608" lon="6.77025">
        <ele>485</ele>
        <time>2016-08-15T08:40:01.000Z</time>
      </trkpt>
      <trkpt lat="47.59606" lon="6.7703">
        <ele>485</ele>
        <time>2016-08-15T08:40:04.000Z</time>
      </trkpt>
      <trkpt lat="47.59605" lon="6.77031">
        <ele>485</ele>
        <time>2016-08-15T08:40:05.000Z</time>
      </trkpt>
      <trkpt lat="47.59601" lon="6.77031">
        <ele>485</ele>
        <time>2016-08-15T08:40:10.000Z</time>
      </trkpt>
      <trkpt lat="47.596" lon="6.77031">
        <ele>485</ele>
        <time>2016-08-15T08:40:11.000Z</time>
      </trkpt>
      <trkpt lat="47.596" lon="6.77038">
        <ele>484</ele>
        <time>2016-08-15T08:40:20.000Z</time>
      </trkpt>
      <trkpt lat="47.59601" lon="6.77041">
        <ele>484</ele>
        <time>2016-08-15T08:40:21.000Z</time>
      </trkpt>
      <trkpt lat="47.59601" lon="6.77045">
        <ele>484</ele>
        <time>2016-08-15T08:40:22.000Z</time>
      </trkpt>
      <trkpt lat="47.59601" lon="6.7705">
        <ele>484</ele>
        <time>2016-08-15T08:40:23.000Z</time>
      </trkpt>
      <trkpt lat="47.59601" lon="6.77055">
        <ele>483</ele>
        <time>2016-08-15T08:40:24.000Z</time>
      </trkpt>
      <trkpt lat="47.596" lon="6.7706">
        <ele>483</ele>
        <time>2016-08-15T08:40:25.000Z</time>
      </trkpt>
      <trkpt lat="47.59598" lon="6.77066">
        <ele>483</ele>
        <time>2016-08-15T08:40:26.000Z</time>
      </trkpt>
      <trkpt lat="47.59598" lon="6.7707">
        <ele>482</ele>
        <time>2016-08-15T08:40:27.000Z</time>
      </trkpt>
      <trkpt lat="47.59596" lon="6.77075">
        <ele>482</ele>
        <time>2016-08-15T08:40:29.000Z</time>
      </trkpt>
      <trkpt lat="47.59596" lon="6.77076">
        <ele>482</ele>
        <time>2016-08-15T08:40:30.000Z</time>
      </trkpt>
      <trkpt lat="47.59597" lon="6.77083">
        <ele>482</ele>
        <time>2016-08-15T08:40:40.000Z</time>
      </trkpt>
      <trkpt lat="47.59596" lon="6.77084">
        <ele>479</ele>
        <time>2016-08-15T08:40:41.000Z</time>
      </trkpt>
      <trkpt lat="47.59593" lon="6.77089">
        <ele>479</ele>
        <time>2016-08-15T08:40:44.000Z</time>
      </trkpt>
      <trkpt lat="47.59592" lon="6.7709">
        <ele>479</ele>
        <time>2016-08-15T08:40:45.000Z</time>
      </trkpt>
      <trkpt lat="47.59589" lon="6.77094">
        <ele>479</ele>
        <time>2016-08-15T08:40:47.000Z</time>
      </trkpt>
      <trkpt lat="47.59589" lon="6.77097">
        <ele>478</ele>
        <time>2016-08-15T08:40:48.000Z</time>
      </trkpt>
      <trkpt lat="47.59588" lon="6.77103">
        <ele>478</ele>
        <time>2016-08-15T08:40:50.000Z</time>
      </trkpt>
      <trkpt lat="47.59588" lon="6.77105">
        <ele>478</ele>
        <time>2016-08-15T08:40:51.000Z</time>
      </trkpt>
      <trkpt lat="47.59588" lon="6.77111">
        <ele>477</ele>
        <time>2016-08-15T08:40:55.000Z</time>
      </trkpt>
      <trkpt lat="47.59587" lon="6.77112">
        <ele>477</ele>
        <time>2016-08-15T08:40:56.000Z</time>
      </trkpt>
      <trkpt lat="47.59591" lon="6.77115">
        <ele>477</ele>
        <time>2016-08-15T08:41:08.000Z</time>
      </trkpt>
      <trkpt lat="47.59592" lon="6.77115">
        <ele>477</ele>
        <time>2016-08-15T08:41:09.000Z</time>
      </trkpt>
      <trkpt lat="47.59595" lon="6.77115">
        <ele>477</ele>
        <time>2016-08-15T08:41:13.000Z</time>
      </trkpt>
      <trkpt lat="47.59596" lon="6.77115">
        <ele>477</ele>
        <time>2016-08-15T08:41:14.000Z</time>
      </trkpt>
      <trkpt lat="47.596" lon="6.77117">
        <ele>477</ele>
        <time>2016-08-15T08:41:19.000Z</time>
      </trkpt>
      <trkpt lat="47.596" lon="6.7712">
        <ele>477</ele>
        <time>2016-08-15T08:41:20.000Z</time>
      </trkpt>
      <trkpt lat="47.59597" lon="6.77126">
        <ele>476</ele>
        <time>2016-08-15T08:41:23.000Z</time>
      </trkpt>
      <trkpt lat="47.59598" lon="6.7713">
        <ele>476</ele>
        <time>2016-08-15T08:41:24.000Z</time>
      </trkpt>
      <trkpt lat="47.59594" lon="6.77128">
        <ele>476</ele>
        <time>2016-08-15T08:41:27.000Z</time>
      </trkpt>
      <trkpt lat="47.59592" lon="6.77127">
        <ele>476</ele>
        <time>2016-08-15T08:41:28.000Z</time>
      </trkpt>
      <trkpt lat="47.59588" lon="6.77129">
        <ele>476</ele>
        <time>2016-08-15T08:41:54.000Z</time>
      </trkpt>
      <trkpt lat="47.59587" lon="6.77128">
        <ele>476</ele>
        <time>2016-08-15T08:41:55.000Z</time>
      </trkpt>
      <trkpt lat="47.59586" lon="6.77124">
        <ele>476</ele>
        <time>2016-08-15T08:41:57.000Z</time>
      </trkpt>
      <trkpt lat="47.59585" lon="6.77121">
        <ele>477</ele>
        <time>2016-08-15T08:41:58.000Z</time>
      </trkpt>
      <trkpt lat="47.59583" lon="6.77115">
        <ele>474</ele>
        <time>2016-08-15T08:42:00.000Z</time>
      </trkpt>
      <trkpt lat="47.59582" lon="6.77113">
        <ele>475</ele>
        <time>2016-08-15T08:42:01.000Z</time>
      </trkpt>
      <trkpt lat="47.59579" lon="6.77109">
        <ele>475</ele>
        <time>2016-08-15T08:42:03.000Z</time>
      </trkpt>
      <trkpt lat="47.59578" lon="6.77107">
        <ele>475</ele>
        <time>2016-08-15T08:42:04.000Z</time>
      </trkpt>
      <trkpt lat="47.59576" lon="6.77105">
        <ele>475</ele>
        <time>2016-08-15T08:42:05.000Z</time>
      </trkpt>
      <trkpt lat="47.59575" lon="6.77102">
        <ele>476</ele>
        <time>2016-08-15T08:42:06.000Z</time>
      </trkpt>
      <trkpt lat="47.59573" lon="6.77099">
        <ele>476</ele>
        <time>2016-08-15T08:42:07.000Z</time>
      </trkpt>
      <trkpt lat="47.5957" lon="6.77096">
        <ele>476</ele>
        <time>2016-08-15T08:42:08.000Z</time>
      </trkpt>
      <trkpt lat="47.59569" lon="6.77093">
        <ele>476</ele>
        <time>2016-08-15T08:42:09.000Z</time>
      </trkpt>
      <trkpt lat="47.59567" lon="6.77091">
        <ele>476</ele>
        <time>2016-08-15T08:42:10.000Z</time>
      </trkpt>
      <trkpt lat="47.59564" lon="6.7709">
        <ele>476</ele>
        <time>2016-08-15T08:42:12.000Z</time>
      </trkpt>
      <trkpt lat="47.59562" lon="6.77088">
        <ele>475</ele>
        <time>2016-08-15T08:42:13.000Z</time>
      </trkpt>
      <trkpt lat="47.5956" lon="6.77086">
        <ele>475</ele>
        <time>2016-08-15T08:42:14.000Z</time>
      </trkpt>
      <trkpt lat="47.59558" lon="6.77083">
        <ele>479</ele>
        <time>2016-08-15T08:42:15.000Z</time>
      </trkpt>
      <trkpt lat="47.59557" lon="6.77079">
        <ele>479</ele>
        <time>2016-08-15T08:42:16.000Z</time>
      </trkpt>
      <trkpt lat="47.59556" lon="6.77076">
        <ele>479</ele>
        <time>2016-08-15T08:42:17.000Z</time>
      </trkpt>
      <trkpt lat="47.59555" lon="6.77072">
        <ele>479</ele>
        <time>2016-08-15T08:42:18.000Z</time>
      </trkpt>
      <trkpt lat="47.59554" lon="6.77069">
        <ele>479</ele>
        <time>2016-08-15T08:42:19.000Z</time>
      </trkpt>
      <trkpt lat="47.59553" lon="6.77063">
        <ele>479</ele>
        <time>2016-08-15T08:42:21.000Z</time>
      </trkpt>
      <trkpt lat="47.59552" lon="6.77061">
        <ele>479</ele>
        <time>2016-08-15T08:42:22.000Z</time>
      </trkpt>
      <trkpt lat="47.59548" lon="6.77058">
        <ele>479</ele>
        <time>2016-08-15T08:42:25.000Z</time>
      </trkpt>
      <trkpt lat="47.59546" lon="6.77061">
        <ele>479</ele>
        <time>2016-08-15T08:42:26.000Z</time>
      </trkpt>
      <trkpt lat="47.59544" lon="6.77066">
        <ele>478</ele>
        <time>2016-08-15T08:42:27.000Z</time>
      </trkpt>
      <trkpt lat="47.59542" lon="6.77072">
        <ele>478</ele>
        <time>2016-08-15T08:42:28.000Z</time>
      </trkpt>
      <trkpt lat="47.59539" lon="6.77079">
        <ele>478</ele>
        <time>2016-08-15T08:42:29.000Z</time>
      </trkpt>
      <trkpt lat="47.59537" lon="6.77086">
        <ele>473</ele>
        <time>2016-08-15T08:42:30.000Z</time>
      </trkpt>
      <trkpt lat="47.59529" lon="6.77109">
        <ele>472</ele>
        <time>2016-08-15T08:42:31.000Z</time>
      </trkpt>
      <trkpt lat="47.59528" lon="6.7712">
        <ele>472</ele>
        <time>2016-08-15T08:42:32.000Z</time>
      </trkpt>
      <trkpt lat="47.59526" lon="6.77126">
        <ele>471</ele>
        <time>2016-08-15T08:42:33.000Z</time>
      </trkpt>
      <trkpt lat="47.59523" lon="6.77133">
        <ele>470</ele>
        <time>2016-08-15T08:42:34.000Z</time>
      </trkpt>
      <trkpt lat="47.59519" lon="6.77141">
        <ele>470</ele>
        <time>2016-08-15T08:42:35.000Z</time>
      </trkpt>
      <trkpt lat="47.59516" lon="6.77153">
        <ele>468</ele>
        <time>2016-08-15T08:42:36.000Z</time>
      </trkpt>
      <trkpt lat="47.59514" lon="6.77167">
        <ele>467</ele>
        <time>2016-08-15T08:42:37.000Z</time>
      </trkpt>
      <trkpt lat="47.5951" lon="6.77174">
        <ele>464</ele>
        <time>2016-08-15T08:42:38.000Z</time>
      </trkpt>
      <trkpt lat="47.59505" lon="6.77182">
        <ele>463</ele>
        <time>2016-08-15T08:42:39.000Z</time>
      </trkpt>
      <trkpt lat="47.595" lon="6.77191">
        <ele>455</ele>
        <time>2016-08-15T08:42:40.000Z</time>
      </trkpt>
      <trkpt lat="47.59495" lon="6.77199">
        <ele>454</ele>
        <time>2016-08-15T08:42:41.000Z</time>
      </trkpt>
      <trkpt lat="47.59491" lon="6.77206">
        <ele>453</ele>
        <time>2016-08-15T08:42:42.000Z</time>
      </trkpt>
      <trkpt lat="47.59482" lon="6.77214">
        <ele>452</ele>
        <time>2016-08-15T08:42:43.000Z</time>
      </trkpt>
      <trkpt lat="47.59478" lon="6.77225">
        <ele>451</ele>
        <time>2016-08-15T08:42:44.000Z</time>
      </trkpt>
      <trkpt lat="47.59475" lon="6.77234">
        <ele>451</ele>
        <time>2016-08-15T08:42:45.000Z</time>
      </trkpt>
      <trkpt lat="47.59471" lon="6.77244">
        <ele>451</ele>
        <time>2016-08-15T08:42:46.000Z</time>
      </trkpt>
      <trkpt lat="47.59469" lon="6.77254">
        <ele>447</ele>
        <time>2016-08-15T08:42:47.000Z</time>
      </trkpt>
      <trkpt lat="47.59466" lon="6.77265">
        <ele>446</ele>
        <time>2016-08-15T08:42:48.000Z</time>
      </trkpt>
      <trkpt lat="47.5946" lon="6.77273">
        <ele>445</ele>
        <time>2016-08-15T08:42:49.000Z</time>
      </trkpt>
      <trkpt lat="47.59451" lon="6.77279">
        <ele>444</ele>
        <time>2016-08-15T08:42:50.000Z</time>
      </trkpt>
      <trkpt lat="47.59444" lon="6.77287">
        <ele>443</ele>
        <time>2016-08-15T08:42:51.000Z</time>
      </trkpt>
      <trkpt lat="47.59435" lon="6.77295">
        <ele>442</ele>
        <time>2016-08-15T08:42:52.000Z</time>
      </trkpt>
      <trkpt lat="47.59429" lon="6.77304">
        <ele>441</ele>
        <time>2016-08-15T08:42:53.000Z</time>
      </trkpt>
      <trkpt lat="47.59422" lon="6.77311">
        <ele>440</ele>
        <time>2016-08-15T08:42:54.000Z</time>
      </trkpt>
      <trkpt lat="47.5942" lon="6.77323">
        <ele>438</ele>
        <time>2016-08-15T08:42:55.000Z</time>
      </trkpt>
      <trkpt lat="47.59418" lon="6.77329">
        <ele>436</ele>
        <time>2016-08-15T08:42:56.000Z</time>
      </trkpt>
      <trkpt lat="47.59414" lon="6.77335">
        <ele>434</ele>
        <time>2016-08-15T08:42:57.000Z</time>
      </trkpt>
      <trkpt lat="47.5941" lon="6.77337">
        <ele>433</ele>
        <time>2016-08-15T08:42:59.000Z</time>
      </trkpt>
      <trkpt lat="47.59408" lon="6.77341">
        <ele>432</ele>
        <time>2016-08-15T08:43:00.000Z</time>
      </trkpt>
      <trkpt lat="47.59406" lon="6.77346">
        <ele>432</ele>
        <time>2016-08-15T08:43:03.000Z</time>
      </trkpt>
      <trkpt lat="47.59404" lon="6.77348">
        <ele>431</ele>
        <time>2016-08-15T08:43:04.000Z</time>
      </trkpt>
      <trkpt lat="47.59404" lon="6.77354">
        <ele>431</ele>
        <time>2016-08-15T08:43:06.000Z</time>
      </trkpt>
      <trkpt lat="47.59403" lon="6.77355">
        <ele>431</ele>
        <time>2016-08-15T08:43:07.000Z</time>
      </trkpt>
      <trkpt lat="47.59407" lon="6.77355">
        <ele>431</ele>
        <time>2016-08-15T08:43:21.000Z</time>
      </trkpt>
      <trkpt lat="47.59408" lon="6.77356">
        <ele>431</ele>
        <time>2016-08-15T08:43:22.000Z</time>
      </trkpt>
      <trkpt lat="47.59411" lon="6.77359">
        <ele>431</ele>
        <time>2016-08-15T08:43:26.000Z</time>
      </trkpt>
      <trkpt lat="47.59411" lon="6.77361">
        <ele>431</ele>
        <time>2016-08-15T08:43:27.000Z</time>
      </trkpt>
      <trkpt lat="47.59409" lon="6.77366">
        <ele>431</ele>
        <time>2016-08-15T08:43:32.000Z</time>
      </trkpt>
      <trkpt lat="47.59409" lon="6.77368">
        <ele>431</ele>
        <time>2016-08-15T08:43:33.000Z</time>
      </trkpt>
      <trkpt lat="47.59407" lon="6.77372">
        <ele>430</ele>
        <time>2016-08-15T08:43:34.000Z</time>
      </trkpt>
      <trkpt lat="47.59404" lon="6.77378">
        <ele>430</ele>
        <time>2016-08-15T08:43:35.000Z</time>
      </trkpt>
      <trkpt lat="47.59401" lon="6.77382">
        <ele>430</ele>
        <time>2016-08-15T08:43:36.000Z</time>
      </trkpt>
      <trkpt lat="47.59398" lon="6.77387">
        <ele>430</ele>
        <time>2016-08-15T08:43:37.000Z</time>
      </trkpt>
      <trkpt lat="47.59393" lon="6.77394">
        <ele>430</ele>
        <time>2016-08-15T08:43:38.000Z</time>
      </trkpt>
      <trkpt lat="47.59384" lon="6.7742">
        <ele>429</ele>
        <time>2016-08-15T08:43:39.000Z</time>
      </trkpt>
      <trkpt lat="47.59379" lon="6.77431">
        <ele>428</ele>
        <time>2016-08-15T08:43:40.000Z</time>
      </trkpt>
      <trkpt lat="47.59377" lon="6.7744">
        <ele>427</ele>
        <time>2016-08-15T08:43:41.000Z</time>
      </trkpt>
      <trkpt lat="47.59374" lon="6.77448">
        <ele>427</ele>
        <time>2016-08-15T08:43:42.000Z</time>
      </trkpt>
      <trkpt lat="47.59371" lon="6.77457">
        <ele>427</ele>
        <time>2016-08-15T08:43:43.000Z</time>
      </trkpt>
      <trkpt lat="47.5937" lon="6.77466">
        <ele>426</ele>
        <time>2016-08-15T08:43:44.000Z</time>
      </trkpt>
      <trkpt lat="47.59368" lon="6.77475">
        <ele>426</ele>
        <time>2016-08-15T08:43:45.000Z</time>
      </trkpt>
      <trkpt lat="47.59368" lon="6.77485">
        <ele>426</ele>
        <time>2016-08-15T08:43:46.000Z</time>
      </trkpt>
      <trkpt lat="47.59367" lon="6.775">
        <ele>426</ele>
        <time>2016-08-15T08:43:47.000Z</time>
      </trkpt>
      <trkpt lat="47.59367" lon="6.77511">
        <ele>423</ele>
        <time>2016-08-15T08:43:48.000Z</time>
      </trkpt>
      <trkpt lat="47.59364" lon="6.77522">
        <ele>422</ele>
        <time>2016-08-15T08:43:49.000Z</time>
      </trkpt>
      <trkpt lat="47.5936" lon="6.77529">
        <ele>422</ele>
        <time>2016-08-15T08:43:50.000Z</time>
      </trkpt>
      <trkpt lat="47.59357" lon="6.77537">
        <ele>422</ele>
        <time>2016-08-15T08:43:51.000Z</time>
      </trkpt>
      <trkpt lat="47.59354" lon="6.77543">
        <ele>421</ele>
        <time>2016-08-15T08:43:52.000Z</time>
      </trkpt>
      <trkpt lat="47.59352" lon="6.77549">
        <ele>421</ele>
        <time>2016-08-15T08:43:53.000Z</time>
      </trkpt>
      <trkpt lat="47.59356" lon="6.77558">
        <ele>421</ele>
        <time>2016-08-15T08:43:54.000Z</time>
      </trkpt>
      <trkpt lat="47.59356" lon="6.77563">
        <ele>420</ele>
        <time>2016-08-15T08:43:55.000Z</time>
      </trkpt>
      <trkpt lat="47.59354" lon="6.77568">
        <ele>420</ele>
        <time>2016-08-15T08:43:56.000Z</time>
      </trkpt>
      <trkpt lat="47.59352" lon="6.77573">
        <ele>419</ele>
        <time>2016-08-15T08:43:57.000Z</time>
      </trkpt>
      <trkpt lat="47.59352" lon="6.77581">
        <ele>419</ele>
        <time>2016-08-15T08:43:58.000Z</time>
      </trkpt>
      <trkpt lat="47.59353" lon="6.77587">
        <ele>415</ele>
        <time>2016-08-15T08:43:59.000Z</time>
      </trkpt>
      <trkpt lat="47.59353" lon="6.77591">
        <ele>415</ele>
        <time>2016-08-15T08:44:00.000Z</time>
      </trkpt>
      <trkpt lat="47.59352" lon="6.77596">
        <ele>415</ele>
        <time>2016-08-15T08:44:01.000Z</time>
      </trkpt>
      <trkpt lat="47.59352" lon="6.77599">
        <ele>415</ele>
        <time>2016-08-15T08:44:02.000Z</time>
      </trkpt>
      <trkpt lat="47.59353" lon="6.77603">
        <ele>415</ele>
        <time>2016-08-15T08:44:03.000Z</time>
      </trkpt>
      <trkpt lat="47.59354" lon="6.77607">
        <ele>415</ele>
        <time>2016-08-15T08:44:04.000Z</time>
      </trkpt>
      <trkpt lat="47.59355" lon="6.77611">
        <ele>415</ele>
        <time>2016-08-15T08:44:05.000Z</time>
      </trkpt>
      <trkpt lat="47.59357" lon="6.77615">
        <ele>415</ele>
        <time>2016-08-15T08:44:06.000Z</time>
      </trkpt>
      <trkpt lat="47.59359" lon="6.7762">
        <ele>415</ele>
        <time>2016-08-15T08:44:07.000Z</time>
      </trkpt>
      <trkpt lat="47.59361" lon="6.77625">
        <ele>415</ele>
        <time>2016-08-15T08:44:08.000Z</time>
      </trkpt>
      <trkpt lat="47.59364" lon="6.7763">
        <ele>414</ele>
        <time>2016-08-15T08:44:09.000Z</time>
      </trkpt>
      <trkpt lat="47.59366" lon="6.77635">
        <ele>414</ele>
        <time>2016-08-15T08:44:10.000Z</time>
      </trkpt>
      <trkpt lat="47.59369" lon="6.77639">
        <ele>414</ele>
        <time>2016-08-15T08:44:11.000Z</time>
      </trkpt>
      <trkpt lat="47.59372" lon="6.77644">
        <ele>414</ele>
        <time>2016-08-15T08:44:12.000Z</time>
      </trkpt>
      <trkpt lat="47.59374" lon="6.77649">
        <ele>414</ele>
        <time>2016-08-15T08:44:13.000Z</time>
      </trkpt>
      <trkpt lat="47.59377" lon="6.77654">
        <ele>414</ele>
        <time>2016-08-15T08:44:14.000Z</time>
      </trkpt>
      <trkpt lat="47.59379" lon="6.77659">
        <ele>414</ele>
        <time>2016-08-15T08:44:15.000Z</time>
      </trkpt>
      <trkpt lat="47.59381" lon="6.77664">
        <ele>414</ele>
        <time>2016-08-15T08:44:16.000Z</time>
      </trkpt>
      <trkpt lat="47.59383" lon="6.77668">
        <ele>409</ele>
        <time>2016-08-15T08:44:17.000Z</time>
      </trkpt>
      <trkpt lat="47.59386" lon="6.77673">
        <ele>409</ele>
        <time>2016-08-15T08:44:18.000Z</time>
      </trkpt>
      <trkpt lat="47.59388" lon="6.77678">
        <ele>409</ele>
        <time>2016-08-15T08:44:19.000Z</time>
      </trkpt>
      <trkpt lat="47.5939" lon="6.77682">
        <ele>409</ele>
        <time>2016-08-15T08:44:20.000Z</time>
      </trkpt>
      <trkpt lat="47.59393" lon="6.77687">
        <ele>409</ele>
        <time>2016-08-15T08:44:21.000Z</time>
      </trkpt>
      <trkpt lat="47.59396" lon="6.77691">
        <ele>409</ele>
        <time>2016-08-15T08:44:22.000Z</time>
      </trkpt>
      <trkpt lat="47.59399" lon="6.77696">
        <ele>409</ele>
        <time>2016-08-15T08:44:23.000Z</time>
      </trkpt>
      <trkpt lat="47.59402" lon="6.777">
        <ele>409</ele>
        <time>2016-08-15T08:44:24.000Z</time>
      </trkpt>
      <trkpt lat="47.59406" lon="6.77704">
        <ele>409</ele>
        <time>2016-08-15T08:44:25.000Z</time>
      </trkpt>
      <trkpt lat="47.59409" lon="6.77707">
        <ele>408</ele>
        <time>2016-08-15T08:44:26.000Z</time>
      </trkpt>
      <trkpt lat="47.59413" lon="6.7771">
        <ele>408</ele>
        <time>2016-08-15T08:44:27.000Z</time>
      </trkpt>
      <trkpt lat="47.59416" lon="6.77713">
        <ele>408</ele>
        <time>2016-08-15T08:44:28.000Z</time>
      </trkpt>
      <trkpt lat="47.5942" lon="6.77716">
        <ele>412</ele>
        <time>2016-08-15T08:44:29.000Z</time>
      </trkpt>
      <trkpt lat="47.59423" lon="6.77719">
        <ele>412</ele>
        <time>2016-08-15T08:44:30.000Z</time>
      </trkpt>
      <trkpt lat="47.59427" lon="6.77723">
        <ele>412</ele>
        <time>2016-08-15T08:44:31.000Z</time>
      </trkpt>
      <trkpt lat="47.5943" lon="6.77727">
        <ele>411</ele>
        <time>2016-08-15T08:44:32.000Z</time>
      </trkpt>
      <trkpt lat="47.59434" lon="6.7773">
        <ele>411</ele>
        <time>2016-08-15T08:44:33.000Z</time>
      </trkpt>
      <trkpt lat="47.59438" lon="6.77732">
        <ele>412</ele>
        <time>2016-08-15T08:44:34.000Z</time>
      </trkpt>
      <trkpt lat="47.59443" lon="6.77734">
        <ele>412</ele>
        <time>2016-08-15T08:44:35.000Z</time>
      </trkpt>
      <trkpt lat="47.59447" lon="6.77735">
        <ele>412</ele>
        <time>2016-08-15T08:44:36.000Z</time>
      </trkpt>
      <trkpt lat="47.59451" lon="6.77737">
        <ele>412</ele>
        <time>2016-08-15T08:44:37.000Z</time>
      </trkpt>
      <trkpt lat="47.59455" lon="6.77738">
        <ele>412</ele>
        <time>2016-08-15T08:44:38.000Z</time>
      </trkpt>
      <trkpt lat="47.59458" lon="6.7774">
        <ele>412</ele>
        <time>2016-08-15T08:44:39.000Z</time>
      </trkpt>
      <trkpt lat="47.59462" lon="6.77742">
        <ele>412</ele>
        <time>2016-08-15T08:44:40.000Z</time>
      </trkpt>
      <trkpt lat="47.59466" lon="6.77745">
        <ele>412</ele>
        <time>2016-08-15T08:44:41.000Z</time>
      </trkpt>
      <trkpt lat="47.5947" lon="6.77749">
        <ele>412</ele>
        <time>2016-08-15T08:44:42.000Z</time>
      </trkpt>
      <trkpt lat="47.59474" lon="6.77753">
        <ele>409</ele>
        <time>2016-08-15T08:44:43.000Z</time>
      </trkpt>
      <trkpt lat="47.59478" lon="6.77758">
        <ele>409</ele>
        <time>2016-08-15T08:44:44.000Z</time>
      </trkpt>
      <trkpt lat="47.59483" lon="6.77764">
        <ele>409</ele>
        <time>2016-08-15T08:44:45.000Z</time>
      </trkpt>
      <trkpt lat="47.59487" lon="6.7777">
        <ele>409</ele>
        <time>2016-08-15T08:44:46.000Z</time>
      </trkpt>
      <trkpt lat="47.59492" lon="6.77775">
        <ele>409</ele>
        <time>2016-08-15T08:44:47.000Z</time>
      </trkpt>
      <trkpt lat="47.59496" lon="6.7778">
        <ele>408</ele>
        <time>2016-08-15T08:44:48.000Z</time>
      </trkpt>
      <trkpt lat="47.59499" lon="6.77783">
        <ele>408</ele>
        <time>2016-08-15T08:44:49.000Z</time>
      </trkpt>
      <trkpt lat="47.59501" lon="6.77786">
        <ele>410</ele>
        <time>2016-08-15T08:44:50.000Z</time>
      </trkpt>
      <trkpt lat="47.595" lon="6.77792">
        <ele>410</ele>
        <time>2016-08-15T08:44:56.000Z</time>
      </trkpt>
      <trkpt lat="47.59499" lon="6.77793">
        <ele>408</ele>
        <time>2016-08-15T08:44:57.000Z</time>
      </trkpt>
      <trkpt lat="47.59499" lon="6.77797">
        <ele>408</ele>
        <time>2016-08-15T08:45:02.000Z</time>
      </trkpt>
      <trkpt lat="47.595" lon="6.77801">
        <ele>408</ele>
        <time>2016-08-15T08:45:03.000Z</time>
      </trkpt>
      <trkpt lat="47.595" lon="6.77805">
        <ele>409</ele>
        <time>2016-08-15T08:45:04.000Z</time>
      </trkpt>
      <trkpt lat="47.59501" lon="6.77809">
        <ele>409</ele>
        <time>2016-08-15T08:45:05.000Z</time>
      </trkpt>
      <trkpt lat="47.59502" lon="6.77813">
        <ele>409</ele>
        <time>2016-08-15T08:45:06.000Z</time>
      </trkpt>
      <trkpt lat="47.59502" lon="6.77817">
        <ele>409</ele>
        <time>2016-08-15T08:45:07.000Z</time>
      </trkpt>
      <trkpt lat="47.59503" lon="6.77821">
        <ele>409</ele>
        <time>2016-08-15T08:45:08.000Z</time>
      </trkpt>
      <trkpt lat="47.59503" lon="6.77824">
        <ele>408</ele>
        <time>2016-08-15T08:45:09.000Z</time>
      </trkpt>
      <trkpt lat="47.59503" lon="6.77828">
        <ele>408</ele>
        <time>2016-08-15T08:45:10.000Z</time>
      </trkpt>
      <trkpt lat="47.59502" lon="6.77831">
        <ele>408</ele>
        <time>2016-08-15T08:45:11.000Z</time>
      </trkpt>
      <trkpt lat="47.59502" lon="6.77836">
        <ele>408</ele>
        <time>2016-08-15T08:45:12.000Z</time>
      </trkpt>
      <trkpt lat="47.59503" lon="6.77842">
        <ele>407</ele>
        <time>2016-08-15T08:45:13.000Z</time>
      </trkpt>
      <trkpt lat="47.59509" lon="6.77863">
        <ele>406</ele>
        <time>2016-08-15T08:45:14.000Z</time>
      </trkpt>
      <trkpt lat="47.59508" lon="6.77871">
        <ele>405</ele>
        <time>2016-08-15T08:45:15.000Z</time>
      </trkpt>
      <trkpt lat="47.59507" lon="6.77879">
        <ele>405</ele>
        <time>2016-08-15T08:45:16.000Z</time>
      </trkpt>
      <trkpt lat="47.59507" lon="6.7789">
        <ele>404</ele>
        <time>2016-08-15T08:45:17.000Z</time>
      </trkpt>
      <trkpt lat="47.59506" lon="6.77898">
        <ele>404</ele>
        <time>2016-08-15T08:45:18.000Z</time>
      </trkpt>
      <trkpt lat="47.59505" lon="6.77905">
        <ele>404</ele>
        <time>2016-08-15T08:45:19.000Z</time>
      </trkpt>
      <trkpt lat="47.59506" lon="6.77911">
        <ele>404</ele>
        <time>2016-08-15T08:45:20.000Z</time>
      </trkpt>
      <trkpt lat="47.59506" lon="6.77915">
        <ele>403</ele>
        <time>2016-08-15T08:45:21.000Z</time>
      </trkpt>
      <trkpt lat="47.59507" lon="6.77918">
        <ele>403</ele>
        <time>2016-08-15T08:45:22.000Z</time>
      </trkpt>
      <trkpt lat="47.59513" lon="6.77928">
        <ele>402</ele>
        <time>2016-08-15T08:45:23.000Z</time>
      </trkpt>
      <trkpt lat="47.59516" lon="6.77931">
        <ele>402</ele>
        <time>2016-08-15T08:45:27.000Z</time>
      </trkpt>
      <trkpt lat="47.59517" lon="6.77932">
        <ele>402</ele>
        <time>2016-08-15T08:45:28.000Z</time>
      </trkpt>
      <trkpt lat="47.59518" lon="6.77936">
        <ele>402</ele>
        <time>2016-08-15T08:45:37.000Z</time>
      </trkpt>
      <trkpt lat="47.59519" lon="6.77937">
        <ele>402</ele>
        <time>2016-08-15T08:45:38.000Z</time>
      </trkpt>
      <trkpt lat="47.59523" lon="6.7794">
        <ele>402</ele>
        <time>2016-08-15T08:45:41.000Z</time>
      </trkpt>
      <trkpt lat="47.59525" lon="6.77939">
        <ele>402</ele>
        <time>2016-08-15T08:45:42.000Z</time>
      </trkpt>
      <trkpt lat="47.59527" lon="6.77935">
        <ele>402</ele>
        <time>2016-08-15T08:45:44.000Z</time>
      </trkpt>
      <trkpt lat="47.59528" lon="6.77932">
        <ele>402</ele>
        <time>2016-08-15T08:45:45.000Z</time>
      </trkpt>
      <trkpt lat="47.59531" lon="6.77929">
        <ele>402</ele>
        <time>2016-08-15T08:45:47.000Z</time>
      </trkpt>
      <trkpt lat="47.59533" lon="6.77928">
        <ele>402</ele>
        <time>2016-08-15T08:45:48.000Z</time>
      </trkpt>
      <trkpt lat="47.59537" lon="6.77926">
        <ele>402</ele>
        <time>2016-08-15T08:45:50.000Z</time>
      </trkpt>
      <trkpt lat="47.59539" lon="6.77925">
        <ele>402</ele>
        <time>2016-08-15T08:45:51.000Z</time>
      </trkpt>
      <trkpt lat="47.59541" lon="6.77923">
        <ele>402</ele>
        <time>2016-08-15T08:45:52.000Z</time>
      </trkpt>
      <trkpt lat="47.59544" lon="6.77922">
        <ele>402</ele>
        <time>2016-08-15T08:45:53.000Z</time>
      </trkpt>
      <trkpt lat="47.59547" lon="6.7792">
        <ele>402</ele>
        <time>2016-08-15T08:45:54.000Z</time>
      </trkpt>
      <trkpt lat="47.5955" lon="6.77919">
        <ele>402</ele>
        <time>2016-08-15T08:45:55.000Z</time>
      </trkpt>
      <trkpt lat="47.59553" lon="6.77919">
        <ele>402</ele>
        <time>2016-08-15T08:45:56.000Z</time>
      </trkpt>
      <trkpt lat="47.59556" lon="6.77918">
        <ele>402</ele>
        <time>2016-08-15T08:45:57.000Z</time>
      </trkpt>
      <trkpt lat="47.59559" lon="6.77916">
        <ele>404</ele>
        <time>2016-08-15T08:45:58.000Z</time>
      </trkpt>
      <trkpt lat="47.59562" lon="6.77914">
        <ele>403</ele>
        <time>2016-08-15T08:45:59.000Z</time>
      </trkpt>
      <trkpt lat="47.59564" lon="6.77912">
        <ele>403</ele>
        <time>2016-08-15T08:46:00.000Z</time>
      </trkpt>
      <trkpt lat="47.59566" lon="6.7791">
        <ele>403</ele>
        <time>2016-08-15T08:46:01.000Z</time>
      </trkpt>
      <trkpt lat="47.59568" lon="6.77908">
        <ele>403</ele>
        <time>2016-08-15T08:46:02.000Z</time>
      </trkpt>
      <trkpt lat="47.5957" lon="6.77906">
        <ele>403</ele>
        <time>2016-08-15T08:46:03.000Z</time>
      </trkpt>
      <trkpt lat="47.59572" lon="6.77904">
        <ele>403</ele>
        <time>2016-08-15T08:46:04.000Z</time>
      </trkpt>
      <trkpt lat="47.59573" lon="6.77901">
        <ele>403</ele>
        <time>2016-08-15T08:46:05.000Z</time>
      </trkpt>
      <trkpt lat="47.59575" lon="6.77897">
        <ele>404</ele>
        <time>2016-08-15T08:46:06.000Z</time>
      </trkpt>
      <trkpt lat="47.59577" lon="6.77894">
        <ele>404</ele>
        <time>2016-08-15T08:46:07.000Z</time>
      </trkpt>
      <trkpt lat="47.5958" lon="6.77891">
        <ele>404</ele>
        <time>2016-08-15T08:46:08.000Z</time>
      </trkpt>
      <trkpt lat="47.59582" lon="6.77888">
        <ele>404</ele>
        <time>2016-08-15T08:46:09.000Z</time>
      </trkpt>
      <trkpt lat="47.59585" lon="6.77885">
        <ele>405</ele>
        <time>2016-08-15T08:46:10.000Z</time>
      </trkpt>
      <trkpt lat="47.59595" lon="6.77877">
        <ele>405</ele>
        <time>2016-08-15T08:46:11.000Z</time>
      </trkpt>
      <trkpt lat="47.596" lon="6.77872">
        <ele>405</ele>
        <time>2016-08-15T08:46:12.000Z</time>
      </trkpt>
      <trkpt lat="47.59605" lon="6.77868">
        <ele>406</ele>
        <time>2016-08-15T08:46:13.000Z</time>
      </trkpt>
      <trkpt lat="47.5961" lon="6.77865">
        <ele>406</ele>
        <time>2016-08-15T08:46:14.000Z</time>
      </trkpt>
      <trkpt lat="47.59614" lon="6.77861">
        <ele>406</ele>
        <time>2016-08-15T08:46:15.000Z</time>
      </trkpt>
      <trkpt lat="47.59619" lon="6.77857">
        <ele>406</ele>
        <time>2016-08-15T08:46:16.000Z</time>
      </trkpt>
      <trkpt lat="47.59624" lon="6.77855">
        <ele>406</ele>
        <time>2016-08-15T08:46:17.000Z</time>
      </trkpt>
      <trkpt lat="47.59628" lon="6.77852">
        <ele>406</ele>
        <time>2016-08-15T08:46:18.000Z</time>
      </trkpt>
      <trkpt lat="47.5963" lon="6.77852">
        <ele>406</ele>
        <time>2016-08-15T08:46:19.000Z</time>
      </trkpt>
      <trkpt lat="47.59635" lon="6.77849">
        <ele>407</ele>
        <time>2016-08-15T08:46:20.000Z</time>
      </trkpt>
      <trkpt lat="47.59638" lon="6.7785">
        <ele>407</ele>
        <time>2016-08-15T08:46:21.000Z</time>
      </trkpt>
      <trkpt lat="47.59641" lon="6.77851">
        <ele>407</ele>
        <time>2016-08-15T08:46:22.000Z</time>
      </trkpt>
      <trkpt lat="47.59643" lon="6.7785">
        <ele>407</ele>
        <time>2016-08-15T08:46:23.000Z</time>
      </trkpt>
      <trkpt lat="47.59646" lon="6.7785">
        <ele>407</ele>
        <time>2016-08-15T08:46:24.000Z</time>
      </trkpt>
      <trkpt lat="47.5965" lon="6.77853">
        <ele>407</ele>
        <time>2016-08-15T08:46:25.000Z</time>
      </trkpt>
      <trkpt lat="47.59653" lon="6.77856">
        <ele>407</ele>
        <time>2016-08-15T08:46:26.000Z</time>
      </trkpt>
      <trkpt lat="47.59657" lon="6.7786">
        <ele>407</ele>
        <time>2016-08-15T08:46:27.000Z</time>
      </trkpt>
      <trkpt lat="47.59661" lon="6.77863">
        <ele>407</ele>
        <time>2016-08-15T08:46:28.000Z</time>
      </trkpt>
      <trkpt lat="47.59664" lon="6.77865">
        <ele>407</ele>
        <time>2016-08-15T08:46:29.000Z</time>
      </trkpt>
      <trkpt lat="47.59667" lon="6.77867">
        <ele>407</ele>
        <time>2016-08-15T08:46:30.000Z</time>
      </trkpt>
      <trkpt lat="47.59669" lon="6.77869">
        <ele>408</ele>
        <time>2016-08-15T08:46:31.000Z</time>
      </trkpt>
      <trkpt lat="47.59671" lon="6.77872">
        <ele>408</ele>
        <time>2016-08-15T08:46:32.000Z</time>
      </trkpt>
      <trkpt lat="47.59673" lon="6.77874">
        <ele>408</ele>
        <time>2016-08-15T08:46:33.000Z</time>
      </trkpt>
      <trkpt lat="47.59675" lon="6.77877">
        <ele>408</ele>
        <time>2016-08-15T08:46:34.000Z</time>
      </trkpt>
      <trkpt lat="47.59677" lon="6.7788">
        <ele>408</ele>
        <time>2016-08-15T08:46:35.000Z</time>
      </trkpt>
      <trkpt lat="47.5968" lon="6.77882">
        <ele>408</ele>
        <time>2016-08-15T08:46:36.000Z</time>
      </trkpt>
      <trkpt lat="47.59682" lon="6.77885">
        <ele>407</ele>
        <time>2016-08-15T08:46:37.000Z</time>
      </trkpt>
      <trkpt lat="47.59685" lon="6.77888">
        <ele>407</ele>
        <time>2016-08-15T08:46:38.000Z</time>
      </trkpt>
      <trkpt lat="47.59689" lon="6.77891">
        <ele>407</ele>
        <time>2016-08-15T08:46:39.000Z</time>
      </trkpt>
      <trkpt lat="47.59692" lon="6.77892">
        <ele>407</ele>
        <time>2016-08-15T08:46:40.000Z</time>
      </trkpt>
      <trkpt lat="47.59695" lon="6.77894">
        <ele>407</ele>
        <time>2016-08-15T08:46:41.000Z</time>
      </trkpt>
      <trkpt lat="47.59698" lon="6.77895">
        <ele>407</ele>
        <time>2016-08-15T08:46:42.000Z</time>
      </trkpt>
      <trkpt lat="47.59701" lon="6.77895">
        <ele>407</ele>
        <time>2016-08-15T08:46:43.000Z</time>
      </trkpt>
      <trkpt lat="47.59704" lon="6.77895">
        <ele>407</ele>
        <time>2016-08-15T08:46:44.000Z</time>
      </trkpt>
      <trkpt lat="47.59707" lon="6.77894">
        <ele>407</ele>
        <time>2016-08-15T08:46:45.000Z</time>
      </trkpt>
      <trkpt lat="47.5971" lon="6.77893">
        <ele>408</ele>
        <time>2016-08-15T08:46:46.000Z</time>
      </trkpt>
      <trkpt lat="47.59713" lon="6.77891">
        <ele>408</ele>
        <time>2016-08-15T08:46:47.000Z</time>
      </trkpt>
      <trkpt lat="47.59716" lon="6.77889">
        <ele>408</ele>
        <time>2016-08-15T08:46:48.000Z</time>
      </trkpt>
      <trkpt lat="47.59719" lon="6.77886">
        <ele>408</ele>
        <time>2016-08-15T08:46:49.000Z</time>
      </trkpt>
      <trkpt lat="47.59722" lon="6.77884">
        <ele>408</ele>
        <time>2016-08-15T08:46:50.000Z</time>
      </trkpt>
      <trkpt lat="47.59725" lon="6.77881">
        <ele>408</ele>
        <time>2016-08-15T08:46:51.000Z</time>
      </trkpt>
      <trkpt lat="47.59728" lon="6.77879">
        <ele>408</ele>
        <time>2016-08-15T08:46:52.000Z</time>
      </trkpt>
      <trkpt lat="47.59732" lon="6.77876">
        <ele>408</ele>
        <time>2016-08-15T08:46:53.000Z</time>
      </trkpt>
      <trkpt lat="47.59737" lon="6.77872">
        <ele>408</ele>
        <time>2016-08-15T08:46:54.000Z</time>
      </trkpt>
      <trkpt lat="47.59741" lon="6.77868">
        <ele>408</ele>
        <time>2016-08-15T08:46:55.000Z</time>
      </trkpt>
      <trkpt lat="47.59745" lon="6.77864">
        <ele>409</ele>
        <time>2016-08-15T08:46:56.000Z</time>
      </trkpt>
      <trkpt lat="47.59757" lon="6.77855">
        <ele>404</ele>
        <time>2016-08-15T08:46:57.000Z</time>
      </trkpt>
      <trkpt lat="47.59762" lon="6.7785">
        <ele>404</ele>
        <time>2016-08-15T08:46:58.000Z</time>
      </trkpt>
      <trkpt lat="47.59767" lon="6.77844">
        <ele>404</ele>
        <time>2016-08-15T08:46:59.000Z</time>
      </trkpt>
      <trkpt lat="47.59772" lon="6.77838">
        <ele>404</ele>
        <time>2016-08-15T08:47:00.000Z</time>
      </trkpt>
      <trkpt lat="47.59776" lon="6.7783">
        <ele>406</ele>
        <time>2016-08-15T08:47:01.000Z</time>
      </trkpt>
      <trkpt lat="47.5978" lon="6.77823">
        <ele>406</ele>
        <time>2016-08-15T08:47:02.000Z</time>
      </trkpt>
      <trkpt lat="47.59785" lon="6.77817">
        <ele>405</ele>
        <time>2016-08-15T08:47:03.000Z</time>
      </trkpt>
      <trkpt lat="47.5979" lon="6.77812">
        <ele>404</ele>
        <time>2016-08-15T08:47:04.000Z</time>
      </trkpt>
      <trkpt lat="47.59795" lon="6.77815">
        <ele>404</ele>
        <time>2016-08-15T08:47:05.000Z</time>
      </trkpt>
      <trkpt lat="47.59801" lon="6.77813">
        <ele>403</ele>
        <time>2016-08-15T08:47:06.000Z</time>
      </trkpt>
      <trkpt lat="47.59805" lon="6.77814">
        <ele>402</ele>
        <time>2016-08-15T08:47:07.000Z</time>
      </trkpt>
      <trkpt lat="47.59805" lon="6.77818">
        <ele>402</ele>
        <time>2016-08-15T08:47:08.000Z</time>
      </trkpt>
      <trkpt lat="47.59802" lon="6.77814">
        <ele>403</ele>
        <time>2016-08-15T08:47:12.000Z</time>
      </trkpt>
      <trkpt lat="47.59798" lon="6.77818">
        <ele>403</ele>
        <time>2016-08-15T08:47:13.000Z</time>
      </trkpt>
      <trkpt lat="47.59797" lon="6.77826">
        <ele>403</ele>
        <time>2016-08-15T08:47:14.000Z</time>
      </trkpt>
      <trkpt lat="47.59793" lon="6.77836">
        <ele>400</ele>
        <time>2016-08-15T08:47:15.000Z</time>
      </trkpt>
      <trkpt lat="47.59791" lon="6.77848">
        <ele>400</ele>
        <time>2016-08-15T08:47:16.000Z</time>
      </trkpt>
      <trkpt lat="47.5979" lon="6.77859">
        <ele>400</ele>
        <time>2016-08-15T08:47:17.000Z</time>
      </trkpt>
      <trkpt lat="47.59788" lon="6.77873">
        <ele>400</ele>
        <time>2016-08-15T08:47:18.000Z</time>
      </trkpt>
      <trkpt lat="47.59787" lon="6.77887">
        <ele>399</ele>
        <time>2016-08-15T08:47:19.000Z</time>
      </trkpt>
      <trkpt lat="47.59787" lon="6.77904">
        <ele>399</ele>
        <time>2016-08-15T08:47:20.000Z</time>
      </trkpt>
      <trkpt lat="47.59788" lon="6.77918">
        <ele>394</ele>
        <time>2016-08-15T08:47:21.000Z</time>
      </trkpt>
      <trkpt lat="47.59788" lon="6.7793">
        <ele>394</ele>
        <time>2016-08-15T08:47:22.000Z</time>
      </trkpt>
      <trkpt lat="47.59788" lon="6.77937">
        <ele>393</ele>
        <time>2016-08-15T08:47:23.000Z</time>
      </trkpt>
      <trkpt lat="47.59789" lon="6.77944">
        <ele>393</ele>
        <time>2016-08-15T08:47:24.000Z</time>
      </trkpt>
      <trkpt lat="47.59789" lon="6.77951">
        <ele>392</ele>
        <time>2016-08-15T08:47:25.000Z</time>
      </trkpt>
      <trkpt lat="47.59787" lon="6.77958">
        <ele>392</ele>
        <time>2016-08-15T08:47:26.000Z</time>
      </trkpt>
      <trkpt lat="47.59787" lon="6.77964">
        <ele>391</ele>
        <time>2016-08-15T08:47:27.000Z</time>
      </trkpt>
      <trkpt lat="47.59777" lon="6.7796">
        <ele>392</ele>
        <time>2016-08-15T08:47:28.000Z</time>
      </trkpt>
      <trkpt lat="47.59772" lon="6.77967">
        <ele>392</ele>
        <time>2016-08-15T08:47:29.000Z</time>
      </trkpt>
      <trkpt lat="47.59764" lon="6.77975">
        <ele>392</ele>
        <time>2016-08-15T08:47:30.000Z</time>
      </trkpt>
      <trkpt lat="47.59757" lon="6.77983">
        <ele>392</ele>
        <time>2016-08-15T08:47:31.000Z</time>
      </trkpt>
      <trkpt lat="47.5975" lon="6.77993">
        <ele>391</ele>
        <time>2016-08-15T08:47:32.000Z</time>
      </trkpt>
      <trkpt lat="47.5974" lon="6.77995">
        <ele>394</ele>
        <time>2016-08-15T08:47:33.000Z</time>
      </trkpt>
      <trkpt lat="47.59733" lon="6.77999">
        <ele>395</ele>
        <time>2016-08-15T08:47:34.000Z</time>
      </trkpt>
      <trkpt lat="47.59728" lon="6.78003">
        <ele>389</ele>
        <time>2016-08-15T08:47:35.000Z</time>
      </trkpt>
      <trkpt lat="47.59717" lon="6.78011">
        <ele>388</ele>
        <time>2016-08-15T08:47:36.000Z</time>
      </trkpt>
      <trkpt lat="47.59708" lon="6.7802">
        <ele>388</ele>
        <time>2016-08-15T08:47:37.000Z</time>
      </trkpt>
      <trkpt lat="47.597" lon="6.78029">
        <ele>388</ele>
        <time>2016-08-15T08:47:38.000Z</time>
      </trkpt>
      <trkpt lat="47.59691" lon="6.78041">
        <ele>387</ele>
        <time>2016-08-15T08:47:39.000Z</time>
      </trkpt>
      <trkpt lat="47.59683" lon="6.78049">
        <ele>386</ele>
        <time>2016-08-15T08:47:40.000Z</time>
      </trkpt>
      <trkpt lat="47.59678" lon="6.78057">
        <ele>385</ele>
        <time>2016-08-15T08:47:41.000Z</time>
      </trkpt>
      <trkpt lat="47.59672" lon="6.78065">
        <ele>384</ele>
        <time>2016-08-15T08:47:42.000Z</time>
      </trkpt>
      <trkpt lat="47.59666" lon="6.78071">
        <ele>385</ele>
        <time>2016-08-15T08:47:43.000Z</time>
      </trkpt>
      <trkpt lat="47.5966" lon="6.78077">
        <ele>384</ele>
        <time>2016-08-15T08:47:44.000Z</time>
      </trkpt>
      <trkpt lat="47.59655" lon="6.78083">
        <ele>385</ele>
        <time>2016-08-15T08:47:45.000Z</time>
      </trkpt>
      <trkpt lat="47.59648" lon="6.78089">
        <ele>379</ele>
        <time>2016-08-15T08:47:46.000Z</time>
      </trkpt>
      <trkpt lat="47.59642" lon="6.78096">
        <ele>378</ele>
        <time>2016-08-15T08:47:47.000Z</time>
      </trkpt>
      <trkpt lat="47.59635" lon="6.78109">
        <ele>377</ele>
        <time>2016-08-15T08:47:48.000Z</time>
      </trkpt>
      <trkpt lat="47.5963" lon="6.78116">
        <ele>377</ele>
        <time>2016-08-15T08:47:49.000Z</time>
      </trkpt>
      <trkpt lat="47.59625" lon="6.78121">
        <ele>376</ele>
        <time>2016-08-15T08:47:50.000Z</time>
      </trkpt>
      <trkpt lat="47.59618" lon="6.78126">
        <ele>376</ele>
        <time>2016-08-15T08:47:51.000Z</time>
      </trkpt>
      <trkpt lat="47.59611" lon="6.78129">
        <ele>376</ele>
        <time>2016-08-15T08:47:52.000Z</time>
      </trkpt>
      <trkpt lat="47.59607" lon="6.78133">
        <ele>375</ele>
        <time>2016-08-15T08:47:53.000Z</time>
      </trkpt>
      <trkpt lat="47.59586" lon="6.78137">
        <ele>375</ele>
        <time>2016-08-15T08:47:54.000Z</time>
      </trkpt>
      <trkpt lat="47.59578" lon="6.78137">
        <ele>377</ele>
        <time>2016-08-15T08:47:55.000Z</time>
      </trkpt>
      <trkpt lat="47.59572" lon="6.78134">
        <ele>378</ele>
        <time>2016-08-15T08:47:56.000Z</time>
      </trkpt>
      <trkpt lat="47.59567" lon="6.78132">
        <ele>378</ele>
        <time>2016-08-15T08:47:57.000Z</time>
      </trkpt>
      <trkpt lat="47.59563" lon="6.78131">
        <ele>379</ele>
        <time>2016-08-15T08:47:58.000Z</time>
      </trkpt>
      <trkpt lat="47.59558" lon="6.78129">
        <ele>379</ele>
        <time>2016-08-15T08:47:59.000Z</time>
      </trkpt>
      <trkpt lat="47.59552" lon="6.78128">
        <ele>379</ele>
        <time>2016-08-15T08:48:00.000Z</time>
      </trkpt>
      <trkpt lat="47.59545" lon="6.7813">
        <ele>379</ele>
        <time>2016-08-15T08:48:01.000Z</time>
      </trkpt>
      <trkpt lat="47.5953" lon="6.78132">
        <ele>379</ele>
        <time>2016-08-15T08:48:02.000Z</time>
      </trkpt>
      <trkpt lat="47.5952" lon="6.78134">
        <ele>379</ele>
        <time>2016-08-15T08:48:03.000Z</time>
      </trkpt>
      <trkpt lat="47.59523" lon="6.78158">
        <ele>377</ele>
        <time>2016-08-15T08:48:04.000Z</time>
      </trkpt>
      <trkpt lat="47.59524" lon="6.78167">
        <ele>370</ele>
        <time>2016-08-15T08:48:05.000Z</time>
      </trkpt>
      <trkpt lat="47.59528" lon="6.78176">
        <ele>370</ele>
        <time>2016-08-15T08:48:06.000Z</time>
      </trkpt>
      <trkpt lat="47.59535" lon="6.78179">
        <ele>370</ele>
        <time>2016-08-15T08:48:07.000Z</time>
      </trkpt>
      <trkpt lat="47.59543" lon="6.7818">
        <ele>369</ele>
        <time>2016-08-15T08:48:08.000Z</time>
      </trkpt>
      <trkpt lat="47.59549" lon="6.78182">
        <ele>369</ele>
        <time>2016-08-15T08:48:09.000Z</time>
      </trkpt>
      <trkpt lat="47.59555" lon="6.78177">
        <ele>369</ele>
        <time>2016-08-15T08:48:10.000Z</time>
      </trkpt>
      <trkpt lat="47.5956" lon="6.78174">
        <ele>369</ele>
        <time>2016-08-15T08:48:11.000Z</time>
      </trkpt>
      <trkpt lat="47.59564" lon="6.78169">
        <ele>369</ele>
        <time>2016-08-15T08:48:12.000Z</time>
      </trkpt>
      <trkpt lat="47.59567" lon="6.78167">
        <ele>369</ele>
        <time>2016-08-15T08:48:13.000Z</time>
      </trkpt>
      <trkpt lat="47.59571" lon="6.78163">
        <ele>373</ele>
        <time>2016-08-15T08:48:14.000Z</time>
      </trkpt>
      <trkpt lat="47.59577" lon="6.78163">
        <ele>372</ele>
        <time>2016-08-15T08:48:15.000Z</time>
      </trkpt>
      <trkpt lat="47.59583" lon="6.78162">
        <ele>371</ele>
        <time>2016-08-15T08:48:16.000Z</time>
      </trkpt>
      <trkpt lat="47.59589" lon="6.7816">
        <ele>371</ele>
        <time>2016-08-15T08:48:17.000Z</time>
      </trkpt>
      <trkpt lat="47.59595" lon="6.78159">
        <ele>372</ele>
        <time>2016-08-15T08:48:18.000Z</time>
      </trkpt>
      <trkpt lat="47.59603" lon="6.78158">
        <ele>373</ele>
        <time>2016-08-15T08:48:19.000Z</time>
      </trkpt>
      <trkpt lat="47.5961" lon="6.78155">
        <ele>373</ele>
        <time>2016-08-15T08:48:20.000Z</time>
      </trkpt>
      <trkpt lat="47.59617" lon="6.78153">
        <ele>373</ele>
        <time>2016-08-15T08:48:21.000Z</time>
      </trkpt>
      <trkpt lat="47.59623" lon="6.78152">
        <ele>373</ele>
        <time>2016-08-15T08:48:22.000Z</time>
      </trkpt>
      <trkpt lat="47.5963" lon="6.78152">
        <ele>373</ele>
        <time>2016-08-15T08:48:23.000Z</time>
      </trkpt>
      <trkpt lat="47.59637" lon="6.78154">
        <ele>372</ele>
        <time>2016-08-15T08:48:24.000Z</time>
      </trkpt>
      <trkpt lat="47.59642" lon="6.78157">
        <ele>372</ele>
        <time>2016-08-15T08:48:25.000Z</time>
      </trkpt>
      <trkpt lat="47.59644" lon="6.78154">
        <ele>372</ele>
        <time>2016-08-15T08:48:26.000Z</time>
      </trkpt>
      <trkpt lat="47.59649" lon="6.78159">
        <ele>371</ele>
        <time>2016-08-15T08:48:27.000Z</time>
      </trkpt>
      <trkpt lat="47.59657" lon="6.78158">
        <ele>369</ele>
        <time>2016-08-15T08:48:28.000Z</time>
      </trkpt>
      <trkpt lat="47.59667" lon="6.78151">
        <ele>369</ele>
        <time>2016-08-15T08:48:29.000Z</time>
      </trkpt>
      <trkpt lat="47.59675" lon="6.7815">
        <ele>369</ele>
        <time>2016-08-15T08:48:30.000Z</time>
      </trkpt>
      <trkpt lat="47.59682" lon="6.78147">
        <ele>370</ele>
        <time>2016-08-15T08:48:31.000Z</time>
      </trkpt>
      <trkpt lat="47.59688" lon="6.78145">
        <ele>371</ele>
        <time>2016-08-15T08:48:32.000Z</time>
      </trkpt>
      <trkpt lat="47.59692" lon="6.78145">
        <ele>371</ele>
        <time>2016-08-15T08:48:33.000Z</time>
      </trkpt>
      <trkpt lat="47.59697" lon="6.78144">
        <ele>371</ele>
        <time>2016-08-15T08:48:34.000Z</time>
      </trkpt>
      <trkpt lat="47.59702" lon="6.78142">
        <ele>371</ele>
        <time>2016-08-15T08:48:35.000Z</time>
      </trkpt>
      <trkpt lat="47.59705" lon="6.78143">
        <ele>371</ele>
        <time>2016-08-15T08:48:36.000Z</time>
      </trkpt>
      <trkpt lat="47.59708" lon="6.78156">
        <ele>371</ele>
        <time>2016-08-15T08:48:37.000Z</time>
      </trkpt>
      <trkpt lat="47.59712" lon="6.78158">
        <ele>371</ele>
        <time>2016-08-15T08:48:38.000Z</time>
      </trkpt>
      <trkpt lat="47.59716" lon="6.78161">
        <ele>370</ele>
        <time>2016-08-15T08:48:40.000Z</time>
      </trkpt>
      <trkpt lat="47.59716" lon="6.78163">
        <ele>370</ele>
        <time>2016-08-15T08:48:41.000Z</time>
      </trkpt>
      <trkpt lat="47.59715" lon="6.78167">
        <ele>370</ele>
        <time>2016-08-15T08:48:44.000Z</time>
      </trkpt>
      <trkpt lat="47.59713" lon="6.78169">
        <ele>371</ele>
        <time>2016-08-15T08:48:45.000Z</time>
      </trkpt>
      <trkpt lat="47.59711" lon="6.78169">
        <ele>370</ele>
        <time>2016-08-15T08:48:47.000Z</time>
      </trkpt>
      <trkpt lat="47.59709" lon="6.78171">
        <ele>370</ele>
        <time>2016-08-15T08:48:48.000Z</time>
      </trkpt>
      <trkpt lat="47.59706" lon="6.78174">
        <ele>371</ele>
        <time>2016-08-15T08:48:51.000Z</time>
      </trkpt>
      <trkpt lat="47.59704" lon="6.78174">
        <ele>370</ele>
        <time>2016-08-15T08:48:52.000Z</time>
      </trkpt>
      <trkpt lat="47.597" lon="6.78176">
        <ele>370</ele>
        <time>2016-08-15T08:48:53.000Z</time>
      </trkpt>
      <trkpt lat="47.59698" lon="6.78178">
        <ele>370</ele>
        <time>2016-08-15T08:48:54.000Z</time>
      </trkpt>
      <trkpt lat="47.59695" lon="6.78179">
        <ele>370</ele>
        <time>2016-08-15T08:48:55.000Z</time>
      </trkpt>
      <trkpt lat="47.59693" lon="6.7818">
        <ele>370</ele>
        <time>2016-08-15T08:48:56.000Z</time>
      </trkpt>
      <trkpt lat="47.59695" lon="6.78184">
        <ele>371</ele>
        <time>2016-08-15T08:48:59.000Z</time>
      </trkpt>
      <trkpt lat="47.59696" lon="6.78186">
        <ele>371</ele>
        <time>2016-08-15T08:49:00.000Z</time>
      </trkpt>
      <trkpt lat="47.59699" lon="6.78189">
        <ele>371</ele>
        <time>2016-08-15T08:49:02.000Z</time>
      </trkpt>
      <trkpt lat="47.597" lon="6.7819">
        <ele>371</ele>
        <time>2016-08-15T08:49:03.000Z</time>
      </trkpt>
      <trkpt lat="47.59699" lon="6.78194">
        <ele>371</ele>
        <time>2016-08-15T08:49:05.000Z</time>
      </trkpt>
      <trkpt lat="47.59697" lon="6.78196">
        <ele>372</ele>
        <time>2016-08-15T08:49:06.000Z</time>
      </trkpt>
      <trkpt lat="47.59694" lon="6.78198">
        <ele>372</ele>
        <time>2016-08-15T08:49:07.000Z</time>
      </trkpt>
      <trkpt lat="47.59691" lon="6.782">
        <ele>372</ele>
        <time>2016-08-15T08:49:08.000Z</time>
      </trkpt>
      <trkpt lat="47.59689" lon="6.78202">
        <ele>372</ele>
        <time>2016-08-15T08:49:09.000Z</time>
      </trkpt>
      <trkpt lat="47.59686" lon="6.78205">
        <ele>372</ele>
        <time>2016-08-15T08:49:10.000Z</time>
      </trkpt>
      <trkpt lat="47.59682" lon="6.78208">
        <ele>372</ele>
        <time>2016-08-15T08:49:11.000Z</time>
      </trkpt>
      <trkpt lat="47.59679" lon="6.7821">
        <ele>372</ele>
        <time>2016-08-15T08:49:12.000Z</time>
      </trkpt>
      <trkpt lat="47.59676" lon="6.78211">
        <ele>372</ele>
        <time>2016-08-15T08:49:13.000Z</time>
      </trkpt>
      <trkpt lat="47.59673" lon="6.78213">
        <ele>373</ele>
        <time>2016-08-15T08:49:14.000Z</time>
      </trkpt>
      <trkpt lat="47.5967" lon="6.78215">
        <ele>373</ele>
        <time>2016-08-15T08:49:15.000Z</time>
      </trkpt>
      <trkpt lat="47.59667" lon="6.78217">
        <ele>373</ele>
        <time>2016-08-15T08:49:16.000Z</time>
      </trkpt>
      <trkpt lat="47.59663" lon="6.78219">
        <ele>371</ele>
        <time>2016-08-15T08:49:17.000Z</time>
      </trkpt>
      <trkpt lat="47.59659" lon="6.78222">
        <ele>371</ele>
        <time>2016-08-15T08:49:18.000Z</time>
      </trkpt>
      <trkpt lat="47.59655" lon="6.78225">
        <ele>371</ele>
        <time>2016-08-15T08:49:19.000Z</time>
      </trkpt>
      <trkpt lat="47.5965" lon="6.78229">
        <ele>371</ele>
        <time>2016-08-15T08:49:20.000Z</time>
      </trkpt>
      <trkpt lat="47.59646" lon="6.78233">
        <ele>371</ele>
        <time>2016-08-15T08:49:21.000Z</time>
      </trkpt>
      <trkpt lat="47.59642" lon="6.78237">
        <ele>371</ele>
        <time>2016-08-15T08:49:22.000Z</time>
      </trkpt>
      <trkpt lat="47.59639" lon="6.78241">
        <ele>371</ele>
        <time>2016-08-15T08:49:23.000Z</time>
      </trkpt>
      <trkpt lat="47.59635" lon="6.78245">
        <ele>370</ele>
        <time>2016-08-15T08:49:24.000Z</time>
      </trkpt>
      <trkpt lat="47.59632" lon="6.78249">
        <ele>370</ele>
        <time>2016-08-15T08:49:25.000Z</time>
      </trkpt>
      <trkpt lat="47.59629" lon="6.78253">
        <ele>376</ele>
        <time>2016-08-15T08:49:26.000Z</time>
      </trkpt>
      <trkpt lat="47.59626" lon="6.78257">
        <ele>376</ele>
        <time>2016-08-15T08:49:27.000Z</time>
      </trkpt>
      <trkpt lat="47.59623" lon="6.7826">
        <ele>376</ele>
        <time>2016-08-15T08:49:28.000Z</time>
      </trkpt>
      <trkpt lat="47.5962" lon="6.78264">
        <ele>376</ele>
        <time>2016-08-15T08:49:29.000Z</time>
      </trkpt>
      <trkpt lat="47.59617" lon="6.78265">
        <ele>376</ele>
        <time>2016-08-15T08:49:30.000Z</time>
      </trkpt>
      <trkpt lat="47.59614" lon="6.78265">
        <ele>375</ele>
        <time>2016-08-15T08:49:31.000Z</time>
      </trkpt>
      <trkpt lat="47.59612" lon="6.78266">
        <ele>375</ele>
        <time>2016-08-15T08:49:32.000Z</time>
      </trkpt>
      <trkpt lat="47.59607" lon="6.78266">
        <ele>374</ele>
        <time>2016-08-15T08:49:34.000Z</time>
      </trkpt>
      <trkpt lat="47.59606" lon="6.78267">
        <ele>374</ele>
        <time>2016-08-15T08:49:35.000Z</time>
      </trkpt>
      <trkpt lat="47.59602" lon="6.78269">
        <ele>374</ele>
        <time>2016-08-15T08:49:38.000Z</time>
      </trkpt>
      <trkpt lat="47.596" lon="6.7827">
        <ele>374</ele>
        <time>2016-08-15T08:49:39.000Z</time>
      </trkpt>
      <trkpt lat="47.59596" lon="6.7827">
        <ele>374</ele>
        <time>2016-08-15T08:49:41.000Z</time>
      </trkpt>
      <trkpt lat="47.59594" lon="6.78271">
        <ele>373</ele>
        <time>2016-08-15T08:49:42.000Z</time>
      </trkpt>
      <trkpt lat="47.5959" lon="6.78272">
        <ele>373</ele>
        <time>2016-08-15T08:49:44.000Z</time>
      </trkpt>
      <trkpt lat="47.59588" lon="6.78274">
        <ele>374</ele>
        <time>2016-08-15T08:49:45.000Z</time>
      </trkpt>
      <trkpt lat="47.59584" lon="6.78276">
        <ele>374</ele>
        <time>2016-08-15T08:49:47.000Z</time>
      </trkpt>
      <trkpt lat="47.59582" lon="6.78278">
        <ele>371</ele>
        <time>2016-08-15T08:49:48.000Z</time>
      </trkpt>
      <trkpt lat="47.5958" lon="6.78279">
        <ele>372</ele>
        <time>2016-08-15T08:49:49.000Z</time>
      </trkpt>
      <trkpt lat="47.59577" lon="6.7828">
        <ele>372</ele>
        <time>2016-08-15T08:49:50.000Z</time>
      </trkpt>
      <trkpt lat="47.59574" lon="6.78282">
        <ele>372</ele>
        <time>2016-08-15T08:49:51.000Z</time>
      </trkpt>
      <trkpt lat="47.59572" lon="6.78283">
        <ele>373</ele>
        <time>2016-08-15T08:49:52.000Z</time>
      </trkpt>
      <trkpt lat="47.59569" lon="6.78285">
        <ele>373</ele>
        <time>2016-08-15T08:49:53.000Z</time>
      </trkpt>
      <trkpt lat="47.59566" lon="6.78287">
        <ele>373</ele>
        <time>2016-08-15T08:49:54.000Z</time>
      </trkpt>
      <trkpt lat="47.59564" lon="6.78289">
        <ele>373</ele>
        <time>2016-08-15T08:49:55.000Z</time>
      </trkpt>
      <trkpt lat="47.59561" lon="6.78291">
        <ele>374</ele>
        <time>2016-08-15T08:49:56.000Z</time>
      </trkpt>
      <trkpt lat="47.59558" lon="6.78292">
        <ele>374</ele>
        <time>2016-08-15T08:49:58.000Z</time>
      </trkpt>
      <trkpt lat="47.59557" lon="6.78293">
        <ele>374</ele>
        <time>2016-08-15T08:49:59.000Z</time>
      </trkpt>
      <trkpt lat="47.59554" lon="6.78294">
        <ele>374</ele>
        <time>2016-08-15T08:50:02.000Z</time>
      </trkpt>
      <trkpt lat="47.59552" lon="6.78295">
        <ele>374</ele>
        <time>2016-08-15T08:50:03.000Z</time>
      </trkpt>
      <trkpt lat="47.59548" lon="6.78297">
        <ele>374</ele>
        <time>2016-08-15T08:50:05.000Z</time>
      </trkpt>
      <trkpt lat="47.59546" lon="6.78298">
        <ele>374</ele>
        <time>2016-08-15T08:50:06.000Z</time>
      </trkpt>
      <trkpt lat="47.59542" lon="6.78299">
        <ele>374</ele>
        <time>2016-08-15T08:50:08.000Z</time>
      </trkpt>
      <trkpt lat="47.59539" lon="6.783">
        <ele>374</ele>
        <time>2016-08-15T08:50:09.000Z</time>
      </trkpt>
      <trkpt lat="47.59535" lon="6.78301">
        <ele>375</ele>
        <time>2016-08-15T08:50:11.000Z</time>
      </trkpt>
      <trkpt lat="47.59533" lon="6.78302">
        <ele>375</ele>
        <time>2016-08-15T08:50:12.000Z</time>
      </trkpt>
      <trkpt lat="47.59529" lon="6.78304">
        <ele>375</ele>
        <time>2016-08-15T08:50:14.000Z</time>
      </trkpt>
      <trkpt lat="47.59527" lon="6.78305">
        <ele>375</ele>
        <time>2016-08-15T08:50:15.000Z</time>
      </trkpt>
      <trkpt lat="47.59524" lon="6.78309">
        <ele>375</ele>
        <time>2016-08-15T08:50:17.000Z</time>
      </trkpt>
      <trkpt lat="47.59522" lon="6.78311">
        <ele>375</ele>
        <time>2016-08-15T08:50:18.000Z</time>
      </trkpt>
      <trkpt lat="47.59519" lon="6.78313">
        <ele>375</ele>
        <time>2016-08-15T08:50:19.000Z</time>
      </trkpt>
      <trkpt lat="47.59516" lon="6.78315">
        <ele>376</ele>
        <time>2016-08-15T08:50:20.000Z</time>
      </trkpt>
      <trkpt lat="47.59514" lon="6.78318">
        <ele>376</ele>
        <time>2016-08-15T08:50:21.000Z</time>
      </trkpt>
      <trkpt lat="47.59512" lon="6.78321">
        <ele>376</ele>
        <time>2016-08-15T08:50:22.000Z</time>
      </trkpt>
      <trkpt lat="47.59511" lon="6.78324">
        <ele>376</ele>
        <time>2016-08-15T08:50:23.000Z</time>
      </trkpt>
      <trkpt lat="47.5951" lon="6.78327">
        <ele>377</ele>
        <time>2016-08-15T08:50:24.000Z</time>
      </trkpt>
      <trkpt lat="47.59508" lon="6.7833">
        <ele>377</ele>
        <time>2016-08-15T08:50:25.000Z</time>
      </trkpt>
      <trkpt lat="47.59508" lon="6.78334">
        <ele>379</ele>
        <time>2016-08-15T08:50:26.000Z</time>
      </trkpt>
      <trkpt lat="47.59507" lon="6.78338">
        <ele>379</ele>
        <time>2016-08-15T08:50:27.000Z</time>
      </trkpt>
      <trkpt lat="47.59507" lon="6.78341">
        <ele>380</ele>
        <time>2016-08-15T08:50:28.000Z</time>
      </trkpt>
      <trkpt lat="47.59507" lon="6.78345">
        <ele>380</ele>
        <time>2016-08-15T08:50:29.000Z</time>
      </trkpt>
      <trkpt lat="47.59507" lon="6.7835">
        <ele>380</ele>
        <time>2016-08-15T08:50:30.000Z</time>
      </trkpt>
      <trkpt lat="47.59507" lon="6.78354">
        <ele>381</ele>
        <time>2016-08-15T08:50:31.000Z</time>
      </trkpt>
      <trkpt lat="47.59508" lon="6.78357">
        <ele>381</ele>
        <time>2016-08-15T08:50:32.000Z</time>
      </trkpt>
      <trkpt lat="47.59508" lon="6.78361">
        <ele>381</ele>
        <time>2016-08-15T08:50:33.000Z</time>
      </trkpt>
      <trkpt lat="47.59509" lon="6.78365">
        <ele>381</ele>
        <time>2016-08-15T08:50:34.000Z</time>
      </trkpt>
      <trkpt lat="47.59509" lon="6.78368">
        <ele>381</ele>
        <time>2016-08-15T08:50:35.000Z</time>
      </trkpt>
      <trkpt lat="47.5951" lon="6.78371">
        <ele>381</ele>
        <time>2016-08-15T08:50:36.000Z</time>
      </trkpt>
      <trkpt lat="47.59512" lon="6.78376">
        <ele>382</ele>
        <time>2016-08-15T08:50:38.000Z</time>
      </trkpt>
      <trkpt lat="47.59515" lon="6.78379">
        <ele>382</ele>
        <time>2016-08-15T08:50:39.000Z</time>
      </trkpt>
      <trkpt lat="47.59517" lon="6.78382">
        <ele>382</ele>
        <time>2016-08-15T08:50:40.000Z</time>
      </trkpt>
      <trkpt lat="47.5952" lon="6.78384">
        <ele>382</ele>
        <time>2016-08-15T08:50:41.000Z</time>
      </trkpt>
      <trkpt lat="47.59523" lon="6.78386">
        <ele>382</ele>
        <time>2016-08-15T08:50:42.000Z</time>
      </trkpt>
      <trkpt lat="47.59526" lon="6.78388">
        <ele>382</ele>
        <time>2016-08-15T08:50:43.000Z</time>
      </trkpt>
      <trkpt lat="47.59529" lon="6.78389">
        <ele>382</ele>
        <time>2016-08-15T08:50:44.000Z</time>
      </trkpt>
      <trkpt lat="47.59532" lon="6.7839">
        <ele>383</ele>
        <time>2016-08-15T08:50:45.000Z</time>
      </trkpt>
      <trkpt lat="47.59535" lon="6.7839">
        <ele>383</ele>
        <time>2016-08-15T08:50:46.000Z</time>
      </trkpt>
      <trkpt lat="47.59538" lon="6.7839">
        <ele>383</ele>
        <time>2016-08-15T08:50:47.000Z</time>
      </trkpt>
      <trkpt lat="47.59541" lon="6.78389">
        <ele>383</ele>
        <time>2016-08-15T08:50:48.000Z</time>
      </trkpt>
      <trkpt lat="47.59543" lon="6.78388">
        <ele>383</ele>
        <time>2016-08-15T08:50:49.000Z</time>
      </trkpt>
      <trkpt lat="47.59546" lon="6.78387">
        <ele>383</ele>
        <time>2016-08-15T08:50:50.000Z</time>
      </trkpt>
      <trkpt lat="47.59549" lon="6.78385">
        <ele>383</ele>
        <time>2016-08-15T08:50:51.000Z</time>
      </trkpt>
      <trkpt lat="47.59551" lon="6.78383">
        <ele>383</ele>
        <time>2016-08-15T08:50:52.000Z</time>
      </trkpt>
      <trkpt lat="47.59554" lon="6.78381">
        <ele>383</ele>
        <time>2016-08-15T08:50:53.000Z</time>
      </trkpt>
      <trkpt lat="47.59556" lon="6.7838">
        <ele>384</ele>
        <time>2016-08-15T08:50:54.000Z</time>
      </trkpt>
      <trkpt lat="47.59558" lon="6.78378">
        <ele>384</ele>
        <time>2016-08-15T08:50:55.000Z</time>
      </trkpt>
      <trkpt lat="47.5956" lon="6.78376">
        <ele>384</ele>
        <time>2016-08-15T08:50:56.000Z</time>
      </trkpt>
      <trkpt lat="47.59562" lon="6.78373">
        <ele>384</ele>
        <time>2016-08-15T08:50:57.000Z</time>
      </trkpt>
      <trkpt lat="47.59565" lon="6.78369">
        <ele>384</ele>
        <time>2016-08-15T08:50:59.000Z</time>
      </trkpt>
      <trkpt lat="47.59567" lon="6.78367">
        <ele>384</ele>
        <time>2016-08-15T08:51:00.000Z</time>
      </trkpt>
      <trkpt lat="47.59571" lon="6.78364">
        <ele>384</ele>
        <time>2016-08-15T08:51:02.000Z</time>
      </trkpt>
      <trkpt lat="47.59573" lon="6.78363">
        <ele>384</ele>
        <time>2016-08-15T08:51:03.000Z</time>
      </trkpt>
      <trkpt lat="47.59575" lon="6.78361">
        <ele>384</ele>
        <time>2016-08-15T08:51:04.000Z</time>
      </trkpt>
      <trkpt lat="47.59578" lon="6.78359">
        <ele>384</ele>
        <time>2016-08-15T08:51:05.000Z</time>
      </trkpt>
      <trkpt lat="47.59581" lon="6.78358">
        <ele>384</ele>
        <time>2016-08-15T08:51:06.000Z</time>
      </trkpt>
      <trkpt lat="47.59583" lon="6.78357">
        <ele>384</ele>
        <time>2016-08-15T08:51:07.000Z</time>
      </trkpt>
      <trkpt lat="47.59586" lon="6.78356">
        <ele>388</ele>
        <time>2016-08-15T08:51:08.000Z</time>
      </trkpt>
      <trkpt lat="47.59588" lon="6.78356">
        <ele>388</ele>
        <time>2016-08-15T08:51:09.000Z</time>
      </trkpt>
      <trkpt lat="47.5959" lon="6.78355">
        <ele>388</ele>
        <time>2016-08-15T08:51:10.000Z</time>
      </trkpt>
      <trkpt lat="47.59593" lon="6.78355">
        <ele>388</ele>
        <time>2016-08-15T08:51:11.000Z</time>
      </trkpt>
      <trkpt lat="47.59595" lon="6.78354">
        <ele>388</ele>
        <time>2016-08-15T08:51:12.000Z</time>
      </trkpt>
      <trkpt lat="47.59597" lon="6.78354">
        <ele>388</ele>
        <time>2016-08-15T08:51:13.000Z</time>
      </trkpt>
      <trkpt lat="47.59601" lon="6.78353">
        <ele>388</ele>
        <time>2016-08-15T08:51:15.000Z</time>
      </trkpt>
      <trkpt lat="47.59604" lon="6.78352">
        <ele>388</ele>
        <time>2016-08-15T08:51:16.000Z</time>
      </trkpt>
      <trkpt lat="47.59606" lon="6.78351">
        <ele>388</ele>
        <time>2016-08-15T08:51:17.000Z</time>
      </trkpt>
      <trkpt lat="47.59608" lon="6.7835">
        <ele>388</ele>
        <time>2016-08-15T08:51:18.000Z</time>
      </trkpt>
      <trkpt lat="47.5961" lon="6.78349">
        <ele>389</ele>
        <time>2016-08-15T08:51:19.000Z</time>
      </trkpt>
      <trkpt lat="47.59613" lon="6.78348">
        <ele>389</ele>
        <time>2016-08-15T08:51:20.000Z</time>
      </trkpt>
      <trkpt lat="47.59615" lon="6.78347">
        <ele>389</ele>
        <time>2016-08-15T08:51:21.000Z</time>
      </trkpt>
      <trkpt lat="47.59618" lon="6.78346">
        <ele>389</ele>
        <time>2016-08-15T08:51:22.000Z</time>
      </trkpt>
      <trkpt lat="47.5962" lon="6.78345">
        <ele>389</ele>
        <time>2016-08-15T08:51:23.000Z</time>
      </trkpt>
      <trkpt lat="47.59623" lon="6.78345">
        <ele>389</ele>
        <time>2016-08-15T08:51:24.000Z</time>
      </trkpt>
      <trkpt lat="47.59627" lon="6.78345">
        <ele>390</ele>
        <time>2016-08-15T08:51:26.000Z</time>
      </trkpt>
      <trkpt lat="47.5963" lon="6.78344">
        <ele>390</ele>
        <time>2016-08-15T08:51:27.000Z</time>
      </trkpt>
      <trkpt lat="47.59632" lon="6.78343">
        <ele>390</ele>
        <time>2016-08-15T08:51:28.000Z</time>
      </trkpt>
      <trkpt lat="47.59635" lon="6.78342">
        <ele>390</ele>
        <time>2016-08-15T08:51:29.000Z</time>
      </trkpt>
      <trkpt lat="47.59637" lon="6.78341">
        <ele>390</ele>
        <time>2016-08-15T08:51:30.000Z</time>
      </trkpt>
      <trkpt lat="47.5964" lon="6.78341">
        <ele>390</ele>
        <time>2016-08-15T08:51:31.000Z</time>
      </trkpt>
      <trkpt lat="47.59643" lon="6.7834">
        <ele>390</ele>
        <time>2016-08-15T08:51:32.000Z</time>
      </trkpt>
      <trkpt lat="47.59646" lon="6.78339">
        <ele>390</ele>
        <time>2016-08-15T08:51:33.000Z</time>
      </trkpt>
      <trkpt lat="47.59649" lon="6.78338">
        <ele>390</ele>
        <time>2016-08-15T08:51:34.000Z</time>
      </trkpt>
      <trkpt lat="47.59652" lon="6.78337">
        <ele>391</ele>
        <time>2016-08-15T08:51:35.000Z</time>
      </trkpt>
      <trkpt lat="47.59656" lon="6.78335">
        <ele>391</ele>
        <time>2016-08-15T08:51:36.000Z</time>
      </trkpt>
      <trkpt lat="47.5966" lon="6.78334">
        <ele>391</ele>
        <time>2016-08-15T08:51:37.000Z</time>
      </trkpt>
      <trkpt lat="47.59664" lon="6.78333">
        <ele>390</ele>
        <time>2016-08-15T08:51:38.000Z</time>
      </trkpt>
      <trkpt lat="47.59667" lon="6.78333">
        <ele>391</ele>
        <time>2016-08-15T08:51:39.000Z</time>
      </trkpt>
      <trkpt lat="47.5967" lon="6.78332">
        <ele>390</ele>
        <time>2016-08-15T08:51:40.000Z</time>
      </trkpt>
      <trkpt lat="47.59673" lon="6.78332">
        <ele>390</ele>
        <time>2016-08-15T08:51:41.000Z</time>
      </trkpt>
      <trkpt lat="47.59676" lon="6.78332">
        <ele>390</ele>
        <time>2016-08-15T08:51:42.000Z</time>
      </trkpt>
      <trkpt lat="47.59678" lon="6.78332">
        <ele>389</ele>
        <time>2016-08-15T08:51:43.000Z</time>
      </trkpt>
      <trkpt lat="47.59683" lon="6.78331">
        <ele>389</ele>
        <time>2016-08-15T08:51:45.000Z</time>
      </trkpt>
      <trkpt lat="47.59685" lon="6.78331">
        <ele>389</ele>
        <time>2016-08-15T08:51:46.000Z</time>
      </trkpt>
      <trkpt lat="47.59687" lon="6.7833">
        <ele>389</ele>
        <time>2016-08-15T08:51:47.000Z</time>
      </trkpt>
      <trkpt lat="47.5969" lon="6.7833">
        <ele>389</ele>
        <time>2016-08-15T08:51:48.000Z</time>
      </trkpt>
      <trkpt lat="47.59692" lon="6.7833">
        <ele>389</ele>
        <time>2016-08-15T08:51:49.000Z</time>
      </trkpt>
      <trkpt lat="47.59695" lon="6.7833">
        <ele>389</ele>
        <time>2016-08-15T08:51:50.000Z</time>
      </trkpt>
      <trkpt lat="47.59698" lon="6.7833">
        <ele>389</ele>
        <time>2016-08-15T08:51:51.000Z</time>
      </trkpt>
      <trkpt lat="47.59701" lon="6.7833">
        <ele>389</ele>
        <time>2016-08-15T08:51:52.000Z</time>
      </trkpt>
      <trkpt lat="47.59704" lon="6.78329">
        <ele>389</ele>
        <time>2016-08-15T08:51:53.000Z</time>
      </trkpt>
      <trkpt lat="47.59707" lon="6.78329">
        <ele>389</ele>
        <time>2016-08-15T08:51:54.000Z</time>
      </trkpt>
      <trkpt lat="47.59709" lon="6.78328">
        <ele>389</ele>
        <time>2016-08-15T08:51:55.000Z</time>
      </trkpt>
      <trkpt lat="47.59712" lon="6.78328">
        <ele>389</ele>
        <time>2016-08-15T08:51:56.000Z</time>
      </trkpt>
      <trkpt lat="47.59715" lon="6.78328">
        <ele>389</ele>
        <time>2016-08-15T08:51:57.000Z</time>
      </trkpt>
      <trkpt lat="47.59718" lon="6.78328">
        <ele>389</ele>
        <time>2016-08-15T08:51:58.000Z</time>
      </trkpt>
      <trkpt lat="47.5972" lon="6.78328">
        <ele>390</ele>
        <time>2016-08-15T08:51:59.000Z</time>
      </trkpt>
      <trkpt lat="47.59723" lon="6.78328">
        <ele>390</ele>
        <time>2016-08-15T08:52:00.000Z</time>
      </trkpt>
      <trkpt lat="47.59726" lon="6.78328">
        <ele>390</ele>
        <time>2016-08-15T08:52:01.000Z</time>
      </trkpt>
      <trkpt lat="47.59728" lon="6.78328">
        <ele>390</ele>
        <time>2016-08-15T08:52:02.000Z</time>
      </trkpt>
      <trkpt lat="47.59731" lon="6.78328">
        <ele>391</ele>
        <time>2016-08-15T08:52:03.000Z</time>
      </trkpt>
      <trkpt lat="47.59734" lon="6.78328">
        <ele>391</ele>
        <time>2016-08-15T08:52:04.000Z</time>
      </trkpt>
      <trkpt lat="47.59736" lon="6.78327">
        <ele>392</ele>
        <time>2016-08-15T08:52:05.000Z</time>
      </trkpt>
      <trkpt lat="47.59739" lon="6.78327">
        <ele>392</ele>
        <time>2016-08-15T08:52:06.000Z</time>
      </trkpt>
      <trkpt lat="47.59742" lon="6.78327">
        <ele>393</ele>
        <time>2016-08-15T08:52:07.000Z</time>
      </trkpt>
      <trkpt lat="47.59745" lon="6.78327">
        <ele>393</ele>
        <time>2016-08-15T08:52:08.000Z</time>
      </trkpt>
      <trkpt lat="47.59748" lon="6.78327">
        <ele>394</ele>
        <time>2016-08-15T08:52:09.000Z</time>
      </trkpt>
      <trkpt lat="47.59751" lon="6.78328">
        <ele>395</ele>
        <time>2016-08-15T08:52:10.000Z</time>
      </trkpt>
      <trkpt lat="47.59754" lon="6.78329">
        <ele>395</ele>
        <time>2016-08-15T08:52:11.000Z</time>
      </trkpt>
      <trkpt lat="47.59757" lon="6.7833">
        <ele>394</ele>
        <time>2016-08-15T08:52:12.000Z</time>
      </trkpt>
      <trkpt lat="47.5976" lon="6.7833">
        <ele>394</ele>
        <time>2016-08-15T08:52:13.000Z</time>
      </trkpt>
      <trkpt lat="47.59762" lon="6.7833">
        <ele>394</ele>
        <time>2016-08-15T08:52:14.000Z</time>
      </trkpt>
      <trkpt lat="47.59766" lon="6.78333">
        <ele>394</ele>
        <time>2016-08-15T08:52:18.000Z</time>
      </trkpt>
      <trkpt lat="47.59767" lon="6.78333">
        <ele>394</ele>
        <time>2016-08-15T08:52:19.000Z</time>
      </trkpt>
      <trkpt lat="47.5977" lon="6.78335">
        <ele>399</ele>
        <time>2016-08-15T08:52:24.000Z</time>
      </trkpt>
      <trkpt lat="47.59771" lon="6.78337">
        <ele>399</ele>
        <time>2016-08-15T08:52:25.000Z</time>
      </trkpt>
      <trkpt lat="47.59772" lon="6.78341">
        <ele>399</ele>
        <time>2016-08-15T08:52:28.000Z</time>
      </trkpt>
      <trkpt lat="47.59773" lon="6.78344">
        <ele>400</ele>
        <time>2016-08-15T08:52:29.000Z</time>
      </trkpt>
      <trkpt lat="47.59773" lon="6.78349">
        <ele>400</ele>
        <time>2016-08-15T08:52:32.000Z</time>
      </trkpt>
      <trkpt lat="47.59772" lon="6.78351">
        <ele>400</ele>
        <time>2016-08-15T08:52:33.000Z</time>
      </trkpt>
      <trkpt lat="47.59771" lon="6.78356">
        <ele>400</ele>
        <time>2016-08-15T08:52:36.000Z</time>
      </trkpt>
      <trkpt lat="47.59771" lon="6.78357">
        <ele>400</ele>
        <time>2016-08-15T08:52:37.000Z</time>
      </trkpt>
      <trkpt lat="47.59769" lon="6.78362">
        <ele>400</ele>
        <time>2016-08-15T08:52:39.000Z</time>
      </trkpt>
      <trkpt lat="47.59769" lon="6.78364">
        <ele>401</ele>
        <time>2016-08-15T08:52:40.000Z</time>
      </trkpt>
      <trkpt lat="47.59767" lon="6.78369">
        <ele>401</ele>
        <time>2016-08-15T08:52:42.000Z</time>
      </trkpt>
      <trkpt lat="47.59767" lon="6.78371">
        <ele>401</ele>
        <time>2016-08-15T08:52:43.000Z</time>
      </trkpt>
      <trkpt lat="47.59765" lon="6.78377">
        <ele>401</ele>
        <time>2016-08-15T08:52:46.000Z</time>
      </trkpt>
      <trkpt lat="47.59765" lon="6.78378">
        <ele>401</ele>
        <time>2016-08-15T08:52:47.000Z</time>
      </trkpt>
      <trkpt lat="47.59764" lon="6.78373">
        <ele>401</ele>
        <time>2016-08-15T08:53:34.000Z</time>
      </trkpt>
      <trkpt lat="47.59764" lon="6.78371">
        <ele>401</ele>
        <time>2016-08-15T08:53:35.000Z</time>
      </trkpt>
      <trkpt lat="47.59767" lon="6.78368">
        <ele>401</ele>
        <time>2016-08-15T08:53:38.000Z</time>
      </trkpt>
      <trkpt lat="47.59768" lon="6.78368">
        <ele>401</ele>
        <time>2016-08-15T08:53:39.000Z</time>
      </trkpt>
      <trkpt lat="47.59765" lon="6.78371">
        <ele>401</ele>
        <time>2016-08-15T08:55:28.000Z</time>
      </trkpt>
      <trkpt lat="47.59763" lon="6.78371">
        <ele>401</ele>
        <time>2016-08-15T08:55:29.000Z</time>
      </trkpt>
      <trkpt lat="47.59761" lon="6.78372">
        <ele>401</ele>
        <time>2016-08-15T08:55:30.000Z</time>
      </trkpt>
      <trkpt lat="47.59758" lon="6.78373">
        <ele>401</ele>
        <time>2016-08-15T08:55:31.000Z</time>
      </trkpt>
      <trkpt lat="47.59756" lon="6.78373">
        <ele>401</ele>
        <time>2016-08-15T08:55:32.000Z</time>
      </trkpt>
      <trkpt lat="47.59753" lon="6.78374">
        <ele>401</ele>
        <time>2016-08-15T08:55:33.000Z</time>
      </trkpt>
      <trkpt lat="47.59751" lon="6.78374">
        <ele>401</ele>
        <time>2016-08-15T08:55:34.000Z</time>
      </trkpt>
      <trkpt lat="47.59748" lon="6.78375">
        <ele>398</ele>
        <time>2016-08-15T08:55:35.000Z</time>
      </trkpt>
      <trkpt lat="47.59745" lon="6.78376">
        <ele>398</ele>
        <time>2016-08-15T08:55:36.000Z</time>
      </trkpt>
      <trkpt lat="47.59742" lon="6.78377">
        <ele>398</ele>
        <time>2016-08-15T08:55:37.000Z</time>
      </trkpt>
      <trkpt lat="47.59738" lon="6.78377">
        <ele>398</ele>
        <time>2016-08-15T08:55:38.000Z</time>
      </trkpt>
      <trkpt lat="47.59733" lon="6.78377">
        <ele>398</ele>
        <time>2016-08-15T08:55:39.000Z</time>
      </trkpt>
      <trkpt lat="47.59729" lon="6.78378">
        <ele>398</ele>
        <time>2016-08-15T08:55:40.000Z</time>
      </trkpt>
      <trkpt lat="47.59724" lon="6.78379">
        <ele>398</ele>
        <time>2016-08-15T08:55:41.000Z</time>
      </trkpt>
      <trkpt lat="47.59706" lon="6.78389">
        <ele>397</ele>
        <time>2016-08-15T08:55:42.000Z</time>
      </trkpt>
      <trkpt lat="47.597" lon="6.78391">
        <ele>397</ele>
        <time>2016-08-15T08:55:43.000Z</time>
      </trkpt>
      <trkpt lat="47.59696" lon="6.78394">
        <ele>397</ele>
        <time>2016-08-15T08:55:44.000Z</time>
      </trkpt>
      <trkpt lat="47.59691" lon="6.78396">
        <ele>397</ele>
        <time>2016-08-15T08:55:45.000Z</time>
      </trkpt>
      <trkpt lat="47.59687" lon="6.78406">
        <ele>397</ele>
        <time>2016-08-15T08:55:46.000Z</time>
      </trkpt>
      <trkpt lat="47.59682" lon="6.78412">
        <ele>397</ele>
        <time>2016-08-15T08:55:47.000Z</time>
      </trkpt>
      <trkpt lat="47.59675" lon="6.78415">
        <ele>397</ele>
        <time>2016-08-15T08:55:48.000Z</time>
      </trkpt>
      <trkpt lat="47.59664" lon="6.78418">
        <ele>397</ele>
        <time>2016-08-15T08:55:49.000Z</time>
      </trkpt>
      <trkpt lat="47.59658" lon="6.78424">
        <ele>396</ele>
        <time>2016-08-15T08:55:50.000Z</time>
      </trkpt>
      <trkpt lat="47.59654" lon="6.78432">
        <ele>395</ele>
        <time>2016-08-15T08:55:51.000Z</time>
      </trkpt>
      <trkpt lat="47.5965" lon="6.78438">
        <ele>394</ele>
        <time>2016-08-15T08:55:52.000Z</time>
      </trkpt>
      <trkpt lat="47.59646" lon="6.78446">
        <ele>394</ele>
        <time>2016-08-15T08:55:53.000Z</time>
      </trkpt>
      <trkpt lat="47.59641" lon="6.78454">
        <ele>394</ele>
        <time>2016-08-15T08:55:54.000Z</time>
      </trkpt>
      <trkpt lat="47.59639" lon="6.78462">
        <ele>394</ele>
        <time>2016-08-15T08:55:55.000Z</time>
      </trkpt>
      <trkpt lat="47.59634" lon="6.78471">
        <ele>394</ele>
        <time>2016-08-15T08:55:56.000Z</time>
      </trkpt>
      <trkpt lat="47.59629" lon="6.78481">
        <ele>393</ele>
        <time>2016-08-15T08:55:57.000Z</time>
      </trkpt>
      <trkpt lat="47.59627" lon="6.7849">
        <ele>393</ele>
        <time>2016-08-15T08:55:58.000Z</time>
      </trkpt>
      <trkpt lat="47.59623" lon="6.78499">
        <ele>393</ele>
        <time>2016-08-15T08:55:59.000Z</time>
      </trkpt>
      <trkpt lat="47.59622" lon="6.78509">
        <ele>393</ele>
        <time>2016-08-15T08:56:00.000Z</time>
      </trkpt>
      <trkpt lat="47.5962" lon="6.78518">
        <ele>392</ele>
        <time>2016-08-15T08:56:01.000Z</time>
      </trkpt>
      <trkpt lat="47.59619" lon="6.78527">
        <ele>392</ele>
        <time>2016-08-15T08:56:02.000Z</time>
      </trkpt>
      <trkpt lat="47.59617" lon="6.78536">
        <ele>392</ele>
        <time>2016-08-15T08:56:03.000Z</time>
      </trkpt>
      <trkpt lat="47.59615" lon="6.78543">
        <ele>392</ele>
        <time>2016-08-15T08:56:04.000Z</time>
      </trkpt>
      <trkpt lat="47.59612" lon="6.7855">
        <ele>392</ele>
        <time>2016-08-15T08:56:05.000Z</time>
      </trkpt>
      <trkpt lat="47.59609" lon="6.78556">
        <ele>392</ele>
        <time>2016-08-15T08:56:06.000Z</time>
      </trkpt>
      <trkpt lat="47.59606" lon="6.78559">
        <ele>391</ele>
        <time>2016-08-15T08:56:07.000Z</time>
      </trkpt>
      <trkpt lat="47.59604" lon="6.78563">
        <ele>391</ele>
        <time>2016-08-15T08:56:07.999Z</time>
      </trkpt>
      <trkpt lat="47.59598" lon="6.78572">
        <ele>390</ele>
        <time>2016-08-15T08:56:09.000Z</time>
      </trkpt>
      <trkpt lat="47.59594" lon="6.78575">
        <ele>389</ele>
        <time>2016-08-15T08:56:10.000Z</time>
      </trkpt>
      <trkpt lat="47.59591" lon="6.78579">
        <ele>389</ele>
        <time>2016-08-15T08:56:11.001Z</time>
      </trkpt>
      <trkpt lat="47.59591" lon="6.78585">
        <ele>389</ele>
        <time>2016-08-15T08:56:12.000Z</time>
      </trkpt>
      <trkpt lat="47.59589" lon="6.78589">
        <ele>389</ele>
        <time>2016-08-15T08:56:13.000Z</time>
      </trkpt>
      <trkpt lat="47.59588" lon="6.78592">
        <ele>389</ele>
        <time>2016-08-15T08:56:14.000Z</time>
      </trkpt>
      <trkpt lat="47.59585" lon="6.78595">
        <ele>389</ele>
        <time>2016-08-15T08:56:15.000Z</time>
      </trkpt>
      <trkpt lat="47.59582" lon="6.78597">
        <ele>386</ele>
        <time>2016-08-15T08:56:16.000Z</time>
      </trkpt>
      <trkpt lat="47.59577" lon="6.786">
        <ele>385</ele>
        <time>2016-08-15T08:56:17.000Z</time>
      </trkpt>
      <trkpt lat="47.59576" lon="6.78605">
        <ele>385</ele>
        <time>2016-08-15T08:56:18.000Z</time>
      </trkpt>
      <trkpt lat="47.59572" lon="6.78608">
        <ele>385</ele>
        <time>2016-08-15T08:56:19.000Z</time>
      </trkpt>
      <trkpt lat="47.5957" lon="6.78613">
        <ele>385</ele>
        <time>2016-08-15T08:56:20.000Z</time>
      </trkpt>
      <trkpt lat="47.59569" lon="6.78617">
        <ele>385</ele>
        <time>2016-08-15T08:56:21.000Z</time>
      </trkpt>
      <trkpt lat="47.59569" lon="6.78622">
        <ele>385</ele>
        <time>2016-08-15T08:56:22.000Z</time>
      </trkpt>
      <trkpt lat="47.59569" lon="6.78627">
        <ele>385</ele>
        <time>2016-08-15T08:56:23.000Z</time>
      </trkpt>
      <trkpt lat="47.59569" lon="6.78633">
        <ele>385</ele>
        <time>2016-08-15T08:56:24.000Z</time>
      </trkpt>
      <trkpt lat="47.59569" lon="6.78639">
        <ele>385</ele>
        <time>2016-08-15T08:56:25.000Z</time>
      </trkpt>
      <trkpt lat="47.59568" lon="6.78646">
        <ele>386</ele>
        <time>2016-08-15T08:56:26.000Z</time>
      </trkpt>
      <trkpt lat="47.59567" lon="6.78654">
        <ele>386</ele>
        <time>2016-08-15T08:56:27.000Z</time>
      </trkpt>
      <trkpt lat="47.59567" lon="6.78663">
        <ele>386</ele>
        <time>2016-08-15T08:56:28.000Z</time>
      </trkpt>
      <trkpt lat="47.59566" lon="6.78691">
        <ele>387</ele>
        <time>2016-08-15T08:56:29.000Z</time>
      </trkpt>
      <trkpt lat="47.59565" lon="6.78703">
        <ele>387</ele>
        <time>2016-08-15T08:56:30.000Z</time>
      </trkpt>
      <trkpt lat="47.59564" lon="6.78713">
        <ele>388</ele>
        <time>2016-08-15T08:56:31.000Z</time>
      </trkpt>
      <trkpt lat="47.59563" lon="6.7872">
        <ele>388</ele>
        <time>2016-08-15T08:56:32.000Z</time>
      </trkpt>
      <trkpt lat="47.59562" lon="6.78729">
        <ele>388</ele>
        <time>2016-08-15T08:56:33.000Z</time>
      </trkpt>
      <trkpt lat="47.5956" lon="6.78739">
        <ele>388</ele>
        <time>2016-08-15T08:56:34.000Z</time>
      </trkpt>
      <trkpt lat="47.59561" lon="6.78749">
        <ele>388</ele>
        <time>2016-08-15T08:56:35.000Z</time>
      </trkpt>
      <trkpt lat="47.5956" lon="6.78758">
        <ele>390</ele>
        <time>2016-08-15T08:56:36.000Z</time>
      </trkpt>
      <trkpt lat="47.59557" lon="6.78765">
        <ele>389</ele>
        <time>2016-08-15T08:56:37.000Z</time>
      </trkpt>
      <trkpt lat="47.59555" lon="6.78774">
        <ele>390</ele>
        <time>2016-08-15T08:56:38.000Z</time>
      </trkpt>
      <trkpt lat="47.59556" lon="6.78783">
        <ele>390</ele>
        <time>2016-08-15T08:56:39.000Z</time>
      </trkpt>
      <trkpt lat="47.59553" lon="6.78785">
        <ele>390</ele>
        <time>2016-08-15T08:56:40.000Z</time>
      </trkpt>
      <trkpt lat="47.5955" lon="6.78784">
        <ele>390</ele>
        <time>2016-08-15T08:56:41.000Z</time>
      </trkpt>
      <trkpt lat="47.59546" lon="6.78786">
        <ele>389</ele>
        <time>2016-08-15T08:56:42.000Z</time>
      </trkpt>
      <trkpt lat="47.59542" lon="6.78789">
        <ele>389</ele>
        <time>2016-08-15T08:56:43.000Z</time>
      </trkpt>
      <trkpt lat="47.59539" lon="6.78789">
        <ele>389</ele>
        <time>2016-08-15T08:56:44.000Z</time>
      </trkpt>
      <trkpt lat="47.59537" lon="6.78789">
        <ele>389</ele>
        <time>2016-08-15T08:56:45.000Z</time>
      </trkpt>
      <trkpt lat="47.59533" lon="6.78788">
        <ele>389</ele>
        <time>2016-08-15T08:56:47.000Z</time>
      </trkpt>
      <trkpt lat="47.59531" lon="6.78786">
        <ele>389</ele>
        <time>2016-08-15T08:56:48.000Z</time>
      </trkpt>
      <trkpt lat="47.59528" lon="6.78784">
        <ele>389</ele>
        <time>2016-08-15T08:56:49.000Z</time>
      </trkpt>
      <trkpt lat="47.59526" lon="6.78781">
        <ele>389</ele>
        <time>2016-08-15T08:56:50.000Z</time>
      </trkpt>
      <trkpt lat="47.59523" lon="6.78778">
        <ele>389</ele>
        <time>2016-08-15T08:56:51.000Z</time>
      </trkpt>
      <trkpt lat="47.59521" lon="6.78777">
        <ele>389</ele>
        <time>2016-08-15T08:56:52.000Z</time>
      </trkpt>
      <trkpt lat="47.59518" lon="6.78777">
        <ele>389</ele>
        <time>2016-08-15T08:56:53.000Z</time>
      </trkpt>
      <trkpt lat="47.59515" lon="6.78777">
        <ele>389</ele>
        <time>2016-08-15T08:56:54.000Z</time>
      </trkpt>
      <trkpt lat="47.59512" lon="6.78777">
        <ele>389</ele>
        <time>2016-08-15T08:56:55.000Z</time>
      </trkpt>
      <trkpt lat="47.59508" lon="6.78778">
        <ele>389</ele>
        <time>2016-08-15T08:56:56.000Z</time>
      </trkpt>
      <trkpt lat="47.59504" lon="6.78778">
        <ele>389</ele>
        <time>2016-08-15T08:56:57.000Z</time>
      </trkpt>
      <trkpt lat="47.595" lon="6.78779">
        <ele>389</ele>
        <time>2016-08-15T08:56:58.000Z</time>
      </trkpt>
      <trkpt lat="47.59496" lon="6.78778">
        <ele>386</ele>
        <time>2016-08-15T08:56:59.000Z</time>
      </trkpt>
      <trkpt lat="47.59492" lon="6.78778">
        <ele>385</ele>
        <time>2016-08-15T08:57:00.000Z</time>
      </trkpt>
      <trkpt lat="47.59488" lon="6.78779">
        <ele>385</ele>
        <time>2016-08-15T08:57:01.000Z</time>
      </trkpt>
      <trkpt lat="47.59485" lon="6.7878">
        <ele>385</ele>
        <time>2016-08-15T08:57:02.000Z</time>
      </trkpt>
      <trkpt lat="47.59482" lon="6.78781">
        <ele>385</ele>
        <time>2016-08-15T08:57:03.000Z</time>
      </trkpt>
      <trkpt lat="47.59479" lon="6.78783">
        <ele>385</ele>
        <time>2016-08-15T08:57:04.000Z</time>
      </trkpt>
      <trkpt lat="47.59477" lon="6.78784">
        <ele>385</ele>
        <time>2016-08-15T08:57:05.000Z</time>
      </trkpt>
      <trkpt lat="47.59474" lon="6.78785">
        <ele>385</ele>
        <time>2016-08-15T08:57:06.000Z</time>
      </trkpt>
      <trkpt lat="47.59471" lon="6.78789">
        <ele>385</ele>
        <time>2016-08-15T08:57:08.000Z</time>
      </trkpt>
      <trkpt lat="47.59469" lon="6.78792">
        <ele>385</ele>
        <time>2016-08-15T08:57:09.000Z</time>
      </trkpt>
      <trkpt lat="47.59465" lon="6.78792">
        <ele>384</ele>
        <time>2016-08-15T08:57:10.000Z</time>
      </trkpt>
      <trkpt lat="47.59461" lon="6.78791">
        <ele>384</ele>
        <time>2016-08-15T08:57:11.000Z</time>
      </trkpt>
      <trkpt lat="47.59456" lon="6.7879">
        <ele>384</ele>
        <time>2016-08-15T08:57:12.000Z</time>
      </trkpt>
      <trkpt lat="47.59437" lon="6.7879">
        <ele>383</ele>
        <time>2016-08-15T08:57:13.000Z</time>
      </trkpt>
      <trkpt lat="47.59423" lon="6.78793">
        <ele>382</ele>
        <time>2016-08-15T08:57:14.000Z</time>
      </trkpt>
      <trkpt lat="47.59419" lon="6.78803">
        <ele>382</ele>
        <time>2016-08-15T08:57:15.000Z</time>
      </trkpt>
      <trkpt lat="47.59418" lon="6.78808">
        <ele>382</ele>
        <time>2016-08-15T08:57:16.000Z</time>
      </trkpt>
      <trkpt lat="47.59413" lon="6.78812">
        <ele>381</ele>
        <time>2016-08-15T08:57:17.000Z</time>
      </trkpt>
      <trkpt lat="47.59408" lon="6.78817">
        <ele>381</ele>
        <time>2016-08-15T08:57:18.000Z</time>
      </trkpt>
      <trkpt lat="47.59402" lon="6.78821">
        <ele>381</ele>
        <time>2016-08-15T08:57:19.000Z</time>
      </trkpt>
      <trkpt lat="47.59397" lon="6.78826">
        <ele>381</ele>
        <time>2016-08-15T08:57:20.000Z</time>
      </trkpt>
      <trkpt lat="47.59399" lon="6.78849">
        <ele>381</ele>
        <time>2016-08-15T08:57:21.000Z</time>
      </trkpt>
      <trkpt lat="47.59394" lon="6.78855">
        <ele>381</ele>
        <time>2016-08-15T08:57:22.000Z</time>
      </trkpt>
      <trkpt lat="47.59391" lon="6.7886">
        <ele>381</ele>
        <time>2016-08-15T08:57:23.000Z</time>
      </trkpt>
      <trkpt lat="47.59388" lon="6.78863">
        <ele>381</ele>
        <time>2016-08-15T08:57:24.000Z</time>
      </trkpt>
      <trkpt lat="47.59386" lon="6.78864">
        <ele>381</ele>
        <time>2016-08-15T08:57:25.000Z</time>
      </trkpt>
      <trkpt lat="47.59382" lon="6.78864">
        <ele>381</ele>
        <time>2016-08-15T08:57:26.000Z</time>
      </trkpt>
      <trkpt lat="47.59379" lon="6.78865">
        <ele>381</ele>
        <time>2016-08-15T08:57:27.000Z</time>
      </trkpt>
      <trkpt lat="47.59377" lon="6.78867">
        <ele>382</ele>
        <time>2016-08-15T08:57:28.000Z</time>
      </trkpt>
      <trkpt lat="47.59372" lon="6.78873">
        <ele>382</ele>
        <time>2016-08-15T08:57:29.000Z</time>
      </trkpt>
      <trkpt lat="47.59368" lon="6.78875">
        <ele>382</ele>
        <time>2016-08-15T08:57:30.000Z</time>
      </trkpt>
      <trkpt lat="47.59366" lon="6.78876">
        <ele>382</ele>
        <time>2016-08-15T08:57:31.000Z</time>
      </trkpt>
      <trkpt lat="47.59363" lon="6.78877">
        <ele>382</ele>
        <time>2016-08-15T08:57:32.000Z</time>
      </trkpt>
      <trkpt lat="47.59361" lon="6.78878">
        <ele>382</ele>
        <time>2016-08-15T08:57:33.000Z</time>
      </trkpt>
      <trkpt lat="47.59357" lon="6.78878">
        <ele>382</ele>
        <time>2016-08-15T08:57:35.000Z</time>
      </trkpt>
      <trkpt lat="47.59355" lon="6.78878">
        <ele>382</ele>
        <time>2016-08-15T08:57:36.000Z</time>
      </trkpt>
      <trkpt lat="47.5935" lon="6.78878">
        <ele>382</ele>
        <time>2016-08-15T08:57:38.000Z</time>
      </trkpt>
      <trkpt lat="47.59347" lon="6.78878">
        <ele>382</ele>
        <time>2016-08-15T08:57:39.000Z</time>
      </trkpt>
      <trkpt lat="47.59345" lon="6.78879">
        <ele>382</ele>
        <time>2016-08-15T08:57:40.000Z</time>
      </trkpt>
      <trkpt lat="47.59343" lon="6.78879">
        <ele>382</ele>
        <time>2016-08-15T08:57:41.000Z</time>
      </trkpt>
      <trkpt lat="47.59339" lon="6.7888">
        <ele>382</ele>
        <time>2016-08-15T08:57:43.000Z</time>
      </trkpt>
      <trkpt lat="47.59336" lon="6.78881">
        <ele>382</ele>
        <time>2016-08-15T08:57:44.000Z</time>
      </trkpt>
      <trkpt lat="47.59334" lon="6.78881">
        <ele>382</ele>
        <time>2016-08-15T08:57:45.000Z</time>
      </trkpt>
      <trkpt lat="47.5933" lon="6.78881">
        <ele>382</ele>
        <time>2016-08-15T08:57:46.000Z</time>
      </trkpt>
      <trkpt lat="47.59325" lon="6.78881">
        <ele>382</ele>
        <time>2016-08-15T08:57:47.000Z</time>
      </trkpt>
      <trkpt lat="47.59314" lon="6.78884">
        <ele>381</ele>
        <time>2016-08-15T08:57:48.000Z</time>
      </trkpt>
      <trkpt lat="47.59309" lon="6.78886">
        <ele>381</ele>
        <time>2016-08-15T08:57:49.000Z</time>
      </trkpt>
      <trkpt lat="47.59305" lon="6.78887">
        <ele>381</ele>
        <time>2016-08-15T08:57:50.000Z</time>
      </trkpt>
      <trkpt lat="47.59303" lon="6.78887">
        <ele>381</ele>
        <time>2016-08-15T08:57:51.000Z</time>
      </trkpt>
      <trkpt lat="47.59297" lon="6.78889">
        <ele>381</ele>
        <time>2016-08-15T08:57:52.000Z</time>
      </trkpt>
      <trkpt lat="47.59291" lon="6.78892">
        <ele>381</ele>
        <time>2016-08-15T08:57:53.000Z</time>
      </trkpt>
      <trkpt lat="47.59284" lon="6.78892">
        <ele>381</ele>
        <time>2016-08-15T08:57:54.000Z</time>
      </trkpt>
      <trkpt lat="47.59277" lon="6.78892">
        <ele>381</ele>
        <time>2016-08-15T08:57:55.000Z</time>
      </trkpt>
      <trkpt lat="47.59268" lon="6.78892">
        <ele>381</ele>
        <time>2016-08-15T08:57:56.000Z</time>
      </trkpt>
      <trkpt lat="47.59262" lon="6.78894">
        <ele>380</ele>
        <time>2016-08-15T08:57:57.000Z</time>
      </trkpt>
      <trkpt lat="47.59255" lon="6.78898">
        <ele>380</ele>
        <time>2016-08-15T08:57:58.000Z</time>
      </trkpt>
      <trkpt lat="47.59248" lon="6.78901">
        <ele>378</ele>
        <time>2016-08-15T08:57:59.000Z</time>
      </trkpt>
      <trkpt lat="47.5924" lon="6.78903">
        <ele>378</ele>
        <time>2016-08-15T08:58:00.000Z</time>
      </trkpt>
      <trkpt lat="47.59234" lon="6.78905">
        <ele>378</ele>
        <time>2016-08-15T08:58:01.000Z</time>
      </trkpt>
      <trkpt lat="47.59227" lon="6.78906">
        <ele>378</ele>
        <time>2016-08-15T08:58:02.000Z</time>
      </trkpt>
      <trkpt lat="47.5922" lon="6.78907">
        <ele>378</ele>
        <time>2016-08-15T08:58:03.000Z</time>
      </trkpt>
      <trkpt lat="47.59213" lon="6.7891">
        <ele>378</ele>
        <time>2016-08-15T08:58:04.000Z</time>
      </trkpt>
      <trkpt lat="47.59206" lon="6.78911">
        <ele>377</ele>
        <time>2016-08-15T08:58:05.000Z</time>
      </trkpt>
      <trkpt lat="47.592" lon="6.78913">
        <ele>377</ele>
        <time>2016-08-15T08:58:06.000Z</time>
      </trkpt>
      <trkpt lat="47.59194" lon="6.78914">
        <ele>377</ele>
        <time>2016-08-15T08:58:07.000Z</time>
      </trkpt>
      <trkpt lat="47.59189" lon="6.78916">
        <ele>377</ele>
        <time>2016-08-15T08:58:08.000Z</time>
      </trkpt>
      <trkpt lat="47.59184" lon="6.78918">
        <ele>378</ele>
        <time>2016-08-15T08:58:09.000Z</time>
      </trkpt>
      <trkpt lat="47.59179" lon="6.7892">
        <ele>377</ele>
        <time>2016-08-15T08:58:10.000Z</time>
      </trkpt>
      <trkpt lat="47.59174" lon="6.78924">
        <ele>377</ele>
        <time>2016-08-15T08:58:11.000Z</time>
      </trkpt>
      <trkpt lat="47.59168" lon="6.78925">
        <ele>377</ele>
        <time>2016-08-15T08:58:12.000Z</time>
      </trkpt>
      <trkpt lat="47.59164" lon="6.78927">
        <ele>376</ele>
        <time>2016-08-15T08:58:13.000Z</time>
      </trkpt>
      <trkpt lat="47.59159" lon="6.78929">
        <ele>376</ele>
        <time>2016-08-15T08:58:14.000Z</time>
      </trkpt>
      <trkpt lat="47.59154" lon="6.7893">
        <ele>376</ele>
        <time>2016-08-15T08:58:15.000Z</time>
      </trkpt>
      <trkpt lat="47.59148" lon="6.78931">
        <ele>376</ele>
        <time>2016-08-15T08:58:16.000Z</time>
      </trkpt>
      <trkpt lat="47.59143" lon="6.78934">
        <ele>376</ele>
        <time>2016-08-15T08:58:17.000Z</time>
      </trkpt>
      <trkpt lat="47.59138" lon="6.78934">
        <ele>376</ele>
        <time>2016-08-15T08:58:18.000Z</time>
      </trkpt>
      <trkpt lat="47.59134" lon="6.78935">
        <ele>376</ele>
        <time>2016-08-15T08:58:19.001Z</time>
      </trkpt>
      <trkpt lat="47.5913" lon="6.78936">
        <ele>376</ele>
        <time>2016-08-15T08:58:20.000Z</time>
      </trkpt>
      <trkpt lat="47.59126" lon="6.78937">
        <ele>376</ele>
        <time>2016-08-15T08:58:21.000Z</time>
      </trkpt>
      <trkpt lat="47.59121" lon="6.78938">
        <ele>376</ele>
        <time>2016-08-15T08:58:22.000Z</time>
      </trkpt>
      <trkpt lat="47.59117" lon="6.7894">
        <ele>376</ele>
        <time>2016-08-15T08:58:23.000Z</time>
      </trkpt>
      <trkpt lat="47.59113" lon="6.78942">
        <ele>376</ele>
        <time>2016-08-15T08:58:24.000Z</time>
      </trkpt>
      <trkpt lat="47.59109" lon="6.78943">
        <ele>376</ele>
        <time>2016-08-15T08:58:25.000Z</time>
      </trkpt>
      <trkpt lat="47.59104" lon="6.78943">
        <ele>376</ele>
        <time>2016-08-15T08:58:26.000Z</time>
      </trkpt>
      <trkpt lat="47.591" lon="6.78944">
        <ele>376</ele>
        <time>2016-08-15T08:58:27.000Z</time>
      </trkpt>
      <trkpt lat="47.59097" lon="6.78945">
        <ele>375</ele>
        <time>2016-08-15T08:58:28.000Z</time>
      </trkpt>
      <trkpt lat="47.59093" lon="6.78946">
        <ele>375</ele>
        <time>2016-08-15T08:58:29.000Z</time>
      </trkpt>
      <trkpt lat="47.59088" lon="6.78948">
        <ele>375</ele>
        <time>2016-08-15T08:58:30.000Z</time>
      </trkpt>
      <trkpt lat="47.59084" lon="6.78948">
        <ele>375</ele>
        <time>2016-08-15T08:58:32.000Z</time>
      </trkpt>
      <trkpt lat="47.59077" lon="6.7895">
        <ele>373</ele>
        <time>2016-08-15T08:58:33.000Z</time>
      </trkpt>
      <trkpt lat="47.5907" lon="6.78951">
        <ele>373</ele>
        <time>2016-08-15T08:58:34.000Z</time>
      </trkpt>
      <trkpt lat="47.59064" lon="6.78953">
        <ele>373</ele>
        <time>2016-08-15T08:58:35.000Z</time>
      </trkpt>
      <trkpt lat="47.59059" lon="6.78955">
        <ele>373</ele>
        <time>2016-08-15T08:58:36.000Z</time>
      </trkpt>
      <trkpt lat="47.59053" lon="6.78957">
        <ele>373</ele>
        <time>2016-08-15T08:58:37.000Z</time>
      </trkpt>
      <trkpt lat="47.59045" lon="6.7896">
        <ele>373</ele>
        <time>2016-08-15T08:58:38.000Z</time>
      </trkpt>
      <trkpt lat="47.59038" lon="6.78963">
        <ele>372</ele>
        <time>2016-08-15T08:58:39.000Z</time>
      </trkpt>
      <trkpt lat="47.59031" lon="6.78964">
        <ele>372</ele>
        <time>2016-08-15T08:58:40.000Z</time>
      </trkpt>
      <trkpt lat="47.59025" lon="6.78966">
        <ele>372</ele>
        <time>2016-08-15T08:58:41.000Z</time>
      </trkpt>
      <trkpt lat="47.59017" lon="6.78968">
        <ele>372</ele>
        <time>2016-08-15T08:58:42.000Z</time>
      </trkpt>
      <trkpt lat="47.5901" lon="6.78969">
        <ele>372</ele>
        <time>2016-08-15T08:58:43.000Z</time>
      </trkpt>
      <trkpt lat="47.59002" lon="6.78971">
        <ele>372</ele>
        <time>2016-08-15T08:58:44.000Z</time>
      </trkpt>
      <trkpt lat="47.58995" lon="6.78973">
        <ele>368</ele>
        <time>2016-08-15T08:58:45.000Z</time>
      </trkpt>
      <trkpt lat="47.58987" lon="6.78975">
        <ele>368</ele>
        <time>2016-08-15T08:58:46.000Z</time>
      </trkpt>
      <trkpt lat="47.5898" lon="6.78977">
        <ele>368</ele>
        <time>2016-08-15T08:58:47.000Z</time>
      </trkpt>
      <trkpt lat="47.58972" lon="6.78979">
        <ele>367</ele>
        <time>2016-08-15T08:58:48.000Z</time>
      </trkpt>
      <trkpt lat="47.58964" lon="6.78982">
        <ele>367</ele>
        <time>2016-08-15T08:58:49.000Z</time>
      </trkpt>
      <trkpt lat="47.58954" lon="6.78988">
        <ele>366</ele>
        <time>2016-08-15T08:58:50.000Z</time>
      </trkpt>
      <trkpt lat="47.58946" lon="6.78993">
        <ele>366</ele>
        <time>2016-08-15T08:58:51.000Z</time>
      </trkpt>
      <trkpt lat="47.58937" lon="6.78999">
        <ele>365</ele>
        <time>2016-08-15T08:58:52.000Z</time>
      </trkpt>
      <trkpt lat="47.58928" lon="6.79004">
        <ele>363</ele>
        <time>2016-08-15T08:58:52.999Z</time>
      </trkpt>
      <trkpt lat="47.58918" lon="6.79009">
        <ele>363</ele>
        <time>2016-08-15T08:58:54.000Z</time>
      </trkpt>
      <trkpt lat="47.58908" lon="6.79014">
        <ele>360</ele>
        <time>2016-08-15T08:58:55.000Z</time>
      </trkpt>
      <trkpt lat="47.58898" lon="6.79021">
        <ele>359</ele>
        <time>2016-08-15T08:58:56.000Z</time>
      </trkpt>
      <trkpt lat="47.58889" lon="6.79027">
        <ele>358</ele>
        <time>2016-08-15T08:58:57.000Z</time>
      </trkpt>
      <trkpt lat="47.58879" lon="6.79033">
        <ele>358</ele>
        <time>2016-08-15T08:58:57.999Z</time>
      </trkpt>
      <trkpt lat="47.58869" lon="6.79039">
        <ele>357</ele>
        <time>2016-08-15T08:58:59.000Z</time>
      </trkpt>
      <trkpt lat="47.58861" lon="6.79045">
        <ele>357</ele>
        <time>2016-08-15T08:59:00.000Z</time>
      </trkpt>
      <trkpt lat="47.58851" lon="6.79051">
        <ele>356</ele>
        <time>2016-08-15T08:59:01.000Z</time>
      </trkpt>
      <trkpt lat="47.5884" lon="6.79056">
        <ele>356</ele>
        <time>2016-08-15T08:59:02.000Z</time>
      </trkpt>
      <trkpt lat="47.58831" lon="6.7906">
        <ele>354</ele>
        <time>2016-08-15T08:59:03.000Z</time>
      </trkpt>
      <trkpt lat="47.5882" lon="6.79063">
        <ele>354</ele>
        <time>2016-08-15T08:59:04.000Z</time>
      </trkpt>
      <trkpt lat="47.58811" lon="6.79064">
        <ele>354</ele>
        <time>2016-08-15T08:59:05.000Z</time>
      </trkpt>
      <trkpt lat="47.58801" lon="6.79063">
        <ele>354</ele>
        <time>2016-08-15T08:59:06.000Z</time>
      </trkpt>
      <trkpt lat="47.58792" lon="6.79063">
        <ele>354</ele>
        <time>2016-08-15T08:59:07.000Z</time>
      </trkpt>
      <trkpt lat="47.58784" lon="6.79062">
        <ele>354</ele>
        <time>2016-08-15T08:59:08.000Z</time>
      </trkpt>
      <trkpt lat="47.58778" lon="6.79062">
        <ele>354</ele>
        <time>2016-08-15T08:59:09.000Z</time>
      </trkpt>
      <trkpt lat="47.58773" lon="6.79061">
        <ele>354</ele>
        <time>2016-08-15T08:59:10.000Z</time>
      </trkpt>
      <trkpt lat="47.58768" lon="6.79062">
        <ele>354</ele>
        <time>2016-08-15T08:59:11.000Z</time>
      </trkpt>
      <trkpt lat="47.58763" lon="6.79062">
        <ele>354</ele>
        <time>2016-08-15T08:59:12.000Z</time>
      </trkpt>
      <trkpt lat="47.58758" lon="6.79062">
        <ele>354</ele>
        <time>2016-08-15T08:59:13.000Z</time>
      </trkpt>
      <trkpt lat="47.58754" lon="6.79063">
        <ele>354</ele>
        <time>2016-08-15T08:59:14.000Z</time>
      </trkpt>
      <trkpt lat="47.58749" lon="6.79065">
        <ele>354</ele>
        <time>2016-08-15T08:59:15.000Z</time>
      </trkpt>
      <trkpt lat="47.58744" lon="6.79067">
        <ele>354</ele>
        <time>2016-08-15T08:59:16.000Z</time>
      </trkpt>
      <trkpt lat="47.5874" lon="6.79067">
        <ele>355</ele>
        <time>2016-08-15T08:59:17.000Z</time>
      </trkpt>
      <trkpt lat="47.58736" lon="6.79069">
        <ele>355</ele>
        <time>2016-08-15T08:59:18.000Z</time>
      </trkpt>
      <trkpt lat="47.58733" lon="6.79069">
        <ele>355</ele>
        <time>2016-08-15T08:59:19.000Z</time>
      </trkpt>
      <trkpt lat="47.5873" lon="6.79068">
        <ele>355</ele>
        <time>2016-08-15T08:59:20.000Z</time>
      </trkpt>
      <trkpt lat="47.58726" lon="6.7907">
        <ele>355</ele>
        <time>2016-08-15T08:59:21.000Z</time>
      </trkpt>
      <trkpt lat="47.58724" lon="6.79072">
        <ele>355</ele>
        <time>2016-08-15T08:59:22.000Z</time>
      </trkpt>
      <trkpt lat="47.58721" lon="6.79074">
        <ele>355</ele>
        <time>2016-08-15T08:59:23.000Z</time>
      </trkpt>
      <trkpt lat="47.58719" lon="6.79076">
        <ele>355</ele>
        <time>2016-08-15T08:59:24.000Z</time>
      </trkpt>
      <trkpt lat="47.58716" lon="6.79078">
        <ele>355</ele>
        <time>2016-08-15T08:59:25.000Z</time>
      </trkpt>
      <trkpt lat="47.58714" lon="6.79081">
        <ele>355</ele>
        <time>2016-08-15T08:59:26.000Z</time>
      </trkpt>
      <trkpt lat="47.58711" lon="6.79084">
        <ele>354</ele>
        <time>2016-08-15T08:59:27.000Z</time>
      </trkpt>
      <trkpt lat="47.58706" lon="6.79087">
        <ele>354</ele>
        <time>2016-08-15T08:59:28.000Z</time>
      </trkpt>
      <trkpt lat="47.58701" lon="6.7909">
        <ele>354</ele>
        <time>2016-08-15T08:59:29.000Z</time>
      </trkpt>
      <trkpt lat="47.58697" lon="6.79092">
        <ele>354</ele>
        <time>2016-08-15T08:59:30.000Z</time>
      </trkpt>
      <trkpt lat="47.58692" lon="6.79095">
        <ele>354</ele>
        <time>2016-08-15T08:59:31.000Z</time>
      </trkpt>
      <trkpt lat="47.58683" lon="6.79105">
        <ele>354</ele>
        <time>2016-08-15T08:59:32.000Z</time>
      </trkpt>
      <trkpt lat="47.58677" lon="6.79111">
        <ele>354</ele>
        <time>2016-08-15T08:59:33.000Z</time>
      </trkpt>
      <trkpt lat="47.58652" lon="6.7911">
        <ele>354</ele>
        <time>2016-08-15T08:59:34.000Z</time>
      </trkpt>
      <trkpt lat="47.58645" lon="6.79113">
        <ele>354</ele>
        <time>2016-08-15T08:59:35.000Z</time>
      </trkpt>
      <trkpt lat="47.58647" lon="6.79121">
        <ele>354</ele>
        <time>2016-08-15T08:59:36.000Z</time>
      </trkpt>
      <trkpt lat="47.58642" lon="6.79124">
        <ele>354</ele>
        <time>2016-08-15T08:59:37.000Z</time>
      </trkpt>
      <trkpt lat="47.5864" lon="6.79129">
        <ele>354</ele>
        <time>2016-08-15T08:59:38.000Z</time>
      </trkpt>
      <trkpt lat="47.58637" lon="6.79132">
        <ele>354</ele>
        <time>2016-08-15T08:59:39.000Z</time>
      </trkpt>
      <trkpt lat="47.58634" lon="6.79135">
        <ele>354</ele>
        <time>2016-08-15T08:59:40.000Z</time>
      </trkpt>
      <trkpt lat="47.5863" lon="6.79137">
        <ele>355</ele>
        <time>2016-08-15T08:59:41.000Z</time>
      </trkpt>
      <trkpt lat="47.58627" lon="6.79139">
        <ele>355</ele>
        <time>2016-08-15T08:59:42.000Z</time>
      </trkpt>
      <trkpt lat="47.58623" lon="6.79142">
        <ele>355</ele>
        <time>2016-08-15T08:59:43.000Z</time>
      </trkpt>
      <trkpt lat="47.58622" lon="6.79144">
        <ele>355</ele>
        <time>2016-08-15T08:59:44.000Z</time>
      </trkpt>
      <trkpt lat="47.58618" lon="6.79148">
        <ele>355</ele>
        <time>2016-08-15T08:59:45.000Z</time>
      </trkpt>
      <trkpt lat="47.58614" lon="6.79152">
        <ele>355</ele>
        <time>2016-08-15T08:59:46.000Z</time>
      </trkpt>
      <trkpt lat="47.58609" lon="6.79154">
        <ele>355</ele>
        <time>2016-08-15T08:59:47.000Z</time>
      </trkpt>
      <trkpt lat="47.58605" lon="6.79157">
        <ele>355</ele>
        <time>2016-08-15T08:59:48.000Z</time>
      </trkpt>
      <trkpt lat="47.58602" lon="6.7916">
        <ele>355</ele>
        <time>2016-08-15T08:59:49.000Z</time>
      </trkpt>
      <trkpt lat="47.58599" lon="6.79163">
        <ele>355</ele>
        <time>2016-08-15T08:59:50.000Z</time>
      </trkpt>
      <trkpt lat="47.58597" lon="6.79165">
        <ele>355</ele>
        <time>2016-08-15T08:59:51.000Z</time>
      </trkpt>
      <trkpt lat="47.58593" lon="6.79168">
        <ele>356</ele>
        <time>2016-08-15T08:59:52.000Z</time>
      </trkpt>
      <trkpt lat="47.5859" lon="6.7917">
        <ele>356</ele>
        <time>2016-08-15T08:59:53.000Z</time>
      </trkpt>
      <trkpt lat="47.58586" lon="6.79172">
        <ele>356</ele>
        <time>2016-08-15T08:59:54.000Z</time>
      </trkpt>
      <trkpt lat="47.58583" lon="6.79174">
        <ele>356</ele>
        <time>2016-08-15T08:59:55.000Z</time>
      </trkpt>
      <trkpt lat="47.5858" lon="6.79176">
        <ele>356</ele>
        <time>2016-08-15T08:59:56.000Z</time>
      </trkpt>
      <trkpt lat="47.58578" lon="6.79177">
        <ele>356</ele>
        <time>2016-08-15T08:59:57.000Z</time>
      </trkpt>
      <trkpt lat="47.58575" lon="6.79179">
        <ele>356</ele>
        <time>2016-08-15T08:59:58.000Z</time>
      </trkpt>
      <trkpt lat="47.58573" lon="6.79181">
        <ele>356</ele>
        <time>2016-08-15T08:59:59.000Z</time>
      </trkpt>
      <trkpt lat="47.5857" lon="6.79183">
        <ele>356</ele>
        <time>2016-08-15T09:00:00.000Z</time>
      </trkpt>
      <trkpt lat="47.58567" lon="6.79185">
        <ele>356</ele>
        <time>2016-08-15T09:00:01.000Z</time>
      </trkpt>
      <trkpt lat="47.58564" lon="6.79187">
        <ele>356</ele>
        <time>2016-08-15T09:00:02.000Z</time>
      </trkpt>
      <trkpt lat="47.5856" lon="6.79189">
        <ele>356</ele>
        <time>2016-08-15T09:00:03.000Z</time>
      </trkpt>
      <trkpt lat="47.58557" lon="6.79191">
        <ele>356</ele>
        <time>2016-08-15T09:00:04.000Z</time>
      </trkpt>
      <trkpt lat="47.58553" lon="6.79193">
        <ele>356</ele>
        <time>2016-08-15T09:00:05.000Z</time>
      </trkpt>
      <trkpt lat="47.58549" lon="6.79194">
        <ele>356</ele>
        <time>2016-08-15T09:00:06.000Z</time>
      </trkpt>
      <trkpt lat="47.58544" lon="6.79196">
        <ele>356</ele>
        <time>2016-08-15T09:00:07.000Z</time>
      </trkpt>
      <trkpt lat="47.58532" lon="6.79198">
        <ele>356</ele>
        <time>2016-08-15T09:00:08.000Z</time>
      </trkpt>
      <trkpt lat="47.58527" lon="6.792">
        <ele>356</ele>
        <time>2016-08-15T09:00:09.000Z</time>
      </trkpt>
      <trkpt lat="47.58519" lon="6.79203">
        <ele>356</ele>
        <time>2016-08-15T09:00:10.000Z</time>
      </trkpt>
      <trkpt lat="47.58513" lon="6.79205">
        <ele>356</ele>
        <time>2016-08-15T09:00:11.000Z</time>
      </trkpt>
      <trkpt lat="47.58508" lon="6.79205">
        <ele>356</ele>
        <time>2016-08-15T09:00:12.000Z</time>
      </trkpt>
      <trkpt lat="47.58502" lon="6.79205">
        <ele>356</ele>
        <time>2016-08-15T09:00:13.000Z</time>
      </trkpt>
      <trkpt lat="47.58496" lon="6.79206">
        <ele>356</ele>
        <time>2016-08-15T09:00:14.000Z</time>
      </trkpt>
      <trkpt lat="47.58491" lon="6.79205">
        <ele>356</ele>
        <time>2016-08-15T09:00:15.000Z</time>
      </trkpt>
      <trkpt lat="47.58486" lon="6.79204">
        <ele>356</ele>
        <time>2016-08-15T09:00:16.000Z</time>
      </trkpt>
      <trkpt lat="47.58481" lon="6.79204">
        <ele>356</ele>
        <time>2016-08-15T09:00:17.000Z</time>
      </trkpt>
      <trkpt lat="47.58477" lon="6.79202">
        <ele>356</ele>
        <time>2016-08-15T09:00:18.000Z</time>
      </trkpt>
      <trkpt lat="47.58471" lon="6.79199">
        <ele>355</ele>
        <time>2016-08-15T09:00:19.000Z</time>
      </trkpt>
      <trkpt lat="47.58466" lon="6.79197">
        <ele>355</ele>
        <time>2016-08-15T09:00:20.000Z</time>
      </trkpt>
      <trkpt lat="47.58461" lon="6.79194">
        <ele>355</ele>
        <time>2016-08-15T09:00:21.000Z</time>
      </trkpt>
      <trkpt lat="47.58457" lon="6.79193">
        <ele>355</ele>
        <time>2016-08-15T09:00:22.000Z</time>
      </trkpt>
      <trkpt lat="47.58452" lon="6.79191">
        <ele>355</ele>
        <time>2016-08-15T09:00:23.000Z</time>
      </trkpt>
      <trkpt lat="47.58447" lon="6.7919">
        <ele>355</ele>
        <time>2016-08-15T09:00:24.000Z</time>
      </trkpt>
      <trkpt lat="47.58443" lon="6.7919">
        <ele>355</ele>
        <time>2016-08-15T09:00:25.000Z</time>
      </trkpt>
      <trkpt lat="47.58437" lon="6.79191">
        <ele>355</ele>
        <time>2016-08-15T09:00:26.000Z</time>
      </trkpt>
      <trkpt lat="47.58431" lon="6.79191">
        <ele>355</ele>
        <time>2016-08-15T09:00:27.000Z</time>
      </trkpt>
      <trkpt lat="47.58425" lon="6.79191">
        <ele>355</ele>
        <time>2016-08-15T09:00:28.000Z</time>
      </trkpt>
      <trkpt lat="47.58419" lon="6.79193">
        <ele>355</ele>
        <time>2016-08-15T09:00:29.000Z</time>
      </trkpt>
      <trkpt lat="47.58413" lon="6.79193">
        <ele>354</ele>
        <time>2016-08-15T09:00:30.000Z</time>
      </trkpt>
      <trkpt lat="47.58409" lon="6.79194">
        <ele>354</ele>
        <time>2016-08-15T09:00:31.000Z</time>
      </trkpt>
      <trkpt lat="47.58403" lon="6.79194">
        <ele>354</ele>
        <time>2016-08-15T09:00:32.000Z</time>
      </trkpt>
      <trkpt lat="47.58398" lon="6.79195">
        <ele>354</ele>
        <time>2016-08-15T09:00:33.000Z</time>
      </trkpt>
      <trkpt lat="47.58394" lon="6.79197">
        <ele>354</ele>
        <time>2016-08-15T09:00:34.000Z</time>
      </trkpt>
      <trkpt lat="47.58387" lon="6.79197">
        <ele>354</ele>
        <time>2016-08-15T09:00:35.000Z</time>
      </trkpt>
      <trkpt lat="47.58382" lon="6.79197">
        <ele>354</ele>
        <time>2016-08-15T09:00:36.000Z</time>
      </trkpt>
      <trkpt lat="47.58377" lon="6.79199">
        <ele>354</ele>
        <time>2016-08-15T09:00:37.000Z</time>
      </trkpt>
      <trkpt lat="47.58371" lon="6.79199">
        <ele>354</ele>
        <time>2016-08-15T09:00:38.000Z</time>
      </trkpt>
      <trkpt lat="47.58364" lon="6.79202">
        <ele>353</ele>
        <time>2016-08-15T09:00:39.000Z</time>
      </trkpt>
      <trkpt lat="47.58359" lon="6.79204">
        <ele>353</ele>
        <time>2016-08-15T09:00:40.000Z</time>
      </trkpt>
      <trkpt lat="47.58355" lon="6.79204">
        <ele>353</ele>
        <time>2016-08-15T09:00:41.000Z</time>
      </trkpt>
      <trkpt lat="47.5835" lon="6.79203">
        <ele>353</ele>
        <time>2016-08-15T09:00:42.000Z</time>
      </trkpt>
      <trkpt lat="47.58345" lon="6.79204">
        <ele>353</ele>
        <time>2016-08-15T09:00:43.000Z</time>
      </trkpt>
      <trkpt lat="47.58339" lon="6.79205">
        <ele>353</ele>
        <time>2016-08-15T09:00:44.000Z</time>
      </trkpt>
      <trkpt lat="47.58334" lon="6.79206">
        <ele>353</ele>
        <time>2016-08-15T09:00:45.000Z</time>
      </trkpt>
      <trkpt lat="47.58328" lon="6.79205">
        <ele>353</ele>
        <time>2016-08-15T09:00:46.000Z</time>
      </trkpt>
      <trkpt lat="47.58323" lon="6.79205">
        <ele>353</ele>
        <time>2016-08-15T09:00:47.000Z</time>
      </trkpt>
      <trkpt lat="47.58315" lon="6.79204">
        <ele>353</ele>
        <time>2016-08-15T09:00:48.000Z</time>
      </trkpt>
      <trkpt lat="47.5831" lon="6.79205">
        <ele>354</ele>
        <time>2016-08-15T09:00:49.000Z</time>
      </trkpt>
      <trkpt lat="47.58304" lon="6.79205">
        <ele>354</ele>
        <time>2016-08-15T09:00:50.000Z</time>
      </trkpt>
      <trkpt lat="47.58299" lon="6.79206">
        <ele>354</ele>
        <time>2016-08-15T09:00:51.000Z</time>
      </trkpt>
      <trkpt lat="47.58293" lon="6.79207">
        <ele>354</ele>
        <time>2016-08-15T09:00:52.000Z</time>
      </trkpt>
      <trkpt lat="47.58287" lon="6.79207">
        <ele>354</ele>
        <time>2016-08-15T09:00:53.000Z</time>
      </trkpt>
      <trkpt lat="47.58282" lon="6.79207">
        <ele>354</ele>
        <time>2016-08-15T09:00:54.000Z</time>
      </trkpt>
      <trkpt lat="47.58276" lon="6.7921">
        <ele>354</ele>
        <time>2016-08-15T09:00:55.000Z</time>
      </trkpt>
      <trkpt lat="47.58271" lon="6.7921">
        <ele>354</ele>
        <time>2016-08-15T09:00:56.000Z</time>
      </trkpt>
      <trkpt lat="47.58266" lon="6.7921">
        <ele>354</ele>
        <time>2016-08-15T09:00:57.000Z</time>
      </trkpt>
      <trkpt lat="47.58261" lon="6.79209">
        <ele>354</ele>
        <time>2016-08-15T09:00:58.000Z</time>
      </trkpt>
      <trkpt lat="47.58257" lon="6.79209">
        <ele>355</ele>
        <time>2016-08-15T09:00:59.000Z</time>
      </trkpt>
      <trkpt lat="47.58252" lon="6.79211">
        <ele>355</ele>
        <time>2016-08-15T09:01:00.000Z</time>
      </trkpt>
      <trkpt lat="47.58247" lon="6.79211">
        <ele>357</ele>
        <time>2016-08-15T09:01:01.000Z</time>
      </trkpt>
      <trkpt lat="47.58243" lon="6.79211">
        <ele>357</ele>
        <time>2016-08-15T09:01:02.000Z</time>
      </trkpt>
      <trkpt lat="47.5824" lon="6.79212">
        <ele>357</ele>
        <time>2016-08-15T09:01:03.000Z</time>
      </trkpt>
      <trkpt lat="47.58236" lon="6.79212">
        <ele>357</ele>
        <time>2016-08-15T09:01:04.000Z</time>
      </trkpt>
      <trkpt lat="47.5823" lon="6.79213">
        <ele>357</ele>
        <time>2016-08-15T09:01:05.000Z</time>
      </trkpt>
      <trkpt lat="47.58227" lon="6.79214">
        <ele>357</ele>
        <time>2016-08-15T09:01:06.000Z</time>
      </trkpt>
      <trkpt lat="47.58223" lon="6.79216">
        <ele>358</ele>
        <time>2016-08-15T09:01:07.000Z</time>
      </trkpt>
      <trkpt lat="47.58219" lon="6.79216">
        <ele>358</ele>
        <time>2016-08-15T09:01:08.000Z</time>
      </trkpt>
      <trkpt lat="47.58215" lon="6.79216">
        <ele>358</ele>
        <time>2016-08-15T09:01:09.000Z</time>
      </trkpt>
      <trkpt lat="47.58212" lon="6.79217">
        <ele>358</ele>
        <time>2016-08-15T09:01:10.000Z</time>
      </trkpt>
      <trkpt lat="47.5821" lon="6.79216">
        <ele>358</ele>
        <time>2016-08-15T09:01:11.000Z</time>
      </trkpt>
      <trkpt lat="47.58205" lon="6.79216">
        <ele>358</ele>
        <time>2016-08-15T09:01:12.000Z</time>
      </trkpt>
      <trkpt lat="47.58202" lon="6.79217">
        <ele>358</ele>
        <time>2016-08-15T09:01:13.000Z</time>
      </trkpt>
      <trkpt lat="47.58198" lon="6.79217">
        <ele>358</ele>
        <time>2016-08-15T09:01:14.000Z</time>
      </trkpt>
      <trkpt lat="47.58194" lon="6.79217">
        <ele>358</ele>
        <time>2016-08-15T09:01:15.000Z</time>
      </trkpt>
      <trkpt lat="47.58191" lon="6.79216">
        <ele>358</ele>
        <time>2016-08-15T09:01:16.000Z</time>
      </trkpt>
      <trkpt lat="47.58188" lon="6.79216">
        <ele>359</ele>
        <time>2016-08-15T09:01:17.000Z</time>
      </trkpt>
      <trkpt lat="47.58184" lon="6.79215">
        <ele>359</ele>
        <time>2016-08-15T09:01:18.000Z</time>
      </trkpt>
      <trkpt lat="47.58181" lon="6.79213">
        <ele>359</ele>
        <time>2016-08-15T09:01:19.000Z</time>
      </trkpt>
      <trkpt lat="47.58178" lon="6.79212">
        <ele>359</ele>
        <time>2016-08-15T09:01:20.000Z</time>
      </trkpt>
      <trkpt lat="47.58176" lon="6.7921">
        <ele>359</ele>
        <time>2016-08-15T09:01:21.000Z</time>
      </trkpt>
      <trkpt lat="47.58173" lon="6.79208">
        <ele>359</ele>
        <time>2016-08-15T09:01:22.000Z</time>
      </trkpt>
      <trkpt lat="47.58171" lon="6.79207">
        <ele>359</ele>
        <time>2016-08-15T09:01:23.000Z</time>
      </trkpt>
      <trkpt lat="47.58169" lon="6.79208">
        <ele>359</ele>
        <time>2016-08-15T09:01:24.000Z</time>
      </trkpt>
      <trkpt lat="47.58165" lon="6.79208">
        <ele>362</ele>
        <time>2016-08-15T09:01:25.000Z</time>
      </trkpt>
      <trkpt lat="47.58161" lon="6.79208">
        <ele>362</ele>
        <time>2016-08-15T09:01:26.000Z</time>
      </trkpt>
      <trkpt lat="47.58157" lon="6.79207">
        <ele>362</ele>
        <time>2016-08-15T09:01:27.000Z</time>
      </trkpt>
      <trkpt lat="47.58153" lon="6.79205">
        <ele>363</ele>
        <time>2016-08-15T09:01:28.000Z</time>
      </trkpt>
      <trkpt lat="47.58149" lon="6.79205">
        <ele>363</ele>
        <time>2016-08-15T09:01:29.000Z</time>
      </trkpt>
      <trkpt lat="47.58146" lon="6.79204">
        <ele>363</ele>
        <time>2016-08-15T09:01:30.000Z</time>
      </trkpt>
      <trkpt lat="47.58143" lon="6.79204">
        <ele>363</ele>
        <time>2016-08-15T09:01:31.000Z</time>
      </trkpt>
      <trkpt lat="47.5814" lon="6.79204">
        <ele>363</ele>
        <time>2016-08-15T09:01:32.000Z</time>
      </trkpt>
      <trkpt lat="47.58136" lon="6.79204">
        <ele>363</ele>
        <time>2016-08-15T09:01:33.000Z</time>
      </trkpt>
      <trkpt lat="47.58133" lon="6.79204">
        <ele>363</ele>
        <time>2016-08-15T09:01:34.000Z</time>
      </trkpt>
      <trkpt lat="47.5813" lon="6.79203">
        <ele>363</ele>
        <time>2016-08-15T09:01:35.000Z</time>
      </trkpt>
      <trkpt lat="47.58127" lon="6.79203">
        <ele>364</ele>
        <time>2016-08-15T09:01:36.000Z</time>
      </trkpt>
      <trkpt lat="47.58125" lon="6.79203">
        <ele>364</ele>
        <time>2016-08-15T09:01:37.000Z</time>
      </trkpt>
      <trkpt lat="47.58122" lon="6.79202">
        <ele>364</ele>
        <time>2016-08-15T09:01:38.000Z</time>
      </trkpt>
      <trkpt lat="47.5812" lon="6.79201">
        <ele>364</ele>
        <time>2016-08-15T09:01:39.000Z</time>
      </trkpt>
      <trkpt lat="47.58116" lon="6.792">
        <ele>364</ele>
        <time>2016-08-15T09:01:41.000Z</time>
      </trkpt>
      <trkpt lat="47.58115" lon="6.79199">
        <ele>364</ele>
        <time>2016-08-15T09:01:42.000Z</time>
      </trkpt>
      <trkpt lat="47.58113" lon="6.79195">
        <ele>364</ele>
        <time>2016-08-15T09:01:45.000Z</time>
      </trkpt>
      <trkpt lat="47.58111" lon="6.79192">
        <ele>364</ele>
        <time>2016-08-15T09:01:46.000Z</time>
      </trkpt>
      <trkpt lat="47.58111" lon="6.79189">
        <ele>364</ele>
        <time>2016-08-15T09:01:47.000Z</time>
      </trkpt>
      <trkpt lat="47.58109" lon="6.79186">
        <ele>364</ele>
        <time>2016-08-15T09:01:48.000Z</time>
      </trkpt>
      <trkpt lat="47.58107" lon="6.79184">
        <ele>364</ele>
        <time>2016-08-15T09:01:49.000Z</time>
      </trkpt>
      <trkpt lat="47.58104" lon="6.79182">
        <ele>364</ele>
        <time>2016-08-15T09:01:50.000Z</time>
      </trkpt>
      <trkpt lat="47.58101" lon="6.7918">
        <ele>365</ele>
        <time>2016-08-15T09:01:51.000Z</time>
      </trkpt>
      <trkpt lat="47.58098" lon="6.7918">
        <ele>365</ele>
        <time>2016-08-15T09:01:52.000Z</time>
      </trkpt>
      <trkpt lat="47.58096" lon="6.7918">
        <ele>365</ele>
        <time>2016-08-15T09:01:53.000Z</time>
      </trkpt>
      <trkpt lat="47.58093" lon="6.7918">
        <ele>365</ele>
        <time>2016-08-15T09:01:54.000Z</time>
      </trkpt>
      <trkpt lat="47.58091" lon="6.79181">
        <ele>365</ele>
        <time>2016-08-15T09:01:55.000Z</time>
      </trkpt>
      <trkpt lat="47.58088" lon="6.79181">
        <ele>365</ele>
        <time>2016-08-15T09:01:56.000Z</time>
      </trkpt>
      <trkpt lat="47.58084" lon="6.7918">
        <ele>365</ele>
        <time>2016-08-15T09:01:58.000Z</time>
      </trkpt>
      <trkpt lat="47.58083" lon="6.7918">
        <ele>370</ele>
        <time>2016-08-15T09:01:59.000Z</time>
      </trkpt>
      <trkpt lat="47.58081" lon="6.79178">
        <ele>369</ele>
        <time>2016-08-15T09:02:01.000Z</time>
      </trkpt>
      <trkpt lat="47.58079" lon="6.79177">
        <ele>369</ele>
        <time>2016-08-15T09:02:02.000Z</time>
      </trkpt>
      <trkpt lat="47.58075" lon="6.79175">
        <ele>369</ele>
        <time>2016-08-15T09:02:04.000Z</time>
      </trkpt>
      <trkpt lat="47.58073" lon="6.79174">
        <ele>370</ele>
        <time>2016-08-15T09:02:05.000Z</time>
      </trkpt>
      <trkpt lat="47.58071" lon="6.79172">
        <ele>370</ele>
        <time>2016-08-15T09:02:07.000Z</time>
      </trkpt>
      <trkpt lat="47.58069" lon="6.79171">
        <ele>370</ele>
        <time>2016-08-15T09:02:08.000Z</time>
      </trkpt>
      <trkpt lat="47.58066" lon="6.79167">
        <ele>371</ele>
        <time>2016-08-15T09:02:10.000Z</time>
      </trkpt>
      <trkpt lat="47.58065" lon="6.79166">
        <ele>369</ele>
        <time>2016-08-15T09:02:11.000Z</time>
      </trkpt>
      <trkpt lat="47.58062" lon="6.79161">
        <ele>370</ele>
        <time>2016-08-15T09:02:14.000Z</time>
      </trkpt>
      <trkpt lat="47.58061" lon="6.79159">
        <ele>370</ele>
        <time>2016-08-15T09:02:15.000Z</time>
      </trkpt>
      <trkpt lat="47.58059" lon="6.79154">
        <ele>370</ele>
        <time>2016-08-15T09:02:17.000Z</time>
      </trkpt>
      <trkpt lat="47.58058" lon="6.79152">
        <ele>371</ele>
        <time>2016-08-15T09:02:18.000Z</time>
      </trkpt>
      <trkpt lat="47.58056" lon="6.79148">
        <ele>371</ele>
        <time>2016-08-15T09:02:20.000Z</time>
      </trkpt>
      <trkpt lat="47.58054" lon="6.79146">
        <ele>371</ele>
        <time>2016-08-15T09:02:21.000Z</time>
      </trkpt>
      <trkpt lat="47.58052" lon="6.79142">
        <ele>371</ele>
        <time>2016-08-15T09:02:23.000Z</time>
      </trkpt>
      <trkpt lat="47.58051" lon="6.7914">
        <ele>371</ele>
        <time>2016-08-15T09:02:24.000Z</time>
      </trkpt>
      <trkpt lat="47.58047" lon="6.79137">
        <ele>372</ele>
        <time>2016-08-15T09:02:26.000Z</time>
      </trkpt>
      <trkpt lat="47.58046" lon="6.79136">
        <ele>372</ele>
        <time>2016-08-15T09:02:27.000Z</time>
      </trkpt>
      <trkpt lat="47.58044" lon="6.79138">
        <ele>372</ele>
        <time>2016-08-15T09:02:34.000Z</time>
      </trkpt>
      <trkpt lat="47.58042" lon="6.79139">
        <ele>372</ele>
        <time>2016-08-15T09:02:35.000Z</time>
      </trkpt>
      <trkpt lat="47.58037" lon="6.7914">
        <ele>373</ele>
        <time>2016-08-15T09:02:37.000Z</time>
      </trkpt>
      <trkpt lat="47.58035" lon="6.7914">
        <ele>373</ele>
        <time>2016-08-15T09:02:38.000Z</time>
      </trkpt>
      <trkpt lat="47.58031" lon="6.7914">
        <ele>373</ele>
        <time>2016-08-15T09:02:40.000Z</time>
      </trkpt>
      <trkpt lat="47.58029" lon="6.7914">
        <ele>374</ele>
        <time>2016-08-15T09:02:41.000Z</time>
      </trkpt>
      <trkpt lat="47.58025" lon="6.79138">
        <ele>374</ele>
        <time>2016-08-15T09:02:44.000Z</time>
      </trkpt>
      <trkpt lat="47.58024" lon="6.79138">
        <ele>374</ele>
        <time>2016-08-15T09:02:45.000Z</time>
      </trkpt>
      <trkpt lat="47.5802" lon="6.79141">
        <ele>375</ele>
        <time>2016-08-15T09:02:48.000Z</time>
      </trkpt>
      <trkpt lat="47.58019" lon="6.79142">
        <ele>375</ele>
        <time>2016-08-15T09:02:49.000Z</time>
      </trkpt>
      <trkpt lat="47.58015" lon="6.79143">
        <ele>375</ele>
        <time>2016-08-15T09:02:51.000Z</time>
      </trkpt>
      <trkpt lat="47.58013" lon="6.79143">
        <ele>375</ele>
        <time>2016-08-15T09:02:52.000Z</time>
      </trkpt>
      <trkpt lat="47.5801" lon="6.79143">
        <ele>376</ele>
        <time>2016-08-15T09:02:54.000Z</time>
      </trkpt>
      <trkpt lat="47.58008" lon="6.79142">
        <ele>376</ele>
        <time>2016-08-15T09:02:55.000Z</time>
      </trkpt>
      <trkpt lat="47.58003" lon="6.79141">
        <ele>376</ele>
        <time>2016-08-15T09:02:57.000Z</time>
      </trkpt>
      <trkpt lat="47.58002" lon="6.7914">
        <ele>376</ele>
        <time>2016-08-15T09:02:58.000Z</time>
      </trkpt>
      <trkpt lat="47.57999" lon="6.79137">
        <ele>385</ele>
        <time>2016-08-15T09:03:00.000Z</time>
      </trkpt>
      <trkpt lat="47.57998" lon="6.79135">
        <ele>385</ele>
        <time>2016-08-15T09:03:01.000Z</time>
      </trkpt>
      <trkpt lat="47.57996" lon="6.79132">
        <ele>385</ele>
        <time>2016-08-15T09:03:02.000Z</time>
      </trkpt>
      <trkpt lat="47.57995" lon="6.79129">
        <ele>385</ele>
        <time>2016-08-15T09:03:03.000Z</time>
      </trkpt>
      <trkpt lat="47.57992" lon="6.79124">
        <ele>386</ele>
        <time>2016-08-15T09:03:05.000Z</time>
      </trkpt>
      <trkpt lat="47.57991" lon="6.79123">
        <ele>386</ele>
        <time>2016-08-15T09:03:06.000Z</time>
      </trkpt>
      <trkpt lat="47.57989" lon="6.79118">
        <ele>386</ele>
        <time>2016-08-15T09:03:08.000Z</time>
      </trkpt>
      <trkpt lat="47.57988" lon="6.79116">
        <ele>386</ele>
        <time>2016-08-15T09:03:09.000Z</time>
      </trkpt>
      <trkpt lat="47.57985" lon="6.79113">
        <ele>386</ele>
        <time>2016-08-15T09:03:12.000Z</time>
      </trkpt>
      <trkpt lat="47.57984" lon="6.79112">
        <ele>386</ele>
        <time>2016-08-15T09:03:13.000Z</time>
      </trkpt>
      <trkpt lat="47.57981" lon="6.79109">
        <ele>386</ele>
        <time>2016-08-15T09:03:15.000Z</time>
      </trkpt>
      <trkpt lat="47.5798" lon="6.79108">
        <ele>386</ele>
        <time>2016-08-15T09:03:16.000Z</time>
      </trkpt>
      <trkpt lat="47.57976" lon="6.79105">
        <ele>386</ele>
        <time>2016-08-15T09:03:18.000Z</time>
      </trkpt>
      <trkpt lat="47.57975" lon="6.79103">
        <ele>387</ele>
        <time>2016-08-15T09:03:19.000Z</time>
      </trkpt>
      <trkpt lat="47.57972" lon="6.791">
        <ele>387</ele>
        <time>2016-08-15T09:03:22.000Z</time>
      </trkpt>
      <trkpt lat="47.57971" lon="6.79099">
        <ele>387</ele>
        <time>2016-08-15T09:03:23.000Z</time>
      </trkpt>
      <trkpt lat="47.57966" lon="6.79098">
        <ele>388</ele>
        <time>2016-08-15T09:03:26.000Z</time>
      </trkpt>
      <trkpt lat="47.57965" lon="6.79098">
        <ele>388</ele>
        <time>2016-08-15T09:03:27.000Z</time>
      </trkpt>
      <trkpt lat="47.57961" lon="6.79097">
        <ele>388</ele>
        <time>2016-08-15T09:03:30.000Z</time>
      </trkpt>
      <trkpt lat="47.57959" lon="6.79096">
        <ele>389</ele>
        <time>2016-08-15T09:03:31.000Z</time>
      </trkpt>
      <trkpt lat="47.57955" lon="6.79097">
        <ele>389</ele>
        <time>2016-08-15T09:03:34.000Z</time>
      </trkpt>
      <trkpt lat="47.57953" lon="6.79097">
        <ele>389</ele>
        <time>2016-08-15T09:03:35.000Z</time>
      </trkpt>
      <trkpt lat="47.57949" lon="6.79098">
        <ele>390</ele>
        <time>2016-08-15T09:03:37.000Z</time>
      </trkpt>
      <trkpt lat="47.57946" lon="6.79098">
        <ele>390</ele>
        <time>2016-08-15T09:03:38.000Z</time>
      </trkpt>
      <trkpt lat="47.57942" lon="6.79099">
        <ele>391</ele>
        <time>2016-08-15T09:03:40.000Z</time>
      </trkpt>
      <trkpt lat="47.5794" lon="6.79099">
        <ele>391</ele>
        <time>2016-08-15T09:03:41.000Z</time>
      </trkpt>
      <trkpt lat="47.57937" lon="6.79099">
        <ele>391</ele>
        <time>2016-08-15T09:03:43.000Z</time>
      </trkpt>
      <trkpt lat="47.57936" lon="6.791">
        <ele>392</ele>
        <time>2016-08-15T09:03:44.000Z</time>
      </trkpt>
      <trkpt lat="47.57932" lon="6.79101">
        <ele>392</ele>
        <time>2016-08-15T09:03:46.000Z</time>
      </trkpt>
      <trkpt lat="47.57931" lon="6.79102">
        <ele>392</ele>
        <time>2016-08-15T09:03:47.000Z</time>
      </trkpt>
      <trkpt lat="47.57927" lon="6.79103">
        <ele>392</ele>
        <time>2016-08-15T09:03:49.000Z</time>
      </trkpt>
      <trkpt lat="47.57925" lon="6.79103">
        <ele>393</ele>
        <time>2016-08-15T09:03:50.000Z</time>
      </trkpt>
      <trkpt lat="47.57921" lon="6.79102">
        <ele>393</ele>
        <time>2016-08-15T09:03:53.000Z</time>
      </trkpt>
      <trkpt lat="47.5792" lon="6.79102">
        <ele>393</ele>
        <time>2016-08-15T09:03:54.000Z</time>
      </trkpt>
      <trkpt lat="47.57916" lon="6.79102">
        <ele>396</ele>
        <time>2016-08-15T09:03:56.000Z</time>
      </trkpt>
      <trkpt lat="47.57915" lon="6.79101">
        <ele>396</ele>
        <time>2016-08-15T09:03:57.000Z</time>
      </trkpt>
      <trkpt lat="47.57911" lon="6.791">
        <ele>396</ele>
        <time>2016-08-15T09:03:59.000Z</time>
      </trkpt>
      <trkpt lat="47.57909" lon="6.79099">
        <ele>396</ele>
        <time>2016-08-15T09:04:00.000Z</time>
      </trkpt>
      <trkpt lat="47.57904" lon="6.79098">
        <ele>396</ele>
        <time>2016-08-15T09:04:02.000Z</time>
      </trkpt>
      <trkpt lat="47.57902" lon="6.79098">
        <ele>396</ele>
        <time>2016-08-15T09:04:03.000Z</time>
      </trkpt>
      <trkpt lat="47.57898" lon="6.79099">
        <ele>395</ele>
        <time>2016-08-15T09:04:05.000Z</time>
      </trkpt>
      <trkpt lat="47.57896" lon="6.791">
        <ele>395</ele>
        <time>2016-08-15T09:04:06.000Z</time>
      </trkpt>
      <trkpt lat="47.57893" lon="6.791">
        <ele>395</ele>
        <time>2016-08-15T09:04:08.000Z</time>
      </trkpt>
      <trkpt lat="47.57891" lon="6.791">
        <ele>395</ele>
        <time>2016-08-15T09:04:09.000Z</time>
      </trkpt>
      <trkpt lat="47.57888" lon="6.79099">
        <ele>395</ele>
        <time>2016-08-15T09:04:15.000Z</time>
      </trkpt>
      <trkpt lat="47.57886" lon="6.791">
        <ele>395</ele>
        <time>2016-08-15T09:04:16.000Z</time>
      </trkpt>
      <trkpt lat="47.57884" lon="6.791">
        <ele>395</ele>
        <time>2016-08-15T09:04:18.000Z</time>
      </trkpt>
      <trkpt lat="47.57882" lon="6.79101">
        <ele>394</ele>
        <time>2016-08-15T09:04:19.000Z</time>
      </trkpt>
      <trkpt lat="47.57878" lon="6.79102">
        <ele>394</ele>
        <time>2016-08-15T09:04:21.000Z</time>
      </trkpt>
      <trkpt lat="47.57876" lon="6.79103">
        <ele>394</ele>
        <time>2016-08-15T09:04:22.000Z</time>
      </trkpt>
      <trkpt lat="47.57873" lon="6.79104">
        <ele>394</ele>
        <time>2016-08-15T09:04:23.000Z</time>
      </trkpt>
      <trkpt lat="47.57871" lon="6.79105">
        <ele>394</ele>
        <time>2016-08-15T09:04:24.000Z</time>
      </trkpt>
      <trkpt lat="47.57868" lon="6.79105">
        <ele>394</ele>
        <time>2016-08-15T09:04:25.000Z</time>
      </trkpt>
      <trkpt lat="47.57865" lon="6.79105">
        <ele>394</ele>
        <time>2016-08-15T09:04:26.000Z</time>
      </trkpt>
      <trkpt lat="47.57861" lon="6.79106">
        <ele>394</ele>
        <time>2016-08-15T09:04:28.000Z</time>
      </trkpt>
      <trkpt lat="47.5786" lon="6.79107">
        <ele>394</ele>
        <time>2016-08-15T09:04:29.000Z</time>
      </trkpt>
      <trkpt lat="47.57856" lon="6.79107">
        <ele>393</ele>
        <time>2016-08-15T09:04:33.000Z</time>
      </trkpt>
      <trkpt lat="47.57855" lon="6.79108">
        <ele>393</ele>
        <time>2016-08-15T09:04:34.000Z</time>
      </trkpt>
      <trkpt lat="47.5785" lon="6.7911">
        <ele>393</ele>
        <time>2016-08-15T09:04:37.000Z</time>
      </trkpt>
      <trkpt lat="47.57849" lon="6.7911">
        <ele>393</ele>
        <time>2016-08-15T09:04:38.000Z</time>
      </trkpt>
      <trkpt lat="47.57847" lon="6.79115">
        <ele>393</ele>
        <time>2016-08-15T09:04:41.000Z</time>
      </trkpt>
      <trkpt lat="47.57847" lon="6.79117">
        <ele>393</ele>
        <time>2016-08-15T09:04:42.000Z</time>
      </trkpt>
      <trkpt lat="47.57843" lon="6.79117">
        <ele>393</ele>
        <time>2016-08-15T09:04:52.000Z</time>
      </trkpt>
      <trkpt lat="47.57841" lon="6.79117">
        <ele>393</ele>
        <time>2016-08-15T09:04:53.000Z</time>
      </trkpt>
      <trkpt lat="47.57838" lon="6.79117">
        <ele>393</ele>
        <time>2016-08-15T09:04:55.000Z</time>
      </trkpt>
      <trkpt lat="47.57836" lon="6.79118">
        <ele>393</ele>
        <time>2016-08-15T09:04:56.000Z</time>
      </trkpt>
      <trkpt lat="47.57834" lon="6.79124">
        <ele>393</ele>
        <time>2016-08-15T09:05:00.000Z</time>
      </trkpt>
      <trkpt lat="47.57834" lon="6.79126">
        <ele>393</ele>
        <time>2016-08-15T09:05:01.000Z</time>
      </trkpt>
      <trkpt lat="47.57834" lon="6.7913">
        <ele>393</ele>
        <time>2016-08-15T09:05:03.000Z</time>
      </trkpt>
      <trkpt lat="47.57833" lon="6.79132">
        <ele>391</ele>
        <time>2016-08-15T09:05:04.000Z</time>
      </trkpt>
      <trkpt lat="47.57832" lon="6.79136">
        <ele>391</ele>
        <time>2016-08-15T09:05:05.000Z</time>
      </trkpt>
      <trkpt lat="47.57832" lon="6.7914">
        <ele>392</ele>
        <time>2016-08-15T09:05:06.000Z</time>
      </trkpt>
      <trkpt lat="47.5783" lon="6.79143">
        <ele>392</ele>
        <time>2016-08-15T09:05:07.000Z</time>
      </trkpt>
      <trkpt lat="47.57829" lon="6.79146">
        <ele>392</ele>
        <time>2016-08-15T09:05:08.000Z</time>
      </trkpt>
      <trkpt lat="47.57828" lon="6.79149">
        <ele>392</ele>
        <time>2016-08-15T09:05:09.000Z</time>
      </trkpt>
      <trkpt lat="47.57827" lon="6.79152">
        <ele>392</ele>
        <time>2016-08-15T09:05:10.000Z</time>
      </trkpt>
      <trkpt lat="47.57825" lon="6.79156">
        <ele>392</ele>
        <time>2016-08-15T09:05:11.000Z</time>
      </trkpt>
      <trkpt lat="47.57824" lon="6.79159">
        <ele>392</ele>
        <time>2016-08-15T09:05:12.000Z</time>
      </trkpt>
      <trkpt lat="47.57823" lon="6.79163">
        <ele>392</ele>
        <time>2016-08-15T09:05:13.000Z</time>
      </trkpt>
      <trkpt lat="47.57822" lon="6.79167">
        <ele>393</ele>
        <time>2016-08-15T09:05:14.000Z</time>
      </trkpt>
      <trkpt lat="47.57821" lon="6.79172">
        <ele>393</ele>
        <time>2016-08-15T09:05:15.000Z</time>
      </trkpt>
      <trkpt lat="47.57821" lon="6.79177">
        <ele>393</ele>
        <time>2016-08-15T09:05:16.000Z</time>
      </trkpt>
      <trkpt lat="47.57821" lon="6.79182">
        <ele>393</ele>
        <time>2016-08-15T09:05:17.000Z</time>
      </trkpt>
      <trkpt lat="47.57821" lon="6.79187">
        <ele>393</ele>
        <time>2016-08-15T09:05:18.000Z</time>
      </trkpt>
      <trkpt lat="47.5782" lon="6.79191">
        <ele>393</ele>
        <time>2016-08-15T09:05:19.000Z</time>
      </trkpt>
      <trkpt lat="47.57819" lon="6.79195">
        <ele>394</ele>
        <time>2016-08-15T09:05:20.000Z</time>
      </trkpt>
      <trkpt lat="47.57818" lon="6.79199">
        <ele>394</ele>
        <time>2016-08-15T09:05:21.000Z</time>
      </trkpt>
      <trkpt lat="47.57817" lon="6.79202">
        <ele>394</ele>
        <time>2016-08-15T09:05:22.000Z</time>
      </trkpt>
      <trkpt lat="47.57815" lon="6.79205">
        <ele>394</ele>
        <time>2016-08-15T09:05:23.000Z</time>
      </trkpt>
      <trkpt lat="47.57813" lon="6.79208">
        <ele>394</ele>
        <time>2016-08-15T09:05:24.000Z</time>
      </trkpt>
      <trkpt lat="47.57811" lon="6.79211">
        <ele>394</ele>
        <time>2016-08-15T09:05:25.000Z</time>
      </trkpt>
      <trkpt lat="47.57809" lon="6.79214">
        <ele>394</ele>
        <time>2016-08-15T09:05:26.000Z</time>
      </trkpt>
      <trkpt lat="47.57806" lon="6.79216">
        <ele>394</ele>
        <time>2016-08-15T09:05:27.000Z</time>
      </trkpt>
      <trkpt lat="47.57803" lon="6.79218">
        <ele>394</ele>
        <time>2016-08-15T09:05:28.000Z</time>
      </trkpt>
      <trkpt lat="47.578" lon="6.79221">
        <ele>394</ele>
        <time>2016-08-15T09:05:29.000Z</time>
      </trkpt>
      <trkpt lat="47.57797" lon="6.79223">
        <ele>394</ele>
        <time>2016-08-15T09:05:30.000Z</time>
      </trkpt>
      <trkpt lat="47.57794" lon="6.79225">
        <ele>394</ele>
        <time>2016-08-15T09:05:31.000Z</time>
      </trkpt>
      <trkpt lat="47.57791" lon="6.79227">
        <ele>394</ele>
        <time>2016-08-15T09:05:32.000Z</time>
      </trkpt>
      <trkpt lat="47.57788" lon="6.7923">
        <ele>394</ele>
        <time>2016-08-15T09:05:33.000Z</time>
      </trkpt>
      <trkpt lat="47.57785" lon="6.79232">
        <ele>394</ele>
        <time>2016-08-15T09:05:34.000Z</time>
      </trkpt>
      <trkpt lat="47.57782" lon="6.79235">
        <ele>394</ele>
        <time>2016-08-15T09:05:35.000Z</time>
      </trkpt>
      <trkpt lat="47.57779" lon="6.79237">
        <ele>394</ele>
        <time>2016-08-15T09:05:36.000Z</time>
      </trkpt>
      <trkpt lat="47.57776" lon="6.7924">
        <ele>394</ele>
        <time>2016-08-15T09:05:37.000Z</time>
      </trkpt>
      <trkpt lat="47.57774" lon="6.79242">
        <ele>394</ele>
        <time>2016-08-15T09:05:38.000Z</time>
      </trkpt>
      <trkpt lat="47.57771" lon="6.79244">
        <ele>394</ele>
        <time>2016-08-15T09:05:39.000Z</time>
      </trkpt>
      <trkpt lat="47.57768" lon="6.79247">
        <ele>394</ele>
        <time>2016-08-15T09:05:40.000Z</time>
      </trkpt>
      <trkpt lat="47.57765" lon="6.79249">
        <ele>394</ele>
        <time>2016-08-15T09:05:41.000Z</time>
      </trkpt>
      <trkpt lat="47.57761" lon="6.79251">
        <ele>395</ele>
        <time>2016-08-15T09:05:42.000Z</time>
      </trkpt>
      <trkpt lat="47.57758" lon="6.79254">
        <ele>395</ele>
        <time>2016-08-15T09:05:43.000Z</time>
      </trkpt>
      <trkpt lat="47.57755" lon="6.79256">
        <ele>395</ele>
        <time>2016-08-15T09:05:44.000Z</time>
      </trkpt>
      <trkpt lat="47.57752" lon="6.79258">
        <ele>395</ele>
        <time>2016-08-15T09:05:45.000Z</time>
      </trkpt>
      <trkpt lat="47.57749" lon="6.7926">
        <ele>394</ele>
        <time>2016-08-15T09:05:46.000Z</time>
      </trkpt>
      <trkpt lat="47.57746" lon="6.79262">
        <ele>395</ele>
        <time>2016-08-15T09:05:47.000Z</time>
      </trkpt>
      <trkpt lat="47.57743" lon="6.79264">
        <ele>395</ele>
        <time>2016-08-15T09:05:48.000Z</time>
      </trkpt>
      <trkpt lat="47.57739" lon="6.79266">
        <ele>395</ele>
        <time>2016-08-15T09:05:49.000Z</time>
      </trkpt>
      <trkpt lat="47.57736" lon="6.79269">
        <ele>395</ele>
        <time>2016-08-15T09:05:50.000Z</time>
      </trkpt>
      <trkpt lat="47.57733" lon="6.79271">
        <ele>395</ele>
        <time>2016-08-15T09:05:51.000Z</time>
      </trkpt>
      <trkpt lat="47.5773" lon="6.79273">
        <ele>395</ele>
        <time>2016-08-15T09:05:52.000Z</time>
      </trkpt>
      <trkpt lat="47.57727" lon="6.79276">
        <ele>395</ele>
        <time>2016-08-15T09:05:53.000Z</time>
      </trkpt>
      <trkpt lat="47.57723" lon="6.79278">
        <ele>395</ele>
        <time>2016-08-15T09:05:54.000Z</time>
      </trkpt>
      <trkpt lat="47.5772" lon="6.7928">
        <ele>395</ele>
        <time>2016-08-15T09:05:55.000Z</time>
      </trkpt>
      <trkpt lat="47.57717" lon="6.79282">
        <ele>395</ele>
        <time>2016-08-15T09:05:56.000Z</time>
      </trkpt>
      <trkpt lat="47.57714" lon="6.79284">
        <ele>395</ele>
        <time>2016-08-15T09:05:57.000Z</time>
      </trkpt>
      <trkpt lat="47.57711" lon="6.79286">
        <ele>395</ele>
        <time>2016-08-15T09:05:58.000Z</time>
      </trkpt>
      <trkpt lat="47.57708" lon="6.79287">
        <ele>395</ele>
        <time>2016-08-15T09:05:59.000Z</time>
      </trkpt>
      <trkpt lat="47.57704" lon="6.79288">
        <ele>395</ele>
        <time>2016-08-15T09:06:00.000Z</time>
      </trkpt>
      <trkpt lat="47.57701" lon="6.7929">
        <ele>395</ele>
        <time>2016-08-15T09:06:01.000Z</time>
      </trkpt>
      <trkpt lat="47.57698" lon="6.79292">
        <ele>395</ele>
        <time>2016-08-15T09:06:02.000Z</time>
      </trkpt>
      <trkpt lat="47.57695" lon="6.79294">
        <ele>395</ele>
        <time>2016-08-15T09:06:03.000Z</time>
      </trkpt>
      <trkpt lat="47.57692" lon="6.79297">
        <ele>395</ele>
        <time>2016-08-15T09:06:04.000Z</time>
      </trkpt>
      <trkpt lat="47.57689" lon="6.79299">
        <ele>395</ele>
        <time>2016-08-15T09:06:05.000Z</time>
      </trkpt>
      <trkpt lat="47.57686" lon="6.79301">
        <ele>395</ele>
        <time>2016-08-15T09:06:06.000Z</time>
      </trkpt>
      <trkpt lat="47.57683" lon="6.79303">
        <ele>395</ele>
        <time>2016-08-15T09:06:07.000Z</time>
      </trkpt>
      <trkpt lat="47.5768" lon="6.79306">
        <ele>395</ele>
        <time>2016-08-15T09:06:08.000Z</time>
      </trkpt>
      <trkpt lat="47.57677" lon="6.79308">
        <ele>395</ele>
        <time>2016-08-15T09:06:09.000Z</time>
      </trkpt>
      <trkpt lat="47.57675" lon="6.79311">
        <ele>396</ele>
        <time>2016-08-15T09:06:10.000Z</time>
      </trkpt>
      <trkpt lat="47.57672" lon="6.79314">
        <ele>396</ele>
        <time>2016-08-15T09:06:11.000Z</time>
      </trkpt>
      <trkpt lat="47.57669" lon="6.79316">
        <ele>396</ele>
        <time>2016-08-15T09:06:12.000Z</time>
      </trkpt>
      <trkpt lat="47.57667" lon="6.79319">
        <ele>396</ele>
        <time>2016-08-15T09:06:13.000Z</time>
      </trkpt>
      <trkpt lat="47.57664" lon="6.79322">
        <ele>396</ele>
        <time>2016-08-15T09:06:14.000Z</time>
      </trkpt>
      <trkpt lat="47.57662" lon="6.79325">
        <ele>396</ele>
        <time>2016-08-15T09:06:15.000Z</time>
      </trkpt>
      <trkpt lat="47.5766" lon="6.79328">
        <ele>396</ele>
        <time>2016-08-15T09:06:16.000Z</time>
      </trkpt>
      <trkpt lat="47.57657" lon="6.79331">
        <ele>396</ele>
        <time>2016-08-15T09:06:17.000Z</time>
      </trkpt>
      <trkpt lat="47.57655" lon="6.79334">
        <ele>396</ele>
        <time>2016-08-15T09:06:18.000Z</time>
      </trkpt>
      <trkpt lat="47.57653" lon="6.79338">
        <ele>396</ele>
        <time>2016-08-15T09:06:19.000Z</time>
      </trkpt>
      <trkpt lat="47.57651" lon="6.79342">
        <ele>396</ele>
        <time>2016-08-15T09:06:20.000Z</time>
      </trkpt>
      <trkpt lat="47.57649" lon="6.79347">
        <ele>396</ele>
        <time>2016-08-15T09:06:21.000Z</time>
      </trkpt>
      <trkpt lat="47.57647" lon="6.79351">
        <ele>396</ele>
        <time>2016-08-15T09:06:22.000Z</time>
      </trkpt>
      <trkpt lat="47.57645" lon="6.79356">
        <ele>396</ele>
        <time>2016-08-15T09:06:23.000Z</time>
      </trkpt>
      <trkpt lat="47.57643" lon="6.7936">
        <ele>396</ele>
        <time>2016-08-15T09:06:24.000Z</time>
      </trkpt>
      <trkpt lat="47.57642" lon="6.79365">
        <ele>396</ele>
        <time>2016-08-15T09:06:25.000Z</time>
      </trkpt>
      <trkpt lat="47.5764" lon="6.7937">
        <ele>396</ele>
        <time>2016-08-15T09:06:26.000Z</time>
      </trkpt>
      <trkpt lat="47.57638" lon="6.79374">
        <ele>396</ele>
        <time>2016-08-15T09:06:27.000Z</time>
      </trkpt>
      <trkpt lat="47.57636" lon="6.79379">
        <ele>396</ele>
        <time>2016-08-15T09:06:28.000Z</time>
      </trkpt>
      <trkpt lat="47.57634" lon="6.79383">
        <ele>396</ele>
        <time>2016-08-15T09:06:29.000Z</time>
      </trkpt>
      <trkpt lat="47.57632" lon="6.79388">
        <ele>397</ele>
        <time>2016-08-15T09:06:30.000Z</time>
      </trkpt>
      <trkpt lat="47.57631" lon="6.79392">
        <ele>397</ele>
        <time>2016-08-15T09:06:31.000Z</time>
      </trkpt>
      <trkpt lat="47.57629" lon="6.79397">
        <ele>397</ele>
        <time>2016-08-15T09:06:32.000Z</time>
      </trkpt>
      <trkpt lat="47.57628" lon="6.79401">
        <ele>397</ele>
        <time>2016-08-15T09:06:33.000Z</time>
      </trkpt>
      <trkpt lat="47.57627" lon="6.79404">
        <ele>397</ele>
        <time>2016-08-15T09:06:34.000Z</time>
      </trkpt>
      <trkpt lat="47.5763" lon="6.79407">
        <ele>397</ele>
        <time>2016-08-15T09:12:14.000Z</time>
      </trkpt>
      <trkpt lat="47.57631" lon="6.79408">
        <ele>397</ele>
        <time>2016-08-15T09:12:15.000Z</time>
      </trkpt>
      <trkpt lat="47.57631" lon="6.79414">
        <ele>397</ele>
        <time>2016-08-15T09:12:21.000Z</time>
      </trkpt>
      <trkpt lat="47.5763" lon="6.79416">
        <ele>397</ele>
        <time>2016-08-15T09:12:22.000Z</time>
      </trkpt>
      <trkpt lat="47.57629" lon="6.79419">
        <ele>398</ele>
        <time>2016-08-15T09:12:23.000Z</time>
      </trkpt>
      <trkpt lat="47.57628" lon="6.79423">
        <ele>398</ele>
        <time>2016-08-15T09:12:24.000Z</time>
      </trkpt>
      <trkpt lat="47.57627" lon="6.79426">
        <ele>398</ele>
        <time>2016-08-15T09:12:25.000Z</time>
      </trkpt>
      <trkpt lat="47.57626" lon="6.79429">
        <ele>398</ele>
        <time>2016-08-15T09:12:26.000Z</time>
      </trkpt>
      <trkpt lat="47.57624" lon="6.79433">
        <ele>398</ele>
        <time>2016-08-15T09:12:27.000Z</time>
      </trkpt>
      <trkpt lat="47.57623" lon="6.79437">
        <ele>398</ele>
        <time>2016-08-15T09:12:28.000Z</time>
      </trkpt>
      <trkpt lat="47.57622" lon="6.79441">
        <ele>398</ele>
        <time>2016-08-15T09:12:29.000Z</time>
      </trkpt>
      <trkpt lat="47.57621" lon="6.79445">
        <ele>398</ele>
        <time>2016-08-15T09:12:30.000Z</time>
      </trkpt>
      <trkpt lat="47.5762" lon="6.79449">
        <ele>398</ele>
        <time>2016-08-15T09:12:31.000Z</time>
      </trkpt>
      <trkpt lat="47.57619" lon="6.79453">
        <ele>398</ele>
        <time>2016-08-15T09:12:32.000Z</time>
      </trkpt>
      <trkpt lat="47.57618" lon="6.79457">
        <ele>398</ele>
        <time>2016-08-15T09:12:33.000Z</time>
      </trkpt>
      <trkpt lat="47.57616" lon="6.79462">
        <ele>398</ele>
        <time>2016-08-15T09:12:34.000Z</time>
      </trkpt>
      <trkpt lat="47.57615" lon="6.79467">
        <ele>398</ele>
        <time>2016-08-15T09:12:35.000Z</time>
      </trkpt>
      <trkpt lat="47.57614" lon="6.79472">
        <ele>398</ele>
        <time>2016-08-15T09:12:36.000Z</time>
      </trkpt>
      <trkpt lat="47.57613" lon="6.79477">
        <ele>398</ele>
        <time>2016-08-15T09:12:37.000Z</time>
      </trkpt>
      <trkpt lat="47.57612" lon="6.79482">
        <ele>398</ele>
        <time>2016-08-15T09:12:38.000Z</time>
      </trkpt>
      <trkpt lat="47.5761" lon="6.79486">
        <ele>398</ele>
        <time>2016-08-15T09:12:39.000Z</time>
      </trkpt>
      <trkpt lat="47.57609" lon="6.79491">
        <ele>398</ele>
        <time>2016-08-15T09:12:40.000Z</time>
      </trkpt>
      <trkpt lat="47.57607" lon="6.79496">
        <ele>398</ele>
        <time>2016-08-15T09:12:41.000Z</time>
      </trkpt>
      <trkpt lat="47.57605" lon="6.795">
        <ele>400</ele>
        <time>2016-08-15T09:12:42.000Z</time>
      </trkpt>
      <trkpt lat="47.57603" lon="6.79505">
        <ele>399</ele>
        <time>2016-08-15T09:12:43.000Z</time>
      </trkpt>
      <trkpt lat="47.57601" lon="6.7951">
        <ele>399</ele>
        <time>2016-08-15T09:12:44.000Z</time>
      </trkpt>
      <trkpt lat="47.57599" lon="6.79514">
        <ele>400</ele>
        <time>2016-08-15T09:12:45.000Z</time>
      </trkpt>
      <trkpt lat="47.57597" lon="6.79519">
        <ele>400</ele>
        <time>2016-08-15T09:12:46.000Z</time>
      </trkpt>
      <trkpt lat="47.57595" lon="6.79524">
        <ele>400</ele>
        <time>2016-08-15T09:12:47.000Z</time>
      </trkpt>
      <trkpt lat="47.57594" lon="6.79529">
        <ele>400</ele>
        <time>2016-08-15T09:12:48.000Z</time>
      </trkpt>
      <trkpt lat="47.57592" lon="6.79534">
        <ele>400</ele>
        <time>2016-08-15T09:12:49.000Z</time>
      </trkpt>
      <trkpt lat="47.5759" lon="6.79539">
        <ele>400</ele>
        <time>2016-08-15T09:12:50.000Z</time>
      </trkpt>
      <trkpt lat="47.57589" lon="6.79543">
        <ele>400</ele>
        <time>2016-08-15T09:12:51.000Z</time>
      </trkpt>
      <trkpt lat="47.57587" lon="6.79547">
        <ele>400</ele>
        <time>2016-08-15T09:12:52.000Z</time>
      </trkpt>
      <trkpt lat="47.57586" lon="6.79551">
        <ele>400</ele>
        <time>2016-08-15T09:12:53.000Z</time>
      </trkpt>
      <trkpt lat="47.57584" lon="6.79556">
        <ele>400</ele>
        <time>2016-08-15T09:12:54.000Z</time>
      </trkpt>
      <trkpt lat="47.57583" lon="6.79561">
        <ele>400</ele>
        <time>2016-08-15T09:12:55.000Z</time>
      </trkpt>
      <trkpt lat="47.57581" lon="6.79566">
        <ele>400</ele>
        <time>2016-08-15T09:12:56.000Z</time>
      </trkpt>
      <trkpt lat="47.5758" lon="6.79571">
        <ele>400</ele>
        <time>2016-08-15T09:12:57.000Z</time>
      </trkpt>
      <trkpt lat="47.57579" lon="6.79576">
        <ele>400</ele>
        <time>2016-08-15T09:12:58.000Z</time>
      </trkpt>
      <trkpt lat="47.57578" lon="6.79582">
        <ele>400</ele>
        <time>2016-08-15T09:12:59.000Z</time>
      </trkpt>
      <trkpt lat="47.57576" lon="6.79587">
        <ele>401</ele>
        <time>2016-08-15T09:13:00.000Z</time>
      </trkpt>
      <trkpt lat="47.57575" lon="6.79592">
        <ele>401</ele>
        <time>2016-08-15T09:13:01.000Z</time>
      </trkpt>
      <trkpt lat="47.57574" lon="6.79598">
        <ele>401</ele>
        <time>2016-08-15T09:13:02.000Z</time>
      </trkpt>
      <trkpt lat="47.57574" lon="6.79604">
        <ele>401</ele>
        <time>2016-08-15T09:13:03.000Z</time>
      </trkpt>
      <trkpt lat="47.57573" lon="6.79609">
        <ele>402</ele>
        <time>2016-08-15T09:13:04.000Z</time>
      </trkpt>
      <trkpt lat="47.57572" lon="6.79614">
        <ele>402</ele>
        <time>2016-08-15T09:13:05.000Z</time>
      </trkpt>
      <trkpt lat="47.57571" lon="6.79619">
        <ele>402</ele>
        <time>2016-08-15T09:13:06.000Z</time>
      </trkpt>
      <trkpt lat="47.5757" lon="6.79624">
        <ele>402</ele>
        <time>2016-08-15T09:13:07.000Z</time>
      </trkpt>
      <trkpt lat="47.5757" lon="6.79628">
        <ele>402</ele>
        <time>2016-08-15T09:13:08.000Z</time>
      </trkpt>
      <trkpt lat="47.5757" lon="6.79633">
        <ele>402</ele>
        <time>2016-08-15T09:13:09.000Z</time>
      </trkpt>
      <trkpt lat="47.5757" lon="6.79638">
        <ele>402</ele>
        <time>2016-08-15T09:13:10.000Z</time>
      </trkpt>
      <trkpt lat="47.5757" lon="6.79644">
        <ele>403</ele>
        <time>2016-08-15T09:13:11.000Z</time>
      </trkpt>
      <trkpt lat="47.5757" lon="6.79649">
        <ele>403</ele>
        <time>2016-08-15T09:13:12.000Z</time>
      </trkpt>
      <trkpt lat="47.5757" lon="6.79654">
        <ele>403</ele>
        <time>2016-08-15T09:13:13.000Z</time>
      </trkpt>
      <trkpt lat="47.57571" lon="6.79659">
        <ele>403</ele>
        <time>2016-08-15T09:13:14.000Z</time>
      </trkpt>
      <trkpt lat="47.57572" lon="6.79665">
        <ele>403</ele>
        <time>2016-08-15T09:13:15.000Z</time>
      </trkpt>
      <trkpt lat="47.57572" lon="6.7967">
        <ele>404</ele>
        <time>2016-08-15T09:13:16.000Z</time>
      </trkpt>
      <trkpt lat="47.57573" lon="6.79676">
        <ele>405</ele>
        <time>2016-08-15T09:13:17.000Z</time>
      </trkpt>
      <trkpt lat="47.57573" lon="6.79681">
        <ele>405</ele>
        <time>2016-08-15T09:13:18.000Z</time>
      </trkpt>
      <trkpt lat="47.57573" lon="6.79686">
        <ele>405</ele>
        <time>2016-08-15T09:13:19.000Z</time>
      </trkpt>
      <trkpt lat="47.57573" lon="6.7969">
        <ele>405</ele>
        <time>2016-08-15T09:13:20.000Z</time>
      </trkpt>
      <trkpt lat="47.57572" lon="6.79694">
        <ele>406</ele>
        <time>2016-08-15T09:13:21.000Z</time>
      </trkpt>
      <trkpt lat="47.57572" lon="6.79698">
        <ele>406</ele>
        <time>2016-08-15T09:13:22.000Z</time>
      </trkpt>
      <trkpt lat="47.57572" lon="6.79703">
        <ele>406</ele>
        <time>2016-08-15T09:13:23.000Z</time>
      </trkpt>
      <trkpt lat="47.57571" lon="6.79708">
        <ele>406</ele>
        <time>2016-08-15T09:13:24.000Z</time>
      </trkpt>
      <trkpt lat="47.57571" lon="6.79712">
        <ele>407</ele>
        <time>2016-08-15T09:13:25.000Z</time>
      </trkpt>
      <trkpt lat="47.57571" lon="6.79719">
        <ele>407</ele>
        <time>2016-08-15T09:13:26.000Z</time>
      </trkpt>
      <trkpt lat="47.5757" lon="6.79723">
        <ele>407</ele>
        <time>2016-08-15T09:13:27.000Z</time>
      </trkpt>
      <trkpt lat="47.57569" lon="6.79727">
        <ele>407</ele>
        <time>2016-08-15T09:13:28.000Z</time>
      </trkpt>
      <trkpt lat="47.57569" lon="6.79731">
        <ele>408</ele>
        <time>2016-08-15T09:13:29.000Z</time>
      </trkpt>
      <trkpt lat="47.57568" lon="6.79736">
        <ele>408</ele>
        <time>2016-08-15T09:13:30.000Z</time>
      </trkpt>
      <trkpt lat="47.57567" lon="6.79739">
        <ele>408</ele>
        <time>2016-08-15T09:13:31.000Z</time>
      </trkpt>
      <trkpt lat="47.57566" lon="6.79743">
        <ele>408</ele>
        <time>2016-08-15T09:13:32.000Z</time>
      </trkpt>
      <trkpt lat="47.57564" lon="6.79747">
        <ele>408</ele>
        <time>2016-08-15T09:13:34.000Z</time>
      </trkpt>
      <trkpt lat="47.57563" lon="6.79749">
        <ele>408</ele>
        <time>2016-08-15T09:13:35.000Z</time>
      </trkpt>
      <trkpt lat="47.57561" lon="6.79753">
        <ele>410</ele>
        <time>2016-08-15T09:13:37.000Z</time>
      </trkpt>
      <trkpt lat="47.57559" lon="6.79755">
        <ele>410</ele>
        <time>2016-08-15T09:13:38.000Z</time>
      </trkpt>
      <trkpt lat="47.57558" lon="6.79759">
        <ele>410</ele>
        <time>2016-08-15T09:13:39.000Z</time>
      </trkpt>
      <trkpt lat="47.57557" lon="6.79762">
        <ele>410</ele>
        <time>2016-08-15T09:13:40.000Z</time>
      </trkpt>
      <trkpt lat="47.57556" lon="6.79766">
        <ele>410</ele>
        <time>2016-08-15T09:13:41.000Z</time>
      </trkpt>
      <trkpt lat="47.57554" lon="6.79771">
        <ele>410</ele>
        <time>2016-08-15T09:13:42.000Z</time>
      </trkpt>
      <trkpt lat="47.57553" lon="6.79776">
        <ele>410</ele>
        <time>2016-08-15T09:13:43.000Z</time>
      </trkpt>
      <trkpt lat="47.57551" lon="6.79781">
        <ele>410</ele>
        <time>2016-08-15T09:13:44.000Z</time>
      </trkpt>
      <trkpt lat="47.5755" lon="6.79786">
        <ele>410</ele>
        <time>2016-08-15T09:13:45.000Z</time>
      </trkpt>
      <trkpt lat="47.57549" lon="6.79791">
        <ele>410</ele>
        <time>2016-08-15T09:13:46.000Z</time>
      </trkpt>
      <trkpt lat="47.57547" lon="6.79796">
        <ele>410</ele>
        <time>2016-08-15T09:13:47.000Z</time>
      </trkpt>
      <trkpt lat="47.57545" lon="6.798">
        <ele>410</ele>
        <time>2016-08-15T09:13:48.000Z</time>
      </trkpt>
      <trkpt lat="47.57544" lon="6.79804">
        <ele>410</ele>
        <time>2016-08-15T09:13:49.000Z</time>
      </trkpt>
      <trkpt lat="47.57542" lon="6.79807">
        <ele>410</ele>
        <time>2016-08-15T09:13:50.000Z</time>
      </trkpt>
      <trkpt lat="47.57541" lon="6.79811">
        <ele>410</ele>
        <time>2016-08-15T09:13:51.000Z</time>
      </trkpt>
      <trkpt lat="47.57539" lon="6.79814">
        <ele>411</ele>
        <time>2016-08-15T09:13:52.000Z</time>
      </trkpt>
      <trkpt lat="47.57538" lon="6.79818">
        <ele>411</ele>
        <time>2016-08-15T09:13:53.000Z</time>
      </trkpt>
      <trkpt lat="47.57536" lon="6.79821">
        <ele>411</ele>
        <time>2016-08-15T09:13:54.000Z</time>
      </trkpt>
      <trkpt lat="47.57533" lon="6.79824">
        <ele>410</ele>
        <time>2016-08-15T09:13:55.000Z</time>
      </trkpt>
      <trkpt lat="47.57531" lon="6.79828">
        <ele>410</ele>
        <time>2016-08-15T09:13:56.000Z</time>
      </trkpt>
      <trkpt lat="47.57529" lon="6.79832">
        <ele>410</ele>
        <time>2016-08-15T09:13:57.000Z</time>
      </trkpt>
      <trkpt lat="47.57527" lon="6.79836">
        <ele>412</ele>
        <time>2016-08-15T09:13:58.000Z</time>
      </trkpt>
      <trkpt lat="47.57526" lon="6.7984">
        <ele>412</ele>
        <time>2016-08-15T09:13:59.000Z</time>
      </trkpt>
      <trkpt lat="47.57524" lon="6.79844">
        <ele>412</ele>
        <time>2016-08-15T09:14:00.000Z</time>
      </trkpt>
      <trkpt lat="47.57522" lon="6.79849">
        <ele>412</ele>
        <time>2016-08-15T09:14:01.000Z</time>
      </trkpt>
      <trkpt lat="47.5752" lon="6.79852">
        <ele>412</ele>
        <time>2016-08-15T09:14:02.000Z</time>
      </trkpt>
      <trkpt lat="47.57518" lon="6.79855">
        <ele>412</ele>
        <time>2016-08-15T09:14:03.000Z</time>
      </trkpt>
      <trkpt lat="47.57515" lon="6.79858">
        <ele>412</ele>
        <time>2016-08-15T09:14:04.000Z</time>
      </trkpt>
      <trkpt lat="47.57513" lon="6.7986">
        <ele>412</ele>
        <time>2016-08-15T09:14:05.000Z</time>
      </trkpt>
      <trkpt lat="47.57511" lon="6.79862">
        <ele>412</ele>
        <time>2016-08-15T09:14:06.000Z</time>
      </trkpt>
      <trkpt lat="47.57509" lon="6.79864">
        <ele>412</ele>
        <time>2016-08-15T09:14:07.000Z</time>
      </trkpt>
      <trkpt lat="47.57507" lon="6.79866">
        <ele>412</ele>
        <time>2016-08-15T09:14:08.000Z</time>
      </trkpt>
      <trkpt lat="47.57505" lon="6.79867">
        <ele>412</ele>
        <time>2016-08-15T09:14:09.000Z</time>
      </trkpt>
      <trkpt lat="47.57502" lon="6.79869">
        <ele>412</ele>
        <time>2016-08-15T09:14:10.000Z</time>
      </trkpt>
      <trkpt lat="47.575" lon="6.7987">
        <ele>413</ele>
        <time>2016-08-15T09:14:11.000Z</time>
      </trkpt>
      <trkpt lat="47.57497" lon="6.79871">
        <ele>413</ele>
        <time>2016-08-15T09:14:12.000Z</time>
      </trkpt>
      <trkpt lat="47.57495" lon="6.79873">
        <ele>413</ele>
        <time>2016-08-15T09:14:13.000Z</time>
      </trkpt>
      <trkpt lat="47.57492" lon="6.79874">
        <ele>413</ele>
        <time>2016-08-15T09:14:14.000Z</time>
      </trkpt>
      <trkpt lat="47.5749" lon="6.79876">
        <ele>413</ele>
        <time>2016-08-15T09:14:15.000Z</time>
      </trkpt>
      <trkpt lat="47.57488" lon="6.79877">
        <ele>413</ele>
        <time>2016-08-15T09:14:16.000Z</time>
      </trkpt>
      <trkpt lat="47.57485" lon="6.79881">
        <ele>413</ele>
        <time>2016-08-15T09:14:18.000Z</time>
      </trkpt>
      <trkpt lat="47.57483" lon="6.79883">
        <ele>413</ele>
        <time>2016-08-15T09:14:19.000Z</time>
      </trkpt>
      <trkpt lat="47.57481" lon="6.79886">
        <ele>414</ele>
        <time>2016-08-15T09:14:20.000Z</time>
      </trkpt>
      <trkpt lat="47.5748" lon="6.79889">
        <ele>414</ele>
        <time>2016-08-15T09:14:21.000Z</time>
      </trkpt>
      <trkpt lat="47.57478" lon="6.79892">
        <ele>414</ele>
        <time>2016-08-15T09:14:22.000Z</time>
      </trkpt>
      <trkpt lat="47.57476" lon="6.79894">
        <ele>414</ele>
        <time>2016-08-15T09:14:23.000Z</time>
      </trkpt>
      <trkpt lat="47.57475" lon="6.79897">
        <ele>414</ele>
        <time>2016-08-15T09:14:24.000Z</time>
      </trkpt>
      <trkpt lat="47.57474" lon="6.799">
        <ele>414</ele>
        <time>2016-08-15T09:14:25.000Z</time>
      </trkpt>
      <trkpt lat="47.57472" lon="6.79905">
        <ele>414</ele>
        <time>2016-08-15T09:14:27.000Z</time>
      </trkpt>
      <trkpt lat="47.57471" lon="6.79907">
        <ele>414</ele>
        <time>2016-08-15T09:14:28.000Z</time>
      </trkpt>
      <trkpt lat="47.57469" lon="6.79912">
        <ele>414</ele>
        <time>2016-08-15T09:14:30.000Z</time>
      </trkpt>
      <trkpt lat="47.57467" lon="6.79915">
        <ele>414</ele>
        <time>2016-08-15T09:14:31.000Z</time>
      </trkpt>
      <trkpt lat="47.57466" lon="6.79918">
        <ele>414</ele>
        <time>2016-08-15T09:14:32.000Z</time>
      </trkpt>
      <trkpt lat="47.57465" lon="6.79922">
        <ele>414</ele>
        <time>2016-08-15T09:14:33.000Z</time>
      </trkpt>
      <trkpt lat="47.57464" lon="6.79925">
        <ele>414</ele>
        <time>2016-08-15T09:14:34.000Z</time>
      </trkpt>
      <trkpt lat="47.57462" lon="6.79929">
        <ele>414</ele>
        <time>2016-08-15T09:14:35.000Z</time>
      </trkpt>
      <trkpt lat="47.57461" lon="6.79933">
        <ele>414</ele>
        <time>2016-08-15T09:14:36.000Z</time>
      </trkpt>
      <trkpt lat="47.5746" lon="6.79936">
        <ele>414</ele>
        <time>2016-08-15T09:14:37.000Z</time>
      </trkpt>
      <trkpt lat="47.57459" lon="6.7994">
        <ele>414</ele>
        <time>2016-08-15T09:14:38.000Z</time>
      </trkpt>
      <trkpt lat="47.57458" lon="6.79944">
        <ele>414</ele>
        <time>2016-08-15T09:14:39.000Z</time>
      </trkpt>
      <trkpt lat="47.57457" lon="6.79948">
        <ele>414</ele>
        <time>2016-08-15T09:14:40.000Z</time>
      </trkpt>
      <trkpt lat="47.57456" lon="6.79952">
        <ele>414</ele>
        <time>2016-08-15T09:14:41.000Z</time>
      </trkpt>
      <trkpt lat="47.57454" lon="6.79956">
        <ele>414</ele>
        <time>2016-08-15T09:14:42.000Z</time>
      </trkpt>
      <trkpt lat="47.57453" lon="6.7996">
        <ele>414</ele>
        <time>2016-08-15T09:14:43.000Z</time>
      </trkpt>
      <trkpt lat="47.57451" lon="6.79965">
        <ele>414</ele>
        <time>2016-08-15T09:14:44.000Z</time>
      </trkpt>
      <trkpt lat="47.5745" lon="6.7997">
        <ele>414</ele>
        <time>2016-08-15T09:14:45.000Z</time>
      </trkpt>
      <trkpt lat="47.57448" lon="6.79975">
        <ele>414</ele>
        <time>2016-08-15T09:14:46.000Z</time>
      </trkpt>
      <trkpt lat="47.57447" lon="6.7998">
        <ele>414</ele>
        <time>2016-08-15T09:14:47.000Z</time>
      </trkpt>
      <trkpt lat="47.57446" lon="6.79985">
        <ele>414</ele>
        <time>2016-08-15T09:14:48.000Z</time>
      </trkpt>
      <trkpt lat="47.57444" lon="6.7999">
        <ele>414</ele>
        <time>2016-08-15T09:14:49.000Z</time>
      </trkpt>
      <trkpt lat="47.57442" lon="6.79994">
        <ele>414</ele>
        <time>2016-08-15T09:14:50.000Z</time>
      </trkpt>
      <trkpt lat="47.57441" lon="6.79998">
        <ele>414</ele>
        <time>2016-08-15T09:14:51.000Z</time>
      </trkpt>
      <trkpt lat="47.57439" lon="6.80002">
        <ele>413</ele>
        <time>2016-08-15T09:14:52.000Z</time>
      </trkpt>
      <trkpt lat="47.57437" lon="6.80006">
        <ele>413</ele>
        <time>2016-08-15T09:14:53.000Z</time>
      </trkpt>
      <trkpt lat="47.57435" lon="6.80009">
        <ele>413</ele>
        <time>2016-08-15T09:14:54.000Z</time>
      </trkpt>
      <trkpt lat="47.57432" lon="6.80012">
        <ele>413</ele>
        <time>2016-08-15T09:14:55.000Z</time>
      </trkpt>
      <trkpt lat="47.5743" lon="6.80014">
        <ele>413</ele>
        <time>2016-08-15T09:14:56.000Z</time>
      </trkpt>
      <trkpt lat="47.57427" lon="6.80017">
        <ele>413</ele>
        <time>2016-08-15T09:14:57.000Z</time>
      </trkpt>
      <trkpt lat="47.57425" lon="6.80019">
        <ele>413</ele>
        <time>2016-08-15T09:14:58.000Z</time>
      </trkpt>
      <trkpt lat="47.57422" lon="6.80022">
        <ele>413</ele>
        <time>2016-08-15T09:14:59.000Z</time>
      </trkpt>
      <trkpt lat="47.57419" lon="6.80026">
        <ele>413</ele>
        <time>2016-08-15T09:15:00.000Z</time>
      </trkpt>
      <trkpt lat="47.57413" lon="6.8003">
        <ele>412</ele>
        <time>2016-08-15T09:15:01.000Z</time>
      </trkpt>
      <trkpt lat="47.5741" lon="6.80035">
        <ele>412</ele>
        <time>2016-08-15T09:15:02.000Z</time>
      </trkpt>
      <trkpt lat="47.57406" lon="6.80038">
        <ele>412</ele>
        <time>2016-08-15T09:15:03.000Z</time>
      </trkpt>
      <trkpt lat="47.57402" lon="6.80041">
        <ele>412</ele>
        <time>2016-08-15T09:15:04.000Z</time>
      </trkpt>
      <trkpt lat="47.57398" lon="6.80043">
        <ele>412</ele>
        <time>2016-08-15T09:15:05.000Z</time>
      </trkpt>
      <trkpt lat="47.57395" lon="6.80046">
        <ele>412</ele>
        <time>2016-08-15T09:15:06.000Z</time>
      </trkpt>
      <trkpt lat="47.57391" lon="6.80048">
        <ele>412</ele>
        <time>2016-08-15T09:15:07.000Z</time>
      </trkpt>
      <trkpt lat="47.57384" lon="6.80052">
        <ele>412</ele>
        <time>2016-08-15T09:15:08.000Z</time>
      </trkpt>
      <trkpt lat="47.57379" lon="6.80056">
        <ele>412</ele>
        <time>2016-08-15T09:15:09.000Z</time>
      </trkpt>
      <trkpt lat="47.57373" lon="6.8006">
        <ele>411</ele>
        <time>2016-08-15T09:15:10.000Z</time>
      </trkpt>
      <trkpt lat="47.57368" lon="6.80064">
        <ele>411</ele>
        <time>2016-08-15T09:15:11.000Z</time>
      </trkpt>
      <trkpt lat="47.57362" lon="6.80068">
        <ele>411</ele>
        <time>2016-08-15T09:15:12.000Z</time>
      </trkpt>
      <trkpt lat="47.57357" lon="6.80073">
        <ele>411</ele>
        <time>2016-08-15T09:15:13.000Z</time>
      </trkpt>
      <trkpt lat="47.57352" lon="6.80077">
        <ele>411</ele>
        <time>2016-08-15T09:15:14.000Z</time>
      </trkpt>
      <trkpt lat="47.57347" lon="6.80082">
        <ele>411</ele>
        <time>2016-08-15T09:15:15.000Z</time>
      </trkpt>
      <trkpt lat="47.57341" lon="6.80087">
        <ele>410</ele>
        <time>2016-08-15T09:15:16.000Z</time>
      </trkpt>
      <trkpt lat="47.57337" lon="6.80093">
        <ele>410</ele>
        <time>2016-08-15T09:15:17.000Z</time>
      </trkpt>
      <trkpt lat="47.57331" lon="6.801">
        <ele>409</ele>
        <time>2016-08-15T09:15:18.000Z</time>
      </trkpt>
      <trkpt lat="47.57327" lon="6.80107">
        <ele>409</ele>
        <time>2016-08-15T09:15:19.000Z</time>
      </trkpt>
      <trkpt lat="47.57322" lon="6.80112">
        <ele>409</ele>
        <time>2016-08-15T09:15:20.000Z</time>
      </trkpt>
      <trkpt lat="47.57318" lon="6.80119">
        <ele>408</ele>
        <time>2016-08-15T09:15:21.000Z</time>
      </trkpt>
      <trkpt lat="47.57313" lon="6.80125">
        <ele>408</ele>
        <time>2016-08-15T09:15:22.000Z</time>
      </trkpt>
      <trkpt lat="47.57309" lon="6.80132">
        <ele>408</ele>
        <time>2016-08-15T09:15:23.000Z</time>
      </trkpt>
      <trkpt lat="47.57304" lon="6.80138">
        <ele>408</ele>
        <time>2016-08-15T09:15:24.000Z</time>
      </trkpt>
      <trkpt lat="47.57299" lon="6.80145">
        <ele>408</ele>
        <time>2016-08-15T09:15:25.000Z</time>
      </trkpt>
      <trkpt lat="47.57293" lon="6.80151">
        <ele>408</ele>
        <time>2016-08-15T09:15:26.000Z</time>
      </trkpt>
      <trkpt lat="47.57288" lon="6.80155">
        <ele>408</ele>
        <time>2016-08-15T09:15:27.000Z</time>
      </trkpt>
      <trkpt lat="47.57282" lon="6.80158">
        <ele>408</ele>
        <time>2016-08-15T09:15:28.000Z</time>
      </trkpt>
      <trkpt lat="47.57276" lon="6.80162">
        <ele>407</ele>
        <time>2016-08-15T09:15:29.000Z</time>
      </trkpt>
      <trkpt lat="47.5727" lon="6.80166">
        <ele>407</ele>
        <time>2016-08-15T09:15:30.000Z</time>
      </trkpt>
      <trkpt lat="47.57263" lon="6.80168">
        <ele>406</ele>
        <time>2016-08-15T09:15:31.000Z</time>
      </trkpt>
      <trkpt lat="47.57257" lon="6.80164">
        <ele>407</ele>
        <time>2016-08-15T09:15:32.000Z</time>
      </trkpt>
      <trkpt lat="47.5725" lon="6.80166">
        <ele>407</ele>
        <time>2016-08-15T09:15:33.000Z</time>
      </trkpt>
      <trkpt lat="47.57244" lon="6.80166">
        <ele>407</ele>
        <time>2016-08-15T09:15:34.000Z</time>
      </trkpt>
      <trkpt lat="47.57237" lon="6.80169">
        <ele>406</ele>
        <time>2016-08-15T09:15:35.000Z</time>
      </trkpt>
      <trkpt lat="47.57231" lon="6.8017">
        <ele>406</ele>
        <time>2016-08-15T09:15:36.000Z</time>
      </trkpt>
      <trkpt lat="47.57224" lon="6.80172">
        <ele>406</ele>
        <time>2016-08-15T09:15:37.000Z</time>
      </trkpt>
      <trkpt lat="47.57217" lon="6.80174">
        <ele>406</ele>
        <time>2016-08-15T09:15:38.000Z</time>
      </trkpt>
      <trkpt lat="47.5721" lon="6.80177">
        <ele>406</ele>
        <time>2016-08-15T09:15:39.000Z</time>
      </trkpt>
      <trkpt lat="47.57204" lon="6.80179">
        <ele>406</ele>
        <time>2016-08-15T09:15:40.000Z</time>
      </trkpt>
      <trkpt lat="47.57198" lon="6.80183">
        <ele>406</ele>
        <time>2016-08-15T09:15:41.000Z</time>
      </trkpt>
      <trkpt lat="47.57191" lon="6.80187">
        <ele>406</ele>
        <time>2016-08-15T09:15:42.000Z</time>
      </trkpt>
      <trkpt lat="47.57185" lon="6.8019">
        <ele>406</ele>
        <time>2016-08-15T09:15:43.000Z</time>
      </trkpt>
      <trkpt lat="47.5718" lon="6.80196">
        <ele>406</ele>
        <time>2016-08-15T09:15:44.000Z</time>
      </trkpt>
      <trkpt lat="47.57175" lon="6.802">
        <ele>406</ele>
        <time>2016-08-15T09:15:45.000Z</time>
      </trkpt>
      <trkpt lat="47.57169" lon="6.80205">
        <ele>406</ele>
        <time>2016-08-15T09:15:46.000Z</time>
      </trkpt>
      <trkpt lat="47.57164" lon="6.80211">
        <ele>408</ele>
        <time>2016-08-15T09:15:47.000Z</time>
      </trkpt>
      <trkpt lat="47.57159" lon="6.80216">
        <ele>408</ele>
        <time>2016-08-15T09:15:48.000Z</time>
      </trkpt>
      <trkpt lat="47.57155" lon="6.80222">
        <ele>408</ele>
        <time>2016-08-15T09:15:49.000Z</time>
      </trkpt>
      <trkpt lat="47.5715" lon="6.80227">
        <ele>408</ele>
        <time>2016-08-15T09:15:50.000Z</time>
      </trkpt>
      <trkpt lat="47.57146" lon="6.80233">
        <ele>408</ele>
        <time>2016-08-15T09:15:51.000Z</time>
      </trkpt>
      <trkpt lat="47.57142" lon="6.80238">
        <ele>408</ele>
        <time>2016-08-15T09:15:52.000Z</time>
      </trkpt>
      <trkpt lat="47.57138" lon="6.80244">
        <ele>408</ele>
        <time>2016-08-15T09:15:53.000Z</time>
      </trkpt>
      <trkpt lat="47.57134" lon="6.80248">
        <ele>408</ele>
        <time>2016-08-15T09:15:54.000Z</time>
      </trkpt>
      <trkpt lat="47.5713" lon="6.80251">
        <ele>408</ele>
        <time>2016-08-15T09:15:55.000Z</time>
      </trkpt>
      <trkpt lat="47.57126" lon="6.80255">
        <ele>408</ele>
        <time>2016-08-15T09:15:56.000Z</time>
      </trkpt>
      <trkpt lat="47.57121" lon="6.80258">
        <ele>408</ele>
        <time>2016-08-15T09:15:57.000Z</time>
      </trkpt>
      <trkpt lat="47.57117" lon="6.80261">
        <ele>409</ele>
        <time>2016-08-15T09:15:58.000Z</time>
      </trkpt>
      <trkpt lat="47.57112" lon="6.80264">
        <ele>409</ele>
        <time>2016-08-15T09:15:59.000Z</time>
      </trkpt>
      <trkpt lat="47.57107" lon="6.80267">
        <ele>409</ele>
        <time>2016-08-15T09:16:00.000Z</time>
      </trkpt>
      <trkpt lat="47.57102" lon="6.80271">
        <ele>409</ele>
        <time>2016-08-15T09:16:01.000Z</time>
      </trkpt>
      <trkpt lat="47.57097" lon="6.80273">
        <ele>409</ele>
        <time>2016-08-15T09:16:02.000Z</time>
      </trkpt>
      <trkpt lat="47.57092" lon="6.80277">
        <ele>409</ele>
        <time>2016-08-15T09:16:03.000Z</time>
      </trkpt>
      <trkpt lat="47.57087" lon="6.80279">
        <ele>409</ele>
        <time>2016-08-15T09:16:04.000Z</time>
      </trkpt>
      <trkpt lat="47.57082" lon="6.80282">
        <ele>411</ele>
        <time>2016-08-15T09:16:05.000Z</time>
      </trkpt>
      <trkpt lat="47.57076" lon="6.80287">
        <ele>411</ele>
        <time>2016-08-15T09:16:06.000Z</time>
      </trkpt>
      <trkpt lat="47.57071" lon="6.8029">
        <ele>411</ele>
        <time>2016-08-15T09:16:07.000Z</time>
      </trkpt>
      <trkpt lat="47.57065" lon="6.80293">
        <ele>411</ele>
        <time>2016-08-15T09:16:08.000Z</time>
      </trkpt>
      <trkpt lat="47.57059" lon="6.80297">
        <ele>411</ele>
        <time>2016-08-15T09:16:09.000Z</time>
      </trkpt>
      <trkpt lat="47.57054" lon="6.80302">
        <ele>411</ele>
        <time>2016-08-15T09:16:10.000Z</time>
      </trkpt>
      <trkpt lat="47.57047" lon="6.80305">
        <ele>411</ele>
        <time>2016-08-15T09:16:11.000Z</time>
      </trkpt>
      <trkpt lat="47.57042" lon="6.80308">
        <ele>411</ele>
        <time>2016-08-15T09:16:12.000Z</time>
      </trkpt>
      <trkpt lat="47.57037" lon="6.80311">
        <ele>411</ele>
        <time>2016-08-15T09:16:13.000Z</time>
      </trkpt>
      <trkpt lat="47.57031" lon="6.80321">
        <ele>411</ele>
        <time>2016-08-15T09:16:14.000Z</time>
      </trkpt>
      <trkpt lat="47.57025" lon="6.80323">
        <ele>412</ele>
        <time>2016-08-15T09:16:15.000Z</time>
      </trkpt>
      <trkpt lat="47.57021" lon="6.80324">
        <ele>412</ele>
        <time>2016-08-15T09:16:16.000Z</time>
      </trkpt>
      <trkpt lat="47.57016" lon="6.80325">
        <ele>412</ele>
        <time>2016-08-15T09:16:17.000Z</time>
      </trkpt>
      <trkpt lat="47.57011" lon="6.80327">
        <ele>412</ele>
        <time>2016-08-15T09:16:18.000Z</time>
      </trkpt>
      <trkpt lat="47.57006" lon="6.80328">
        <ele>412</ele>
        <time>2016-08-15T09:16:19.000Z</time>
      </trkpt>
      <trkpt lat="47.57001" lon="6.80328">
        <ele>413</ele>
        <time>2016-08-15T09:16:20.000Z</time>
      </trkpt>
      <trkpt lat="47.56995" lon="6.80327">
        <ele>412</ele>
        <time>2016-08-15T09:16:21.000Z</time>
      </trkpt>
      <trkpt lat="47.5699" lon="6.80327">
        <ele>412</ele>
        <time>2016-08-15T09:16:22.000Z</time>
      </trkpt>
      <trkpt lat="47.56984" lon="6.80326">
        <ele>411</ele>
        <time>2016-08-15T09:16:23.000Z</time>
      </trkpt>
      <trkpt lat="47.56979" lon="6.80326">
        <ele>411</ele>
        <time>2016-08-15T09:16:24.000Z</time>
      </trkpt>
      <trkpt lat="47.56974" lon="6.80326">
        <ele>410</ele>
        <time>2016-08-15T09:16:25.000Z</time>
      </trkpt>
      <trkpt lat="47.56968" lon="6.80326">
        <ele>410</ele>
        <time>2016-08-15T09:16:26.000Z</time>
      </trkpt>
      <trkpt lat="47.56962" lon="6.80326">
        <ele>410</ele>
        <time>2016-08-15T09:16:27.000Z</time>
      </trkpt>
      <trkpt lat="47.56956" lon="6.80325">
        <ele>410</ele>
        <time>2016-08-15T09:16:28.000Z</time>
      </trkpt>
      <trkpt lat="47.56951" lon="6.80324">
        <ele>410</ele>
        <time>2016-08-15T09:16:29.000Z</time>
      </trkpt>
      <trkpt lat="47.56946" lon="6.80324">
        <ele>409</ele>
        <time>2016-08-15T09:16:30.000Z</time>
      </trkpt>
      <trkpt lat="47.56939" lon="6.80324">
        <ele>409</ele>
        <time>2016-08-15T09:16:31.000Z</time>
      </trkpt>
      <trkpt lat="47.56934" lon="6.80325">
        <ele>409</ele>
        <time>2016-08-15T09:16:32.000Z</time>
      </trkpt>
      <trkpt lat="47.56928" lon="6.80325">
        <ele>409</ele>
        <time>2016-08-15T09:16:33.000Z</time>
      </trkpt>
      <trkpt lat="47.56922" lon="6.80324">
        <ele>409</ele>
        <time>2016-08-15T09:16:34.000Z</time>
      </trkpt>
      <trkpt lat="47.56916" lon="6.80324">
        <ele>408</ele>
        <time>2016-08-15T09:16:35.000Z</time>
      </trkpt>
      <trkpt lat="47.56909" lon="6.80325">
        <ele>408</ele>
        <time>2016-08-15T09:16:36.000Z</time>
      </trkpt>
      <trkpt lat="47.56903" lon="6.80325">
        <ele>407</ele>
        <time>2016-08-15T09:16:37.000Z</time>
      </trkpt>
      <trkpt lat="47.56896" lon="6.80325">
        <ele>407</ele>
        <time>2016-08-15T09:16:38.000Z</time>
      </trkpt>
      <trkpt lat="47.56889" lon="6.80323">
        <ele>406</ele>
        <time>2016-08-15T09:16:39.000Z</time>
      </trkpt>
      <trkpt lat="47.56882" lon="6.80322">
        <ele>406</ele>
        <time>2016-08-15T09:16:40.000Z</time>
      </trkpt>
      <trkpt lat="47.56874" lon="6.80318">
        <ele>405</ele>
        <time>2016-08-15T09:16:41.000Z</time>
      </trkpt>
      <trkpt lat="47.56867" lon="6.80314">
        <ele>405</ele>
        <time>2016-08-15T09:16:42.000Z</time>
      </trkpt>
      <trkpt lat="47.56859" lon="6.80308">
        <ele>405</ele>
        <time>2016-08-15T09:16:43.000Z</time>
      </trkpt>
      <trkpt lat="47.56851" lon="6.80304">
        <ele>404</ele>
        <time>2016-08-15T09:16:44.000Z</time>
      </trkpt>
      <trkpt lat="47.56843" lon="6.80298">
        <ele>404</ele>
        <time>2016-08-15T09:16:45.000Z</time>
      </trkpt>
      <trkpt lat="47.56835" lon="6.80293">
        <ele>404</ele>
        <time>2016-08-15T09:16:46.000Z</time>
      </trkpt>
      <trkpt lat="47.56827" lon="6.80288">
        <ele>400</ele>
        <time>2016-08-15T09:16:47.000Z</time>
      </trkpt>
      <trkpt lat="47.56819" lon="6.80282">
        <ele>399</ele>
        <time>2016-08-15T09:16:48.000Z</time>
      </trkpt>
      <trkpt lat="47.5681" lon="6.80277">
        <ele>399</ele>
        <time>2016-08-15T09:16:49.000Z</time>
      </trkpt>
      <trkpt lat="47.56802" lon="6.80272">
        <ele>399</ele>
        <time>2016-08-15T09:16:50.000Z</time>
      </trkpt>
      <trkpt lat="47.56793" lon="6.80266">
        <ele>398</ele>
        <time>2016-08-15T09:16:51.000Z</time>
      </trkpt>
      <trkpt lat="47.56785" lon="6.80258">
        <ele>397</ele>
        <time>2016-08-15T09:16:52.000Z</time>
      </trkpt>
      <trkpt lat="47.56776" lon="6.8025">
        <ele>396</ele>
        <time>2016-08-15T09:16:53.000Z</time>
      </trkpt>
      <trkpt lat="47.56767" lon="6.80242">
        <ele>395</ele>
        <time>2016-08-15T09:16:54.000Z</time>
      </trkpt>
      <trkpt lat="47.56758" lon="6.80233">
        <ele>395</ele>
        <time>2016-08-15T09:16:55.000Z</time>
      </trkpt>
      <trkpt lat="47.56749" lon="6.80223">
        <ele>390</ele>
        <time>2016-08-15T09:16:56.000Z</time>
      </trkpt>
      <trkpt lat="47.56739" lon="6.80215">
        <ele>390</ele>
        <time>2016-08-15T09:16:57.000Z</time>
      </trkpt>
      <trkpt lat="47.5673" lon="6.80206">
        <ele>389</ele>
        <time>2016-08-15T09:16:57.999Z</time>
      </trkpt>
      <trkpt lat="47.56721" lon="6.80196">
        <ele>389</ele>
        <time>2016-08-15T09:16:59.000Z</time>
      </trkpt>
      <trkpt lat="47.56712" lon="6.80188">
        <ele>388</ele>
        <time>2016-08-15T09:17:00.000Z</time>
      </trkpt>
      <trkpt lat="47.56703" lon="6.80179">
        <ele>388</ele>
        <time>2016-08-15T09:17:01.000Z</time>
      </trkpt>
      <trkpt lat="47.56694" lon="6.8017">
        <ele>387</ele>
        <time>2016-08-15T09:17:02.000Z</time>
      </trkpt>
      <trkpt lat="47.56684" lon="6.80163">
        <ele>386</ele>
        <time>2016-08-15T09:17:03.000Z</time>
      </trkpt>
      <trkpt lat="47.56673" lon="6.80157">
        <ele>385</ele>
        <time>2016-08-15T09:17:04.000Z</time>
      </trkpt>
      <trkpt lat="47.56663" lon="6.80151">
        <ele>384</ele>
        <time>2016-08-15T09:17:05.000Z</time>
      </trkpt>
      <trkpt lat="47.56653" lon="6.80145">
        <ele>383</ele>
        <time>2016-08-15T09:17:06.000Z</time>
      </trkpt>
      <trkpt lat="47.56643" lon="6.80139">
        <ele>383</ele>
        <time>2016-08-15T09:17:07.000Z</time>
      </trkpt>
      <trkpt lat="47.56635" lon="6.80134">
        <ele>383</ele>
        <time>2016-08-15T09:17:08.000Z</time>
      </trkpt>
      <trkpt lat="47.56626" lon="6.80128">
        <ele>383</ele>
        <time>2016-08-15T09:17:09.001Z</time>
      </trkpt>
      <trkpt lat="47.56619" lon="6.8012">
        <ele>383</ele>
        <time>2016-08-15T09:17:10.000Z</time>
      </trkpt>
      <trkpt lat="47.56616" lon="6.80113">
        <ele>383</ele>
        <time>2016-08-15T09:17:11.000Z</time>
      </trkpt>
      <trkpt lat="47.56609" lon="6.80109">
        <ele>383</ele>
        <time>2016-08-15T09:17:12.000Z</time>
      </trkpt>
      <trkpt lat="47.566" lon="6.80106">
        <ele>382</ele>
        <time>2016-08-15T09:17:13.000Z</time>
      </trkpt>
      <trkpt lat="47.56591" lon="6.80104">
        <ele>382</ele>
        <time>2016-08-15T09:17:14.000Z</time>
      </trkpt>
      <trkpt lat="47.56582" lon="6.80104">
        <ele>380</ele>
        <time>2016-08-15T09:17:15.000Z</time>
      </trkpt>
      <trkpt lat="47.56573" lon="6.80106">
        <ele>380</ele>
        <time>2016-08-15T09:17:16.000Z</time>
      </trkpt>
      <trkpt lat="47.56564" lon="6.8011">
        <ele>380</ele>
        <time>2016-08-15T09:17:17.000Z</time>
      </trkpt>
      <trkpt lat="47.56555" lon="6.80112">
        <ele>380</ele>
        <time>2016-08-15T09:17:18.000Z</time>
      </trkpt>
      <trkpt lat="47.56546" lon="6.80115">
        <ele>379</ele>
        <time>2016-08-15T09:17:19.000Z</time>
      </trkpt>
      <trkpt lat="47.56537" lon="6.80117">
        <ele>379</ele>
        <time>2016-08-15T09:17:20.000Z</time>
      </trkpt>
      <trkpt lat="47.56527" lon="6.80118">
        <ele>379</ele>
        <time>2016-08-15T09:17:21.000Z</time>
      </trkpt>
      <trkpt lat="47.56519" lon="6.8012">
        <ele>379</ele>
        <time>2016-08-15T09:17:22.000Z</time>
      </trkpt>
      <trkpt lat="47.5651" lon="6.80121">
        <ele>379</ele>
        <time>2016-08-15T09:17:23.000Z</time>
      </trkpt>
      <trkpt lat="47.56502" lon="6.80122">
        <ele>379</ele>
        <time>2016-08-15T09:17:24.000Z</time>
      </trkpt>
      <trkpt lat="47.56494" lon="6.80124">
        <ele>377</ele>
        <time>2016-08-15T09:17:25.000Z</time>
      </trkpt>
      <trkpt lat="47.56485" lon="6.80126">
        <ele>377</ele>
        <time>2016-08-15T09:17:26.000Z</time>
      </trkpt>
      <trkpt lat="47.56477" lon="6.80128">
        <ele>377</ele>
        <time>2016-08-15T09:17:27.000Z</time>
      </trkpt>
      <trkpt lat="47.56469" lon="6.8013">
        <ele>377</ele>
        <time>2016-08-15T09:17:28.000Z</time>
      </trkpt>
      <trkpt lat="47.56461" lon="6.80131">
        <ele>377</ele>
        <time>2016-08-15T09:17:29.000Z</time>
      </trkpt>
      <trkpt lat="47.56453" lon="6.80132">
        <ele>377</ele>
        <time>2016-08-15T09:17:30.000Z</time>
      </trkpt>
      <trkpt lat="47.56445" lon="6.80133">
        <ele>377</ele>
        <time>2016-08-15T09:17:31.000Z</time>
      </trkpt>
      <trkpt lat="47.56438" lon="6.80132">
        <ele>377</ele>
        <time>2016-08-15T09:17:32.000Z</time>
      </trkpt>
      <trkpt lat="47.5643" lon="6.80132">
        <ele>377</ele>
        <time>2016-08-15T09:17:33.000Z</time>
      </trkpt>
      <trkpt lat="47.56422" lon="6.8013">
        <ele>377</ele>
        <time>2016-08-15T09:17:34.000Z</time>
      </trkpt>
      <trkpt lat="47.56414" lon="6.80128">
        <ele>378</ele>
        <time>2016-08-15T09:17:35.000Z</time>
      </trkpt>
      <trkpt lat="47.56407" lon="6.80126">
        <ele>378</ele>
        <time>2016-08-15T09:17:36.000Z</time>
      </trkpt>
      <trkpt lat="47.564" lon="6.80124">
        <ele>377</ele>
        <time>2016-08-15T09:17:37.000Z</time>
      </trkpt>
      <trkpt lat="47.56392" lon="6.80121">
        <ele>377</ele>
        <time>2016-08-15T09:17:38.000Z</time>
      </trkpt>
      <trkpt lat="47.56381" lon="6.80121">
        <ele>378</ele>
        <time>2016-08-15T09:17:39.000Z</time>
      </trkpt>
      <trkpt lat="47.56372" lon="6.8012">
        <ele>378</ele>
        <time>2016-08-15T09:17:40.000Z</time>
      </trkpt>
      <trkpt lat="47.56363" lon="6.8012">
        <ele>378</ele>
        <time>2016-08-15T09:17:41.000Z</time>
      </trkpt>
      <trkpt lat="47.56355" lon="6.80117">
        <ele>378</ele>
        <time>2016-08-15T09:17:42.000Z</time>
      </trkpt>
      <trkpt lat="47.56348" lon="6.80115">
        <ele>378</ele>
        <time>2016-08-15T09:17:43.000Z</time>
      </trkpt>
      <trkpt lat="47.56341" lon="6.8011">
        <ele>377</ele>
        <time>2016-08-15T09:17:44.000Z</time>
      </trkpt>
      <trkpt lat="47.56334" lon="6.80107">
        <ele>377</ele>
        <time>2016-08-15T09:17:45.000Z</time>
      </trkpt>
      <trkpt lat="47.56328" lon="6.80105">
        <ele>378</ele>
        <time>2016-08-15T09:17:46.000Z</time>
      </trkpt>
      <trkpt lat="47.56319" lon="6.80113">
        <ele>378</ele>
        <time>2016-08-15T09:17:47.000Z</time>
      </trkpt>
      <trkpt lat="47.56313" lon="6.80113">
        <ele>379</ele>
        <time>2016-08-15T09:17:48.000Z</time>
      </trkpt>
      <trkpt lat="47.56305" lon="6.80116">
        <ele>379</ele>
        <time>2016-08-15T09:17:49.000Z</time>
      </trkpt>
      <trkpt lat="47.56299" lon="6.8012">
        <ele>379</ele>
        <time>2016-08-15T09:17:50.000Z</time>
      </trkpt>
      <trkpt lat="47.56293" lon="6.80122">
        <ele>379</ele>
        <time>2016-08-15T09:17:51.000Z</time>
      </trkpt>
      <trkpt lat="47.56286" lon="6.80123">
        <ele>379</ele>
        <time>2016-08-15T09:17:52.000Z</time>
      </trkpt>
      <trkpt lat="47.56282" lon="6.80127">
        <ele>379</ele>
        <time>2016-08-15T09:17:53.000Z</time>
      </trkpt>
      <trkpt lat="47.56276" lon="6.80125">
        <ele>379</ele>
        <time>2016-08-15T09:17:54.000Z</time>
      </trkpt>
      <trkpt lat="47.56275" lon="6.80127">
        <ele>379</ele>
        <time>2016-08-15T09:17:55.000Z</time>
      </trkpt>
      <trkpt lat="47.56267" lon="6.80125">
        <ele>379</ele>
        <time>2016-08-15T09:17:56.000Z</time>
      </trkpt>
      <trkpt lat="47.56259" lon="6.80127">
        <ele>379</ele>
        <time>2016-08-15T09:17:57.000Z</time>
      </trkpt>
      <trkpt lat="47.5625" lon="6.8013">
        <ele>379</ele>
        <time>2016-08-15T09:17:58.000Z</time>
      </trkpt>
      <trkpt lat="47.56234" lon="6.80133">
        <ele>379</ele>
        <time>2016-08-15T09:17:59.000Z</time>
      </trkpt>
      <trkpt lat="47.56233" lon="6.80139">
        <ele>379</ele>
        <time>2016-08-15T09:18:00.000Z</time>
      </trkpt>
      <trkpt lat="47.56226" lon="6.80142">
        <ele>379</ele>
        <time>2016-08-15T09:18:01.000Z</time>
      </trkpt>
      <trkpt lat="47.5622" lon="6.80144">
        <ele>379</ele>
        <time>2016-08-15T09:18:02.000Z</time>
      </trkpt>
      <trkpt lat="47.56213" lon="6.80146">
        <ele>379</ele>
        <time>2016-08-15T09:18:03.000Z</time>
      </trkpt>
      <trkpt lat="47.5621" lon="6.80141">
        <ele>379</ele>
        <time>2016-08-15T09:18:04.000Z</time>
      </trkpt>
      <trkpt lat="47.56207" lon="6.80139">
        <ele>379</ele>
        <time>2016-08-15T09:18:05.000Z</time>
      </trkpt>
      <trkpt lat="47.56205" lon="6.80134">
        <ele>379</ele>
        <time>2016-08-15T09:18:07.000Z</time>
      </trkpt>
      <trkpt lat="47.56199" lon="6.80131">
        <ele>379</ele>
        <time>2016-08-15T09:18:08.000Z</time>
      </trkpt>
      <trkpt lat="47.56188" lon="6.80127">
        <ele>379</ele>
        <time>2016-08-15T09:18:09.000Z</time>
      </trkpt>
      <trkpt lat="47.56181" lon="6.80127">
        <ele>379</ele>
        <time>2016-08-15T09:18:10.000Z</time>
      </trkpt>
      <trkpt lat="47.56178" lon="6.8013">
        <ele>379</ele>
        <time>2016-08-15T09:18:11.000Z</time>
      </trkpt>
      <trkpt lat="47.56174" lon="6.80128">
        <ele>379</ele>
        <time>2016-08-15T09:18:12.000Z</time>
      </trkpt>
      <trkpt lat="47.56169" lon="6.80127">
        <ele>379</ele>
        <time>2016-08-15T09:18:13.000Z</time>
      </trkpt>
      <trkpt lat="47.56163" lon="6.80132">
        <ele>379</ele>
        <time>2016-08-15T09:18:14.000Z</time>
      </trkpt>
      <trkpt lat="47.56157" lon="6.80133">
        <ele>379</ele>
        <time>2016-08-15T09:18:15.000Z</time>
      </trkpt>
      <trkpt lat="47.56153" lon="6.80135">
        <ele>379</ele>
        <time>2016-08-15T09:18:16.000Z</time>
      </trkpt>
      <trkpt lat="47.56149" lon="6.80137">
        <ele>379</ele>
        <time>2016-08-15T09:18:17.000Z</time>
      </trkpt>
      <trkpt lat="47.56148" lon="6.80139">
        <ele>379</ele>
        <time>2016-08-15T09:18:18.000Z</time>
      </trkpt>
      <trkpt lat="47.56146" lon="6.8014">
        <ele>379</ele>
        <time>2016-08-15T09:18:19.000Z</time>
      </trkpt>
      <trkpt lat="47.56143" lon="6.80141">
        <ele>379</ele>
        <time>2016-08-15T09:18:20.000Z</time>
      </trkpt>
      <trkpt lat="47.56137" lon="6.80141">
        <ele>379</ele>
        <time>2016-08-15T09:18:21.000Z</time>
      </trkpt>
      <trkpt lat="47.56132" lon="6.80142">
        <ele>379</ele>
        <time>2016-08-15T09:18:22.000Z</time>
      </trkpt>
      <trkpt lat="47.56127" lon="6.80143">
        <ele>379</ele>
        <time>2016-08-15T09:18:23.000Z</time>
      </trkpt>
      <trkpt lat="47.56123" lon="6.80144">
        <ele>379</ele>
        <time>2016-08-15T09:18:24.000Z</time>
      </trkpt>
      <trkpt lat="47.56119" lon="6.80147">
        <ele>379</ele>
        <time>2016-08-15T09:18:25.000Z</time>
      </trkpt>
      <trkpt lat="47.56116" lon="6.80148">
        <ele>379</ele>
        <time>2016-08-15T09:18:26.000Z</time>
      </trkpt>
      <trkpt lat="47.56114" lon="6.80151">
        <ele>379</ele>
        <time>2016-08-15T09:18:27.000Z</time>
      </trkpt>
      <trkpt lat="47.56111" lon="6.80153">
        <ele>379</ele>
        <time>2016-08-15T09:18:28.000Z</time>
      </trkpt>
      <trkpt lat="47.56108" lon="6.80156">
        <ele>380</ele>
        <time>2016-08-15T09:18:29.000Z</time>
      </trkpt>
      <trkpt lat="47.56106" lon="6.80159">
        <ele>380</ele>
        <time>2016-08-15T09:18:30.000Z</time>
      </trkpt>
      <trkpt lat="47.56104" lon="6.80163">
        <ele>380</ele>
        <time>2016-08-15T09:18:31.000Z</time>
      </trkpt>
      <trkpt lat="47.56102" lon="6.80167">
        <ele>380</ele>
        <time>2016-08-15T09:18:32.000Z</time>
      </trkpt>
      <trkpt lat="47.561" lon="6.80171">
        <ele>380</ele>
        <time>2016-08-15T09:18:33.000Z</time>
      </trkpt>
      <trkpt lat="47.56098" lon="6.80176">
        <ele>380</ele>
        <time>2016-08-15T09:18:34.000Z</time>
      </trkpt>
      <trkpt lat="47.56095" lon="6.8018">
        <ele>380</ele>
        <time>2016-08-15T09:18:35.000Z</time>
      </trkpt>
      <trkpt lat="47.56093" lon="6.80184">
        <ele>380</ele>
        <time>2016-08-15T09:18:36.000Z</time>
      </trkpt>
      <trkpt lat="47.56091" lon="6.80188">
        <ele>381</ele>
        <time>2016-08-15T09:18:37.000Z</time>
      </trkpt>
      <trkpt lat="47.56088" lon="6.80191">
        <ele>381</ele>
        <time>2016-08-15T09:18:38.000Z</time>
      </trkpt>
      <trkpt lat="47.56085" lon="6.80194">
        <ele>381</ele>
        <time>2016-08-15T09:18:39.000Z</time>
      </trkpt>
      <trkpt lat="47.56081" lon="6.80196">
        <ele>382</ele>
        <time>2016-08-15T09:18:40.000Z</time>
      </trkpt>
      <trkpt lat="47.56078" lon="6.80198">
        <ele>382</ele>
        <time>2016-08-15T09:18:41.000Z</time>
      </trkpt>
      <trkpt lat="47.56074" lon="6.802">
        <ele>382</ele>
        <time>2016-08-15T09:18:42.000Z</time>
      </trkpt>
      <trkpt lat="47.5607" lon="6.80201">
        <ele>382</ele>
        <time>2016-08-15T09:18:43.000Z</time>
      </trkpt>
      <trkpt lat="47.56066" lon="6.80201">
        <ele>382</ele>
        <time>2016-08-15T09:18:44.000Z</time>
      </trkpt>
      <trkpt lat="47.56061" lon="6.80201">
        <ele>382</ele>
        <time>2016-08-15T09:18:45.000Z</time>
      </trkpt>
      <trkpt lat="47.56057" lon="6.80201">
        <ele>383</ele>
        <time>2016-08-15T09:18:46.000Z</time>
      </trkpt>
      <trkpt lat="47.56049" lon="6.80202">
        <ele>383</ele>
        <time>2016-08-15T09:18:48.000Z</time>
      </trkpt>
      <trkpt lat="47.56045" lon="6.80203">
        <ele>383</ele>
        <time>2016-08-15T09:18:49.000Z</time>
      </trkpt>
      <trkpt lat="47.56041" lon="6.80204">
        <ele>383</ele>
        <time>2016-08-15T09:18:50.000Z</time>
      </trkpt>
      <trkpt lat="47.56036" lon="6.80204">
        <ele>383</ele>
        <time>2016-08-15T09:18:51.000Z</time>
      </trkpt>
      <trkpt lat="47.56032" lon="6.80204">
        <ele>383</ele>
        <time>2016-08-15T09:18:52.000Z</time>
      </trkpt>
      <trkpt lat="47.56028" lon="6.80203">
        <ele>383</ele>
        <time>2016-08-15T09:18:53.000Z</time>
      </trkpt>
      <trkpt lat="47.56024" lon="6.802">
        <ele>383</ele>
        <time>2016-08-15T09:18:54.000Z</time>
      </trkpt>
      <trkpt lat="47.5602" lon="6.80197">
        <ele>383</ele>
        <time>2016-08-15T09:18:55.000Z</time>
      </trkpt>
      <trkpt lat="47.56018" lon="6.80193">
        <ele>383</ele>
        <time>2016-08-15T09:18:56.000Z</time>
      </trkpt>
      <trkpt lat="47.56015" lon="6.80188">
        <ele>383</ele>
        <time>2016-08-15T09:18:57.000Z</time>
      </trkpt>
      <trkpt lat="47.56013" lon="6.80183">
        <ele>383</ele>
        <time>2016-08-15T09:18:58.000Z</time>
      </trkpt>
      <trkpt lat="47.56011" lon="6.80178">
        <ele>383</ele>
        <time>2016-08-15T09:18:59.000Z</time>
      </trkpt>
      <trkpt lat="47.56009" lon="6.80173">
        <ele>382</ele>
        <time>2016-08-15T09:19:00.000Z</time>
      </trkpt>
      <trkpt lat="47.56008" lon="6.8017">
        <ele>382</ele>
        <time>2016-08-15T09:19:01.000Z</time>
      </trkpt>
      <trkpt lat="47.56006" lon="6.80167">
        <ele>382</ele>
        <time>2016-08-15T09:19:02.000Z</time>
      </trkpt>
      <trkpt lat="47.56004" lon="6.80165">
        <ele>382</ele>
        <time>2016-08-15T09:19:03.000Z</time>
      </trkpt>
      <trkpt lat="47.56001" lon="6.80164">
        <ele>382</ele>
        <time>2016-08-15T09:19:04.000Z</time>
      </trkpt>
      <trkpt lat="47.55999" lon="6.80163">
        <ele>382</ele>
        <time>2016-08-15T09:19:05.000Z</time>
      </trkpt>
      <trkpt lat="47.55995" lon="6.80162">
        <ele>383</ele>
        <time>2016-08-15T09:19:06.000Z</time>
      </trkpt>
      <trkpt lat="47.55992" lon="6.80161">
        <ele>383</ele>
        <time>2016-08-15T09:19:07.000Z</time>
      </trkpt>
      <trkpt lat="47.55988" lon="6.8016">
        <ele>383</ele>
        <time>2016-08-15T09:19:08.000Z</time>
      </trkpt>
      <trkpt lat="47.55985" lon="6.8016">
        <ele>383</ele>
        <time>2016-08-15T09:19:09.000Z</time>
      </trkpt>
      <trkpt lat="47.55982" lon="6.8016">
        <ele>383</ele>
        <time>2016-08-15T09:19:10.000Z</time>
      </trkpt>
      <trkpt lat="47.55978" lon="6.8016">
        <ele>384</ele>
        <time>2016-08-15T09:19:11.000Z</time>
      </trkpt>
      <trkpt lat="47.55975" lon="6.8016">
        <ele>384</ele>
        <time>2016-08-15T09:19:12.000Z</time>
      </trkpt>
      <trkpt lat="47.55971" lon="6.8016">
        <ele>384</ele>
        <time>2016-08-15T09:19:13.000Z</time>
      </trkpt>
      <trkpt lat="47.55968" lon="6.8016">
        <ele>384</ele>
        <time>2016-08-15T09:19:14.000Z</time>
      </trkpt>
      <trkpt lat="47.55965" lon="6.80161">
        <ele>384</ele>
        <time>2016-08-15T09:19:15.000Z</time>
      </trkpt>
      <trkpt lat="47.55962" lon="6.80161">
        <ele>384</ele>
        <time>2016-08-15T09:19:16.000Z</time>
      </trkpt>
      <trkpt lat="47.55958" lon="6.80161">
        <ele>385</ele>
        <time>2016-08-15T09:19:17.000Z</time>
      </trkpt>
      <trkpt lat="47.55956" lon="6.80161">
        <ele>385</ele>
        <time>2016-08-15T09:19:18.000Z</time>
      </trkpt>
      <trkpt lat="47.55953" lon="6.80162">
        <ele>385</ele>
        <time>2016-08-15T09:19:19.000Z</time>
      </trkpt>
      <trkpt lat="47.55949" lon="6.80162">
        <ele>385</ele>
        <time>2016-08-15T09:19:21.000Z</time>
      </trkpt>
      <trkpt lat="47.55948" lon="6.80162">
        <ele>385</ele>
        <time>2016-08-15T09:19:22.000Z</time>
      </trkpt>
      <trkpt lat="47.55944" lon="6.80162">
        <ele>385</ele>
        <time>2016-08-15T09:19:26.000Z</time>
      </trkpt>
      <trkpt lat="47.55942" lon="6.80162">
        <ele>386</ele>
        <time>2016-08-15T09:19:27.000Z</time>
      </trkpt>
      <trkpt lat="47.55938" lon="6.80163">
        <ele>386</ele>
        <time>2016-08-15T09:19:29.000Z</time>
      </trkpt>
      <trkpt lat="47.55936" lon="6.80164">
        <ele>386</ele>
        <time>2016-08-15T09:19:30.000Z</time>
      </trkpt>
      <trkpt lat="47.55932" lon="6.80166">
        <ele>387</ele>
        <time>2016-08-15T09:19:32.000Z</time>
      </trkpt>
      <trkpt lat="47.5593" lon="6.80168">
        <ele>388</ele>
        <time>2016-08-15T09:19:33.000Z</time>
      </trkpt>
      <trkpt lat="47.55928" lon="6.80171">
        <ele>388</ele>
        <time>2016-08-15T09:19:34.000Z</time>
      </trkpt>
      <trkpt lat="47.55926" lon="6.80174">
        <ele>389</ele>
        <time>2016-08-15T09:19:35.000Z</time>
      </trkpt>
      <trkpt lat="47.55924" lon="6.80177">
        <ele>389</ele>
        <time>2016-08-15T09:19:36.000Z</time>
      </trkpt>
      <trkpt lat="47.55921" lon="6.80179">
        <ele>389</ele>
        <time>2016-08-15T09:19:37.000Z</time>
      </trkpt>
      <trkpt lat="47.55916" lon="6.80181">
        <ele>390</ele>
        <time>2016-08-15T09:19:38.000Z</time>
      </trkpt>
      <trkpt lat="47.55911" lon="6.80184">
        <ele>390</ele>
        <time>2016-08-15T09:19:39.000Z</time>
      </trkpt>
      <trkpt lat="47.55906" lon="6.80186">
        <ele>390</ele>
        <time>2016-08-15T09:19:40.000Z</time>
      </trkpt>
      <trkpt lat="47.55902" lon="6.80188">
        <ele>391</ele>
        <time>2016-08-15T09:19:41.000Z</time>
      </trkpt>
      <trkpt lat="47.55899" lon="6.8019">
        <ele>391</ele>
        <time>2016-08-15T09:19:42.000Z</time>
      </trkpt>
      <trkpt lat="47.55897" lon="6.80191">
        <ele>391</ele>
        <time>2016-08-15T09:19:43.000Z</time>
      </trkpt>
      <trkpt lat="47.55894" lon="6.80191">
        <ele>391</ele>
        <time>2016-08-15T09:19:44.000Z</time>
      </trkpt>
      <trkpt lat="47.55892" lon="6.80191">
        <ele>391</ele>
        <time>2016-08-15T09:19:45.000Z</time>
      </trkpt>
      <trkpt lat="47.5589" lon="6.80192">
        <ele>391</ele>
        <time>2016-08-15T09:19:46.000Z</time>
      </trkpt>
      <trkpt lat="47.55886" lon="6.80193">
        <ele>391</ele>
        <time>2016-08-15T09:19:48.000Z</time>
      </trkpt>
      <trkpt lat="47.55884" lon="6.80193">
        <ele>391</ele>
        <time>2016-08-15T09:19:49.000Z</time>
      </trkpt>
      <trkpt lat="47.5588" lon="6.80193">
        <ele>391</ele>
        <time>2016-08-15T09:19:51.000Z</time>
      </trkpt>
      <trkpt lat="47.55878" lon="6.80192">
        <ele>391</ele>
        <time>2016-08-15T09:19:52.000Z</time>
      </trkpt>
      <trkpt lat="47.55874" lon="6.80191">
        <ele>391</ele>
        <time>2016-08-15T09:19:54.000Z</time>
      </trkpt>
      <trkpt lat="47.55873" lon="6.8019">
        <ele>391</ele>
        <time>2016-08-15T09:19:55.000Z</time>
      </trkpt>
      <trkpt lat="47.5587" lon="6.80188">
        <ele>391</ele>
        <time>2016-08-15T09:19:57.000Z</time>
      </trkpt>
      <trkpt lat="47.55868" lon="6.80187">
        <ele>391</ele>
        <time>2016-08-15T09:19:58.000Z</time>
      </trkpt>
      <trkpt lat="47.55865" lon="6.80184">
        <ele>391</ele>
        <time>2016-08-15T09:20:00.000Z</time>
      </trkpt>
      <trkpt lat="47.55862" lon="6.80183">
        <ele>391</ele>
        <time>2016-08-15T09:20:01.000Z</time>
      </trkpt>
      <trkpt lat="47.5586" lon="6.80182">
        <ele>391</ele>
        <time>2016-08-15T09:20:02.000Z</time>
      </trkpt>
      <trkpt lat="47.55857" lon="6.80181">
        <ele>391</ele>
        <time>2016-08-15T09:20:03.000Z</time>
      </trkpt>
      <trkpt lat="47.55853" lon="6.80179">
        <ele>391</ele>
        <time>2016-08-15T09:20:04.000Z</time>
      </trkpt>
      <trkpt lat="47.55848" lon="6.80176">
        <ele>391</ele>
        <time>2016-08-15T09:20:05.000Z</time>
      </trkpt>
      <trkpt lat="47.55842" lon="6.80174">
        <ele>391</ele>
        <time>2016-08-15T09:20:06.000Z</time>
      </trkpt>
      <trkpt lat="47.55835" lon="6.80171">
        <ele>390</ele>
        <time>2016-08-15T09:20:07.000Z</time>
      </trkpt>
      <trkpt lat="47.55829" lon="6.8017">
        <ele>390</ele>
        <time>2016-08-15T09:20:08.000Z</time>
      </trkpt>
      <trkpt lat="47.55823" lon="6.80169">
        <ele>390</ele>
        <time>2016-08-15T09:20:09.000Z</time>
      </trkpt>
      <trkpt lat="47.55818" lon="6.80168">
        <ele>391</ele>
        <time>2016-08-15T09:20:10.000Z</time>
      </trkpt>
      <trkpt lat="47.55812" lon="6.80168">
        <ele>391</ele>
        <time>2016-08-15T09:20:11.000Z</time>
      </trkpt>
      <trkpt lat="47.55807" lon="6.80168">
        <ele>391</ele>
        <time>2016-08-15T09:20:12.000Z</time>
      </trkpt>
      <trkpt lat="47.55803" lon="6.80168">
        <ele>391</ele>
        <time>2016-08-15T09:20:13.000Z</time>
      </trkpt>
      <trkpt lat="47.558" lon="6.80168">
        <ele>391</ele>
        <time>2016-08-15T09:20:14.000Z</time>
      </trkpt>
      <trkpt lat="47.55796" lon="6.80169">
        <ele>391</ele>
        <time>2016-08-15T09:20:15.000Z</time>
      </trkpt>
      <trkpt lat="47.55793" lon="6.8017">
        <ele>391</ele>
        <time>2016-08-15T09:20:16.000Z</time>
      </trkpt>
      <trkpt lat="47.5579" lon="6.80171">
        <ele>391</ele>
        <time>2016-08-15T09:20:17.000Z</time>
      </trkpt>
      <trkpt lat="47.55786" lon="6.80172">
        <ele>391</ele>
        <time>2016-08-15T09:20:18.000Z</time>
      </trkpt>
      <trkpt lat="47.55784" lon="6.80173">
        <ele>391</ele>
        <time>2016-08-15T09:20:19.000Z</time>
      </trkpt>
      <trkpt lat="47.5578" lon="6.80174">
        <ele>391</ele>
        <time>2016-08-15T09:20:20.000Z</time>
      </trkpt>
      <trkpt lat="47.55777" lon="6.80175">
        <ele>391</ele>
        <time>2016-08-15T09:20:21.000Z</time>
      </trkpt>
      <trkpt lat="47.55773" lon="6.80176">
        <ele>390</ele>
        <time>2016-08-15T09:20:22.000Z</time>
      </trkpt>
      <trkpt lat="47.55769" lon="6.80177">
        <ele>390</ele>
        <time>2016-08-15T09:20:23.000Z</time>
      </trkpt>
      <trkpt lat="47.55765" lon="6.80178">
        <ele>390</ele>
        <time>2016-08-15T09:20:24.000Z</time>
      </trkpt>
      <trkpt lat="47.55762" lon="6.8018">
        <ele>390</ele>
        <time>2016-08-15T09:20:25.000Z</time>
      </trkpt>
      <trkpt lat="47.55758" lon="6.80181">
        <ele>390</ele>
        <time>2016-08-15T09:20:26.000Z</time>
      </trkpt>
      <trkpt lat="47.55754" lon="6.80182">
        <ele>390</ele>
        <time>2016-08-15T09:20:27.000Z</time>
      </trkpt>
      <trkpt lat="47.55751" lon="6.80183">
        <ele>390</ele>
        <time>2016-08-15T09:20:28.000Z</time>
      </trkpt>
      <trkpt lat="47.55748" lon="6.80184">
        <ele>389</ele>
        <time>2016-08-15T09:20:29.000Z</time>
      </trkpt>
      <trkpt lat="47.55745" lon="6.80183">
        <ele>389</ele>
        <time>2016-08-15T09:20:30.000Z</time>
      </trkpt>
      <trkpt lat="47.55742" lon="6.80183">
        <ele>389</ele>
        <time>2016-08-15T09:20:31.000Z</time>
      </trkpt>
      <trkpt lat="47.5574" lon="6.80182">
        <ele>389</ele>
        <time>2016-08-15T09:20:32.000Z</time>
      </trkpt>
      <trkpt lat="47.55738" lon="6.8018">
        <ele>389</ele>
        <time>2016-08-15T09:20:33.000Z</time>
      </trkpt>
      <trkpt lat="47.55735" lon="6.80179">
        <ele>388</ele>
        <time>2016-08-15T09:20:34.000Z</time>
      </trkpt>
      <trkpt lat="47.55732" lon="6.80177">
        <ele>388</ele>
        <time>2016-08-15T09:20:35.000Z</time>
      </trkpt>
      <trkpt lat="47.55727" lon="6.80176">
        <ele>388</ele>
        <time>2016-08-15T09:20:36.000Z</time>
      </trkpt>
      <trkpt lat="47.55721" lon="6.80174">
        <ele>388</ele>
        <time>2016-08-15T09:20:37.000Z</time>
      </trkpt>
      <trkpt lat="47.55714" lon="6.80172">
        <ele>388</ele>
        <time>2016-08-15T09:20:38.000Z</time>
      </trkpt>
      <trkpt lat="47.55689" lon="6.80165">
        <ele>385</ele>
        <time>2016-08-15T09:20:39.000Z</time>
      </trkpt>
      <trkpt lat="47.55683" lon="6.80163">
        <ele>385</ele>
        <time>2016-08-15T09:20:40.000Z</time>
      </trkpt>
      <trkpt lat="47.55676" lon="6.80161">
        <ele>385</ele>
        <time>2016-08-15T09:20:41.000Z</time>
      </trkpt>
      <trkpt lat="47.55672" lon="6.80159">
        <ele>385</ele>
        <time>2016-08-15T09:20:42.000Z</time>
      </trkpt>
      <trkpt lat="47.55669" lon="6.80155">
        <ele>385</ele>
        <time>2016-08-15T09:20:43.000Z</time>
      </trkpt>
      <trkpt lat="47.55664" lon="6.80148">
        <ele>383</ele>
        <time>2016-08-15T09:20:44.000Z</time>
      </trkpt>
      <trkpt lat="47.55658" lon="6.8014">
        <ele>382</ele>
        <time>2016-08-15T09:20:45.000Z</time>
      </trkpt>
      <trkpt lat="47.55655" lon="6.80135">
        <ele>382</ele>
        <time>2016-08-15T09:20:46.000Z</time>
      </trkpt>
      <trkpt lat="47.55652" lon="6.80133">
        <ele>382</ele>
        <time>2016-08-15T09:20:47.000Z</time>
      </trkpt>
      <trkpt lat="47.55647" lon="6.80131">
        <ele>382</ele>
        <time>2016-08-15T09:20:48.000Z</time>
      </trkpt>
      <trkpt lat="47.55641" lon="6.80129">
        <ele>382</ele>
        <time>2016-08-15T09:20:49.000Z</time>
      </trkpt>
      <trkpt lat="47.55637" lon="6.80131">
        <ele>382</ele>
        <time>2016-08-15T09:20:50.000Z</time>
      </trkpt>
      <trkpt lat="47.55634" lon="6.8013">
        <ele>382</ele>
        <time>2016-08-15T09:20:51.000Z</time>
      </trkpt>
      <trkpt lat="47.5563" lon="6.80133">
        <ele>381</ele>
        <time>2016-08-15T09:20:52.000Z</time>
      </trkpt>
      <trkpt lat="47.55626" lon="6.80131">
        <ele>381</ele>
        <time>2016-08-15T09:20:53.000Z</time>
      </trkpt>
      <trkpt lat="47.55623" lon="6.8013">
        <ele>381</ele>
        <time>2016-08-15T09:20:54.000Z</time>
      </trkpt>
      <trkpt lat="47.5562" lon="6.80129">
        <ele>381</ele>
        <time>2016-08-15T09:20:55.000Z</time>
      </trkpt>
      <trkpt lat="47.55617" lon="6.80126">
        <ele>381</ele>
        <time>2016-08-15T09:20:56.000Z</time>
      </trkpt>
      <trkpt lat="47.55614" lon="6.80124">
        <ele>381</ele>
        <time>2016-08-15T09:20:57.000Z</time>
      </trkpt>
      <trkpt lat="47.5561" lon="6.80121">
        <ele>381</ele>
        <time>2016-08-15T09:20:58.000Z</time>
      </trkpt>
      <trkpt lat="47.55607" lon="6.80119">
        <ele>381</ele>
        <time>2016-08-15T09:20:59.000Z</time>
      </trkpt>
      <trkpt lat="47.55603" lon="6.80117">
        <ele>381</ele>
        <time>2016-08-15T09:21:00.000Z</time>
      </trkpt>
      <trkpt lat="47.55599" lon="6.80114">
        <ele>380</ele>
        <time>2016-08-15T09:21:01.000Z</time>
      </trkpt>
      <trkpt lat="47.55595" lon="6.80111">
        <ele>380</ele>
        <time>2016-08-15T09:21:02.000Z</time>
      </trkpt>
      <trkpt lat="47.55591" lon="6.80108">
        <ele>380</ele>
        <time>2016-08-15T09:21:03.000Z</time>
      </trkpt>
      <trkpt lat="47.55585" lon="6.80106">
        <ele>380</ele>
        <time>2016-08-15T09:21:04.000Z</time>
      </trkpt>
      <trkpt lat="47.55562" lon="6.801">
        <ele>378</ele>
        <time>2016-08-15T09:21:05.000Z</time>
      </trkpt>
      <trkpt lat="47.55559" lon="6.80099">
        <ele>378</ele>
        <time>2016-08-15T09:21:06.000Z</time>
      </trkpt>
      <trkpt lat="47.55555" lon="6.80096">
        <ele>377</ele>
        <time>2016-08-15T09:21:07.000Z</time>
      </trkpt>
      <trkpt lat="47.55551" lon="6.80094">
        <ele>377</ele>
        <time>2016-08-15T09:21:08.000Z</time>
      </trkpt>
      <trkpt lat="47.55547" lon="6.80092">
        <ele>377</ele>
        <time>2016-08-15T09:21:09.000Z</time>
      </trkpt>
      <trkpt lat="47.55542" lon="6.8009">
        <ele>377</ele>
        <time>2016-08-15T09:21:10.000Z</time>
      </trkpt>
      <trkpt lat="47.55537" lon="6.80089">
        <ele>377</ele>
        <time>2016-08-15T09:21:11.000Z</time>
      </trkpt>
      <trkpt lat="47.55533" lon="6.80087">
        <ele>377</ele>
        <time>2016-08-15T09:21:12.000Z</time>
      </trkpt>
      <trkpt lat="47.55528" lon="6.80086">
        <ele>377</ele>
        <time>2016-08-15T09:21:13.000Z</time>
      </trkpt>
      <trkpt lat="47.55506" lon="6.80084">
        <ele>378</ele>
        <time>2016-08-15T09:21:14.000Z</time>
      </trkpt>
      <trkpt lat="47.55497" lon="6.80085">
        <ele>378</ele>
        <time>2016-08-15T09:21:15.000Z</time>
      </trkpt>
      <trkpt lat="47.55492" lon="6.80085">
        <ele>377</ele>
        <time>2016-08-15T09:21:16.000Z</time>
      </trkpt>
      <trkpt lat="47.55489" lon="6.80085">
        <ele>377</ele>
        <time>2016-08-15T09:21:17.000Z</time>
      </trkpt>
      <trkpt lat="47.55485" lon="6.80086">
        <ele>377</ele>
        <time>2016-08-15T09:21:18.000Z</time>
      </trkpt>
      <trkpt lat="47.55482" lon="6.80086">
        <ele>377</ele>
        <time>2016-08-15T09:21:19.000Z</time>
      </trkpt>
      <trkpt lat="47.55478" lon="6.80085">
        <ele>377</ele>
        <time>2016-08-15T09:21:20.000Z</time>
      </trkpt>
      <trkpt lat="47.55475" lon="6.80085">
        <ele>377</ele>
        <time>2016-08-15T09:21:21.000Z</time>
      </trkpt>
      <trkpt lat="47.55471" lon="6.80084">
        <ele>377</ele>
        <time>2016-08-15T09:21:22.000Z</time>
      </trkpt>
      <trkpt lat="47.55467" lon="6.80082">
        <ele>380</ele>
        <time>2016-08-15T09:21:23.000Z</time>
      </trkpt>
      <trkpt lat="47.55464" lon="6.8008">
        <ele>380</ele>
        <time>2016-08-15T09:21:24.000Z</time>
      </trkpt>
      <trkpt lat="47.55461" lon="6.80078">
        <ele>380</ele>
        <time>2016-08-15T09:21:25.000Z</time>
      </trkpt>
      <trkpt lat="47.55458" lon="6.80076">
        <ele>380</ele>
        <time>2016-08-15T09:21:26.000Z</time>
      </trkpt>
      <trkpt lat="47.55455" lon="6.80073">
        <ele>380</ele>
        <time>2016-08-15T09:21:27.000Z</time>
      </trkpt>
      <trkpt lat="47.55452" lon="6.80071">
        <ele>380</ele>
        <time>2016-08-15T09:21:28.000Z</time>
      </trkpt>
      <trkpt lat="47.55449" lon="6.80069">
        <ele>380</ele>
        <time>2016-08-15T09:21:29.000Z</time>
      </trkpt>
      <trkpt lat="47.55446" lon="6.80066">
        <ele>380</ele>
        <time>2016-08-15T09:21:30.000Z</time>
      </trkpt>
      <trkpt lat="47.55442" lon="6.80062">
        <ele>380</ele>
        <time>2016-08-15T09:21:31.000Z</time>
      </trkpt>
      <trkpt lat="47.55438" lon="6.80058">
        <ele>380</ele>
        <time>2016-08-15T09:21:32.000Z</time>
      </trkpt>
      <trkpt lat="47.55435" lon="6.80054">
        <ele>380</ele>
        <time>2016-08-15T09:21:33.000Z</time>
      </trkpt>
      <trkpt lat="47.55431" lon="6.8005">
        <ele>381</ele>
        <time>2016-08-15T09:21:34.000Z</time>
      </trkpt>
      <trkpt lat="47.55427" lon="6.80046">
        <ele>381</ele>
        <time>2016-08-15T09:21:35.000Z</time>
      </trkpt>
      <trkpt lat="47.55424" lon="6.80043">
        <ele>381</ele>
        <time>2016-08-15T09:21:36.000Z</time>
      </trkpt>
      <trkpt lat="47.5542" lon="6.80039">
        <ele>381</ele>
        <time>2016-08-15T09:21:37.000Z</time>
      </trkpt>
      <trkpt lat="47.55418" lon="6.80036">
        <ele>381</ele>
        <time>2016-08-15T09:21:38.000Z</time>
      </trkpt>
      <trkpt lat="47.55415" lon="6.80033">
        <ele>377</ele>
        <time>2016-08-15T09:21:39.000Z</time>
      </trkpt>
      <trkpt lat="47.55413" lon="6.80029">
        <ele>377</ele>
        <time>2016-08-15T09:21:40.000Z</time>
      </trkpt>
      <trkpt lat="47.55409" lon="6.80026">
        <ele>377</ele>
        <time>2016-08-15T09:21:41.000Z</time>
      </trkpt>
      <trkpt lat="47.55405" lon="6.80023">
        <ele>377</ele>
        <time>2016-08-15T09:21:42.000Z</time>
      </trkpt>
      <trkpt lat="47.554" lon="6.80019">
        <ele>377</ele>
        <time>2016-08-15T09:21:43.000Z</time>
      </trkpt>
      <trkpt lat="47.55395" lon="6.80015">
        <ele>377</ele>
        <time>2016-08-15T09:21:44.000Z</time>
      </trkpt>
      <trkpt lat="47.5539" lon="6.80011">
        <ele>377</ele>
        <time>2016-08-15T09:21:45.000Z</time>
      </trkpt>
      <trkpt lat="47.55385" lon="6.80005">
        <ele>376</ele>
        <time>2016-08-15T09:21:46.000Z</time>
      </trkpt>
      <trkpt lat="47.55362" lon="6.79983">
        <ele>377</ele>
        <time>2016-08-15T09:21:47.000Z</time>
      </trkpt>
      <trkpt lat="47.55343" lon="6.79974">
        <ele>376</ele>
        <time>2016-08-15T09:21:48.000Z</time>
      </trkpt>
      <trkpt lat="47.5533" lon="6.7997">
        <ele>371</ele>
        <time>2016-08-15T09:21:49.000Z</time>
      </trkpt>
      <trkpt lat="47.55319" lon="6.79964">
        <ele>371</ele>
        <time>2016-08-15T09:21:50.000Z</time>
      </trkpt>
      <trkpt lat="47.55311" lon="6.79959">
        <ele>371</ele>
        <time>2016-08-15T09:21:51.000Z</time>
      </trkpt>
      <trkpt lat="47.55301" lon="6.79953">
        <ele>371</ele>
        <time>2016-08-15T09:21:52.000Z</time>
      </trkpt>
      <trkpt lat="47.55293" lon="6.79949">
        <ele>371</ele>
        <time>2016-08-15T09:21:53.000Z</time>
      </trkpt>
      <trkpt lat="47.55286" lon="6.79946">
        <ele>370</ele>
        <time>2016-08-15T09:21:54.000Z</time>
      </trkpt>
      <trkpt lat="47.55282" lon="6.79941">
        <ele>370</ele>
        <time>2016-08-15T09:21:55.000Z</time>
      </trkpt>
      <trkpt lat="47.55279" lon="6.79937">
        <ele>370</ele>
        <time>2016-08-15T09:21:56.000Z</time>
      </trkpt>
      <trkpt lat="47.55276" lon="6.79933">
        <ele>370</ele>
        <time>2016-08-15T09:21:57.000Z</time>
      </trkpt>
      <trkpt lat="47.55273" lon="6.7993">
        <ele>370</ele>
        <time>2016-08-15T09:21:58.000Z</time>
      </trkpt>
      <trkpt lat="47.55272" lon="6.79928">
        <ele>370</ele>
        <time>2016-08-15T09:21:59.000Z</time>
      </trkpt>
      <trkpt lat="47.55269" lon="6.79926">
        <ele>370</ele>
        <time>2016-08-15T09:22:00.000Z</time>
      </trkpt>
      <trkpt lat="47.55265" lon="6.79923">
        <ele>369</ele>
        <time>2016-08-15T09:22:01.000Z</time>
      </trkpt>
      <trkpt lat="47.5526" lon="6.79917">
        <ele>371</ele>
        <time>2016-08-15T09:22:02.000Z</time>
      </trkpt>
      <trkpt lat="47.55255" lon="6.79913">
        <ele>370</ele>
        <time>2016-08-15T09:22:03.000Z</time>
      </trkpt>
      <trkpt lat="47.5525" lon="6.79907">
        <ele>369</ele>
        <time>2016-08-15T09:22:04.000Z</time>
      </trkpt>
      <trkpt lat="47.55247" lon="6.79902">
        <ele>369</ele>
        <time>2016-08-15T09:22:05.000Z</time>
      </trkpt>
      <trkpt lat="47.55245" lon="6.79895">
        <ele>370</ele>
        <time>2016-08-15T09:22:06.000Z</time>
      </trkpt>
      <trkpt lat="47.5524" lon="6.79891">
        <ele>370</ele>
        <time>2016-08-15T09:22:07.000Z</time>
      </trkpt>
      <trkpt lat="47.55238" lon="6.79886">
        <ele>370</ele>
        <time>2016-08-15T09:22:08.000Z</time>
      </trkpt>
      <trkpt lat="47.55236" lon="6.79881">
        <ele>370</ele>
        <time>2016-08-15T09:22:09.000Z</time>
      </trkpt>
      <trkpt lat="47.55234" lon="6.79877">
        <ele>371</ele>
        <time>2016-08-15T09:22:10.000Z</time>
      </trkpt>
      <trkpt lat="47.55232" lon="6.79873">
        <ele>371</ele>
        <time>2016-08-15T09:22:11.000Z</time>
      </trkpt>
      <trkpt lat="47.55226" lon="6.79869">
        <ele>371</ele>
        <time>2016-08-15T09:22:12.000Z</time>
      </trkpt>
      <trkpt lat="47.55222" lon="6.79866">
        <ele>371</ele>
        <time>2016-08-15T09:22:13.000Z</time>
      </trkpt>
      <trkpt lat="47.55217" lon="6.79863">
        <ele>371</ele>
        <time>2016-08-15T09:22:14.000Z</time>
      </trkpt>
      <trkpt lat="47.55213" lon="6.7986">
        <ele>371</ele>
        <time>2016-08-15T09:22:15.000Z</time>
      </trkpt>
      <trkpt lat="47.55209" lon="6.79856">
        <ele>371</ele>
        <time>2016-08-15T09:22:16.000Z</time>
      </trkpt>
      <trkpt lat="47.55206" lon="6.79854">
        <ele>371</ele>
        <time>2016-08-15T09:22:17.000Z</time>
      </trkpt>
      <trkpt lat="47.55202" lon="6.79851">
        <ele>371</ele>
        <time>2016-08-15T09:22:18.000Z</time>
      </trkpt>
      <trkpt lat="47.55197" lon="6.79848">
        <ele>371</ele>
        <time>2016-08-15T09:22:19.000Z</time>
      </trkpt>
      <trkpt lat="47.55191" lon="6.79846">
        <ele>370</ele>
        <time>2016-08-15T09:22:20.000Z</time>
      </trkpt>
      <trkpt lat="47.55186" lon="6.79844">
        <ele>370</ele>
        <time>2016-08-15T09:22:21.000Z</time>
      </trkpt>
      <trkpt lat="47.55181" lon="6.79841">
        <ele>370</ele>
        <time>2016-08-15T09:22:22.000Z</time>
      </trkpt>
      <trkpt lat="47.55176" lon="6.79838">
        <ele>370</ele>
        <time>2016-08-15T09:22:23.000Z</time>
      </trkpt>
      <trkpt lat="47.55172" lon="6.79834">
        <ele>370</ele>
        <time>2016-08-15T09:22:24.000Z</time>
      </trkpt>
      <trkpt lat="47.55169" lon="6.7983">
        <ele>371</ele>
        <time>2016-08-15T09:22:25.000Z</time>
      </trkpt>
      <trkpt lat="47.55167" lon="6.79825">
        <ele>370</ele>
        <time>2016-08-15T09:22:26.000Z</time>
      </trkpt>
      <trkpt lat="47.55165" lon="6.7982">
        <ele>370</ele>
        <time>2016-08-15T09:22:27.000Z</time>
      </trkpt>
      <trkpt lat="47.55163" lon="6.79814">
        <ele>370</ele>
        <time>2016-08-15T09:22:28.000Z</time>
      </trkpt>
      <trkpt lat="47.55161" lon="6.79808">
        <ele>370</ele>
        <time>2016-08-15T09:22:29.000Z</time>
      </trkpt>
      <trkpt lat="47.55159" lon="6.79803">
        <ele>370</ele>
        <time>2016-08-15T09:22:30.000Z</time>
      </trkpt>
      <trkpt lat="47.55156" lon="6.79798">
        <ele>371</ele>
        <time>2016-08-15T09:22:31.000Z</time>
      </trkpt>
      <trkpt lat="47.55153" lon="6.79794">
        <ele>371</ele>
        <time>2016-08-15T09:22:32.000Z</time>
      </trkpt>
      <trkpt lat="47.55149" lon="6.79789">
        <ele>371</ele>
        <time>2016-08-15T09:22:33.000Z</time>
      </trkpt>
      <trkpt lat="47.55144" lon="6.79784">
        <ele>371</ele>
        <time>2016-08-15T09:22:34.000Z</time>
      </trkpt>
      <trkpt lat="47.55139" lon="6.79778">
        <ele>371</ele>
        <time>2016-08-15T09:22:35.000Z</time>
      </trkpt>
      <trkpt lat="47.55134" lon="6.79774">
        <ele>371</ele>
        <time>2016-08-15T09:22:36.000Z</time>
      </trkpt>
      <trkpt lat="47.55129" lon="6.79769">
        <ele>371</ele>
        <time>2016-08-15T09:22:37.000Z</time>
      </trkpt>
      <trkpt lat="47.55125" lon="6.79765">
        <ele>371</ele>
        <time>2016-08-15T09:22:38.000Z</time>
      </trkpt>
      <trkpt lat="47.5512" lon="6.79759">
        <ele>370</ele>
        <time>2016-08-15T09:22:39.000Z</time>
      </trkpt>
      <trkpt lat="47.55115" lon="6.79753">
        <ele>370</ele>
        <time>2016-08-15T09:22:40.000Z</time>
      </trkpt>
      <trkpt lat="47.55089" lon="6.79737">
        <ele>371</ele>
        <time>2016-08-15T09:22:41.000Z</time>
      </trkpt>
      <trkpt lat="47.55082" lon="6.79731">
        <ele>367</ele>
        <time>2016-08-15T09:22:42.000Z</time>
      </trkpt>
      <trkpt lat="47.55075" lon="6.79726">
        <ele>367</ele>
        <time>2016-08-15T09:22:43.000Z</time>
      </trkpt>
      <trkpt lat="47.55069" lon="6.79721">
        <ele>367</ele>
        <time>2016-08-15T09:22:44.000Z</time>
      </trkpt>
      <trkpt lat="47.55055" lon="6.79709">
        <ele>366</ele>
        <time>2016-08-15T09:22:45.000Z</time>
      </trkpt>
      <trkpt lat="47.55041" lon="6.79708">
        <ele>366</ele>
        <time>2016-08-15T09:22:46.000Z</time>
      </trkpt>
      <trkpt lat="47.55029" lon="6.79705">
        <ele>365</ele>
        <time>2016-08-15T09:22:47.000Z</time>
      </trkpt>
      <trkpt lat="47.55019" lon="6.79703">
        <ele>365</ele>
        <time>2016-08-15T09:22:48.000Z</time>
      </trkpt>
      <trkpt lat="47.55009" lon="6.79703">
        <ele>364</ele>
        <time>2016-08-15T09:22:49.000Z</time>
      </trkpt>
      <trkpt lat="47.54999" lon="6.79705">
        <ele>360</ele>
        <time>2016-08-15T09:22:50.000Z</time>
      </trkpt>
      <trkpt lat="47.54992" lon="6.79707">
        <ele>360</ele>
        <time>2016-08-15T09:22:51.000Z</time>
      </trkpt>
      <trkpt lat="47.54989" lon="6.7971">
        <ele>360</ele>
        <time>2016-08-15T09:22:52.000Z</time>
      </trkpt>
      <trkpt lat="47.54985" lon="6.79718">
        <ele>360</ele>
        <time>2016-08-15T09:22:53.000Z</time>
      </trkpt>
      <trkpt lat="47.5498" lon="6.79724">
        <ele>360</ele>
        <time>2016-08-15T09:22:54.000Z</time>
      </trkpt>
      <trkpt lat="47.54974" lon="6.79725">
        <ele>360</ele>
        <time>2016-08-15T09:22:55.000Z</time>
      </trkpt>
      <trkpt lat="47.5497" lon="6.7973">
        <ele>360</ele>
        <time>2016-08-15T09:22:56.000Z</time>
      </trkpt>
      <trkpt lat="47.54966" lon="6.79731">
        <ele>360</ele>
        <time>2016-08-15T09:22:57.000Z</time>
      </trkpt>
      <trkpt lat="47.54965" lon="6.79731">
        <ele>360</ele>
        <time>2016-08-15T09:22:58.000Z</time>
      </trkpt>
      <trkpt lat="47.54961" lon="6.79729">
        <ele>360</ele>
        <time>2016-08-15T09:23:02.000Z</time>
      </trkpt>
      <trkpt lat="47.5496" lon="6.79729">
        <ele>360</ele>
        <time>2016-08-15T09:23:03.000Z</time>
      </trkpt>
      <trkpt lat="47.54956" lon="6.79731">
        <ele>360</ele>
        <time>2016-08-15T09:23:10.000Z</time>
      </trkpt>
      <trkpt lat="47.54956" lon="6.79732">
        <ele>360</ele>
        <time>2016-08-15T09:23:11.000Z</time>
      </trkpt>
      <trkpt lat="47.54955" lon="6.79736">
        <ele>360</ele>
        <time>2016-08-15T09:23:14.000Z</time>
      </trkpt>
      <trkpt lat="47.54951" lon="6.7974">
        <ele>360</ele>
        <time>2016-08-15T09:23:15.000Z</time>
      </trkpt>
      <trkpt lat="47.54949" lon="6.79744">
        <ele>359</ele>
        <time>2016-08-15T09:23:16.000Z</time>
      </trkpt>
      <trkpt lat="47.54948" lon="6.79747">
        <ele>359</ele>
        <time>2016-08-15T09:23:17.000Z</time>
      </trkpt>
      <trkpt lat="47.54947" lon="6.79753">
        <ele>359</ele>
        <time>2016-08-15T09:23:20.000Z</time>
      </trkpt>
      <trkpt lat="47.54947" lon="6.79755">
        <ele>359</ele>
        <time>2016-08-15T09:23:21.000Z</time>
      </trkpt>
      <trkpt lat="47.54945" lon="6.79752">
        <ele>359</ele>
        <time>2016-08-15T09:23:26.000Z</time>
      </trkpt>
      <trkpt lat="47.54944" lon="6.79749">
        <ele>359</ele>
        <time>2016-08-15T09:23:27.000Z</time>
      </trkpt>
      <trkpt lat="47.54943" lon="6.79744">
        <ele>359</ele>
        <time>2016-08-15T09:23:29.000Z</time>
      </trkpt>
      <trkpt lat="47.54943" lon="6.79742">
        <ele>359</ele>
        <time>2016-08-15T09:23:30.000Z</time>
      </trkpt>
      <trkpt lat="47.54941" lon="6.79737">
        <ele>359</ele>
        <time>2016-08-15T09:23:32.000Z</time>
      </trkpt>
      <trkpt lat="47.5494" lon="6.79734">
        <ele>359</ele>
        <time>2016-08-15T09:23:33.000Z</time>
      </trkpt>
      <trkpt lat="47.54939" lon="6.7973">
        <ele>359</ele>
        <time>2016-08-15T09:23:34.000Z</time>
      </trkpt>
      <trkpt lat="47.54938" lon="6.79726">
        <ele>359</ele>
        <time>2016-08-15T09:23:35.000Z</time>
      </trkpt>
      <trkpt lat="47.54937" lon="6.79722">
        <ele>359</ele>
        <time>2016-08-15T09:23:36.000Z</time>
      </trkpt>
      <trkpt lat="47.54935" lon="6.79718">
        <ele>359</ele>
        <time>2016-08-15T09:23:37.000Z</time>
      </trkpt>
      <trkpt lat="47.54934" lon="6.79713">
        <ele>359</ele>
        <time>2016-08-15T09:23:38.000Z</time>
      </trkpt>
      <trkpt lat="47.54932" lon="6.79707">
        <ele>359</ele>
        <time>2016-08-15T09:23:39.000Z</time>
      </trkpt>
      <trkpt lat="47.5493" lon="6.79701">
        <ele>359</ele>
        <time>2016-08-15T09:23:40.000Z</time>
      </trkpt>
      <trkpt lat="47.54928" lon="6.79695">
        <ele>358</ele>
        <time>2016-08-15T09:23:41.000Z</time>
      </trkpt>
      <trkpt lat="47.54926" lon="6.79689">
        <ele>358</ele>
        <time>2016-08-15T09:23:42.000Z</time>
      </trkpt>
      <trkpt lat="47.54925" lon="6.79684">
        <ele>358</ele>
        <time>2016-08-15T09:23:43.000Z</time>
      </trkpt>
      <trkpt lat="47.54923" lon="6.79679">
        <ele>358</ele>
        <time>2016-08-15T09:23:44.000Z</time>
      </trkpt>
      <trkpt lat="47.54921" lon="6.79674">
        <ele>357</ele>
        <time>2016-08-15T09:23:45.000Z</time>
      </trkpt>
      <trkpt lat="47.54919" lon="6.7967">
        <ele>357</ele>
        <time>2016-08-15T09:23:46.000Z</time>
      </trkpt>
      <trkpt lat="47.54916" lon="6.79666">
        <ele>356</ele>
        <time>2016-08-15T09:23:47.000Z</time>
      </trkpt>
      <trkpt lat="47.54914" lon="6.79662">
        <ele>356</ele>
        <time>2016-08-15T09:23:48.000Z</time>
      </trkpt>
      <trkpt lat="47.54911" lon="6.79658">
        <ele>356</ele>
        <time>2016-08-15T09:23:49.000Z</time>
      </trkpt>
      <trkpt lat="47.54908" lon="6.79655">
        <ele>356</ele>
        <time>2016-08-15T09:23:50.000Z</time>
      </trkpt>
      <trkpt lat="47.54906" lon="6.79653">
        <ele>357</ele>
        <time>2016-08-15T09:23:51.000Z</time>
      </trkpt>
      <trkpt lat="47.54904" lon="6.7965">
        <ele>357</ele>
        <time>2016-08-15T09:23:52.000Z</time>
      </trkpt>
      <trkpt lat="47.54902" lon="6.79648">
        <ele>357</ele>
        <time>2016-08-15T09:23:53.000Z</time>
      </trkpt>
      <trkpt lat="47.549" lon="6.79645">
        <ele>357</ele>
        <time>2016-08-15T09:23:54.000Z</time>
      </trkpt>
      <trkpt lat="47.54898" lon="6.79642">
        <ele>357</ele>
        <time>2016-08-15T09:23:55.000Z</time>
      </trkpt>
      <trkpt lat="47.54897" lon="6.79639">
        <ele>357</ele>
        <time>2016-08-15T09:23:56.000Z</time>
      </trkpt>
      <trkpt lat="47.54895" lon="6.79636">
        <ele>357</ele>
        <time>2016-08-15T09:23:57.000Z</time>
      </trkpt>
      <trkpt lat="47.54893" lon="6.79633">
        <ele>357</ele>
        <time>2016-08-15T09:23:58.000Z</time>
      </trkpt>
      <trkpt lat="47.54891" lon="6.79631">
        <ele>357</ele>
        <time>2016-08-15T09:23:59.000Z</time>
      </trkpt>
      <trkpt lat="47.5489" lon="6.79628">
        <ele>357</ele>
        <time>2016-08-15T09:24:00.000Z</time>
      </trkpt>
      <trkpt lat="47.54888" lon="6.79624">
        <ele>357</ele>
        <time>2016-08-15T09:24:01.000Z</time>
      </trkpt>
      <trkpt lat="47.54887" lon="6.79621">
        <ele>357</ele>
        <time>2016-08-15T09:24:02.000Z</time>
      </trkpt>
      <trkpt lat="47.54885" lon="6.79617">
        <ele>357</ele>
        <time>2016-08-15T09:24:03.000Z</time>
      </trkpt>
      <trkpt lat="47.54883" lon="6.79614">
        <ele>357</ele>
        <time>2016-08-15T09:24:04.000Z</time>
      </trkpt>
      <trkpt lat="47.54882" lon="6.79611">
        <ele>357</ele>
        <time>2016-08-15T09:24:05.000Z</time>
      </trkpt>
      <trkpt lat="47.54881" lon="6.79609">
        <ele>357</ele>
        <time>2016-08-15T09:24:06.000Z</time>
      </trkpt>
      <trkpt lat="47.54878" lon="6.79603">
        <ele>357</ele>
        <time>2016-08-15T09:24:08.000Z</time>
      </trkpt>
      <trkpt lat="47.54877" lon="6.79601">
        <ele>357</ele>
        <time>2016-08-15T09:24:09.000Z</time>
      </trkpt>
      <trkpt lat="47.54875" lon="6.79596">
        <ele>357</ele>
        <time>2016-08-15T09:24:11.000Z</time>
      </trkpt>
      <trkpt lat="47.54873" lon="6.79594">
        <ele>357</ele>
        <time>2016-08-15T09:24:12.000Z</time>
      </trkpt>
      <trkpt lat="47.54871" lon="6.7959">
        <ele>357</ele>
        <time>2016-08-15T09:24:14.000Z</time>
      </trkpt>
      <trkpt lat="47.5487" lon="6.79587">
        <ele>357</ele>
        <time>2016-08-15T09:24:15.000Z</time>
      </trkpt>
      <trkpt lat="47.54867" lon="6.79582">
        <ele>357</ele>
        <time>2016-08-15T09:24:17.000Z</time>
      </trkpt>
      <trkpt lat="47.54865" lon="6.7958">
        <ele>357</ele>
        <time>2016-08-15T09:24:18.000Z</time>
      </trkpt>
      <trkpt lat="47.54863" lon="6.79576">
        <ele>357</ele>
        <time>2016-08-15T09:24:20.000Z</time>
      </trkpt>
      <trkpt lat="47.54862" lon="6.79574">
        <ele>357</ele>
        <time>2016-08-15T09:24:21.000Z</time>
      </trkpt>
      <trkpt lat="47.54861" lon="6.79571">
        <ele>357</ele>
        <time>2016-08-15T09:24:22.000Z</time>
      </trkpt>
      <trkpt lat="47.54859" lon="6.79568">
        <ele>357</ele>
        <time>2016-08-15T09:24:23.000Z</time>
      </trkpt>
      <trkpt lat="47.54858" lon="6.79564">
        <ele>357</ele>
        <time>2016-08-15T09:24:24.000Z</time>
      </trkpt>
      <trkpt lat="47.54856" lon="6.79561">
        <ele>357</ele>
        <time>2016-08-15T09:24:25.000Z</time>
      </trkpt>
      <trkpt lat="47.54853" lon="6.79557">
        <ele>357</ele>
        <time>2016-08-15T09:24:26.000Z</time>
      </trkpt>
      <trkpt lat="47.54851" lon="6.79554">
        <ele>357</ele>
        <time>2016-08-15T09:24:27.000Z</time>
      </trkpt>
      <trkpt lat="47.54849" lon="6.79551">
        <ele>357</ele>
        <time>2016-08-15T09:24:28.000Z</time>
      </trkpt>
      <trkpt lat="47.54846" lon="6.79547">
        <ele>357</ele>
        <time>2016-08-15T09:24:29.000Z</time>
      </trkpt>
      <trkpt lat="47.54844" lon="6.79544">
        <ele>357</ele>
        <time>2016-08-15T09:24:30.000Z</time>
      </trkpt>
      <trkpt lat="47.54842" lon="6.7954">
        <ele>358</ele>
        <time>2016-08-15T09:24:31.000Z</time>
      </trkpt>
      <trkpt lat="47.54839" lon="6.79535">
        <ele>358</ele>
        <time>2016-08-15T09:24:32.000Z</time>
      </trkpt>
      <trkpt lat="47.54836" lon="6.7953">
        <ele>358</ele>
        <time>2016-08-15T09:24:33.000Z</time>
      </trkpt>
      <trkpt lat="47.54834" lon="6.79525">
        <ele>358</ele>
        <time>2016-08-15T09:24:34.000Z</time>
      </trkpt>
      <trkpt lat="47.54831" lon="6.7952">
        <ele>360</ele>
        <time>2016-08-15T09:24:35.000Z</time>
      </trkpt>
      <trkpt lat="47.54829" lon="6.79515">
        <ele>360</ele>
        <time>2016-08-15T09:24:36.000Z</time>
      </trkpt>
      <trkpt lat="47.54828" lon="6.7951">
        <ele>360</ele>
        <time>2016-08-15T09:24:37.000Z</time>
      </trkpt>
      <trkpt lat="47.54827" lon="6.79505">
        <ele>360</ele>
        <time>2016-08-15T09:24:38.000Z</time>
      </trkpt>
      <trkpt lat="47.54827" lon="6.79501">
        <ele>360</ele>
        <time>2016-08-15T09:24:39.000Z</time>
      </trkpt>
      <trkpt lat="47.54826" lon="6.79497">
        <ele>359</ele>
        <time>2016-08-15T09:24:40.000Z</time>
      </trkpt>
      <trkpt lat="47.54824" lon="6.79493">
        <ele>359</ele>
        <time>2016-08-15T09:24:41.000Z</time>
      </trkpt>
      <trkpt lat="47.54822" lon="6.79489">
        <ele>359</ele>
        <time>2016-08-15T09:24:42.000Z</time>
      </trkpt>
      <trkpt lat="47.54821" lon="6.79484">
        <ele>359</ele>
        <time>2016-08-15T09:24:43.000Z</time>
      </trkpt>
      <trkpt lat="47.5482" lon="6.7948">
        <ele>358</ele>
        <time>2016-08-15T09:24:44.000Z</time>
      </trkpt>
      <trkpt lat="47.5482" lon="6.79477">
        <ele>358</ele>
        <time>2016-08-15T09:24:45.000Z</time>
      </trkpt>
      <trkpt lat="47.5482" lon="6.79471">
        <ele>358</ele>
        <time>2016-08-15T09:24:49.000Z</time>
      </trkpt>
      <trkpt lat="47.54818" lon="6.7947">
        <ele>358</ele>
        <time>2016-08-15T09:24:50.000Z</time>
      </trkpt>
      <trkpt lat="47.54816" lon="6.79465">
        <ele>358</ele>
        <time>2016-08-15T09:24:54.000Z</time>
      </trkpt>
      <trkpt lat="47.54815" lon="6.79464">
        <ele>358</ele>
        <time>2016-08-15T09:24:55.000Z</time>
      </trkpt>
      <trkpt lat="47.54812" lon="6.7946">
        <ele>358</ele>
        <time>2016-08-15T09:24:59.000Z</time>
      </trkpt>
      <trkpt lat="47.54812" lon="6.79459">
        <ele>358</ele>
        <time>2016-08-15T09:25:00.000Z</time>
      </trkpt>
      <trkpt lat="47.54811" lon="6.79453">
        <ele>357</ele>
        <time>2016-08-15T09:25:23.000Z</time>
      </trkpt>
      <trkpt lat="47.54812" lon="6.79452">
        <ele>357</ele>
        <time>2016-08-15T09:25:24.000Z</time>
      </trkpt>
      <trkpt lat="47.54813" lon="6.79447">
        <ele>357</ele>
        <time>2016-08-15T09:26:39.000Z</time>
      </trkpt>
      <trkpt lat="47.54814" lon="6.79445">
        <ele>357</ele>
        <time>2016-08-15T09:26:40.000Z</time>
      </trkpt>
      <trkpt lat="47.54817" lon="6.79442">
        <ele>357</ele>
        <time>2016-08-15T09:26:42.000Z</time>
      </trkpt>
      <trkpt lat="47.54818" lon="6.79441">
        <ele>357</ele>
        <time>2016-08-15T09:26:43.000Z</time>
      </trkpt>
      <trkpt lat="47.54822" lon="6.79437">
        <ele>357</ele>
        <time>2016-08-15T09:27:07.000Z</time>
      </trkpt>
      <trkpt lat="47.54822" lon="6.79436">
        <ele>357</ele>
        <time>2016-08-15T09:27:08.000Z</time>
      </trkpt>
      <trkpt lat="47.54824" lon="6.7943">
        <ele>356</ele>
        <time>2016-08-15T09:27:19.000Z</time>
      </trkpt>
      <trkpt lat="47.54824" lon="6.7943">
        <ele>356</ele>
        <time>2016-08-15T09:27:20.000Z</time>
      </trkpt>
      <trkpt lat="47.54827" lon="6.79426">
        <ele>356</ele>
        <time>2016-08-15T09:27:34.000Z</time>
      </trkpt>
      <trkpt lat="47.54827" lon="6.79426">
        <ele>356</ele>
        <time>2016-08-15T09:27:35.000Z</time>
      </trkpt>
      <trkpt lat="47.54831" lon="6.79428">
        <ele>356</ele>
        <time>2016-08-15T09:27:47.000Z</time>
      </trkpt>
      <trkpt lat="47.54832" lon="6.79428">
        <ele>356</ele>
        <time>2016-08-15T09:27:48.000Z</time>
      </trkpt>
      <trkpt lat="47.54836" lon="6.79426">
        <ele>355</ele>
        <time>2016-08-15T09:27:55.000Z</time>
      </trkpt>
      <trkpt lat="47.54836" lon="6.79425">
        <ele>355</ele>
        <time>2016-08-15T09:27:56.000Z</time>
      </trkpt>
      <trkpt lat="47.5484" lon="6.79424">
        <ele>355</ele>
        <time>2016-08-15T09:28:11.000Z</time>
      </trkpt>
      <trkpt lat="47.5484" lon="6.79424">
        <ele>355</ele>
        <time>2016-08-15T09:28:12.000Z</time>
      </trkpt>
      <trkpt lat="47.54844" lon="6.79423">
        <ele>355</ele>
        <time>2016-08-15T09:28:28.000Z</time>
      </trkpt>
      <trkpt lat="47.54845" lon="6.79424">
        <ele>355</ele>
        <time>2016-08-15T09:28:29.000Z</time>
      </trkpt>
      <trkpt lat="47.54848" lon="6.79419">
        <ele>355</ele>
        <time>2016-08-15T09:29:00.000Z</time>
      </trkpt>
      <trkpt lat="47.54849" lon="6.79419">
        <ele>355</ele>
        <time>2016-08-15T09:29:01.000Z</time>
      </trkpt>
      <trkpt lat="47.54844" lon="6.79418">
        <ele>355</ele>
        <time>2016-08-15T09:29:36.000Z</time>
      </trkpt>
      <trkpt lat="47.54844" lon="6.79418">
        <ele>355</ele>
        <time>2016-08-15T09:29:37.000Z</time>
      </trkpt>
      <trkpt lat="47.5484" lon="6.79418">
        <ele>355</ele>
        <time>2016-08-15T09:29:45.000Z</time>
      </trkpt>
      <trkpt lat="47.54839" lon="6.79418">
        <ele>355</ele>
        <time>2016-08-15T09:29:46.000Z</time>
      </trkpt>
      <trkpt lat="47.54835" lon="6.79421">
        <ele>355</ele>
        <time>2016-08-15T09:29:52.000Z</time>
      </trkpt>
      <trkpt lat="47.54834" lon="6.79421">
        <ele>355</ele>
        <time>2016-08-15T09:29:53.000Z</time>
      </trkpt>
      <trkpt lat="47.5483" lon="6.79424">
        <ele>356</ele>
        <time>2016-08-15T09:29:59.000Z</time>
      </trkpt>
      <trkpt lat="47.5483" lon="6.79424">
        <ele>356</ele>
        <time>2016-08-15T09:30:00.000Z</time>
      </trkpt>
      <trkpt lat="47.54826" lon="6.79425">
        <ele>356</ele>
        <time>2016-08-15T09:30:08.000Z</time>
      </trkpt>
      <trkpt lat="47.54825" lon="6.79426">
        <ele>356</ele>
        <time>2016-08-15T09:30:09.000Z</time>
      </trkpt>
      <trkpt lat="47.54821" lon="6.79428">
        <ele>356</ele>
        <time>2016-08-15T09:30:13.000Z</time>
      </trkpt>
      <trkpt lat="47.5482" lon="6.79429">
        <ele>356</ele>
        <time>2016-08-15T09:30:14.000Z</time>
      </trkpt>
      <trkpt lat="47.54817" lon="6.79431">
        <ele>356</ele>
        <time>2016-08-15T09:30:17.000Z</time>
      </trkpt>
      <trkpt lat="47.54816" lon="6.79432">
        <ele>357</ele>
        <time>2016-08-15T09:30:18.000Z</time>
      </trkpt>
      <trkpt lat="47.54813" lon="6.79436">
        <ele>357</ele>
        <time>2016-08-15T09:30:20.000Z</time>
      </trkpt>
      <trkpt lat="47.54811" lon="6.79438">
        <ele>357</ele>
        <time>2016-08-15T09:30:21.000Z</time>
      </trkpt>
      <trkpt lat="47.54807" lon="6.79441">
        <ele>357</ele>
        <time>2016-08-15T09:30:35.000Z</time>
      </trkpt>
      <trkpt lat="47.54807" lon="6.79441">
        <ele>357</ele>
        <time>2016-08-15T09:30:36.000Z</time>
      </trkpt>
      <trkpt lat="47.54803" lon="6.79439">
        <ele>357</ele>
        <time>2016-08-15T09:30:40.000Z</time>
      </trkpt>
      <trkpt lat="47.54802" lon="6.79438">
        <ele>357</ele>
        <time>2016-08-15T09:30:41.000Z</time>
      </trkpt>
      <trkpt lat="47.54798" lon="6.79436">
        <ele>357</ele>
        <time>2016-08-15T09:30:44.000Z</time>
      </trkpt>
      <trkpt lat="47.54796" lon="6.79436">
        <ele>357</ele>
        <time>2016-08-15T09:30:45.000Z</time>
      </trkpt>
      <trkpt lat="47.54792" lon="6.79439">
        <ele>357</ele>
        <time>2016-08-15T09:30:48.000Z</time>
      </trkpt>
      <trkpt lat="47.5479" lon="6.79441">
        <ele>357</ele>
        <time>2016-08-15T09:30:49.000Z</time>
      </trkpt>
      <trkpt lat="47.54787" lon="6.79443">
        <ele>357</ele>
        <time>2016-08-15T09:30:50.000Z</time>
      </trkpt>
      <trkpt lat="47.54783" lon="6.79444">
        <ele>357</ele>
        <time>2016-08-15T09:30:51.000Z</time>
      </trkpt>
      <trkpt lat="47.5478" lon="6.79446">
        <ele>357</ele>
        <time>2016-08-15T09:30:52.000Z</time>
      </trkpt>
      <trkpt lat="47.54776" lon="6.79448">
        <ele>357</ele>
        <time>2016-08-15T09:30:53.000Z</time>
      </trkpt>
      <trkpt lat="47.54772" lon="6.79449">
        <ele>357</ele>
        <time>2016-08-15T09:30:54.000Z</time>
      </trkpt>
      <trkpt lat="47.54767" lon="6.79451">
        <ele>357</ele>
        <time>2016-08-15T09:30:55.000Z</time>
      </trkpt>
      <trkpt lat="47.54763" lon="6.79453">
        <ele>357</ele>
        <time>2016-08-15T09:30:56.000Z</time>
      </trkpt>
      <trkpt lat="47.54758" lon="6.79454">
        <ele>357</ele>
        <time>2016-08-15T09:30:57.000Z</time>
      </trkpt>
      <trkpt lat="47.54754" lon="6.79455">
        <ele>357</ele>
        <time>2016-08-15T09:30:58.000Z</time>
      </trkpt>
      <trkpt lat="47.54749" lon="6.79456">
        <ele>357</ele>
        <time>2016-08-15T09:30:59.000Z</time>
      </trkpt>
      <trkpt lat="47.54744" lon="6.79457">
        <ele>357</ele>
        <time>2016-08-15T09:31:00.000Z</time>
      </trkpt>
      <trkpt lat="47.5474" lon="6.79458">
        <ele>357</ele>
        <time>2016-08-15T09:31:01.000Z</time>
      </trkpt>
      <trkpt lat="47.54735" lon="6.79459">
        <ele>357</ele>
        <time>2016-08-15T09:31:02.000Z</time>
      </trkpt>
      <trkpt lat="47.54731" lon="6.79459">
        <ele>357</ele>
        <time>2016-08-15T09:31:03.000Z</time>
      </trkpt>
      <trkpt lat="47.54727" lon="6.79459">
        <ele>357</ele>
        <time>2016-08-15T09:31:04.000Z</time>
      </trkpt>
      <trkpt lat="47.54724" lon="6.79456">
        <ele>357</ele>
        <time>2016-08-15T09:31:06.000Z</time>
      </trkpt>
      <trkpt lat="47.54724" lon="6.79453">
        <ele>357</ele>
        <time>2016-08-15T09:31:07.000Z</time>
      </trkpt>
      <trkpt lat="47.54723" lon="6.7945">
        <ele>356</ele>
        <time>2016-08-15T09:31:08.000Z</time>
      </trkpt>
      <trkpt lat="47.54703" lon="6.79449">
        <ele>356</ele>
        <time>2016-08-15T09:31:09.000Z</time>
      </trkpt>
      <trkpt lat="47.547" lon="6.79445">
        <ele>356</ele>
        <time>2016-08-15T09:31:10.000Z</time>
      </trkpt>
      <trkpt lat="47.54695" lon="6.79441">
        <ele>356</ele>
        <time>2016-08-15T09:31:11.000Z</time>
      </trkpt>
      <trkpt lat="47.54693" lon="6.79438">
        <ele>356</ele>
        <time>2016-08-15T09:31:12.000Z</time>
      </trkpt>
      <trkpt lat="47.54692" lon="6.79437">
        <ele>356</ele>
        <time>2016-08-15T09:31:13.000Z</time>
      </trkpt>
      <trkpt lat="47.54691" lon="6.79438">
        <ele>356</ele>
        <time>2016-08-15T09:31:16.000Z</time>
      </trkpt>
      <trkpt lat="47.54686" lon="6.79434">
        <ele>355</ele>
        <time>2016-08-15T09:31:17.000Z</time>
      </trkpt>
      <trkpt lat="47.54682" lon="6.79432">
        <ele>355</ele>
        <time>2016-08-15T09:31:18.000Z</time>
      </trkpt>
      <trkpt lat="47.5468" lon="6.79431">
        <ele>355</ele>
        <time>2016-08-15T09:31:19.000Z</time>
      </trkpt>
      <trkpt lat="47.54678" lon="6.79429">
        <ele>355</ele>
        <time>2016-08-15T09:31:20.000Z</time>
      </trkpt>
      <trkpt lat="47.54674" lon="6.79427">
        <ele>354</ele>
        <time>2016-08-15T09:31:21.000Z</time>
      </trkpt>
      <trkpt lat="47.54671" lon="6.79426">
        <ele>354</ele>
        <time>2016-08-15T09:31:22.000Z</time>
      </trkpt>
      <trkpt lat="47.54668" lon="6.79424">
        <ele>354</ele>
        <time>2016-08-15T09:31:23.000Z</time>
      </trkpt>
      <trkpt lat="47.54664" lon="6.79422">
        <ele>354</ele>
        <time>2016-08-15T09:31:24.000Z</time>
      </trkpt>
      <trkpt lat="47.54661" lon="6.79421">
        <ele>354</ele>
        <time>2016-08-15T09:31:25.000Z</time>
      </trkpt>
      <trkpt lat="47.54658" lon="6.7942">
        <ele>354</ele>
        <time>2016-08-15T09:31:26.000Z</time>
      </trkpt>
      <trkpt lat="47.54654" lon="6.79419">
        <ele>354</ele>
        <time>2016-08-15T09:31:27.000Z</time>
      </trkpt>
      <trkpt lat="47.5465" lon="6.79418">
        <ele>355</ele>
        <time>2016-08-15T09:31:28.000Z</time>
      </trkpt>
      <trkpt lat="47.54646" lon="6.79417">
        <ele>355</ele>
        <time>2016-08-15T09:31:29.000Z</time>
      </trkpt>
      <trkpt lat="47.54641" lon="6.79417">
        <ele>355</ele>
        <time>2016-08-15T09:31:30.000Z</time>
      </trkpt>
      <trkpt lat="47.54635" lon="6.79417">
        <ele>355</ele>
        <time>2016-08-15T09:31:31.000Z</time>
      </trkpt>
      <trkpt lat="47.5463" lon="6.79418">
        <ele>355</ele>
        <time>2016-08-15T09:31:32.000Z</time>
      </trkpt>
      <trkpt lat="47.54625" lon="6.79419">
        <ele>356</ele>
        <time>2016-08-15T09:31:33.000Z</time>
      </trkpt>
      <trkpt lat="47.54621" lon="6.79419">
        <ele>356</ele>
        <time>2016-08-15T09:31:34.000Z</time>
      </trkpt>
      <trkpt lat="47.54617" lon="6.79419">
        <ele>356</ele>
        <time>2016-08-15T09:31:35.000Z</time>
      </trkpt>
      <trkpt lat="47.54613" lon="6.79419">
        <ele>356</ele>
        <time>2016-08-15T09:31:36.000Z</time>
      </trkpt>
      <trkpt lat="47.5461" lon="6.79418">
        <ele>355</ele>
        <time>2016-08-15T09:31:37.000Z</time>
      </trkpt>
      <trkpt lat="47.54607" lon="6.79416">
        <ele>354</ele>
        <time>2016-08-15T09:31:38.000Z</time>
      </trkpt>
      <trkpt lat="47.54604" lon="6.79415">
        <ele>354</ele>
        <time>2016-08-15T09:31:39.000Z</time>
      </trkpt>
      <trkpt lat="47.54601" lon="6.79413">
        <ele>354</ele>
        <time>2016-08-15T09:31:40.000Z</time>
      </trkpt>
      <trkpt lat="47.54599" lon="6.79411">
        <ele>354</ele>
        <time>2016-08-15T09:31:41.000Z</time>
      </trkpt>
      <trkpt lat="47.54596" lon="6.79408">
        <ele>354</ele>
        <time>2016-08-15T09:31:42.000Z</time>
      </trkpt>
      <trkpt lat="47.54594" lon="6.79405">
        <ele>354</ele>
        <time>2016-08-15T09:31:43.000Z</time>
      </trkpt>
      <trkpt lat="47.54591" lon="6.79402">
        <ele>354</ele>
        <time>2016-08-15T09:31:44.000Z</time>
      </trkpt>
      <trkpt lat="47.54588" lon="6.79399">
        <ele>354</ele>
        <time>2016-08-15T09:31:45.000Z</time>
      </trkpt>
      <trkpt lat="47.54584" lon="6.79396">
        <ele>354</ele>
        <time>2016-08-15T09:31:46.000Z</time>
      </trkpt>
      <trkpt lat="47.54579" lon="6.79394">
        <ele>354</ele>
        <time>2016-08-15T09:31:47.000Z</time>
      </trkpt>
      <trkpt lat="47.54573" lon="6.79393">
        <ele>354</ele>
        <time>2016-08-15T09:31:48.000Z</time>
      </trkpt>
      <trkpt lat="47.54567" lon="6.79392">
        <ele>354</ele>
        <time>2016-08-15T09:31:49.000Z</time>
      </trkpt>
      <trkpt lat="47.54545" lon="6.79384">
        <ele>354</ele>
        <time>2016-08-15T09:31:50.000Z</time>
      </trkpt>
      <trkpt lat="47.54542" lon="6.79384">
        <ele>354</ele>
        <time>2016-08-15T09:31:51.000Z</time>
      </trkpt>
      <trkpt lat="47.54538" lon="6.79383">
        <ele>354</ele>
        <time>2016-08-15T09:31:52.000Z</time>
      </trkpt>
      <trkpt lat="47.5453" lon="6.79378">
        <ele>354</ele>
        <time>2016-08-15T09:31:53.000Z</time>
      </trkpt>
      <trkpt lat="47.54525" lon="6.79376">
        <ele>354</ele>
        <time>2016-08-15T09:31:54.000Z</time>
      </trkpt>
      <trkpt lat="47.54521" lon="6.79373">
        <ele>354</ele>
        <time>2016-08-15T09:31:55.000Z</time>
      </trkpt>
      <trkpt lat="47.54517" lon="6.79374">
        <ele>354</ele>
        <time>2016-08-15T09:31:56.000Z</time>
      </trkpt>
      <trkpt lat="47.54513" lon="6.79376">
        <ele>354</ele>
        <time>2016-08-15T09:31:57.000Z</time>
      </trkpt>
      <trkpt lat="47.5451" lon="6.79376">
        <ele>354</ele>
        <time>2016-08-15T09:31:58.000Z</time>
      </trkpt>
      <trkpt lat="47.54505" lon="6.79374">
        <ele>354</ele>
        <time>2016-08-15T09:31:59.000Z</time>
      </trkpt>
      <trkpt lat="47.54501" lon="6.79373">
        <ele>354</ele>
        <time>2016-08-15T09:32:00.000Z</time>
      </trkpt>
      <trkpt lat="47.54498" lon="6.79372">
        <ele>353</ele>
        <time>2016-08-15T09:32:01.000Z</time>
      </trkpt>
      <trkpt lat="47.54494" lon="6.79372">
        <ele>353</ele>
        <time>2016-08-15T09:32:02.000Z</time>
      </trkpt>
      <trkpt lat="47.54491" lon="6.79371">
        <ele>353</ele>
        <time>2016-08-15T09:32:03.000Z</time>
      </trkpt>
      <trkpt lat="47.54488" lon="6.7937">
        <ele>353</ele>
        <time>2016-08-15T09:32:04.000Z</time>
      </trkpt>
      <trkpt lat="47.54484" lon="6.7937">
        <ele>353</ele>
        <time>2016-08-15T09:32:05.000Z</time>
      </trkpt>
      <trkpt lat="47.54481" lon="6.79369">
        <ele>353</ele>
        <time>2016-08-15T09:32:06.000Z</time>
      </trkpt>
      <trkpt lat="47.54477" lon="6.79369">
        <ele>353</ele>
        <time>2016-08-15T09:32:07.000Z</time>
      </trkpt>
      <trkpt lat="47.54473" lon="6.79369">
        <ele>353</ele>
        <time>2016-08-15T09:32:08.000Z</time>
      </trkpt>
      <trkpt lat="47.54469" lon="6.79368">
        <ele>353</ele>
        <time>2016-08-15T09:32:09.000Z</time>
      </trkpt>
      <trkpt lat="47.54464" lon="6.79368">
        <ele>353</ele>
        <time>2016-08-15T09:32:10.000Z</time>
      </trkpt>
      <trkpt lat="47.54459" lon="6.79368">
        <ele>353</ele>
        <time>2016-08-15T09:32:11.000Z</time>
      </trkpt>
      <trkpt lat="47.54453" lon="6.79367">
        <ele>353</ele>
        <time>2016-08-15T09:32:12.000Z</time>
      </trkpt>
      <trkpt lat="47.54448" lon="6.79365">
        <ele>353</ele>
        <time>2016-08-15T09:32:13.000Z</time>
      </trkpt>
      <trkpt lat="47.54444" lon="6.79364">
        <ele>353</ele>
        <time>2016-08-15T09:32:14.000Z</time>
      </trkpt>
      <trkpt lat="47.54441" lon="6.79363">
        <ele>353</ele>
        <time>2016-08-15T09:32:15.000Z</time>
      </trkpt>
      <trkpt lat="47.54438" lon="6.79362">
        <ele>353</ele>
        <time>2016-08-15T09:32:16.000Z</time>
      </trkpt>
      <trkpt lat="47.54435" lon="6.79361">
        <ele>353</ele>
        <time>2016-08-15T09:32:17.000Z</time>
      </trkpt>
      <trkpt lat="47.54433" lon="6.7936">
        <ele>353</ele>
        <time>2016-08-15T09:32:18.000Z</time>
      </trkpt>
      <trkpt lat="47.54431" lon="6.79358">
        <ele>353</ele>
        <time>2016-08-15T09:32:19.000Z</time>
      </trkpt>
      <trkpt lat="47.54428" lon="6.79356">
        <ele>352</ele>
        <time>2016-08-15T09:32:21.000Z</time>
      </trkpt>
      <trkpt lat="47.54427" lon="6.79353">
        <ele>352</ele>
        <time>2016-08-15T09:32:22.000Z</time>
      </trkpt>
      <trkpt lat="47.54424" lon="6.79348">
        <ele>352</ele>
        <time>2016-08-15T09:32:24.000Z</time>
      </trkpt>
      <trkpt lat="47.54423" lon="6.79345">
        <ele>352</ele>
        <time>2016-08-15T09:32:25.000Z</time>
      </trkpt>
      <trkpt lat="47.5442" lon="6.79341">
        <ele>352</ele>
        <time>2016-08-15T09:32:27.000Z</time>
      </trkpt>
      <trkpt lat="47.54418" lon="6.79338">
        <ele>351</ele>
        <time>2016-08-15T09:32:28.000Z</time>
      </trkpt>
      <trkpt lat="47.54416" lon="6.79335">
        <ele>351</ele>
        <time>2016-08-15T09:32:29.000Z</time>
      </trkpt>
      <trkpt lat="47.54415" lon="6.79332">
        <ele>351</ele>
        <time>2016-08-15T09:32:30.000Z</time>
      </trkpt>
      <trkpt lat="47.54414" lon="6.79329">
        <ele>351</ele>
        <time>2016-08-15T09:32:31.000Z</time>
      </trkpt>
      <trkpt lat="47.54413" lon="6.79326">
        <ele>352</ele>
        <time>2016-08-15T09:32:32.000Z</time>
      </trkpt>
      <trkpt lat="47.54411" lon="6.79322">
        <ele>352</ele>
        <time>2016-08-15T09:32:34.000Z</time>
      </trkpt>
      <trkpt lat="47.5441" lon="6.79319">
        <ele>352</ele>
        <time>2016-08-15T09:32:35.000Z</time>
      </trkpt>
      <trkpt lat="47.54408" lon="6.79314">
        <ele>352</ele>
        <time>2016-08-15T09:32:37.000Z</time>
      </trkpt>
      <trkpt lat="47.54407" lon="6.79312">
        <ele>352</ele>
        <time>2016-08-15T09:32:38.000Z</time>
      </trkpt>
      <trkpt lat="47.54404" lon="6.79307">
        <ele>353</ele>
        <time>2016-08-15T09:32:40.000Z</time>
      </trkpt>
      <trkpt lat="47.54403" lon="6.79306">
        <ele>353</ele>
        <time>2016-08-15T09:32:41.000Z</time>
      </trkpt>
      <trkpt lat="47.544" lon="6.79302">
        <ele>353</ele>
        <time>2016-08-15T09:32:43.000Z</time>
      </trkpt>
      <trkpt lat="47.54399" lon="6.793">
        <ele>353</ele>
        <time>2016-08-15T09:32:44.000Z</time>
      </trkpt>
      <trkpt lat="47.54396" lon="6.79298">
        <ele>353</ele>
        <time>2016-08-15T09:32:47.000Z</time>
      </trkpt>
      <trkpt lat="47.54395" lon="6.79296">
        <ele>353</ele>
        <time>2016-08-15T09:32:48.000Z</time>
      </trkpt>
      <trkpt lat="47.54393" lon="6.79295">
        <ele>353</ele>
        <time>2016-08-15T09:32:49.000Z</time>
      </trkpt>
      <trkpt lat="47.54391" lon="6.79292">
        <ele>353</ele>
        <time>2016-08-15T09:32:50.000Z</time>
      </trkpt>
      <trkpt lat="47.5439" lon="6.79289">
        <ele>353</ele>
        <time>2016-08-15T09:32:51.000Z</time>
      </trkpt>
      <trkpt lat="47.54389" lon="6.79285">
        <ele>353</ele>
        <time>2016-08-15T09:32:52.000Z</time>
      </trkpt>
      <trkpt lat="47.54387" lon="6.79282">
        <ele>353</ele>
        <time>2016-08-15T09:32:53.000Z</time>
      </trkpt>
      <trkpt lat="47.54386" lon="6.79279">
        <ele>353</ele>
        <time>2016-08-15T09:32:54.000Z</time>
      </trkpt>
      <trkpt lat="47.54384" lon="6.79276">
        <ele>353</ele>
        <time>2016-08-15T09:32:55.000Z</time>
      </trkpt>
      <trkpt lat="47.54382" lon="6.79274">
        <ele>354</ele>
        <time>2016-08-15T09:32:56.000Z</time>
      </trkpt>
      <trkpt lat="47.54379" lon="6.79271">
        <ele>354</ele>
        <time>2016-08-15T09:32:58.000Z</time>
      </trkpt>
      <trkpt lat="47.54377" lon="6.79269">
        <ele>354</ele>
        <time>2016-08-15T09:32:59.000Z</time>
      </trkpt>
      <trkpt lat="47.54373" lon="6.79266">
        <ele>354</ele>
        <time>2016-08-15T09:33:01.000Z</time>
      </trkpt>
      <trkpt lat="47.54371" lon="6.79264">
        <ele>354</ele>
        <time>2016-08-15T09:33:02.000Z</time>
      </trkpt>
      <trkpt lat="47.54367" lon="6.79261">
        <ele>354</ele>
        <time>2016-08-15T09:33:04.000Z</time>
      </trkpt>
      <trkpt lat="47.54365" lon="6.7926">
        <ele>354</ele>
        <time>2016-08-15T09:33:05.000Z</time>
      </trkpt>
      <trkpt lat="47.54363" lon="6.79259">
        <ele>355</ele>
        <time>2016-08-15T09:33:06.000Z</time>
      </trkpt>
      <trkpt lat="47.54361" lon="6.79257">
        <ele>355</ele>
        <time>2016-08-15T09:33:07.000Z</time>
      </trkpt>
      <trkpt lat="47.54359" lon="6.79256">
        <ele>355</ele>
        <time>2016-08-15T09:33:08.000Z</time>
      </trkpt>
      <trkpt lat="47.54357" lon="6.79254">
        <ele>355</ele>
        <time>2016-08-15T09:33:09.000Z</time>
      </trkpt>
      <trkpt lat="47.54355" lon="6.79251">
        <ele>355</ele>
        <time>2016-08-15T09:33:10.000Z</time>
      </trkpt>
      <trkpt lat="47.54352" lon="6.79249">
        <ele>358</ele>
        <time>2016-08-15T09:33:11.000Z</time>
      </trkpt>
      <trkpt lat="47.5435" lon="6.79246">
        <ele>358</ele>
        <time>2016-08-15T09:33:12.000Z</time>
      </trkpt>
      <trkpt lat="47.54348" lon="6.79244">
        <ele>358</ele>
        <time>2016-08-15T09:33:13.000Z</time>
      </trkpt>
      <trkpt lat="47.54346" lon="6.79241">
        <ele>358</ele>
        <time>2016-08-15T09:33:14.000Z</time>
      </trkpt>
      <trkpt lat="47.54344" lon="6.79238">
        <ele>358</ele>
        <time>2016-08-15T09:33:15.000Z</time>
      </trkpt>
      <trkpt lat="47.54341" lon="6.79235">
        <ele>358</ele>
        <time>2016-08-15T09:33:16.000Z</time>
      </trkpt>
      <trkpt lat="47.5434" lon="6.79232">
        <ele>358</ele>
        <time>2016-08-15T09:33:17.000Z</time>
      </trkpt>
      <trkpt lat="47.54337" lon="6.79229">
        <ele>358</ele>
        <time>2016-08-15T09:33:18.000Z</time>
      </trkpt>
      <trkpt lat="47.54335" lon="6.79227">
        <ele>358</ele>
        <time>2016-08-15T09:33:19.000Z</time>
      </trkpt>
      <trkpt lat="47.54332" lon="6.79226">
        <ele>359</ele>
        <time>2016-08-15T09:33:20.000Z</time>
      </trkpt>
      <trkpt lat="47.54328" lon="6.79224">
        <ele>359</ele>
        <time>2016-08-15T09:33:21.000Z</time>
      </trkpt>
      <trkpt lat="47.54324" lon="6.79222">
        <ele>359</ele>
        <time>2016-08-15T09:33:22.000Z</time>
      </trkpt>
      <trkpt lat="47.5432" lon="6.7922">
        <ele>359</ele>
        <time>2016-08-15T09:33:23.000Z</time>
      </trkpt>
      <trkpt lat="47.54316" lon="6.79217">
        <ele>359</ele>
        <time>2016-08-15T09:33:24.000Z</time>
      </trkpt>
      <trkpt lat="47.54313" lon="6.79214">
        <ele>359</ele>
        <time>2016-08-15T09:33:25.000Z</time>
      </trkpt>
      <trkpt lat="47.54309" lon="6.79211">
        <ele>359</ele>
        <time>2016-08-15T09:33:26.000Z</time>
      </trkpt>
      <trkpt lat="47.54306" lon="6.79208">
        <ele>359</ele>
        <time>2016-08-15T09:33:27.000Z</time>
      </trkpt>
      <trkpt lat="47.54303" lon="6.79205">
        <ele>359</ele>
        <time>2016-08-15T09:33:28.000Z</time>
      </trkpt>
      <trkpt lat="47.543" lon="6.79202">
        <ele>359</ele>
        <time>2016-08-15T09:33:29.000Z</time>
      </trkpt>
      <trkpt lat="47.54297" lon="6.792">
        <ele>359</ele>
        <time>2016-08-15T09:33:30.000Z</time>
      </trkpt>
      <trkpt lat="47.54294" lon="6.79198">
        <ele>359</ele>
        <time>2016-08-15T09:33:31.000Z</time>
      </trkpt>
      <trkpt lat="47.54292" lon="6.79196">
        <ele>359</ele>
        <time>2016-08-15T09:33:32.000Z</time>
      </trkpt>
      <trkpt lat="47.54289" lon="6.79194">
        <ele>359</ele>
        <time>2016-08-15T09:33:33.000Z</time>
      </trkpt>
      <trkpt lat="47.54287" lon="6.79192">
        <ele>359</ele>
        <time>2016-08-15T09:33:34.000Z</time>
      </trkpt>
      <trkpt lat="47.54284" lon="6.79189">
        <ele>359</ele>
        <time>2016-08-15T09:33:35.000Z</time>
      </trkpt>
      <trkpt lat="47.54281" lon="6.79186">
        <ele>359</ele>
        <time>2016-08-15T09:33:36.000Z</time>
      </trkpt>
      <trkpt lat="47.54278" lon="6.79182">
        <ele>359</ele>
        <time>2016-08-15T09:33:37.000Z</time>
      </trkpt>
      <trkpt lat="47.54275" lon="6.79178">
        <ele>359</ele>
        <time>2016-08-15T09:33:38.000Z</time>
      </trkpt>
      <trkpt lat="47.54272" lon="6.79175">
        <ele>359</ele>
        <time>2016-08-15T09:33:39.000Z</time>
      </trkpt>
      <trkpt lat="47.54269" lon="6.79172">
        <ele>359</ele>
        <time>2016-08-15T09:33:40.000Z</time>
      </trkpt>
      <trkpt lat="47.54265" lon="6.79169">
        <ele>358</ele>
        <time>2016-08-15T09:33:41.000Z</time>
      </trkpt>
      <trkpt lat="47.54261" lon="6.79166">
        <ele>359</ele>
        <time>2016-08-15T09:33:42.000Z</time>
      </trkpt>
      <trkpt lat="47.54258" lon="6.79163">
        <ele>359</ele>
        <time>2016-08-15T09:33:43.000Z</time>
      </trkpt>
      <trkpt lat="47.54254" lon="6.7916">
        <ele>359</ele>
        <time>2016-08-15T09:33:44.000Z</time>
      </trkpt>
      <trkpt lat="47.54251" lon="6.79158">
        <ele>359</ele>
        <time>2016-08-15T09:33:45.000Z</time>
      </trkpt>
      <trkpt lat="47.54248" lon="6.79156">
        <ele>358</ele>
        <time>2016-08-15T09:33:46.000Z</time>
      </trkpt>
      <trkpt lat="47.54244" lon="6.79153">
        <ele>358</ele>
        <time>2016-08-15T09:33:47.000Z</time>
      </trkpt>
      <trkpt lat="47.54239" lon="6.79151">
        <ele>358</ele>
        <time>2016-08-15T09:33:48.000Z</time>
      </trkpt>
      <trkpt lat="47.54235" lon="6.79147">
        <ele>358</ele>
        <time>2016-08-15T09:33:49.000Z</time>
      </trkpt>
      <trkpt lat="47.5423" lon="6.79144">
        <ele>358</ele>
        <time>2016-08-15T09:33:50.000Z</time>
      </trkpt>
      <trkpt lat="47.54225" lon="6.7914">
        <ele>358</ele>
        <time>2016-08-15T09:33:51.000Z</time>
      </trkpt>
      <trkpt lat="47.5422" lon="6.79137">
        <ele>358</ele>
        <time>2016-08-15T09:33:52.000Z</time>
      </trkpt>
      <trkpt lat="47.54215" lon="6.79134">
        <ele>357</ele>
        <time>2016-08-15T09:33:53.000Z</time>
      </trkpt>
      <trkpt lat="47.5421" lon="6.79132">
        <ele>357</ele>
        <time>2016-08-15T09:33:54.000Z</time>
      </trkpt>
      <trkpt lat="47.54205" lon="6.7913">
        <ele>357</ele>
        <time>2016-08-15T09:33:55.000Z</time>
      </trkpt>
      <trkpt lat="47.54201" lon="6.79127">
        <ele>357</ele>
        <time>2016-08-15T09:33:56.000Z</time>
      </trkpt>
      <trkpt lat="47.54197" lon="6.79125">
        <ele>357</ele>
        <time>2016-08-15T09:33:57.000Z</time>
      </trkpt>
      <trkpt lat="47.54193" lon="6.79122">
        <ele>357</ele>
        <time>2016-08-15T09:33:58.000Z</time>
      </trkpt>
      <trkpt lat="47.54188" lon="6.79119">
        <ele>357</ele>
        <time>2016-08-15T09:33:59.000Z</time>
      </trkpt>
      <trkpt lat="47.54184" lon="6.79117">
        <ele>357</ele>
        <time>2016-08-15T09:34:00.000Z</time>
      </trkpt>
      <trkpt lat="47.54179" lon="6.79114">
        <ele>357</ele>
        <time>2016-08-15T09:34:01.000Z</time>
      </trkpt>
      <trkpt lat="47.54175" lon="6.79111">
        <ele>358</ele>
        <time>2016-08-15T09:34:02.000Z</time>
      </trkpt>
      <trkpt lat="47.54171" lon="6.79108">
        <ele>358</ele>
        <time>2016-08-15T09:34:03.000Z</time>
      </trkpt>
      <trkpt lat="47.54167" lon="6.79106">
        <ele>358</ele>
        <time>2016-08-15T09:34:04.000Z</time>
      </trkpt>
      <trkpt lat="47.54163" lon="6.79104">
        <ele>356</ele>
        <time>2016-08-15T09:34:05.000Z</time>
      </trkpt>
      <trkpt lat="47.54159" lon="6.79101">
        <ele>356</ele>
        <time>2016-08-15T09:34:06.000Z</time>
      </trkpt>
      <trkpt lat="47.54154" lon="6.79098">
        <ele>356</ele>
        <time>2016-08-15T09:34:07.000Z</time>
      </trkpt>
      <trkpt lat="47.5415" lon="6.79095">
        <ele>356</ele>
        <time>2016-08-15T09:34:08.000Z</time>
      </trkpt>
      <trkpt lat="47.54145" lon="6.79092">
        <ele>356</ele>
        <time>2016-08-15T09:34:09.000Z</time>
      </trkpt>
      <trkpt lat="47.54141" lon="6.79088">
        <ele>356</ele>
        <time>2016-08-15T09:34:10.000Z</time>
      </trkpt>
      <trkpt lat="47.54137" lon="6.79085">
        <ele>356</ele>
        <time>2016-08-15T09:34:11.000Z</time>
      </trkpt>
      <trkpt lat="47.54133" lon="6.79081">
        <ele>355</ele>
        <time>2016-08-15T09:34:12.000Z</time>
      </trkpt>
      <trkpt lat="47.5413" lon="6.79078">
        <ele>355</ele>
        <time>2016-08-15T09:34:13.000Z</time>
      </trkpt>
      <trkpt lat="47.54127" lon="6.79075">
        <ele>355</ele>
        <time>2016-08-15T09:34:14.000Z</time>
      </trkpt>
      <trkpt lat="47.54124" lon="6.79072">
        <ele>355</ele>
        <time>2016-08-15T09:34:15.000Z</time>
      </trkpt>
      <trkpt lat="47.54121" lon="6.7907">
        <ele>355</ele>
        <time>2016-08-15T09:34:16.000Z</time>
      </trkpt>
      <trkpt lat="47.54119" lon="6.79067">
        <ele>355</ele>
        <time>2016-08-15T09:34:17.000Z</time>
      </trkpt>
      <trkpt lat="47.54116" lon="6.79063">
        <ele>354</ele>
        <time>2016-08-15T09:34:19.000Z</time>
      </trkpt>
      <trkpt lat="47.54114" lon="6.79062">
        <ele>354</ele>
        <time>2016-08-15T09:34:20.000Z</time>
      </trkpt>
      <trkpt lat="47.54112" lon="6.7906">
        <ele>354</ele>
        <time>2016-08-15T09:34:21.000Z</time>
      </trkpt>
      <trkpt lat="47.5411" lon="6.79058">
        <ele>354</ele>
        <time>2016-08-15T09:34:22.000Z</time>
      </trkpt>
      <trkpt lat="47.54106" lon="6.79055">
        <ele>354</ele>
        <time>2016-08-15T09:34:24.000Z</time>
      </trkpt>
      <trkpt lat="47.54105" lon="6.79053">
        <ele>354</ele>
        <time>2016-08-15T09:34:25.000Z</time>
      </trkpt>
      <trkpt lat="47.54101" lon="6.79051">
        <ele>354</ele>
        <time>2016-08-15T09:34:33.000Z</time>
      </trkpt>
      <trkpt lat="47.541" lon="6.79051">
        <ele>354</ele>
        <time>2016-08-15T09:34:34.000Z</time>
      </trkpt>
      <trkpt lat="47.54098" lon="6.79051">
        <ele>354</ele>
        <time>2016-08-15T09:35:13.000Z</time>
      </trkpt>
      <trkpt lat="47.54095" lon="6.79051">
        <ele>354</ele>
        <time>2016-08-15T09:35:14.000Z</time>
      </trkpt>
      <trkpt lat="47.54092" lon="6.7905">
        <ele>354</ele>
        <time>2016-08-15T09:35:15.000Z</time>
      </trkpt>
      <trkpt lat="47.54088" lon="6.7905">
        <ele>354</ele>
        <time>2016-08-15T09:35:16.000Z</time>
      </trkpt>
      <trkpt lat="47.54084" lon="6.79049">
        <ele>354</ele>
        <time>2016-08-15T09:35:18.000Z</time>
      </trkpt>
      <trkpt lat="47.54083" lon="6.79048">
        <ele>348</ele>
        <time>2016-08-15T09:35:19.000Z</time>
      </trkpt>
      <trkpt lat="47.5408" lon="6.79043">
        <ele>348</ele>
        <time>2016-08-15T09:35:36.000Z</time>
      </trkpt>
      <trkpt lat="47.54079" lon="6.79043">
        <ele>348</ele>
        <time>2016-08-15T09:35:37.000Z</time>
      </trkpt>
      <trkpt lat="47.54076" lon="6.79039">
        <ele>347</ele>
        <time>2016-08-15T09:35:40.000Z</time>
      </trkpt>
      <trkpt lat="47.54075" lon="6.79038">
        <ele>347</ele>
        <time>2016-08-15T09:35:41.000Z</time>
      </trkpt>
      <trkpt lat="47.54071" lon="6.79034">
        <ele>347</ele>
        <time>2016-08-15T09:35:43.000Z</time>
      </trkpt>
      <trkpt lat="47.5407" lon="6.79032">
        <ele>347</ele>
        <time>2016-08-15T09:35:44.000Z</time>
      </trkpt>
      <trkpt lat="47.54067" lon="6.79029">
        <ele>347</ele>
        <time>2016-08-15T09:35:45.000Z</time>
      </trkpt>
      <trkpt lat="47.54064" lon="6.79025">
        <ele>347</ele>
        <time>2016-08-15T09:35:46.000Z</time>
      </trkpt>
      <trkpt lat="47.5405" lon="6.79011">
        <ele>345</ele>
        <time>2016-08-15T09:35:47.000Z</time>
      </trkpt>
      <trkpt lat="47.54046" lon="6.79002">
        <ele>345</ele>
        <time>2016-08-15T09:35:48.000Z</time>
      </trkpt>
      <trkpt lat="47.54042" lon="6.78996">
        <ele>343</ele>
        <time>2016-08-15T09:35:49.000Z</time>
      </trkpt>
      <trkpt lat="47.54036" lon="6.78992">
        <ele>343</ele>
        <time>2016-08-15T09:35:50.000Z</time>
      </trkpt>
      <trkpt lat="47.54031" lon="6.78986">
        <ele>342</ele>
        <time>2016-08-15T09:35:51.000Z</time>
      </trkpt>
      <trkpt lat="47.54027" lon="6.7898">
        <ele>342</ele>
        <time>2016-08-15T09:35:52.000Z</time>
      </trkpt>
      <trkpt lat="47.54022" lon="6.78971">
        <ele>342</ele>
        <time>2016-08-15T09:35:53.000Z</time>
      </trkpt>
      <trkpt lat="47.54016" lon="6.78965">
        <ele>342</ele>
        <time>2016-08-15T09:35:54.000Z</time>
      </trkpt>
      <trkpt lat="47.5401" lon="6.78954">
        <ele>341</ele>
        <time>2016-08-15T09:35:55.000Z</time>
      </trkpt>
      <trkpt lat="47.54006" lon="6.78945">
        <ele>341</ele>
        <time>2016-08-15T09:35:56.000Z</time>
      </trkpt>
      <trkpt lat="47.54001" lon="6.78937">
        <ele>341</ele>
        <time>2016-08-15T09:35:57.000Z</time>
      </trkpt>
      <trkpt lat="47.53996" lon="6.78929">
        <ele>337</ele>
        <time>2016-08-15T09:35:58.000Z</time>
      </trkpt>
      <trkpt lat="47.53992" lon="6.78922">
        <ele>337</ele>
        <time>2016-08-15T09:35:59.000Z</time>
      </trkpt>
      <trkpt lat="47.53989" lon="6.78916">
        <ele>336</ele>
        <time>2016-08-15T09:36:00.000Z</time>
      </trkpt>
      <trkpt lat="47.53985" lon="6.7891">
        <ele>336</ele>
        <time>2016-08-15T09:36:01.000Z</time>
      </trkpt>
      <trkpt lat="47.53982" lon="6.78905">
        <ele>335</ele>
        <time>2016-08-15T09:36:02.000Z</time>
      </trkpt>
      <trkpt lat="47.53977" lon="6.78898">
        <ele>335</ele>
        <time>2016-08-15T09:36:03.000Z</time>
      </trkpt>
      <trkpt lat="47.53973" lon="6.78891">
        <ele>335</ele>
        <time>2016-08-15T09:36:04.000Z</time>
      </trkpt>
      <trkpt lat="47.53969" lon="6.78883">
        <ele>334</ele>
        <time>2016-08-15T09:36:05.000Z</time>
      </trkpt>
      <trkpt lat="47.53965" lon="6.78877">
        <ele>334</ele>
        <time>2016-08-15T09:36:06.000Z</time>
      </trkpt>
      <trkpt lat="47.53961" lon="6.7887">
        <ele>334</ele>
        <time>2016-08-15T09:36:07.000Z</time>
      </trkpt>
      <trkpt lat="47.53957" lon="6.78861">
        <ele>334</ele>
        <time>2016-08-15T09:36:08.000Z</time>
      </trkpt>
      <trkpt lat="47.53954" lon="6.78854">
        <ele>334</ele>
        <time>2016-08-15T09:36:09.000Z</time>
      </trkpt>
      <trkpt lat="47.53948" lon="6.7885">
        <ele>333</ele>
        <time>2016-08-15T09:36:10.000Z</time>
      </trkpt>
      <trkpt lat="47.53943" lon="6.78845">
        <ele>333</ele>
        <time>2016-08-15T09:36:11.000Z</time>
      </trkpt>
      <trkpt lat="47.53939" lon="6.7884">
        <ele>332</ele>
        <time>2016-08-15T09:36:12.000Z</time>
      </trkpt>
      <trkpt lat="47.53934" lon="6.78836">
        <ele>332</ele>
        <time>2016-08-15T09:36:13.000Z</time>
      </trkpt>
      <trkpt lat="47.53929" lon="6.78832">
        <ele>331</ele>
        <time>2016-08-15T09:36:14.000Z</time>
      </trkpt>
      <trkpt lat="47.53924" lon="6.78829">
        <ele>331</ele>
        <time>2016-08-15T09:36:15.000Z</time>
      </trkpt>
      <trkpt lat="47.53919" lon="6.78827">
        <ele>331</ele>
        <time>2016-08-15T09:36:16.000Z</time>
      </trkpt>
      <trkpt lat="47.53914" lon="6.78827">
        <ele>329</ele>
        <time>2016-08-15T09:36:17.000Z</time>
      </trkpt>
      <trkpt lat="47.53909" lon="6.78827">
        <ele>329</ele>
        <time>2016-08-15T09:36:18.000Z</time>
      </trkpt>
      <trkpt lat="47.53904" lon="6.78828">
        <ele>328</ele>
        <time>2016-08-15T09:36:19.000Z</time>
      </trkpt>
      <trkpt lat="47.539" lon="6.78829">
        <ele>328</ele>
        <time>2016-08-15T09:36:20.000Z</time>
      </trkpt>
      <trkpt lat="47.53897" lon="6.78829">
        <ele>328</ele>
        <time>2016-08-15T09:36:21.000Z</time>
      </trkpt>
      <trkpt lat="47.53893" lon="6.7883">
        <ele>327</ele>
        <time>2016-08-15T09:36:22.000Z</time>
      </trkpt>
      <trkpt lat="47.53887" lon="6.78833">
        <ele>327</ele>
        <time>2016-08-15T09:36:24.000Z</time>
      </trkpt>
      <trkpt lat="47.53883" lon="6.78834">
        <ele>328</ele>
        <time>2016-08-15T09:36:25.000Z</time>
      </trkpt>
      <trkpt lat="47.5388" lon="6.78836">
        <ele>328</ele>
        <time>2016-08-15T09:36:26.000Z</time>
      </trkpt>
      <trkpt lat="47.53877" lon="6.78837">
        <ele>327</ele>
        <time>2016-08-15T09:36:27.000Z</time>
      </trkpt>
      <trkpt lat="47.53874" lon="6.78839">
        <ele>327</ele>
        <time>2016-08-15T09:36:28.000Z</time>
      </trkpt>
      <trkpt lat="47.5387" lon="6.78838">
        <ele>327</ele>
        <time>2016-08-15T09:36:30.000Z</time>
      </trkpt>
      <trkpt lat="47.53869" lon="6.78837">
        <ele>327</ele>
        <time>2016-08-15T09:36:31.000Z</time>
      </trkpt>
      <trkpt lat="47.53867" lon="6.78839">
        <ele>327</ele>
        <time>2016-08-15T09:36:38.000Z</time>
      </trkpt>
      <trkpt lat="47.53865" lon="6.78841">
        <ele>327</ele>
        <time>2016-08-15T09:36:39.000Z</time>
      </trkpt>
      <trkpt lat="47.5386" lon="6.78847">
        <ele>327</ele>
        <time>2016-08-15T09:36:40.000Z</time>
      </trkpt>
      <trkpt lat="47.53856" lon="6.78853">
        <ele>327</ele>
        <time>2016-08-15T09:36:41.000Z</time>
      </trkpt>
      <trkpt lat="47.53852" lon="6.78858">
        <ele>327</ele>
        <time>2016-08-15T09:36:42.000Z</time>
      </trkpt>
      <trkpt lat="47.53847" lon="6.78864">
        <ele>327</ele>
        <time>2016-08-15T09:36:43.000Z</time>
      </trkpt>
      <trkpt lat="47.53843" lon="6.78869">
        <ele>327</ele>
        <time>2016-08-15T09:36:44.000Z</time>
      </trkpt>
      <trkpt lat="47.53838" lon="6.78874">
        <ele>327</ele>
        <time>2016-08-15T09:36:45.000Z</time>
      </trkpt>
      <trkpt lat="47.53833" lon="6.78879">
        <ele>325</ele>
        <time>2016-08-15T09:36:46.000Z</time>
      </trkpt>
      <trkpt lat="47.53829" lon="6.78883">
        <ele>325</ele>
        <time>2016-08-15T09:36:47.000Z</time>
      </trkpt>
      <trkpt lat="47.53824" lon="6.7889">
        <ele>325</ele>
        <time>2016-08-15T09:36:48.000Z</time>
      </trkpt>
      <trkpt lat="47.5382" lon="6.78896">
        <ele>325</ele>
        <time>2016-08-15T09:36:49.000Z</time>
      </trkpt>
      <trkpt lat="47.53817" lon="6.78905">
        <ele>325</ele>
        <time>2016-08-15T09:36:50.000Z</time>
      </trkpt>
      <trkpt lat="47.53813" lon="6.78911">
        <ele>325</ele>
        <time>2016-08-15T09:36:51.000Z</time>
      </trkpt>
      <trkpt lat="47.53809" lon="6.78917">
        <ele>327</ele>
        <time>2016-08-15T09:36:52.000Z</time>
      </trkpt>
      <trkpt lat="47.53805" lon="6.78923">
        <ele>327</ele>
        <time>2016-08-15T09:36:53.000Z</time>
      </trkpt>
      <trkpt lat="47.53801" lon="6.7893">
        <ele>327</ele>
        <time>2016-08-15T09:36:54.000Z</time>
      </trkpt>
      <trkpt lat="47.53797" lon="6.78938">
        <ele>327</ele>
        <time>2016-08-15T09:36:55.000Z</time>
      </trkpt>
      <trkpt lat="47.53794" lon="6.78945">
        <ele>327</ele>
        <time>2016-08-15T09:36:56.000Z</time>
      </trkpt>
      <trkpt lat="47.53791" lon="6.78948">
        <ele>327</ele>
        <time>2016-08-15T09:36:57.000Z</time>
      </trkpt>
      <trkpt lat="47.53787" lon="6.78955">
        <ele>327</ele>
        <time>2016-08-15T09:36:58.000Z</time>
      </trkpt>
      <trkpt lat="47.53784" lon="6.78961">
        <ele>327</ele>
        <time>2016-08-15T09:36:59.000Z</time>
      </trkpt>
      <trkpt lat="47.53781" lon="6.78965">
        <ele>327</ele>
        <time>2016-08-15T09:37:00.000Z</time>
      </trkpt>
      <trkpt lat="47.53778" lon="6.78969">
        <ele>327</ele>
        <time>2016-08-15T09:37:01.000Z</time>
      </trkpt>
      <trkpt lat="47.53775" lon="6.78974">
        <ele>327</ele>
        <time>2016-08-15T09:37:02.000Z</time>
      </trkpt>
      <trkpt lat="47.53773" lon="6.78978">
        <ele>327</ele>
        <time>2016-08-15T09:37:03.000Z</time>
      </trkpt>
      <trkpt lat="47.5377" lon="6.78982">
        <ele>327</ele>
        <time>2016-08-15T09:37:04.000Z</time>
      </trkpt>
      <trkpt lat="47.53767" lon="6.78985">
        <ele>327</ele>
        <time>2016-08-15T09:37:05.000Z</time>
      </trkpt>
      <trkpt lat="47.53764" lon="6.78989">
        <ele>327</ele>
        <time>2016-08-15T09:37:06.000Z</time>
      </trkpt>
      <trkpt lat="47.53761" lon="6.78993">
        <ele>327</ele>
        <time>2016-08-15T09:37:07.000Z</time>
      </trkpt>
      <trkpt lat="47.53758" lon="6.78998">
        <ele>327</ele>
        <time>2016-08-15T09:37:08.000Z</time>
      </trkpt>
      <trkpt lat="47.53756" lon="6.79003">
        <ele>329</ele>
        <time>2016-08-15T09:37:09.000Z</time>
      </trkpt>
      <trkpt lat="47.53754" lon="6.79008">
        <ele>329</ele>
        <time>2016-08-15T09:37:10.000Z</time>
      </trkpt>
      <trkpt lat="47.53752" lon="6.79013">
        <ele>330</ele>
        <time>2016-08-15T09:37:11.000Z</time>
      </trkpt>
      <trkpt lat="47.5375" lon="6.79018">
        <ele>331</ele>
        <time>2016-08-15T09:37:12.000Z</time>
      </trkpt>
      <trkpt lat="47.53748" lon="6.79024">
        <ele>328</ele>
        <time>2016-08-15T09:37:13.000Z</time>
      </trkpt>
      <trkpt lat="47.53747" lon="6.7903">
        <ele>329</ele>
        <time>2016-08-15T09:37:14.000Z</time>
      </trkpt>
      <trkpt lat="47.53745" lon="6.79035">
        <ele>329</ele>
        <time>2016-08-15T09:37:15.000Z</time>
      </trkpt>
      <trkpt lat="47.53742" lon="6.79041">
        <ele>329</ele>
        <time>2016-08-15T09:37:16.000Z</time>
      </trkpt>
      <trkpt lat="47.5374" lon="6.79046">
        <ele>330</ele>
        <time>2016-08-15T09:37:17.000Z</time>
      </trkpt>
      <trkpt lat="47.53738" lon="6.79052">
        <ele>330</ele>
        <time>2016-08-15T09:37:18.000Z</time>
      </trkpt>
      <trkpt lat="47.53736" lon="6.79058">
        <ele>331</ele>
        <time>2016-08-15T09:37:19.000Z</time>
      </trkpt>
      <trkpt lat="47.53734" lon="6.79063">
        <ele>331</ele>
        <time>2016-08-15T09:37:20.000Z</time>
      </trkpt>
      <trkpt lat="47.53733" lon="6.79069">
        <ele>331</ele>
        <time>2016-08-15T09:37:21.000Z</time>
      </trkpt>
      <trkpt lat="47.53731" lon="6.79074">
        <ele>332</ele>
        <time>2016-08-15T09:37:22.000Z</time>
      </trkpt>
      <trkpt lat="47.5373" lon="6.7908">
        <ele>332</ele>
        <time>2016-08-15T09:37:23.000Z</time>
      </trkpt>
      <trkpt lat="47.53728" lon="6.79085">
        <ele>335</ele>
        <time>2016-08-15T09:37:24.000Z</time>
      </trkpt>
      <trkpt lat="47.53726" lon="6.7909">
        <ele>334</ele>
        <time>2016-08-15T09:37:25.000Z</time>
      </trkpt>
      <trkpt lat="47.53724" lon="6.79095">
        <ele>334</ele>
        <time>2016-08-15T09:37:26.000Z</time>
      </trkpt>
      <trkpt lat="47.53722" lon="6.791">
        <ele>334</ele>
        <time>2016-08-15T09:37:27.000Z</time>
      </trkpt>
      <trkpt lat="47.5372" lon="6.79105">
        <ele>334</ele>
        <time>2016-08-15T09:37:28.000Z</time>
      </trkpt>
      <trkpt lat="47.53718" lon="6.79109">
        <ele>334</ele>
        <time>2016-08-15T09:37:29.000Z</time>
      </trkpt>
      <trkpt lat="47.53716" lon="6.79113">
        <ele>334</ele>
        <time>2016-08-15T09:37:30.000Z</time>
      </trkpt>
      <trkpt lat="47.53713" lon="6.79118">
        <ele>334</ele>
        <time>2016-08-15T09:37:31.000Z</time>
      </trkpt>
      <trkpt lat="47.53711" lon="6.79124">
        <ele>334</ele>
        <time>2016-08-15T09:37:32.000Z</time>
      </trkpt>
      <trkpt lat="47.5371" lon="6.7913">
        <ele>334</ele>
        <time>2016-08-15T09:37:33.000Z</time>
      </trkpt>
      <trkpt lat="47.53708" lon="6.79136">
        <ele>334</ele>
        <time>2016-08-15T09:37:34.000Z</time>
      </trkpt>
      <trkpt lat="47.53706" lon="6.79143">
        <ele>334</ele>
        <time>2016-08-15T09:37:35.000Z</time>
      </trkpt>
      <trkpt lat="47.53704" lon="6.79149">
        <ele>334</ele>
        <time>2016-08-15T09:37:36.000Z</time>
      </trkpt>
      <trkpt lat="47.53702" lon="6.79157">
        <ele>333</ele>
        <time>2016-08-15T09:37:37.000Z</time>
      </trkpt>
      <trkpt lat="47.53699" lon="6.79164">
        <ele>333</ele>
        <time>2016-08-15T09:37:38.000Z</time>
      </trkpt>
      <trkpt lat="47.53697" lon="6.7917">
        <ele>336</ele>
        <time>2016-08-15T09:37:39.000Z</time>
      </trkpt>
      <trkpt lat="47.53695" lon="6.79175">
        <ele>336</ele>
        <time>2016-08-15T09:37:40.000Z</time>
      </trkpt>
      <trkpt lat="47.53692" lon="6.7918">
        <ele>336</ele>
        <time>2016-08-15T09:37:41.000Z</time>
      </trkpt>
      <trkpt lat="47.5369" lon="6.79185">
        <ele>336</ele>
        <time>2016-08-15T09:37:42.000Z</time>
      </trkpt>
      <trkpt lat="47.53687" lon="6.7919">
        <ele>336</ele>
        <time>2016-08-15T09:37:43.000Z</time>
      </trkpt>
      <trkpt lat="47.53685" lon="6.79196">
        <ele>336</ele>
        <time>2016-08-15T09:37:44.000Z</time>
      </trkpt>
      <trkpt lat="47.53683" lon="6.792">
        <ele>336</ele>
        <time>2016-08-15T09:37:45.000Z</time>
      </trkpt>
      <trkpt lat="47.5368" lon="6.79206">
        <ele>336</ele>
        <time>2016-08-15T09:37:46.000Z</time>
      </trkpt>
      <trkpt lat="47.53677" lon="6.79211">
        <ele>336</ele>
        <time>2016-08-15T09:37:47.000Z</time>
      </trkpt>
      <trkpt lat="47.53674" lon="6.79217">
        <ele>336</ele>
        <time>2016-08-15T09:37:48.000Z</time>
      </trkpt>
      <trkpt lat="47.53672" lon="6.79222">
        <ele>336</ele>
        <time>2016-08-15T09:37:49.000Z</time>
      </trkpt>
      <trkpt lat="47.53669" lon="6.79228">
        <ele>335</ele>
        <time>2016-08-15T09:37:50.000Z</time>
      </trkpt>
      <trkpt lat="47.53666" lon="6.79234">
        <ele>329</ele>
        <time>2016-08-15T09:37:51.000Z</time>
      </trkpt>
      <trkpt lat="47.53662" lon="6.7924">
        <ele>330</ele>
        <time>2016-08-15T09:37:52.000Z</time>
      </trkpt>
      <trkpt lat="47.53658" lon="6.79245">
        <ele>330</ele>
        <time>2016-08-15T09:37:53.000Z</time>
      </trkpt>
      <trkpt lat="47.53655" lon="6.79249">
        <ele>329</ele>
        <time>2016-08-15T09:37:54.000Z</time>
      </trkpt>
      <trkpt lat="47.53651" lon="6.79255">
        <ele>330</ele>
        <time>2016-08-15T09:37:55.000Z</time>
      </trkpt>
      <trkpt lat="47.53647" lon="6.79257">
        <ele>330</ele>
        <time>2016-08-15T09:37:56.000Z</time>
      </trkpt>
      <trkpt lat="47.53642" lon="6.79262">
        <ele>329</ele>
        <time>2016-08-15T09:37:57.000Z</time>
      </trkpt>
      <trkpt lat="47.53638" lon="6.79267">
        <ele>329</ele>
        <time>2016-08-15T09:37:58.000Z</time>
      </trkpt>
      <trkpt lat="47.53633" lon="6.79272">
        <ele>329</ele>
        <time>2016-08-15T09:37:59.000Z</time>
      </trkpt>
      <trkpt lat="47.53629" lon="6.79277">
        <ele>328</ele>
        <time>2016-08-15T09:38:00.000Z</time>
      </trkpt>
      <trkpt lat="47.53624" lon="6.79283">
        <ele>328</ele>
        <time>2016-08-15T09:38:01.000Z</time>
      </trkpt>
      <trkpt lat="47.5362" lon="6.79289">
        <ele>328</ele>
        <time>2016-08-15T09:38:02.000Z</time>
      </trkpt>
      <trkpt lat="47.53616" lon="6.79295">
        <ele>328</ele>
        <time>2016-08-15T09:38:03.000Z</time>
      </trkpt>
      <trkpt lat="47.53612" lon="6.79301">
        <ele>328</ele>
        <time>2016-08-15T09:38:04.000Z</time>
      </trkpt>
      <trkpt lat="47.53609" lon="6.79306">
        <ele>328</ele>
        <time>2016-08-15T09:38:05.000Z</time>
      </trkpt>
      <trkpt lat="47.53607" lon="6.79311">
        <ele>327</ele>
        <time>2016-08-15T09:38:06.000Z</time>
      </trkpt>
      <trkpt lat="47.53604" lon="6.79316">
        <ele>327</ele>
        <time>2016-08-15T09:38:07.000Z</time>
      </trkpt>
      <trkpt lat="47.53601" lon="6.79322">
        <ele>327</ele>
        <time>2016-08-15T09:38:08.000Z</time>
      </trkpt>
      <trkpt lat="47.536" lon="6.79328">
        <ele>327</ele>
        <time>2016-08-15T09:38:09.000Z</time>
      </trkpt>
      <trkpt lat="47.53599" lon="6.79334">
        <ele>328</ele>
        <time>2016-08-15T09:38:10.000Z</time>
      </trkpt>
      <trkpt lat="47.53598" lon="6.79337">
        <ele>328</ele>
        <time>2016-08-15T09:38:11.000Z</time>
      </trkpt>
      <trkpt lat="47.53596" lon="6.79339">
        <ele>328</ele>
        <time>2016-08-15T09:38:12.000Z</time>
      </trkpt>
      <trkpt lat="47.53594" lon="6.79344">
        <ele>328</ele>
        <time>2016-08-15T09:38:14.000Z</time>
      </trkpt>
      <trkpt lat="47.53593" lon="6.79345">
        <ele>328</ele>
        <time>2016-08-15T09:38:15.000Z</time>
      </trkpt>
      <trkpt lat="47.53589" lon="6.79347">
        <ele>328</ele>
        <time>2016-08-15T09:38:18.000Z</time>
      </trkpt>
      <trkpt lat="47.53587" lon="6.79347">
        <ele>328</ele>
        <time>2016-08-15T09:38:19.000Z</time>
      </trkpt>
      <trkpt lat="47.53584" lon="6.79348">
        <ele>328</ele>
        <time>2016-08-15T09:38:21.000Z</time>
      </trkpt>
      <trkpt lat="47.53581" lon="6.79349">
        <ele>326</ele>
        <time>2016-08-15T09:38:22.000Z</time>
      </trkpt>
      <trkpt lat="47.53577" lon="6.7935">
        <ele>326</ele>
        <time>2016-08-15T09:38:23.000Z</time>
      </trkpt>
      <trkpt lat="47.53573" lon="6.79351">
        <ele>326</ele>
        <time>2016-08-15T09:38:24.000Z</time>
      </trkpt>
      <trkpt lat="47.5357" lon="6.79352">
        <ele>326</ele>
        <time>2016-08-15T09:38:25.000Z</time>
      </trkpt>
      <trkpt lat="47.53568" lon="6.79351">
        <ele>326</ele>
        <time>2016-08-15T09:38:26.000Z</time>
      </trkpt>
      <trkpt lat="47.53569" lon="6.79345">
        <ele>326</ele>
        <time>2016-08-15T09:38:29.000Z</time>
      </trkpt>
      <trkpt lat="47.53572" lon="6.79344">
        <ele>326</ele>
        <time>2016-08-15T09:38:30.000Z</time>
      </trkpt>
      <trkpt lat="47.53575" lon="6.79343">
        <ele>326</ele>
        <time>2016-08-15T09:38:31.000Z</time>
      </trkpt>
      <trkpt lat="47.53579" lon="6.79343">
        <ele>326</ele>
        <time>2016-08-15T09:38:32.000Z</time>
      </trkpt>
      <trkpt lat="47.53583" lon="6.79341">
        <ele>326</ele>
        <time>2016-08-15T09:38:33.000Z</time>
      </trkpt>
      <trkpt lat="47.53587" lon="6.79339">
        <ele>326</ele>
        <time>2016-08-15T09:38:34.000Z</time>
      </trkpt>
      <trkpt lat="47.5359" lon="6.79336">
        <ele>327</ele>
        <time>2016-08-15T09:38:35.000Z</time>
      </trkpt>
      <trkpt lat="47.53593" lon="6.79333">
        <ele>327</ele>
        <time>2016-08-15T09:38:36.000Z</time>
      </trkpt>
      <trkpt lat="47.53597" lon="6.7933">
        <ele>326</ele>
        <time>2016-08-15T09:38:37.000Z</time>
      </trkpt>
      <trkpt lat="47.53599" lon="6.79326">
        <ele>327</ele>
        <time>2016-08-15T09:38:38.000Z</time>
      </trkpt>
      <trkpt lat="47.53602" lon="6.79321">
        <ele>327</ele>
        <time>2016-08-15T09:38:39.000Z</time>
      </trkpt>
      <trkpt lat="47.53604" lon="6.79315">
        <ele>327</ele>
        <time>2016-08-15T09:38:40.000Z</time>
      </trkpt>
      <trkpt lat="47.53608" lon="6.79305">
        <ele>327</ele>
        <time>2016-08-15T09:38:41.000Z</time>
      </trkpt>
      <trkpt lat="47.5361" lon="6.79298">
        <ele>328</ele>
        <time>2016-08-15T09:38:42.000Z</time>
      </trkpt>
      <trkpt lat="47.53611" lon="6.7929">
        <ele>327</ele>
        <time>2016-08-15T09:38:43.000Z</time>
      </trkpt>
      <trkpt lat="47.53613" lon="6.79283">
        <ele>327</ele>
        <time>2016-08-15T09:38:44.000Z</time>
      </trkpt>
      <trkpt lat="47.53613" lon="6.79274">
        <ele>327</ele>
        <time>2016-08-15T09:38:45.000Z</time>
      </trkpt>
      <trkpt lat="47.53613" lon="6.79265">
        <ele>327</ele>
        <time>2016-08-15T09:38:46.000Z</time>
      </trkpt>
      <trkpt lat="47.53611" lon="6.79257">
        <ele>327</ele>
        <time>2016-08-15T09:38:47.000Z</time>
      </trkpt>
      <trkpt lat="47.53609" lon="6.79249">
        <ele>325</ele>
        <time>2016-08-15T09:38:48.000Z</time>
      </trkpt>
      <trkpt lat="47.53606" lon="6.79242">
        <ele>324</ele>
        <time>2016-08-15T09:38:49.000Z</time>
      </trkpt>
      <trkpt lat="47.53602" lon="6.79236">
        <ele>324</ele>
        <time>2016-08-15T09:38:50.000Z</time>
      </trkpt>
      <trkpt lat="47.53597" lon="6.7923">
        <ele>324</ele>
        <time>2016-08-15T09:38:51.000Z</time>
      </trkpt>
      <trkpt lat="47.53593" lon="6.79224">
        <ele>324</ele>
        <time>2016-08-15T09:38:52.000Z</time>
      </trkpt>
      <trkpt lat="47.53589" lon="6.79219">
        <ele>324</ele>
        <time>2016-08-15T09:38:53.000Z</time>
      </trkpt>
      <trkpt lat="47.53584" lon="6.79215">
        <ele>324</ele>
        <time>2016-08-15T09:38:54.000Z</time>
      </trkpt>
      <trkpt lat="47.53579" lon="6.7921">
        <ele>320</ele>
        <time>2016-08-15T09:38:55.000Z</time>
      </trkpt>
      <trkpt lat="47.53575" lon="6.79202">
        <ele>320</ele>
        <time>2016-08-15T09:38:56.000Z</time>
      </trkpt>
      <trkpt lat="47.53571" lon="6.79194">
        <ele>320</ele>
        <time>2016-08-15T09:38:57.000Z</time>
      </trkpt>
      <trkpt lat="47.53567" lon="6.79186">
        <ele>320</ele>
        <time>2016-08-15T09:38:58.000Z</time>
      </trkpt>
      <trkpt lat="47.53562" lon="6.79178">
        <ele>320</ele>
        <time>2016-08-15T09:38:59.000Z</time>
      </trkpt>
      <trkpt lat="47.53558" lon="6.79171">
        <ele>320</ele>
        <time>2016-08-15T09:39:00.000Z</time>
      </trkpt>
      <trkpt lat="47.53553" lon="6.79163">
        <ele>320</ele>
        <time>2016-08-15T09:39:01.000Z</time>
      </trkpt>
      <trkpt lat="47.53549" lon="6.79155">
        <ele>320</ele>
        <time>2016-08-15T09:39:02.000Z</time>
      </trkpt>
      <trkpt lat="47.53544" lon="6.79147">
        <ele>320</ele>
        <time>2016-08-15T09:39:03.000Z</time>
      </trkpt>
      <trkpt lat="47.53541" lon="6.7914">
        <ele>319</ele>
        <time>2016-08-15T09:39:04.000Z</time>
      </trkpt>
      <trkpt lat="47.53538" lon="6.79132">
        <ele>319</ele>
        <time>2016-08-15T09:39:05.000Z</time>
      </trkpt>
      <trkpt lat="47.53534" lon="6.79125">
        <ele>319</ele>
        <time>2016-08-15T09:39:06.000Z</time>
      </trkpt>
      <trkpt lat="47.5353" lon="6.79119">
        <ele>319</ele>
        <time>2016-08-15T09:39:07.000Z</time>
      </trkpt>
      <trkpt lat="47.53525" lon="6.79112">
        <ele>319</ele>
        <time>2016-08-15T09:39:08.000Z</time>
      </trkpt>
      <trkpt lat="47.53521" lon="6.79105">
        <ele>319</ele>
        <time>2016-08-15T09:39:09.000Z</time>
      </trkpt>
      <trkpt lat="47.53519" lon="6.791">
        <ele>319</ele>
        <time>2016-08-15T09:39:10.000Z</time>
      </trkpt>
      <trkpt lat="47.53517" lon="6.79096">
        <ele>319</ele>
        <time>2016-08-15T09:39:11.000Z</time>
      </trkpt>
      <trkpt lat="47.53516" lon="6.79094">
        <ele>319</ele>
        <time>2016-08-15T09:39:12.000Z</time>
      </trkpt>
      <trkpt lat="47.53513" lon="6.79088">
        <ele>319</ele>
        <time>2016-08-15T09:39:14.000Z</time>
      </trkpt>
      <trkpt lat="47.53512" lon="6.79086">
        <ele>319</ele>
        <time>2016-08-15T09:39:15.000Z</time>
      </trkpt>
      <trkpt lat="47.5351" lon="6.79083">
        <ele>319</ele>
        <time>2016-08-15T09:39:17.000Z</time>
      </trkpt>
      <trkpt lat="47.53509" lon="6.79082">
        <ele>319</ele>
        <time>2016-08-15T09:39:18.000Z</time>
      </trkpt>
      <trkpt lat="47.53506" lon="6.79078">
        <ele>319</ele>
        <time>2016-08-15T09:39:22.000Z</time>
      </trkpt>
      <trkpt lat="47.53505" lon="6.79078">
        <ele>319</ele>
        <time>2016-08-15T09:39:23.000Z</time>
      </trkpt>
      <trkpt lat="47.53501" lon="6.79076">
        <ele>319</ele>
        <time>2016-08-15T09:39:26.000Z</time>
      </trkpt>
      <trkpt lat="47.535" lon="6.79075">
        <ele>319</ele>
        <time>2016-08-15T09:39:27.000Z</time>
      </trkpt>
      <trkpt lat="47.53497" lon="6.79075">
        <ele>319</ele>
        <time>2016-08-15T09:39:29.000Z</time>
      </trkpt>
      <trkpt lat="47.53495" lon="6.79075">
        <ele>319</ele>
        <time>2016-08-15T09:39:30.000Z</time>
      </trkpt>
      <trkpt lat="47.53493" lon="6.79073">
        <ele>319</ele>
        <time>2016-08-15T09:39:31.000Z</time>
      </trkpt>
      <trkpt lat="47.53491" lon="6.79072">
        <ele>319</ele>
        <time>2016-08-15T09:39:32.000Z</time>
      </trkpt>
      <trkpt lat="47.53489" lon="6.7907">
        <ele>319</ele>
        <time>2016-08-15T09:39:33.000Z</time>
      </trkpt>
      <trkpt lat="47.53487" lon="6.79067">
        <ele>319</ele>
        <time>2016-08-15T09:39:34.000Z</time>
      </trkpt>
      <trkpt lat="47.53486" lon="6.79063">
        <ele>319</ele>
        <time>2016-08-15T09:39:35.000Z</time>
      </trkpt>
      <trkpt lat="47.53485" lon="6.79059">
        <ele>319</ele>
        <time>2016-08-15T09:39:36.000Z</time>
      </trkpt>
      <trkpt lat="47.53489" lon="6.79047">
        <ele>319</ele>
        <time>2016-08-15T09:39:37.000Z</time>
      </trkpt>
      <trkpt lat="47.5349" lon="6.79043">
        <ele>319</ele>
        <time>2016-08-15T09:39:38.000Z</time>
      </trkpt>
      <trkpt lat="47.5349" lon="6.79038">
        <ele>319</ele>
        <time>2016-08-15T09:39:39.000Z</time>
      </trkpt>
      <trkpt lat="47.5349" lon="6.79033">
        <ele>319</ele>
        <time>2016-08-15T09:39:40.000Z</time>
      </trkpt>
      <trkpt lat="47.53489" lon="6.79028">
        <ele>319</ele>
        <time>2016-08-15T09:39:41.000Z</time>
      </trkpt>
      <trkpt lat="47.5349" lon="6.79024">
        <ele>319</ele>
        <time>2016-08-15T09:39:42.000Z</time>
      </trkpt>
      <trkpt lat="47.53488" lon="6.7902">
        <ele>319</ele>
        <time>2016-08-15T09:39:43.000Z</time>
      </trkpt>
      <trkpt lat="47.53489" lon="6.79014">
        <ele>319</ele>
        <time>2016-08-15T09:39:44.000Z</time>
      </trkpt>
      <trkpt lat="47.53489" lon="6.79009">
        <ele>318</ele>
        <time>2016-08-15T09:39:45.000Z</time>
      </trkpt>
      <trkpt lat="47.5349" lon="6.79005">
        <ele>318</ele>
        <time>2016-08-15T09:39:46.000Z</time>
      </trkpt>
      <trkpt lat="47.53491" lon="6.79">
        <ele>319</ele>
        <time>2016-08-15T09:39:47.000Z</time>
      </trkpt>
      <trkpt lat="47.53491" lon="6.78995">
        <ele>319</ele>
        <time>2016-08-15T09:39:48.000Z</time>
      </trkpt>
      <trkpt lat="47.53493" lon="6.78991">
        <ele>319</ele>
        <time>2016-08-15T09:39:49.000Z</time>
      </trkpt>
      <trkpt lat="47.53495" lon="6.78987">
        <ele>319</ele>
        <time>2016-08-15T09:39:50.000Z</time>
      </trkpt>
      <trkpt lat="47.53497" lon="6.78983">
        <ele>319</ele>
        <time>2016-08-15T09:39:51.000Z</time>
      </trkpt>
      <trkpt lat="47.53499" lon="6.78979">
        <ele>319</ele>
        <time>2016-08-15T09:39:52.000Z</time>
      </trkpt>
      <trkpt lat="47.53501" lon="6.78975">
        <ele>319</ele>
        <time>2016-08-15T09:39:53.000Z</time>
      </trkpt>
      <trkpt lat="47.53503" lon="6.78971">
        <ele>319</ele>
        <time>2016-08-15T09:39:54.000Z</time>
      </trkpt>
      <trkpt lat="47.53505" lon="6.78968">
        <ele>319</ele>
        <time>2016-08-15T09:39:55.000Z</time>
      </trkpt>
      <trkpt lat="47.53508" lon="6.78965">
        <ele>320</ele>
        <time>2016-08-15T09:39:56.000Z</time>
      </trkpt>
      <trkpt lat="47.5351" lon="6.78962">
        <ele>320</ele>
        <time>2016-08-15T09:39:57.000Z</time>
      </trkpt>
      <trkpt lat="47.53511" lon="6.78958">
        <ele>320</ele>
        <time>2016-08-15T09:39:58.000Z</time>
      </trkpt>
      <trkpt lat="47.53512" lon="6.78954">
        <ele>320</ele>
        <time>2016-08-15T09:39:59.000Z</time>
      </trkpt>
      <trkpt lat="47.53512" lon="6.7895">
        <ele>320</ele>
        <time>2016-08-15T09:40:00.000Z</time>
      </trkpt>
      <trkpt lat="47.53513" lon="6.78946">
        <ele>320</ele>
        <time>2016-08-15T09:40:01.000Z</time>
      </trkpt>
      <trkpt lat="47.53513" lon="6.78942">
        <ele>320</ele>
        <time>2016-08-15T09:40:02.000Z</time>
      </trkpt>
      <trkpt lat="47.53513" lon="6.78937">
        <ele>320</ele>
        <time>2016-08-15T09:40:03.000Z</time>
      </trkpt>
      <trkpt lat="47.53513" lon="6.78933">
        <ele>320</ele>
        <time>2016-08-15T09:40:04.000Z</time>
      </trkpt>
      <trkpt lat="47.53514" lon="6.78929">
        <ele>320</ele>
        <time>2016-08-15T09:40:05.000Z</time>
      </trkpt>
      <trkpt lat="47.53514" lon="6.78924">
        <ele>320</ele>
        <time>2016-08-15T09:40:06.000Z</time>
      </trkpt>
      <trkpt lat="47.53515" lon="6.7892">
        <ele>320</ele>
        <time>2016-08-15T09:40:07.000Z</time>
      </trkpt>
      <trkpt lat="47.53515" lon="6.78915">
        <ele>321</ele>
        <time>2016-08-15T09:40:08.000Z</time>
      </trkpt>
      <trkpt lat="47.53516" lon="6.7891">
        <ele>321</ele>
        <time>2016-08-15T09:40:09.000Z</time>
      </trkpt>
      <trkpt lat="47.53516" lon="6.78906">
        <ele>321</ele>
        <time>2016-08-15T09:40:10.000Z</time>
      </trkpt>
      <trkpt lat="47.53516" lon="6.78901">
        <ele>321</ele>
        <time>2016-08-15T09:40:11.000Z</time>
      </trkpt>
      <trkpt lat="47.53516" lon="6.78896">
        <ele>321</ele>
        <time>2016-08-15T09:40:12.000Z</time>
      </trkpt>
      <trkpt lat="47.53516" lon="6.78891">
        <ele>321</ele>
        <time>2016-08-15T09:40:13.000Z</time>
      </trkpt>
      <trkpt lat="47.53517" lon="6.78886">
        <ele>321</ele>
        <time>2016-08-15T09:40:14.000Z</time>
      </trkpt>
      <trkpt lat="47.53517" lon="6.78881">
        <ele>321</ele>
        <time>2016-08-15T09:40:15.000Z</time>
      </trkpt>
      <trkpt lat="47.53518" lon="6.78877">
        <ele>321</ele>
        <time>2016-08-15T09:40:16.000Z</time>
      </trkpt>
      <trkpt lat="47.53518" lon="6.78872">
        <ele>321</ele>
        <time>2016-08-15T09:40:17.000Z</time>
      </trkpt>
      <trkpt lat="47.53519" lon="6.78868">
        <ele>322</ele>
        <time>2016-08-15T09:40:18.000Z</time>
      </trkpt>
      <trkpt lat="47.53519" lon="6.78864">
        <ele>322</ele>
        <time>2016-08-15T09:40:19.000Z</time>
      </trkpt>
      <trkpt lat="47.5352" lon="6.7886">
        <ele>322</ele>
        <time>2016-08-15T09:40:20.000Z</time>
      </trkpt>
      <trkpt lat="47.5352" lon="6.78856">
        <ele>322</ele>
        <time>2016-08-15T09:40:21.000Z</time>
      </trkpt>
      <trkpt lat="47.53519" lon="6.7885">
        <ele>322</ele>
        <time>2016-08-15T09:40:23.000Z</time>
      </trkpt>
      <trkpt lat="47.53518" lon="6.78847">
        <ele>322</ele>
        <time>2016-08-15T09:40:24.000Z</time>
      </trkpt>
      <trkpt lat="47.53518" lon="6.78841">
        <ele>322</ele>
        <time>2016-08-15T09:40:31.000Z</time>
      </trkpt>
      <trkpt lat="47.53519" lon="6.7884">
        <ele>322</ele>
        <time>2016-08-15T09:40:32.000Z</time>
      </trkpt>
      <trkpt lat="47.53521" lon="6.78836">
        <ele>322</ele>
        <time>2016-08-15T09:40:34.000Z</time>
      </trkpt>
      <trkpt lat="47.53522" lon="6.78833">
        <ele>324</ele>
        <time>2016-08-15T09:40:35.000Z</time>
      </trkpt>
      <trkpt lat="47.53523" lon="6.7883">
        <ele>324</ele>
        <time>2016-08-15T09:40:36.000Z</time>
      </trkpt>
      <trkpt lat="47.53524" lon="6.78827">
        <ele>324</ele>
        <time>2016-08-15T09:40:37.000Z</time>
      </trkpt>
      <trkpt lat="47.53526" lon="6.78823">
        <ele>324</ele>
        <time>2016-08-15T09:40:38.000Z</time>
      </trkpt>
      <trkpt lat="47.53527" lon="6.78819">
        <ele>324</ele>
        <time>2016-08-15T09:40:39.000Z</time>
      </trkpt>
      <trkpt lat="47.53528" lon="6.78816">
        <ele>324</ele>
        <time>2016-08-15T09:40:40.000Z</time>
      </trkpt>
      <trkpt lat="47.53529" lon="6.78812">
        <ele>324</ele>
        <time>2016-08-15T09:40:41.000Z</time>
      </trkpt>
      <trkpt lat="47.53528" lon="6.78806">
        <ele>324</ele>
        <time>2016-08-15T09:40:42.000Z</time>
      </trkpt>
      <trkpt lat="47.53528" lon="6.788">
        <ele>324</ele>
        <time>2016-08-15T09:40:43.000Z</time>
      </trkpt>
      <trkpt lat="47.53529" lon="6.78795">
        <ele>324</ele>
        <time>2016-08-15T09:40:44.000Z</time>
      </trkpt>
      <trkpt lat="47.5353" lon="6.78791">
        <ele>324</ele>
        <time>2016-08-15T09:40:45.000Z</time>
      </trkpt>
      <trkpt lat="47.5353" lon="6.78787">
        <ele>324</ele>
        <time>2016-08-15T09:40:46.000Z</time>
      </trkpt>
      <trkpt lat="47.53531" lon="6.78782">
        <ele>325</ele>
        <time>2016-08-15T09:40:47.000Z</time>
      </trkpt>
      <trkpt lat="47.53531" lon="6.78777">
        <ele>325</ele>
        <time>2016-08-15T09:40:48.000Z</time>
      </trkpt>
      <trkpt lat="47.53531" lon="6.78772">
        <ele>325</ele>
        <time>2016-08-15T09:40:49.001Z</time>
      </trkpt>
      <trkpt lat="47.53532" lon="6.78766">
        <ele>325</ele>
        <time>2016-08-15T09:40:50.000Z</time>
      </trkpt>
      <trkpt lat="47.53532" lon="6.7876">
        <ele>325</ele>
        <time>2016-08-15T09:40:51.000Z</time>
      </trkpt>
      <trkpt lat="47.53532" lon="6.78754">
        <ele>325</ele>
        <time>2016-08-15T09:40:52.000Z</time>
      </trkpt>
      <trkpt lat="47.53533" lon="6.78749">
        <ele>328</ele>
        <time>2016-08-15T09:40:53.000Z</time>
      </trkpt>
      <trkpt lat="47.53534" lon="6.78744">
        <ele>328</ele>
        <time>2016-08-15T09:40:54.000Z</time>
      </trkpt>
      <trkpt lat="47.53535" lon="6.7874">
        <ele>328</ele>
        <time>2016-08-15T09:40:55.000Z</time>
      </trkpt>
      <trkpt lat="47.53537" lon="6.78735">
        <ele>328</ele>
        <time>2016-08-15T09:40:56.000Z</time>
      </trkpt>
      <trkpt lat="47.53538" lon="6.7873">
        <ele>328</ele>
        <time>2016-08-15T09:40:57.000Z</time>
      </trkpt>
      <trkpt lat="47.53539" lon="6.78726">
        <ele>328</ele>
        <time>2016-08-15T09:40:58.000Z</time>
      </trkpt>
      <trkpt lat="47.53539" lon="6.78721">
        <ele>328</ele>
        <time>2016-08-15T09:40:59.000Z</time>
      </trkpt>
      <trkpt lat="47.53539" lon="6.78717">
        <ele>328</ele>
        <time>2016-08-15T09:41:00.000Z</time>
      </trkpt>
      <trkpt lat="47.53539" lon="6.78713">
        <ele>328</ele>
        <time>2016-08-15T09:41:01.000Z</time>
      </trkpt>
      <trkpt lat="47.53539" lon="6.78709">
        <ele>328</ele>
        <time>2016-08-15T09:41:02.000Z</time>
      </trkpt>
      <trkpt lat="47.53538" lon="6.78704">
        <ele>329</ele>
        <time>2016-08-15T09:41:03.000Z</time>
      </trkpt>
      <trkpt lat="47.53537" lon="6.78698">
        <ele>329</ele>
        <time>2016-08-15T09:41:04.000Z</time>
      </trkpt>
      <trkpt lat="47.53535" lon="6.78693">
        <ele>329</ele>
        <time>2016-08-15T09:41:05.000Z</time>
      </trkpt>
      <trkpt lat="47.53535" lon="6.78688">
        <ele>329</ele>
        <time>2016-08-15T09:41:06.000Z</time>
      </trkpt>
      <trkpt lat="47.53534" lon="6.78683">
        <ele>329</ele>
        <time>2016-08-15T09:41:07.000Z</time>
      </trkpt>
      <trkpt lat="47.53534" lon="6.78679">
        <ele>329</ele>
        <time>2016-08-15T09:41:08.000Z</time>
      </trkpt>
      <trkpt lat="47.53534" lon="6.78675">
        <ele>330</ele>
        <time>2016-08-15T09:41:09.000Z</time>
      </trkpt>
      <trkpt lat="47.53534" lon="6.78671">
        <ele>330</ele>
        <time>2016-08-15T09:41:10.000Z</time>
      </trkpt>
      <trkpt lat="47.53534" lon="6.78666">
        <ele>331</ele>
        <time>2016-08-15T09:41:11.000Z</time>
      </trkpt>
      <trkpt lat="47.53534" lon="6.7866">
        <ele>331</ele>
        <time>2016-08-15T09:41:12.000Z</time>
      </trkpt>
      <trkpt lat="47.53534" lon="6.78654">
        <ele>331</ele>
        <time>2016-08-15T09:41:13.000Z</time>
      </trkpt>
      <trkpt lat="47.53534" lon="6.7864">
        <ele>331</ele>
        <time>2016-08-15T09:41:14.000Z</time>
      </trkpt>
      <trkpt lat="47.53537" lon="6.78632">
        <ele>331</ele>
        <time>2016-08-15T09:41:15.000Z</time>
      </trkpt>
      <trkpt lat="47.53541" lon="6.78625">
        <ele>331</ele>
        <time>2016-08-15T09:41:16.000Z</time>
      </trkpt>
      <trkpt lat="47.53536" lon="6.78615">
        <ele>331</ele>
        <time>2016-08-15T09:41:17.000Z</time>
      </trkpt>
      <trkpt lat="47.53533" lon="6.78608">
        <ele>331</ele>
        <time>2016-08-15T09:41:18.000Z</time>
      </trkpt>
      <trkpt lat="47.53534" lon="6.78601">
        <ele>331</ele>
        <time>2016-08-15T09:41:19.000Z</time>
      </trkpt>
      <trkpt lat="47.53533" lon="6.78592">
        <ele>331</ele>
        <time>2016-08-15T09:41:20.000Z</time>
      </trkpt>
      <trkpt lat="47.53533" lon="6.78585">
        <ele>331</ele>
        <time>2016-08-15T09:41:21.000Z</time>
      </trkpt>
      <trkpt lat="47.53533" lon="6.78578">
        <ele>331</ele>
        <time>2016-08-15T09:41:22.000Z</time>
      </trkpt>
      <trkpt lat="47.53533" lon="6.7857">
        <ele>331</ele>
        <time>2016-08-15T09:41:23.000Z</time>
      </trkpt>
      <trkpt lat="47.53535" lon="6.78563">
        <ele>331</ele>
        <time>2016-08-15T09:41:24.000Z</time>
      </trkpt>
      <trkpt lat="47.53537" lon="6.78558">
        <ele>331</ele>
        <time>2016-08-15T09:41:25.000Z</time>
      </trkpt>
      <trkpt lat="47.5354" lon="6.78552">
        <ele>331</ele>
        <time>2016-08-15T09:41:26.000Z</time>
      </trkpt>
      <trkpt lat="47.53543" lon="6.78547">
        <ele>331</ele>
        <time>2016-08-15T09:41:27.000Z</time>
      </trkpt>
      <trkpt lat="47.53545" lon="6.7854">
        <ele>331</ele>
        <time>2016-08-15T09:41:28.000Z</time>
      </trkpt>
      <trkpt lat="47.53548" lon="6.78534">
        <ele>330</ele>
        <time>2016-08-15T09:41:29.000Z</time>
      </trkpt>
      <trkpt lat="47.5355" lon="6.78527">
        <ele>330</ele>
        <time>2016-08-15T09:41:30.000Z</time>
      </trkpt>
      <trkpt lat="47.53552" lon="6.7852">
        <ele>330</ele>
        <time>2016-08-15T09:41:31.000Z</time>
      </trkpt>
      <trkpt lat="47.53555" lon="6.78513">
        <ele>330</ele>
        <time>2016-08-15T09:41:32.000Z</time>
      </trkpt>
      <trkpt lat="47.53559" lon="6.785">
        <ele>329</ele>
        <time>2016-08-15T09:41:34.000Z</time>
      </trkpt>
      <trkpt lat="47.53562" lon="6.78493">
        <ele>329</ele>
        <time>2016-08-15T09:41:35.000Z</time>
      </trkpt>
      <trkpt lat="47.53564" lon="6.78487">
        <ele>329</ele>
        <time>2016-08-15T09:41:36.000Z</time>
      </trkpt>
      <trkpt lat="47.53567" lon="6.78479">
        <ele>329</ele>
        <time>2016-08-15T09:41:37.000Z</time>
      </trkpt>
      <trkpt lat="47.5357" lon="6.78475">
        <ele>329</ele>
        <time>2016-08-15T09:41:38.000Z</time>
      </trkpt>
      <trkpt lat="47.53572" lon="6.7847">
        <ele>329</ele>
        <time>2016-08-15T09:41:39.000Z</time>
      </trkpt>
      <trkpt lat="47.53574" lon="6.78465">
        <ele>329</ele>
        <time>2016-08-15T09:41:40.000Z</time>
      </trkpt>
      <trkpt lat="47.53577" lon="6.78461">
        <ele>328</ele>
        <time>2016-08-15T09:41:41.000Z</time>
      </trkpt>
      <trkpt lat="47.53579" lon="6.78458">
        <ele>328</ele>
        <time>2016-08-15T09:41:42.000Z</time>
      </trkpt>
      <trkpt lat="47.53582" lon="6.78454">
        <ele>328</ele>
        <time>2016-08-15T09:41:43.000Z</time>
      </trkpt>
      <trkpt lat="47.53585" lon="6.7845">
        <ele>323</ele>
        <time>2016-08-15T09:41:44.000Z</time>
      </trkpt>
      <trkpt lat="47.53587" lon="6.78445">
        <ele>323</ele>
        <time>2016-08-15T09:41:45.000Z</time>
      </trkpt>
      <trkpt lat="47.5359" lon="6.78442">
        <ele>323</ele>
        <time>2016-08-15T09:41:46.000Z</time>
      </trkpt>
      <trkpt lat="47.53593" lon="6.78438">
        <ele>323</ele>
        <time>2016-08-15T09:41:47.000Z</time>
      </trkpt>
      <trkpt lat="47.53592" lon="6.78431">
        <ele>323</ele>
        <time>2016-08-15T09:41:48.000Z</time>
      </trkpt>
      <trkpt lat="47.53594" lon="6.78425">
        <ele>323</ele>
        <time>2016-08-15T09:41:48.999Z</time>
      </trkpt>
      <trkpt lat="47.53596" lon="6.78421">
        <ele>323</ele>
        <time>2016-08-15T09:41:50.000Z</time>
      </trkpt>
      <trkpt lat="47.53597" lon="6.78417">
        <ele>323</ele>
        <time>2016-08-15T09:41:51.000Z</time>
      </trkpt>
      <trkpt lat="47.53599" lon="6.78412">
        <ele>323</ele>
        <time>2016-08-15T09:41:51.999Z</time>
      </trkpt>
      <trkpt lat="47.53603" lon="6.78408">
        <ele>323</ele>
        <time>2016-08-15T09:41:53.000Z</time>
      </trkpt>
      <trkpt lat="47.53606" lon="6.78405">
        <ele>323</ele>
        <time>2016-08-15T09:41:54.000Z</time>
      </trkpt>
      <trkpt lat="47.5361" lon="6.78402">
        <ele>323</ele>
        <time>2016-08-15T09:41:55.000Z</time>
      </trkpt>
      <trkpt lat="47.53612" lon="6.78393">
        <ele>323</ele>
        <time>2016-08-15T09:41:56.000Z</time>
      </trkpt>
      <trkpt lat="47.53614" lon="6.78389">
        <ele>323</ele>
        <time>2016-08-15T09:41:57.000Z</time>
      </trkpt>
      <trkpt lat="47.53617" lon="6.78385">
        <ele>323</ele>
        <time>2016-08-15T09:41:58.000Z</time>
      </trkpt>
      <trkpt lat="47.5362" lon="6.78381">
        <ele>323</ele>
        <time>2016-08-15T09:41:59.000Z</time>
      </trkpt>
      <trkpt lat="47.53622" lon="6.78377">
        <ele>323</ele>
        <time>2016-08-15T09:42:00.000Z</time>
      </trkpt>
      <trkpt lat="47.53624" lon="6.78373">
        <ele>323</ele>
        <time>2016-08-15T09:42:01.000Z</time>
      </trkpt>
      <trkpt lat="47.53627" lon="6.7837">
        <ele>323</ele>
        <time>2016-08-15T09:42:02.000Z</time>
      </trkpt>
      <trkpt lat="47.53629" lon="6.78366">
        <ele>323</ele>
        <time>2016-08-15T09:42:03.000Z</time>
      </trkpt>
      <trkpt lat="47.53631" lon="6.78362">
        <ele>323</ele>
        <time>2016-08-15T09:42:04.000Z</time>
      </trkpt>
      <trkpt lat="47.53632" lon="6.78359">
        <ele>323</ele>
        <time>2016-08-15T09:42:05.000Z</time>
      </trkpt>
      <trkpt lat="47.53634" lon="6.78355">
        <ele>323</ele>
        <time>2016-08-15T09:42:06.000Z</time>
      </trkpt>
      <trkpt lat="47.53636" lon="6.78352">
        <ele>323</ele>
        <time>2016-08-15T09:42:07.000Z</time>
      </trkpt>
      <trkpt lat="47.53638" lon="6.78348">
        <ele>323</ele>
        <time>2016-08-15T09:42:08.000Z</time>
      </trkpt>
      <trkpt lat="47.53641" lon="6.78344">
        <ele>323</ele>
        <time>2016-08-15T09:42:09.000Z</time>
      </trkpt>
      <trkpt lat="47.53644" lon="6.7834">
        <ele>323</ele>
        <time>2016-08-15T09:42:09.999Z</time>
      </trkpt>
      <trkpt lat="47.53646" lon="6.78335">
        <ele>323</ele>
        <time>2016-08-15T09:42:11.000Z</time>
      </trkpt>
      <trkpt lat="47.53649" lon="6.7833">
        <ele>323</ele>
        <time>2016-08-15T09:42:12.000Z</time>
      </trkpt>
      <trkpt lat="47.53651" lon="6.78327">
        <ele>323</ele>
        <time>2016-08-15T09:42:13.000Z</time>
      </trkpt>
      <trkpt lat="47.53653" lon="6.78323">
        <ele>323</ele>
        <time>2016-08-15T09:42:14.000Z</time>
      </trkpt>
      <trkpt lat="47.53656" lon="6.7832">
        <ele>323</ele>
        <time>2016-08-15T09:42:15.000Z</time>
      </trkpt>
      <trkpt lat="47.53659" lon="6.78317">
        <ele>323</ele>
        <time>2016-08-15T09:42:16.000Z</time>
      </trkpt>
      <trkpt lat="47.53663" lon="6.78314">
        <ele>323</ele>
        <time>2016-08-15T09:42:17.000Z</time>
      </trkpt>
      <trkpt lat="47.53666" lon="6.7831">
        <ele>324</ele>
        <time>2016-08-15T09:42:18.000Z</time>
      </trkpt>
      <trkpt lat="47.53669" lon="6.78306">
        <ele>323</ele>
        <time>2016-08-15T09:42:19.000Z</time>
      </trkpt>
      <trkpt lat="47.53672" lon="6.78302">
        <ele>323</ele>
        <time>2016-08-15T09:42:20.000Z</time>
      </trkpt>
      <trkpt lat="47.53673" lon="6.78297">
        <ele>323</ele>
        <time>2016-08-15T09:42:21.000Z</time>
      </trkpt>
      <trkpt lat="47.53673" lon="6.78292">
        <ele>323</ele>
        <time>2016-08-15T09:42:22.000Z</time>
      </trkpt>
      <trkpt lat="47.53673" lon="6.78287">
        <ele>323</ele>
        <time>2016-08-15T09:42:23.000Z</time>
      </trkpt>
      <trkpt lat="47.53671" lon="6.78281">
        <ele>323</ele>
        <time>2016-08-15T09:42:24.000Z</time>
      </trkpt>
      <trkpt lat="47.5367" lon="6.78276">
        <ele>323</ele>
        <time>2016-08-15T09:42:25.000Z</time>
      </trkpt>
      <trkpt lat="47.53669" lon="6.78271">
        <ele>323</ele>
        <time>2016-08-15T09:42:26.000Z</time>
      </trkpt>
      <trkpt lat="47.53667" lon="6.78267">
        <ele>323</ele>
        <time>2016-08-15T09:42:27.000Z</time>
      </trkpt>
      <trkpt lat="47.53665" lon="6.78263">
        <ele>324</ele>
        <time>2016-08-15T09:42:28.000Z</time>
      </trkpt>
      <trkpt lat="47.53663" lon="6.78259">
        <ele>324</ele>
        <time>2016-08-15T09:42:29.000Z</time>
      </trkpt>
      <trkpt lat="47.53661" lon="6.78255">
        <ele>324</ele>
        <time>2016-08-15T09:42:30.000Z</time>
      </trkpt>
      <trkpt lat="47.53659" lon="6.78251">
        <ele>324</ele>
        <time>2016-08-15T09:42:31.000Z</time>
      </trkpt>
      <trkpt lat="47.53657" lon="6.78247">
        <ele>325</ele>
        <time>2016-08-15T09:42:32.000Z</time>
      </trkpt>
      <trkpt lat="47.53655" lon="6.78243">
        <ele>326</ele>
        <time>2016-08-15T09:42:33.000Z</time>
      </trkpt>
      <trkpt lat="47.53654" lon="6.78239">
        <ele>326</ele>
        <time>2016-08-15T09:42:34.000Z</time>
      </trkpt>
      <trkpt lat="47.53653" lon="6.78234">
        <ele>326</ele>
        <time>2016-08-15T09:42:36.000Z</time>
      </trkpt>
      <trkpt lat="47.53653" lon="6.78232">
        <ele>326</ele>
        <time>2016-08-15T09:42:37.000Z</time>
      </trkpt>
      <trkpt lat="47.53652" lon="6.78229">
        <ele>327</ele>
        <time>2016-08-15T09:42:38.000Z</time>
      </trkpt>
      <trkpt lat="47.53651" lon="6.78225">
        <ele>327</ele>
        <time>2016-08-15T09:42:39.000Z</time>
      </trkpt>
      <trkpt lat="47.5365" lon="6.78221">
        <ele>327</ele>
        <time>2016-08-15T09:42:40.000Z</time>
      </trkpt>
      <trkpt lat="47.53649" lon="6.78217">
        <ele>327</ele>
        <time>2016-08-15T09:42:41.000Z</time>
      </trkpt>
      <trkpt lat="47.53648" lon="6.78212">
        <ele>327</ele>
        <time>2016-08-15T09:42:42.000Z</time>
      </trkpt>
      <trkpt lat="47.53648" lon="6.78208">
        <ele>327</ele>
        <time>2016-08-15T09:42:43.000Z</time>
      </trkpt>
      <trkpt lat="47.53648" lon="6.78204">
        <ele>327</ele>
        <time>2016-08-15T09:42:44.000Z</time>
      </trkpt>
      <trkpt lat="47.53649" lon="6.782">
        <ele>327</ele>
        <time>2016-08-15T09:42:45.000Z</time>
      </trkpt>
      <trkpt lat="47.5365" lon="6.78197">
        <ele>327</ele>
        <time>2016-08-15T09:42:46.000Z</time>
      </trkpt>
      <trkpt lat="47.53652" lon="6.78193">
        <ele>327</ele>
        <time>2016-08-15T09:42:47.000Z</time>
      </trkpt>
      <trkpt lat="47.53654" lon="6.7819">
        <ele>327</ele>
        <time>2016-08-15T09:42:48.000Z</time>
      </trkpt>
      <trkpt lat="47.53657" lon="6.78187">
        <ele>327</ele>
        <time>2016-08-15T09:42:49.000Z</time>
      </trkpt>
      <trkpt lat="47.5366" lon="6.78184">
        <ele>327</ele>
        <time>2016-08-15T09:42:50.000Z</time>
      </trkpt>
      <trkpt lat="47.53663" lon="6.78181">
        <ele>326</ele>
        <time>2016-08-15T09:42:51.000Z</time>
      </trkpt>
      <trkpt lat="47.53666" lon="6.78177">
        <ele>326</ele>
        <time>2016-08-15T09:42:52.000Z</time>
      </trkpt>
      <trkpt lat="47.53669" lon="6.78173">
        <ele>325</ele>
        <time>2016-08-15T09:42:53.000Z</time>
      </trkpt>
      <trkpt lat="47.53672" lon="6.7817">
        <ele>325</ele>
        <time>2016-08-15T09:42:54.000Z</time>
      </trkpt>
      <trkpt lat="47.53675" lon="6.78166">
        <ele>326</ele>
        <time>2016-08-15T09:42:55.000Z</time>
      </trkpt>
      <trkpt lat="47.53677" lon="6.78163">
        <ele>326</ele>
        <time>2016-08-15T09:42:56.000Z</time>
      </trkpt>
      <trkpt lat="47.53679" lon="6.7816">
        <ele>326</ele>
        <time>2016-08-15T09:42:57.000Z</time>
      </trkpt>
      <trkpt lat="47.53682" lon="6.78157">
        <ele>326</ele>
        <time>2016-08-15T09:42:58.000Z</time>
      </trkpt>
      <trkpt lat="47.53684" lon="6.78153">
        <ele>326</ele>
        <time>2016-08-15T09:42:59.000Z</time>
      </trkpt>
      <trkpt lat="47.53687" lon="6.78147">
        <ele>327</ele>
        <time>2016-08-15T09:43:00.000Z</time>
      </trkpt>
      <trkpt lat="47.5369" lon="6.78143">
        <ele>327</ele>
        <time>2016-08-15T09:43:01.000Z</time>
      </trkpt>
      <trkpt lat="47.53694" lon="6.78141">
        <ele>327</ele>
        <time>2016-08-15T09:43:02.000Z</time>
      </trkpt>
      <trkpt lat="47.53698" lon="6.78138">
        <ele>327</ele>
        <time>2016-08-15T09:43:03.000Z</time>
      </trkpt>
      <trkpt lat="47.53701" lon="6.78134">
        <ele>327</ele>
        <time>2016-08-15T09:43:04.000Z</time>
      </trkpt>
      <trkpt lat="47.53705" lon="6.7813">
        <ele>327</ele>
        <time>2016-08-15T09:43:05.000Z</time>
      </trkpt>
      <trkpt lat="47.53709" lon="6.78127">
        <ele>327</ele>
        <time>2016-08-15T09:43:06.000Z</time>
      </trkpt>
      <trkpt lat="47.53713" lon="6.78124">
        <ele>327</ele>
        <time>2016-08-15T09:43:07.000Z</time>
      </trkpt>
      <trkpt lat="47.53717" lon="6.7812">
        <ele>327</ele>
        <time>2016-08-15T09:43:08.000Z</time>
      </trkpt>
      <trkpt lat="47.53722" lon="6.78117">
        <ele>327</ele>
        <time>2016-08-15T09:43:09.000Z</time>
      </trkpt>
      <trkpt lat="47.53726" lon="6.78113">
        <ele>327</ele>
        <time>2016-08-15T09:43:10.000Z</time>
      </trkpt>
      <trkpt lat="47.53731" lon="6.78108">
        <ele>327</ele>
        <time>2016-08-15T09:43:11.000Z</time>
      </trkpt>
      <trkpt lat="47.53735" lon="6.78103">
        <ele>327</ele>
        <time>2016-08-15T09:43:12.000Z</time>
      </trkpt>
      <trkpt lat="47.53741" lon="6.781">
        <ele>327</ele>
        <time>2016-08-15T09:43:13.000Z</time>
      </trkpt>
      <trkpt lat="47.53746" lon="6.78097">
        <ele>327</ele>
        <time>2016-08-15T09:43:14.001Z</time>
      </trkpt>
      <trkpt lat="47.53751" lon="6.78094">
        <ele>326</ele>
        <time>2016-08-15T09:43:15.000Z</time>
      </trkpt>
      <trkpt lat="47.53756" lon="6.78092">
        <ele>326</ele>
        <time>2016-08-15T09:43:16.000Z</time>
      </trkpt>
      <trkpt lat="47.53761" lon="6.78089">
        <ele>326</ele>
        <time>2016-08-15T09:43:17.000Z</time>
      </trkpt>
      <trkpt lat="47.53766" lon="6.78087">
        <ele>326</ele>
        <time>2016-08-15T09:43:18.000Z</time>
      </trkpt>
      <trkpt lat="47.53772" lon="6.78084">
        <ele>326</ele>
        <time>2016-08-15T09:43:19.000Z</time>
      </trkpt>
      <trkpt lat="47.53776" lon="6.7808">
        <ele>329</ele>
        <time>2016-08-15T09:43:20.000Z</time>
      </trkpt>
      <trkpt lat="47.53781" lon="6.78078">
        <ele>329</ele>
        <time>2016-08-15T09:43:21.000Z</time>
      </trkpt>
      <trkpt lat="47.53786" lon="6.78076">
        <ele>329</ele>
        <time>2016-08-15T09:43:22.000Z</time>
      </trkpt>
      <trkpt lat="47.5379" lon="6.78073">
        <ele>329</ele>
        <time>2016-08-15T09:43:23.000Z</time>
      </trkpt>
      <trkpt lat="47.53796" lon="6.78069">
        <ele>329</ele>
        <time>2016-08-15T09:43:24.000Z</time>
      </trkpt>
      <trkpt lat="47.53801" lon="6.78067">
        <ele>329</ele>
        <time>2016-08-15T09:43:25.000Z</time>
      </trkpt>
      <trkpt lat="47.53806" lon="6.78063">
        <ele>329</ele>
        <time>2016-08-15T09:43:26.000Z</time>
      </trkpt>
      <trkpt lat="47.53812" lon="6.78063">
        <ele>329</ele>
        <time>2016-08-15T09:43:27.000Z</time>
      </trkpt>
      <trkpt lat="47.53817" lon="6.78064">
        <ele>328</ele>
        <time>2016-08-15T09:43:28.000Z</time>
      </trkpt>
      <trkpt lat="47.53822" lon="6.78064">
        <ele>328</ele>
        <time>2016-08-15T09:43:28.999Z</time>
      </trkpt>
      <trkpt lat="47.53825" lon="6.78063">
        <ele>328</ele>
        <time>2016-08-15T09:43:30.000Z</time>
      </trkpt>
      <trkpt lat="47.5383" lon="6.78063">
        <ele>328</ele>
        <time>2016-08-15T09:43:31.002Z</time>
      </trkpt>
      <trkpt lat="47.53833" lon="6.78063">
        <ele>328</ele>
        <time>2016-08-15T09:43:32.001Z</time>
      </trkpt>
      <trkpt lat="47.53837" lon="6.78062">
        <ele>326</ele>
        <time>2016-08-15T09:43:33.000Z</time>
      </trkpt>
      <trkpt lat="47.53841" lon="6.7806">
        <ele>326</ele>
        <time>2016-08-15T09:43:34.000Z</time>
      </trkpt>
      <trkpt lat="47.5385" lon="6.78063">
        <ele>326</ele>
        <time>2016-08-15T09:43:35.000Z</time>
      </trkpt>
      <trkpt lat="47.53854" lon="6.78063">
        <ele>326</ele>
        <time>2016-08-15T09:43:36.000Z</time>
      </trkpt>
      <trkpt lat="47.53858" lon="6.7806">
        <ele>326</ele>
        <time>2016-08-15T09:43:37.000Z</time>
      </trkpt>
      <trkpt lat="47.53864" lon="6.7806">
        <ele>326</ele>
        <time>2016-08-15T09:43:38.000Z</time>
      </trkpt>
      <trkpt lat="47.53868" lon="6.78062">
        <ele>326</ele>
        <time>2016-08-15T09:43:39.000Z</time>
      </trkpt>
      <trkpt lat="47.5387" lon="6.78064">
        <ele>326</ele>
        <time>2016-08-15T09:43:40.000Z</time>
      </trkpt>
      <trkpt lat="47.53876" lon="6.78061">
        <ele>326</ele>
        <time>2016-08-15T09:43:41.000Z</time>
      </trkpt>
      <trkpt lat="47.5388" lon="6.78062">
        <ele>326</ele>
        <time>2016-08-15T09:43:42.000Z</time>
      </trkpt>
      <trkpt lat="47.53884" lon="6.78063">
        <ele>326</ele>
        <time>2016-08-15T09:43:43.000Z</time>
      </trkpt>
      <trkpt lat="47.53888" lon="6.78063">
        <ele>326</ele>
        <time>2016-08-15T09:43:44.000Z</time>
      </trkpt>
      <trkpt lat="47.53893" lon="6.78062">
        <ele>326</ele>
        <time>2016-08-15T09:43:45.000Z</time>
      </trkpt>
      <trkpt lat="47.53897" lon="6.78061">
        <ele>326</ele>
        <time>2016-08-15T09:43:46.000Z</time>
      </trkpt>
      <trkpt lat="47.53902" lon="6.78058">
        <ele>326</ele>
        <time>2016-08-15T09:43:47.001Z</time>
      </trkpt>
      <trkpt lat="47.53905" lon="6.78057">
        <ele>326</ele>
        <time>2016-08-15T09:43:48.000Z</time>
      </trkpt>
      <trkpt lat="47.5391" lon="6.78045">
        <ele>326</ele>
        <time>2016-08-15T09:43:49.000Z</time>
      </trkpt>
      <trkpt lat="47.53912" lon="6.78038">
        <ele>327</ele>
        <time>2016-08-15T09:43:50.000Z</time>
      </trkpt>
      <trkpt lat="47.53913" lon="6.78025">
        <ele>327</ele>
        <time>2016-08-15T09:43:51.000Z</time>
      </trkpt>
      <trkpt lat="47.53915" lon="6.78017">
        <ele>327</ele>
        <time>2016-08-15T09:43:52.000Z</time>
      </trkpt>
      <trkpt lat="47.53916" lon="6.78011">
        <ele>328</ele>
        <time>2016-08-15T09:43:53.000Z</time>
      </trkpt>
      <trkpt lat="47.53918" lon="6.78008">
        <ele>327</ele>
        <time>2016-08-15T09:43:54.000Z</time>
      </trkpt>
      <trkpt lat="47.5392" lon="6.78004">
        <ele>327</ele>
        <time>2016-08-15T09:43:55.000Z</time>
      </trkpt>
      <trkpt lat="47.53922" lon="6.78">
        <ele>327</ele>
        <time>2016-08-15T09:43:55.999Z</time>
      </trkpt>
      <trkpt lat="47.53923" lon="6.77996">
        <ele>328</ele>
        <time>2016-08-15T09:43:57.001Z</time>
      </trkpt>
      <trkpt lat="47.53924" lon="6.77992">
        <ele>328</ele>
        <time>2016-08-15T09:43:58.000Z</time>
      </trkpt>
      <trkpt lat="47.53927" lon="6.77987">
        <ele>328</ele>
        <time>2016-08-15T09:44:00.000Z</time>
      </trkpt>
      <trkpt lat="47.53929" lon="6.77983">
        <ele>328</ele>
        <time>2016-08-15T09:44:01.000Z</time>
      </trkpt>
      <trkpt lat="47.53931" lon="6.77978">
        <ele>328</ele>
        <time>2016-08-15T09:44:03.000Z</time>
      </trkpt>
      <trkpt lat="47.53932" lon="6.77976">
        <ele>328</ele>
        <time>2016-08-15T09:44:04.000Z</time>
      </trkpt>
      <trkpt lat="47.53932" lon="6.77973">
        <ele>328</ele>
        <time>2016-08-15T09:44:05.000Z</time>
      </trkpt>
      <trkpt lat="47.5393" lon="6.77969">
        <ele>328</ele>
        <time>2016-08-15T09:44:06.000Z</time>
      </trkpt>
      <trkpt lat="47.53928" lon="6.77966">
        <ele>328</ele>
        <time>2016-08-15T09:44:07.000Z</time>
      </trkpt>
      <trkpt lat="47.53925" lon="6.77963">
        <ele>328</ele>
        <time>2016-08-15T09:44:08.000Z</time>
      </trkpt>
      <trkpt lat="47.53921" lon="6.7796">
        <ele>328</ele>
        <time>2016-08-15T09:44:09.001Z</time>
      </trkpt>
      <trkpt lat="47.53918" lon="6.77959">
        <ele>329</ele>
        <time>2016-08-15T09:44:10.000Z</time>
      </trkpt>
      <trkpt lat="47.53915" lon="6.77958">
        <ele>331</ele>
        <time>2016-08-15T09:44:11.001Z</time>
      </trkpt>
      <trkpt lat="47.53909" lon="6.77958">
        <ele>331</ele>
        <time>2016-08-15T09:44:12.000Z</time>
      </trkpt>
      <trkpt lat="47.53901" lon="6.77953">
        <ele>331</ele>
        <time>2016-08-15T09:44:13.001Z</time>
      </trkpt>
      <trkpt lat="47.53897" lon="6.77949">
        <ele>331</ele>
        <time>2016-08-15T09:44:14.001Z</time>
      </trkpt>
      <trkpt lat="47.53893" lon="6.77945">
        <ele>332</ele>
        <time>2016-08-15T09:44:15.000Z</time>
      </trkpt>
      <trkpt lat="47.5389" lon="6.77942">
        <ele>332</ele>
        <time>2016-08-15T09:44:16.000Z</time>
      </trkpt>
      <trkpt lat="47.53887" lon="6.7794">
        <ele>332</ele>
        <time>2016-08-15T09:44:17.000Z</time>
      </trkpt>
      <trkpt lat="47.53884" lon="6.77937">
        <ele>332</ele>
        <time>2016-08-15T09:44:18.000Z</time>
      </trkpt>
      <trkpt lat="47.53881" lon="6.77934">
        <ele>332</ele>
        <time>2016-08-15T09:44:19.000Z</time>
      </trkpt>
      <trkpt lat="47.53878" lon="6.77931">
        <ele>332</ele>
        <time>2016-08-15T09:44:20.000Z</time>
      </trkpt>
      <trkpt lat="47.53875" lon="6.77927">
        <ele>332</ele>
        <time>2016-08-15T09:44:21.000Z</time>
      </trkpt>
      <trkpt lat="47.5387" lon="6.77925">
        <ele>333</ele>
        <time>2016-08-15T09:44:22.000Z</time>
      </trkpt>
      <trkpt lat="47.53867" lon="6.77922">
        <ele>333</ele>
        <time>2016-08-15T09:44:23.000Z</time>
      </trkpt>
      <trkpt lat="47.53863" lon="6.7792">
        <ele>333</ele>
        <time>2016-08-15T09:44:24.000Z</time>
      </trkpt>
      <trkpt lat="47.5386" lon="6.77918">
        <ele>333</ele>
        <time>2016-08-15T09:44:25.000Z</time>
      </trkpt>
      <trkpt lat="47.53856" lon="6.77916">
        <ele>337</ele>
        <time>2016-08-15T09:44:26.000Z</time>
      </trkpt>
      <trkpt lat="47.53853" lon="6.77916">
        <ele>337</ele>
        <time>2016-08-15T09:44:27.000Z</time>
      </trkpt>
      <trkpt lat="47.53849" lon="6.77916">
        <ele>337</ele>
        <time>2016-08-15T09:44:28.000Z</time>
      </trkpt>
      <trkpt lat="47.53845" lon="6.77917">
        <ele>337</ele>
        <time>2016-08-15T09:44:29.000Z</time>
      </trkpt>
      <trkpt lat="47.53841" lon="6.77918">
        <ele>335</ele>
        <time>2016-08-15T09:44:30.000Z</time>
      </trkpt>
      <trkpt lat="47.53837" lon="6.7792">
        <ele>335</ele>
        <time>2016-08-15T09:44:31.000Z</time>
      </trkpt>
      <trkpt lat="47.53833" lon="6.77923">
        <ele>336</ele>
        <time>2016-08-15T09:44:32.000Z</time>
      </trkpt>
      <trkpt lat="47.5383" lon="6.77926">
        <ele>337</ele>
        <time>2016-08-15T09:44:33.000Z</time>
      </trkpt>
      <trkpt lat="47.53828" lon="6.77937">
        <ele>337</ele>
        <time>2016-08-15T09:44:34.000Z</time>
      </trkpt>
      <trkpt lat="47.53825" lon="6.7794">
        <ele>337</ele>
        <time>2016-08-15T09:44:35.000Z</time>
      </trkpt>
      <trkpt lat="47.53823" lon="6.77945">
        <ele>337</ele>
        <time>2016-08-15T09:44:36.000Z</time>
      </trkpt>
      <trkpt lat="47.5382" lon="6.77952">
        <ele>337</ele>
        <time>2016-08-15T09:44:37.000Z</time>
      </trkpt>
      <trkpt lat="47.53818" lon="6.77958">
        <ele>337</ele>
        <time>2016-08-15T09:44:38.000Z</time>
      </trkpt>
      <trkpt lat="47.53815" lon="6.77963">
        <ele>337</ele>
        <time>2016-08-15T09:44:39.000Z</time>
      </trkpt>
      <trkpt lat="47.53813" lon="6.77968">
        <ele>336</ele>
        <time>2016-08-15T09:44:40.000Z</time>
      </trkpt>
      <trkpt lat="47.5381" lon="6.77974">
        <ele>336</ele>
        <time>2016-08-15T09:44:41.000Z</time>
      </trkpt>
      <trkpt lat="47.53807" lon="6.77978">
        <ele>336</ele>
        <time>2016-08-15T09:44:42.000Z</time>
      </trkpt>
      <trkpt lat="47.53804" lon="6.77984">
        <ele>336</ele>
        <time>2016-08-15T09:44:43.000Z</time>
      </trkpt>
      <trkpt lat="47.538" lon="6.77989">
        <ele>336</ele>
        <time>2016-08-15T09:44:44.000Z</time>
      </trkpt>
      <trkpt lat="47.53796" lon="6.77995">
        <ele>337</ele>
        <time>2016-08-15T09:44:45.000Z</time>
      </trkpt>
      <trkpt lat="47.53792" lon="6.78002">
        <ele>332</ele>
        <time>2016-08-15T09:44:46.000Z</time>
      </trkpt>
      <trkpt lat="47.53787" lon="6.78007">
        <ele>332</ele>
        <time>2016-08-15T09:44:47.000Z</time>
      </trkpt>
      <trkpt lat="47.53782" lon="6.78013">
        <ele>333</ele>
        <time>2016-08-15T09:44:48.000Z</time>
      </trkpt>
      <trkpt lat="47.53776" lon="6.78019">
        <ele>333</ele>
        <time>2016-08-15T09:44:49.000Z</time>
      </trkpt>
      <trkpt lat="47.53772" lon="6.78025">
        <ele>333</ele>
        <time>2016-08-15T09:44:50.000Z</time>
      </trkpt>
      <trkpt lat="47.53766" lon="6.7803">
        <ele>332</ele>
        <time>2016-08-15T09:44:51.000Z</time>
      </trkpt>
      <trkpt lat="47.53761" lon="6.78036">
        <ele>332</ele>
        <time>2016-08-15T09:44:52.000Z</time>
      </trkpt>
      <trkpt lat="47.53756" lon="6.78041">
        <ele>332</ele>
        <time>2016-08-15T09:44:53.000Z</time>
      </trkpt>
      <trkpt lat="47.53751" lon="6.78047">
        <ele>331</ele>
        <time>2016-08-15T09:44:54.000Z</time>
      </trkpt>
      <trkpt lat="47.53746" lon="6.78053">
        <ele>333</ele>
        <time>2016-08-15T09:44:55.000Z</time>
      </trkpt>
      <trkpt lat="47.53739" lon="6.78058">
        <ele>333</ele>
        <time>2016-08-15T09:44:56.000Z</time>
      </trkpt>
      <trkpt lat="47.53735" lon="6.78061">
        <ele>333</ele>
        <time>2016-08-15T09:44:57.000Z</time>
      </trkpt>
      <trkpt lat="47.53731" lon="6.78065">
        <ele>333</ele>
        <time>2016-08-15T09:44:58.000Z</time>
      </trkpt>
      <trkpt lat="47.53727" lon="6.78069">
        <ele>333</ele>
        <time>2016-08-15T09:44:59.000Z</time>
      </trkpt>
      <trkpt lat="47.53723" lon="6.78071">
        <ele>333</ele>
        <time>2016-08-15T09:45:00.000Z</time>
      </trkpt>
      <trkpt lat="47.53719" lon="6.78073">
        <ele>333</ele>
        <time>2016-08-15T09:45:01.000Z</time>
      </trkpt>
      <trkpt lat="47.53715" lon="6.78071">
        <ele>333</ele>
        <time>2016-08-15T09:45:02.000Z</time>
      </trkpt>
      <trkpt lat="47.53712" lon="6.7807">
        <ele>334</ele>
        <time>2016-08-15T09:45:03.000Z</time>
      </trkpt>
      <trkpt lat="47.5371" lon="6.78067">
        <ele>334</ele>
        <time>2016-08-15T09:45:04.000Z</time>
      </trkpt>
      <trkpt lat="47.53709" lon="6.78061">
        <ele>334</ele>
        <time>2016-08-15T09:45:05.000Z</time>
      </trkpt>
      <trkpt lat="47.53707" lon="6.78057">
        <ele>334</ele>
        <time>2016-08-15T09:45:06.000Z</time>
      </trkpt>
      <trkpt lat="47.53704" lon="6.78052">
        <ele>335</ele>
        <time>2016-08-15T09:45:07.000Z</time>
      </trkpt>
      <trkpt lat="47.53702" lon="6.78049">
        <ele>335</ele>
        <time>2016-08-15T09:45:08.000Z</time>
      </trkpt>
      <trkpt lat="47.53701" lon="6.78045">
        <ele>335</ele>
        <time>2016-08-15T09:45:09.000Z</time>
      </trkpt>
      <trkpt lat="47.537" lon="6.78041">
        <ele>335</ele>
        <time>2016-08-15T09:45:10.000Z</time>
      </trkpt>
      <trkpt lat="47.53699" lon="6.78038">
        <ele>336</ele>
        <time>2016-08-15T09:45:11.000Z</time>
      </trkpt>
      <trkpt lat="47.53699" lon="6.78032">
        <ele>336</ele>
        <time>2016-08-15T09:45:13.000Z</time>
      </trkpt>
      <trkpt lat="47.53699" lon="6.78029">
        <ele>336</ele>
        <time>2016-08-15T09:45:14.000Z</time>
      </trkpt>
      <trkpt lat="47.53699" lon="6.78026">
        <ele>336</ele>
        <time>2016-08-15T09:45:15.000Z</time>
      </trkpt>
      <trkpt lat="47.53698" lon="6.78022">
        <ele>337</ele>
        <time>2016-08-15T09:45:16.000Z</time>
      </trkpt>
      <trkpt lat="47.53698" lon="6.78018">
        <ele>337</ele>
        <time>2016-08-15T09:45:17.000Z</time>
      </trkpt>
      <trkpt lat="47.53698" lon="6.78014">
        <ele>337</ele>
        <time>2016-08-15T09:45:18.000Z</time>
      </trkpt>
      <trkpt lat="47.53697" lon="6.78009">
        <ele>337</ele>
        <time>2016-08-15T09:45:19.000Z</time>
      </trkpt>
      <trkpt lat="47.53697" lon="6.78004">
        <ele>337</ele>
        <time>2016-08-15T09:45:20.000Z</time>
      </trkpt>
      <trkpt lat="47.53697" lon="6.77999">
        <ele>342</ele>
        <time>2016-08-15T09:45:21.000Z</time>
      </trkpt>
      <trkpt lat="47.53697" lon="6.77995">
        <ele>342</ele>
        <time>2016-08-15T09:45:22.000Z</time>
      </trkpt>
      <trkpt lat="47.53697" lon="6.77991">
        <ele>342</ele>
        <time>2016-08-15T09:45:23.000Z</time>
      </trkpt>
      <trkpt lat="47.53697" lon="6.77987">
        <ele>343</ele>
        <time>2016-08-15T09:45:24.000Z</time>
      </trkpt>
      <trkpt lat="47.53697" lon="6.77983">
        <ele>343</ele>
        <time>2016-08-15T09:45:25.000Z</time>
      </trkpt>
      <trkpt lat="47.53697" lon="6.77979">
        <ele>343</ele>
        <time>2016-08-15T09:45:26.000Z</time>
      </trkpt>
      <trkpt lat="47.53697" lon="6.77974">
        <ele>343</ele>
        <time>2016-08-15T09:45:27.000Z</time>
      </trkpt>
      <trkpt lat="47.53697" lon="6.77969">
        <ele>343</ele>
        <time>2016-08-15T09:45:28.000Z</time>
      </trkpt>
      <trkpt lat="47.53696" lon="6.77964">
        <ele>343</ele>
        <time>2016-08-15T09:45:29.000Z</time>
      </trkpt>
      <trkpt lat="47.53695" lon="6.77958">
        <ele>343</ele>
        <time>2016-08-15T09:45:30.000Z</time>
      </trkpt>
      <trkpt lat="47.53694" lon="6.77953">
        <ele>344</ele>
        <time>2016-08-15T09:45:31.000Z</time>
      </trkpt>
      <trkpt lat="47.53694" lon="6.77947">
        <ele>344</ele>
        <time>2016-08-15T09:45:32.000Z</time>
      </trkpt>
      <trkpt lat="47.53693" lon="6.77942">
        <ele>344</ele>
        <time>2016-08-15T09:45:33.000Z</time>
      </trkpt>
      <trkpt lat="47.53693" lon="6.77937">
        <ele>344</ele>
        <time>2016-08-15T09:45:34.000Z</time>
      </trkpt>
      <trkpt lat="47.53693" lon="6.77932">
        <ele>344</ele>
        <time>2016-08-15T09:45:35.000Z</time>
      </trkpt>
      <trkpt lat="47.53693" lon="6.77926">
        <ele>345</ele>
        <time>2016-08-15T09:45:36.000Z</time>
      </trkpt>
      <trkpt lat="47.53692" lon="6.77921">
        <ele>345</ele>
        <time>2016-08-15T09:45:37.000Z</time>
      </trkpt>
      <trkpt lat="47.53692" lon="6.77915">
        <ele>348</ele>
        <time>2016-08-15T09:45:38.000Z</time>
      </trkpt>
      <trkpt lat="47.53692" lon="6.7791">
        <ele>348</ele>
        <time>2016-08-15T09:45:39.000Z</time>
      </trkpt>
      <trkpt lat="47.53691" lon="6.77906">
        <ele>348</ele>
        <time>2016-08-15T09:45:40.000Z</time>
      </trkpt>
      <trkpt lat="47.53692" lon="6.779">
        <ele>348</ele>
        <time>2016-08-15T09:45:42.000Z</time>
      </trkpt>
      <trkpt lat="47.53692" lon="6.77897">
        <ele>348</ele>
        <time>2016-08-15T09:45:43.000Z</time>
      </trkpt>
      <trkpt lat="47.53693" lon="6.77892">
        <ele>348</ele>
        <time>2016-08-15T09:45:45.000Z</time>
      </trkpt>
      <trkpt lat="47.53693" lon="6.77889">
        <ele>349</ele>
        <time>2016-08-15T09:45:46.000Z</time>
      </trkpt>
      <trkpt lat="47.53692" lon="6.77884">
        <ele>349</ele>
        <time>2016-08-15T09:45:48.000Z</time>
      </trkpt>
      <trkpt lat="47.53693" lon="6.77881">
        <ele>349</ele>
        <time>2016-08-15T09:45:49.000Z</time>
      </trkpt>
      <trkpt lat="47.53693" lon="6.77878">
        <ele>349</ele>
        <time>2016-08-15T09:45:50.000Z</time>
      </trkpt>
      <trkpt lat="47.53692" lon="6.77874">
        <ele>349</ele>
        <time>2016-08-15T09:45:51.000Z</time>
      </trkpt>
      <trkpt lat="47.53692" lon="6.7787">
        <ele>349</ele>
        <time>2016-08-15T09:45:52.000Z</time>
      </trkpt>
      <trkpt lat="47.53692" lon="6.77866">
        <ele>349</ele>
        <time>2016-08-15T09:45:53.000Z</time>
      </trkpt>
      <trkpt lat="47.53692" lon="6.77862">
        <ele>350</ele>
        <time>2016-08-15T09:45:54.000Z</time>
      </trkpt>
      <trkpt lat="47.53692" lon="6.77857">
        <ele>350</ele>
        <time>2016-08-15T09:45:55.000Z</time>
      </trkpt>
      <trkpt lat="47.53691" lon="6.77852">
        <ele>350</ele>
        <time>2016-08-15T09:45:56.000Z</time>
      </trkpt>
      <trkpt lat="47.53691" lon="6.77848">
        <ele>350</ele>
        <time>2016-08-15T09:45:57.000Z</time>
      </trkpt>
      <trkpt lat="47.5369" lon="6.77844">
        <ele>350</ele>
        <time>2016-08-15T09:45:58.000Z</time>
      </trkpt>
      <trkpt lat="47.5369" lon="6.7784">
        <ele>350</ele>
        <time>2016-08-15T09:45:59.000Z</time>
      </trkpt>
      <trkpt lat="47.53689" lon="6.77836">
        <ele>350</ele>
        <time>2016-08-15T09:46:00.000Z</time>
      </trkpt>
      <trkpt lat="47.53689" lon="6.77831">
        <ele>353</ele>
        <time>2016-08-15T09:46:01.000Z</time>
      </trkpt>
      <trkpt lat="47.53688" lon="6.77826">
        <ele>353</ele>
        <time>2016-08-15T09:46:02.000Z</time>
      </trkpt>
      <trkpt lat="47.53687" lon="6.77821">
        <ele>353</ele>
        <time>2016-08-15T09:46:03.000Z</time>
      </trkpt>
      <trkpt lat="47.53686" lon="6.77816">
        <ele>353</ele>
        <time>2016-08-15T09:46:04.000Z</time>
      </trkpt>
      <trkpt lat="47.53685" lon="6.77811">
        <ele>353</ele>
        <time>2016-08-15T09:46:05.000Z</time>
      </trkpt>
      <trkpt lat="47.53683" lon="6.77806">
        <ele>353</ele>
        <time>2016-08-15T09:46:06.000Z</time>
      </trkpt>
      <trkpt lat="47.53682" lon="6.77801">
        <ele>353</ele>
        <time>2016-08-15T09:46:07.000Z</time>
      </trkpt>
      <trkpt lat="47.5368" lon="6.77796">
        <ele>353</ele>
        <time>2016-08-15T09:46:08.000Z</time>
      </trkpt>
      <trkpt lat="47.53679" lon="6.77792">
        <ele>354</ele>
        <time>2016-08-15T09:46:09.000Z</time>
      </trkpt>
      <trkpt lat="47.53678" lon="6.77787">
        <ele>354</ele>
        <time>2016-08-15T09:46:10.000Z</time>
      </trkpt>
      <trkpt lat="47.53677" lon="6.77784">
        <ele>354</ele>
        <time>2016-08-15T09:46:11.000Z</time>
      </trkpt>
      <trkpt lat="47.53676" lon="6.7778">
        <ele>354</ele>
        <time>2016-08-15T09:46:12.000Z</time>
      </trkpt>
      <trkpt lat="47.53675" lon="6.77777">
        <ele>354</ele>
        <time>2016-08-15T09:46:13.000Z</time>
      </trkpt>
      <trkpt lat="47.53674" lon="6.77773">
        <ele>354</ele>
        <time>2016-08-15T09:46:14.000Z</time>
      </trkpt>
      <trkpt lat="47.53673" lon="6.77769">
        <ele>354</ele>
        <time>2016-08-15T09:46:15.000Z</time>
      </trkpt>
      <trkpt lat="47.53671" lon="6.77765">
        <ele>354</ele>
        <time>2016-08-15T09:46:16.000Z</time>
      </trkpt>
      <trkpt lat="47.5367" lon="6.77761">
        <ele>354</ele>
        <time>2016-08-15T09:46:17.000Z</time>
      </trkpt>
      <trkpt lat="47.53667" lon="6.77756">
        <ele>354</ele>
        <time>2016-08-15T09:46:18.000Z</time>
      </trkpt>
      <trkpt lat="47.53665" lon="6.7775">
        <ele>354</ele>
        <time>2016-08-15T09:46:19.000Z</time>
      </trkpt>
      <trkpt lat="47.53663" lon="6.77743">
        <ele>355</ele>
        <time>2016-08-15T09:46:20.000Z</time>
      </trkpt>
      <trkpt lat="47.53661" lon="6.77737">
        <ele>355</ele>
        <time>2016-08-15T09:46:21.000Z</time>
      </trkpt>
      <trkpt lat="47.53658" lon="6.77731">
        <ele>355</ele>
        <time>2016-08-15T09:46:22.000Z</time>
      </trkpt>
      <trkpt lat="47.53655" lon="6.77725">
        <ele>356</ele>
        <time>2016-08-15T09:46:23.000Z</time>
      </trkpt>
      <trkpt lat="47.53652" lon="6.77718">
        <ele>356</ele>
        <time>2016-08-15T09:46:24.000Z</time>
      </trkpt>
      <trkpt lat="47.53648" lon="6.77712">
        <ele>356</ele>
        <time>2016-08-15T09:46:25.000Z</time>
      </trkpt>
      <trkpt lat="47.53645" lon="6.77706">
        <ele>356</ele>
        <time>2016-08-15T09:46:26.000Z</time>
      </trkpt>
      <trkpt lat="47.53642" lon="6.777">
        <ele>357</ele>
        <time>2016-08-15T09:46:27.000Z</time>
      </trkpt>
      <trkpt lat="47.53639" lon="6.77694">
        <ele>357</ele>
        <time>2016-08-15T09:46:28.000Z</time>
      </trkpt>
      <trkpt lat="47.53636" lon="6.77689">
        <ele>357</ele>
        <time>2016-08-15T09:46:29.000Z</time>
      </trkpt>
      <trkpt lat="47.53634" lon="6.77683">
        <ele>357</ele>
        <time>2016-08-15T09:46:30.000Z</time>
      </trkpt>
      <trkpt lat="47.53631" lon="6.77678">
        <ele>357</ele>
        <time>2016-08-15T09:46:31.000Z</time>
      </trkpt>
      <trkpt lat="47.53628" lon="6.77673">
        <ele>357</ele>
        <time>2016-08-15T09:46:32.000Z</time>
      </trkpt>
      <trkpt lat="47.53625" lon="6.77668">
        <ele>357</ele>
        <time>2016-08-15T09:46:33.000Z</time>
      </trkpt>
      <trkpt lat="47.53622" lon="6.77664">
        <ele>360</ele>
        <time>2016-08-15T09:46:34.000Z</time>
      </trkpt>
      <trkpt lat="47.5362" lon="6.7766">
        <ele>360</ele>
        <time>2016-08-15T09:46:35.000Z</time>
      </trkpt>
      <trkpt lat="47.53617" lon="6.77656">
        <ele>360</ele>
        <time>2016-08-15T09:46:36.000Z</time>
      </trkpt>
      <trkpt lat="47.53615" lon="6.77652">
        <ele>360</ele>
        <time>2016-08-15T09:46:37.000Z</time>
      </trkpt>
      <trkpt lat="47.53613" lon="6.77648">
        <ele>360</ele>
        <time>2016-08-15T09:46:38.000Z</time>
      </trkpt>
      <trkpt lat="47.53611" lon="6.77644">
        <ele>360</ele>
        <time>2016-08-15T09:46:39.000Z</time>
      </trkpt>
      <trkpt lat="47.53608" lon="6.7764">
        <ele>360</ele>
        <time>2016-08-15T09:46:40.000Z</time>
      </trkpt>
      <trkpt lat="47.53606" lon="6.77636">
        <ele>360</ele>
        <time>2016-08-15T09:46:41.000Z</time>
      </trkpt>
      <trkpt lat="47.53604" lon="6.77632">
        <ele>360</ele>
        <time>2016-08-15T09:46:42.000Z</time>
      </trkpt>
      <trkpt lat="47.53601" lon="6.77627">
        <ele>360</ele>
        <time>2016-08-15T09:46:43.000Z</time>
      </trkpt>
      <trkpt lat="47.53599" lon="6.77623">
        <ele>361</ele>
        <time>2016-08-15T09:46:44.000Z</time>
      </trkpt>
      <trkpt lat="47.53596" lon="6.77619">
        <ele>361</ele>
        <time>2016-08-15T09:46:45.000Z</time>
      </trkpt>
      <trkpt lat="47.53593" lon="6.77615">
        <ele>361</ele>
        <time>2016-08-15T09:46:46.000Z</time>
      </trkpt>
      <trkpt lat="47.53591" lon="6.77611">
        <ele>361</ele>
        <time>2016-08-15T09:46:47.000Z</time>
      </trkpt>
      <trkpt lat="47.5359" lon="6.77607">
        <ele>361</ele>
        <time>2016-08-15T09:46:48.000Z</time>
      </trkpt>
      <trkpt lat="47.53588" lon="6.77603">
        <ele>361</ele>
        <time>2016-08-15T09:46:49.000Z</time>
      </trkpt>
      <trkpt lat="47.53587" lon="6.776">
        <ele>361</ele>
        <time>2016-08-15T09:46:50.000Z</time>
      </trkpt>
      <trkpt lat="47.53585" lon="6.77596">
        <ele>361</ele>
        <time>2016-08-15T09:46:51.000Z</time>
      </trkpt>
      <trkpt lat="47.53585" lon="6.77593">
        <ele>361</ele>
        <time>2016-08-15T09:46:52.000Z</time>
      </trkpt>
      <trkpt lat="47.53584" lon="6.7759">
        <ele>361</ele>
        <time>2016-08-15T09:46:53.000Z</time>
      </trkpt>
      <trkpt lat="47.53583" lon="6.77587">
        <ele>361</ele>
        <time>2016-08-15T09:46:54.000Z</time>
      </trkpt>
      <trkpt lat="47.53582" lon="6.77583">
        <ele>361</ele>
        <time>2016-08-15T09:46:55.000Z</time>
      </trkpt>
      <trkpt lat="47.5358" lon="6.7758">
        <ele>362</ele>
        <time>2016-08-15T09:46:56.000Z</time>
      </trkpt>
      <trkpt lat="47.53579" lon="6.77576">
        <ele>362</ele>
        <time>2016-08-15T09:46:57.000Z</time>
      </trkpt>
      <trkpt lat="47.53577" lon="6.77572">
        <ele>363</ele>
        <time>2016-08-15T09:46:58.000Z</time>
      </trkpt>
      <trkpt lat="47.53576" lon="6.77567">
        <ele>364</ele>
        <time>2016-08-15T09:46:59.000Z</time>
      </trkpt>
      <trkpt lat="47.53574" lon="6.77563">
        <ele>364</ele>
        <time>2016-08-15T09:47:00.000Z</time>
      </trkpt>
      <trkpt lat="47.53573" lon="6.77559">
        <ele>364</ele>
        <time>2016-08-15T09:47:01.000Z</time>
      </trkpt>
      <trkpt lat="47.53571" lon="6.77554">
        <ele>365</ele>
        <time>2016-08-15T09:47:02.000Z</time>
      </trkpt>
      <trkpt lat="47.53569" lon="6.77549">
        <ele>365</ele>
        <time>2016-08-15T09:47:03.000Z</time>
      </trkpt>
      <trkpt lat="47.53566" lon="6.77545">
        <ele>365</ele>
        <time>2016-08-15T09:47:04.000Z</time>
      </trkpt>
      <trkpt lat="47.53564" lon="6.7754">
        <ele>365</ele>
        <time>2016-08-15T09:47:05.000Z</time>
      </trkpt>
      <trkpt lat="47.53562" lon="6.77535">
        <ele>366</ele>
        <time>2016-08-15T09:47:06.000Z</time>
      </trkpt>
      <trkpt lat="47.5356" lon="6.7753">
        <ele>366</ele>
        <time>2016-08-15T09:47:07.000Z</time>
      </trkpt>
      <trkpt lat="47.53559" lon="6.77525">
        <ele>366</ele>
        <time>2016-08-15T09:47:08.000Z</time>
      </trkpt>
      <trkpt lat="47.53557" lon="6.7752">
        <ele>366</ele>
        <time>2016-08-15T09:47:09.000Z</time>
      </trkpt>
      <trkpt lat="47.53556" lon="6.77515">
        <ele>366</ele>
        <time>2016-08-15T09:47:10.000Z</time>
      </trkpt>
      <trkpt lat="47.53554" lon="6.77511">
        <ele>366</ele>
        <time>2016-08-15T09:47:11.000Z</time>
      </trkpt>
      <trkpt lat="47.53552" lon="6.77507">
        <ele>366</ele>
        <time>2016-08-15T09:47:12.000Z</time>
      </trkpt>
      <trkpt lat="47.5355" lon="6.77503">
        <ele>366</ele>
        <time>2016-08-15T09:47:13.000Z</time>
      </trkpt>
      <trkpt lat="47.53548" lon="6.77498">
        <ele>368</ele>
        <time>2016-08-15T09:47:14.000Z</time>
      </trkpt>
      <trkpt lat="47.53546" lon="6.77494">
        <ele>368</ele>
        <time>2016-08-15T09:47:15.000Z</time>
      </trkpt>
      <trkpt lat="47.53543" lon="6.77489">
        <ele>368</ele>
        <time>2016-08-15T09:47:16.000Z</time>
      </trkpt>
      <trkpt lat="47.5354" lon="6.77484">
        <ele>368</ele>
        <time>2016-08-15T09:47:17.000Z</time>
      </trkpt>
      <trkpt lat="47.53538" lon="6.77479">
        <ele>368</ele>
        <time>2016-08-15T09:47:18.000Z</time>
      </trkpt>
      <trkpt lat="47.53535" lon="6.77474">
        <ele>368</ele>
        <time>2016-08-15T09:47:19.000Z</time>
      </trkpt>
      <trkpt lat="47.53532" lon="6.77469">
        <ele>368</ele>
        <time>2016-08-15T09:47:20.000Z</time>
      </trkpt>
      <trkpt lat="47.53529" lon="6.77465">
        <ele>368</ele>
        <time>2016-08-15T09:47:21.000Z</time>
      </trkpt>
      <trkpt lat="47.53526" lon="6.7746">
        <ele>368</ele>
        <time>2016-08-15T09:47:22.000Z</time>
      </trkpt>
      <trkpt lat="47.53523" lon="6.77456">
        <ele>368</ele>
        <time>2016-08-15T09:47:23.000Z</time>
      </trkpt>
      <trkpt lat="47.5352" lon="6.77452">
        <ele>368</ele>
        <time>2016-08-15T09:47:24.000Z</time>
      </trkpt>
      <trkpt lat="47.53518" lon="6.77448">
        <ele>368</ele>
        <time>2016-08-15T09:47:25.000Z</time>
      </trkpt>
      <trkpt lat="47.53515" lon="6.77444">
        <ele>368</ele>
        <time>2016-08-15T09:47:26.000Z</time>
      </trkpt>
      <trkpt lat="47.53512" lon="6.7744">
        <ele>368</ele>
        <time>2016-08-15T09:47:27.000Z</time>
      </trkpt>
      <trkpt lat="47.5351" lon="6.77437">
        <ele>368</ele>
        <time>2016-08-15T09:47:28.000Z</time>
      </trkpt>
      <trkpt lat="47.53507" lon="6.77432">
        <ele>368</ele>
        <time>2016-08-15T09:47:29.000Z</time>
      </trkpt>
      <trkpt lat="47.53504" lon="6.77427">
        <ele>368</ele>
        <time>2016-08-15T09:47:30.000Z</time>
      </trkpt>
      <trkpt lat="47.53501" lon="6.77422">
        <ele>367</ele>
        <time>2016-08-15T09:47:31.000Z</time>
      </trkpt>
      <trkpt lat="47.53498" lon="6.77416">
        <ele>367</ele>
        <time>2016-08-15T09:47:32.000Z</time>
      </trkpt>
      <trkpt lat="47.53496" lon="6.77411">
        <ele>367</ele>
        <time>2016-08-15T09:47:33.000Z</time>
      </trkpt>
      <trkpt lat="47.53494" lon="6.77407">
        <ele>368</ele>
        <time>2016-08-15T09:47:34.000Z</time>
      </trkpt>
      <trkpt lat="47.53491" lon="6.77402">
        <ele>368</ele>
        <time>2016-08-15T09:47:35.000Z</time>
      </trkpt>
      <trkpt lat="47.53489" lon="6.77398">
        <ele>368</ele>
        <time>2016-08-15T09:47:36.000Z</time>
      </trkpt>
      <trkpt lat="47.53487" lon="6.77394">
        <ele>368</ele>
        <time>2016-08-15T09:47:37.000Z</time>
      </trkpt>
      <trkpt lat="47.53485" lon="6.7739">
        <ele>368</ele>
        <time>2016-08-15T09:47:38.000Z</time>
      </trkpt>
      <trkpt lat="47.53482" lon="6.77386">
        <ele>368</ele>
        <time>2016-08-15T09:47:39.000Z</time>
      </trkpt>
      <trkpt lat="47.5348" lon="6.77381">
        <ele>368</ele>
        <time>2016-08-15T09:47:40.000Z</time>
      </trkpt>
      <trkpt lat="47.53477" lon="6.77376">
        <ele>368</ele>
        <time>2016-08-15T09:47:41.000Z</time>
      </trkpt>
      <trkpt lat="47.53475" lon="6.77371">
        <ele>368</ele>
        <time>2016-08-15T09:47:42.000Z</time>
      </trkpt>
      <trkpt lat="47.53472" lon="6.77365">
        <ele>368</ele>
        <time>2016-08-15T09:47:43.000Z</time>
      </trkpt>
      <trkpt lat="47.5347" lon="6.7736">
        <ele>368</ele>
        <time>2016-08-15T09:47:44.000Z</time>
      </trkpt>
      <trkpt lat="47.53469" lon="6.77354">
        <ele>368</ele>
        <time>2016-08-15T09:47:45.000Z</time>
      </trkpt>
      <trkpt lat="47.53467" lon="6.77349">
        <ele>368</ele>
        <time>2016-08-15T09:47:46.000Z</time>
      </trkpt>
      <trkpt lat="47.53466" lon="6.77344">
        <ele>368</ele>
        <time>2016-08-15T09:47:47.000Z</time>
      </trkpt>
      <trkpt lat="47.53464" lon="6.77338">
        <ele>368</ele>
        <time>2016-08-15T09:47:48.000Z</time>
      </trkpt>
      <trkpt lat="47.53463" lon="6.77333">
        <ele>368</ele>
        <time>2016-08-15T09:47:49.000Z</time>
      </trkpt>
      <trkpt lat="47.53461" lon="6.77328">
        <ele>368</ele>
        <time>2016-08-15T09:47:50.000Z</time>
      </trkpt>
      <trkpt lat="47.53459" lon="6.77321">
        <ele>368</ele>
        <time>2016-08-15T09:47:51.000Z</time>
      </trkpt>
      <trkpt lat="47.53456" lon="6.77314">
        <ele>368</ele>
        <time>2016-08-15T09:47:52.000Z</time>
      </trkpt>
      <trkpt lat="47.53453" lon="6.77306">
        <ele>368</ele>
        <time>2016-08-15T09:47:53.000Z</time>
      </trkpt>
      <trkpt lat="47.53449" lon="6.77298">
        <ele>368</ele>
        <time>2016-08-15T09:47:54.000Z</time>
      </trkpt>
      <trkpt lat="47.53445" lon="6.7729">
        <ele>368</ele>
        <time>2016-08-15T09:47:55.000Z</time>
      </trkpt>
      <trkpt lat="47.53441" lon="6.77282">
        <ele>368</ele>
        <time>2016-08-15T09:47:56.000Z</time>
      </trkpt>
      <trkpt lat="47.53438" lon="6.77274">
        <ele>367</ele>
        <time>2016-08-15T09:47:57.000Z</time>
      </trkpt>
      <trkpt lat="47.53435" lon="6.77266">
        <ele>367</ele>
        <time>2016-08-15T09:47:58.000Z</time>
      </trkpt>
      <trkpt lat="47.53432" lon="6.77258">
        <ele>367</ele>
        <time>2016-08-15T09:47:59.000Z</time>
      </trkpt>
      <trkpt lat="47.5343" lon="6.77251">
        <ele>366</ele>
        <time>2016-08-15T09:48:00.000Z</time>
      </trkpt>
      <trkpt lat="47.53428" lon="6.77244">
        <ele>366</ele>
        <time>2016-08-15T09:48:01.000Z</time>
      </trkpt>
      <trkpt lat="47.53425" lon="6.77238">
        <ele>367</ele>
        <time>2016-08-15T09:48:02.000Z</time>
      </trkpt>
      <trkpt lat="47.53422" lon="6.77233">
        <ele>367</ele>
        <time>2016-08-15T09:48:03.000Z</time>
      </trkpt>
      <trkpt lat="47.53418" lon="6.77228">
        <ele>367</ele>
        <time>2016-08-15T09:48:04.000Z</time>
      </trkpt>
      <trkpt lat="47.53414" lon="6.77225">
        <ele>365</ele>
        <time>2016-08-15T09:48:05.000Z</time>
      </trkpt>
      <trkpt lat="47.5341" lon="6.77223">
        <ele>365</ele>
        <time>2016-08-15T09:48:06.000Z</time>
      </trkpt>
      <trkpt lat="47.53405" lon="6.77221">
        <ele>365</ele>
        <time>2016-08-15T09:48:07.000Z</time>
      </trkpt>
      <trkpt lat="47.53399" lon="6.7722">
        <ele>365</ele>
        <time>2016-08-15T09:48:08.000Z</time>
      </trkpt>
      <trkpt lat="47.53392" lon="6.77219">
        <ele>365</ele>
        <time>2016-08-15T09:48:09.000Z</time>
      </trkpt>
      <trkpt lat="47.5337" lon="6.77216">
        <ele>365</ele>
        <time>2016-08-15T09:48:10.000Z</time>
      </trkpt>
      <trkpt lat="47.53365" lon="6.77214">
        <ele>365</ele>
        <time>2016-08-15T09:48:11.000Z</time>
      </trkpt>
      <trkpt lat="47.53358" lon="6.77213">
        <ele>365</ele>
        <time>2016-08-15T09:48:12.000Z</time>
      </trkpt>
      <trkpt lat="47.53354" lon="6.77213">
        <ele>365</ele>
        <time>2016-08-15T09:48:13.000Z</time>
      </trkpt>
      <trkpt lat="47.53347" lon="6.77214">
        <ele>365</ele>
        <time>2016-08-15T09:48:14.000Z</time>
      </trkpt>
      <trkpt lat="47.53341" lon="6.77218">
        <ele>365</ele>
        <time>2016-08-15T09:48:15.000Z</time>
      </trkpt>
      <trkpt lat="47.53336" lon="6.77216">
        <ele>365</ele>
        <time>2016-08-15T09:48:16.000Z</time>
      </trkpt>
      <trkpt lat="47.53331" lon="6.77217">
        <ele>366</ele>
        <time>2016-08-15T09:48:17.000Z</time>
      </trkpt>
      <trkpt lat="47.53326" lon="6.77213">
        <ele>366</ele>
        <time>2016-08-15T09:48:18.000Z</time>
      </trkpt>
      <trkpt lat="47.53321" lon="6.77209">
        <ele>366</ele>
        <time>2016-08-15T09:48:19.000Z</time>
      </trkpt>
      <trkpt lat="47.53315" lon="6.77208">
        <ele>366</ele>
        <time>2016-08-15T09:48:20.000Z</time>
      </trkpt>
      <trkpt lat="47.5331" lon="6.77208">
        <ele>367</ele>
        <time>2016-08-15T09:48:21.000Z</time>
      </trkpt>
      <trkpt lat="47.53305" lon="6.77209">
        <ele>367</ele>
        <time>2016-08-15T09:48:22.000Z</time>
      </trkpt>
      <trkpt lat="47.533" lon="6.77211">
        <ele>367</ele>
        <time>2016-08-15T09:48:23.000Z</time>
      </trkpt>
      <trkpt lat="47.53296" lon="6.77211">
        <ele>367</ele>
        <time>2016-08-15T09:48:24.000Z</time>
      </trkpt>
      <trkpt lat="47.5329" lon="6.77211">
        <ele>367</ele>
        <time>2016-08-15T09:48:25.000Z</time>
      </trkpt>
      <trkpt lat="47.53285" lon="6.77211">
        <ele>367</ele>
        <time>2016-08-15T09:48:26.000Z</time>
      </trkpt>
      <trkpt lat="47.5328" lon="6.77211">
        <ele>367</ele>
        <time>2016-08-15T09:48:27.000Z</time>
      </trkpt>
      <trkpt lat="47.53276" lon="6.77211">
        <ele>367</ele>
        <time>2016-08-15T09:48:28.000Z</time>
      </trkpt>
      <trkpt lat="47.53272" lon="6.77211">
        <ele>367</ele>
        <time>2016-08-15T09:48:29.000Z</time>
      </trkpt>
      <trkpt lat="47.53268" lon="6.7721">
        <ele>368</ele>
        <time>2016-08-15T09:48:30.000Z</time>
      </trkpt>
      <trkpt lat="47.53264" lon="6.7721">
        <ele>368</ele>
        <time>2016-08-15T09:48:31.000Z</time>
      </trkpt>
      <trkpt lat="47.5326" lon="6.77209">
        <ele>368</ele>
        <time>2016-08-15T09:48:32.000Z</time>
      </trkpt>
      <trkpt lat="47.53256" lon="6.77208">
        <ele>368</ele>
        <time>2016-08-15T09:48:33.000Z</time>
      </trkpt>
      <trkpt lat="47.53251" lon="6.77207">
        <ele>368</ele>
        <time>2016-08-15T09:48:34.000Z</time>
      </trkpt>
      <trkpt lat="47.53247" lon="6.77207">
        <ele>370</ele>
        <time>2016-08-15T09:48:35.000Z</time>
      </trkpt>
      <trkpt lat="47.53243" lon="6.77206">
        <ele>370</ele>
        <time>2016-08-15T09:48:36.000Z</time>
      </trkpt>
      <trkpt lat="47.5324" lon="6.77206">
        <ele>370</ele>
        <time>2016-08-15T09:48:37.000Z</time>
      </trkpt>
      <trkpt lat="47.53236" lon="6.77206">
        <ele>370</ele>
        <time>2016-08-15T09:48:38.000Z</time>
      </trkpt>
      <trkpt lat="47.53234" lon="6.77206">
        <ele>370</ele>
        <time>2016-08-15T09:48:39.000Z</time>
      </trkpt>
      <trkpt lat="47.53231" lon="6.77206">
        <ele>370</ele>
        <time>2016-08-15T09:48:40.000Z</time>
      </trkpt>
      <trkpt lat="47.53228" lon="6.77206">
        <ele>370</ele>
        <time>2016-08-15T09:48:41.000Z</time>
      </trkpt>
      <trkpt lat="47.53225" lon="6.77204">
        <ele>370</ele>
        <time>2016-08-15T09:48:42.000Z</time>
      </trkpt>
      <trkpt lat="47.53221" lon="6.77203">
        <ele>370</ele>
        <time>2016-08-15T09:48:43.000Z</time>
      </trkpt>
      <trkpt lat="47.53217" lon="6.77202">
        <ele>370</ele>
        <time>2016-08-15T09:48:44.000Z</time>
      </trkpt>
      <trkpt lat="47.53214" lon="6.77201">
        <ele>370</ele>
        <time>2016-08-15T09:48:45.000Z</time>
      </trkpt>
      <trkpt lat="47.5321" lon="6.772">
        <ele>370</ele>
        <time>2016-08-15T09:48:46.000Z</time>
      </trkpt>
      <trkpt lat="47.53206" lon="6.772">
        <ele>370</ele>
        <time>2016-08-15T09:48:47.000Z</time>
      </trkpt>
      <trkpt lat="47.53202" lon="6.772">
        <ele>370</ele>
        <time>2016-08-15T09:48:48.000Z</time>
      </trkpt>
      <trkpt lat="47.53198" lon="6.772">
        <ele>370</ele>
        <time>2016-08-15T09:48:49.000Z</time>
      </trkpt>
      <trkpt lat="47.53194" lon="6.772">
        <ele>370</ele>
        <time>2016-08-15T09:48:50.000Z</time>
      </trkpt>
      <trkpt lat="47.5319" lon="6.772">
        <ele>370</ele>
        <time>2016-08-15T09:48:51.000Z</time>
      </trkpt>
      <trkpt lat="47.53185" lon="6.772">
        <ele>370</ele>
        <time>2016-08-15T09:48:52.000Z</time>
      </trkpt>
      <trkpt lat="47.53181" lon="6.77201">
        <ele>370</ele>
        <time>2016-08-15T09:48:53.000Z</time>
      </trkpt>
      <trkpt lat="47.53175" lon="6.77201">
        <ele>370</ele>
        <time>2016-08-15T09:48:54.000Z</time>
      </trkpt>
      <trkpt lat="47.53169" lon="6.77201">
        <ele>370</ele>
        <time>2016-08-15T09:48:55.000Z</time>
      </trkpt>
      <trkpt lat="47.53164" lon="6.77201">
        <ele>371</ele>
        <time>2016-08-15T09:48:56.000Z</time>
      </trkpt>
      <trkpt lat="47.53158" lon="6.77201">
        <ele>371</ele>
        <time>2016-08-15T09:48:57.000Z</time>
      </trkpt>
      <trkpt lat="47.53153" lon="6.772">
        <ele>371</ele>
        <time>2016-08-15T09:48:58.000Z</time>
      </trkpt>
      <trkpt lat="47.53148" lon="6.772">
        <ele>371</ele>
        <time>2016-08-15T09:48:59.000Z</time>
      </trkpt>
      <trkpt lat="47.53143" lon="6.77199">
        <ele>371</ele>
        <time>2016-08-15T09:49:00.000Z</time>
      </trkpt>
      <trkpt lat="47.53138" lon="6.77198">
        <ele>371</ele>
        <time>2016-08-15T09:49:01.000Z</time>
      </trkpt>
      <trkpt lat="47.53133" lon="6.77198">
        <ele>371</ele>
        <time>2016-08-15T09:49:02.000Z</time>
      </trkpt>
      <trkpt lat="47.53128" lon="6.77197">
        <ele>371</ele>
        <time>2016-08-15T09:49:03.000Z</time>
      </trkpt>
      <trkpt lat="47.53123" lon="6.77197">
        <ele>371</ele>
        <time>2016-08-15T09:49:04.000Z</time>
      </trkpt>
      <trkpt lat="47.53117" lon="6.77198">
        <ele>371</ele>
        <time>2016-08-15T09:49:05.000Z</time>
      </trkpt>
      <trkpt lat="47.53112" lon="6.77199">
        <ele>371</ele>
        <time>2016-08-15T09:49:06.000Z</time>
      </trkpt>
      <trkpt lat="47.53107" lon="6.77199">
        <ele>371</ele>
        <time>2016-08-15T09:49:07.000Z</time>
      </trkpt>
      <trkpt lat="47.53102" lon="6.772">
        <ele>371</ele>
        <time>2016-08-15T09:49:08.000Z</time>
      </trkpt>
      <trkpt lat="47.53097" lon="6.772">
        <ele>371</ele>
        <time>2016-08-15T09:49:09.000Z</time>
      </trkpt>
      <trkpt lat="47.53092" lon="6.77201">
        <ele>371</ele>
        <time>2016-08-15T09:49:10.000Z</time>
      </trkpt>
      <trkpt lat="47.53087" lon="6.77201">
        <ele>371</ele>
        <time>2016-08-15T09:49:11.000Z</time>
      </trkpt>
      <trkpt lat="47.53081" lon="6.77202">
        <ele>371</ele>
        <time>2016-08-15T09:49:12.000Z</time>
      </trkpt>
      <trkpt lat="47.53076" lon="6.77202">
        <ele>371</ele>
        <time>2016-08-15T09:49:13.000Z</time>
      </trkpt>
      <trkpt lat="47.53071" lon="6.77202">
        <ele>371</ele>
        <time>2016-08-15T09:49:14.000Z</time>
      </trkpt>
      <trkpt lat="47.53065" lon="6.77203">
        <ele>371</ele>
        <time>2016-08-15T09:49:15.000Z</time>
      </trkpt>
      <trkpt lat="47.5306" lon="6.77204">
        <ele>371</ele>
        <time>2016-08-15T09:49:16.000Z</time>
      </trkpt>
      <trkpt lat="47.53055" lon="6.77204">
        <ele>371</ele>
        <time>2016-08-15T09:49:17.000Z</time>
      </trkpt>
      <trkpt lat="47.53051" lon="6.77205">
        <ele>371</ele>
        <time>2016-08-15T09:49:18.000Z</time>
      </trkpt>
      <trkpt lat="47.53047" lon="6.77207">
        <ele>371</ele>
        <time>2016-08-15T09:49:19.000Z</time>
      </trkpt>
      <trkpt lat="47.53043" lon="6.77208">
        <ele>371</ele>
        <time>2016-08-15T09:49:20.000Z</time>
      </trkpt>
      <trkpt lat="47.53038" lon="6.77209">
        <ele>372</ele>
        <time>2016-08-15T09:49:21.000Z</time>
      </trkpt>
      <trkpt lat="47.53033" lon="6.77209">
        <ele>372</ele>
        <time>2016-08-15T09:49:22.000Z</time>
      </trkpt>
      <trkpt lat="47.53028" lon="6.7721">
        <ele>372</ele>
        <time>2016-08-15T09:49:23.000Z</time>
      </trkpt>
      <trkpt lat="47.53023" lon="6.7721">
        <ele>372</ele>
        <time>2016-08-15T09:49:24.000Z</time>
      </trkpt>
      <trkpt lat="47.53018" lon="6.7721">
        <ele>372</ele>
        <time>2016-08-15T09:49:25.000Z</time>
      </trkpt>
      <trkpt lat="47.53012" lon="6.77211">
        <ele>372</ele>
        <time>2016-08-15T09:49:26.000Z</time>
      </trkpt>
      <trkpt lat="47.53007" lon="6.77211">
        <ele>372</ele>
        <time>2016-08-15T09:49:27.000Z</time>
      </trkpt>
      <trkpt lat="47.53002" lon="6.77212">
        <ele>372</ele>
        <time>2016-08-15T09:49:28.000Z</time>
      </trkpt>
      <trkpt lat="47.52996" lon="6.77212">
        <ele>373</ele>
        <time>2016-08-15T09:49:29.000Z</time>
      </trkpt>
      <trkpt lat="47.52969" lon="6.77216">
        <ele>373</ele>
        <time>2016-08-15T09:49:30.000Z</time>
      </trkpt>
      <trkpt lat="47.52965" lon="6.77217">
        <ele>374</ele>
        <time>2016-08-15T09:49:31.000Z</time>
      </trkpt>
      <trkpt lat="47.52962" lon="6.77217">
        <ele>374</ele>
        <time>2016-08-15T09:49:32.000Z</time>
      </trkpt>
      <trkpt lat="47.52958" lon="6.77216">
        <ele>374</ele>
        <time>2016-08-15T09:49:34.000Z</time>
      </trkpt>
      <trkpt lat="47.52956" lon="6.77217">
        <ele>374</ele>
        <time>2016-08-15T09:49:35.000Z</time>
      </trkpt>
      <trkpt lat="47.52952" lon="6.77217">
        <ele>374</ele>
        <time>2016-08-15T09:49:36.000Z</time>
      </trkpt>
      <trkpt lat="47.52948" lon="6.77217">
        <ele>374</ele>
        <time>2016-08-15T09:49:37.000Z</time>
      </trkpt>
      <trkpt lat="47.52943" lon="6.77216">
        <ele>374</ele>
        <time>2016-08-15T09:49:38.000Z</time>
      </trkpt>
      <trkpt lat="47.52939" lon="6.77216">
        <ele>374</ele>
        <time>2016-08-15T09:49:39.000Z</time>
      </trkpt>
      <trkpt lat="47.52936" lon="6.77216">
        <ele>374</ele>
        <time>2016-08-15T09:49:40.000Z</time>
      </trkpt>
      <trkpt lat="47.52934" lon="6.77216">
        <ele>374</ele>
        <time>2016-08-15T09:49:41.000Z</time>
      </trkpt>
      <trkpt lat="47.52931" lon="6.77216">
        <ele>374</ele>
        <time>2016-08-15T09:49:42.000Z</time>
      </trkpt>
      <trkpt lat="47.52928" lon="6.77215">
        <ele>374</ele>
        <time>2016-08-15T09:49:43.000Z</time>
      </trkpt>
      <trkpt lat="47.52925" lon="6.77216">
        <ele>374</ele>
        <time>2016-08-15T09:49:44.000Z</time>
      </trkpt>
      <trkpt lat="47.52922" lon="6.77216">
        <ele>374</ele>
        <time>2016-08-15T09:49:45.000Z</time>
      </trkpt>
      <trkpt lat="47.52919" lon="6.77216">
        <ele>374</ele>
        <time>2016-08-15T09:49:46.000Z</time>
      </trkpt>
      <trkpt lat="47.52915" lon="6.77216">
        <ele>376</ele>
        <time>2016-08-15T09:49:47.000Z</time>
      </trkpt>
      <trkpt lat="47.52912" lon="6.77216">
        <ele>376</ele>
        <time>2016-08-15T09:49:48.000Z</time>
      </trkpt>
      <trkpt lat="47.52909" lon="6.77216">
        <ele>376</ele>
        <time>2016-08-15T09:49:49.000Z</time>
      </trkpt>
      <trkpt lat="47.52904" lon="6.77215">
        <ele>376</ele>
        <time>2016-08-15T09:49:50.000Z</time>
      </trkpt>
      <trkpt lat="47.529" lon="6.77215">
        <ele>376</ele>
        <time>2016-08-15T09:49:51.000Z</time>
      </trkpt>
      <trkpt lat="47.52895" lon="6.77214">
        <ele>376</ele>
        <time>2016-08-15T09:49:52.000Z</time>
      </trkpt>
      <trkpt lat="47.5289" lon="6.77213">
        <ele>376</ele>
        <time>2016-08-15T09:49:53.000Z</time>
      </trkpt>
      <trkpt lat="47.52885" lon="6.77212">
        <ele>377</ele>
        <time>2016-08-15T09:49:54.000Z</time>
      </trkpt>
      <trkpt lat="47.52881" lon="6.77212">
        <ele>377</ele>
        <time>2016-08-15T09:49:55.000Z</time>
      </trkpt>
      <trkpt lat="47.52877" lon="6.77212">
        <ele>377</ele>
        <time>2016-08-15T09:49:56.000Z</time>
      </trkpt>
      <trkpt lat="47.52873" lon="6.77212">
        <ele>377</ele>
        <time>2016-08-15T09:49:57.000Z</time>
      </trkpt>
      <trkpt lat="47.5287" lon="6.77213">
        <ele>377</ele>
        <time>2016-08-15T09:49:58.000Z</time>
      </trkpt>
      <trkpt lat="47.52866" lon="6.77214">
        <ele>377</ele>
        <time>2016-08-15T09:49:59.000Z</time>
      </trkpt>
      <trkpt lat="47.52863" lon="6.77215">
        <ele>377</ele>
        <time>2016-08-15T09:50:00.000Z</time>
      </trkpt>
      <trkpt lat="47.5286" lon="6.77216">
        <ele>377</ele>
        <time>2016-08-15T09:50:01.000Z</time>
      </trkpt>
      <trkpt lat="47.52857" lon="6.77216">
        <ele>377</ele>
        <time>2016-08-15T09:50:02.000Z</time>
      </trkpt>
      <trkpt lat="47.52854" lon="6.77217">
        <ele>377</ele>
        <time>2016-08-15T09:50:03.000Z</time>
      </trkpt>
      <trkpt lat="47.52851" lon="6.77217">
        <ele>377</ele>
        <time>2016-08-15T09:50:04.000Z</time>
      </trkpt>
      <trkpt lat="47.52848" lon="6.77217">
        <ele>377</ele>
        <time>2016-08-15T09:50:05.000Z</time>
      </trkpt>
      <trkpt lat="47.52845" lon="6.77217">
        <ele>378</ele>
        <time>2016-08-15T09:50:06.000Z</time>
      </trkpt>
      <trkpt lat="47.52842" lon="6.77217">
        <ele>378</ele>
        <time>2016-08-15T09:50:07.000Z</time>
      </trkpt>
      <trkpt lat="47.52838" lon="6.77217">
        <ele>378</ele>
        <time>2016-08-15T09:50:08.000Z</time>
      </trkpt>
      <trkpt lat="47.52835" lon="6.77218">
        <ele>378</ele>
        <time>2016-08-15T09:50:09.000Z</time>
      </trkpt>
      <trkpt lat="47.52831" lon="6.77218">
        <ele>380</ele>
        <time>2016-08-15T09:50:10.000Z</time>
      </trkpt>
      <trkpt lat="47.52828" lon="6.77218">
        <ele>380</ele>
        <time>2016-08-15T09:50:11.000Z</time>
      </trkpt>
      <trkpt lat="47.52825" lon="6.77218">
        <ele>380</ele>
        <time>2016-08-15T09:50:12.000Z</time>
      </trkpt>
      <trkpt lat="47.52822" lon="6.77218">
        <ele>380</ele>
        <time>2016-08-15T09:50:13.000Z</time>
      </trkpt>
      <trkpt lat="47.52819" lon="6.77218">
        <ele>380</ele>
        <time>2016-08-15T09:50:14.000Z</time>
      </trkpt>
      <trkpt lat="47.52816" lon="6.77219">
        <ele>380</ele>
        <time>2016-08-15T09:50:15.000Z</time>
      </trkpt>
      <trkpt lat="47.52813" lon="6.7722">
        <ele>380</ele>
        <time>2016-08-15T09:50:16.000Z</time>
      </trkpt>
      <trkpt lat="47.5281" lon="6.7722">
        <ele>380</ele>
        <time>2016-08-15T09:50:17.000Z</time>
      </trkpt>
      <trkpt lat="47.52808" lon="6.77221">
        <ele>380</ele>
        <time>2016-08-15T09:50:18.000Z</time>
      </trkpt>
      <trkpt lat="47.52806" lon="6.77221">
        <ele>380</ele>
        <time>2016-08-15T09:50:19.000Z</time>
      </trkpt>
      <trkpt lat="47.52803" lon="6.77222">
        <ele>380</ele>
        <time>2016-08-15T09:50:20.000Z</time>
      </trkpt>
      <trkpt lat="47.52799" lon="6.77222">
        <ele>380</ele>
        <time>2016-08-15T09:50:22.000Z</time>
      </trkpt>
      <trkpt lat="47.52796" lon="6.77222">
        <ele>380</ele>
        <time>2016-08-15T09:50:23.000Z</time>
      </trkpt>
      <trkpt lat="47.52793" lon="6.77222">
        <ele>381</ele>
        <time>2016-08-15T09:50:24.000Z</time>
      </trkpt>
      <trkpt lat="47.52789" lon="6.77222">
        <ele>381</ele>
        <time>2016-08-15T09:50:25.000Z</time>
      </trkpt>
      <trkpt lat="47.52786" lon="6.77222">
        <ele>381</ele>
        <time>2016-08-15T09:50:26.000Z</time>
      </trkpt>
      <trkpt lat="47.52782" lon="6.77221">
        <ele>381</ele>
        <time>2016-08-15T09:50:27.000Z</time>
      </trkpt>
      <trkpt lat="47.5278" lon="6.7722">
        <ele>381</ele>
        <time>2016-08-15T09:50:28.000Z</time>
      </trkpt>
      <trkpt lat="47.52777" lon="6.7722">
        <ele>381</ele>
        <time>2016-08-15T09:50:29.000Z</time>
      </trkpt>
      <trkpt lat="47.52774" lon="6.77219">
        <ele>381</ele>
        <time>2016-08-15T09:50:30.000Z</time>
      </trkpt>
      <trkpt lat="47.52772" lon="6.77219">
        <ele>381</ele>
        <time>2016-08-15T09:50:31.000Z</time>
      </trkpt>
      <trkpt lat="47.52769" lon="6.77219">
        <ele>381</ele>
        <time>2016-08-15T09:50:32.000Z</time>
      </trkpt>
      <trkpt lat="47.52767" lon="6.7722">
        <ele>381</ele>
        <time>2016-08-15T09:50:33.000Z</time>
      </trkpt>
      <trkpt lat="47.52765" lon="6.7722">
        <ele>381</ele>
        <time>2016-08-15T09:50:34.000Z</time>
      </trkpt>
      <trkpt lat="47.52762" lon="6.7722">
        <ele>381</ele>
        <time>2016-08-15T09:50:35.000Z</time>
      </trkpt>
      <trkpt lat="47.5276" lon="6.7722">
        <ele>381</ele>
        <time>2016-08-15T09:50:36.000Z</time>
      </trkpt>
      <trkpt lat="47.52757" lon="6.77221">
        <ele>381</ele>
        <time>2016-08-15T09:50:37.000Z</time>
      </trkpt>
      <trkpt lat="47.52754" lon="6.77221">
        <ele>381</ele>
        <time>2016-08-15T09:50:38.000Z</time>
      </trkpt>
      <trkpt lat="47.5275" lon="6.77222">
        <ele>384</ele>
        <time>2016-08-15T09:50:39.000Z</time>
      </trkpt>
      <trkpt lat="47.52745" lon="6.77224">
        <ele>384</ele>
        <time>2016-08-15T09:50:40.000Z</time>
      </trkpt>
      <trkpt lat="47.5274" lon="6.77226">
        <ele>384</ele>
        <time>2016-08-15T09:50:41.000Z</time>
      </trkpt>
      <trkpt lat="47.52735" lon="6.77228">
        <ele>384</ele>
        <time>2016-08-15T09:50:42.000Z</time>
      </trkpt>
      <trkpt lat="47.52731" lon="6.77229">
        <ele>384</ele>
        <time>2016-08-15T09:50:43.000Z</time>
      </trkpt>
      <trkpt lat="47.52726" lon="6.77229">
        <ele>384</ele>
        <time>2016-08-15T09:50:44.000Z</time>
      </trkpt>
      <trkpt lat="47.52722" lon="6.77229">
        <ele>384</ele>
        <time>2016-08-15T09:50:45.000Z</time>
      </trkpt>
      <trkpt lat="47.52718" lon="6.77229">
        <ele>384</ele>
        <time>2016-08-15T09:50:46.000Z</time>
      </trkpt>
      <trkpt lat="47.52713" lon="6.77229">
        <ele>384</ele>
        <time>2016-08-15T09:50:47.000Z</time>
      </trkpt>
      <trkpt lat="47.52709" lon="6.77229">
        <ele>384</ele>
        <time>2016-08-15T09:50:48.000Z</time>
      </trkpt>
      <trkpt lat="47.52703" lon="6.7723">
        <ele>385</ele>
        <time>2016-08-15T09:50:49.000Z</time>
      </trkpt>
      <trkpt lat="47.52697" lon="6.77231">
        <ele>385</ele>
        <time>2016-08-15T09:50:50.000Z</time>
      </trkpt>
      <trkpt lat="47.5269" lon="6.77233">
        <ele>385</ele>
        <time>2016-08-15T09:50:51.000Z</time>
      </trkpt>
      <trkpt lat="47.52684" lon="6.77234">
        <ele>385</ele>
        <time>2016-08-15T09:50:52.000Z</time>
      </trkpt>
      <trkpt lat="47.52678" lon="6.77235">
        <ele>385</ele>
        <time>2016-08-15T09:50:53.000Z</time>
      </trkpt>
      <trkpt lat="47.52674" lon="6.77235">
        <ele>385</ele>
        <time>2016-08-15T09:50:54.000Z</time>
      </trkpt>
      <trkpt lat="47.52671" lon="6.77236">
        <ele>385</ele>
        <time>2016-08-15T09:50:55.000Z</time>
      </trkpt>
      <trkpt lat="47.52668" lon="6.77236">
        <ele>385</ele>
        <time>2016-08-15T09:50:56.000Z</time>
      </trkpt>
      <trkpt lat="47.52666" lon="6.77238">
        <ele>386</ele>
        <time>2016-08-15T09:50:57.000Z</time>
      </trkpt>
      <trkpt lat="47.52662" lon="6.7724">
        <ele>386</ele>
        <time>2016-08-15T09:50:58.000Z</time>
      </trkpt>
      <trkpt lat="47.52659" lon="6.77242">
        <ele>386</ele>
        <time>2016-08-15T09:50:59.000Z</time>
      </trkpt>
      <trkpt lat="47.52656" lon="6.77244">
        <ele>386</ele>
        <time>2016-08-15T09:51:00.000Z</time>
      </trkpt>
      <trkpt lat="47.52653" lon="6.77247">
        <ele>386</ele>
        <time>2016-08-15T09:51:01.000Z</time>
      </trkpt>
      <trkpt lat="47.5265" lon="6.7725">
        <ele>386</ele>
        <time>2016-08-15T09:51:02.000Z</time>
      </trkpt>
      <trkpt lat="47.52648" lon="6.77253">
        <ele>387</ele>
        <time>2016-08-15T09:51:03.000Z</time>
      </trkpt>
      <trkpt lat="47.52646" lon="6.77256">
        <ele>387</ele>
        <time>2016-08-15T09:51:04.000Z</time>
      </trkpt>
      <trkpt lat="47.52643" lon="6.77259">
        <ele>387</ele>
        <time>2016-08-15T09:51:05.000Z</time>
      </trkpt>
      <trkpt lat="47.52641" lon="6.77261">
        <ele>387</ele>
        <time>2016-08-15T09:51:06.000Z</time>
      </trkpt>
      <trkpt lat="47.52639" lon="6.77264">
        <ele>387</ele>
        <time>2016-08-15T09:51:07.000Z</time>
      </trkpt>
      <trkpt lat="47.52635" lon="6.77266">
        <ele>387</ele>
        <time>2016-08-15T09:51:10.000Z</time>
      </trkpt>
      <trkpt lat="47.52634" lon="6.77266">
        <ele>387</ele>
        <time>2016-08-15T09:51:11.000Z</time>
      </trkpt>
      <trkpt lat="47.52631" lon="6.77267">
        <ele>387</ele>
        <time>2016-08-15T09:51:13.000Z</time>
      </trkpt>
      <trkpt lat="47.52629" lon="6.77267">
        <ele>387</ele>
        <time>2016-08-15T09:51:14.000Z</time>
      </trkpt>
      <trkpt lat="47.52626" lon="6.77268">
        <ele>387</ele>
        <time>2016-08-15T09:51:15.000Z</time>
      </trkpt>
      <trkpt lat="47.52622" lon="6.77269">
        <ele>387</ele>
        <time>2016-08-15T09:51:16.000Z</time>
      </trkpt>
      <trkpt lat="47.52619" lon="6.7727">
        <ele>387</ele>
        <time>2016-08-15T09:51:17.000Z</time>
      </trkpt>
      <trkpt lat="47.52616" lon="6.77271">
        <ele>387</ele>
        <time>2016-08-15T09:51:18.000Z</time>
      </trkpt>
      <trkpt lat="47.52612" lon="6.77272">
        <ele>387</ele>
        <time>2016-08-15T09:51:19.000Z</time>
      </trkpt>
      <trkpt lat="47.5261" lon="6.77274">
        <ele>387</ele>
        <time>2016-08-15T09:51:20.000Z</time>
      </trkpt>
      <trkpt lat="47.52607" lon="6.77277">
        <ele>387</ele>
        <time>2016-08-15T09:51:21.000Z</time>
      </trkpt>
      <trkpt lat="47.52605" lon="6.77281">
        <ele>387</ele>
        <time>2016-08-15T09:51:22.000Z</time>
      </trkpt>
      <trkpt lat="47.52602" lon="6.77285">
        <ele>387</ele>
        <time>2016-08-15T09:51:23.000Z</time>
      </trkpt>
      <trkpt lat="47.526" lon="6.7729">
        <ele>387</ele>
        <time>2016-08-15T09:51:24.000Z</time>
      </trkpt>
      <trkpt lat="47.52597" lon="6.77294">
        <ele>387</ele>
        <time>2016-08-15T09:51:25.000Z</time>
      </trkpt>
      <trkpt lat="47.52594" lon="6.77297">
        <ele>387</ele>
        <time>2016-08-15T09:51:26.000Z</time>
      </trkpt>
      <trkpt lat="47.52592" lon="6.773">
        <ele>387</ele>
        <time>2016-08-15T09:51:27.000Z</time>
      </trkpt>
      <trkpt lat="47.52588" lon="6.77302">
        <ele>387</ele>
        <time>2016-08-15T09:51:28.000Z</time>
      </trkpt>
      <trkpt lat="47.52585" lon="6.77304">
        <ele>387</ele>
        <time>2016-08-15T09:51:29.000Z</time>
      </trkpt>
      <trkpt lat="47.52581" lon="6.77307">
        <ele>385</ele>
        <time>2016-08-15T09:51:30.000Z</time>
      </trkpt>
      <trkpt lat="47.52573" lon="6.77313">
        <ele>385</ele>
        <time>2016-08-15T09:51:31.000Z</time>
      </trkpt>
      <trkpt lat="47.52568" lon="6.77317">
        <ele>385</ele>
        <time>2016-08-15T09:51:32.000Z</time>
      </trkpt>
      <trkpt lat="47.52563" lon="6.77319">
        <ele>385</ele>
        <time>2016-08-15T09:51:33.000Z</time>
      </trkpt>
      <trkpt lat="47.52558" lon="6.77321">
        <ele>385</ele>
        <time>2016-08-15T09:51:34.000Z</time>
      </trkpt>
      <trkpt lat="47.52554" lon="6.77325">
        <ele>385</ele>
        <time>2016-08-15T09:51:35.000Z</time>
      </trkpt>
      <trkpt lat="47.52548" lon="6.77327">
        <ele>385</ele>
        <time>2016-08-15T09:51:36.000Z</time>
      </trkpt>
      <trkpt lat="47.52541" lon="6.77329">
        <ele>385</ele>
        <time>2016-08-15T09:51:37.000Z</time>
      </trkpt>
      <trkpt lat="47.52537" lon="6.77333">
        <ele>385</ele>
        <time>2016-08-15T09:51:38.000Z</time>
      </trkpt>
      <trkpt lat="47.52532" lon="6.77334">
        <ele>387</ele>
        <time>2016-08-15T09:51:39.000Z</time>
      </trkpt>
      <trkpt lat="47.52528" lon="6.77336">
        <ele>387</ele>
        <time>2016-08-15T09:51:40.000Z</time>
      </trkpt>
      <trkpt lat="47.52524" lon="6.77338">
        <ele>387</ele>
        <time>2016-08-15T09:51:41.000Z</time>
      </trkpt>
      <trkpt lat="47.5252" lon="6.7734">
        <ele>387</ele>
        <time>2016-08-15T09:51:42.000Z</time>
      </trkpt>
      <trkpt lat="47.52517" lon="6.77342">
        <ele>387</ele>
        <time>2016-08-15T09:51:43.000Z</time>
      </trkpt>
      <trkpt lat="47.52512" lon="6.77344">
        <ele>387</ele>
        <time>2016-08-15T09:51:44.000Z</time>
      </trkpt>
      <trkpt lat="47.52508" lon="6.77346">
        <ele>387</ele>
        <time>2016-08-15T09:51:45.000Z</time>
      </trkpt>
      <trkpt lat="47.52505" lon="6.77349">
        <ele>387</ele>
        <time>2016-08-15T09:51:46.000Z</time>
      </trkpt>
      <trkpt lat="47.52501" lon="6.7735">
        <ele>387</ele>
        <time>2016-08-15T09:51:47.000Z</time>
      </trkpt>
      <trkpt lat="47.52498" lon="6.77351">
        <ele>388</ele>
        <time>2016-08-15T09:51:48.000Z</time>
      </trkpt>
      <trkpt lat="47.52495" lon="6.77353">
        <ele>388</ele>
        <time>2016-08-15T09:51:49.000Z</time>
      </trkpt>
      <trkpt lat="47.52491" lon="6.77354">
        <ele>388</ele>
        <time>2016-08-15T09:51:50.000Z</time>
      </trkpt>
      <trkpt lat="47.52488" lon="6.77356">
        <ele>389</ele>
        <time>2016-08-15T09:51:51.000Z</time>
      </trkpt>
      <trkpt lat="47.52484" lon="6.77358">
        <ele>389</ele>
        <time>2016-08-15T09:51:52.000Z</time>
      </trkpt>
      <trkpt lat="47.52481" lon="6.77361">
        <ele>389</ele>
        <time>2016-08-15T09:51:53.000Z</time>
      </trkpt>
      <trkpt lat="47.52478" lon="6.77365">
        <ele>389</ele>
        <time>2016-08-15T09:51:54.000Z</time>
      </trkpt>
      <trkpt lat="47.52475" lon="6.77368">
        <ele>390</ele>
        <time>2016-08-15T09:51:55.000Z</time>
      </trkpt>
      <trkpt lat="47.52471" lon="6.77371">
        <ele>390</ele>
        <time>2016-08-15T09:51:56.000Z</time>
      </trkpt>
      <trkpt lat="47.52468" lon="6.77372">
        <ele>390</ele>
        <time>2016-08-15T09:51:57.000Z</time>
      </trkpt>
      <trkpt lat="47.52466" lon="6.77372">
        <ele>390</ele>
        <time>2016-08-15T09:51:58.000Z</time>
      </trkpt>
      <trkpt lat="47.52462" lon="6.77373">
        <ele>390</ele>
        <time>2016-08-15T09:51:59.000Z</time>
      </trkpt>
      <trkpt lat="47.52459" lon="6.77374">
        <ele>390</ele>
        <time>2016-08-15T09:52:00.000Z</time>
      </trkpt>
      <trkpt lat="47.52456" lon="6.77374">
        <ele>390</ele>
        <time>2016-08-15T09:52:01.000Z</time>
      </trkpt>
      <trkpt lat="47.52453" lon="6.77375">
        <ele>390</ele>
        <time>2016-08-15T09:52:02.000Z</time>
      </trkpt>
      <trkpt lat="47.52451" lon="6.77375">
        <ele>390</ele>
        <time>2016-08-15T09:52:03.000Z</time>
      </trkpt>
      <trkpt lat="47.52448" lon="6.77376">
        <ele>390</ele>
        <time>2016-08-15T09:52:04.000Z</time>
      </trkpt>
      <trkpt lat="47.52446" lon="6.7738">
        <ele>391</ele>
        <time>2016-08-15T09:52:05.000Z</time>
      </trkpt>
      <trkpt lat="47.52443" lon="6.77383">
        <ele>391</ele>
        <time>2016-08-15T09:52:06.000Z</time>
      </trkpt>
      <trkpt lat="47.52441" lon="6.77386">
        <ele>391</ele>
        <time>2016-08-15T09:52:07.000Z</time>
      </trkpt>
      <trkpt lat="47.52439" lon="6.77389">
        <ele>391</ele>
        <time>2016-08-15T09:52:08.000Z</time>
      </trkpt>
      <trkpt lat="47.52437" lon="6.77393">
        <ele>391</ele>
        <time>2016-08-15T09:52:09.000Z</time>
      </trkpt>
      <trkpt lat="47.52434" lon="6.77396">
        <ele>391</ele>
        <time>2016-08-15T09:52:10.000Z</time>
      </trkpt>
      <trkpt lat="47.52432" lon="6.774">
        <ele>391</ele>
        <time>2016-08-15T09:52:11.000Z</time>
      </trkpt>
      <trkpt lat="47.5243" lon="6.77405">
        <ele>392</ele>
        <time>2016-08-15T09:52:12.000Z</time>
      </trkpt>
      <trkpt lat="47.52428" lon="6.77408">
        <ele>392</ele>
        <time>2016-08-15T09:52:13.000Z</time>
      </trkpt>
      <trkpt lat="47.52426" lon="6.77411">
        <ele>392</ele>
        <time>2016-08-15T09:52:14.000Z</time>
      </trkpt>
      <trkpt lat="47.52425" lon="6.77413">
        <ele>392</ele>
        <time>2016-08-15T09:52:15.000Z</time>
      </trkpt>
      <trkpt lat="47.52423" lon="6.77416">
        <ele>392</ele>
        <time>2016-08-15T09:52:16.000Z</time>
      </trkpt>
      <trkpt lat="47.52421" lon="6.77418">
        <ele>393</ele>
        <time>2016-08-15T09:52:17.000Z</time>
      </trkpt>
      <trkpt lat="47.5242" lon="6.77421">
        <ele>393</ele>
        <time>2016-08-15T09:52:18.000Z</time>
      </trkpt>
      <trkpt lat="47.52418" lon="6.77424">
        <ele>393</ele>
        <time>2016-08-15T09:52:19.000Z</time>
      </trkpt>
      <trkpt lat="47.52416" lon="6.77429">
        <ele>392</ele>
        <time>2016-08-15T09:52:20.000Z</time>
      </trkpt>
      <trkpt lat="47.52413" lon="6.77433">
        <ele>392</ele>
        <time>2016-08-15T09:52:21.000Z</time>
      </trkpt>
      <trkpt lat="47.52411" lon="6.77438">
        <ele>392</ele>
        <time>2016-08-15T09:52:22.000Z</time>
      </trkpt>
      <trkpt lat="47.52409" lon="6.77441">
        <ele>392</ele>
        <time>2016-08-15T09:52:23.000Z</time>
      </trkpt>
      <trkpt lat="47.52406" lon="6.77445">
        <ele>392</ele>
        <time>2016-08-15T09:52:24.000Z</time>
      </trkpt>
      <trkpt lat="47.52403" lon="6.77448">
        <ele>392</ele>
        <time>2016-08-15T09:52:25.000Z</time>
      </trkpt>
      <trkpt lat="47.524" lon="6.77451">
        <ele>392</ele>
        <time>2016-08-15T09:52:26.000Z</time>
      </trkpt>
      <trkpt lat="47.52397" lon="6.77454">
        <ele>392</ele>
        <time>2016-08-15T09:52:27.000Z</time>
      </trkpt>
      <trkpt lat="47.52393" lon="6.77458">
        <ele>391</ele>
        <time>2016-08-15T09:52:28.000Z</time>
      </trkpt>
      <trkpt lat="47.5239" lon="6.77461">
        <ele>391</ele>
        <time>2016-08-15T09:52:29.000Z</time>
      </trkpt>
      <trkpt lat="47.52386" lon="6.77464">
        <ele>391</ele>
        <time>2016-08-15T09:52:30.000Z</time>
      </trkpt>
      <trkpt lat="47.52382" lon="6.77468">
        <ele>391</ele>
        <time>2016-08-15T09:52:31.000Z</time>
      </trkpt>
      <trkpt lat="47.52379" lon="6.77472">
        <ele>391</ele>
        <time>2016-08-15T09:52:32.000Z</time>
      </trkpt>
      <trkpt lat="47.52375" lon="6.77475">
        <ele>391</ele>
        <time>2016-08-15T09:52:33.000Z</time>
      </trkpt>
      <trkpt lat="47.52372" lon="6.77478">
        <ele>391</ele>
        <time>2016-08-15T09:52:34.000Z</time>
      </trkpt>
      <trkpt lat="47.52369" lon="6.77481">
        <ele>391</ele>
        <time>2016-08-15T09:52:35.000Z</time>
      </trkpt>
      <trkpt lat="47.52366" lon="6.77484">
        <ele>391</ele>
        <time>2016-08-15T09:52:36.000Z</time>
      </trkpt>
      <trkpt lat="47.52362" lon="6.77486">
        <ele>391</ele>
        <time>2016-08-15T09:52:37.000Z</time>
      </trkpt>
      <trkpt lat="47.52357" lon="6.77494">
        <ele>390</ele>
        <time>2016-08-15T09:52:38.000Z</time>
      </trkpt>
      <trkpt lat="47.52352" lon="6.77496">
        <ele>390</ele>
        <time>2016-08-15T09:52:39.000Z</time>
      </trkpt>
      <trkpt lat="47.52348" lon="6.77499">
        <ele>390</ele>
        <time>2016-08-15T09:52:40.000Z</time>
      </trkpt>
      <trkpt lat="47.52344" lon="6.77501">
        <ele>389</ele>
        <time>2016-08-15T09:52:41.000Z</time>
      </trkpt>
      <trkpt lat="47.52339" lon="6.77504">
        <ele>389</ele>
        <time>2016-08-15T09:52:42.000Z</time>
      </trkpt>
      <trkpt lat="47.52335" lon="6.77507">
        <ele>389</ele>
        <time>2016-08-15T09:52:43.000Z</time>
      </trkpt>
      <trkpt lat="47.5233" lon="6.7751">
        <ele>388</ele>
        <time>2016-08-15T09:52:44.000Z</time>
      </trkpt>
      <trkpt lat="47.52326" lon="6.77513">
        <ele>388</ele>
        <time>2016-08-15T09:52:45.000Z</time>
      </trkpt>
      <trkpt lat="47.52322" lon="6.77516">
        <ele>388</ele>
        <time>2016-08-15T09:52:46.000Z</time>
      </trkpt>
      <trkpt lat="47.52318" lon="6.77519">
        <ele>388</ele>
        <time>2016-08-15T09:52:47.000Z</time>
      </trkpt>
      <trkpt lat="47.52314" lon="6.77521">
        <ele>388</ele>
        <time>2016-08-15T09:52:48.000Z</time>
      </trkpt>
      <trkpt lat="47.52309" lon="6.77519">
        <ele>388</ele>
        <time>2016-08-15T09:52:49.000Z</time>
      </trkpt>
      <trkpt lat="47.52304" lon="6.77522">
        <ele>388</ele>
        <time>2016-08-15T09:52:50.000Z</time>
      </trkpt>
      <trkpt lat="47.523" lon="6.77527">
        <ele>388</ele>
        <time>2016-08-15T09:52:51.000Z</time>
      </trkpt>
      <trkpt lat="47.52296" lon="6.7753">
        <ele>387</ele>
        <time>2016-08-15T09:52:52.000Z</time>
      </trkpt>
      <trkpt lat="47.52291" lon="6.77533">
        <ele>387</ele>
        <time>2016-08-15T09:52:53.000Z</time>
      </trkpt>
      <trkpt lat="47.52286" lon="6.77536">
        <ele>387</ele>
        <time>2016-08-15T09:52:54.000Z</time>
      </trkpt>
      <trkpt lat="47.52282" lon="6.77538">
        <ele>387</ele>
        <time>2016-08-15T09:52:55.000Z</time>
      </trkpt>
      <trkpt lat="47.52278" lon="6.77541">
        <ele>387</ele>
        <time>2016-08-15T09:52:56.000Z</time>
      </trkpt>
      <trkpt lat="47.52274" lon="6.77543">
        <ele>387</ele>
        <time>2016-08-15T09:52:57.000Z</time>
      </trkpt>
      <trkpt lat="47.5227" lon="6.77546">
        <ele>387</ele>
        <time>2016-08-15T09:52:58.000Z</time>
      </trkpt>
      <trkpt lat="47.52266" lon="6.7755">
        <ele>387</ele>
        <time>2016-08-15T09:52:59.000Z</time>
      </trkpt>
      <trkpt lat="47.52262" lon="6.77551">
        <ele>387</ele>
        <time>2016-08-15T09:53:00.000Z</time>
      </trkpt>
      <trkpt lat="47.52258" lon="6.77554">
        <ele>387</ele>
        <time>2016-08-15T09:53:01.000Z</time>
      </trkpt>
      <trkpt lat="47.52254" lon="6.77557">
        <ele>387</ele>
        <time>2016-08-15T09:53:02.000Z</time>
      </trkpt>
      <trkpt lat="47.52251" lon="6.77559">
        <ele>387</ele>
        <time>2016-08-15T09:53:03.000Z</time>
      </trkpt>
      <trkpt lat="47.52247" lon="6.77562">
        <ele>387</ele>
        <time>2016-08-15T09:53:04.000Z</time>
      </trkpt>
      <trkpt lat="47.52243" lon="6.77564">
        <ele>387</ele>
        <time>2016-08-15T09:53:05.000Z</time>
      </trkpt>
      <trkpt lat="47.52239" lon="6.77568">
        <ele>387</ele>
        <time>2016-08-15T09:53:06.000Z</time>
      </trkpt>
      <trkpt lat="47.52234" lon="6.7757">
        <ele>387</ele>
        <time>2016-08-15T09:53:07.000Z</time>
      </trkpt>
      <trkpt lat="47.52231" lon="6.77574">
        <ele>387</ele>
        <time>2016-08-15T09:53:08.000Z</time>
      </trkpt>
      <trkpt lat="47.52226" lon="6.77582">
        <ele>387</ele>
        <time>2016-08-15T09:53:09.000Z</time>
      </trkpt>
      <trkpt lat="47.52222" lon="6.77586">
        <ele>386</ele>
        <time>2016-08-15T09:53:10.000Z</time>
      </trkpt>
      <trkpt lat="47.52218" lon="6.77589">
        <ele>386</ele>
        <time>2016-08-15T09:53:11.000Z</time>
      </trkpt>
      <trkpt lat="47.52212" lon="6.77593">
        <ele>387</ele>
        <time>2016-08-15T09:53:12.000Z</time>
      </trkpt>
      <trkpt lat="47.52207" lon="6.77596">
        <ele>387</ele>
        <time>2016-08-15T09:53:13.000Z</time>
      </trkpt>
      <trkpt lat="47.52203" lon="6.77599">
        <ele>387</ele>
        <time>2016-08-15T09:53:14.000Z</time>
      </trkpt>
      <trkpt lat="47.52198" lon="6.77603">
        <ele>387</ele>
        <time>2016-08-15T09:53:15.000Z</time>
      </trkpt>
      <trkpt lat="47.52193" lon="6.77607">
        <ele>387</ele>
        <time>2016-08-15T09:53:16.000Z</time>
      </trkpt>
      <trkpt lat="47.52188" lon="6.7761">
        <ele>387</ele>
        <time>2016-08-15T09:53:17.000Z</time>
      </trkpt>
      <trkpt lat="47.52183" lon="6.77613">
        <ele>387</ele>
        <time>2016-08-15T09:53:18.000Z</time>
      </trkpt>
      <trkpt lat="47.52178" lon="6.77618">
        <ele>387</ele>
        <time>2016-08-15T09:53:19.000Z</time>
      </trkpt>
      <trkpt lat="47.52174" lon="6.77621">
        <ele>387</ele>
        <time>2016-08-15T09:53:20.000Z</time>
      </trkpt>
      <trkpt lat="47.5217" lon="6.77624">
        <ele>387</ele>
        <time>2016-08-15T09:53:21.000Z</time>
      </trkpt>
      <trkpt lat="47.52165" lon="6.77628">
        <ele>390</ele>
        <time>2016-08-15T09:53:22.000Z</time>
      </trkpt>
      <trkpt lat="47.52161" lon="6.77632">
        <ele>390</ele>
        <time>2016-08-15T09:53:23.000Z</time>
      </trkpt>
      <trkpt lat="47.52155" lon="6.77635">
        <ele>390</ele>
        <time>2016-08-15T09:53:24.000Z</time>
      </trkpt>
      <trkpt lat="47.52151" lon="6.77637">
        <ele>390</ele>
        <time>2016-08-15T09:53:25.000Z</time>
      </trkpt>
      <trkpt lat="47.52147" lon="6.7764">
        <ele>390</ele>
        <time>2016-08-15T09:53:26.000Z</time>
      </trkpt>
      <trkpt lat="47.52145" lon="6.77642">
        <ele>390</ele>
        <time>2016-08-15T09:53:27.000Z</time>
      </trkpt>
      <trkpt lat="47.52142" lon="6.77644">
        <ele>390</ele>
        <time>2016-08-15T09:53:28.000Z</time>
      </trkpt>
      <trkpt lat="47.52138" lon="6.77647">
        <ele>390</ele>
        <time>2016-08-15T09:53:29.000Z</time>
      </trkpt>
      <trkpt lat="47.52134" lon="6.7765">
        <ele>390</ele>
        <time>2016-08-15T09:53:30.000Z</time>
      </trkpt>
      <trkpt lat="47.52129" lon="6.77652">
        <ele>391</ele>
        <time>2016-08-15T09:53:31.000Z</time>
      </trkpt>
      <trkpt lat="47.52125" lon="6.77656">
        <ele>391</ele>
        <time>2016-08-15T09:53:32.000Z</time>
      </trkpt>
      <trkpt lat="47.52119" lon="6.77658">
        <ele>391</ele>
        <time>2016-08-15T09:53:33.000Z</time>
      </trkpt>
      <trkpt lat="47.52113" lon="6.77661">
        <ele>391</ele>
        <time>2016-08-15T09:53:34.000Z</time>
      </trkpt>
      <trkpt lat="47.52109" lon="6.77668">
        <ele>391</ele>
        <time>2016-08-15T09:53:35.000Z</time>
      </trkpt>
      <trkpt lat="47.52104" lon="6.77671">
        <ele>392</ele>
        <time>2016-08-15T09:53:36.000Z</time>
      </trkpt>
      <trkpt lat="47.521" lon="6.77672">
        <ele>392</ele>
        <time>2016-08-15T09:53:37.000Z</time>
      </trkpt>
      <trkpt lat="47.521" lon="6.77662">
        <ele>392</ele>
        <time>2016-08-15T09:53:38.000Z</time>
      </trkpt>
      <trkpt lat="47.521" lon="6.77656">
        <ele>392</ele>
        <time>2016-08-15T09:53:39.000Z</time>
      </trkpt>
      <trkpt lat="47.52101" lon="6.7765">
        <ele>391</ele>
        <time>2016-08-15T09:53:40.000Z</time>
      </trkpt>
      <trkpt lat="47.52101" lon="6.77645">
        <ele>391</ele>
        <time>2016-08-15T09:53:41.000Z</time>
      </trkpt>
      <trkpt lat="47.52101" lon="6.77638">
        <ele>391</ele>
        <time>2016-08-15T09:53:42.000Z</time>
      </trkpt>
      <trkpt lat="47.52102" lon="6.77632">
        <ele>391</ele>
        <time>2016-08-15T09:53:43.000Z</time>
      </trkpt>
      <trkpt lat="47.52102" lon="6.77624">
        <ele>391</ele>
        <time>2016-08-15T09:53:44.000Z</time>
      </trkpt>
      <trkpt lat="47.52101" lon="6.77618">
        <ele>391</ele>
        <time>2016-08-15T09:53:45.000Z</time>
      </trkpt>
      <trkpt lat="47.52101" lon="6.77612">
        <ele>391</ele>
        <time>2016-08-15T09:53:46.000Z</time>
      </trkpt>
      <trkpt lat="47.52101" lon="6.77609">
        <ele>391</ele>
        <time>2016-08-15T09:53:47.000Z</time>
      </trkpt>
      <trkpt lat="47.521" lon="6.77602">
        <ele>391</ele>
        <time>2016-08-15T09:53:48.000Z</time>
      </trkpt>
      <trkpt lat="47.52101" lon="6.77597">
        <ele>391</ele>
        <time>2016-08-15T09:53:49.000Z</time>
      </trkpt>
      <trkpt lat="47.521" lon="6.7759">
        <ele>391</ele>
        <time>2016-08-15T09:53:50.000Z</time>
      </trkpt>
      <trkpt lat="47.521" lon="6.77584">
        <ele>391</ele>
        <time>2016-08-15T09:53:51.000Z</time>
      </trkpt>
      <trkpt lat="47.521" lon="6.77579">
        <ele>390</ele>
        <time>2016-08-15T09:53:52.000Z</time>
      </trkpt>
      <trkpt lat="47.521" lon="6.77572">
        <ele>390</ele>
        <time>2016-08-15T09:53:53.000Z</time>
      </trkpt>
      <trkpt lat="47.52098" lon="6.77566">
        <ele>390</ele>
        <time>2016-08-15T09:53:54.000Z</time>
      </trkpt>
      <trkpt lat="47.52096" lon="6.77562">
        <ele>390</ele>
        <time>2016-08-15T09:53:55.000Z</time>
      </trkpt>
      <trkpt lat="47.52094" lon="6.77556">
        <ele>390</ele>
        <time>2016-08-15T09:53:56.000Z</time>
      </trkpt>
      <trkpt lat="47.52089" lon="6.77555">
        <ele>390</ele>
        <time>2016-08-15T09:53:57.000Z</time>
      </trkpt>
      <trkpt lat="47.52083" lon="6.77555">
        <ele>391</ele>
        <time>2016-08-15T09:53:58.000Z</time>
      </trkpt>
      <trkpt lat="47.52079" lon="6.77553">
        <ele>391</ele>
        <time>2016-08-15T09:53:59.000Z</time>
      </trkpt>
      <trkpt lat="47.52074" lon="6.77551">
        <ele>391</ele>
        <time>2016-08-15T09:54:00.000Z</time>
      </trkpt>
      <trkpt lat="47.5207" lon="6.7755">
        <ele>391</ele>
        <time>2016-08-15T09:54:01.000Z</time>
      </trkpt>
      <trkpt lat="47.52063" lon="6.77549">
        <ele>391</ele>
        <time>2016-08-15T09:54:02.000Z</time>
      </trkpt>
      <trkpt lat="47.52059" lon="6.77548">
        <ele>391</ele>
        <time>2016-08-15T09:54:03.000Z</time>
      </trkpt>
      <trkpt lat="47.52053" lon="6.77548">
        <ele>391</ele>
        <time>2016-08-15T09:54:04.000Z</time>
      </trkpt>
      <trkpt lat="47.52049" lon="6.77547">
        <ele>391</ele>
        <time>2016-08-15T09:54:05.000Z</time>
      </trkpt>
      <trkpt lat="47.52044" lon="6.77544">
        <ele>391</ele>
        <time>2016-08-15T09:54:06.000Z</time>
      </trkpt>
      <trkpt lat="47.5204" lon="6.77542">
        <ele>391</ele>
        <time>2016-08-15T09:54:07.000Z</time>
      </trkpt>
      <trkpt lat="47.52036" lon="6.77541">
        <ele>390</ele>
        <time>2016-08-15T09:54:08.000Z</time>
      </trkpt>
      <trkpt lat="47.52033" lon="6.7754">
        <ele>390</ele>
        <time>2016-08-15T09:54:09.000Z</time>
      </trkpt>
      <trkpt lat="47.52029" lon="6.77539">
        <ele>390</ele>
        <time>2016-08-15T09:54:10.000Z</time>
      </trkpt>
      <trkpt lat="47.52026" lon="6.77538">
        <ele>390</ele>
        <time>2016-08-15T09:54:11.000Z</time>
      </trkpt>
      <trkpt lat="47.52018" lon="6.77537">
        <ele>390</ele>
        <time>2016-08-15T09:54:12.000Z</time>
      </trkpt>
      <trkpt lat="47.52011" lon="6.77535">
        <ele>390</ele>
        <time>2016-08-15T09:54:13.000Z</time>
      </trkpt>
      <trkpt lat="47.52007" lon="6.77534">
        <ele>390</ele>
        <time>2016-08-15T09:54:14.000Z</time>
      </trkpt>
      <trkpt lat="47.52002" lon="6.77531">
        <ele>390</ele>
        <time>2016-08-15T09:54:15.000Z</time>
      </trkpt>
      <trkpt lat="47.51998" lon="6.77529">
        <ele>390</ele>
        <time>2016-08-15T09:54:16.000Z</time>
      </trkpt>
      <trkpt lat="47.51993" lon="6.77527">
        <ele>390</ele>
        <time>2016-08-15T09:54:17.000Z</time>
      </trkpt>
      <trkpt lat="47.51988" lon="6.77525">
        <ele>390</ele>
        <time>2016-08-15T09:54:18.000Z</time>
      </trkpt>
      <trkpt lat="47.51982" lon="6.77524">
        <ele>390</ele>
        <time>2016-08-15T09:54:19.000Z</time>
      </trkpt>
      <trkpt lat="47.51976" lon="6.77522">
        <ele>390</ele>
        <time>2016-08-15T09:54:20.000Z</time>
      </trkpt>
      <trkpt lat="47.5197" lon="6.77521">
        <ele>390</ele>
        <time>2016-08-15T09:54:21.000Z</time>
      </trkpt>
      <trkpt lat="47.51964" lon="6.7752">
        <ele>390</ele>
        <time>2016-08-15T09:54:22.000Z</time>
      </trkpt>
      <trkpt lat="47.51959" lon="6.77518">
        <ele>390</ele>
        <time>2016-08-15T09:54:23.000Z</time>
      </trkpt>
      <trkpt lat="47.51956" lon="6.77517">
        <ele>390</ele>
        <time>2016-08-15T09:54:24.000Z</time>
      </trkpt>
      <trkpt lat="47.51952" lon="6.77516">
        <ele>390</ele>
        <time>2016-08-15T09:54:25.000Z</time>
      </trkpt>
      <trkpt lat="47.5195" lon="6.77516">
        <ele>389</ele>
        <time>2016-08-15T09:54:26.000Z</time>
      </trkpt>
      <trkpt lat="47.51947" lon="6.77514">
        <ele>389</ele>
        <time>2016-08-15T09:54:27.000Z</time>
      </trkpt>
      <trkpt lat="47.51944" lon="6.77513">
        <ele>389</ele>
        <time>2016-08-15T09:54:28.000Z</time>
      </trkpt>
      <trkpt lat="47.51941" lon="6.77512">
        <ele>389</ele>
        <time>2016-08-15T09:54:29.000Z</time>
      </trkpt>
      <trkpt lat="47.51938" lon="6.77509">
        <ele>389</ele>
        <time>2016-08-15T09:54:31.000Z</time>
      </trkpt>
      <trkpt lat="47.51935" lon="6.77509">
        <ele>389</ele>
        <time>2016-08-15T09:54:32.000Z</time>
      </trkpt>
      <trkpt lat="47.51933" lon="6.77508">
        <ele>389</ele>
        <time>2016-08-15T09:54:33.000Z</time>
      </trkpt>
      <trkpt lat="47.5193" lon="6.77507">
        <ele>389</ele>
        <time>2016-08-15T09:54:34.000Z</time>
      </trkpt>
      <trkpt lat="47.51927" lon="6.77506">
        <ele>389</ele>
        <time>2016-08-15T09:54:35.000Z</time>
      </trkpt>
      <trkpt lat="47.51924" lon="6.77505">
        <ele>389</ele>
        <time>2016-08-15T09:54:36.000Z</time>
      </trkpt>
      <trkpt lat="47.51921" lon="6.77503">
        <ele>388</ele>
        <time>2016-08-15T09:54:37.000Z</time>
      </trkpt>
      <trkpt lat="47.51916" lon="6.77502">
        <ele>388</ele>
        <time>2016-08-15T09:54:38.000Z</time>
      </trkpt>
      <trkpt lat="47.51911" lon="6.77501">
        <ele>388</ele>
        <time>2016-08-15T09:54:39.000Z</time>
      </trkpt>
      <trkpt lat="47.51906" lon="6.775">
        <ele>387</ele>
        <time>2016-08-15T09:54:40.000Z</time>
      </trkpt>
      <trkpt lat="47.51896" lon="6.77498">
        <ele>387</ele>
        <time>2016-08-15T09:54:41.000Z</time>
      </trkpt>
      <trkpt lat="47.51889" lon="6.77499">
        <ele>387</ele>
        <time>2016-08-15T09:54:42.000Z</time>
      </trkpt>
      <trkpt lat="47.51883" lon="6.775">
        <ele>387</ele>
        <time>2016-08-15T09:54:43.000Z</time>
      </trkpt>
      <trkpt lat="47.51877" lon="6.77503">
        <ele>388</ele>
        <time>2016-08-15T09:54:44.000Z</time>
      </trkpt>
      <trkpt lat="47.51869" lon="6.77504">
        <ele>388</ele>
        <time>2016-08-15T09:54:45.000Z</time>
      </trkpt>
      <trkpt lat="47.51866" lon="6.77502">
        <ele>388</ele>
        <time>2016-08-15T09:54:46.000Z</time>
      </trkpt>
      <trkpt lat="47.51862" lon="6.77501">
        <ele>388</ele>
        <time>2016-08-15T09:54:47.000Z</time>
      </trkpt>
      <trkpt lat="47.51857" lon="6.77498">
        <ele>387</ele>
        <time>2016-08-15T09:54:48.000Z</time>
      </trkpt>
      <trkpt lat="47.51852" lon="6.77496">
        <ele>387</ele>
        <time>2016-08-15T09:54:49.000Z</time>
      </trkpt>
      <trkpt lat="47.51848" lon="6.77493">
        <ele>387</ele>
        <time>2016-08-15T09:54:50.000Z</time>
      </trkpt>
      <trkpt lat="47.51843" lon="6.77491">
        <ele>387</ele>
        <time>2016-08-15T09:54:51.000Z</time>
      </trkpt>
      <trkpt lat="47.5184" lon="6.77489">
        <ele>387</ele>
        <time>2016-08-15T09:54:52.000Z</time>
      </trkpt>
      <trkpt lat="47.51836" lon="6.77489">
        <ele>387</ele>
        <time>2016-08-15T09:54:53.000Z</time>
      </trkpt>
      <trkpt lat="47.51833" lon="6.77487">
        <ele>387</ele>
        <time>2016-08-15T09:54:54.000Z</time>
      </trkpt>
      <trkpt lat="47.51831" lon="6.77486">
        <ele>387</ele>
        <time>2016-08-15T09:54:55.000Z</time>
      </trkpt>
      <trkpt lat="47.51828" lon="6.7749">
        <ele>387</ele>
        <time>2016-08-15T09:55:56.000Z</time>
      </trkpt>
      <trkpt lat="47.51828" lon="6.7749">
        <ele>387</ele>
        <time>2016-08-15T09:55:57.000Z</time>
      </trkpt>
      <trkpt lat="47.51824" lon="6.7749">
        <ele>387</ele>
        <time>2016-08-15T09:56:06.000Z</time>
      </trkpt>
      <trkpt lat="47.51823" lon="6.77491">
        <ele>387</ele>
        <time>2016-08-15T09:56:07.000Z</time>
      </trkpt>
      <trkpt lat="47.51819" lon="6.77491">
        <ele>387</ele>
        <time>2016-08-15T09:56:17.000Z</time>
      </trkpt>
      <trkpt lat="47.51818" lon="6.77491">
        <ele>387</ele>
        <time>2016-08-15T09:56:18.000Z</time>
      </trkpt>
      <trkpt lat="47.51816" lon="6.77486">
        <ele>387</ele>
        <time>2016-08-15T09:56:29.000Z</time>
      </trkpt>
      <trkpt lat="47.51815" lon="6.77484">
        <ele>388</ele>
        <time>2016-08-15T09:56:30.000Z</time>
      </trkpt>
      <trkpt lat="47.51812" lon="6.77481">
        <ele>388</ele>
        <time>2016-08-15T09:56:32.000Z</time>
      </trkpt>
      <trkpt lat="47.51811" lon="6.77481">
        <ele>388</ele>
        <time>2016-08-15T09:56:33.000Z</time>
      </trkpt>
      <trkpt lat="47.51808" lon="6.77477">
        <ele>388</ele>
        <time>2016-08-15T09:56:37.000Z</time>
      </trkpt>
      <trkpt lat="47.51807" lon="6.77476">
        <ele>388</ele>
        <time>2016-08-15T09:56:38.000Z</time>
      </trkpt>
      <trkpt lat="47.51805" lon="6.77472">
        <ele>388</ele>
        <time>2016-08-15T09:56:41.000Z</time>
      </trkpt>
      <trkpt lat="47.51804" lon="6.77471">
        <ele>388</ele>
        <time>2016-08-15T09:56:42.000Z</time>
      </trkpt>
      <trkpt lat="47.51802" lon="6.77466">
        <ele>388</ele>
        <time>2016-08-15T09:57:27.000Z</time>
      </trkpt>
    </trkseg>
  </trk>
</gpx>